<?xml version='1.0' encoding='UTF-8'?><gpx version="1.1" creator="JPX - https://github.com/jenetics/jpx" xmlns="http://www.topografix.com/GPX/1/1"><trk><trkseg><trkpt lat="45.7741157795892" lon="4.81298485662762"><ele>173.0</ele><time>2026-04-28T12:17:17.001Z</time></trkpt><trkpt lat="45.77403757872294" lon="4.812918826336679"><ele>173.0</ele><time>2026-04-28T12:17:31Z</time></trkpt><trkpt lat="45.774016496403995" lon="4.813005353434873"><ele>173.0</ele><time>2026-04-28T12:18:22.999Z</time></trkpt><trkpt lat="45.77408963305352" lon="4.812963315676302"><ele>173.0</ele><time>2026-04-28T12:21:35.999Z</time></trkpt><trkpt lat="45.774171544165085" lon="4.812943746650284"><ele>173.0</ele><time>2026-04-28T12:21:39.999Z</time></trkpt><trkpt lat="45.774249343986924" lon="4.812992760102345"><ele>173.0</ele><time>2026-04-28T12:21:42.999Z</time></trkpt><trkpt lat="45.77432545023667" lon="4.812995266819799"><ele>173.0</ele><time>2026-04-28T12:21:44.999Z</time></trkpt><trkpt lat="45.77431315419639" lon="4.812723621422431"><ele>173.0</ele><time>2026-04-28T12:21:48.999Z</time></trkpt><trkpt lat="45.77419490918976" lon="4.812661084496092"><ele>173.0</ele><time>2026-04-28T12:21:50.999Z</time></trkpt><trkpt lat="45.7741336177574" lon="4.812628697498081"><ele>173.0</ele><time>2026-04-28T12:21:51.999Z</time></trkpt><trkpt lat="45.774080508268064" lon="4.812565191837468"><ele>172.66666666666666</ele><time>2026-04-28T12:21:52.999Z</time></trkpt><trkpt lat="45.774033444883145" lon="4.812491780117723"><ele>172.33333333333331</ele><time>2026-04-28T12:21:53.999Z</time></trkpt><trkpt lat="45.77398374758154" lon="4.812433219831163"><ele>172.0</ele><time>2026-04-28T12:21:54.999Z</time></trkpt><trkpt lat="45.77393153665295" lon="4.812380246494416"><ele>171.66666666666666</ele><time>2026-04-28T12:21:55.999Z</time></trkpt><trkpt lat="45.773823504436145" lon="4.812258573699497"><ele>171.33333333333334</ele><time>2026-04-28T12:21:57.999Z</time></trkpt><trkpt lat="45.77377195606608" lon="4.812200250163579"><ele>171.0</ele><time>2026-04-28T12:21:58.999Z</time></trkpt><trkpt lat="45.77370345648151" lon="4.812066829396559"><ele>171.0</ele><time>2026-04-28T12:22:00.999Z</time></trkpt><trkpt lat="45.773726893181795" lon="4.811898005664595"><ele>171.0</ele><time>2026-04-28T12:22:02.999Z</time></trkpt><trkpt lat="45.77377158025529" lon="4.8118314714561174"><ele>171.0</ele><time>2026-04-28T12:22:03.999Z</time></trkpt><trkpt lat="45.77383466227839" lon="4.811690128699151"><ele>171.0</ele><time>2026-04-28T12:22:05.999Z</time></trkpt><trkpt lat="45.77390535077642" lon="4.811554324779719"><ele>171.0</ele><time>2026-04-28T12:22:07.999Z</time></trkpt><trkpt lat="45.77397560651921" lon="4.811414181317696"><ele>170.75</ele><time>2026-04-28T12:22:09.999Z</time></trkpt><trkpt lat="45.7740525539664" lon="4.8112784729630835"><ele>170.5</ele><time>2026-04-28T12:22:11.999Z</time></trkpt><trkpt lat="45.77417577662772" lon="4.811114875054331"><ele>170.25</ele><time>2026-04-28T12:22:14.999Z</time></trkpt><trkpt lat="45.7742756714914" lon="4.8110034491922065"><ele>170.0</ele><time>2026-04-28T12:22:16.999Z</time></trkpt><trkpt lat="45.77433176960003" lon="4.810953379635532"><ele>170.0</ele><time>2026-04-28T12:22:17.999Z</time></trkpt><trkpt lat="45.77439719514577" lon="4.810907301992461"><ele>170.0</ele><time>2026-04-28T12:22:18.999Z</time></trkpt><trkpt lat="45.77445468862124" lon="4.810850542109332"><ele>170.0</ele><time>2026-04-28T12:22:19.999Z</time></trkpt><trkpt lat="45.77452195249239" lon="4.810800738734724"><ele>170.0</ele><time>2026-04-28T12:22:20.999Z</time></trkpt><trkpt lat="45.774590184074306" lon="4.810756358630129"><ele>170.0</ele><time>2026-04-28T12:22:21.999Z</time></trkpt><trkpt lat="45.774665244073134" lon="4.810715555155645"><ele>170.0</ele><time>2026-04-28T12:22:22.999Z</time></trkpt><trkpt lat="45.774738562675196" lon="4.81067333619104"><ele>170.0</ele><time>2026-04-28T12:22:23.999Z</time></trkpt><trkpt lat="45.77480751545082" lon="4.810632677306538"><ele>170.0</ele><time>2026-04-28T12:22:24.999Z</time></trkpt><trkpt lat="45.774877557601826" lon="4.810594374506886"><ele>170.0</ele><time>2026-04-28T12:22:25.999Z</time></trkpt><trkpt lat="45.774947862574365" lon="4.81055550643626"><ele>170.0</ele><time>2026-04-28T12:22:26.999Z</time></trkpt><trkpt lat="45.77501916315155" lon="4.8105165576128455"><ele>170.0</ele><time>2026-04-28T12:22:27.999Z</time></trkpt><trkpt lat="45.77509273269044" lon="4.8104956868223825"><ele>170.0</ele><time>2026-04-28T12:22:28.999Z</time></trkpt><trkpt lat="45.77522279962525" lon="4.810460541580963"><ele>170.16666666666666</ele><time>2026-04-28T12:22:30.999Z</time></trkpt><trkpt lat="45.77532746984454" lon="4.810432868987668"><ele>170.33333333333331</ele><time>2026-04-28T12:22:32.999Z</time></trkpt><trkpt lat="45.77541760432509" lon="4.810414882747425"><ele>170.5</ele><time>2026-04-28T12:22:34.999Z</time></trkpt><trkpt lat="45.77548085538988" lon="4.810401735433242"><ele>170.66666666666666</ele><time>2026-04-28T12:22:37.999Z</time></trkpt><trkpt lat="45.77554881545954" lon="4.810388412746862"><ele>170.83333333333334</ele><time>2026-04-28T12:22:56.999Z</time></trkpt><trkpt lat="45.77561522827603" lon="4.810428680035113"><ele>171.0</ele><time>2026-04-28T12:22:58.999Z</time></trkpt><trkpt lat="45.77571209070733" lon="4.810446577988977"><ele>171.0</ele><time>2026-04-28T12:23:00.999Z</time></trkpt><trkpt lat="45.77577780800234" lon="4.810434356059459"><ele>171.0</ele><time>2026-04-28T12:23:01.999Z</time></trkpt><trkpt lat="45.77584056134366" lon="4.810420334105655"><ele>171.0</ele><time>2026-04-28T12:23:02.999Z</time></trkpt><trkpt lat="45.77590426795689" lon="4.810404925031609"><ele>171.0</ele><time>2026-04-28T12:23:03.999Z</time></trkpt><trkpt lat="45.77597206217163" lon="4.810390923656842"><ele>171.0</ele><time>2026-04-28T12:23:04.999Z</time></trkpt><trkpt lat="45.77604165342956" lon="4.810384366205177"><ele>171.0</ele><time>2026-04-28T12:23:05.999Z</time></trkpt><trkpt lat="45.77618404111832" lon="4.810394993822014"><ele>171.28571428571428</ele><time>2026-04-28T12:23:07.999Z</time></trkpt><trkpt lat="45.77625743335485" lon="4.810399100222629"><ele>171.57142857142856</ele><time>2026-04-28T12:23:08.999Z</time></trkpt><trkpt lat="45.77632594648989" lon="4.810406108309998"><ele>171.85714285714283</ele><time>2026-04-28T12:23:09.999Z</time></trkpt><trkpt lat="45.77639551679173" lon="4.810413811833223"><ele>172.14285714285714</ele><time>2026-04-28T12:23:10.999Z</time></trkpt><trkpt lat="45.7764677407977" lon="4.810421383175547"><ele>172.42857142857144</ele><time>2026-04-28T12:23:11.999Z</time></trkpt><trkpt lat="45.77653719853878" lon="4.810431610184138"><ele>172.7142857142857</ele><time>2026-04-28T12:23:12.999Z</time></trkpt><trkpt lat="45.7766081155702" lon="4.810442966158705"><ele>173.0</ele><time>2026-04-28T12:23:13.999Z</time></trkpt><trkpt lat="45.7766779700308" lon="4.810457075472156"><ele>173.0</ele><time>2026-04-28T12:23:14.999Z</time></trkpt><trkpt lat="45.776744795555814" lon="4.810469401317979"><ele>173.0</ele><time>2026-04-28T12:23:15.999Z</time></trkpt><trkpt lat="45.776814576781696" lon="4.810482355047033"><ele>173.0</ele><time>2026-04-28T12:23:16.999Z</time></trkpt><trkpt lat="45.77688259848444" lon="4.81049489982652"><ele>173.0</ele><time>2026-04-28T12:23:17.999Z</time></trkpt><trkpt lat="45.77694826650727" lon="4.810503132205483"><ele>173.0</ele><time>2026-04-28T12:23:18.999Z</time></trkpt><trkpt lat="45.77701525386201" lon="4.81051556767312"><ele>173.0</ele><time>2026-04-28T12:23:19.999Z</time></trkpt><trkpt lat="45.777079103284095" lon="4.810535668159867"><ele>173.0</ele><time>2026-04-28T12:23:20.999Z</time></trkpt><trkpt lat="45.77714873141619" lon="4.810566156178335"><ele>173.14285714285714</ele><time>2026-04-28T12:23:21.999Z</time></trkpt><trkpt lat="45.77721305617592" lon="4.810585677829757"><ele>173.2857142857143</ele><time>2026-04-28T12:23:22.999Z</time></trkpt><trkpt lat="45.77727738409366" lon="4.8106063505928525"><ele>173.42857142857144</ele><time>2026-04-28T12:23:23.999Z</time></trkpt><trkpt lat="45.777341673098796" lon="4.8106344261942375"><ele>173.57142857142856</ele><time>2026-04-28T12:23:24.999Z</time></trkpt><trkpt lat="45.77740474839215" lon="4.810663437842739"><ele>173.71428571428572</ele><time>2026-04-28T12:23:25.999Z</time></trkpt><trkpt lat="45.77746664616964" lon="4.81068655651914"><ele>173.85714285714286</ele><time>2026-04-28T12:23:26.999Z</time></trkpt><trkpt lat="45.77752661231768" lon="4.810719224062319"><ele>174.0</ele><time>2026-04-28T12:23:27.999Z</time></trkpt><trkpt lat="45.777587368848565" lon="4.810753958388581"><ele>173.2</ele><time>2026-04-28T12:23:28.999Z</time></trkpt><trkpt lat="45.77770151904033" lon="4.8108069279134975"><ele>172.39999999999998</ele><time>2026-04-28T12:23:30.999Z</time></trkpt><trkpt lat="45.7778006975715" lon="4.810855102678775"><ele>171.6</ele><time>2026-04-28T12:23:32.999Z</time></trkpt><trkpt lat="45.77790473829859" lon="4.810876639381377"><ele>170.8</ele><time>2026-04-28T12:23:34.999Z</time></trkpt><trkpt lat="45.7780098070237" lon="4.810947237605033"><ele>170.0</ele><time>2026-04-28T12:23:36.999Z</time></trkpt><trkpt lat="45.77811498878933" lon="4.81099543425135"><ele>171.14285714285714</ele><time>2026-04-28T12:23:38.999Z</time></trkpt><trkpt lat="45.77818060126971" lon="4.811020066452849"><ele>172.28571428571428</ele><time>2026-04-28T12:23:39.999Z</time></trkpt><trkpt lat="45.77824350294216" lon="4.811044344258203"><ele>173.42857142857142</ele><time>2026-04-28T12:23:40.999Z</time></trkpt><trkpt lat="45.77830255348606" lon="4.811084019590612"><ele>174.57142857142856</ele><time>2026-04-28T12:23:41.999Z</time></trkpt><trkpt lat="45.77836630792288" lon="4.811110796438665"><ele>175.71428571428572</ele><time>2026-04-28T12:23:42.999Z</time></trkpt><trkpt lat="45.778433796458785" lon="4.811142654245873"><ele>176.85714285714283</ele><time>2026-04-28T12:23:43.999Z</time></trkpt><trkpt lat="45.778503245295376" lon="4.8111735214544415"><ele>178.0</ele><time>2026-04-28T12:23:44.999Z</time></trkpt><trkpt lat="45.77856992416053" lon="4.811196603746655"><ele>177.99999999999997</ele><time>2026-04-28T12:23:45.999Z</time></trkpt><trkpt lat="45.778636032966006" lon="4.811226653085253"><ele>178.0</ele><time>2026-04-28T12:23:46.999Z</time></trkpt><trkpt lat="45.77871682421124" lon="4.811278408567775"><ele>178.0</ele><time>2026-04-28T12:23:47.999Z</time></trkpt><trkpt lat="45.778794920189306" lon="4.811318459182336"><ele>178.0</ele><time>2026-04-28T12:23:48.999Z</time></trkpt><trkpt lat="45.77886202391387" lon="4.811352883790312"><ele>178.0</ele><time>2026-04-28T12:23:49.999Z</time></trkpt><trkpt lat="45.778923997653436" lon="4.811378600723327"><ele>177.99999999999997</ele><time>2026-04-28T12:23:50.999Z</time></trkpt><trkpt lat="45.77899049498679" lon="4.811402863953088"><ele>178.0</ele><time>2026-04-28T12:23:51.999Z</time></trkpt><trkpt lat="45.77905657713783" lon="4.8114323112212665"><ele>178.0</ele><time>2026-04-28T12:23:52.999Z</time></trkpt><trkpt lat="45.77912494170769" lon="4.811465609455182"><ele>178.0</ele><time>2026-04-28T12:23:53.999Z</time></trkpt><trkpt lat="45.77926676757725" lon="4.811527910548329"><ele>178.0</ele><time>2026-04-28T12:23:55.999Z</time></trkpt><trkpt lat="45.77933359653101" lon="4.811554727501485"><ele>178.0</ele><time>2026-04-28T12:23:56.999Z</time></trkpt><trkpt lat="45.77939932995514" lon="4.811581293648757"><ele>178.0</ele><time>2026-04-28T12:23:57.999Z</time></trkpt><trkpt lat="45.77946732049379" lon="4.811609950370622"><ele>178.0</ele><time>2026-04-28T12:23:58.999Z</time></trkpt><trkpt lat="45.77959641513098" lon="4.811667829620709"><ele>176.0</ele><time>2026-04-28T12:24:00.999Z</time></trkpt><trkpt lat="45.77966087642629" lon="4.811692599807478"><ele>174.0</ele><time>2026-04-28T12:24:01.999Z</time></trkpt><trkpt lat="45.779790002104086" lon="4.811733180170564"><ele>172.0</ele><time>2026-04-28T12:24:03.999Z</time></trkpt><trkpt lat="45.77985810805289" lon="4.811720074404306"><ele>170.0</ele><time>2026-04-28T12:24:04.999Z</time></trkpt><trkpt lat="45.77992343394167" lon="4.811735005312751"><ele>168.0</ele><time>2026-04-28T12:24:05.999Z</time></trkpt><trkpt lat="45.7800453408754" lon="4.8117981018058735"><ele>169.85714285714286</ele><time>2026-04-28T12:24:07.999Z</time></trkpt><trkpt lat="45.780110131111215" lon="4.811838359856962"><ele>171.71428571428572</ele><time>2026-04-28T12:24:08.999Z</time></trkpt><trkpt lat="45.78017978496044" lon="4.811866071248003"><ele>173.57142857142856</ele><time>2026-04-28T12:24:09.999Z</time></trkpt><trkpt lat="45.78024843014074" lon="4.811893603999739"><ele>175.42857142857144</ele><time>2026-04-28T12:24:10.999Z</time></trkpt><trkpt lat="45.78031669252192" lon="4.811921005205129"><ele>177.28571428571428</ele><time>2026-04-28T12:24:11.999Z</time></trkpt><trkpt lat="45.780385406601255" lon="4.811954776882719"><ele>179.14285714285714</ele><time>2026-04-28T12:24:12.999Z</time></trkpt><trkpt lat="45.78045462637619" lon="4.811996922494573"><ele>181.0</ele><time>2026-04-28T12:24:13.999Z</time></trkpt><trkpt lat="45.78052175686389" lon="4.812033570008462"><ele>181.0</ele><time>2026-04-28T12:24:14.999Z</time></trkpt><trkpt lat="45.7805873790379" lon="4.812059927384258"><ele>181.0</ele><time>2026-04-28T12:24:15.999Z</time></trkpt><trkpt lat="45.78065315998782" lon="4.812097662154511"><ele>181.0</ele><time>2026-04-28T12:24:16.999Z</time></trkpt><trkpt lat="45.78071734658693" lon="4.812140390972782"><ele>181.0</ele><time>2026-04-28T12:24:17.999Z</time></trkpt><trkpt lat="45.78078421513987" lon="4.812179171217709"><ele>181.0</ele><time>2026-04-28T12:24:18.999Z</time></trkpt><trkpt lat="45.78085001883407" lon="4.8122157368804555"><ele>181.0</ele><time>2026-04-28T12:24:19.999Z</time></trkpt><trkpt lat="45.780916908211665" lon="4.81226710705615"><ele>181.0</ele><time>2026-04-28T12:24:20.999Z</time></trkpt><trkpt lat="45.78097882423711" lon="4.8123095187022225"><ele>179.57142857142856</ele><time>2026-04-28T12:24:21.999Z</time></trkpt><trkpt lat="45.78104134391785" lon="4.812356879531561"><ele>178.14285714285714</ele><time>2026-04-28T12:24:22.999Z</time></trkpt><trkpt lat="45.78110264063236" lon="4.812398938837821"><ele>176.71428571428572</ele><time>2026-04-28T12:24:23.999Z</time></trkpt><trkpt lat="45.78116454386587" lon="4.812436004293227"><ele>175.28571428571428</ele><time>2026-04-28T12:24:24.999Z</time></trkpt><trkpt lat="45.78123155493436" lon="4.8124669576829495"><ele>173.85714285714286</ele><time>2026-04-28T12:24:25.999Z</time></trkpt><trkpt lat="45.78129713895837" lon="4.81251253128452"><ele>172.42857142857142</ele><time>2026-04-28T12:24:26.999Z</time></trkpt><trkpt lat="45.78136106420357" lon="4.812568041742481"><ele>171.0</ele><time>2026-04-28T12:24:27.999Z</time></trkpt><trkpt lat="45.78142370323388" lon="4.81262110727076"><ele>171.14285714285714</ele><time>2026-04-28T12:24:28.999Z</time></trkpt><trkpt lat="45.78148962809955" lon="4.812671657101861"><ele>171.28571428571428</ele><time>2026-04-28T12:24:29.999Z</time></trkpt><trkpt lat="45.781552829925694" lon="4.812714702382331"><ele>171.42857142857144</ele><time>2026-04-28T12:24:30.999Z</time></trkpt><trkpt lat="45.78161060956887" lon="4.812763983481435"><ele>171.57142857142856</ele><time>2026-04-28T12:24:31.999Z</time></trkpt><trkpt lat="45.78168320953165" lon="4.812813601037438"><ele>171.71428571428572</ele><time>2026-04-28T12:24:32.999Z</time></trkpt><trkpt lat="45.78173973420233" lon="4.81286184338025"><ele>171.85714285714286</ele><time>2026-04-28T12:24:33.999Z</time></trkpt><trkpt lat="45.78179788335098" lon="4.812913109711949"><ele>172.0</ele><time>2026-04-28T12:24:34.999Z</time></trkpt><trkpt lat="45.78185750533306" lon="4.812967259951418"><ele>172.0</ele><time>2026-04-28T12:24:35.999Z</time></trkpt><trkpt lat="45.78191421091502" lon="4.813014653160797"><ele>172.0</ele><time>2026-04-28T12:24:36.999Z</time></trkpt><trkpt lat="45.78198410099374" lon="4.81306975772271"><ele>172.0</ele><time>2026-04-28T12:24:37.999Z</time></trkpt><trkpt lat="45.78204432722874" lon="4.813124752600978"><ele>172.0</ele><time>2026-04-28T12:24:38.999Z</time></trkpt><trkpt lat="45.782101158430706" lon="4.813178286512617"><ele>172.0</ele><time>2026-04-28T12:24:39.999Z</time></trkpt><trkpt lat="45.782159710643256" lon="4.8132316686855585"><ele>172.0</ele><time>2026-04-28T12:24:40.999Z</time></trkpt><trkpt lat="45.78227249394672" lon="4.813338175805417"><ele>172.00000000000003</ele><time>2026-04-28T12:24:42.999Z</time></trkpt><trkpt lat="45.78233346607882" lon="4.813389438441301"><ele>172.0</ele><time>2026-04-28T12:24:43.999Z</time></trkpt><trkpt lat="45.7823898973158" lon="4.813441600509483"><ele>172.0</ele><time>2026-04-28T12:24:44.999Z</time></trkpt><trkpt lat="45.78245455040765" lon="4.8134979802647555"><ele>172.0</ele><time>2026-04-28T12:24:45.999Z</time></trkpt><trkpt lat="45.782509346770574" lon="4.813544674111388"><ele>172.0</ele><time>2026-04-28T12:24:46.999Z</time></trkpt><trkpt lat="45.78257162104766" lon="4.813602324523304"><ele>172.00000000000003</ele><time>2026-04-28T12:24:47.999Z</time></trkpt><trkpt lat="45.78262998127432" lon="4.813652604821908"><ele>172.0</ele><time>2026-04-28T12:24:48.999Z</time></trkpt><trkpt lat="45.78268578794508" lon="4.813713628574292"><ele>172.00000000000003</ele><time>2026-04-28T12:24:49.999Z</time></trkpt><trkpt lat="45.78274763607283" lon="4.81377011767668"><ele>172.0</ele><time>2026-04-28T12:24:50.999Z</time></trkpt><trkpt lat="45.78280676196448" lon="4.8138188686242875"><ele>172.0</ele><time>2026-04-28T12:24:51.999Z</time></trkpt><trkpt lat="45.782862375333366" lon="4.813873501533367"><ele>172.0</ele><time>2026-04-28T12:24:52.999Z</time></trkpt><trkpt lat="45.78292380377093" lon="4.813925174777665"><ele>172.0</ele><time>2026-04-28T12:24:53.999Z</time></trkpt><trkpt lat="45.78298164630309" lon="4.813975913259938"><ele>172.00000000000003</ele><time>2026-04-28T12:24:54.999Z</time></trkpt><trkpt lat="45.783043681143006" lon="4.814030740885725"><ele>172.0</ele><time>2026-04-28T12:24:55.999Z</time></trkpt><trkpt lat="45.78315906274181" lon="4.814132922198564"><ele>172.00000000000003</ele><time>2026-04-28T12:24:57.999Z</time></trkpt><trkpt lat="45.783219637333374" lon="4.814184733434456"><ele>172.0</ele><time>2026-04-28T12:24:58.999Z</time></trkpt><trkpt lat="45.783282901279634" lon="4.814235602888059"><ele>172.0</ele><time>2026-04-28T12:24:59.999Z</time></trkpt><trkpt lat="45.78334236106323" lon="4.814290623055029"><ele>172.0</ele><time>2026-04-28T12:25:00.999Z</time></trkpt><trkpt lat="45.783400731901885" lon="4.814344462258594"><ele>172.0</ele><time>2026-04-28T12:25:01.999Z</time></trkpt><trkpt lat="45.78346093248871" lon="4.814400944379491"><ele>172.00000000000003</ele><time>2026-04-28T12:25:02.999Z</time></trkpt><trkpt lat="45.78352062946952" lon="4.81445229554006"><ele>172.0</ele><time>2026-04-28T12:25:03.999Z</time></trkpt><trkpt lat="45.78357920368611" lon="4.8145023881241285"><ele>172.14285714285717</ele><time>2026-04-28T12:25:04.999Z</time></trkpt><trkpt lat="45.78364154110737" lon="4.8145567972993515"><ele>172.28571428571428</ele><time>2026-04-28T12:25:05.999Z</time></trkpt><trkpt lat="45.783700212471246" lon="4.814609060157424"><ele>172.42857142857144</ele><time>2026-04-28T12:25:06.999Z</time></trkpt><trkpt lat="45.78375823099343" lon="4.814660207424613"><ele>172.57142857142858</ele><time>2026-04-28T12:25:07.999Z</time></trkpt><trkpt lat="45.78381553891654" lon="4.8147127983936615"><ele>172.71428571428572</ele><time>2026-04-28T12:25:08.999Z</time></trkpt><trkpt lat="45.7838758161291" lon="4.814765910251573"><ele>172.85714285714286</ele><time>2026-04-28T12:25:09.999Z</time></trkpt><trkpt lat="45.783935064530006" lon="4.814824808729156"><ele>173.0</ele><time>2026-04-28T12:25:10.999Z</time></trkpt><trkpt lat="45.78399514068556" lon="4.8148867971937905"><ele>173.0</ele><time>2026-04-28T12:25:11.999Z</time></trkpt><trkpt lat="45.78405493653129" lon="4.814941341481596"><ele>173.0</ele><time>2026-04-28T12:25:12.999Z</time></trkpt><trkpt lat="45.784114763535584" lon="4.8149963917306176"><ele>173.0</ele><time>2026-04-28T12:25:13.999Z</time></trkpt><trkpt lat="45.784180065997504" lon="4.815052015128652"><ele>173.0</ele><time>2026-04-28T12:25:14.999Z</time></trkpt><trkpt lat="45.784239541644965" lon="4.815104905084082"><ele>173.0</ele><time>2026-04-28T12:25:15.999Z</time></trkpt><trkpt lat="45.78429930670569" lon="4.815158069904053"><ele>173.0</ele><time>2026-04-28T12:25:16.999Z</time></trkpt><trkpt lat="45.784359147590486" lon="4.815209323305932"><ele>173.0</ele><time>2026-04-28T12:25:17.999Z</time></trkpt><trkpt lat="45.78442326126874" lon="4.815260772387661"><ele>174.83333333333331</ele><time>2026-04-28T12:25:18.999Z</time></trkpt><trkpt lat="45.78453997225425" lon="4.81536107667346"><ele>176.66666666666666</ele><time>2026-04-28T12:25:20.999Z</time></trkpt><trkpt lat="45.78460204090402" lon="4.815416133843772"><ele>178.5</ele><time>2026-04-28T12:25:21.999Z</time></trkpt><trkpt lat="45.784657735104005" lon="4.815460276348977"><ele>180.33333333333334</ele><time>2026-04-28T12:25:22.999Z</time></trkpt><trkpt lat="45.7847142400695" lon="4.815506595748174"><ele>182.16666666666669</ele><time>2026-04-28T12:25:23.999Z</time></trkpt><trkpt lat="45.7847763879978" lon="4.815559867955492"><ele>184.0</ele><time>2026-04-28T12:25:24.999Z</time></trkpt><trkpt lat="45.784836281674266" lon="4.815608206952507"><ele>184.0</ele><time>2026-04-28T12:25:25.999Z</time></trkpt><trkpt lat="45.784896857585366" lon="4.815663813142225"><ele>184.0</ele><time>2026-04-28T12:25:26.999Z</time></trkpt><trkpt lat="45.78495656650458" lon="4.815715977179544"><ele>184.0</ele><time>2026-04-28T12:25:28Z</time></trkpt><trkpt lat="45.78501703355324" lon="4.815766454786235"><ele>184.0</ele><time>2026-04-28T12:25:29Z</time></trkpt><trkpt lat="45.78507443209329" lon="4.815819096005738"><ele>184.0</ele><time>2026-04-28T12:25:30Z</time></trkpt><trkpt lat="45.785125992149695" lon="4.815870912219306"><ele>184.0</ele><time>2026-04-28T12:25:31Z</time></trkpt><trkpt lat="45.78518610527381" lon="4.815922133651262"><ele>184.0</ele><time>2026-04-28T12:25:32Z</time></trkpt><trkpt lat="45.78524970894259" lon="4.815970632686306"><ele>184.5</ele><time>2026-04-28T12:25:33Z</time></trkpt><trkpt lat="45.785314158726365" lon="4.8160139800776145"><ele>185.0</ele><time>2026-04-28T12:25:34Z</time></trkpt><trkpt lat="45.78537322314698" lon="4.81605702528264"><ele>185.5</ele><time>2026-04-28T12:25:35Z</time></trkpt><trkpt lat="45.7854303973276" lon="4.81610103266398"><ele>186.0</ele><time>2026-04-28T12:25:36Z</time></trkpt><trkpt lat="45.78548810493185" lon="4.816142095581944"><ele>186.5</ele><time>2026-04-28T12:25:37Z</time></trkpt><trkpt lat="45.785602198930626" lon="4.816219299648758"><ele>187.0</ele><time>2026-04-28T12:25:39Z</time></trkpt><trkpt lat="45.7856699617602" lon="4.816271320200766"><ele>187.0</ele><time>2026-04-28T12:25:40Z</time></trkpt><trkpt lat="45.785732678206024" lon="4.81632049745847"><ele>187.0</ele><time>2026-04-28T12:25:41Z</time></trkpt><trkpt lat="45.78580323315283" lon="4.81636974639972"><ele>187.0</ele><time>2026-04-28T12:25:42Z</time></trkpt><trkpt lat="45.78586833933655" lon="4.816415945362052"><ele>187.0</ele><time>2026-04-28T12:25:43Z</time></trkpt><trkpt lat="45.785936119381304" lon="4.81646487702368"><ele>187.0</ele><time>2026-04-28T12:25:44Z</time></trkpt><trkpt lat="45.785997664220965" lon="4.816511572600273"><ele>187.0</ele><time>2026-04-28T12:25:45Z</time></trkpt><trkpt lat="45.78606871951397" lon="4.816561752588936"><ele>187.0</ele><time>2026-04-28T12:25:46Z</time></trkpt><trkpt lat="45.78613892833634" lon="4.816609385181439"><ele>186.5</ele><time>2026-04-28T12:25:47Z</time></trkpt><trkpt lat="45.786205343188904" lon="4.816662486960215"><ele>186.0</ele><time>2026-04-28T12:25:48Z</time></trkpt><trkpt lat="45.78627559903493" lon="4.816711599677646"><ele>185.5</ele><time>2026-04-28T12:25:49Z</time></trkpt><trkpt lat="45.78634435689362" lon="4.81676226790356"><ele>185.0</ele><time>2026-04-28T12:25:50Z</time></trkpt><trkpt lat="45.78641723580248" lon="4.816813087043245"><ele>184.5</ele><time>2026-04-28T12:25:51Z</time></trkpt><trkpt lat="45.78649057407614" lon="4.816869308621333"><ele>184.0</ele><time>2026-04-28T12:25:52Z</time></trkpt><trkpt lat="45.78655225198841" lon="4.816915317287277"><ele>184.0</ele><time>2026-04-28T12:25:53Z</time></trkpt><trkpt lat="45.78662132046874" lon="4.816965484686083"><ele>184.0</ele><time>2026-04-28T12:25:54Z</time></trkpt><trkpt lat="45.78669046079787" lon="4.817014770543609"><ele>184.0</ele><time>2026-04-28T12:25:55Z</time></trkpt><trkpt lat="45.78675419558725" lon="4.817067883005885"><ele>184.0</ele><time>2026-04-28T12:25:56Z</time></trkpt><trkpt lat="45.786821444104646" lon="4.817123806346817"><ele>184.0</ele><time>2026-04-28T12:25:57Z</time></trkpt><trkpt lat="45.786882705368974" lon="4.817192490006655"><ele>184.0</ele><time>2026-04-28T12:25:58Z</time></trkpt><trkpt lat="45.78694351226871" lon="4.817260772093092"><ele>182.42857142857144</ele><time>2026-04-28T12:25:59Z</time></trkpt><trkpt lat="45.78700082256783" lon="4.8173299654108535"><ele>180.85714285714283</ele><time>2026-04-28T12:26:00Z</time></trkpt><trkpt lat="45.78705531569157" lon="4.817398211734329"><ele>179.28571428571428</ele><time>2026-04-28T12:26:01Z</time></trkpt><trkpt lat="45.78711346817563" lon="4.817467319150956"><ele>177.71428571428572</ele><time>2026-04-28T12:26:02Z</time></trkpt><trkpt lat="45.78716797359877" lon="4.817530076317986"><ele>176.14285714285717</ele><time>2026-04-28T12:26:03Z</time></trkpt><trkpt lat="45.78722612747001" lon="4.817600432856534"><ele>174.57142857142856</ele><time>2026-04-28T12:26:04Z</time></trkpt><trkpt lat="45.78727863097544" lon="4.817667641404335"><ele>173.0</ele><time>2026-04-28T12:26:05Z</time></trkpt><trkpt lat="45.78733560291447" lon="4.817734116808448"><ele>173.0</ele><time>2026-04-28T12:26:06Z</time></trkpt><trkpt lat="45.78739633273041" lon="4.817798018042306"><ele>173.0</ele><time>2026-04-28T12:26:07Z</time></trkpt><trkpt lat="45.787453202004656" lon="4.817859711316869"><ele>173.0</ele><time>2026-04-28T12:26:08Z</time></trkpt><trkpt lat="45.787505081521786" lon="4.817926238296646"><ele>173.0</ele><time>2026-04-28T12:26:09Z</time></trkpt><trkpt lat="45.78761469220842" lon="4.818045808521215"><ele>173.0</ele><time>2026-04-28T12:26:11Z</time></trkpt><trkpt lat="45.78770516098629" lon="4.818154979115506"><ele>172.16666666666666</ele><time>2026-04-28T12:26:13Z</time></trkpt><trkpt lat="45.7877923741267" lon="4.818247674271081"><ele>171.33333333333331</ele><time>2026-04-28T12:26:15Z</time></trkpt><trkpt lat="45.78784406958011" lon="4.818300638286179"><ele>170.5</ele><time>2026-04-28T12:26:16Z</time></trkpt><trkpt lat="45.7878987602256" lon="4.818363205801449"><ele>169.66666666666666</ele><time>2026-04-28T12:26:17Z</time></trkpt><trkpt lat="45.78795103918295" lon="4.818428102810451"><ele>168.83333333333334</ele><time>2026-04-28T12:26:18Z</time></trkpt><trkpt lat="45.788004158095724" lon="4.818496154823863"><ele>168.0</ele><time>2026-04-28T12:26:19Z</time></trkpt><trkpt lat="45.78806001959779" lon="4.818572123815399"><ele>168.0</ele><time>2026-04-28T12:26:20Z</time></trkpt><trkpt lat="45.788104046066486" lon="4.818649294219216"><ele>168.0</ele><time>2026-04-28T12:26:21Z</time></trkpt><trkpt lat="45.78816319730969" lon="4.818718207811581"><ele>168.0</ele><time>2026-04-28T12:26:22Z</time></trkpt><trkpt lat="45.78822078928542" lon="4.8187801574479945"><ele>168.0</ele><time>2026-04-28T12:26:23Z</time></trkpt><trkpt lat="45.78827857561428" lon="4.818849144688458"><ele>168.0</ele><time>2026-04-28T12:26:24Z</time></trkpt><trkpt lat="45.78833477550162" lon="4.818917607050762"><ele>168.0</ele><time>2026-04-28T12:26:25Z</time></trkpt><trkpt lat="45.78838774896004" lon="4.818982425463474"><ele>168.0</ele><time>2026-04-28T12:26:26Z</time></trkpt><trkpt lat="45.78844748668347" lon="4.819057131679573"><ele>168.0</ele><time>2026-04-28T12:26:27Z</time></trkpt><trkpt lat="45.78850285518573" lon="4.819127524069815"><ele>168.0</ele><time>2026-04-28T12:26:28Z</time></trkpt><trkpt lat="45.78856049464151" lon="4.819192244485241"><ele>168.0</ele><time>2026-04-28T12:26:29Z</time></trkpt><trkpt lat="45.78862356599329" lon="4.81926161208985"><ele>168.0</ele><time>2026-04-28T12:26:30Z</time></trkpt><trkpt lat="45.78867913280138" lon="4.819331208850546"><ele>168.0</ele><time>2026-04-28T12:26:31Z</time></trkpt><trkpt lat="45.78873560466739" lon="4.819399440711038"><ele>168.0</ele><time>2026-04-28T12:26:32Z</time></trkpt><trkpt lat="45.78879453067765" lon="4.819469034847107"><ele>168.0</ele><time>2026-04-28T12:26:33Z</time></trkpt><trkpt lat="45.788851162066145" lon="4.819533954917599"><ele>168.0</ele><time>2026-04-28T12:26:34Z</time></trkpt><trkpt lat="45.7889071486108" lon="4.819600902467651"><ele>168.0</ele><time>2026-04-28T12:26:35Z</time></trkpt><trkpt lat="45.788971868791194" lon="4.819673000036024"><ele>168.0</ele><time>2026-04-28T12:26:36Z</time></trkpt><trkpt lat="45.78902477079201" lon="4.819735993702113"><ele>168.0</ele><time>2026-04-28T12:26:37Z</time></trkpt><trkpt lat="45.789081248976714" lon="4.819803027626039"><ele>168.0</ele><time>2026-04-28T12:26:38Z</time></trkpt><trkpt lat="45.78913576585499" lon="4.81986796577682"><ele>168.0</ele><time>2026-04-28T12:26:39Z</time></trkpt><trkpt lat="45.78919005378738" lon="4.819934115632292"><ele>168.0</ele><time>2026-04-28T12:26:40Z</time></trkpt><trkpt lat="45.78924887859366" lon="4.820004127308536"><ele>168.0</ele><time>2026-04-28T12:26:41Z</time></trkpt><trkpt lat="45.789309984059976" lon="4.820077716922025"><ele>168.0</ele><time>2026-04-28T12:26:42Z</time></trkpt><trkpt lat="45.78936627001044" lon="4.820145613532661"><ele>168.0</ele><time>2026-04-28T12:26:43Z</time></trkpt><trkpt lat="45.78942729084793" lon="4.820213499185044"><ele>168.0</ele><time>2026-04-28T12:26:44Z</time></trkpt><trkpt lat="45.78948126213193" lon="4.820278495945064"><ele>168.0</ele><time>2026-04-28T12:26:45Z</time></trkpt><trkpt lat="45.789541814731024" lon="4.82034944209011"><ele>168.0</ele><time>2026-04-28T12:26:46Z</time></trkpt><trkpt lat="45.78959874129676" lon="4.820408906918987"><ele>168.0</ele><time>2026-04-28T12:26:47Z</time></trkpt><trkpt lat="45.78965481842432" lon="4.820480057494749"><ele>168.0</ele><time>2026-04-28T12:26:48Z</time></trkpt><trkpt lat="45.78971398422971" lon="4.820549039762037"><ele>168.0</ele><time>2026-04-28T12:26:49Z</time></trkpt><trkpt lat="45.78977369681875" lon="4.820618128128259"><ele>168.0</ele><time>2026-04-28T12:26:50Z</time></trkpt><trkpt lat="45.78983378061386" lon="4.820686941737532"><ele>168.0</ele><time>2026-04-28T12:26:51Z</time></trkpt><trkpt lat="45.78989220061137" lon="4.82075623554226"><ele>168.0</ele><time>2026-04-28T12:26:52Z</time></trkpt><trkpt lat="45.78994858747018" lon="4.820825074221976"><ele>168.0</ele><time>2026-04-28T12:26:53Z</time></trkpt><trkpt lat="45.790010547624" lon="4.820897016767179"><ele>168.0</ele><time>2026-04-28T12:26:54Z</time></trkpt><trkpt lat="45.79006680630607" lon="4.820967254280916"><ele>168.0</ele><time>2026-04-28T12:26:55Z</time></trkpt><trkpt lat="45.790125683618626" lon="4.82103369126726"><ele>168.0</ele><time>2026-04-28T12:26:56Z</time></trkpt><trkpt lat="45.79018399541351" lon="4.8211049043381236"><ele>168.0</ele><time>2026-04-28T12:26:57Z</time></trkpt><trkpt lat="45.790240293416254" lon="4.8211752947199615"><ele>168.0</ele><time>2026-04-28T12:26:58Z</time></trkpt><trkpt lat="45.79030106367372" lon="4.821246313608873"><ele>168.0</ele><time>2026-04-28T12:26:59Z</time></trkpt><trkpt lat="45.790413725626955" lon="4.821384911377959"><ele>168.0</ele><time>2026-04-28T12:27:01Z</time></trkpt><trkpt lat="45.79046754800983" lon="4.821453491164463"><ele>168.0</ele><time>2026-04-28T12:27:02Z</time></trkpt><trkpt lat="45.79052182437607" lon="4.82151228232089"><ele>168.0</ele><time>2026-04-28T12:27:03Z</time></trkpt><trkpt lat="45.79057782423031" lon="4.821581960289125"><ele>168.0</ele><time>2026-04-28T12:27:04Z</time></trkpt><trkpt lat="45.79063100044421" lon="4.821655127571781"><ele>168.0</ele><time>2026-04-28T12:27:05Z</time></trkpt><trkpt lat="45.79068427799968" lon="4.821730547446811"><ele>168.0</ele><time>2026-04-28T12:27:06Z</time></trkpt><trkpt lat="45.790731614183414" lon="4.8217998321715045"><ele>168.0</ele><time>2026-04-28T12:27:07Z</time></trkpt><trkpt lat="45.790790178477494" lon="4.821878439913911"><ele>168.0</ele><time>2026-04-28T12:27:08Z</time></trkpt><trkpt lat="45.79084072044329" lon="4.821944603758091"><ele>168.0</ele><time>2026-04-28T12:27:09Z</time></trkpt><trkpt lat="45.79089256383213" lon="4.822016837605449"><ele>168.0</ele><time>2026-04-28T12:27:10Z</time></trkpt><trkpt lat="45.79093672739088" lon="4.822087499210085"><ele>168.0</ele><time>2026-04-28T12:27:11Z</time></trkpt><trkpt lat="45.79098381214828" lon="4.8221581553437876"><ele>167.8</ele><time>2026-04-28T12:27:12Z</time></trkpt><trkpt lat="45.79102835869096" lon="4.822226182264013"><ele>167.60000000000002</ele><time>2026-04-28T12:27:13Z</time></trkpt><trkpt lat="45.791072421920944" lon="4.822296022864176"><ele>167.39999999999998</ele><time>2026-04-28T12:27:14Z</time></trkpt><trkpt lat="45.791142753562156" lon="4.822441619574015"><ele>167.2</ele><time>2026-04-28T12:27:16Z</time></trkpt><trkpt lat="45.79120779712546" lon="4.8225768233232"><ele>167.0</ele><time>2026-04-28T12:27:18Z</time></trkpt><trkpt lat="45.79126596293322" lon="4.82267376213549"><ele>167.0</ele><time>2026-04-28T12:27:20Z</time></trkpt><trkpt lat="45.79130535075769" lon="4.822754253876776"><ele>167.0</ele><time>2026-04-28T12:27:22Z</time></trkpt><trkpt lat="45.79136409412459" lon="4.822850232563439"><ele>167.0</ele><time>2026-04-28T12:27:24Z</time></trkpt><trkpt lat="45.79143535956857" lon="4.82298147807125"><ele>167.0</ele><time>2026-04-28T12:27:26Z</time></trkpt><trkpt lat="45.79151106095363" lon="4.8231376880778765"><ele>167.0</ele><time>2026-04-28T12:27:28Z</time></trkpt><trkpt lat="45.79155275543004" lon="4.823214519795297"><ele>167.0</ele><time>2026-04-28T12:27:29Z</time></trkpt><trkpt lat="45.79159336860009" lon="4.823287325667367"><ele>167.0</ele><time>2026-04-28T12:27:30Z</time></trkpt><trkpt lat="45.79167069307016" lon="4.8234217868615215"><ele>167.0</ele><time>2026-04-28T12:27:32Z</time></trkpt><trkpt lat="45.791720510043504" lon="4.823505292391009"><ele>167.0</ele><time>2026-04-28T12:27:33Z</time></trkpt><trkpt lat="45.7917721001711" lon="4.823587669125821"><ele>167.0</ele><time>2026-04-28T12:27:34Z</time></trkpt><trkpt lat="45.791821838506756" lon="4.823667514738073"><ele>167.0</ele><time>2026-04-28T12:27:35.001Z</time></trkpt><trkpt lat="45.791872248028525" lon="4.823750944422411"><ele>166.83333333333331</ele><time>2026-04-28T12:27:36Z</time></trkpt><trkpt lat="45.791922286640414" lon="4.823838640789836"><ele>166.66666666666666</ele><time>2026-04-28T12:27:37Z</time></trkpt><trkpt lat="45.79196985657244" lon="4.8239254150727024"><ele>166.5</ele><time>2026-04-28T12:27:38Z</time></trkpt><trkpt lat="45.79201656378968" lon="4.8240062715528165"><ele>166.33333333333334</ele><time>2026-04-28T12:27:39Z</time></trkpt><trkpt lat="45.79206275776479" lon="4.824094346115986"><ele>166.16666666666669</ele><time>2026-04-28T12:27:40Z</time></trkpt><trkpt lat="45.79211292081446" lon="4.82418903308768"><ele>166.0</ele><time>2026-04-28T12:27:41Z</time></trkpt><trkpt lat="45.79215828299953" lon="4.824266711735125"><ele>166.16666666666669</ele><time>2026-04-28T12:27:42Z</time></trkpt><trkpt lat="45.79221809215224" lon="4.824330467053015"><ele>166.33333333333334</ele><time>2026-04-28T12:27:43Z</time></trkpt><trkpt lat="45.79225856261411" lon="4.82443088846078"><ele>166.5</ele><time>2026-04-28T12:27:44Z</time></trkpt><trkpt lat="45.792303789703226" lon="4.824516833800803"><ele>166.66666666666666</ele><time>2026-04-28T12:27:45Z</time></trkpt><trkpt lat="45.792359517288496" lon="4.824606093326088"><ele>166.83333333333331</ele><time>2026-04-28T12:27:46Z</time></trkpt><trkpt lat="45.792408417440114" lon="4.824690678788539"><ele>167.0</ele><time>2026-04-28T12:27:47Z</time></trkpt><trkpt lat="45.792513089081915" lon="4.82484873075893"><ele>167.0</ele><time>2026-04-28T12:27:49Z</time></trkpt><trkpt lat="45.7925638286727" lon="4.824938311814752"><ele>167.0</ele><time>2026-04-28T12:27:50Z</time></trkpt><trkpt lat="45.79260172854752" lon="4.825026071027089"><ele>167.0</ele><time>2026-04-28T12:27:51Z</time></trkpt><trkpt lat="45.792641719759715" lon="4.8251185261927665"><ele>167.0</ele><time>2026-04-28T12:27:52Z</time></trkpt><trkpt lat="45.79269258326712" lon="4.825205134079646"><ele>167.0</ele><time>2026-04-28T12:27:53Z</time></trkpt><trkpt lat="45.79274066474949" lon="4.825293231898825"><ele>167.0</ele><time>2026-04-28T12:27:54Z</time></trkpt><trkpt lat="45.79278856740258" lon="4.825380417749764"><ele>166.83333333333331</ele><time>2026-04-28T12:27:55Z</time></trkpt><trkpt lat="45.79283456294426" lon="4.8254730063875435"><ele>166.66666666666666</ele><time>2026-04-28T12:27:56Z</time></trkpt><trkpt lat="45.79288235859704" lon="4.8255545771305846"><ele>166.5</ele><time>2026-04-28T12:27:57Z</time></trkpt><trkpt lat="45.792922385296905" lon="4.825646287505067"><ele>166.33333333333334</ele><time>2026-04-28T12:27:58Z</time></trkpt><trkpt lat="45.792969336134334" lon="4.825726045601985"><ele>166.16666666666669</ele><time>2026-04-28T12:27:59Z</time></trkpt><trkpt lat="45.793016459117915" lon="4.825806416393313"><ele>166.0</ele><time>2026-04-28T12:28:00Z</time></trkpt><trkpt lat="45.79306549633822" lon="4.82588825900575"><ele>166.0</ele><time>2026-04-28T12:28:01Z</time></trkpt><trkpt lat="45.79311523834165" lon="4.825970297753261"><ele>166.0</ele><time>2026-04-28T12:28:02Z</time></trkpt><trkpt lat="45.79316343999952" lon="4.826052072414268"><ele>166.0</ele><time>2026-04-28T12:28:03Z</time></trkpt><trkpt lat="45.79321259922959" lon="4.826134635214742"><ele>166.0</ele><time>2026-04-28T12:28:04Z</time></trkpt><trkpt lat="45.793265675985474" lon="4.826219864607835"><ele>166.0</ele><time>2026-04-28T12:28:05Z</time></trkpt><trkpt lat="45.793313680560246" lon="4.826304047716114"><ele>166.0</ele><time>2026-04-28T12:28:06Z</time></trkpt><trkpt lat="45.793368617733634" lon="4.826385966483231"><ele>166.0</ele><time>2026-04-28T12:28:07Z</time></trkpt><trkpt lat="45.79341723519938" lon="4.826470220835662"><ele>166.0</ele><time>2026-04-28T12:28:08Z</time></trkpt><trkpt lat="45.79347362152639" lon="4.8265472444744235"><ele>166.0</ele><time>2026-04-28T12:28:09Z</time></trkpt><trkpt lat="45.79351849050448" lon="4.826627182476203"><ele>166.0</ele><time>2026-04-28T12:28:10Z</time></trkpt><trkpt lat="45.793566910747245" lon="4.8267029735458244"><ele>166.0</ele><time>2026-04-28T12:28:11Z</time></trkpt><trkpt lat="45.79362039690495" lon="4.826782983429346"><ele>166.0</ele><time>2026-04-28T12:28:12Z</time></trkpt><trkpt lat="45.793675157457265" lon="4.826860538361744"><ele>166.0</ele><time>2026-04-28T12:28:13Z</time></trkpt><trkpt lat="45.79372701461219" lon="4.826940993172906"><ele>166.0</ele><time>2026-04-28T12:28:14Z</time></trkpt><trkpt lat="45.7937815336593" lon="4.827013672035631"><ele>166.0</ele><time>2026-04-28T12:28:15Z</time></trkpt><trkpt lat="45.793830706956705" lon="4.827086708632323"><ele>166.0</ele><time>2026-04-28T12:28:16Z</time></trkpt><trkpt lat="45.79388480289387" lon="4.827163744168291"><ele>166.0</ele><time>2026-04-28T12:28:17Z</time></trkpt><trkpt lat="45.79393609695068" lon="4.827235924410653"><ele>166.0</ele><time>2026-04-28T12:28:18Z</time></trkpt><trkpt lat="45.79398576566443" lon="4.8273132255012605"><ele>166.0</ele><time>2026-04-28T12:28:19Z</time></trkpt><trkpt lat="45.7940363179866" lon="4.827383095405463"><ele>166.0</ele><time>2026-04-28T12:28:20Z</time></trkpt><trkpt lat="45.794091502709165" lon="4.827457741851482"><ele>166.0</ele><time>2026-04-28T12:28:21Z</time></trkpt><trkpt lat="45.79413910771998" lon="4.827527028368858"><ele>166.0</ele><time>2026-04-28T12:28:22Z</time></trkpt><trkpt lat="45.79418876032725" lon="4.8275960614025575"><ele>166.0</ele><time>2026-04-28T12:28:23Z</time></trkpt><trkpt lat="45.79423765446069" lon="4.8276633027664"><ele>166.0</ele><time>2026-04-28T12:28:24Z</time></trkpt><trkpt lat="45.79428767327039" lon="4.8277355110134605"><ele>166.0</ele><time>2026-04-28T12:28:25Z</time></trkpt><trkpt lat="45.79433436062132" lon="4.827806550371775"><ele>166.0</ele><time>2026-04-28T12:28:26Z</time></trkpt><trkpt lat="45.79438343707673" lon="4.827875128580111"><ele>166.0</ele><time>2026-04-28T12:28:27Z</time></trkpt><trkpt lat="45.79443376930685" lon="4.827943332954607"><ele>166.0</ele><time>2026-04-28T12:28:28Z</time></trkpt><trkpt lat="45.79448870995308" lon="4.828006604814774"><ele>166.0</ele><time>2026-04-28T12:28:29Z</time></trkpt><trkpt lat="45.79454015958227" lon="4.828075696911963"><ele>166.0</ele><time>2026-04-28T12:28:30Z</time></trkpt><trkpt lat="45.79459371273551" lon="4.828150999158823"><ele>166.0</ele><time>2026-04-28T12:28:31Z</time></trkpt><trkpt lat="45.79464585509856" lon="4.828223589347891"><ele>166.0</ele><time>2026-04-28T12:28:32Z</time></trkpt><trkpt lat="45.79469328975836" lon="4.828298505586346"><ele>166.0</ele><time>2026-04-28T12:28:33Z</time></trkpt><trkpt lat="45.7947394842113" lon="4.828370540680288"><ele>166.0</ele><time>2026-04-28T12:28:34Z</time></trkpt><trkpt lat="45.794794128232915" lon="4.828435025233758"><ele>166.0</ele><time>2026-04-28T12:28:35Z</time></trkpt><trkpt lat="45.79484578776074" lon="4.828510615309474"><ele>166.0</ele><time>2026-04-28T12:28:36Z</time></trkpt><trkpt lat="45.794898022598026" lon="4.828594327692832"><ele>166.0</ele><time>2026-04-28T12:28:37Z</time></trkpt><trkpt lat="45.794939500914595" lon="4.828668414287384"><ele>166.0</ele><time>2026-04-28T12:28:38Z</time></trkpt><trkpt lat="45.79498021278903" lon="4.828745610534173"><ele>166.0</ele><time>2026-04-28T12:28:39Z</time></trkpt><trkpt lat="45.79503050801837" lon="4.82882492636437"><ele>166.0</ele><time>2026-04-28T12:28:40Z</time></trkpt><trkpt lat="45.795067851216395" lon="4.828906198024609"><ele>165.85714285714286</ele><time>2026-04-28T12:28:41Z</time></trkpt><trkpt lat="45.79510603385449" lon="4.828983617305423"><ele>165.71428571428572</ele><time>2026-04-28T12:28:42Z</time></trkpt><trkpt lat="45.7951461731883" lon="4.829070207558914"><ele>165.57142857142858</ele><time>2026-04-28T12:28:43Z</time></trkpt><trkpt lat="45.79518407375699" lon="4.829155998402756"><ele>165.42857142857144</ele><time>2026-04-28T12:28:44Z</time></trkpt><trkpt lat="45.795215527359986" lon="4.829238174265848"><ele>165.28571428571428</ele><time>2026-04-28T12:28:45Z</time></trkpt><trkpt lat="45.795251766748784" lon="4.829324535359107"><ele>165.14285714285717</ele><time>2026-04-28T12:28:46Z</time></trkpt><trkpt lat="45.795281450473" lon="4.829410162351665"><ele>165.0</ele><time>2026-04-28T12:28:47Z</time></trkpt><trkpt lat="45.79531541706376" lon="4.829491941761212"><ele>165.2857142857143</ele><time>2026-04-28T12:28:48Z</time></trkpt><trkpt lat="45.79535605774441" lon="4.8295767073150415"><ele>165.57142857142858</ele><time>2026-04-28T12:28:49Z</time></trkpt><trkpt lat="45.79536800903248" lon="4.829669485308877"><ele>165.85714285714286</ele><time>2026-04-28T12:28:50Z</time></trkpt><trkpt lat="45.79539920184031" lon="4.829753680327191"><ele>166.14285714285717</ele><time>2026-04-28T12:28:51Z</time></trkpt><trkpt lat="45.795449503852986" lon="4.829826967973592"><ele>166.42857142857144</ele><time>2026-04-28T12:28:52Z</time></trkpt><trkpt lat="45.79548519764104" lon="4.829905883878198"><ele>166.71428571428572</ele><time>2026-04-28T12:28:53Z</time></trkpt><trkpt lat="45.795509745841635" lon="4.8299918295398525"><ele>167.0</ele><time>2026-04-28T12:28:54Z</time></trkpt><trkpt lat="45.795543092297414" lon="4.830077834845201"><ele>170.5</ele><time>2026-04-28T12:28:55Z</time></trkpt><trkpt lat="45.79559103625923" lon="4.830239039657551"><ele>174.0</ele><time>2026-04-28T12:28:57Z</time></trkpt><trkpt lat="45.795646816556165" lon="4.830397896844675"><ele>177.5</ele><time>2026-04-28T12:28:59Z</time></trkpt><trkpt lat="45.79569481026727" lon="4.830551539655171"><ele>181.0</ele><time>2026-04-28T12:29:01Z</time></trkpt><trkpt lat="45.79574582035611" lon="4.8307109575922835"><ele>181.0</ele><time>2026-04-28T12:29:03Z</time></trkpt><trkpt lat="45.795780691969874" lon="4.83086824789161"><ele>181.0</ele><time>2026-04-28T12:29:05Z</time></trkpt><trkpt lat="45.795816377723554" lon="4.831022815931818"><ele>181.0</ele><time>2026-04-28T12:29:07Z</time></trkpt><trkpt lat="45.79585004617341" lon="4.8311699415691525"><ele>181.0</ele><time>2026-04-28T12:29:09Z</time></trkpt><trkpt lat="45.79588268695468" lon="4.831320305613971"><ele>181.0</ele><time>2026-04-28T12:29:11Z</time></trkpt><trkpt lat="45.79591403522949" lon="4.831473395305714"><ele>183.0</ele><time>2026-04-28T12:29:13Z</time></trkpt><trkpt lat="45.795952680318976" lon="4.831610219399787"><ele>185.0</ele><time>2026-04-28T12:29:15Z</time></trkpt><trkpt lat="45.795981553999596" lon="4.8317533508660615"><ele>187.0</ele><time>2026-04-28T12:29:17Z</time></trkpt><trkpt lat="45.796015669330345" lon="4.831904234010567"><ele>189.0</ele><time>2026-04-28T12:29:19Z</time></trkpt><trkpt lat="45.796045054100475" lon="4.832050230164134"><ele>191.0</ele><time>2026-04-28T12:29:21Z</time></trkpt><trkpt lat="45.79607581868579" lon="4.832209998599348"><ele>188.8</ele><time>2026-04-28T12:29:23Z</time></trkpt><trkpt lat="45.79608432233634" lon="4.832370932862465"><ele>186.60000000000002</ele><time>2026-04-28T12:29:25Z</time></trkpt><trkpt lat="45.796096154216244" lon="4.832460383583471"><ele>184.4</ele><time>2026-04-28T12:29:26Z</time></trkpt><trkpt lat="45.79611381484655" lon="4.8326353884250555"><ele>182.2</ele><time>2026-04-28T12:29:28Z</time></trkpt><trkpt lat="45.796136665631025" lon="4.832809530410382"><ele>180.0</ele><time>2026-04-28T12:29:30Z</time></trkpt><trkpt lat="45.79616404126557" lon="4.832984862757267"><ele>180.0</ele><time>2026-04-28T12:29:32Z</time></trkpt><trkpt lat="45.79620967269939" lon="4.833150986085011"><ele>180.0</ele><time>2026-04-28T12:29:34Z</time></trkpt><trkpt lat="45.79623843173079" lon="4.833235219882111"><ele>180.0</ele><time>2026-04-28T12:29:35Z</time></trkpt><trkpt lat="45.7962693291461" lon="4.833315041516567"><ele>180.0</ele><time>2026-04-28T12:29:36Z</time></trkpt><trkpt lat="45.79630054257642" lon="4.833398237252367"><ele>180.0</ele><time>2026-04-28T12:29:37Z</time></trkpt><trkpt lat="45.796333566581566" lon="4.8334813608225735"><ele>180.0</ele><time>2026-04-28T12:29:38Z</time></trkpt><trkpt lat="45.7963644211135" lon="4.833564991144692"><ele>181.5</ele><time>2026-04-28T12:29:39Z</time></trkpt><trkpt lat="45.79642528302498" lon="4.83372573872018"><ele>183.0</ele><time>2026-04-28T12:29:41.001Z</time></trkpt><trkpt lat="45.79645782308149" lon="4.833805665249752"><ele>184.5</ele><time>2026-04-28T12:29:42.001Z</time></trkpt><trkpt lat="45.79649101251409" lon="4.833889053812083"><ele>186.0</ele><time>2026-04-28T12:29:43.001Z</time></trkpt><trkpt lat="45.79652109156475" lon="4.8339695090782016"><ele>187.5</ele><time>2026-04-28T12:29:44.001Z</time></trkpt><trkpt lat="45.79654917726957" lon="4.834053884352623"><ele>189.0</ele><time>2026-04-28T12:29:45.001Z</time></trkpt><trkpt lat="45.7965986687291" lon="4.834212810620179"><ele>189.0</ele><time>2026-04-28T12:29:47.001Z</time></trkpt><trkpt lat="45.7966306218379" lon="4.834297219555084"><ele>189.0</ele><time>2026-04-28T12:29:48.001Z</time></trkpt><trkpt lat="45.79668131223674" lon="4.834454686979576"><ele>189.0</ele><time>2026-04-28T12:29:50.001Z</time></trkpt><trkpt lat="45.796708815176046" lon="4.834536115854768"><ele>189.0</ele><time>2026-04-28T12:29:51.001Z</time></trkpt><trkpt lat="45.7967655864201" lon="4.834692426973623"><ele>189.0</ele><time>2026-04-28T12:29:53.001Z</time></trkpt><trkpt lat="45.79680994440782" lon="4.8348425551502086"><ele>185.0</ele><time>2026-04-28T12:29:55.001Z</time></trkpt><trkpt lat="45.79684876745686" lon="4.8350076836354665"><ele>181.0</ele><time>2026-04-28T12:29:57Z</time></trkpt><trkpt lat="45.79687269248414" lon="4.835165675313928"><ele>177.0</ele><time>2026-04-28T12:29:59Z</time></trkpt><trkpt lat="45.79689045368939" lon="4.835329259078336"><ele>173.0</ele><time>2026-04-28T12:30:01Z</time></trkpt><trkpt lat="45.79689601409001" lon="4.835496835935671"><ele>173.0</ele><time>2026-04-28T12:30:03Z</time></trkpt><trkpt lat="45.79690148331364" lon="4.835653912417752"><ele>173.0</ele><time>2026-04-28T12:30:05Z</time></trkpt><trkpt lat="45.79691468687926" lon="4.835821650218591"><ele>173.0</ele><time>2026-04-28T12:30:07Z</time></trkpt><trkpt lat="45.79693623624859" lon="4.835917310101541"><ele>173.0</ele><time>2026-04-28T12:30:08Z</time></trkpt><trkpt lat="45.796962359768266" lon="4.836020352401887"><ele>173.0</ele><time>2026-04-28T12:30:09Z</time></trkpt><trkpt lat="45.796986072142836" lon="4.836125679531813"><ele>174.66666666666666</ele><time>2026-04-28T12:30:10Z</time></trkpt><trkpt lat="45.797020750501844" lon="4.836226714493129"><ele>176.33333333333331</ele><time>2026-04-28T12:30:11Z</time></trkpt><trkpt lat="45.79706033993589" lon="4.836327762915259"><ele>178.0</ele><time>2026-04-28T12:30:12Z</time></trkpt><trkpt lat="45.797106555807645" lon="4.836425305374442"><ele>179.66666666666666</ele><time>2026-04-28T12:30:13Z</time></trkpt><trkpt lat="45.797155056127274" lon="4.836529311944415"><ele>181.33333333333334</ele><time>2026-04-28T12:30:14Z</time></trkpt><trkpt lat="45.79721291180826" lon="4.836624771318086"><ele>183.0</ele><time>2026-04-28T12:30:15Z</time></trkpt><trkpt lat="45.79726821001836" lon="4.836719931462408"><ele>183.16666666666666</ele><time>2026-04-28T12:30:16Z</time></trkpt><trkpt lat="45.79732122674358" lon="4.836817336463462"><ele>183.33333333333334</ele><time>2026-04-28T12:30:17Z</time></trkpt><trkpt lat="45.797368361319144" lon="4.836916238311515"><ele>183.5</ele><time>2026-04-28T12:30:18Z</time></trkpt><trkpt lat="45.79741694487324" lon="4.837024071358978"><ele>183.66666666666669</ele><time>2026-04-28T12:30:19Z</time></trkpt><trkpt lat="45.797459864008246" lon="4.837130703089851"><ele>183.83333333333334</ele><time>2026-04-28T12:30:20Z</time></trkpt><trkpt lat="45.79750646773133" lon="4.837232869864723"><ele>184.0</ele><time>2026-04-28T12:30:21Z</time></trkpt><trkpt lat="45.79755132968697" lon="4.837328385709079"><ele>184.0</ele><time>2026-04-28T12:30:22Z</time></trkpt><trkpt lat="45.79759678875005" lon="4.837430196000602"><ele>184.0</ele><time>2026-04-28T12:30:23Z</time></trkpt><trkpt lat="45.79764297363133" lon="4.837536138785468"><ele>184.0</ele><time>2026-04-28T12:30:24Z</time></trkpt><trkpt lat="45.797689074195" lon="4.8376428366966175"><ele>184.0</ele><time>2026-04-28T12:30:25Z</time></trkpt><trkpt lat="45.79773420162058" lon="4.837743883405172"><ele>184.0</ele><time>2026-04-28T12:30:26Z</time></trkpt><trkpt lat="45.79778186544266" lon="4.837846696857105"><ele>184.0</ele><time>2026-04-28T12:30:27Z</time></trkpt><trkpt lat="45.79782723106381" lon="4.8379490192241255"><ele>184.0</ele><time>2026-04-28T12:30:28Z</time></trkpt><trkpt lat="45.7978760748782" lon="4.838038693772058"><ele>184.0</ele><time>2026-04-28T12:30:29Z</time></trkpt><trkpt lat="45.79792559176686" lon="4.838139115743815"><ele>184.0</ele><time>2026-04-28T12:30:30Z</time></trkpt><trkpt lat="45.797977573328524" lon="4.838218999761697"><ele>184.0</ele><time>2026-04-28T12:30:31Z</time></trkpt><trkpt lat="45.79803149733237" lon="4.838306839992383"><ele>184.0</ele><time>2026-04-28T12:30:32Z</time></trkpt><trkpt lat="45.79808372406084" lon="4.838389537352001"><ele>184.0</ele><time>2026-04-28T12:30:33Z</time></trkpt><trkpt lat="45.798142266207286" lon="4.838471532449889"><ele>184.0</ele><time>2026-04-28T12:30:34Z</time></trkpt><trkpt lat="45.79820015622484" lon="4.838555010243582"><ele>184.0</ele><time>2026-04-28T12:30:35Z</time></trkpt><trkpt lat="45.79826191336822" lon="4.838627999051317"><ele>184.0</ele><time>2026-04-28T12:30:36Z</time></trkpt><trkpt lat="45.79831742227967" lon="4.838705699593776"><ele>184.0</ele><time>2026-04-28T12:30:37Z</time></trkpt><trkpt lat="45.79837696265338" lon="4.838785369892352"><ele>184.0</ele><time>2026-04-28T12:30:38Z</time></trkpt><trkpt lat="45.7984305534058" lon="4.838862425839176"><ele>184.0</ele><time>2026-04-28T12:30:39Z</time></trkpt><trkpt lat="45.79848753255701" lon="4.838931992931175"><ele>182.33333333333334</ele><time>2026-04-28T12:30:40Z</time></trkpt><trkpt lat="45.79855333091808" lon="4.839001485266569"><ele>180.66666666666669</ele><time>2026-04-28T12:30:41Z</time></trkpt><trkpt lat="45.79861242912647" lon="4.839064966969824"><ele>179.0</ele><time>2026-04-28T12:30:42Z</time></trkpt><trkpt lat="45.79867334114025" lon="4.839131413742605"><ele>177.33333333333334</ele><time>2026-04-28T12:30:43Z</time></trkpt><trkpt lat="45.798736193400025" lon="4.839207295083219"><ele>175.66666666666666</ele><time>2026-04-28T12:30:44Z</time></trkpt><trkpt lat="45.79879364832262" lon="4.83927554797668"><ele>174.0</ele><time>2026-04-28T12:30:45Z</time></trkpt><trkpt lat="45.79885600441149" lon="4.839348865112735"><ele>174.0</ele><time>2026-04-28T12:30:46Z</time></trkpt><trkpt lat="45.79892994830005" lon="4.8394176126682575"><ele>174.0</ele><time>2026-04-28T12:30:47Z</time></trkpt><trkpt lat="45.79898723569863" lon="4.839486322027394"><ele>174.0</ele><time>2026-04-28T12:30:48Z</time></trkpt><trkpt lat="45.79905581774322" lon="4.839563549334926"><ele>174.0</ele><time>2026-04-28T12:30:49Z</time></trkpt><trkpt lat="45.799110457383364" lon="4.839624634507584"><ele>174.0</ele><time>2026-04-28T12:30:50Z</time></trkpt><trkpt lat="45.79918082382642" lon="4.839702117643073"><ele>174.0</ele><time>2026-04-28T12:30:51Z</time></trkpt><trkpt lat="45.79924281237031" lon="4.839775352939495"><ele>174.0</ele><time>2026-04-28T12:30:52Z</time></trkpt><trkpt lat="45.79930622818447" lon="4.839843636868406"><ele>174.0</ele><time>2026-04-28T12:30:53Z</time></trkpt><trkpt lat="45.79936878208584" lon="4.839906653379837"><ele>174.0</ele><time>2026-04-28T12:30:54Z</time></trkpt><trkpt lat="45.799438226114844" lon="4.8399737208271825"><ele>174.0</ele><time>2026-04-28T12:30:55Z</time></trkpt><trkpt lat="45.79950104862593" lon="4.840043422743872"><ele>174.0</ele><time>2026-04-28T12:30:56Z</time></trkpt><trkpt lat="45.79955641925651" lon="4.84011365593101"><ele>174.0</ele><time>2026-04-28T12:30:57Z</time></trkpt><trkpt lat="45.79961576917166" lon="4.840176560693812"><ele>174.0</ele><time>2026-04-28T12:30:58Z</time></trkpt><trkpt lat="45.7996872100397" lon="4.840239513476522"><ele>174.0</ele><time>2026-04-28T12:30:59Z</time></trkpt><trkpt lat="45.79974568731157" lon="4.840308308302357"><ele>174.0</ele><time>2026-04-28T12:31:00Z</time></trkpt><trkpt lat="45.7998006923819" lon="4.840378549121151"><ele>174.0</ele><time>2026-04-28T12:31:01Z</time></trkpt><trkpt lat="45.79985399301877" lon="4.840445153179568"><ele>174.0</ele><time>2026-04-28T12:31:02Z</time></trkpt><trkpt lat="45.79991310708527" lon="4.840512971227264"><ele>174.0</ele><time>2026-04-28T12:31:03Z</time></trkpt><trkpt lat="45.799973764363436" lon="4.8405808249118865"><ele>174.0</ele><time>2026-04-28T12:31:04Z</time></trkpt><trkpt lat="45.800034033195296" lon="4.840641440978715"><ele>174.0</ele><time>2026-04-28T12:31:05Z</time></trkpt><trkpt lat="45.800096563362615" lon="4.8407108438057245"><ele>174.0</ele><time>2026-04-28T12:31:06Z</time></trkpt><trkpt lat="45.80015542626589" lon="4.840766655848031"><ele>174.0</ele><time>2026-04-28T12:31:07Z</time></trkpt><trkpt lat="45.80021949645581" lon="4.840830543052882"><ele>174.0</ele><time>2026-04-28T12:31:08Z</time></trkpt><trkpt lat="45.80034479009135" lon="4.840962037009276"><ele>174.16666666666666</ele><time>2026-04-28T12:31:10Z</time></trkpt><trkpt lat="45.80039933861217" lon="4.841018900647345"><ele>174.33333333333334</ele><time>2026-04-28T12:31:11Z</time></trkpt><trkpt lat="45.80046392147496" lon="4.841083871931874"><ele>174.5</ele><time>2026-04-28T12:31:12Z</time></trkpt><trkpt lat="45.80052596168184" lon="4.841145142594026"><ele>174.66666666666669</ele><time>2026-04-28T12:31:13Z</time></trkpt><trkpt lat="45.80059014092728" lon="4.841207804934692"><ele>174.83333333333334</ele><time>2026-04-28T12:31:14Z</time></trkpt><trkpt lat="45.8006569545373" lon="4.841269849856847"><ele>175.0</ele><time>2026-04-28T12:31:15Z</time></trkpt><trkpt lat="45.80072093242578" lon="4.841329681356826"><ele>175.0</ele><time>2026-04-28T12:31:16Z</time></trkpt><trkpt lat="45.80079262708529" lon="4.841388376073384"><ele>175.0</ele><time>2026-04-28T12:31:17Z</time></trkpt><trkpt lat="45.80085872912566" lon="4.841443218071083"><ele>175.0</ele><time>2026-04-28T12:31:18Z</time></trkpt><trkpt lat="45.80092905537594" lon="4.84149941263054"><ele>175.0</ele><time>2026-04-28T12:31:19Z</time></trkpt><trkpt lat="45.80099857515266" lon="4.84154984125762"><ele>175.0</ele><time>2026-04-28T12:31:20Z</time></trkpt><trkpt lat="45.80106823877716" lon="4.84160004718274"><ele>175.0</ele><time>2026-04-28T12:31:21Z</time></trkpt><trkpt lat="45.80113912573961" lon="4.8416473933553785"><ele>174.0</ele><time>2026-04-28T12:31:22Z</time></trkpt><trkpt lat="45.80121010804039" lon="4.8417015344302925"><ele>173.0</ele><time>2026-04-28T12:31:23Z</time></trkpt><trkpt lat="45.801287830170764" lon="4.84176017606958"><ele>172.0</ele><time>2026-04-28T12:31:24Z</time></trkpt><trkpt lat="45.80135218149379" lon="4.841816908759935"><ele>171.0</ele><time>2026-04-28T12:31:25Z</time></trkpt><trkpt lat="45.80141912357679" lon="4.841869484425499"><ele>170.0</ele><time>2026-04-28T12:31:26Z</time></trkpt><trkpt lat="45.80148773422512" lon="4.841920669859084"><ele>169.0</ele><time>2026-04-28T12:31:27Z</time></trkpt><trkpt lat="45.80155479700952" lon="4.841972306856329"><ele>169.0</ele><time>2026-04-28T12:31:28Z</time></trkpt><trkpt lat="45.80162173456757" lon="4.84201503291229"><ele>169.0</ele><time>2026-04-28T12:31:29Z</time></trkpt><trkpt lat="45.80168506983358" lon="4.842058032739034"><ele>169.0</ele><time>2026-04-28T12:31:30Z</time></trkpt><trkpt lat="45.8017462829409" lon="4.842106684072429"><ele>169.0</ele><time>2026-04-28T12:31:31Z</time></trkpt><trkpt lat="45.80181307474147" lon="4.842144963989452"><ele>169.0</ele><time>2026-04-28T12:31:32Z</time></trkpt><trkpt lat="45.8018866710376" lon="4.842184844599051"><ele>169.0</ele><time>2026-04-28T12:31:33Z</time></trkpt><trkpt lat="45.8019694767557" lon="4.84221547628747"><ele>169.0</ele><time>2026-04-28T12:31:34Z</time></trkpt><trkpt lat="45.802047937183325" lon="4.8422465425821075"><ele>169.16666666666669</ele><time>2026-04-28T12:31:35Z</time></trkpt><trkpt lat="45.802120351821884" lon="4.842274343328129"><ele>169.33333333333334</ele><time>2026-04-28T12:31:36Z</time></trkpt><trkpt lat="45.80219819357712" lon="4.842298993422423"><ele>169.5</ele><time>2026-04-28T12:31:37Z</time></trkpt><trkpt lat="45.80227597777574" lon="4.842322267961795"><ele>169.66666666666666</ele><time>2026-04-28T12:31:38Z</time></trkpt><trkpt lat="45.80235037016966" lon="4.842358063372114"><ele>169.83333333333331</ele><time>2026-04-28T12:31:39Z</time></trkpt><trkpt lat="45.802420869220754" lon="4.842385719334939"><ele>170.0</ele><time>2026-04-28T12:31:40Z</time></trkpt><trkpt lat="45.802494767386406" lon="4.842407560063011"><ele>170.0</ele><time>2026-04-28T12:31:41Z</time></trkpt><trkpt lat="45.802570911633566" lon="4.8424319399221725"><ele>170.0</ele><time>2026-04-28T12:31:42Z</time></trkpt><trkpt lat="45.80264428370607" lon="4.842453381036341"><ele>170.0</ele><time>2026-04-28T12:31:43Z</time></trkpt><trkpt lat="45.80271310134663" lon="4.842474375331757"><ele>170.0</ele><time>2026-04-28T12:31:44Z</time></trkpt><trkpt lat="45.80279038469082" lon="4.842504494459823"><ele>170.0</ele><time>2026-04-28T12:31:45Z</time></trkpt><trkpt lat="45.80287228072763" lon="4.842535345624353"><ele>170.0</ele><time>2026-04-28T12:31:46.001Z</time></trkpt><trkpt lat="45.80294477923089" lon="4.8425529027756"><ele>169.85714285714286</ele><time>2026-04-28T12:31:47.001Z</time></trkpt><trkpt lat="45.803014088087494" lon="4.842575093376965"><ele>169.7142857142857</ele><time>2026-04-28T12:31:48.001Z</time></trkpt><trkpt lat="45.803080298000424" lon="4.842593194867093"><ele>169.57142857142856</ele><time>2026-04-28T12:31:49.001Z</time></trkpt><trkpt lat="45.80315343602253" lon="4.8426106201334305"><ele>169.42857142857144</ele><time>2026-04-28T12:31:50.001Z</time></trkpt><trkpt lat="45.80322397864841" lon="4.842636732530052"><ele>169.28571428571428</ele><time>2026-04-28T12:31:51.001Z</time></trkpt><trkpt lat="45.80329395856672" lon="4.842663704412561"><ele>169.14285714285714</ele><time>2026-04-28T12:31:52.001Z</time></trkpt><trkpt lat="45.80336130715454" lon="4.84268974307267"><ele>169.0</ele><time>2026-04-28T12:31:53.001Z</time></trkpt><trkpt lat="45.803429527329996" lon="4.8427106483324005"><ele>170.0</ele><time>2026-04-28T12:31:54.001Z</time></trkpt><trkpt lat="45.803501319116194" lon="4.842736231477528"><ele>171.0</ele><time>2026-04-28T12:31:55.001Z</time></trkpt><trkpt lat="45.80357242672414" lon="4.8427529627610415"><ele>172.0</ele><time>2026-04-28T12:31:56.001Z</time></trkpt><trkpt lat="45.80363338822764" lon="4.8427757380303635"><ele>173.0</ele><time>2026-04-28T12:31:57.001Z</time></trkpt><trkpt lat="45.803702697140366" lon="4.8427917515984875"><ele>174.0</ele><time>2026-04-28T12:31:58.001Z</time></trkpt><trkpt lat="45.80377211960546" lon="4.84281815090753"><ele>175.0</ele><time>2026-04-28T12:31:59Z</time></trkpt><trkpt lat="45.803833934164714" lon="4.842837745256206"><ele>176.0</ele><time>2026-04-28T12:32:00Z</time></trkpt><trkpt lat="45.80390385745086" lon="4.842861450983853"><ele>176.0</ele><time>2026-04-28T12:32:01Z</time></trkpt><trkpt lat="45.8039768306465" lon="4.842882745881099"><ele>176.0</ele><time>2026-04-28T12:32:02Z</time></trkpt><trkpt lat="45.80404315893692" lon="4.8429103667768265"><ele>176.0</ele><time>2026-04-28T12:32:03Z</time></trkpt><trkpt lat="45.80416831790795" lon="4.842945346033091"><ele>176.0</ele><time>2026-04-28T12:32:05Z</time></trkpt><trkpt lat="45.80423606373875" lon="4.8429616555038795"><ele>176.0</ele><time>2026-04-28T12:32:06Z</time></trkpt><trkpt lat="45.80430322807186" lon="4.842989298447831"><ele>176.0</ele><time>2026-04-28T12:32:07Z</time></trkpt><trkpt lat="45.80442453029335" lon="4.843016671202251"><ele>175.5</ele><time>2026-04-28T12:32:09Z</time></trkpt><trkpt lat="45.80449562269181" lon="4.843049193509656"><ele>175.0</ele><time>2026-04-28T12:32:10Z</time></trkpt><trkpt lat="45.80456045245339" lon="4.843067582959475"><ele>174.5</ele><time>2026-04-28T12:32:11Z</time></trkpt><trkpt lat="45.80463091713413" lon="4.843093276314035"><ele>174.0</ele><time>2026-04-28T12:32:12Z</time></trkpt><trkpt lat="45.804750667310486" lon="4.8431420640510305"><ele>173.5</ele><time>2026-04-28T12:32:14Z</time></trkpt><trkpt lat="45.8048142668717" lon="4.84317232465542"><ele>173.0</ele><time>2026-04-28T12:32:15Z</time></trkpt><trkpt lat="45.804884219141464" lon="4.843187227689622"><ele>173.0</ele><time>2026-04-28T12:32:16Z</time></trkpt><trkpt lat="45.80494903233304" lon="4.84320709275155"><ele>173.0</ele><time>2026-04-28T12:32:17Z</time></trkpt><trkpt lat="45.80501530185252" lon="4.843225239099529"><ele>173.0</ele><time>2026-04-28T12:32:18Z</time></trkpt><trkpt lat="45.805084910575644" lon="4.843248453902814"><ele>173.0</ele><time>2026-04-28T12:32:19Z</time></trkpt><trkpt lat="45.80515719474708" lon="4.843276958452233"><ele>173.0</ele><time>2026-04-28T12:32:20Z</time></trkpt><trkpt lat="45.80522551307656" lon="4.8433013747138265"><ele>173.0</ele><time>2026-04-28T12:32:21Z</time></trkpt><trkpt lat="45.80529393560732" lon="4.843317131872042"><ele>173.0</ele><time>2026-04-28T12:32:22Z</time></trkpt><trkpt lat="45.80536105045918" lon="4.843335006085543"><ele>172.5</ele><time>2026-04-28T12:32:23Z</time></trkpt><trkpt lat="45.80543088729909" lon="4.84336055737445"><ele>172.0</ele><time>2026-04-28T12:32:24Z</time></trkpt><trkpt lat="45.80549700974394" lon="4.843379605839811"><ele>171.5</ele><time>2026-04-28T12:32:25Z</time></trkpt><trkpt lat="45.80562668872959" lon="4.843425965674321"><ele>171.0</ele><time>2026-04-28T12:32:27Z</time></trkpt><trkpt lat="45.80568882766064" lon="4.843447605647855"><ele>170.5</ele><time>2026-04-28T12:32:28Z</time></trkpt><trkpt lat="45.80575341602258" lon="4.843466431913666"><ele>170.0</ele><time>2026-04-28T12:32:29Z</time></trkpt><trkpt lat="45.80587422958072" lon="4.843505899781369"><ele>170.5</ele><time>2026-04-28T12:32:31Z</time></trkpt><trkpt lat="45.80594075334649" lon="4.8435238259635325"><ele>171.0</ele><time>2026-04-28T12:32:32Z</time></trkpt><trkpt lat="45.80600396239408" lon="4.843538900229693"><ele>171.5</ele><time>2026-04-28T12:32:33Z</time></trkpt><trkpt lat="45.806070752848775" lon="4.843576634062264"><ele>172.0</ele><time>2026-04-28T12:32:34Z</time></trkpt><trkpt lat="45.80619663318629" lon="4.843614456722507"><ele>172.5</ele><time>2026-04-28T12:32:36Z</time></trkpt><trkpt lat="45.80626744158217" lon="4.84363089026322"><ele>173.0</ele><time>2026-04-28T12:32:37Z</time></trkpt><trkpt lat="45.806384245236515" lon="4.843655285803131"><ele>173.0</ele><time>2026-04-28T12:32:39Z</time></trkpt><trkpt lat="45.806447735746964" lon="4.843679292796829"><ele>173.0</ele><time>2026-04-28T12:32:40Z</time></trkpt><trkpt lat="45.80657243979841" lon="4.843699114230439"><ele>173.0</ele><time>2026-04-28T12:32:42Z</time></trkpt><trkpt lat="45.80663477730039" lon="4.843712750966741"><ele>173.0</ele><time>2026-04-28T12:32:43Z</time></trkpt><trkpt lat="45.80670176506932" lon="4.8437275831276825"><ele>173.0</ele><time>2026-04-28T12:32:44Z</time></trkpt><trkpt lat="45.80676642829149" lon="4.843738087722483"><ele>173.0</ele><time>2026-04-28T12:32:45Z</time></trkpt><trkpt lat="45.80683840256815" lon="4.8437563801377665"><ele>173.16666666666666</ele><time>2026-04-28T12:32:46Z</time></trkpt><trkpt lat="45.806902953535605" lon="4.843759077748226"><ele>173.33333333333331</ele><time>2026-04-28T12:32:47Z</time></trkpt><trkpt lat="45.80696898970441" lon="4.843769687496738"><ele>173.5</ele><time>2026-04-28T12:32:48Z</time></trkpt><trkpt lat="45.8070321508203" lon="4.843788186724351"><ele>173.66666666666666</ele><time>2026-04-28T12:32:49Z</time></trkpt><trkpt lat="45.80714822762148" lon="4.843806755814353"><ele>173.83333333333334</ele><time>2026-04-28T12:32:51Z</time></trkpt><trkpt lat="45.80721912292441" lon="4.84382261561434"><ele>174.0</ele><time>2026-04-28T12:32:52Z</time></trkpt><trkpt lat="45.8072851929945" lon="4.843839261312432"><ele>174.0</ele><time>2026-04-28T12:32:53Z</time></trkpt><trkpt lat="45.807357463218054" lon="4.843846306692004"><ele>174.0</ele><time>2026-04-28T12:32:54Z</time></trkpt><trkpt lat="45.80742555489492" lon="4.843861083120833"><ele>174.0</ele><time>2026-04-28T12:32:55Z</time></trkpt><trkpt lat="45.80749220705709" lon="4.843878092656234"><ele>174.0</ele><time>2026-04-28T12:32:56Z</time></trkpt><trkpt lat="45.80760696026272" lon="4.843904638084183"><ele>174.0</ele><time>2026-04-28T12:32:58Z</time></trkpt><trkpt lat="45.80767302177883" lon="4.843920572805771"><ele>174.0</ele><time>2026-04-28T12:32:59Z</time></trkpt><trkpt lat="45.80774111338581" lon="4.843933431396936"><ele>173.83333333333334</ele><time>2026-04-28T12:33:00Z</time></trkpt><trkpt lat="45.80780959819401" lon="4.843948193057533"><ele>173.66666666666666</ele><time>2026-04-28T12:33:01Z</time></trkpt><trkpt lat="45.807939664565005" lon="4.84396609458004"><ele>173.5</ele><time>2026-04-28T12:33:03Z</time></trkpt><trkpt lat="45.808009518717604" lon="4.843975012509943"><ele>173.33333333333331</ele><time>2026-04-28T12:33:04Z</time></trkpt><trkpt lat="45.80807215444734" lon="4.843987851843326"><ele>173.16666666666666</ele><time>2026-04-28T12:33:05Z</time></trkpt><trkpt lat="45.80814126283565" lon="4.843996719163981"><ele>173.0</ele><time>2026-04-28T12:33:06Z</time></trkpt><trkpt lat="45.80820406209873" lon="4.844014335492736"><ele>173.0</ele><time>2026-04-28T12:33:07Z</time></trkpt><trkpt lat="45.808312942754526" lon="4.8440445308902635"><ele>173.0</ele><time>2026-04-28T12:33:09Z</time></trkpt><trkpt lat="45.80843925541655" lon="4.84406487720385"><ele>173.0</ele><time>2026-04-28T12:33:11Z</time></trkpt><trkpt lat="45.808541885772165" lon="4.8440944824524435"><ele>173.0</ele><time>2026-04-28T12:33:13Z</time></trkpt><trkpt lat="45.80863074948196" lon="4.8441218401053545"><ele>173.0</ele><time>2026-04-28T12:33:15Z</time></trkpt><trkpt lat="45.80871164741627" lon="4.8441438364410985"><ele>173.33333333333331</ele><time>2026-04-28T12:33:17Z</time></trkpt><trkpt lat="45.80879193191679" lon="4.844164210204386"><ele>173.66666666666666</ele><time>2026-04-28T12:33:19Z</time></trkpt><trkpt lat="45.80887391951693" lon="4.844190940651675"><ele>174.0</ele><time>2026-04-28T12:33:21Z</time></trkpt><trkpt lat="45.80894819190192" lon="4.844209476203466"><ele>174.33333333333334</ele><time>2026-04-28T12:33:23Z</time></trkpt><trkpt lat="45.809018227731194" lon="4.844221290997398"><ele>174.66666666666669</ele><time>2026-04-28T12:33:25Z</time></trkpt><trkpt lat="45.8090935810149" lon="4.844233694795541"><ele>175.0</ele><time>2026-04-28T12:33:27Z</time></trkpt><trkpt lat="45.80918463134771" lon="4.844252932877451"><ele>175.25</ele><time>2026-04-28T12:33:29Z</time></trkpt><trkpt lat="45.80927414734948" lon="4.84430550035631"><ele>175.5</ele><time>2026-04-28T12:33:31Z</time></trkpt><trkpt lat="45.809371040156705" lon="4.844351439770646"><ele>175.75</ele><time>2026-04-28T12:33:33Z</time></trkpt><trkpt lat="45.80948351812324" lon="4.844416120745094"><ele>176.0</ele><time>2026-04-28T12:33:35Z</time></trkpt><trkpt lat="45.80960273602798" lon="4.844509896719592"><ele>176.0</ele><time>2026-04-28T12:33:37Z</time></trkpt><trkpt lat="45.80971788713092" lon="4.844610520134238"><ele>176.0</ele><time>2026-04-28T12:33:39Z</time></trkpt><trkpt lat="45.80977908985978" lon="4.844652147098887"><ele>176.0</ele><time>2026-04-28T12:33:40Z</time></trkpt><trkpt lat="45.809845113703865" lon="4.844691605611058"><ele>176.0</ele><time>2026-04-28T12:33:41Z</time></trkpt><trkpt lat="45.80990896216934" lon="4.8447442891234305"><ele>176.0</ele><time>2026-04-28T12:33:42Z</time></trkpt><trkpt lat="45.80997177046748" lon="4.844789791796572"><ele>176.0</ele><time>2026-04-28T12:33:43Z</time></trkpt><trkpt lat="45.810034926789086" lon="4.844832214378486"><ele>176.0</ele><time>2026-04-28T12:33:44Z</time></trkpt><trkpt lat="45.81010673236367" lon="4.844858114181045"><ele>176.0</ele><time>2026-04-28T12:33:45Z</time></trkpt><trkpt lat="45.810173147388035" lon="4.844898524038415"><ele>176.0</ele><time>2026-04-28T12:33:46Z</time></trkpt><trkpt lat="45.81023797822951" lon="4.844923612729418"><ele>176.0</ele><time>2026-04-28T12:33:47Z</time></trkpt><trkpt lat="45.81033044377791" lon="4.844985048399667"><ele>176.0</ele><time>2026-04-28T12:33:48Z</time></trkpt><trkpt lat="45.81038143448665" lon="4.84506051988828"><ele>176.0</ele><time>2026-04-28T12:33:49Z</time></trkpt><trkpt lat="45.81043787949817" lon="4.845130336882927"><ele>175.57142857142858</ele><time>2026-04-28T12:33:50Z</time></trkpt><trkpt lat="45.81049218645306" lon="4.845187626338215"><ele>175.14285714285714</ele><time>2026-04-28T12:33:51Z</time></trkpt><trkpt lat="45.810562554984784" lon="4.845237604448398"><ele>174.71428571428572</ele><time>2026-04-28T12:33:52Z</time></trkpt><trkpt lat="45.81062664628001" lon="4.845280361899794"><ele>174.28571428571428</ele><time>2026-04-28T12:33:53Z</time></trkpt><trkpt lat="45.81069362749127" lon="4.845331160608287"><ele>173.85714285714286</ele><time>2026-04-28T12:33:54Z</time></trkpt><trkpt lat="45.810755951258" lon="4.845385089269132"><ele>173.42857142857142</ele><time>2026-04-28T12:33:55Z</time></trkpt><trkpt lat="45.81081962622837" lon="4.845431788995258"><ele>173.0</ele><time>2026-04-28T12:33:56Z</time></trkpt><trkpt lat="45.81088160101134" lon="4.8454790022200935"><ele>173.0</ele><time>2026-04-28T12:33:57Z</time></trkpt><trkpt lat="45.81094869417252" lon="4.845534900460974"><ele>173.0</ele><time>2026-04-28T12:33:58Z</time></trkpt><trkpt lat="45.81100682151192" lon="4.845587751033491"><ele>173.0</ele><time>2026-04-28T12:33:59Z</time></trkpt><trkpt lat="45.811076547646685" lon="4.845637971542243"><ele>173.0</ele><time>2026-04-28T12:34:00Z</time></trkpt><trkpt lat="45.81113919369774" lon="4.8456940034905465"><ele>173.0</ele><time>2026-04-28T12:34:01Z</time></trkpt><trkpt lat="45.81120194902044" lon="4.845746537061442"><ele>173.0</ele><time>2026-04-28T12:34:02Z</time></trkpt><trkpt lat="45.811256253901774" lon="4.845809626972916"><ele>173.0</ele><time>2026-04-28T12:34:03Z</time></trkpt><trkpt lat="45.811324130418186" lon="4.845871083268129"><ele>172.33333333333331</ele><time>2026-04-28T12:34:04Z</time></trkpt><trkpt lat="45.81138163195849" lon="4.845930749408685"><ele>171.66666666666666</ele><time>2026-04-28T12:34:05Z</time></trkpt><trkpt lat="45.81143569799202" lon="4.845987155585708"><ele>171.0</ele><time>2026-04-28T12:34:06Z</time></trkpt><trkpt lat="45.81150055359453" lon="4.846022948906593"><ele>170.33333333333334</ele><time>2026-04-28T12:34:07Z</time></trkpt><trkpt lat="45.811570984497955" lon="4.846096432333602"><ele>169.66666666666669</ele><time>2026-04-28T12:34:08Z</time></trkpt><trkpt lat="45.81164877915853" lon="4.846165170942355"><ele>169.0</ele><time>2026-04-28T12:34:09Z</time></trkpt><trkpt lat="45.81169525562768" lon="4.8462388480892695"><ele>169.0</ele><time>2026-04-28T12:34:10Z</time></trkpt><trkpt lat="45.81175553530662" lon="4.846305744918384"><ele>169.0</ele><time>2026-04-28T12:34:11Z</time></trkpt><trkpt lat="45.811822874832366" lon="4.846369322441986"><ele>169.0</ele><time>2026-04-28T12:34:12Z</time></trkpt><trkpt lat="45.81188203676082" lon="4.846431971087388"><ele>169.0</ele><time>2026-04-28T12:34:13Z</time></trkpt><trkpt lat="45.81194277582753" lon="4.846496546675815"><ele>169.0</ele><time>2026-04-28T12:34:14Z</time></trkpt><trkpt lat="45.81201025986705" lon="4.846563503984002"><ele>169.0</ele><time>2026-04-28T12:34:15Z</time></trkpt><trkpt lat="45.81206816101396" lon="4.846635602044887"><ele>168.85714285714286</ele><time>2026-04-28T12:34:16Z</time></trkpt><trkpt lat="45.8121253838846" lon="4.846702971620181"><ele>168.71428571428572</ele><time>2026-04-28T12:34:17Z</time></trkpt><trkpt lat="45.81218321400662" lon="4.846774687476024"><ele>168.57142857142856</ele><time>2026-04-28T12:34:18Z</time></trkpt><trkpt lat="45.81223254680221" lon="4.84684656879184"><ele>168.42857142857144</ele><time>2026-04-28T12:34:19Z</time></trkpt><trkpt lat="45.81228630430493" lon="4.846920190413869"><ele>168.28571428571428</ele><time>2026-04-28T12:34:20Z</time></trkpt><trkpt lat="45.8123431310321" lon="4.846995928230065"><ele>168.14285714285714</ele><time>2026-04-28T12:34:21Z</time></trkpt><trkpt lat="45.81239907505917" lon="4.847069507762357"><ele>168.0</ele><time>2026-04-28T12:34:22Z</time></trkpt><trkpt lat="45.81245568791618" lon="4.847146744399314"><ele>168.0</ele><time>2026-04-28T12:34:23Z</time></trkpt><trkpt lat="45.81250974474045" lon="4.847218418790281"><ele>168.0</ele><time>2026-04-28T12:34:24Z</time></trkpt><trkpt lat="45.8125648229817" lon="4.84728870493999"><ele>168.0</ele><time>2026-04-28T12:34:25Z</time></trkpt><trkpt lat="45.812619154318014" lon="4.847363262137782"><ele>168.0</ele><time>2026-04-28T12:34:26Z</time></trkpt><trkpt lat="45.81272692276261" lon="4.847499844952045"><ele>168.0</ele><time>2026-04-28T12:34:28Z</time></trkpt><trkpt lat="45.81278051815383" lon="4.847568427139974"><ele>168.0</ele><time>2026-04-28T12:34:29Z</time></trkpt><trkpt lat="45.81282913326268" lon="4.847640669571222"><ele>168.28571428571428</ele><time>2026-04-28T12:34:30Z</time></trkpt><trkpt lat="45.812885176480556" lon="4.847701768285026"><ele>168.57142857142856</ele><time>2026-04-28T12:34:31Z</time></trkpt><trkpt lat="45.812938104104845" lon="4.847769928276177"><ele>168.85714285714286</ele><time>2026-04-28T12:34:32Z</time></trkpt><trkpt lat="45.81298936454127" lon="4.847838993070807"><ele>169.14285714285714</ele><time>2026-04-28T12:34:33Z</time></trkpt><trkpt lat="45.81303891064584" lon="4.847905452944676"><ele>169.42857142857142</ele><time>2026-04-28T12:34:34Z</time></trkpt><trkpt lat="45.81308756734101" lon="4.84796877559405"><ele>169.71428571428572</ele><time>2026-04-28T12:34:35Z</time></trkpt><trkpt lat="45.813134481421805" lon="4.848032910762456"><ele>170.0</ele><time>2026-04-28T12:34:36Z</time></trkpt><trkpt lat="45.8131820879002" lon="4.848097318031781"><ele>170.0</ele><time>2026-04-28T12:34:37Z</time></trkpt><trkpt lat="45.81326276238798" lon="4.848217098022346"><ele>170.0</ele><time>2026-04-28T12:34:39Z</time></trkpt><trkpt lat="45.81332222434397" lon="4.848280744250156"><ele>170.0</ele><time>2026-04-28T12:34:40Z</time></trkpt><trkpt lat="45.81336672564283" lon="4.848370205845575"><ele>170.0</ele><time>2026-04-28T12:34:41Z</time></trkpt><trkpt lat="45.81344771752982" lon="4.848495611209557"><ele>170.0</ele><time>2026-04-28T12:34:43Z</time></trkpt><trkpt lat="45.81348928380529" lon="4.848566952463674"><ele>169.57142857142858</ele><time>2026-04-28T12:34:44Z</time></trkpt><trkpt lat="45.81355064547817" lon="4.848708022358892"><ele>169.14285714285714</ele><time>2026-04-28T12:34:46Z</time></trkpt><trkpt lat="45.813588556879374" lon="4.848781254603439"><ele>168.71428571428572</ele><time>2026-04-28T12:34:47Z</time></trkpt><trkpt lat="45.81362568955237" lon="4.848860315211618"><ele>168.28571428571428</ele><time>2026-04-28T12:34:48Z</time></trkpt><trkpt lat="45.81365984703944" lon="4.848937620036115"><ele>167.85714285714286</ele><time>2026-04-28T12:34:49Z</time></trkpt><trkpt lat="45.81369758254487" lon="4.849016478432791"><ele>167.42857142857142</ele><time>2026-04-28T12:34:50Z</time></trkpt><trkpt lat="45.813737888141944" lon="4.849094028678968"><ele>167.0</ele><time>2026-04-28T12:34:51Z</time></trkpt><trkpt lat="45.8137732637842" lon="4.849175127439108"><ele>167.0</ele><time>2026-04-28T12:34:52Z</time></trkpt><trkpt lat="45.81381410282452" lon="4.849258864451011"><ele>167.0</ele><time>2026-04-28T12:34:53Z</time></trkpt><trkpt lat="45.813857587054386" lon="4.849343285333345"><ele>167.0</ele><time>2026-04-28T12:34:54Z</time></trkpt><trkpt lat="45.81389255949213" lon="4.849430994282231"><ele>167.0</ele><time>2026-04-28T12:34:55Z</time></trkpt><trkpt lat="45.81393213749348" lon="4.849520879078124"><ele>167.0</ele><time>2026-04-28T12:34:56Z</time></trkpt><trkpt lat="45.81396411095858" lon="4.849610076752451"><ele>167.0</ele><time>2026-04-28T12:34:57Z</time></trkpt><trkpt lat="45.81400607501165" lon="4.849702469649761"><ele>167.0</ele><time>2026-04-28T12:34:58Z</time></trkpt><trkpt lat="45.8140390983063" lon="4.849787031552265"><ele>168.71428571428572</ele><time>2026-04-28T12:34:59Z</time></trkpt><trkpt lat="45.81407764616944" lon="4.849871378538311"><ele>170.42857142857144</ele><time>2026-04-28T12:35:00Z</time></trkpt><trkpt lat="45.81410973894162" lon="4.849962131601017"><ele>172.14285714285717</ele><time>2026-04-28T12:35:01Z</time></trkpt><trkpt lat="45.81414453393628" lon="4.85005114022026"><ele>173.85714285714286</ele><time>2026-04-28T12:35:02Z</time></trkpt><trkpt lat="45.81418282634699" lon="4.850142390264796"><ele>175.57142857142858</ele><time>2026-04-28T12:35:03Z</time></trkpt><trkpt lat="45.81422213293902" lon="4.8502304917714465"><ele>177.2857142857143</ele><time>2026-04-28T12:35:04Z</time></trkpt><trkpt lat="45.81425642550303" lon="4.850321349927154"><ele>179.0</ele><time>2026-04-28T12:35:05Z</time></trkpt><trkpt lat="45.814295676068205" lon="4.850416384668937"><ele>178.71428571428572</ele><time>2026-04-28T12:35:06Z</time></trkpt><trkpt lat="45.814331864298524" lon="4.850506260818663"><ele>178.42857142857144</ele><time>2026-04-28T12:35:07Z</time></trkpt><trkpt lat="45.81436878241912" lon="4.850590145829873"><ele>178.14285714285717</ele><time>2026-04-28T12:35:08Z</time></trkpt><trkpt lat="45.81440699229374" lon="4.85068232958183"><ele>177.85714285714286</ele><time>2026-04-28T12:35:09Z</time></trkpt><trkpt lat="45.814444754064155" lon="4.850767691159639"><ele>177.57142857142856</ele><time>2026-04-28T12:35:10Z</time></trkpt><trkpt lat="45.814482677396015" lon="4.85085635784785"><ele>177.2857142857143</ele><time>2026-04-28T12:35:11Z</time></trkpt><trkpt lat="45.814520819963384" lon="4.850951040888562"><ele>177.0</ele><time>2026-04-28T12:35:12Z</time></trkpt><trkpt lat="45.81455975737717" lon="4.851037233257345"><ele>177.0</ele><time>2026-04-28T12:35:13Z</time></trkpt><trkpt lat="45.814591952560384" lon="4.851126969197324"><ele>177.0</ele><time>2026-04-28T12:35:14Z</time></trkpt><trkpt lat="45.81462779023115" lon="4.851204299023782"><ele>177.0</ele><time>2026-04-28T12:35:15Z</time></trkpt><trkpt lat="45.81466512074396" lon="4.851286953190835"><ele>177.0</ele><time>2026-04-28T12:35:16Z</time></trkpt><trkpt lat="45.81471364419574" lon="4.851367840417584"><ele>177.0</ele><time>2026-04-28T12:35:17Z</time></trkpt><trkpt lat="45.81474631631498" lon="4.851451209010954"><ele>177.0</ele><time>2026-04-28T12:35:18Z</time></trkpt><trkpt lat="45.81478183200634" lon="4.8515306343931455"><ele>177.0</ele><time>2026-04-28T12:35:19Z</time></trkpt><trkpt lat="45.81481846338692" lon="4.851616948706311"><ele>177.0</ele><time>2026-04-28T12:35:20Z</time></trkpt><trkpt lat="45.81485128265863" lon="4.851699962722482"><ele>177.0</ele><time>2026-04-28T12:35:21Z</time></trkpt><trkpt lat="45.8148919478788" lon="4.851785802992659"><ele>177.0</ele><time>2026-04-28T12:35:22Z</time></trkpt><trkpt lat="45.81493437734653" lon="4.851865749374061"><ele>177.0</ele><time>2026-04-28T12:35:23Z</time></trkpt><trkpt lat="45.814979835955576" lon="4.851946889766047"><ele>177.0</ele><time>2026-04-28T12:35:24Z</time></trkpt><trkpt lat="45.8150341328207" lon="4.852026286024637"><ele>177.0</ele><time>2026-04-28T12:35:25Z</time></trkpt><trkpt lat="45.815084029074136" lon="4.852107720995568"><ele>177.0</ele><time>2026-04-28T12:35:26Z</time></trkpt><trkpt lat="45.81513272768605" lon="4.8521892018754516"><ele>176.33333333333334</ele><time>2026-04-28T12:35:27Z</time></trkpt><trkpt lat="45.81518169273737" lon="4.852270696289767"><ele>175.66666666666666</ele><time>2026-04-28T12:35:28Z</time></trkpt><trkpt lat="45.81523536262473" lon="4.852353516715193"><ele>175.0</ele><time>2026-04-28T12:35:29Z</time></trkpt><trkpt lat="45.81528498986808" lon="4.852438582909553"><ele>174.33333333333331</ele><time>2026-04-28T12:35:30Z</time></trkpt><trkpt lat="45.81533673308809" lon="4.852524323859619"><ele>173.66666666666666</ele><time>2026-04-28T12:35:31Z</time></trkpt><trkpt lat="45.81538938424533" lon="4.852609495268038"><ele>173.0</ele><time>2026-04-28T12:35:32Z</time></trkpt><trkpt lat="45.815434747023744" lon="4.852692534956055"><ele>173.0</ele><time>2026-04-28T12:35:33Z</time></trkpt><trkpt lat="45.81548561042099" lon="4.852778871911469"><ele>173.0</ele><time>2026-04-28T12:35:34Z</time></trkpt><trkpt lat="45.815532248768776" lon="4.852868191025007"><ele>173.0</ele><time>2026-04-28T12:35:35Z</time></trkpt><trkpt lat="45.81557708182503" lon="4.8529619398191235"><ele>173.0</ele><time>2026-04-28T12:35:36Z</time></trkpt><trkpt lat="45.81562002470364" lon="4.853060845915616"><ele>173.0</ele><time>2026-04-28T12:35:37Z</time></trkpt><trkpt lat="45.81566117029478" lon="4.8531616527233306"><ele>173.0</ele><time>2026-04-28T12:35:38Z</time></trkpt><trkpt lat="45.81569995854509" lon="4.853259155476205"><ele>173.0</ele><time>2026-04-28T12:35:39Z</time></trkpt><trkpt lat="45.815734737366554" lon="4.853357684617866"><ele>173.0</ele><time>2026-04-28T12:35:40Z</time></trkpt><trkpt lat="45.815768557576106" lon="4.8534560245675635"><ele>173.0</ele><time>2026-04-28T12:35:41Z</time></trkpt><trkpt lat="45.815802921611805" lon="4.853546497227853"><ele>173.0</ele><time>2026-04-28T12:35:42Z</time></trkpt><trkpt lat="45.815837275806764" lon="4.853640946191867"><ele>173.0</ele><time>2026-04-28T12:35:43Z</time></trkpt><trkpt lat="45.81587412870536" lon="4.853733170330602"><ele>173.0</ele><time>2026-04-28T12:35:44Z</time></trkpt><trkpt lat="45.81591044439081" lon="4.853820698639598"><ele>173.0</ele><time>2026-04-28T12:35:44.999Z</time></trkpt><trkpt lat="45.81593695707365" lon="4.853907849197031"><ele>173.14285714285714</ele><time>2026-04-28T12:35:45.999Z</time></trkpt><trkpt lat="45.815966425138626" lon="4.853992938837563"><ele>173.2857142857143</ele><time>2026-04-28T12:35:46.999Z</time></trkpt><trkpt lat="45.81600193950552" lon="4.854076496885153"><ele>173.42857142857144</ele><time>2026-04-28T12:35:47.999Z</time></trkpt><trkpt lat="45.81603443076477" lon="4.854170770339788"><ele>173.57142857142856</ele><time>2026-04-28T12:35:48.999Z</time></trkpt><trkpt lat="45.81607411107223" lon="4.854244462419102"><ele>173.71428571428572</ele><time>2026-04-28T12:35:49.999Z</time></trkpt><trkpt lat="45.816129585965" lon="4.854326833798934"><ele>173.85714285714286</ele><time>2026-04-28T12:35:50.999Z</time></trkpt><trkpt lat="45.81616973464591" lon="4.8544067455180935"><ele>174.0</ele><time>2026-04-28T12:35:51.999Z</time></trkpt><trkpt lat="45.816210944796744" lon="4.854478353649787"><ele>174.0</ele><time>2026-04-28T12:35:52.999Z</time></trkpt><trkpt lat="45.81625259338926" lon="4.854564955565761"><ele>174.0</ele><time>2026-04-28T12:35:53.999Z</time></trkpt><trkpt lat="45.81630725782201" lon="4.854660379558914"><ele>174.0</ele><time>2026-04-28T12:35:54.999Z</time></trkpt><trkpt lat="45.81634851456911" lon="4.854736727319674"><ele>174.0</ele><time>2026-04-28T12:35:55.999Z</time></trkpt><trkpt lat="45.81642429677384" lon="4.854887858869594"><ele>174.0</ele><time>2026-04-28T12:35:58Z</time></trkpt><trkpt lat="45.81646555736384" lon="4.854971752519011"><ele>174.0</ele><time>2026-04-28T12:35:59Z</time></trkpt><trkpt lat="45.81650510883869" lon="4.85505403512122"><ele>177.14285714285714</ele><time>2026-04-28T12:36:00Z</time></trkpt><trkpt lat="45.816547680997495" lon="4.855132830673982"><ele>180.28571428571428</ele><time>2026-04-28T12:36:01Z</time></trkpt><trkpt lat="45.81658841350115" lon="4.855210704438057"><ele>183.42857142857144</ele><time>2026-04-28T12:36:02Z</time></trkpt><trkpt lat="45.81663436512203" lon="4.855288969202841"><ele>186.57142857142856</ele><time>2026-04-28T12:36:03Z</time></trkpt><trkpt lat="45.816677727333364" lon="4.855369082511149"><ele>189.71428571428572</ele><time>2026-04-28T12:36:04Z</time></trkpt><trkpt lat="45.81672332249067" lon="4.855448739984234"><ele>192.85714285714286</ele><time>2026-04-28T12:36:05Z</time></trkpt><trkpt lat="45.816766829347046" lon="4.855521800759538"><ele>196.0</ele><time>2026-04-28T12:36:06Z</time></trkpt><trkpt lat="45.81680719502747" lon="4.855597882706208"><ele>193.66666666666666</ele><time>2026-04-28T12:36:07Z</time></trkpt><trkpt lat="45.816853040014486" lon="4.855675297136779"><ele>191.33333333333331</ele><time>2026-04-28T12:36:08Z</time></trkpt><trkpt lat="45.81689560471796" lon="4.8557438884688935"><ele>189.0</ele><time>2026-04-28T12:36:09Z</time></trkpt><trkpt lat="45.81694890033794" lon="4.855807585060213"><ele>186.66666666666666</ele><time>2026-04-28T12:36:10Z</time></trkpt><trkpt lat="45.81704987502081" lon="4.855921391990245"><ele>184.33333333333331</ele><time>2026-04-28T12:36:12Z</time></trkpt><trkpt lat="45.817100930825035" lon="4.855984282403621"><ele>182.0</ele><time>2026-04-28T12:36:13Z</time></trkpt><trkpt lat="45.81715837267502" lon="4.856044513598256"><ele>182.0</ele><time>2026-04-28T12:36:14Z</time></trkpt><trkpt lat="45.8172198356567" lon="4.85610804993996"><ele>182.0</ele><time>2026-04-28T12:36:15Z</time></trkpt><trkpt lat="45.817271723578074" lon="4.856161810142357"><ele>182.0</ele><time>2026-04-28T12:36:16Z</time></trkpt><trkpt lat="45.81732978184157" lon="4.856218037309962"><ele>182.0</ele><time>2026-04-28T12:36:17Z</time></trkpt><trkpt lat="45.81743600416529" lon="4.856326962856112"><ele>182.0</ele><time>2026-04-28T12:36:19Z</time></trkpt><trkpt lat="45.81748830654647" lon="4.856379593457776"><ele>182.0</ele><time>2026-04-28T12:36:20Z</time></trkpt><trkpt lat="45.817539215991985" lon="4.856438758786563"><ele>182.0</ele><time>2026-04-28T12:36:21Z</time></trkpt><trkpt lat="45.81760014946219" lon="4.856499737603264"><ele>182.0</ele><time>2026-04-28T12:36:22Z</time></trkpt><trkpt lat="45.817657426763205" lon="4.856565035395344"><ele>182.0</ele><time>2026-04-28T12:36:23Z</time></trkpt><trkpt lat="45.81771262127845" lon="4.8566292279411245"><ele>182.0</ele><time>2026-04-28T12:36:24Z</time></trkpt><trkpt lat="45.817771500592706" lon="4.856692961332608"><ele>182.0</ele><time>2026-04-28T12:36:25Z</time></trkpt><trkpt lat="45.81782536393388" lon="4.856743414100176"><ele>182.0</ele><time>2026-04-28T12:36:26Z</time></trkpt><trkpt lat="45.81787940483704" lon="4.856795053319353"><ele>182.0</ele><time>2026-04-28T12:36:27Z</time></trkpt><trkpt lat="45.817937548374694" lon="4.856835331305749"><ele>182.16666666666666</ele><time>2026-04-28T12:36:28Z</time></trkpt><trkpt lat="45.817999337778126" lon="4.856880631849361"><ele>182.33333333333331</ele><time>2026-04-28T12:36:29Z</time></trkpt><trkpt lat="45.81805350811194" lon="4.85693111461766"><ele>182.5</ele><time>2026-04-28T12:36:30Z</time></trkpt><trkpt lat="45.81811408005663" lon="4.8569834612052905"><ele>182.66666666666666</ele><time>2026-04-28T12:36:31Z</time></trkpt><trkpt lat="45.81817613837972" lon="4.857041761541885"><ele>182.83333333333334</ele><time>2026-04-28T12:36:32Z</time></trkpt><trkpt lat="45.81828391648998" lon="4.8571358476380935"><ele>183.0</ele><time>2026-04-28T12:36:34Z</time></trkpt><trkpt lat="45.81834197368666" lon="4.8571806371434585"><ele>183.0</ele><time>2026-04-28T12:36:35Z</time></trkpt><trkpt lat="45.818399594430836" lon="4.8572281868347265"><ele>183.0</ele><time>2026-04-28T12:36:36Z</time></trkpt><trkpt lat="45.818502692053215" lon="4.8573205492969755"><ele>183.0</ele><time>2026-04-28T12:36:38Z</time></trkpt><trkpt lat="45.81855817903348" lon="4.857363491816293"><ele>183.0</ele><time>2026-04-28T12:36:39Z</time></trkpt><trkpt lat="45.81861851039253" lon="4.857411711187486"><ele>183.0</ele><time>2026-04-28T12:36:40Z</time></trkpt><trkpt lat="45.81867883301765" lon="4.857455720658443"><ele>183.0</ele><time>2026-04-28T12:36:41Z</time></trkpt><trkpt lat="45.81873672214424" lon="4.857498702664799"><ele>180.0</ele><time>2026-04-28T12:36:42Z</time></trkpt><trkpt lat="45.81879394881096" lon="4.857547020354872"><ele>177.0</ele><time>2026-04-28T12:36:43Z</time></trkpt><trkpt lat="45.81890804539892" lon="4.8576365636878"><ele>174.0</ele><time>2026-04-28T12:36:45Z</time></trkpt><trkpt lat="45.818960944888154" lon="4.8576866484449885"><ele>171.0</ele><time>2026-04-28T12:36:46Z</time></trkpt><trkpt lat="45.81907100897988" lon="4.857773787959244"><ele>168.0</ele><time>2026-04-28T12:36:48Z</time></trkpt><trkpt lat="45.819128751028096" lon="4.857818377778786"><ele>169.42857142857142</ele><time>2026-04-28T12:36:49Z</time></trkpt><trkpt lat="45.819185773607835" lon="4.857861034823091"><ele>170.85714285714286</ele><time>2026-04-28T12:36:50Z</time></trkpt><trkpt lat="45.81924534455387" lon="4.857901783189973"><ele>172.28571428571428</ele><time>2026-04-28T12:36:51Z</time></trkpt><trkpt lat="45.81931050842719" lon="4.85794208352098"><ele>173.71428571428572</ele><time>2026-04-28T12:36:52Z</time></trkpt><trkpt lat="45.81937401385477" lon="4.857975666210298"><ele>175.14285714285714</ele><time>2026-04-28T12:36:53Z</time></trkpt><trkpt lat="45.81944187087866" lon="4.858004338558713"><ele>176.57142857142856</ele><time>2026-04-28T12:36:54Z</time></trkpt><trkpt lat="45.81950958702094" lon="4.858029917141618"><ele>178.0</ele><time>2026-04-28T12:36:55Z</time></trkpt><trkpt lat="45.81957539837392" lon="4.858058092777719"><ele>178.0</ele><time>2026-04-28T12:36:56Z</time></trkpt><trkpt lat="45.81969694078708" lon="4.858103228740769"><ele>178.0</ele><time>2026-04-28T12:36:58Z</time></trkpt><trkpt lat="45.81976017530728" lon="4.858127816775905"><ele>178.0</ele><time>2026-04-28T12:36:59Z</time></trkpt><trkpt lat="45.81982452085173" lon="4.858155100261879"><ele>178.0</ele><time>2026-04-28T12:37:00Z</time></trkpt><trkpt lat="45.819953633068934" lon="4.858197217107144"><ele>178.0</ele><time>2026-04-28T12:37:02Z</time></trkpt><trkpt lat="45.82002581005111" lon="4.858240132496751"><ele>178.0</ele><time>2026-04-28T12:37:03Z</time></trkpt><trkpt lat="45.82008897122912" lon="4.858259171307754"><ele>178.0</ele><time>2026-04-28T12:37:04Z</time></trkpt><trkpt lat="45.82015298725606" lon="4.858271947189213"><ele>178.0</ele><time>2026-04-28T12:37:05Z</time></trkpt><trkpt lat="45.82022047610648" lon="4.85829146995344"><ele>178.0</ele><time>2026-04-28T12:37:06Z</time></trkpt><trkpt lat="45.82028351887971" lon="4.858314877432142"><ele>178.0</ele><time>2026-04-28T12:37:07Z</time></trkpt><trkpt lat="45.82040987123091" lon="4.858354555028138"><ele>178.0</ele><time>2026-04-28T12:37:09Z</time></trkpt><trkpt lat="45.82047456692986" lon="4.858382636676975"><ele>177.0</ele><time>2026-04-28T12:37:10Z</time></trkpt><trkpt lat="45.82053766276686" lon="4.858412268597724"><ele>176.0</ele><time>2026-04-28T12:37:11Z</time></trkpt><trkpt lat="45.82066222176911" lon="4.8584573046899875"><ele>175.0</ele><time>2026-04-28T12:37:13Z</time></trkpt><trkpt lat="45.82072481045459" lon="4.85847690242648"><ele>174.0</ele><time>2026-04-28T12:37:14Z</time></trkpt><trkpt lat="45.82078683533069" lon="4.8585004090668535"><ele>173.0</ele><time>2026-04-28T12:37:15Z</time></trkpt><trkpt lat="45.8208520806917" lon="4.8585199672972275"><ele>172.0</ele><time>2026-04-28T12:37:16Z</time></trkpt><trkpt lat="45.82091492766446" lon="4.8585444505809425"><ele>175.16666666666669</ele><time>2026-04-28T12:37:17Z</time></trkpt><trkpt lat="45.8209774283096" lon="4.85856657694679"><ele>178.33333333333334</ele><time>2026-04-28T12:37:18Z</time></trkpt><trkpt lat="45.82104131074507" lon="4.85858741628718"><ele>181.5</ele><time>2026-04-28T12:37:19Z</time></trkpt><trkpt lat="45.821107345667095" lon="4.858604758380208"><ele>184.66666666666666</ele><time>2026-04-28T12:37:20Z</time></trkpt><trkpt lat="45.821224159835744" lon="4.858661873271603"><ele>187.83333333333331</ele><time>2026-04-28T12:37:22Z</time></trkpt><trkpt lat="45.821285562978005" lon="4.858700711899945"><ele>191.0</ele><time>2026-04-28T12:37:23Z</time></trkpt><trkpt lat="45.82134799705018" lon="4.858726192418519"><ele>191.0</ele><time>2026-04-28T12:37:24Z</time></trkpt><trkpt lat="45.821412029309265" lon="4.8587466094356975"><ele>191.0</ele><time>2026-04-28T12:37:25Z</time></trkpt><trkpt lat="45.82147725612489" lon="4.858774061381039"><ele>191.0</ele><time>2026-04-28T12:37:26Z</time></trkpt><trkpt lat="45.82160223307543" lon="4.858817350281766"><ele>191.0</ele><time>2026-04-28T12:37:28Z</time></trkpt><trkpt lat="45.82166455352872" lon="4.858833086603302"><ele>191.0</ele><time>2026-04-28T12:37:29Z</time></trkpt><trkpt lat="45.821732095040595" lon="4.8588457690946125"><ele>191.0</ele><time>2026-04-28T12:37:30Z</time></trkpt><trkpt lat="45.82179566555618" lon="4.858858397649993"><ele>189.57142857142858</ele><time>2026-04-28T12:37:31Z</time></trkpt><trkpt lat="45.8218589158564" lon="4.858879558428746"><ele>188.14285714285714</ele><time>2026-04-28T12:37:32Z</time></trkpt><trkpt lat="45.821923443803584" lon="4.858896646116759"><ele>186.71428571428572</ele><time>2026-04-28T12:37:33Z</time></trkpt><trkpt lat="45.821988041837194" lon="4.8589082808059745"><ele>185.28571428571428</ele><time>2026-04-28T12:37:34Z</time></trkpt><trkpt lat="45.822050186956325" lon="4.858927241632811"><ele>183.85714285714283</ele><time>2026-04-28T12:37:34.999Z</time></trkpt><trkpt lat="45.822114339725665" lon="4.858940328264525"><ele>182.42857142857142</ele><time>2026-04-28T12:37:35.999Z</time></trkpt><trkpt lat="45.822234446874084" lon="4.858966315387379"><ele>181.0</ele><time>2026-04-28T12:37:37.999Z</time></trkpt><trkpt lat="45.822297072699875" lon="4.858981244191997"><ele>181.0</ele><time>2026-04-28T12:37:38.999Z</time></trkpt><trkpt lat="45.82235837053994" lon="4.859003906785865"><ele>181.0</ele><time>2026-04-28T12:37:39.999Z</time></trkpt><trkpt lat="45.82242189746194" lon="4.859006597749285"><ele>181.0</ele><time>2026-04-28T12:37:40.999Z</time></trkpt><trkpt lat="45.82254980164264" lon="4.859018617269926"><ele>181.0</ele><time>2026-04-28T12:37:42.999Z</time></trkpt><trkpt lat="45.822675775205646" lon="4.859021995493433"><ele>181.0</ele><time>2026-04-28T12:37:44.999Z</time></trkpt><trkpt lat="45.82274044267625" lon="4.859019792989422"><ele>181.0</ele><time>2026-04-28T12:37:45.999Z</time></trkpt><trkpt lat="45.82280522874605" lon="4.85902280188731"><ele>181.5</ele><time>2026-04-28T12:37:46.999Z</time></trkpt><trkpt lat="45.82287078057378" lon="4.859018818168566"><ele>182.0</ele><time>2026-04-28T12:37:47.999Z</time></trkpt><trkpt lat="45.822939785026804" lon="4.859020595192912"><ele>182.5</ele><time>2026-04-28T12:37:48.999Z</time></trkpt><trkpt lat="45.82306102962236" lon="4.8590071980643605"><ele>183.0</ele><time>2026-04-28T12:37:50.999Z</time></trkpt><trkpt lat="45.82313330151991" lon="4.8590137629050485"><ele>183.5</ele><time>2026-04-28T12:37:51.999Z</time></trkpt><trkpt lat="45.82319945551894" lon="4.859015746415967"><ele>184.0</ele><time>2026-04-28T12:37:52.999Z</time></trkpt><trkpt lat="45.82331744871819" lon="4.859018115130987"><ele>184.0</ele><time>2026-04-28T12:37:54.999Z</time></trkpt><trkpt lat="45.82338501952432" lon="4.85901067526732"><ele>184.0</ele><time>2026-04-28T12:37:55.999Z</time></trkpt><trkpt lat="45.82350636494312" lon="4.858998148915983"><ele>184.0</ele><time>2026-04-28T12:37:57.999Z</time></trkpt><trkpt lat="45.82356943022616" lon="4.858986620237862"><ele>184.0</ele><time>2026-04-28T12:37:58.999Z</time></trkpt><trkpt lat="45.823634670047355" lon="4.858972678060127"><ele>184.0</ele><time>2026-04-28T12:37:59.999Z</time></trkpt><trkpt lat="45.82375972303373" lon="4.8589537590387195"><ele>184.0</ele><time>2026-04-28T12:38:01.999Z</time></trkpt><trkpt lat="45.82387619592227" lon="4.858927165868313"><ele>184.25</ele><time>2026-04-28T12:38:04Z</time></trkpt><trkpt lat="45.82400518459708" lon="4.858893389623653"><ele>184.5</ele><time>2026-04-28T12:38:06Z</time></trkpt><trkpt lat="45.82413870269192" lon="4.858861546811628"><ele>184.75</ele><time>2026-04-28T12:38:08Z</time></trkpt><trkpt lat="45.82426508960301" lon="4.858833327856232"><ele>185.0</ele><time>2026-04-28T12:38:10Z</time></trkpt><trkpt lat="45.824336623455835" lon="4.858814527760117"><ele>185.14285714285714</ele><time>2026-04-28T12:38:11Z</time></trkpt><trkpt lat="45.82439909655249" lon="4.8588023051434925"><ele>185.28571428571428</ele><time>2026-04-28T12:38:12Z</time></trkpt><trkpt lat="45.82446259138508" lon="4.858790970524931"><ele>185.42857142857144</ele><time>2026-04-28T12:38:13Z</time></trkpt><trkpt lat="45.82453286112988" lon="4.8587698532141745"><ele>185.57142857142856</ele><time>2026-04-28T12:38:14Z</time></trkpt><trkpt lat="45.82460275529994" lon="4.858745097935165"><ele>185.71428571428572</ele><time>2026-04-28T12:38:15Z</time></trkpt><trkpt lat="45.824669721348776" lon="4.858729571849937"><ele>185.85714285714286</ele><time>2026-04-28T12:38:16Z</time></trkpt><trkpt lat="45.82473934820403" lon="4.858705875024013"><ele>186.0</ele><time>2026-04-28T12:38:17Z</time></trkpt><trkpt lat="45.82481105403141" lon="4.858693729705659"><ele>186.0</ele><time>2026-04-28T12:38:18Z</time></trkpt><trkpt lat="45.82488379297032" lon="4.858676382767052"><ele>186.0</ele><time>2026-04-28T12:38:19Z</time></trkpt><trkpt lat="45.82495732441249" lon="4.85865264915147"><ele>186.0</ele><time>2026-04-28T12:38:20Z</time></trkpt><trkpt lat="45.8250294028677" lon="4.858621668586552"><ele>186.0</ele><time>2026-04-28T12:38:21Z</time></trkpt><trkpt lat="45.82510149355371" lon="4.858581004264989"><ele>186.0</ele><time>2026-04-28T12:38:22Z</time></trkpt><trkpt lat="45.82517097277854" lon="4.858535233291047"><ele>186.0</ele><time>2026-04-28T12:38:23Z</time></trkpt><trkpt lat="45.825236735459555" lon="4.858479134616906"><ele>184.83333333333334</ele><time>2026-04-28T12:38:24Z</time></trkpt><trkpt lat="45.82530922333517" lon="4.8584222810407836"><ele>183.66666666666666</ele><time>2026-04-28T12:38:25Z</time></trkpt><trkpt lat="45.8253735992513" lon="4.858357028697137"><ele>182.5</ele><time>2026-04-28T12:38:26Z</time></trkpt><trkpt lat="45.82542978918301" lon="4.858280031420202"><ele>181.33333333333331</ele><time>2026-04-28T12:38:27Z</time></trkpt><trkpt lat="45.825484298177706" lon="4.858198281500894"><ele>180.16666666666666</ele><time>2026-04-28T12:38:28Z</time></trkpt><trkpt lat="45.825543691016144" lon="4.858116627795555"><ele>179.0</ele><time>2026-04-28T12:38:29Z</time></trkpt><trkpt lat="45.82560035655676" lon="4.858033621646951"><ele>179.0</ele><time>2026-04-28T12:38:30Z</time></trkpt><trkpt lat="45.825663933206854" lon="4.857957301406178"><ele>179.0</ele><time>2026-04-28T12:38:31Z</time></trkpt><trkpt lat="45.82572207026836" lon="4.857877706917398"><ele>179.0</ele><time>2026-04-28T12:38:32Z</time></trkpt><trkpt lat="45.82579493953508" lon="4.857812446052621"><ele>179.0</ele><time>2026-04-28T12:38:33Z</time></trkpt><trkpt lat="45.825861490582355" lon="4.857727815665285"><ele>179.0</ele><time>2026-04-28T12:38:34Z</time></trkpt><trkpt lat="45.82591775664828" lon="4.857645672069585"><ele>179.0</ele><time>2026-04-28T12:38:35Z</time></trkpt><trkpt lat="45.82597522611997" lon="4.857566907376381"><ele>177.66666666666666</ele><time>2026-04-28T12:38:36Z</time></trkpt><trkpt lat="45.82603593987669" lon="4.857488473523683"><ele>176.33333333333331</ele><time>2026-04-28T12:38:37Z</time></trkpt><trkpt lat="45.826091857264295" lon="4.857404381806203"><ele>175.0</ele><time>2026-04-28T12:38:38Z</time></trkpt><trkpt lat="45.82615127635969" lon="4.857326637550714"><ele>173.66666666666666</ele><time>2026-04-28T12:38:39Z</time></trkpt><trkpt lat="45.826210072839636" lon="4.857249243025597"><ele>172.33333333333334</ele><time>2026-04-28T12:38:40Z</time></trkpt><trkpt lat="45.826268678051996" lon="4.857167254326412"><ele>171.0</ele><time>2026-04-28T12:38:41Z</time></trkpt><trkpt lat="45.82632947532045" lon="4.8570889228313865"><ele>171.0</ele><time>2026-04-28T12:38:42Z</time></trkpt><trkpt lat="45.826385168067496" lon="4.857013848343395"><ele>171.0</ele><time>2026-04-28T12:38:43Z</time></trkpt><trkpt lat="45.82644004213374" lon="4.856934805310073"><ele>171.0</ele><time>2026-04-28T12:38:44Z</time></trkpt><trkpt lat="45.826496628561785" lon="4.85685406872274"><ele>171.0</ele><time>2026-04-28T12:38:45Z</time></trkpt><trkpt lat="45.82655235932298" lon="4.856780512510199"><ele>171.0</ele><time>2026-04-28T12:38:46Z</time></trkpt><trkpt lat="45.8266057123566" lon="4.85670300435745"><ele>171.0</ele><time>2026-04-28T12:38:47Z</time></trkpt><trkpt lat="45.82666259062903" lon="4.856628210104128"><ele>170.66666666666666</ele><time>2026-04-28T12:38:48Z</time></trkpt><trkpt lat="45.82671587265874" lon="4.856552938485188"><ele>170.33333333333334</ele><time>2026-04-28T12:38:49Z</time></trkpt><trkpt lat="45.826768961147145" lon="4.856474966727492"><ele>170.0</ele><time>2026-04-28T12:38:50Z</time></trkpt><trkpt lat="45.82682490165958" lon="4.856401682928584"><ele>169.66666666666669</ele><time>2026-04-28T12:38:51Z</time></trkpt><trkpt lat="45.8268805101489" lon="4.8563314685154415"><ele>169.33333333333334</ele><time>2026-04-28T12:38:52Z</time></trkpt><trkpt lat="45.826938527731464" lon="4.856255297404378"><ele>169.0</ele><time>2026-04-28T12:38:53Z</time></trkpt><trkpt lat="45.82699738914825" lon="4.856185527213351"><ele>169.5</ele><time>2026-04-28T12:38:54Z</time></trkpt><trkpt lat="45.82705387190785" lon="4.856111908733981"><ele>170.0</ele><time>2026-04-28T12:38:55Z</time></trkpt><trkpt lat="45.827110090704856" lon="4.856033689281958"><ele>170.5</ele><time>2026-04-28T12:38:56Z</time></trkpt><trkpt lat="45.82716349757165" lon="4.855958902788491"><ele>171.0</ele><time>2026-04-28T12:38:57Z</time></trkpt><trkpt lat="45.82722051171765" lon="4.855876230199899"><ele>171.5</ele><time>2026-04-28T12:38:58Z</time></trkpt><trkpt lat="45.827284724409594" lon="4.855806010815706"><ele>172.0</ele><time>2026-04-28T12:38:59Z</time></trkpt><trkpt lat="45.827336117923565" lon="4.855728030317156"><ele>172.0</ele><time>2026-04-28T12:39:00Z</time></trkpt><trkpt lat="45.82739286225081" lon="4.855658995408399"><ele>172.0</ele><time>2026-04-28T12:39:01Z</time></trkpt><trkpt lat="45.82745189899058" lon="4.855584137590176"><ele>172.0</ele><time>2026-04-28T12:39:02Z</time></trkpt><trkpt lat="45.827506647528395" lon="4.855505016115647"><ele>172.0</ele><time>2026-04-28T12:39:03Z</time></trkpt><trkpt lat="45.827564198377885" lon="4.855432586936414"><ele>172.0</ele><time>2026-04-28T12:39:04Z</time></trkpt><trkpt lat="45.82762239311936" lon="4.8553620853149155"><ele>172.0</ele><time>2026-04-28T12:39:05Z</time></trkpt><trkpt lat="45.82767692120243" lon="4.855285269368098"><ele>172.5</ele><time>2026-04-28T12:39:06Z</time></trkpt><trkpt lat="45.82772993153107" lon="4.85521450682062"><ele>173.0</ele><time>2026-04-28T12:39:07Z</time></trkpt><trkpt lat="45.82778443976374" lon="4.855143221872436"><ele>173.5</ele><time>2026-04-28T12:39:08Z</time></trkpt><trkpt lat="45.82784347122105" lon="4.855060406786998"><ele>174.0</ele><time>2026-04-28T12:39:09Z</time></trkpt><trkpt lat="45.827903170522475" lon="4.854988842048123"><ele>174.5</ele><time>2026-04-28T12:39:10Z</time></trkpt><trkpt lat="45.82795966882857" lon="4.854917993889514"><ele>175.0</ele><time>2026-04-28T12:39:11Z</time></trkpt><trkpt lat="45.82801090470142" lon="4.85484803854418"><ele>175.0</ele><time>2026-04-28T12:39:12Z</time></trkpt><trkpt lat="45.82806456445476" lon="4.854772740572211"><ele>175.0</ele><time>2026-04-28T12:39:13Z</time></trkpt><trkpt lat="45.82811769864865" lon="4.854700205968005"><ele>175.0</ele><time>2026-04-28T12:39:14Z</time></trkpt><trkpt lat="45.828172462170656" lon="4.854629555317014"><ele>175.0</ele><time>2026-04-28T12:39:15Z</time></trkpt><trkpt lat="45.828226126544905" lon="4.854559909712787"><ele>175.0</ele><time>2026-04-28T12:39:16Z</time></trkpt><trkpt lat="45.82827963864604" lon="4.854486527128836"><ele>175.0</ele><time>2026-04-28T12:39:17Z</time></trkpt><trkpt lat="45.82833322287551" lon="4.854411792344257"><ele>175.0</ele><time>2026-04-28T12:39:18Z</time></trkpt><trkpt lat="45.82838667225406" lon="4.854336904161317"><ele>175.0</ele><time>2026-04-28T12:39:19Z</time></trkpt><trkpt lat="45.82844074377979" lon="4.854267078145203"><ele>175.0</ele><time>2026-04-28T12:39:20Z</time></trkpt><trkpt lat="45.828492872254564" lon="4.85419441004459"><ele>175.0</ele><time>2026-04-28T12:39:21Z</time></trkpt><trkpt lat="45.8285412851193" lon="4.854123349821602"><ele>175.0</ele><time>2026-04-28T12:39:22Z</time></trkpt><trkpt lat="45.82859504774228" lon="4.854049277199229"><ele>175.0</ele><time>2026-04-28T12:39:23Z</time></trkpt><trkpt lat="45.82864889149917" lon="4.853977691457252"><ele>175.0</ele><time>2026-04-28T12:39:24Z</time></trkpt><trkpt lat="45.828698852638865" lon="4.853906170824813"><ele>175.0</ele><time>2026-04-28T12:39:25Z</time></trkpt><trkpt lat="45.82875250990858" lon="4.853835344754866"><ele>175.0</ele><time>2026-04-28T12:39:26Z</time></trkpt><trkpt lat="45.828812192404556" lon="4.853755393391256"><ele>175.0</ele><time>2026-04-28T12:39:26.999Z</time></trkpt><trkpt lat="45.82886466127263" lon="4.853696722511256"><ele>175.0</ele><time>2026-04-28T12:39:27.999Z</time></trkpt><trkpt lat="45.82891441128744" lon="4.853624178630389"><ele>175.0</ele><time>2026-04-28T12:39:28.999Z</time></trkpt><trkpt lat="45.828978447188355" lon="4.853548408225231"><ele>175.0</ele><time>2026-04-28T12:39:29.999Z</time></trkpt><trkpt lat="45.82903673413216" lon="4.853484725515188"><ele>175.0</ele><time>2026-04-28T12:39:30.999Z</time></trkpt><trkpt lat="45.829089647305935" lon="4.853419639467443"><ele>175.0</ele><time>2026-04-28T12:39:31.999Z</time></trkpt><trkpt lat="45.82915068827375" lon="4.853352601353572"><ele>174.57142857142858</ele><time>2026-04-28T12:39:32.999Z</time></trkpt><trkpt lat="45.82920338531853" lon="4.853281377570504"><ele>174.14285714285714</ele><time>2026-04-28T12:39:33.999Z</time></trkpt><trkpt lat="45.82925724749498" lon="4.853204699047053"><ele>173.71428571428572</ele><time>2026-04-28T12:39:34.999Z</time></trkpt><trkpt lat="45.82930827607474" lon="4.8531376377201285"><ele>173.28571428571428</ele><time>2026-04-28T12:39:35.999Z</time></trkpt><trkpt lat="45.829358807805015" lon="4.853061191321958"><ele>172.85714285714286</ele><time>2026-04-28T12:39:36.999Z</time></trkpt><trkpt lat="45.82941068357307" lon="4.852991210104835"><ele>172.42857142857144</ele><time>2026-04-28T12:39:37.999Z</time></trkpt><trkpt lat="45.82946676899221" lon="4.852920623450154"><ele>172.0</ele><time>2026-04-28T12:39:38.999Z</time></trkpt><trkpt lat="45.8295203591283" lon="4.852847648586426"><ele>172.00000000000003</ele><time>2026-04-28T12:39:39.999Z</time></trkpt><trkpt lat="45.829581543375795" lon="4.852777036564219"><ele>172.0</ele><time>2026-04-28T12:39:40.999Z</time></trkpt><trkpt lat="45.82963871117195" lon="4.852707272149324"><ele>172.0</ele><time>2026-04-28T12:39:41.999Z</time></trkpt><trkpt lat="45.82969296281695" lon="4.852635464655185"><ele>172.0</ele><time>2026-04-28T12:39:42.999Z</time></trkpt><trkpt lat="45.829751070107946" lon="4.852563987184624"><ele>172.0</ele><time>2026-04-28T12:39:43.999Z</time></trkpt><trkpt lat="45.829811176151985" lon="4.852502968895297"><ele>172.00000000000003</ele><time>2026-04-28T12:39:44.999Z</time></trkpt><trkpt lat="45.829861914045985" lon="4.852433300512564"><ele>172.0</ele><time>2026-04-28T12:39:45.999Z</time></trkpt><trkpt lat="45.82992012461498" lon="4.8523528143882535"><ele>171.85714285714286</ele><time>2026-04-28T12:39:46.999Z</time></trkpt><trkpt lat="45.82997098899254" lon="4.8522916775568925"><ele>171.71428571428572</ele><time>2026-04-28T12:39:47.999Z</time></trkpt><trkpt lat="45.83002675521367" lon="4.8522134672335255"><ele>171.57142857142856</ele><time>2026-04-28T12:39:48.999Z</time></trkpt><trkpt lat="45.830082783177595" lon="4.852137978131324"><ele>171.42857142857144</ele><time>2026-04-28T12:39:49.999Z</time></trkpt><trkpt lat="45.83013529556108" lon="4.852071722467017"><ele>171.28571428571428</ele><time>2026-04-28T12:39:50.999Z</time></trkpt><trkpt lat="45.83019528236531" lon="4.85199793417402"><ele>171.14285714285714</ele><time>2026-04-28T12:39:51.999Z</time></trkpt><trkpt lat="45.83025202372583" lon="4.851923667798953"><ele>171.0</ele><time>2026-04-28T12:39:52.999Z</time></trkpt><trkpt lat="45.830309058811274" lon="4.851854193293279"><ele>170.99999999999997</ele><time>2026-04-28T12:39:53.999Z</time></trkpt><trkpt lat="45.83036198674069" lon="4.851796615648781"><ele>171.0</ele><time>2026-04-28T12:39:54.999Z</time></trkpt><trkpt lat="45.83041579855513" lon="4.851729502115672"><ele>171.0</ele><time>2026-04-28T12:39:55.999Z</time></trkpt><trkpt lat="45.830470762136045" lon="4.851667205496943"><ele>171.0</ele><time>2026-04-28T12:39:56.999Z</time></trkpt><trkpt lat="45.83053061425949" lon="4.851602812268788"><ele>171.0</ele><time>2026-04-28T12:39:57.999Z</time></trkpt><trkpt lat="45.830585106193965" lon="4.851539375570835"><ele>170.99999999999997</ele><time>2026-04-28T12:39:58.999Z</time></trkpt><trkpt lat="45.83064172066316" lon="4.851477187722236"><ele>171.0</ele><time>2026-04-28T12:39:59.999Z</time></trkpt><trkpt lat="45.830695899913" lon="4.851412470547383"><ele>170.99999999999997</ele><time>2026-04-28T12:40:00.999Z</time></trkpt><trkpt lat="45.83074936486855" lon="4.8513515073748685"><ele>171.0</ele><time>2026-04-28T12:40:01.999Z</time></trkpt><trkpt lat="45.83080289871869" lon="4.851290790025026"><ele>171.0</ele><time>2026-04-28T12:40:02.999Z</time></trkpt><trkpt lat="45.830854573300705" lon="4.851225005855262"><ele>171.0</ele><time>2026-04-28T12:40:03.999Z</time></trkpt><trkpt lat="45.8309057514603" lon="4.85116751705215"><ele>171.0</ele><time>2026-04-28T12:40:04.999Z</time></trkpt><trkpt lat="45.830961900801924" lon="4.85111004988339"><ele>170.99999999999997</ele><time>2026-04-28T12:40:05.999Z</time></trkpt><trkpt lat="45.831013038380625" lon="4.851053967678761"><ele>171.0</ele><time>2026-04-28T12:40:06.999Z</time></trkpt><trkpt lat="45.83106433645567" lon="4.850987684755925"><ele>170.85714285714283</ele><time>2026-04-28T12:40:07.999Z</time></trkpt><trkpt lat="45.83111776872721" lon="4.850924987753621"><ele>170.71428571428572</ele><time>2026-04-28T12:40:08.999Z</time></trkpt><trkpt lat="45.83117104529556" lon="4.850860025911319"><ele>170.57142857142856</ele><time>2026-04-28T12:40:10Z</time></trkpt><trkpt lat="45.831221815008185" lon="4.850802147902815"><ele>170.42857142857142</ele><time>2026-04-28T12:40:11Z</time></trkpt><trkpt lat="45.831280567588884" lon="4.850741952760522"><ele>170.28571428571428</ele><time>2026-04-28T12:40:12Z</time></trkpt><trkpt lat="45.83133440273592" lon="4.850683624939651"><ele>170.14285714285714</ele><time>2026-04-28T12:40:13Z</time></trkpt><trkpt lat="45.83138638622872" lon="4.850625177202024"><ele>170.0</ele><time>2026-04-28T12:40:14Z</time></trkpt><trkpt lat="45.83148318022458" lon="4.850521906687702"><ele>170.0</ele><time>2026-04-28T12:40:16Z</time></trkpt><trkpt lat="45.83153749985072" lon="4.8504694158285675"><ele>170.0</ele><time>2026-04-28T12:40:17Z</time></trkpt><trkpt lat="45.83158936530807" lon="4.850410286998645"><ele>170.0</ele><time>2026-04-28T12:40:18Z</time></trkpt><trkpt lat="45.83167338907885" lon="4.850270158053109"><ele>170.0</ele><time>2026-04-28T12:40:20Z</time></trkpt><trkpt lat="45.831712253425" lon="4.850192300129006"><ele>170.0</ele><time>2026-04-28T12:40:21Z</time></trkpt><trkpt lat="45.83175386623812" lon="4.8501121397499025"><ele>170.0</ele><time>2026-04-28T12:40:22Z</time></trkpt><trkpt lat="45.831793596987616" lon="4.850030833348051"><ele>170.75</ele><time>2026-04-28T12:40:23Z</time></trkpt><trkpt lat="45.831863760538084" lon="4.849882640232255"><ele>171.5</ele><time>2026-04-28T12:40:25Z</time></trkpt><trkpt lat="45.83194217594331" lon="4.849747403105498"><ele>172.25</ele><time>2026-04-28T12:40:27Z</time></trkpt><trkpt lat="45.83201593622211" lon="4.849607789850236"><ele>173.0</ele><time>2026-04-28T12:40:29Z</time></trkpt><trkpt lat="45.83209227169676" lon="4.8494753185728"><ele>173.0</ele><time>2026-04-28T12:40:31Z</time></trkpt><trkpt lat="45.83216380280736" lon="4.8493406328287225"><ele>173.0</ele><time>2026-04-28T12:40:33Z</time></trkpt><trkpt lat="45.832239454832056" lon="4.849207969513216"><ele>173.0</ele><time>2026-04-28T12:40:35Z</time></trkpt><trkpt lat="45.832305097174874" lon="4.849072156831372"><ele>173.0</ele><time>2026-04-28T12:40:37Z</time></trkpt><trkpt lat="45.83236770126118" lon="4.8489333532519945"><ele>172.8</ele><time>2026-04-28T12:40:39Z</time></trkpt><trkpt lat="45.83241665904582" lon="4.848801656048025"><ele>172.60000000000002</ele><time>2026-04-28T12:40:41Z</time></trkpt><trkpt lat="45.83245339886367" lon="4.848720614628122"><ele>172.39999999999998</ele><time>2026-04-28T12:40:42Z</time></trkpt><trkpt lat="45.83250891834869" lon="4.84857378609235"><ele>172.2</ele><time>2026-04-28T12:40:44Z</time></trkpt><trkpt lat="45.832564903386654" lon="4.848425662645263"><ele>172.0</ele><time>2026-04-28T12:40:46Z</time></trkpt><trkpt lat="45.832625995406616" lon="4.848261411985827"><ele>171.85714285714286</ele><time>2026-04-28T12:40:48Z</time></trkpt><trkpt lat="45.83265928468574" lon="4.8481762973835965"><ele>171.71428571428572</ele><time>2026-04-28T12:40:49Z</time></trkpt><trkpt lat="45.83269372830797" lon="4.848088879838798"><ele>171.57142857142856</ele><time>2026-04-28T12:40:50Z</time></trkpt><trkpt lat="45.83272620574353" lon="4.84800055056742"><ele>171.42857142857144</ele><time>2026-04-28T12:40:51Z</time></trkpt><trkpt lat="45.83274710848463" lon="4.847905565659906"><ele>171.28571428571428</ele><time>2026-04-28T12:40:52Z</time></trkpt><trkpt lat="45.83276350715297" lon="4.847807493582692"><ele>171.14285714285714</ele><time>2026-04-28T12:40:53Z</time></trkpt><trkpt lat="45.832784875802396" lon="4.847707202974302"><ele>171.0</ele><time>2026-04-28T12:40:54Z</time></trkpt><trkpt lat="45.83281118051778" lon="4.84761023729381"><ele>171.0</ele><time>2026-04-28T12:40:55Z</time></trkpt><trkpt lat="45.83283516170223" lon="4.847513556001926"><ele>171.0</ele><time>2026-04-28T12:40:56Z</time></trkpt><trkpt lat="45.832856832868785" lon="4.847414383442649"><ele>171.0</ele><time>2026-04-28T12:40:57Z</time></trkpt><trkpt lat="45.83288670623541" lon="4.847306084208995"><ele>171.0</ele><time>2026-04-28T12:40:58Z</time></trkpt><trkpt lat="45.83292103513723" lon="4.847202444199484"><ele>171.0</ele><time>2026-04-28T12:40:59Z</time></trkpt><trkpt lat="45.832946049677304" lon="4.847090226195972"><ele>171.0</ele><time>2026-04-28T12:41:00Z</time></trkpt><trkpt lat="45.83296247715643" lon="4.846972847801933"><ele>171.0</ele><time>2026-04-28T12:41:01Z</time></trkpt><trkpt lat="45.83299025355295" lon="4.846865647225242"><ele>171.0</ele><time>2026-04-28T12:41:02Z</time></trkpt><trkpt lat="45.83301464043916" lon="4.846750614079561"><ele>171.0</ele><time>2026-04-28T12:41:03Z</time></trkpt><trkpt lat="45.83304116351305" lon="4.846648483030844"><ele>171.0</ele><time>2026-04-28T12:41:04Z</time></trkpt><trkpt lat="45.8330729315556" lon="4.846535312148656"><ele>171.0</ele><time>2026-04-28T12:41:05Z</time></trkpt><trkpt lat="45.83310206849166" lon="4.846436532551299"><ele>171.0</ele><time>2026-04-28T12:41:06Z</time></trkpt><trkpt lat="45.83313185217859" lon="4.846336635198036"><ele>170.4</ele><time>2026-04-28T12:41:07Z</time></trkpt><trkpt lat="45.833157357175494" lon="4.846239237976438"><ele>169.8</ele><time>2026-04-28T12:41:08Z</time></trkpt><trkpt lat="45.833185718769066" lon="4.846139530218949"><ele>169.20000000000002</ele><time>2026-04-28T12:41:09Z</time></trkpt><trkpt lat="45.83320963139246" lon="4.846041048632349"><ele>168.60000000000002</ele><time>2026-04-28T12:41:10Z</time></trkpt><trkpt lat="45.83325568249748" lon="4.845875760650677"><ele>168.0</ele><time>2026-04-28T12:41:12Z</time></trkpt><trkpt lat="45.83329407959577" lon="4.845734234081026"><ele>168.0</ele><time>2026-04-28T12:41:14Z</time></trkpt><trkpt lat="45.83333906245439" lon="4.845630719363922"><ele>168.0</ele><time>2026-04-28T12:41:18Z</time></trkpt><trkpt lat="45.83335574454933" lon="4.8455081813971725"><ele>168.0</ele><time>2026-04-28T12:41:20Z</time></trkpt><trkpt lat="45.83339523074381" lon="4.845361032467477"><ele>168.0</ele><time>2026-04-28T12:41:22Z</time></trkpt><trkpt lat="45.83344562533675" lon="4.845195132336358"><ele>168.0</ele><time>2026-04-28T12:41:24Z</time></trkpt><trkpt lat="45.8334696661337" lon="4.845108700747568"><ele>169.16666666666666</ele><time>2026-04-28T12:41:25Z</time></trkpt><trkpt lat="45.833495332453005" lon="4.845022059344169"><ele>170.33333333333334</ele><time>2026-04-28T12:41:26Z</time></trkpt><trkpt lat="45.83351326512159" lon="4.844931906048326"><ele>171.5</ele><time>2026-04-28T12:41:27Z</time></trkpt><trkpt lat="45.83353636601427" lon="4.8448411074059425"><ele>172.66666666666669</ele><time>2026-04-28T12:41:28Z</time></trkpt><trkpt lat="45.833559419383114" lon="4.8447532720899"><ele>173.83333333333334</ele><time>2026-04-28T12:41:29Z</time></trkpt><trkpt lat="45.833606714527974" lon="4.844577639427453"><ele>175.0</ele><time>2026-04-28T12:41:31Z</time></trkpt><trkpt lat="45.8336300607055" lon="4.844493581802408"><ele>175.0</ele><time>2026-04-28T12:41:32Z</time></trkpt><trkpt lat="45.83366048677716" lon="4.8444107704006765"><ele>175.0</ele><time>2026-04-28T12:41:33Z</time></trkpt><trkpt lat="45.833686446530066" lon="4.8443232982676685"><ele>175.0</ele><time>2026-04-28T12:41:34Z</time></trkpt><trkpt lat="45.8337129223435" lon="4.844240710583398"><ele>175.0</ele><time>2026-04-28T12:41:35Z</time></trkpt><trkpt lat="45.83374014852605" lon="4.844157986051284"><ele>175.0</ele><time>2026-04-28T12:41:36Z</time></trkpt><trkpt lat="45.83376867576244" lon="4.844076867410313"><ele>175.0</ele><time>2026-04-28T12:41:36.999Z</time></trkpt><trkpt lat="45.83379302871526" lon="4.843990124388399"><ele>175.0</ele><time>2026-04-28T12:41:37.999Z</time></trkpt><trkpt lat="45.83381701885415" lon="4.8439026069523745"><ele>174.66666666666669</ele><time>2026-04-28T12:41:38.999Z</time></trkpt><trkpt lat="45.833844022921426" lon="4.843820500807695"><ele>174.33333333333334</ele><time>2026-04-28T12:41:39.999Z</time></trkpt><trkpt lat="45.83387296740178" lon="4.843730721298533"><ele>174.0</ele><time>2026-04-28T12:41:40.999Z</time></trkpt><trkpt lat="45.8339052128289" lon="4.843643801133571"><ele>173.66666666666666</ele><time>2026-04-28T12:41:41.999Z</time></trkpt><trkpt lat="45.83395002482086" lon="4.843480684445181"><ele>173.33333333333331</ele><time>2026-04-28T12:41:43.999Z</time></trkpt><trkpt lat="45.833975378500995" lon="4.843389844066256"><ele>173.0</ele><time>2026-04-28T12:41:44.999Z</time></trkpt><trkpt lat="45.83400543973453" lon="4.843309839850577"><ele>172.57142857142856</ele><time>2026-04-28T12:41:45.999Z</time></trkpt><trkpt lat="45.83402908088014" lon="4.8432242448984795"><ele>172.14285714285717</ele><time>2026-04-28T12:41:46.999Z</time></trkpt><trkpt lat="45.834054550760726" lon="4.8431369655242875"><ele>171.71428571428572</ele><time>2026-04-28T12:41:47.999Z</time></trkpt><trkpt lat="45.83408184380655" lon="4.843050676973221"><ele>171.28571428571428</ele><time>2026-04-28T12:41:48.999Z</time></trkpt><trkpt lat="45.834107370560304" lon="4.842964733362466"><ele>170.85714285714283</ele><time>2026-04-28T12:41:49.999Z</time></trkpt><trkpt lat="45.834131086107895" lon="4.8428788394320295"><ele>170.42857142857144</ele><time>2026-04-28T12:41:50.999Z</time></trkpt><trkpt lat="45.83415871213806" lon="4.842792338135015"><ele>170.0</ele><time>2026-04-28T12:41:51.999Z</time></trkpt><trkpt lat="45.83420697380587" lon="4.84262069060788"><ele>170.16666666666666</ele><time>2026-04-28T12:41:53.999Z</time></trkpt><trkpt lat="45.834232038992916" lon="4.8425359852263385"><ele>170.33333333333331</ele><time>2026-04-28T12:41:54.999Z</time></trkpt><trkpt lat="45.83425563121689" lon="4.842450678559709"><ele>170.5</ele><time>2026-04-28T12:41:55.999Z</time></trkpt><trkpt lat="45.83430926282578" lon="4.842285995168319"><ele>170.66666666666666</ele><time>2026-04-28T12:41:57.999Z</time></trkpt><trkpt lat="45.83433408727638" lon="4.842201173392561"><ele>170.83333333333334</ele><time>2026-04-28T12:41:58.999Z</time></trkpt><trkpt lat="45.83438514928643" lon="4.842035972381338"><ele>171.0</ele><time>2026-04-28T12:42:00.999Z</time></trkpt><trkpt lat="45.834409355380465" lon="4.841951231136422"><ele>171.0</ele><time>2026-04-28T12:42:01.999Z</time></trkpt><trkpt lat="45.83443556611226" lon="4.841869019427812"><ele>171.0</ele><time>2026-04-28T12:42:02.999Z</time></trkpt><trkpt lat="45.83446389071229" lon="4.841779634827535"><ele>171.0</ele><time>2026-04-28T12:42:03.999Z</time></trkpt><trkpt lat="45.834489887875094" lon="4.841692548960376"><ele>171.0</ele><time>2026-04-28T12:42:04.999Z</time></trkpt><trkpt lat="45.83453947462249" lon="4.841519472641516"><ele>171.0</ele><time>2026-04-28T12:42:06.999Z</time></trkpt><trkpt lat="45.83458976873127" lon="4.841355401756088"><ele>170.85714285714283</ele><time>2026-04-28T12:42:08.999Z</time></trkpt><trkpt lat="45.834619924660664" lon="4.8412645231796265"><ele>170.71428571428572</ele><time>2026-04-28T12:42:09.999Z</time></trkpt><trkpt lat="45.83464527495977" lon="4.841179368703684"><ele>170.57142857142856</ele><time>2026-04-28T12:42:10.999Z</time></trkpt><trkpt lat="45.83467287472447" lon="4.8410918820465465"><ele>170.42857142857142</ele><time>2026-04-28T12:42:11.999Z</time></trkpt><trkpt lat="45.83470271904638" lon="4.841001272673016"><ele>170.28571428571428</ele><time>2026-04-28T12:42:12.999Z</time></trkpt><trkpt lat="45.834733921896216" lon="4.840917270783875"><ele>170.14285714285714</ele><time>2026-04-28T12:42:13.999Z</time></trkpt><trkpt lat="45.83476401245513" lon="4.8408318297970325"><ele>170.0</ele><time>2026-04-28T12:42:14.999Z</time></trkpt><trkpt lat="45.83479665378138" lon="4.840740665319919"><ele>170.0</ele><time>2026-04-28T12:42:16Z</time></trkpt><trkpt lat="45.834825494156334" lon="4.840653920120347"><ele>170.0</ele><time>2026-04-28T12:42:17Z</time></trkpt><trkpt lat="45.8348638383076" lon="4.840569430513355"><ele>170.0</ele><time>2026-04-28T12:42:18Z</time></trkpt><trkpt lat="45.83489938265442" lon="4.840482246947097"><ele>170.0</ele><time>2026-04-28T12:42:19Z</time></trkpt><trkpt lat="45.834933812992375" lon="4.840395129304332"><ele>170.0</ele><time>2026-04-28T12:42:20Z</time></trkpt><trkpt lat="45.8349693024731" lon="4.840301342305564"><ele>170.0</ele><time>2026-04-28T12:42:21Z</time></trkpt><trkpt lat="45.83500282694878" lon="4.840220055480473"><ele>170.0</ele><time>2026-04-28T12:42:22Z</time></trkpt><trkpt lat="45.835038332887095" lon="4.840132728835953"><ele>170.0</ele><time>2026-04-28T12:42:23Z</time></trkpt><trkpt lat="45.83507540616477" lon="4.84004122912321"><ele>170.0</ele><time>2026-04-28T12:42:24Z</time></trkpt><trkpt lat="45.83511424485346" lon="4.839953748526403"><ele>170.0</ele><time>2026-04-28T12:42:25Z</time></trkpt><trkpt lat="45.83515147334296" lon="4.839869775389103"><ele>170.0</ele><time>2026-04-28T12:42:26Z</time></trkpt><trkpt lat="45.83518956455221" lon="4.839783255151384"><ele>170.0</ele><time>2026-04-28T12:42:27Z</time></trkpt><trkpt lat="45.835231044200754" lon="4.839700894157424"><ele>170.0</ele><time>2026-04-28T12:42:28Z</time></trkpt><trkpt lat="45.83527248718158" lon="4.839609420380373"><ele>170.0</ele><time>2026-04-28T12:42:29Z</time></trkpt><trkpt lat="45.835313545875266" lon="4.839522437294912"><ele>170.0</ele><time>2026-04-28T12:42:30Z</time></trkpt><trkpt lat="45.83535535632804" lon="4.839437594776296"><ele>170.0</ele><time>2026-04-28T12:42:31Z</time></trkpt><trkpt lat="45.8353957203776" lon="4.839350982243608"><ele>170.0</ele><time>2026-04-28T12:42:32Z</time></trkpt><trkpt lat="45.835437633185414" lon="4.839267405499383"><ele>170.0</ele><time>2026-04-28T12:42:33Z</time></trkpt><trkpt lat="45.835479510496526" lon="4.839187106601376"><ele>170.0</ele><time>2026-04-28T12:42:34Z</time></trkpt><trkpt lat="45.835521497557494" lon="4.83910650152158"><ele>170.0</ele><time>2026-04-28T12:42:35Z</time></trkpt><trkpt lat="45.835560871004496" lon="4.839023565968412"><ele>170.0</ele><time>2026-04-28T12:42:36Z</time></trkpt><trkpt lat="45.83559558688825" lon="4.8389461962231035"><ele>169.83333333333331</ele><time>2026-04-28T12:42:37Z</time></trkpt><trkpt lat="45.83563840365071" lon="4.838871276768459"><ele>169.66666666666666</ele><time>2026-04-28T12:42:38Z</time></trkpt><trkpt lat="45.835677451188054" lon="4.8387983824181795"><ele>169.5</ele><time>2026-04-28T12:42:39Z</time></trkpt><trkpt lat="45.835718522907285" lon="4.8387289382897265"><ele>169.33333333333334</ele><time>2026-04-28T12:42:40Z</time></trkpt><trkpt lat="45.83579979675681" lon="4.838627976004273"><ele>169.16666666666669</ele><time>2026-04-28T12:42:42Z</time></trkpt><trkpt lat="45.83588226118693" lon="4.838548174126723"><ele>169.0</ele><time>2026-04-28T12:42:44Z</time></trkpt><trkpt lat="45.8359920670768" lon="4.838533140198178"><ele>169.79999999999998</ele><time>2026-04-28T12:42:46Z</time></trkpt><trkpt lat="45.83610667277991" lon="4.838496318604268"><ele>170.6</ele><time>2026-04-28T12:42:48Z</time></trkpt><trkpt lat="45.83616325997763" lon="4.8383374513987185"><ele>171.4</ele><time>2026-04-28T12:42:50Z</time></trkpt><trkpt lat="45.83615574202615" lon="4.8382411285497104"><ele>172.2</ele><time>2026-04-28T12:42:51Z</time></trkpt><trkpt lat="45.836160661061676" lon="4.838059414676482"><ele>173.0</ele><time>2026-04-28T12:42:53Z</time></trkpt><trkpt lat="45.836199811064866" lon="4.8379783193231"><ele>173.0</ele><time>2026-04-28T12:42:54Z</time></trkpt><trkpt lat="45.836241948729466" lon="4.837891434798987"><ele>173.0</ele><time>2026-04-28T12:42:55Z</time></trkpt><trkpt lat="45.83628502467977" lon="4.837812771807508"><ele>173.0</ele><time>2026-04-28T12:42:56Z</time></trkpt><trkpt lat="45.83633145048939" lon="4.837736119156935"><ele>173.0</ele><time>2026-04-28T12:42:57Z</time></trkpt><trkpt lat="45.83637862463861" lon="4.837656117377591"><ele>173.0</ele><time>2026-04-28T12:42:58Z</time></trkpt><trkpt lat="45.836428729997" lon="4.837583746206577"><ele>173.0</ele><time>2026-04-28T12:42:59Z</time></trkpt><trkpt lat="45.83647248848474" lon="4.837505698909983"><ele>173.0</ele><time>2026-04-28T12:43:00Z</time></trkpt><trkpt lat="45.83652292937208" lon="4.8374271234225255"><ele>173.0</ele><time>2026-04-28T12:43:01Z</time></trkpt><trkpt lat="45.83657260828772" lon="4.837349651226298"><ele>173.0</ele><time>2026-04-28T12:43:02Z</time></trkpt><trkpt lat="45.836625052271366" lon="4.837280897699034"><ele>173.0</ele><time>2026-04-28T12:43:03Z</time></trkpt><trkpt lat="45.836676218604694" lon="4.837209536288329"><ele>173.0</ele><time>2026-04-28T12:43:04Z</time></trkpt><trkpt lat="45.83672838452395" lon="4.837134364047101"><ele>173.0</ele><time>2026-04-28T12:43:05Z</time></trkpt><trkpt lat="45.83678309048605" lon="4.837065716734927"><ele>173.0</ele><time>2026-04-28T12:43:06Z</time></trkpt><trkpt lat="45.83682726818904" lon="4.836997333375344"><ele>173.0</ele><time>2026-04-28T12:43:07Z</time></trkpt><trkpt lat="45.83687316766214" lon="4.836925213247901"><ele>173.0</ele><time>2026-04-28T12:43:08Z</time></trkpt><trkpt lat="45.83691977514267" lon="4.8368464269416025"><ele>173.0</ele><time>2026-04-28T12:43:09Z</time></trkpt><trkpt lat="45.83696522848333" lon="4.836774090189448"><ele>173.0</ele><time>2026-04-28T12:43:10Z</time></trkpt><trkpt lat="45.83701147497668" lon="4.8367050536512375"><ele>173.0</ele><time>2026-04-28T12:43:11Z</time></trkpt><trkpt lat="45.83705512906569" lon="4.836635429159658"><ele>173.0</ele><time>2026-04-28T12:43:12Z</time></trkpt><trkpt lat="45.83714186106662" lon="4.836505991759355"><ele>173.0</ele><time>2026-04-28T12:43:14Z</time></trkpt><trkpt lat="45.83722570422469" lon="4.836373197062415"><ele>172.42857142857142</ele><time>2026-04-28T12:43:16Z</time></trkpt><trkpt lat="45.837266450208475" lon="4.83630418087539"><ele>171.85714285714286</ele><time>2026-04-28T12:43:17Z</time></trkpt><trkpt lat="45.83731171552739" lon="4.836236226241199"><ele>171.28571428571428</ele><time>2026-04-28T12:43:18Z</time></trkpt><trkpt lat="45.8373547269744" lon="4.83616971684137"><ele>170.71428571428572</ele><time>2026-04-28T12:43:19Z</time></trkpt><trkpt lat="45.83739842121816" lon="4.836101080665983"><ele>170.14285714285714</ele><time>2026-04-28T12:43:20Z</time></trkpt><trkpt lat="45.837442710004446" lon="4.836033282992342"><ele>169.57142857142858</ele><time>2026-04-28T12:43:21Z</time></trkpt><trkpt lat="45.83748636046211" lon="4.835966606959253"><ele>169.0</ele><time>2026-04-28T12:43:22Z</time></trkpt><trkpt lat="45.837531340068296" lon="4.835898963977116"><ele>168.85714285714286</ele><time>2026-04-28T12:43:23Z</time></trkpt><trkpt lat="45.83757882036435" lon="4.835826817069705"><ele>168.71428571428572</ele><time>2026-04-28T12:43:24Z</time></trkpt><trkpt lat="45.837628648552084" lon="4.835760875928554"><ele>168.57142857142856</ele><time>2026-04-28T12:43:25Z</time></trkpt><trkpt lat="45.83767667962762" lon="4.835697936340767"><ele>168.42857142857144</ele><time>2026-04-28T12:43:26Z</time></trkpt><trkpt lat="45.83772468108059" lon="4.835632443262756"><ele>168.28571428571428</ele><time>2026-04-28T12:43:27Z</time></trkpt><trkpt lat="45.83777497733423" lon="4.835561547864223"><ele>168.14285714285714</ele><time>2026-04-28T12:43:28Z</time></trkpt><trkpt lat="45.83782773344539" lon="4.835501107574139"><ele>168.0</ele><time>2026-04-28T12:43:29Z</time></trkpt><trkpt lat="45.83787893937275" lon="4.835437924223913"><ele>168.0</ele><time>2026-04-28T12:43:30Z</time></trkpt><trkpt lat="45.8379289161485" lon="4.835374918260956"><ele>168.0</ele><time>2026-04-28T12:43:31Z</time></trkpt><trkpt lat="45.837984085151184" lon="4.835313923964686"><ele>168.0</ele><time>2026-04-28T12:43:32Z</time></trkpt><trkpt lat="45.83803950771379" lon="4.835255426606204"><ele>168.0</ele><time>2026-04-28T12:43:33Z</time></trkpt><trkpt lat="45.83809685769103" lon="4.835197773894004"><ele>168.0</ele><time>2026-04-28T12:43:34Z</time></trkpt><trkpt lat="45.83815368951379" lon="4.835140224425086"><ele>168.0</ele><time>2026-04-28T12:43:35Z</time></trkpt><trkpt lat="45.8382105846329" lon="4.835081923779623"><ele>168.0</ele><time>2026-04-28T12:43:35.999Z</time></trkpt><trkpt lat="45.83827114735214" lon="4.835027771611941"><ele>168.0</ele><time>2026-04-28T12:43:36.999Z</time></trkpt><trkpt lat="45.838331892618974" lon="4.834972505284509"><ele>168.0</ele><time>2026-04-28T12:43:37.999Z</time></trkpt><trkpt lat="45.83839245549371" lon="4.834915806680434"><ele>168.0</ele><time>2026-04-28T12:43:38.999Z</time></trkpt><trkpt lat="45.83845332622227" lon="4.834862699888988"><ele>168.0</ele><time>2026-04-28T12:43:39.999Z</time></trkpt><trkpt lat="45.838515871312325" lon="4.834809375520434"><ele>168.0</ele><time>2026-04-28T12:43:40.999Z</time></trkpt><trkpt lat="45.83857826199665" lon="4.834756750155178"><ele>168.0</ele><time>2026-04-28T12:43:41.999Z</time></trkpt><trkpt lat="45.838644006841506" lon="4.834707498109108"><ele>168.0</ele><time>2026-04-28T12:43:42.999Z</time></trkpt><trkpt lat="45.83871122617353" lon="4.834657758531451"><ele>168.42857142857142</ele><time>2026-04-28T12:43:43.999Z</time></trkpt><trkpt lat="45.83877667332868" lon="4.834611685143138"><ele>168.85714285714286</ele><time>2026-04-28T12:43:44.999Z</time></trkpt><trkpt lat="45.83883977948496" lon="4.834563534483445"><ele>169.28571428571428</ele><time>2026-04-28T12:43:45.999Z</time></trkpt><trkpt lat="45.83890830632009" lon="4.834519823389507"><ele>169.71428571428572</ele><time>2026-04-28T12:43:46.999Z</time></trkpt><trkpt lat="45.83897402087297" lon="4.834476948791757"><ele>170.14285714285714</ele><time>2026-04-28T12:43:47.999Z</time></trkpt><trkpt lat="45.83904101217551" lon="4.834430147666983"><ele>170.57142857142856</ele><time>2026-04-28T12:43:48.999Z</time></trkpt><trkpt lat="45.839101731867096" lon="4.8343956817698395"><ele>171.0</ele><time>2026-04-28T12:43:49.999Z</time></trkpt><trkpt lat="45.83917721776706" lon="4.834346961503721"><ele>171.0</ele><time>2026-04-28T12:43:50.999Z</time></trkpt><trkpt lat="45.83924699370896" lon="4.834315157210936"><ele>171.0</ele><time>2026-04-28T12:43:51.999Z</time></trkpt><trkpt lat="45.83931921685742" lon="4.834275422694803"><ele>171.0</ele><time>2026-04-28T12:43:52.999Z</time></trkpt><trkpt lat="45.83939148531775" lon="4.834236604941554"><ele>171.0</ele><time>2026-04-28T12:43:53.999Z</time></trkpt><trkpt lat="45.83946064759893" lon="4.834199476558979"><ele>171.0</ele><time>2026-04-28T12:43:54.999Z</time></trkpt><trkpt lat="45.83953454984133" lon="4.834168699936896"><ele>171.0</ele><time>2026-04-28T12:43:55.999Z</time></trkpt><trkpt lat="45.83960722424038" lon="4.834140697542434"><ele>171.0</ele><time>2026-04-28T12:43:56.999Z</time></trkpt><trkpt lat="45.83968341935623" lon="4.834111763675221"><ele>171.0</ele><time>2026-04-28T12:43:57.999Z</time></trkpt><trkpt lat="45.83976033813023" lon="4.83408126075821"><ele>171.0</ele><time>2026-04-28T12:43:58.999Z</time></trkpt><trkpt lat="45.839838014410375" lon="4.834049980824473"><ele>171.0</ele><time>2026-04-28T12:43:59.999Z</time></trkpt><trkpt lat="45.83991251044969" lon="4.834023301273407"><ele>171.0</ele><time>2026-04-28T12:44:00.999Z</time></trkpt><trkpt lat="45.83999058069134" lon="4.834004363528146"><ele>171.0</ele><time>2026-04-28T12:44:01.999Z</time></trkpt><trkpt lat="45.8400713132308" lon="4.833985242517759"><ele>171.0</ele><time>2026-04-28T12:44:02.999Z</time></trkpt><trkpt lat="45.84015233000634" lon="4.833964423151212"><ele>171.0</ele><time>2026-04-28T12:44:03.999Z</time></trkpt><trkpt lat="45.84023225024245" lon="4.833942163486414"><ele>171.0</ele><time>2026-04-28T12:44:04.999Z</time></trkpt><trkpt lat="45.840312369846174" lon="4.833927089914697"><ele>171.0</ele><time>2026-04-28T12:44:05.999Z</time></trkpt><trkpt lat="45.84039015150497" lon="4.833915426979648"><ele>171.0</ele><time>2026-04-28T12:44:06.999Z</time></trkpt><trkpt lat="45.84046903698301" lon="4.833899810572617"><ele>171.0</ele><time>2026-04-28T12:44:07.999Z</time></trkpt><trkpt lat="45.84054831874377" lon="4.83388968855821"><ele>171.0</ele><time>2026-04-28T12:44:08.999Z</time></trkpt><trkpt lat="45.8406326971484" lon="4.833878156987688"><ele>171.0</ele><time>2026-04-28T12:44:09.999Z</time></trkpt><trkpt lat="45.84071006997608" lon="4.833872644276693"><ele>171.0</ele><time>2026-04-28T12:44:10.999Z</time></trkpt><trkpt lat="45.84078906460581" lon="4.83386799916444"><ele>171.0</ele><time>2026-04-28T12:44:11.999Z</time></trkpt><trkpt lat="45.840870334367416" lon="4.8338663256879455"><ele>171.0</ele><time>2026-04-28T12:44:12.999Z</time></trkpt><trkpt lat="45.84095359092133" lon="4.833866055469012"><ele>171.0</ele><time>2026-04-28T12:44:13.999Z</time></trkpt><trkpt lat="45.84103263607412" lon="4.833865164789411"><ele>170.83333333333334</ele><time>2026-04-28T12:44:14.999Z</time></trkpt><trkpt lat="45.84111114898508" lon="4.833863714649803"><ele>170.66666666666666</ele><time>2026-04-28T12:44:15.999Z</time></trkpt><trkpt lat="45.841192872865214" lon="4.833862011874338"><ele>170.5</ele><time>2026-04-28T12:44:16.999Z</time></trkpt><trkpt lat="45.84127181722776" lon="4.833870160816193"><ele>170.33333333333331</ele><time>2026-04-28T12:44:17.999Z</time></trkpt><trkpt lat="45.8413491865006" lon="4.833876241824582"><ele>170.16666666666666</ele><time>2026-04-28T12:44:18.999Z</time></trkpt><trkpt lat="45.84142653861182" lon="4.8338856405731185"><ele>170.0</ele><time>2026-04-28T12:44:19.999Z</time></trkpt><trkpt lat="45.84149779110443" lon="4.833894223276868"><ele>170.0</ele><time>2026-04-28T12:44:20.999Z</time></trkpt><trkpt lat="45.84157852567623" lon="4.833902142966547"><ele>170.0</ele><time>2026-04-28T12:44:22Z</time></trkpt><trkpt lat="45.84165541892144" lon="4.833915183218984"><ele>170.0</ele><time>2026-04-28T12:44:23Z</time></trkpt><trkpt lat="45.84172604291696" lon="4.833932944813621"><ele>170.0</ele><time>2026-04-28T12:44:24Z</time></trkpt><trkpt lat="45.84179806102079" lon="4.833942753634803"><ele>170.0</ele><time>2026-04-28T12:44:25Z</time></trkpt><trkpt lat="45.84187567557493" lon="4.833959857704346"><ele>170.0</ele><time>2026-04-28T12:44:26Z</time></trkpt><trkpt lat="45.841945322704824" lon="4.833981758855916"><ele>170.14285714285714</ele><time>2026-04-28T12:44:27Z</time></trkpt><trkpt lat="45.84201733052849" lon="4.8340038997860235"><ele>170.28571428571428</ele><time>2026-04-28T12:44:28Z</time></trkpt><trkpt lat="45.842083470962606" lon="4.834028632598981"><ele>170.42857142857142</ele><time>2026-04-28T12:44:29Z</time></trkpt><trkpt lat="45.84214775627518" lon="4.834051371456"><ele>170.57142857142856</ele><time>2026-04-28T12:44:30Z</time></trkpt><trkpt lat="45.84221973061319" lon="4.834077708975948"><ele>170.71428571428572</ele><time>2026-04-28T12:44:31Z</time></trkpt><trkpt lat="45.842287665787254" lon="4.8341060238358535"><ele>170.85714285714283</ele><time>2026-04-28T12:44:32Z</time></trkpt><trkpt lat="45.842360473945455" lon="4.834132492591161"><ele>171.0</ele><time>2026-04-28T12:44:33Z</time></trkpt><trkpt lat="45.84242955152909" lon="4.834162867776217"><ele>170.99999999999997</ele><time>2026-04-28T12:44:34Z</time></trkpt><trkpt lat="45.84249488270871" lon="4.83419489502674"><ele>171.0</ele><time>2026-04-28T12:44:35Z</time></trkpt><trkpt lat="45.84255657593336" lon="4.834218348740686"><ele>171.0</ele><time>2026-04-28T12:44:36Z</time></trkpt><trkpt lat="45.8426257129466" lon="4.834247562455601"><ele>171.0</ele><time>2026-04-28T12:44:37Z</time></trkpt><trkpt lat="45.84268816780709" lon="4.834276008473452"><ele>171.0</ele><time>2026-04-28T12:44:38Z</time></trkpt><trkpt lat="45.84275363290597" lon="4.834302649933541"><ele>170.99999999999997</ele><time>2026-04-28T12:44:39Z</time></trkpt><trkpt lat="45.842822011279296" lon="4.834330263860124"><ele>171.0</ele><time>2026-04-28T12:44:40Z</time></trkpt><trkpt lat="45.84288959908904" lon="4.8343579667502"><ele>171.28571428571428</ele><time>2026-04-28T12:44:41Z</time></trkpt><trkpt lat="45.842954114639355" lon="4.834391247366567"><ele>171.57142857142856</ele><time>2026-04-28T12:44:42Z</time></trkpt><trkpt lat="45.84301786103173" lon="4.834420718793162"><ele>171.85714285714283</ele><time>2026-04-28T12:44:43Z</time></trkpt><trkpt lat="45.84308060475205" lon="4.834448360525728"><ele>172.14285714285714</ele><time>2026-04-28T12:44:44Z</time></trkpt><trkpt lat="45.84314575370648" lon="4.834476940487075"><ele>172.42857142857144</ele><time>2026-04-28T12:44:45Z</time></trkpt><trkpt lat="45.843213334791514" lon="4.8345047708931475"><ele>172.7142857142857</ele><time>2026-04-28T12:44:46Z</time></trkpt><trkpt lat="45.843277036717275" lon="4.834531844715464"><ele>173.0</ele><time>2026-04-28T12:44:47Z</time></trkpt><trkpt lat="45.84334065426863" lon="4.83455950339014"><ele>173.0</ele><time>2026-04-28T12:44:48Z</time></trkpt><trkpt lat="45.843404538979826" lon="4.834589022564525"><ele>173.0</ele><time>2026-04-28T12:44:49Z</time></trkpt><trkpt lat="45.84346961255563" lon="4.834620460125895"><ele>173.0</ele><time>2026-04-28T12:44:50Z</time></trkpt><trkpt lat="45.843536117798" lon="4.834649802763874"><ele>173.0</ele><time>2026-04-28T12:44:51Z</time></trkpt><trkpt lat="45.843602444031546" lon="4.834679232085207"><ele>173.0</ele><time>2026-04-28T12:44:52Z</time></trkpt><trkpt lat="45.84366808269176" lon="4.834706862023862"><ele>173.0</ele><time>2026-04-28T12:44:53Z</time></trkpt><trkpt lat="45.843731708047656" lon="4.834732983331058"><ele>173.0</ele><time>2026-04-28T12:44:54Z</time></trkpt><trkpt lat="45.84379333004338" lon="4.834756531216012"><ele>172.83333333333331</ele><time>2026-04-28T12:44:55Z</time></trkpt><trkpt lat="45.843876462626966" lon="4.834839189003355"><ele>172.66666666666666</ele><time>2026-04-28T12:44:57Z</time></trkpt><trkpt lat="45.84388218081736" lon="4.834972871107201"><ele>172.5</ele><time>2026-04-28T12:44:59Z</time></trkpt><trkpt lat="45.84393599750126" lon="4.835037091330446"><ele>172.33333333333334</ele><time>2026-04-28T12:45:02Z</time></trkpt><trkpt lat="45.844023453756755" lon="4.835024329166077"><ele>172.16666666666669</ele><time>2026-04-28T12:45:04Z</time></trkpt><trkpt lat="45.84411308474712" lon="4.835058363504965"><ele>172.0</ele><time>2026-04-28T12:45:06Z</time></trkpt><trkpt lat="45.84419441361099" lon="4.835067594402493"><ele>172.0</ele><time>2026-04-28T12:45:08Z</time></trkpt><trkpt lat="45.84427735054707" lon="4.8350883977581525"><ele>172.0</ele><time>2026-04-28T12:45:10Z</time></trkpt><trkpt lat="45.84436965402594" lon="4.8351067743290885"><ele>172.0</ele><time>2026-04-28T12:45:12Z</time></trkpt><trkpt lat="45.84446168344171" lon="4.835117252662169"><ele>172.0</ele><time>2026-04-28T12:45:14Z</time></trkpt><trkpt lat="45.84454654050133" lon="4.835129220744316"><ele>172.0</ele><time>2026-04-28T12:45:16Z</time></trkpt><trkpt lat="45.8446373212659" lon="4.8351429108022606"><ele>180.0</ele><time>2026-04-28T12:45:19Z</time></trkpt></trkseg><trkseg><trkpt lat="45.89681533808375" lon="4.806809172766337"><ele>169.0</ele><time>2026-04-28T13:10:25.999Z</time></trkpt><trkpt lat="45.89690814908652" lon="4.806806670180842"><ele>169.0</ele><time>2026-04-28T13:15:25Z</time></trkpt><trkpt lat="45.89699761211336" lon="4.806750064494925"><ele>169.0</ele><time>2026-04-28T13:15:28Z</time></trkpt><trkpt lat="45.89709707696543" lon="4.806709041026241"><ele>169.0</ele><time>2026-04-28T13:15:30Z</time></trkpt><trkpt lat="45.89715997933724" lon="4.806665354059766"><ele>169.0</ele><time>2026-04-28T13:15:31Z</time></trkpt><trkpt lat="45.89722232254594" lon="4.806623343806071"><ele>169.0</ele><time>2026-04-28T13:15:32Z</time></trkpt><trkpt lat="45.89728398369307" lon="4.806583341130431"><ele>169.0</ele><time>2026-04-28T13:15:33Z</time></trkpt><trkpt lat="45.8973475825531" lon="4.806535949104642"><ele>169.0</ele><time>2026-04-28T13:15:34Z</time></trkpt><trkpt lat="45.897409896661166" lon="4.80648954404575"><ele>169.0</ele><time>2026-04-28T13:15:35Z</time></trkpt><trkpt lat="45.89746862682038" lon="4.8064357076984345"><ele>169.0</ele><time>2026-04-28T13:15:36Z</time></trkpt><trkpt lat="45.89752590188224" lon="4.806383193270238"><ele>169.0</ele><time>2026-04-28T13:15:37Z</time></trkpt><trkpt lat="45.897581428067795" lon="4.806324346239726"><ele>169.0</ele><time>2026-04-28T13:15:38Z</time></trkpt><trkpt lat="45.89764122620325" lon="4.806271537043892"><ele>169.0</ele><time>2026-04-28T13:15:39Z</time></trkpt><trkpt lat="45.897702188407166" lon="4.806217676537627"><ele>169.14285714285714</ele><time>2026-04-28T13:15:40Z</time></trkpt><trkpt lat="45.89776527528163" lon="4.80617114974974"><ele>169.28571428571428</ele><time>2026-04-28T13:15:41Z</time></trkpt><trkpt lat="45.89782754510344" lon="4.80612564300268"><ele>169.42857142857144</ele><time>2026-04-28T13:15:42Z</time></trkpt><trkpt lat="45.89788724795042" lon="4.806074538619118"><ele>169.57142857142856</ele><time>2026-04-28T13:15:43Z</time></trkpt><trkpt lat="45.897944858502484" lon="4.806021533986915"><ele>169.7142857142857</ele><time>2026-04-28T13:15:44Z</time></trkpt><trkpt lat="45.89800406163469" lon="4.805976653853777"><ele>169.85714285714286</ele><time>2026-04-28T13:15:45Z</time></trkpt><trkpt lat="45.8980638117469" lon="4.8059231218327065"><ele>170.0</ele><time>2026-04-28T13:15:46Z</time></trkpt><trkpt lat="45.89812034588641" lon="4.805866801572511"><ele>169.83333333333331</ele><time>2026-04-28T13:15:47Z</time></trkpt><trkpt lat="45.89818233946503" lon="4.805822722988494"><ele>169.66666666666666</ele><time>2026-04-28T13:15:48Z</time></trkpt><trkpt lat="45.89824434554679" lon="4.805787859185591"><ele>169.5</ele><time>2026-04-28T13:15:49Z</time></trkpt><trkpt lat="45.89830963796384" lon="4.8057470401306315"><ele>169.33333333333334</ele><time>2026-04-28T13:15:50Z</time></trkpt><trkpt lat="45.89837410906178" lon="4.805684345062154"><ele>169.16666666666669</ele><time>2026-04-28T13:15:51Z</time></trkpt><trkpt lat="45.89849751615221" lon="4.805618030664149"><ele>169.0</ele><time>2026-04-28T13:15:53Z</time></trkpt><trkpt lat="45.898558155634085" lon="4.805581272651889"><ele>169.0</ele><time>2026-04-28T13:15:54Z</time></trkpt><trkpt lat="45.89862277982152" lon="4.8055514949681815"><ele>169.0</ele><time>2026-04-28T13:15:55Z</time></trkpt><trkpt lat="45.89868475078879" lon="4.8055187087208155"><ele>169.0</ele><time>2026-04-28T13:15:56Z</time></trkpt><trkpt lat="45.89875397828772" lon="4.805489747851721"><ele>169.0</ele><time>2026-04-28T13:15:57Z</time></trkpt><trkpt lat="45.89881585197019" lon="4.8054549020889405"><ele>169.0</ele><time>2026-04-28T13:15:58Z</time></trkpt><trkpt lat="45.89893978111095" lon="4.805384058138144"><ele>169.0</ele><time>2026-04-28T13:16:00Z</time></trkpt><trkpt lat="45.898998172039555" lon="4.805345121184372"><ele>169.0</ele><time>2026-04-28T13:16:01Z</time></trkpt><trkpt lat="45.89905563583125" lon="4.805302678877383"><ele>169.0</ele><time>2026-04-28T13:16:02Z</time></trkpt><trkpt lat="45.89912053236287" lon="4.805257622565785"><ele>169.0</ele><time>2026-04-28T13:16:03Z</time></trkpt><trkpt lat="45.899178505592396" lon="4.805217617680732"><ele>169.0</ele><time>2026-04-28T13:16:04Z</time></trkpt><trkpt lat="45.89923999653683" lon="4.805180102010471"><ele>169.0</ele><time>2026-04-28T13:16:05Z</time></trkpt><trkpt lat="45.899306709006474" lon="4.80514418906573"><ele>169.0</ele><time>2026-04-28T13:16:06Z</time></trkpt><trkpt lat="45.89937673635756" lon="4.805127790512713"><ele>169.0</ele><time>2026-04-28T13:16:07Z</time></trkpt><trkpt lat="45.89944158913343" lon="4.805114258535652"><ele>169.0</ele><time>2026-04-28T13:16:08Z</time></trkpt><trkpt lat="45.89951092592463" lon="4.805100431466652"><ele>169.0</ele><time>2026-04-28T13:16:09Z</time></trkpt><trkpt lat="45.89957626655194" lon="4.805088828054715"><ele>169.0</ele><time>2026-04-28T13:16:10Z</time></trkpt><trkpt lat="45.89964480761317" lon="4.805080862270821"><ele>169.0</ele><time>2026-04-28T13:16:11Z</time></trkpt><trkpt lat="45.899715484352306" lon="4.805078641602455"><ele>169.0</ele><time>2026-04-28T13:16:12Z</time></trkpt><trkpt lat="45.89985080909749" lon="4.805067445240259"><ele>169.0</ele><time>2026-04-28T13:16:14Z</time></trkpt><trkpt lat="45.89992060518296" lon="4.805073136546156"><ele>169.0</ele><time>2026-04-28T13:16:15Z</time></trkpt><trkpt lat="45.899992020369936" lon="4.805073418068983"><ele>169.0</ele><time>2026-04-28T13:16:16Z</time></trkpt><trkpt lat="45.900060314137775" lon="4.805071819920378"><ele>169.0</ele><time>2026-04-28T13:16:17Z</time></trkpt><trkpt lat="45.90012705922975" lon="4.805077279595956"><ele>169.0</ele><time>2026-04-28T13:16:18Z</time></trkpt><trkpt lat="45.900193464709815" lon="4.805084114518499"><ele>169.0</ele><time>2026-04-28T13:16:19Z</time></trkpt><trkpt lat="45.90025941456343" lon="4.805093385909322"><ele>169.0</ele><time>2026-04-28T13:16:20Z</time></trkpt><trkpt lat="45.90033021652692" lon="4.805096330042187"><ele>169.0</ele><time>2026-04-28T13:16:21Z</time></trkpt><trkpt lat="45.900393216536685" lon="4.8051046489732165"><ele>168.71428571428572</ele><time>2026-04-28T13:16:22Z</time></trkpt><trkpt lat="45.9004593382692" lon="4.805112792767661"><ele>168.42857142857142</ele><time>2026-04-28T13:16:23Z</time></trkpt><trkpt lat="45.90052772615528" lon="4.805116221817572"><ele>168.14285714285714</ele><time>2026-04-28T13:16:24Z</time></trkpt><trkpt lat="45.900596041865064" lon="4.805123835480373"><ele>167.85714285714286</ele><time>2026-04-28T13:16:25Z</time></trkpt><trkpt lat="45.90066707514843" lon="4.8051386263469"><ele>167.57142857142858</ele><time>2026-04-28T13:16:26Z</time></trkpt><trkpt lat="45.90073481505844" lon="4.805140746157257"><ele>167.28571428571428</ele><time>2026-04-28T13:16:27Z</time></trkpt><trkpt lat="45.90080264174678" lon="4.805138485843634"><ele>167.0</ele><time>2026-04-28T13:16:28Z</time></trkpt><trkpt lat="45.90086928127454" lon="4.80515329072957"><ele>167.66666666666666</ele><time>2026-04-28T13:16:29Z</time></trkpt><trkpt lat="45.90093456043895" lon="4.805169681098934"><ele>168.33333333333331</ele><time>2026-04-28T13:16:30Z</time></trkpt><trkpt lat="45.90100074785467" lon="4.80518815673915"><ele>169.0</ele><time>2026-04-28T13:16:31Z</time></trkpt><trkpt lat="45.90106691576184" lon="4.805209834970903"><ele>169.66666666666666</ele><time>2026-04-28T13:16:32Z</time></trkpt><trkpt lat="45.90113596134607" lon="4.80523003134682"><ele>170.33333333333334</ele><time>2026-04-28T13:16:33Z</time></trkpt><trkpt lat="45.90120056801501" lon="4.805238785207752"><ele>171.0</ele><time>2026-04-28T13:16:34Z</time></trkpt><trkpt lat="45.901328539113884" lon="4.8052538204904724"><ele>170.99999999999997</ele><time>2026-04-28T13:16:36Z</time></trkpt><trkpt lat="45.90139025305814" lon="4.805281069853372"><ele>171.0</ele><time>2026-04-28T13:16:37Z</time></trkpt><trkpt lat="45.90145655103664" lon="4.805303905447251"><ele>171.0</ele><time>2026-04-28T13:16:38Z</time></trkpt><trkpt lat="45.90152279259641" lon="4.805334659949353"><ele>171.0</ele><time>2026-04-28T13:16:39Z</time></trkpt><trkpt lat="45.90159137998385" lon="4.805352829515072"><ele>171.0</ele><time>2026-04-28T13:16:40Z</time></trkpt><trkpt lat="45.901654588840216" lon="4.805377557275102"><ele>170.99999999999997</ele><time>2026-04-28T13:16:41Z</time></trkpt><trkpt lat="45.90171347674988" lon="4.805412399525623"><ele>171.0</ele><time>2026-04-28T13:16:42Z</time></trkpt><trkpt lat="45.90177913757255" lon="4.805436180451856"><ele>170.5</ele><time>2026-04-28T13:16:43Z</time></trkpt><trkpt lat="45.90189553323549" lon="4.805495071785307"><ele>170.0</ele><time>2026-04-28T13:16:45Z</time></trkpt><trkpt lat="45.901956273603055" lon="4.805527930431253"><ele>169.5</ele><time>2026-04-28T13:16:46Z</time></trkpt><trkpt lat="45.90201779591857" lon="4.805563443264175"><ele>169.0</ele><time>2026-04-28T13:16:47Z</time></trkpt><trkpt lat="45.902075154928184" lon="4.805600837129254"><ele>168.5</ele><time>2026-04-28T13:16:48Z</time></trkpt><trkpt lat="45.902189622628825" lon="4.805681953235233"><ele>168.0</ele><time>2026-04-28T13:16:50Z</time></trkpt><trkpt lat="45.90230628428682" lon="4.805766340464722"><ele>168.0</ele><time>2026-04-28T13:16:52Z</time></trkpt><trkpt lat="45.902419948449776" lon="4.805851315203584"><ele>168.0</ele><time>2026-04-28T13:16:54Z</time></trkpt><trkpt lat="45.902477496588254" lon="4.8058974272807795"><ele>168.0</ele><time>2026-04-28T13:16:55Z</time></trkpt><trkpt lat="45.90253932519754" lon="4.8059458430837685"><ele>168.0</ele><time>2026-04-28T13:16:56Z</time></trkpt><trkpt lat="45.9026001052043" lon="4.805994387722912"><ele>168.0</ele><time>2026-04-28T13:16:57Z</time></trkpt><trkpt lat="45.90265758283983" lon="4.806034279498698"><ele>168.0</ele><time>2026-04-28T13:16:58Z</time></trkpt><trkpt lat="45.902722202875424" lon="4.8060839450595"><ele>168.0</ele><time>2026-04-28T13:16:59Z</time></trkpt><trkpt lat="45.90278317737722" lon="4.806130545635927"><ele>168.0</ele><time>2026-04-28T13:17:00Z</time></trkpt><trkpt lat="45.90284020949863" lon="4.806174154173472"><ele>168.0</ele><time>2026-04-28T13:17:01Z</time></trkpt><trkpt lat="45.90289600460838" lon="4.806216121454081"><ele>168.0</ele><time>2026-04-28T13:17:02Z</time></trkpt><trkpt lat="45.902954538690565" lon="4.8062706804003295"><ele>168.0</ele><time>2026-04-28T13:17:03Z</time></trkpt><trkpt lat="45.903010934876065" lon="4.8063260524472575"><ele>168.0</ele><time>2026-04-28T13:17:04Z</time></trkpt><trkpt lat="45.903065511637664" lon="4.80638307313133"><ele>168.0</ele><time>2026-04-28T13:17:05Z</time></trkpt><trkpt lat="45.90311942991881" lon="4.806440014097127"><ele>168.0</ele><time>2026-04-28T13:17:06Z</time></trkpt><trkpt lat="45.90317093690726" lon="4.80649705485556"><ele>168.0</ele><time>2026-04-28T13:17:07Z</time></trkpt><trkpt lat="45.90322219585856" lon="4.8065552097027195"><ele>168.0</ele><time>2026-04-28T13:17:08Z</time></trkpt><trkpt lat="45.90327223188605" lon="4.806618337174333"><ele>168.0</ele><time>2026-04-28T13:17:09Z</time></trkpt><trkpt lat="45.90332623960876" lon="4.8066719114789"><ele>168.0</ele><time>2026-04-28T13:17:10Z</time></trkpt><trkpt lat="45.90342591445258" lon="4.806778726197462"><ele>168.0</ele><time>2026-04-28T13:17:12.001Z</time></trkpt><trkpt lat="45.90351374194348" lon="4.806886648306282"><ele>167.83333333333334</ele><time>2026-04-28T13:17:14.001Z</time></trkpt><trkpt lat="45.9036264357138" lon="4.8070062338655575"><ele>167.66666666666666</ele><time>2026-04-28T13:17:16.001Z</time></trkpt><trkpt lat="45.90367148106277" lon="4.807091503349274"><ele>167.5</ele><time>2026-04-28T13:17:17.001Z</time></trkpt><trkpt lat="45.90371334346535" lon="4.807162348217529"><ele>167.33333333333331</ele><time>2026-04-28T13:17:18.001Z</time></trkpt><trkpt lat="45.90375534050511" lon="4.807237584459645"><ele>167.16666666666666</ele><time>2026-04-28T13:17:19.001Z</time></trkpt><trkpt lat="45.90380162989124" lon="4.807319024214168"><ele>167.0</ele><time>2026-04-28T13:17:20.001Z</time></trkpt><trkpt lat="45.90384777803375" lon="4.807391513672535"><ele>167.0</ele><time>2026-04-28T13:17:21.001Z</time></trkpt><trkpt lat="45.903897294587026" lon="4.807468354856216"><ele>167.0</ele><time>2026-04-28T13:17:22.001Z</time></trkpt><trkpt lat="45.90394267081861" lon="4.80754302484523"><ele>167.0</ele><time>2026-04-28T13:17:23.001Z</time></trkpt><trkpt lat="45.903993123873825" lon="4.807618275629679"><ele>167.0</ele><time>2026-04-28T13:17:24.001Z</time></trkpt><trkpt lat="45.904040175716425" lon="4.807690971155508"><ele>167.0</ele><time>2026-04-28T13:17:25.001Z</time></trkpt><trkpt lat="45.904093848211396" lon="4.807769607118062"><ele>167.0</ele><time>2026-04-28T13:17:26.001Z</time></trkpt><trkpt lat="45.90413957834402" lon="4.8078503243150665"><ele>167.0</ele><time>2026-04-28T13:17:27.001Z</time></trkpt><trkpt lat="45.90418604437704" lon="4.807928750049157"><ele>167.0</ele><time>2026-04-28T13:17:28.001Z</time></trkpt><trkpt lat="45.9042265436553" lon="4.808007984282404"><ele>167.0</ele><time>2026-04-28T13:17:29.001Z</time></trkpt><trkpt lat="45.90426013094326" lon="4.808105116693142"><ele>167.0</ele><time>2026-04-28T13:17:30.001Z</time></trkpt><trkpt lat="45.904300995185366" lon="4.808182865525625"><ele>167.0</ele><time>2026-04-28T13:17:31.001Z</time></trkpt><trkpt lat="45.90433996262185" lon="4.808257734342382"><ele>167.0</ele><time>2026-04-28T13:17:32.001Z</time></trkpt><trkpt lat="45.90437925807882" lon="4.80833318754511"><ele>167.0</ele><time>2026-04-28T13:17:33.001Z</time></trkpt><trkpt lat="45.9044363889991" lon="4.808410598473654"><ele>167.0</ele><time>2026-04-28T13:17:34.001Z</time></trkpt><trkpt lat="45.904484973440596" lon="4.808493058145004"><ele>167.39999999999998</ele><time>2026-04-28T13:17:35.001Z</time></trkpt><trkpt lat="45.90454263386332" lon="4.808655851986503"><ele>167.79999999999998</ele><time>2026-04-28T13:17:37.001Z</time></trkpt><trkpt lat="45.90460389287395" lon="4.808764279004555"><ele>168.2</ele><time>2026-04-28T13:17:38.001Z</time></trkpt><trkpt lat="45.90464882517635" lon="4.808854638320049"><ele>168.6</ele><time>2026-04-28T13:17:39.001Z</time></trkpt><trkpt lat="45.90469832463671" lon="4.80894801284412"><ele>169.0</ele><time>2026-04-28T13:17:40.001Z</time></trkpt><trkpt lat="45.90475269659818" lon="4.8091180494214845"><ele>169.0</ele><time>2026-04-28T13:17:42.001Z</time></trkpt><trkpt lat="45.90479591303277" lon="4.809202107448574"><ele>169.0</ele><time>2026-04-28T13:17:43.001Z</time></trkpt><trkpt lat="45.904840155669774" lon="4.809282845010585"><ele>169.0</ele><time>2026-04-28T13:17:44.001Z</time></trkpt><trkpt lat="45.904890027236654" lon="4.809355037591803"><ele>169.0</ele><time>2026-04-28T13:17:45.001Z</time></trkpt><trkpt lat="45.90494147352171" lon="4.809421263250732"><ele>169.0</ele><time>2026-04-28T13:17:46.001Z</time></trkpt><trkpt lat="45.9049994560359" lon="4.809492574181858"><ele>169.0</ele><time>2026-04-28T13:17:47.001Z</time></trkpt><trkpt lat="45.9050524406111" lon="4.809563949545304"><ele>169.0</ele><time>2026-04-28T13:17:48.001Z</time></trkpt><trkpt lat="45.90510353876408" lon="4.809638837450197"><ele>168.71428571428572</ele><time>2026-04-28T13:17:49.001Z</time></trkpt><trkpt lat="45.905160365021075" lon="4.809710488104471"><ele>168.42857142857142</ele><time>2026-04-28T13:17:50.001Z</time></trkpt><trkpt lat="45.905213858763574" lon="4.809767245824828"><ele>168.14285714285714</ele><time>2026-04-28T13:17:51.001Z</time></trkpt><trkpt lat="45.90527301840344" lon="4.809822803112315"><ele>167.85714285714286</ele><time>2026-04-28T13:17:52.001Z</time></trkpt><trkpt lat="45.90533026721775" lon="4.8098821868752495"><ele>167.57142857142858</ele><time>2026-04-28T13:17:53.001Z</time></trkpt><trkpt lat="45.90538811272365" lon="4.809945308749162"><ele>167.28571428571428</ele><time>2026-04-28T13:17:54.001Z</time></trkpt><trkpt lat="45.90544440580384" lon="4.810011567987424"><ele>167.0</ele><time>2026-04-28T13:17:55.001Z</time></trkpt><trkpt lat="45.90549490068552" lon="4.810081337432393"><ele>167.0</ele><time>2026-04-28T13:17:56.001Z</time></trkpt><trkpt lat="45.90554097838773" lon="4.810151164732386"><ele>167.0</ele><time>2026-04-28T13:17:57.001Z</time></trkpt><trkpt lat="45.90559029989621" lon="4.810222722265556"><ele>167.0</ele><time>2026-04-28T13:17:58.001Z</time></trkpt><trkpt lat="45.90563966124338" lon="4.81028712144415"><ele>167.0</ele><time>2026-04-28T13:17:59.001Z</time></trkpt><trkpt lat="45.90569176771865" lon="4.8103445279862935"><ele>167.0</ele><time>2026-04-28T13:18:00.001Z</time></trkpt><trkpt lat="45.905747066241844" lon="4.810397978847268"><ele>167.0</ele><time>2026-04-28T13:18:01.001Z</time></trkpt><trkpt lat="45.905800441543285" lon="4.810448234077061"><ele>167.0</ele><time>2026-04-28T13:18:02.001Z</time></trkpt><trkpt lat="45.905897849620004" lon="4.810559190155968"><ele>167.0</ele><time>2026-04-28T13:18:04.001Z</time></trkpt><trkpt lat="45.90600120433252" lon="4.810671915390904"><ele>167.0</ele><time>2026-04-28T13:18:06.001Z</time></trkpt><trkpt lat="45.90605492503054" lon="4.810728378072804"><ele>167.0</ele><time>2026-04-28T13:18:07.001Z</time></trkpt><trkpt lat="45.9061092087067" lon="4.810778014325557"><ele>167.0</ele><time>2026-04-28T13:18:08.001Z</time></trkpt><trkpt lat="45.906163331210045" lon="4.810830631462379"><ele>167.0</ele><time>2026-04-28T13:18:09.001Z</time></trkpt><trkpt lat="45.906212547738" lon="4.810891736264814"><ele>167.0</ele><time>2026-04-28T13:18:10.001Z</time></trkpt><trkpt lat="45.90626341520647" lon="4.810953906658001"><ele>167.28571428571428</ele><time>2026-04-28T13:18:11.001Z</time></trkpt><trkpt lat="45.90631550751572" lon="4.811015892971514"><ele>167.57142857142858</ele><time>2026-04-28T13:18:12.001Z</time></trkpt><trkpt lat="45.90636930860627" lon="4.811069104304208"><ele>167.85714285714286</ele><time>2026-04-28T13:18:13.001Z</time></trkpt><trkpt lat="45.906425476623234" lon="4.811122027423098"><ele>168.14285714285714</ele><time>2026-04-28T13:18:14.001Z</time></trkpt><trkpt lat="45.90648233970491" lon="4.811168872285888"><ele>168.42857142857142</ele><time>2026-04-28T13:18:15.001Z</time></trkpt><trkpt lat="45.90653648550592" lon="4.811215301583493"><ele>168.71428571428572</ele><time>2026-04-28T13:18:16.001Z</time></trkpt><trkpt lat="45.90659297929206" lon="4.81126758602268"><ele>169.0</ele><time>2026-04-28T13:18:17.001Z</time></trkpt><trkpt lat="45.906647769889226" lon="4.8113130179283"><ele>169.0</ele><time>2026-04-28T13:18:18.001Z</time></trkpt><trkpt lat="45.90670591639967" lon="4.811362166852998"><ele>169.0</ele><time>2026-04-28T13:18:19.001Z</time></trkpt><trkpt lat="45.90676252824909" lon="4.81140478295517"><ele>169.0</ele><time>2026-04-28T13:18:20.001Z</time></trkpt><trkpt lat="45.90682532980289" lon="4.8114393894060274"><ele>169.0</ele><time>2026-04-28T13:18:21.001Z</time></trkpt><trkpt lat="45.906886015530326" lon="4.811476585620505"><ele>169.0</ele><time>2026-04-28T13:18:22.001Z</time></trkpt><trkpt lat="45.90695104815993" lon="4.81151478862159"><ele>169.0</ele><time>2026-04-28T13:18:23.001Z</time></trkpt><trkpt lat="45.90700944589903" lon="4.8115537071076915"><ele>169.0</ele><time>2026-04-28T13:18:24.001Z</time></trkpt><trkpt lat="45.90706877458985" lon="4.811591671474115"><ele>169.0</ele><time>2026-04-28T13:18:25.001Z</time></trkpt><trkpt lat="45.90713366727608" lon="4.811627940691856"><ele>169.0</ele><time>2026-04-28T13:18:26.001Z</time></trkpt><trkpt lat="45.907197733960864" lon="4.811662532637807"><ele>169.0</ele><time>2026-04-28T13:18:27.001Z</time></trkpt><trkpt lat="45.90726304383055" lon="4.811694327203733"><ele>169.0</ele><time>2026-04-28T13:18:28.001Z</time></trkpt><trkpt lat="45.90732729226177" lon="4.811720276367143"><ele>169.0</ele><time>2026-04-28T13:18:29.001Z</time></trkpt><trkpt lat="45.907397279584934" lon="4.811741620155746"><ele>169.0</ele><time>2026-04-28T13:18:30.001Z</time></trkpt><trkpt lat="45.907465686167576" lon="4.811765273113725"><ele>169.0</ele><time>2026-04-28T13:18:31.001Z</time></trkpt><trkpt lat="45.90753508168191" lon="4.811799455809924"><ele>169.0</ele><time>2026-04-28T13:18:32.001Z</time></trkpt><trkpt lat="45.90759626222585" lon="4.8118359614940385"><ele>169.0</ele><time>2026-04-28T13:18:33.001Z</time></trkpt><trkpt lat="45.907662210750175" lon="4.811861492241705"><ele>169.0</ele><time>2026-04-28T13:18:34.001Z</time></trkpt><trkpt lat="45.907730493965936" lon="4.8118841582609395"><ele>169.0</ele><time>2026-04-28T13:18:35.001Z</time></trkpt><trkpt lat="45.90779996540257" lon="4.811904600680382"><ele>169.0</ele><time>2026-04-28T13:18:36.001Z</time></trkpt><trkpt lat="45.90786817001246" lon="4.811928109370113"><ele>169.0</ele><time>2026-04-28T13:18:37.001Z</time></trkpt><trkpt lat="45.90793692199993" lon="4.811951349334562"><ele>169.0</ele><time>2026-04-28T13:18:38.001Z</time></trkpt><trkpt lat="45.90800589410265" lon="4.811976946716166"><ele>169.0</ele><time>2026-04-28T13:18:39.001Z</time></trkpt><trkpt lat="45.908071284341034" lon="4.811996657962369"><ele>169.0</ele><time>2026-04-28T13:18:40.001Z</time></trkpt><trkpt lat="45.90813776095436" lon="4.812005769322323"><ele>169.0</ele><time>2026-04-28T13:18:41.001Z</time></trkpt><trkpt lat="45.908273789918404" lon="4.812048692202507"><ele>169.0</ele><time>2026-04-28T13:18:43.001Z</time></trkpt><trkpt lat="45.90833887868373" lon="4.812071579822549"><ele>169.0</ele><time>2026-04-28T13:18:44.001Z</time></trkpt><trkpt lat="45.90840523070699" lon="4.81209111318371"><ele>169.0</ele><time>2026-04-28T13:18:45.001Z</time></trkpt><trkpt lat="45.90847478052277" lon="4.812109232600452"><ele>169.0</ele><time>2026-04-28T13:18:46.001Z</time></trkpt><trkpt lat="45.90854180197604" lon="4.8121298525938805"><ele>169.0</ele><time>2026-04-28T13:18:47.001Z</time></trkpt><trkpt lat="45.90860909081347" lon="4.812152519543069"><ele>169.0</ele><time>2026-04-28T13:18:48.001Z</time></trkpt><trkpt lat="45.90867672041517" lon="4.812176645821351"><ele>169.0</ele><time>2026-04-28T13:18:49.001Z</time></trkpt><trkpt lat="45.9087420950405" lon="4.812193880588485"><ele>169.0</ele><time>2026-04-28T13:18:50.001Z</time></trkpt><trkpt lat="45.90881102341837" lon="4.812213406845899"><ele>169.0</ele><time>2026-04-28T13:18:51.001Z</time></trkpt><trkpt lat="45.908879466120105" lon="4.812232558695747"><ele>169.0</ele><time>2026-04-28T13:18:52.001Z</time></trkpt><trkpt lat="45.909004895395384" lon="4.812265067254095"><ele>169.0</ele><time>2026-04-28T13:18:54.001Z</time></trkpt><trkpt lat="45.90906790712015" lon="4.8122778904231405"><ele>169.0</ele><time>2026-04-28T13:18:55.001Z</time></trkpt><trkpt lat="45.90913319999953" lon="4.812293817928912"><ele>169.0</ele><time>2026-04-28T13:18:56.001Z</time></trkpt><trkpt lat="45.909203934355915" lon="4.812315386557806"><ele>169.0</ele><time>2026-04-28T13:18:57.001Z</time></trkpt><trkpt lat="45.90927167055426" lon="4.812330859815668"><ele>169.0</ele><time>2026-04-28T13:18:58.001Z</time></trkpt><trkpt lat="45.9093407284113" lon="4.812347262473502"><ele>169.0</ele><time>2026-04-28T13:18:59.001Z</time></trkpt><trkpt lat="45.9094050565183" lon="4.812361184067464"><ele>169.0</ele><time>2026-04-28T13:19:00.001Z</time></trkpt><trkpt lat="45.90947071315979" lon="4.812375799182763"><ele>169.0</ele><time>2026-04-28T13:19:01.001Z</time></trkpt><trkpt lat="45.90953825729269" lon="4.8123872854751175"><ele>169.0</ele><time>2026-04-28T13:19:02.001Z</time></trkpt><trkpt lat="45.909607242936396" lon="4.812404412310183"><ele>169.0</ele><time>2026-04-28T13:19:03.001Z</time></trkpt><trkpt lat="45.909675406303265" lon="4.8124155522961"><ele>169.0</ele><time>2026-04-28T13:19:04.001Z</time></trkpt><trkpt lat="45.90974258360566" lon="4.812427833524584"><ele>169.0</ele><time>2026-04-28T13:19:05.001Z</time></trkpt><trkpt lat="45.90980664914587" lon="4.8124352433181175"><ele>169.0</ele><time>2026-04-28T13:19:06.001Z</time></trkpt><trkpt lat="45.90987476916983" lon="4.812443056806578"><ele>169.0</ele><time>2026-04-28T13:19:07.001Z</time></trkpt><trkpt lat="45.90993877269615" lon="4.81244283528161"><ele>169.0</ele><time>2026-04-28T13:19:08.001Z</time></trkpt><trkpt lat="45.910060725910405" lon="4.812418528968762"><ele>169.0</ele><time>2026-04-28T13:19:10.001Z</time></trkpt><trkpt lat="45.91017136506586" lon="4.812341916470188"><ele>169.0</ele><time>2026-04-28T13:19:12.001Z</time></trkpt><trkpt lat="45.91025529181004" lon="4.812246692856548"><ele>169.0</ele><time>2026-04-28T13:19:14.001Z</time></trkpt><trkpt lat="45.91031039172451" lon="4.812096365414197"><ele>169.0</ele><time>2026-04-28T13:19:16.001Z</time></trkpt><trkpt lat="45.91040489317151" lon="4.81197854209906"><ele>169.0</ele><time>2026-04-28T13:19:18.001Z</time></trkpt><trkpt lat="45.91045663033951" lon="4.811922658068794"><ele>169.0</ele><time>2026-04-28T13:19:19.001Z</time></trkpt><trkpt lat="45.91051935205146" lon="4.811877502587142"><ele>169.0</ele><time>2026-04-28T13:19:20.001Z</time></trkpt><trkpt lat="45.91057835412052" lon="4.811834180664129"><ele>169.0</ele><time>2026-04-28T13:19:21.001Z</time></trkpt><trkpt lat="45.91063670050227" lon="4.811799421397714"><ele>169.0</ele><time>2026-04-28T13:19:22.001Z</time></trkpt><trkpt lat="45.91070487370006" lon="4.81177495518354"><ele>169.0</ele><time>2026-04-28T13:19:23.001Z</time></trkpt><trkpt lat="45.9107721381083" lon="4.811754448638689"><ele>169.0</ele><time>2026-04-28T13:19:24.001Z</time></trkpt><trkpt lat="45.91084246963648" lon="4.811738876721437"><ele>169.0</ele><time>2026-04-28T13:19:25.001Z</time></trkpt><trkpt lat="45.9109134646303" lon="4.811736322446069"><ele>169.0</ele><time>2026-04-28T13:19:26.001Z</time></trkpt><trkpt lat="45.91098468167569" lon="4.811730747279793"><ele>169.0</ele><time>2026-04-28T13:19:27.001Z</time></trkpt><trkpt lat="45.91105318442435" lon="4.811722041026949"><ele>169.0</ele><time>2026-04-28T13:19:28.001Z</time></trkpt><trkpt lat="45.911120909195624" lon="4.811719967541357"><ele>169.0</ele><time>2026-04-28T13:19:29.001Z</time></trkpt><trkpt lat="45.91118809190777" lon="4.811720869087621"><ele>169.0</ele><time>2026-04-28T13:19:30.001Z</time></trkpt><trkpt lat="45.91126010103781" lon="4.811719002104495"><ele>169.0</ele><time>2026-04-28T13:19:31.001Z</time></trkpt><trkpt lat="45.911329301108516" lon="4.811709242219248"><ele>169.0</ele><time>2026-04-28T13:19:32.001Z</time></trkpt><trkpt lat="45.91139994798976" lon="4.811701259872967"><ele>169.0</ele><time>2026-04-28T13:19:33.001Z</time></trkpt><trkpt lat="45.91146607820586" lon="4.81167511451853"><ele>169.0</ele><time>2026-04-28T13:19:34.001Z</time></trkpt><trkpt lat="45.91153636952022" lon="4.811668622103107"><ele>169.0</ele><time>2026-04-28T13:19:35.001Z</time></trkpt><trkpt lat="45.91160480566122" lon="4.811663467504394"><ele>169.0</ele><time>2026-04-28T13:19:36.001Z</time></trkpt><trkpt lat="45.91167156495767" lon="4.811655812992417"><ele>168.71428571428572</ele><time>2026-04-28T13:19:37.001Z</time></trkpt><trkpt lat="45.91174091560339" lon="4.811646055329005"><ele>168.42857142857142</ele><time>2026-04-28T13:19:38.001Z</time></trkpt><trkpt lat="45.91180988246686" lon="4.811639896961949"><ele>168.14285714285714</ele><time>2026-04-28T13:19:39.001Z</time></trkpt><trkpt lat="45.911881189046596" lon="4.8116320063170654"><ele>167.85714285714286</ele><time>2026-04-28T13:19:40.001Z</time></trkpt><trkpt lat="45.91194894216361" lon="4.8116256988196495"><ele>167.57142857142858</ele><time>2026-04-28T13:19:41.001Z</time></trkpt><trkpt lat="45.91201626524698" lon="4.811620739952376"><ele>167.28571428571428</ele><time>2026-04-28T13:19:42.001Z</time></trkpt><trkpt lat="45.912085174036285" lon="4.811610314505607"><ele>167.0</ele><time>2026-04-28T13:19:43.001Z</time></trkpt><trkpt lat="45.91215596599979" lon="4.811605713829294"><ele>167.0</ele><time>2026-04-28T13:19:44.001Z</time></trkpt><trkpt lat="45.91222310498951" lon="4.81160295889916"><ele>167.0</ele><time>2026-04-28T13:19:45.001Z</time></trkpt><trkpt lat="45.91229630703082" lon="4.811604776809664"><ele>167.0</ele><time>2026-04-28T13:19:46.001Z</time></trkpt><trkpt lat="45.91236441697346" lon="4.811601204739795"><ele>167.0</ele><time>2026-04-28T13:19:47.001Z</time></trkpt><trkpt lat="45.91243297188478" lon="4.811599047014309"><ele>167.0</ele><time>2026-04-28T13:19:48.001Z</time></trkpt><trkpt lat="45.91250307089417" lon="4.811600632835449"><ele>167.0</ele><time>2026-04-28T13:19:49.001Z</time></trkpt><trkpt lat="45.91257006610605" lon="4.811605514705696"><ele>167.0</ele><time>2026-04-28T13:19:50.001Z</time></trkpt><trkpt lat="45.91263785567304" lon="4.8116072255562194"><ele>167.0</ele><time>2026-04-28T13:19:51.001Z</time></trkpt><trkpt lat="45.91270886788301" lon="4.811607281514796"><ele>167.0</ele><time>2026-04-28T13:19:52.001Z</time></trkpt><trkpt lat="45.912777504351155" lon="4.811609159669792"><ele>167.0</ele><time>2026-04-28T13:19:53.001Z</time></trkpt><trkpt lat="45.91290852787166" lon="4.811618035381902"><ele>167.0</ele><time>2026-04-28T13:19:55.001Z</time></trkpt><trkpt lat="45.91297690450961" lon="4.811624067057891"><ele>167.0</ele><time>2026-04-28T13:19:56.001Z</time></trkpt><trkpt lat="45.913051403273634" lon="4.811630201413247"><ele>167.0</ele><time>2026-04-28T13:19:57Z</time></trkpt><trkpt lat="45.91311951462621" lon="4.811630756134108"><ele>167.0</ele><time>2026-04-28T13:19:58Z</time></trkpt><trkpt lat="45.91318917426209" lon="4.81162982376179"><ele>167.0</ele><time>2026-04-28T13:19:59Z</time></trkpt><trkpt lat="45.913321193252116" lon="4.811624744072692"><ele>167.0</ele><time>2026-04-28T13:20:01Z</time></trkpt><trkpt lat="45.9133871363962" lon="4.811617989597492"><ele>167.0</ele><time>2026-04-28T13:20:02Z</time></trkpt><trkpt lat="45.91345632956742" lon="4.811612346178434"><ele>167.0</ele><time>2026-04-28T13:20:03Z</time></trkpt><trkpt lat="45.91352300980743" lon="4.811611576554333"><ele>167.0</ele><time>2026-04-28T13:20:04Z</time></trkpt><trkpt lat="45.913591667948175" lon="4.811614866709175"><ele>167.0</ele><time>2026-04-28T13:20:05Z</time></trkpt><trkpt lat="45.91366403783483" lon="4.811625385801775"><ele>167.0</ele><time>2026-04-28T13:20:06Z</time></trkpt><trkpt lat="45.91372998455162" lon="4.811640192851304"><ele>167.0</ele><time>2026-04-28T13:20:07Z</time></trkpt><trkpt lat="45.913792704223795" lon="4.811663437387496"><ele>167.0</ele><time>2026-04-28T13:20:08Z</time></trkpt><trkpt lat="45.9138622966456" lon="4.811684821168425"><ele>167.0</ele><time>2026-04-28T13:20:09Z</time></trkpt><trkpt lat="45.913929870959926" lon="4.811711946231644"><ele>167.0</ele><time>2026-04-28T13:20:10Z</time></trkpt><trkpt lat="45.9139958555853" lon="4.811742742359212"><ele>167.0</ele><time>2026-04-28T13:20:11Z</time></trkpt><trkpt lat="45.914054766368096" lon="4.811780774406538"><ele>167.16666666666666</ele><time>2026-04-28T13:20:12Z</time></trkpt><trkpt lat="45.914167501122016" lon="4.8118486498510915"><ele>167.33333333333331</ele><time>2026-04-28T13:20:14Z</time></trkpt><trkpt lat="45.914224711758024" lon="4.811903176144505"><ele>167.5</ele><time>2026-04-28T13:20:15Z</time></trkpt><trkpt lat="45.91432748537426" lon="4.812003997583069"><ele>167.66666666666666</ele><time>2026-04-28T13:20:17Z</time></trkpt><trkpt lat="45.9143850493117" lon="4.812047931155579"><ele>167.83333333333334</ele><time>2026-04-28T13:20:18Z</time></trkpt><trkpt lat="45.91444649766176" lon="4.812080866671249"><ele>168.0</ele><time>2026-04-28T13:20:19Z</time></trkpt><trkpt lat="45.91451225890018" lon="4.81210113029056"><ele>168.57142857142858</ele><time>2026-04-28T13:20:20Z</time></trkpt><trkpt lat="45.914581499039414" lon="4.812110474495788"><ele>169.14285714285714</ele><time>2026-04-28T13:20:21Z</time></trkpt><trkpt lat="45.91465073063645" lon="4.812124571355313"><ele>169.71428571428572</ele><time>2026-04-28T13:20:22Z</time></trkpt><trkpt lat="45.91472017529101" lon="4.812131170509289"><ele>170.28571428571428</ele><time>2026-04-28T13:20:23Z</time></trkpt><trkpt lat="45.9147845525975" lon="4.812139386326216"><ele>170.85714285714286</ele><time>2026-04-28T13:20:24Z</time></trkpt><trkpt lat="45.91485083818352" lon="4.8121435669412564"><ele>171.42857142857144</ele><time>2026-04-28T13:20:25Z</time></trkpt><trkpt lat="45.91492378084919" lon="4.812146596688961"><ele>172.0</ele><time>2026-04-28T13:20:26Z</time></trkpt><trkpt lat="45.914990850306786" lon="4.812138130481107"><ele>172.00000000000003</ele><time>2026-04-28T13:20:27Z</time></trkpt><trkpt lat="45.915061676983136" lon="4.812141951801149"><ele>172.0</ele><time>2026-04-28T13:20:28Z</time></trkpt><trkpt lat="45.9151292130619" lon="4.812133697250519"><ele>172.0</ele><time>2026-04-28T13:20:29Z</time></trkpt><trkpt lat="45.91519902550482" lon="4.812124211212584"><ele>172.0</ele><time>2026-04-28T13:20:30Z</time></trkpt><trkpt lat="45.91526556551836" lon="4.812105576893925"><ele>172.0</ele><time>2026-04-28T13:20:31Z</time></trkpt><trkpt lat="45.91533797116937" lon="4.812097450154773"><ele>172.00000000000003</ele><time>2026-04-28T13:20:32Z</time></trkpt><trkpt lat="45.915405081749554" lon="4.812096380799064"><ele>172.0</ele><time>2026-04-28T13:20:33Z</time></trkpt><trkpt lat="45.9154755049785" lon="4.812096512364848"><ele>172.00000000000003</ele><time>2026-04-28T13:20:34Z</time></trkpt><trkpt lat="45.91554551078062" lon="4.812096194136818"><ele>172.0</ele><time>2026-04-28T13:20:35Z</time></trkpt><trkpt lat="45.91561987569474" lon="4.8121001062970965"><ele>172.0</ele><time>2026-04-28T13:20:36Z</time></trkpt><trkpt lat="45.91569090784905" lon="4.81210244798461"><ele>172.0</ele><time>2026-04-28T13:20:37Z</time></trkpt><trkpt lat="45.915760560479434" lon="4.812100083747869"><ele>172.0</ele><time>2026-04-28T13:20:38Z</time></trkpt><trkpt lat="45.91582919513996" lon="4.812096098410995"><ele>172.00000000000003</ele><time>2026-04-28T13:20:39Z</time></trkpt><trkpt lat="45.91590035748216" lon="4.8120916117802865"><ele>172.0</ele><time>2026-04-28T13:20:40Z</time></trkpt><trkpt lat="45.91597090048424" lon="4.812091279625076"><ele>172.42857142857144</ele><time>2026-04-28T13:20:41Z</time></trkpt><trkpt lat="45.916042875416814" lon="4.81208923887377"><ele>172.85714285714286</ele><time>2026-04-28T13:20:42Z</time></trkpt><trkpt lat="45.91611378593595" lon="4.812089560014205"><ele>173.28571428571428</ele><time>2026-04-28T13:20:43Z</time></trkpt><trkpt lat="45.916186474666254" lon="4.812078617600335"><ele>173.71428571428572</ele><time>2026-04-28T13:20:44Z</time></trkpt><trkpt lat="45.91625058572691" lon="4.812078906104932"><ele>174.14285714285714</ele><time>2026-04-28T13:20:45Z</time></trkpt><trkpt lat="45.91632219097319" lon="4.812065646782549"><ele>174.57142857142858</ele><time>2026-04-28T13:20:46Z</time></trkpt><trkpt lat="45.91639714484682" lon="4.812070216501973"><ele>175.0</ele><time>2026-04-28T13:20:47Z</time></trkpt><trkpt lat="45.916468615435384" lon="4.812055468186713"><ele>175.0</ele><time>2026-04-28T13:20:48Z</time></trkpt><trkpt lat="45.9165352054789" lon="4.812045183556233"><ele>175.0</ele><time>2026-04-28T13:20:49Z</time></trkpt><trkpt lat="45.91660554149744" lon="4.812039940345709"><ele>175.0</ele><time>2026-04-28T13:20:50Z</time></trkpt><trkpt lat="45.91667387731884" lon="4.812041253875858"><ele>175.0</ele><time>2026-04-28T13:20:51Z</time></trkpt><trkpt lat="45.91673831500803" lon="4.812035479057913"><ele>175.0</ele><time>2026-04-28T13:20:52Z</time></trkpt><trkpt lat="45.91680266438676" lon="4.812025758191491"><ele>175.0</ele><time>2026-04-28T13:20:53Z</time></trkpt><trkpt lat="45.91691263950346" lon="4.812012051877058"><ele>175.0</ele><time>2026-04-28T13:20:55Z</time></trkpt><trkpt lat="45.91699830569846" lon="4.8120007485590905"><ele>173.25</ele><time>2026-04-28T13:20:57Z</time></trkpt><trkpt lat="45.91711097854885" lon="4.81197349236797"><ele>171.5</ele><time>2026-04-28T13:20:59Z</time></trkpt><trkpt lat="45.917226563775415" lon="4.8119638832922815"><ele>169.75</ele><time>2026-04-28T13:21:01Z</time></trkpt><trkpt lat="45.917344637871224" lon="4.8119570229501445"><ele>168.0</ele><time>2026-04-28T13:21:03Z</time></trkpt><trkpt lat="45.91746822389422" lon="4.811940884619528"><ele>168.0</ele><time>2026-04-28T13:21:05Z</time></trkpt><trkpt lat="45.91758548245254" lon="4.811909073019931"><ele>168.0</ele><time>2026-04-28T13:21:07Z</time></trkpt><trkpt lat="45.91770040726762" lon="4.8118958129309854"><ele>168.0</ele><time>2026-04-28T13:21:09Z</time></trkpt><trkpt lat="45.91782591373646" lon="4.8118896984401065"><ele>168.0</ele><time>2026-04-28T13:21:11Z</time></trkpt><trkpt lat="45.917885136628044" lon="4.811850442704916"><ele>168.0</ele><time>2026-04-28T13:21:12Z</time></trkpt><trkpt lat="45.91794803636545" lon="4.8118398979083485"><ele>168.16666666666666</ele><time>2026-04-28T13:21:13Z</time></trkpt><trkpt lat="45.91808098961861" lon="4.811803288583808"><ele>168.33333333333334</ele><time>2026-04-28T13:21:15Z</time></trkpt><trkpt lat="45.91814915889538" lon="4.811785195993503"><ele>168.5</ele><time>2026-04-28T13:21:16Z</time></trkpt><trkpt lat="45.91821631286186" lon="4.811777374807865"><ele>168.66666666666669</ele><time>2026-04-28T13:21:17Z</time></trkpt><trkpt lat="45.918278913262675" lon="4.811767237778856"><ele>168.83333333333334</ele><time>2026-04-28T13:21:18Z</time></trkpt><trkpt lat="45.918341268013876" lon="4.811753027042958"><ele>169.0</ele><time>2026-04-28T13:21:19Z</time></trkpt><trkpt lat="45.918404173351526" lon="4.811745788176052"><ele>168.71428571428572</ele><time>2026-04-28T13:21:20Z</time></trkpt><trkpt lat="45.918468990871546" lon="4.811729611358521"><ele>168.42857142857142</ele><time>2026-04-28T13:21:21Z</time></trkpt><trkpt lat="45.918532622418304" lon="4.811722818240874"><ele>168.14285714285714</ele><time>2026-04-28T13:21:22Z</time></trkpt><trkpt lat="45.918594585990185" lon="4.811703132530656"><ele>167.85714285714286</ele><time>2026-04-28T13:21:23.001Z</time></trkpt><trkpt lat="45.91865620393803" lon="4.811679965832407"><ele>167.57142857142858</ele><time>2026-04-28T13:21:24.001Z</time></trkpt><trkpt lat="45.91871897001192" lon="4.8116633260533135"><ele>167.28571428571428</ele><time>2026-04-28T13:21:25.001Z</time></trkpt><trkpt lat="45.9188323574585" lon="4.8116582556179655"><ele>167.0</ele><time>2026-04-28T13:21:27.001Z</time></trkpt><trkpt lat="45.918937131262105" lon="4.811596013336556"><ele>167.0</ele><time>2026-04-28T13:21:29.001Z</time></trkpt><trkpt lat="45.919002188512096" lon="4.8115797809290575"><ele>167.0</ele><time>2026-04-28T13:21:31.001Z</time></trkpt><trkpt lat="45.91906713995485" lon="4.811578704017835"><ele>167.0</ele><time>2026-04-28T13:21:35.001Z</time></trkpt><trkpt lat="45.91914172585787" lon="4.8115292019344835"><ele>167.0</ele><time>2026-04-28T13:21:37.001Z</time></trkpt><trkpt lat="45.91922460052436" lon="4.8114721189772"><ele>167.0</ele><time>2026-04-28T13:21:39.001Z</time></trkpt><trkpt lat="45.91933239606017" lon="4.811432358294805"><ele>167.0</ele><time>2026-04-28T13:21:41.001Z</time></trkpt><trkpt lat="45.91939977294979" lon="4.811412368032354"><ele>167.28571428571428</ele><time>2026-04-28T13:21:42.001Z</time></trkpt><trkpt lat="45.9194616210213" lon="4.811378761096949"><ele>167.57142857142858</ele><time>2026-04-28T13:21:43.001Z</time></trkpt><trkpt lat="45.919526862439454" lon="4.811347471639617"><ele>167.85714285714286</ele><time>2026-04-28T13:21:44.001Z</time></trkpt><trkpt lat="45.919584516483454" lon="4.811302874351514"><ele>168.14285714285714</ele><time>2026-04-28T13:21:45.001Z</time></trkpt><trkpt lat="45.919644709371596" lon="4.811267146784503"><ele>168.42857142857142</ele><time>2026-04-28T13:21:46.001Z</time></trkpt><trkpt lat="45.91975422599224" lon="4.811215691306708"><ele>168.71428571428572</ele><time>2026-04-28T13:21:48.001Z</time></trkpt><trkpt lat="45.91981101975061" lon="4.811174334065213"><ele>169.0</ele><time>2026-04-28T13:21:49.001Z</time></trkpt><trkpt lat="45.919867287747934" lon="4.811132861491796"><ele>169.0</ele><time>2026-04-28T13:21:50.001Z</time></trkpt><trkpt lat="45.919982485865056" lon="4.811060630370268"><ele>169.0</ele><time>2026-04-28T13:21:52Z</time></trkpt><trkpt lat="45.92008368303693" lon="4.810981007880444"><ele>169.0</ele><time>2026-04-28T13:21:54Z</time></trkpt><trkpt lat="45.920190583612" lon="4.810911667895137"><ele>169.0</ele><time>2026-04-28T13:21:56Z</time></trkpt><trkpt lat="45.92024703817475" lon="4.8108700511067495"><ele>169.0</ele><time>2026-04-28T13:21:57Z</time></trkpt><trkpt lat="45.92033581671561" lon="4.8107937164589165"><ele>168.5</ele><time>2026-04-28T13:21:59Z</time></trkpt><trkpt lat="45.920433132938676" lon="4.81070898183891"><ele>168.0</ele><time>2026-04-28T13:22:01Z</time></trkpt><trkpt lat="45.92052527657924" lon="4.810629792714319"><ele>167.5</ele><time>2026-04-28T13:22:03Z</time></trkpt><trkpt lat="45.92062937705303" lon="4.810549797289508"><ele>167.0</ele><time>2026-04-28T13:22:05Z</time></trkpt><trkpt lat="45.92072755563003" lon="4.810469559229449"><ele>167.0</ele><time>2026-04-28T13:22:07Z</time></trkpt><trkpt lat="45.92082230313617" lon="4.810389376470097"><ele>167.0</ele><time>2026-04-28T13:22:09Z</time></trkpt><trkpt lat="45.920921624587464" lon="4.8103095849886595"><ele>167.0</ele><time>2026-04-28T13:22:11Z</time></trkpt><trkpt lat="45.921028692736805" lon="4.810234018821495"><ele>167.0</ele><time>2026-04-28T13:22:13Z</time></trkpt><trkpt lat="45.921125338402014" lon="4.810164314221007"><ele>168.25</ele><time>2026-04-28T13:22:15Z</time></trkpt><trkpt lat="45.92121500068259" lon="4.810067132952009"><ele>169.5</ele><time>2026-04-28T13:22:17Z</time></trkpt><trkpt lat="45.921285308074935" lon="4.8099348734796985"><ele>170.75</ele><time>2026-04-28T13:22:19Z</time></trkpt><trkpt lat="45.921369013987906" lon="4.809828261252162"><ele>172.0</ele><time>2026-04-28T13:22:21Z</time></trkpt><trkpt lat="45.921466133293904" lon="4.809739270932123"><ele>172.0</ele><time>2026-04-28T13:22:23Z</time></trkpt><trkpt lat="45.92155551086336" lon="4.809655924418973"><ele>172.0</ele><time>2026-04-28T13:22:25Z</time></trkpt><trkpt lat="45.92163253043197" lon="4.809573349075245"><ele>172.0</ele><time>2026-04-28T13:22:27Z</time></trkpt><trkpt lat="45.92168975797234" lon="4.809482604845906"><ele>172.0</ele><time>2026-04-28T13:22:29Z</time></trkpt><trkpt lat="45.921759360422314" lon="4.809416527490252"><ele>172.0</ele><time>2026-04-28T13:22:31Z</time></trkpt><trkpt lat="45.921818835648985" lon="4.809336726173944"><ele>171.8</ele><time>2026-04-28T13:22:33Z</time></trkpt><trkpt lat="45.92187007750374" lon="4.809222455610808"><ele>171.6</ele><time>2026-04-28T13:22:35Z</time></trkpt><trkpt lat="45.92191640332048" lon="4.809099062936175"><ele>171.4</ele><time>2026-04-28T13:22:37Z</time></trkpt><trkpt lat="45.921983256810364" lon="4.8089823471981825"><ele>171.20000000000002</ele><time>2026-04-28T13:22:39Z</time></trkpt><trkpt lat="45.92204660174626" lon="4.808886216803135"><ele>171.0</ele><time>2026-04-28T13:22:41Z</time></trkpt><trkpt lat="45.92209696237182" lon="4.8088113219027475"><ele>171.0</ele><time>2026-04-28T13:22:43Z</time></trkpt><trkpt lat="45.92212037916946" lon="4.8087245928353575"><ele>171.0</ele><time>2026-04-28T13:23:20Z</time></trkpt><trkpt lat="45.92217227359903" lon="4.808607377728178"><ele>171.0</ele><time>2026-04-28T13:23:23Z</time></trkpt><trkpt lat="45.922240097383806" lon="4.80851518578673"><ele>171.0</ele><time>2026-04-28T13:23:25Z</time></trkpt><trkpt lat="45.92230358359009" lon="4.808413285927073"><ele>171.0</ele><time>2026-04-28T13:23:27Z</time></trkpt><trkpt lat="45.922370223057705" lon="4.808285860444478"><ele>170.5</ele><time>2026-04-28T13:23:29.001Z</time></trkpt><trkpt lat="45.922428029449726" lon="4.8081492035021505"><ele>170.0</ele><time>2026-04-28T13:23:31.001Z</time></trkpt><trkpt lat="45.922484331293845" lon="4.807998407360077"><ele>169.5</ele><time>2026-04-28T13:23:33.001Z</time></trkpt><trkpt lat="45.922546765417245" lon="4.80784666388819"><ele>169.0</ele><time>2026-04-28T13:23:35.001Z</time></trkpt><trkpt lat="45.922601125834696" lon="4.807687014331182"><ele>168.83333333333334</ele><time>2026-04-28T13:23:37.001Z</time></trkpt><trkpt lat="45.92263054418962" lon="4.8075994819001835"><ele>168.66666666666669</ele><time>2026-04-28T13:23:38.001Z</time></trkpt><trkpt lat="45.92269710469486" lon="4.807455630171592"><ele>168.5</ele><time>2026-04-28T13:23:40.001Z</time></trkpt><trkpt lat="45.92272795839295" lon="4.807366185680173"><ele>168.33333333333334</ele><time>2026-04-28T13:23:41.001Z</time></trkpt><trkpt lat="45.92275471771255" lon="4.807277105130052"><ele>168.16666666666666</ele><time>2026-04-28T13:23:42.001Z</time></trkpt><trkpt lat="45.922764936565144" lon="4.8071845845138625"><ele>168.0</ele><time>2026-04-28T13:23:43.001Z</time></trkpt><trkpt lat="45.92281391264856" lon="4.807014036457491"><ele>168.0</ele><time>2026-04-28T13:23:45.001Z</time></trkpt><trkpt lat="45.92283298605392" lon="4.806927278725559"><ele>168.0</ele><time>2026-04-28T13:23:46Z</time></trkpt><trkpt lat="45.92285246153555" lon="4.8068265738728355"><ele>168.0</ele><time>2026-04-28T13:23:47Z</time></trkpt><trkpt lat="45.922887154502085" lon="4.8066618312758"><ele>168.0</ele><time>2026-04-28T13:23:49Z</time></trkpt><trkpt lat="45.922925793686794" lon="4.806501864123204"><ele>168.0</ele><time>2026-04-28T13:23:51Z</time></trkpt><trkpt lat="45.92293853191552" lon="4.806404155521888"><ele>168.0</ele><time>2026-04-28T13:23:52Z</time></trkpt><trkpt lat="45.92298615792385" lon="4.806245491622718"><ele>168.25</ele><time>2026-04-28T13:23:54Z</time></trkpt><trkpt lat="45.923003983999095" lon="4.806069671168378"><ele>168.5</ele><time>2026-04-28T13:23:56Z</time></trkpt><trkpt lat="45.923045403878625" lon="4.805893188581706"><ele>168.75</ele><time>2026-04-28T13:23:58Z</time></trkpt><trkpt lat="45.92307697174528" lon="4.805731497896223"><ele>169.0</ele><time>2026-04-28T13:24:00Z</time></trkpt><trkpt lat="45.923108669284595" lon="4.805564221294754"><ele>169.0</ele><time>2026-04-28T13:24:02Z</time></trkpt><trkpt lat="45.92314494403074" lon="4.805397450225629"><ele>169.0</ele><time>2026-04-28T13:24:04Z</time></trkpt><trkpt lat="45.92317340112763" lon="4.805227165860176"><ele>169.0</ele><time>2026-04-28T13:24:06Z</time></trkpt><trkpt lat="45.923188532100724" lon="4.805137378206082"><ele>169.0</ele><time>2026-04-28T13:24:07Z</time></trkpt><trkpt lat="45.92320108664696" lon="4.805047925094745"><ele>169.0</ele><time>2026-04-28T13:24:08Z</time></trkpt><trkpt lat="45.92321488325594" lon="4.80495896671961"><ele>169.0</ele><time>2026-04-28T13:24:09Z</time></trkpt><trkpt lat="45.92323040945743" lon="4.804870190046321"><ele>169.0</ele><time>2026-04-28T13:24:10Z</time></trkpt><trkpt lat="45.923244882684436" lon="4.8047806595307"><ele>169.0</ele><time>2026-04-28T13:24:11Z</time></trkpt><trkpt lat="45.92327583067551" lon="4.804606413195838"><ele>169.0</ele><time>2026-04-28T13:24:13Z</time></trkpt><trkpt lat="45.92330260801803" lon="4.804434373741285"><ele>169.0</ele><time>2026-04-28T13:24:15Z</time></trkpt><trkpt lat="45.92332926429299" lon="4.804346319574201"><ele>169.0</ele><time>2026-04-28T13:24:16Z</time></trkpt><trkpt lat="45.92334345990607" lon="4.804169554726308"><ele>169.0</ele><time>2026-04-28T13:24:18Z</time></trkpt><trkpt lat="45.92337872878195" lon="4.803987163454517"><ele>169.0</ele><time>2026-04-28T13:24:20Z</time></trkpt><trkpt lat="45.92340200395406" lon="4.803822585815306"><ele>169.0</ele><time>2026-04-28T13:24:22Z</time></trkpt><trkpt lat="45.923416790942255" lon="4.8037308115324215"><ele>169.0</ele><time>2026-04-28T13:24:23Z</time></trkpt><trkpt lat="45.923449698205786" lon="4.803595776033467"><ele>169.0</ele><time>2026-04-28T13:24:25Z</time></trkpt><trkpt lat="45.92346978557688" lon="4.803505506052297"><ele>169.66666666666669</ele><time>2026-04-28T13:24:27Z</time></trkpt><trkpt lat="45.923493616858" lon="4.803414546922461"><ele>170.33333333333334</ele><time>2026-04-28T13:26:34Z</time></trkpt><trkpt lat="45.92349853651335" lon="4.8033076720398835"><ele>171.0</ele><time>2026-04-28T13:26:37Z</time></trkpt><trkpt lat="45.923526526712024" lon="4.8032015449342875"><ele>171.66666666666666</ele><time>2026-04-28T13:26:39Z</time></trkpt><trkpt lat="45.92355199887712" lon="4.803052431630255"><ele>172.33333333333331</ele><time>2026-04-28T13:26:41Z</time></trkpt><trkpt lat="45.92356557909787" lon="4.802962600300644"><ele>173.0</ele><time>2026-04-28T13:26:42Z</time></trkpt><trkpt lat="45.92359728098122" lon="4.802771267637916"><ele>173.0</ele><time>2026-04-28T13:26:44Z</time></trkpt><trkpt lat="45.92360366931267" lon="4.802674656279517"><ele>173.0</ele><time>2026-04-28T13:26:45Z</time></trkpt><trkpt lat="45.92362277122393" lon="4.802564272376662"><ele>173.0</ele><time>2026-04-28T13:26:46Z</time></trkpt><trkpt lat="45.92365456143496" lon="4.802467922338603"><ele>173.0</ele><time>2026-04-28T13:26:47Z</time></trkpt><trkpt lat="45.92365705025589" lon="4.8023546626668505"><ele>173.0</ele><time>2026-04-28T13:26:48Z</time></trkpt><trkpt lat="45.923687181886486" lon="4.8022610109942985"><ele>173.0</ele><time>2026-04-28T13:26:49Z</time></trkpt><trkpt lat="45.92368447553828" lon="4.802163786736206"><ele>173.0</ele><time>2026-04-28T13:26:50Z</time></trkpt><trkpt lat="45.9236976780795" lon="4.802052688051702"><ele>172.83333333333331</ele><time>2026-04-28T13:26:51Z</time></trkpt><trkpt lat="45.923712575528306" lon="4.801954173267423"><ele>172.66666666666666</ele><time>2026-04-28T13:26:52Z</time></trkpt><trkpt lat="45.92373547126739" lon="4.801762354959171"><ele>172.5</ele><time>2026-04-28T13:26:54Z</time></trkpt><trkpt lat="45.92374548554645" lon="4.801659428118524"><ele>172.33333333333334</ele><time>2026-04-28T13:26:55Z</time></trkpt><trkpt lat="45.923759683723794" lon="4.801554431859208"><ele>172.16666666666669</ele><time>2026-04-28T13:26:56Z</time></trkpt><trkpt lat="45.923768885717315" lon="4.801459412088748"><ele>172.0</ele><time>2026-04-28T13:26:57Z</time></trkpt><trkpt lat="45.92377419193123" lon="4.801360731620065"><ele>171.83333333333334</ele><time>2026-04-28T13:26:58Z</time></trkpt><trkpt lat="45.923777560983574" lon="4.801258689288706"><ele>171.66666666666669</ele><time>2026-04-28T13:26:59Z</time></trkpt><trkpt lat="45.92378207022786" lon="4.801163050962293"><ele>171.5</ele><time>2026-04-28T13:27:00Z</time></trkpt><trkpt lat="45.923778066524335" lon="4.8009948106527"><ele>171.33333333333334</ele><time>2026-04-28T13:27:02Z</time></trkpt><trkpt lat="45.92377869935898" lon="4.80088913475894"><ele>171.16666666666666</ele><time>2026-04-28T13:27:03Z</time></trkpt><trkpt lat="45.92377574061036" lon="4.80079023271682"><ele>171.0</ele><time>2026-04-28T13:27:04Z</time></trkpt><trkpt lat="45.923775261382026" lon="4.800699476186923"><ele>171.4</ele><time>2026-04-28T13:27:05Z</time></trkpt><trkpt lat="45.92376729040007" lon="4.800520515699074"><ele>171.8</ele><time>2026-04-28T13:27:07Z</time></trkpt><trkpt lat="45.923763227817986" lon="4.800428058403844"><ele>172.20000000000002</ele><time>2026-04-28T13:27:08Z</time></trkpt><trkpt lat="45.92374656687593" lon="4.800253991395312"><ele>172.60000000000002</ele><time>2026-04-28T13:27:09.999Z</time></trkpt><trkpt lat="45.92373886389936" lon="4.8001550723975095"><ele>173.0</ele><time>2026-04-28T13:27:10.999Z</time></trkpt><trkpt lat="45.92372171976857" lon="4.799976231323942"><ele>173.0</ele><time>2026-04-28T13:27:12.999Z</time></trkpt><trkpt lat="45.923708866516414" lon="4.799796225370745"><ele>173.0</ele><time>2026-04-28T13:27:14.999Z</time></trkpt><trkpt lat="45.92369670977845" lon="4.799616395022114"><ele>173.0</ele><time>2026-04-28T13:27:16.999Z</time></trkpt><trkpt lat="45.92368677196878" lon="4.799437692489939"><ele>173.0</ele><time>2026-04-28T13:27:18.999Z</time></trkpt><trkpt lat="45.923679650823495" lon="4.799264698914001"><ele>172.83333333333331</ele><time>2026-04-28T13:27:20.999Z</time></trkpt><trkpt lat="45.92366232042944" lon="4.799091020587966"><ele>172.66666666666666</ele><time>2026-04-28T13:27:22.999Z</time></trkpt><trkpt lat="45.92365271327691" lon="4.798997207564632"><ele>172.5</ele><time>2026-04-28T13:27:23.999Z</time></trkpt><trkpt lat="45.92364250492491" lon="4.798816537785298"><ele>172.33333333333334</ele><time>2026-04-28T13:27:25.999Z</time></trkpt><trkpt lat="45.92363388359081" lon="4.798721008658184"><ele>172.16666666666669</ele><time>2026-04-28T13:27:26.999Z</time></trkpt><trkpt lat="45.92362692385744" lon="4.798625973696863"><ele>172.0</ele><time>2026-04-28T13:27:27.999Z</time></trkpt><trkpt lat="45.92361978133318" lon="4.798529797686997"><ele>172.66666666666669</ele><time>2026-04-28T13:27:28.999Z</time></trkpt><trkpt lat="45.923614557332684" lon="4.798437900259308"><ele>173.33333333333334</ele><time>2026-04-28T13:27:29.999Z</time></trkpt><trkpt lat="45.923607610711706" lon="4.798332524064884"><ele>174.0</ele><time>2026-04-28T13:27:30.999Z</time></trkpt><trkpt lat="45.92360080600085" lon="4.798231542146972"><ele>174.66666666666666</ele><time>2026-04-28T13:27:31.999Z</time></trkpt><trkpt lat="45.9235964639199" lon="4.798127245203329"><ele>175.33333333333331</ele><time>2026-04-28T13:27:32.999Z</time></trkpt><trkpt lat="45.92358969784019" lon="4.798029936962015"><ele>176.0</ele><time>2026-04-28T13:27:33.999Z</time></trkpt><trkpt lat="45.92358417197447" lon="4.797849183741738"><ele>176.0</ele><time>2026-04-28T13:27:35.999Z</time></trkpt><trkpt lat="45.923577491457955" lon="4.797753442284849"><ele>176.0</ele><time>2026-04-28T13:27:36.999Z</time></trkpt><trkpt lat="45.92356996934703" lon="4.797645638853964"><ele>176.0</ele><time>2026-04-28T13:27:37.999Z</time></trkpt><trkpt lat="45.92354778229497" lon="4.797553431711883"><ele>176.0</ele><time>2026-04-28T13:27:38.999Z</time></trkpt><trkpt lat="45.92355400278382" lon="4.7974469023901"><ele>176.0</ele><time>2026-04-28T13:27:39.999Z</time></trkpt><trkpt lat="45.9235308283471" lon="4.797357053486236"><ele>176.0</ele><time>2026-04-28T13:27:41Z</time></trkpt><trkpt lat="45.92353254506571" lon="4.797255125567112"><ele>176.0</ele><time>2026-04-28T13:27:42Z</time></trkpt><trkpt lat="45.923523984322564" lon="4.797156446560501"><ele>176.0</ele><time>2026-04-28T13:27:43Z</time></trkpt><trkpt lat="45.92351616553081" lon="4.797061893157159"><ele>176.0</ele><time>2026-04-28T13:27:44Z</time></trkpt><trkpt lat="45.92349653308776" lon="4.796957685543747"><ele>176.0</ele><time>2026-04-28T13:27:45Z</time></trkpt><trkpt lat="45.92347895724938" lon="4.796860990923918"><ele>176.0</ele><time>2026-04-28T13:27:46Z</time></trkpt><trkpt lat="45.923464193972706" lon="4.796763775218907"><ele>176.0</ele><time>2026-04-28T13:27:47Z</time></trkpt><trkpt lat="45.92345535641877" lon="4.7966656681230475"><ele>176.0</ele><time>2026-04-28T13:27:48Z</time></trkpt><trkpt lat="45.92343713858314" lon="4.79657241561267"><ele>176.0</ele><time>2026-04-28T13:27:49Z</time></trkpt><trkpt lat="45.923428569723356" lon="4.79647044904022"><ele>175.85714285714286</ele><time>2026-04-28T13:27:50Z</time></trkpt><trkpt lat="45.923421411956504" lon="4.796379988021469"><ele>175.71428571428572</ele><time>2026-04-28T13:27:51Z</time></trkpt><trkpt lat="45.92342313442779" lon="4.796283714918363"><ele>175.57142857142856</ele><time>2026-04-28T13:27:52Z</time></trkpt><trkpt lat="45.9234093901305" lon="4.796185438805206"><ele>175.42857142857144</ele><time>2026-04-28T13:27:53Z</time></trkpt><trkpt lat="45.92339753973992" lon="4.796090998613578"><ele>175.28571428571428</ele><time>2026-04-28T13:27:54Z</time></trkpt><trkpt lat="45.923387959421014" lon="4.795993345561878"><ele>175.14285714285714</ele><time>2026-04-28T13:27:55Z</time></trkpt><trkpt lat="45.92338577547019" lon="4.795890009136174"><ele>175.0</ele><time>2026-04-28T13:27:56Z</time></trkpt><trkpt lat="45.923382229220046" lon="4.795794537411534"><ele>174.4</ele><time>2026-04-28T13:27:57Z</time></trkpt><trkpt lat="45.92337746692238" lon="4.795701618139802"><ele>173.8</ele><time>2026-04-28T13:27:58Z</time></trkpt><trkpt lat="45.92335935503699" lon="4.795521553772599"><ele>173.2</ele><time>2026-04-28T13:28:00Z</time></trkpt><trkpt lat="45.923350445474426" lon="4.795422195909168"><ele>172.6</ele><time>2026-04-28T13:28:01Z</time></trkpt><trkpt lat="45.92333229002041" lon="4.795237949719191"><ele>172.0</ele><time>2026-04-28T13:28:03Z</time></trkpt><trkpt lat="45.923310535306264" lon="4.795147353520562"><ele>172.0</ele><time>2026-04-28T13:28:04Z</time></trkpt><trkpt lat="45.92329383682253" lon="4.794969530507967"><ele>172.0</ele><time>2026-04-28T13:28:06Z</time></trkpt><trkpt lat="45.92328013518873" lon="4.794876474422459"><ele>172.0</ele><time>2026-04-28T13:28:07Z</time></trkpt><trkpt lat="45.92326176385792" lon="4.794703889434094"><ele>172.0</ele><time>2026-04-28T13:28:09Z</time></trkpt><trkpt lat="45.92324718445169" lon="4.794614081948265"><ele>172.0</ele><time>2026-04-28T13:28:10Z</time></trkpt><trkpt lat="45.92323695066979" lon="4.794523875975357"><ele>172.0</ele><time>2026-04-28T13:28:11Z</time></trkpt><trkpt lat="45.92322967223474" lon="4.7944296365845025"><ele>171.83333333333334</ele><time>2026-04-28T13:28:12Z</time></trkpt><trkpt lat="45.92321931169692" lon="4.794329483305406"><ele>171.66666666666669</ele><time>2026-04-28T13:28:13Z</time></trkpt><trkpt lat="45.9232095092992" lon="4.794157069762119"><ele>171.5</ele><time>2026-04-28T13:28:15Z</time></trkpt><trkpt lat="45.923204973694794" lon="4.794058700042447"><ele>171.33333333333334</ele><time>2026-04-28T13:28:16Z</time></trkpt><trkpt lat="45.92319484613987" lon="4.7939681366519835"><ele>171.16666666666666</ele><time>2026-04-28T13:28:17Z</time></trkpt><trkpt lat="45.92319334081881" lon="4.793873992572107"><ele>171.0</ele><time>2026-04-28T13:28:18Z</time></trkpt><trkpt lat="45.923194199819676" lon="4.793781922522436"><ele>171.0</ele><time>2026-04-28T13:28:19Z</time></trkpt><trkpt lat="45.92318611618856" lon="4.793688711802235"><ele>171.0</ele><time>2026-04-28T13:28:20Z</time></trkpt><trkpt lat="45.92318639437755" lon="4.793593156907434"><ele>171.0</ele><time>2026-04-28T13:28:21Z</time></trkpt><trkpt lat="45.923183587119205" lon="4.79349360828528"><ele>171.0</ele><time>2026-04-28T13:28:22Z</time></trkpt><trkpt lat="45.92317501229278" lon="4.793312078612933"><ele>171.0</ele><time>2026-04-28T13:28:24Z</time></trkpt><trkpt lat="45.923176792844274" lon="4.793219786130846"><ele>171.0</ele><time>2026-04-28T13:28:25Z</time></trkpt><trkpt lat="45.923180080568294" lon="4.793048001201158"><ele>171.0</ele><time>2026-04-28T13:28:27Z</time></trkpt><trkpt lat="45.92318656389366" lon="4.7927761193236265"><ele>171.0</ele><time>2026-04-28T13:28:30Z</time></trkpt><trkpt lat="45.92319700378281" lon="4.792680639913428"><ele>171.0</ele><time>2026-04-28T13:28:31Z</time></trkpt><trkpt lat="45.92323266446145" lon="4.792505374721631"><ele>171.0</ele><time>2026-04-28T13:28:33Z</time></trkpt><trkpt lat="45.923275456729655" lon="4.792325389586409"><ele>171.0</ele><time>2026-04-28T13:28:35Z</time></trkpt><trkpt lat="45.92331746122686" lon="4.792159712592306"><ele>171.0</ele><time>2026-04-28T13:28:37Z</time></trkpt><trkpt lat="45.92334480783191" lon="4.79207089845114"><ele>171.0</ele><time>2026-04-28T13:28:38Z</time></trkpt><trkpt lat="45.92339289595524" lon="4.791915365305943"><ele>171.0</ele><time>2026-04-28T13:28:40Z</time></trkpt><trkpt lat="45.92342375426957" lon="4.7918274872504485"><ele>171.0</ele><time>2026-04-28T13:28:41Z</time></trkpt><trkpt lat="45.92348607600075" lon="4.791673207535908"><ele>170.8</ele><time>2026-04-28T13:28:43Z</time></trkpt><trkpt lat="45.92356218537764" lon="4.791530320650559"><ele>170.60000000000002</ele><time>2026-04-28T13:28:45Z</time></trkpt><trkpt lat="45.923596155117515" lon="4.791453824667054"><ele>170.4</ele><time>2026-04-28T13:28:46Z</time></trkpt><trkpt lat="45.92367666552531" lon="4.791325517212423"><ele>170.2</ele><time>2026-04-28T13:28:48Z</time></trkpt><trkpt lat="45.92375169918057" lon="4.791184210895428"><ele>170.0</ele><time>2026-04-28T13:28:50Z</time></trkpt><trkpt lat="45.92383197686446" lon="4.791055267545683"><ele>170.25</ele><time>2026-04-28T13:28:52Z</time></trkpt><trkpt lat="45.92392084036555" lon="4.7909297229286105"><ele>170.5</ele><time>2026-04-28T13:28:54Z</time></trkpt><trkpt lat="45.92400342151955" lon="4.790809202416438"><ele>170.75</ele><time>2026-04-28T13:28:56Z</time></trkpt><trkpt lat="45.9240785385991" lon="4.790671761072099"><ele>171.0</ele><time>2026-04-28T13:28:58Z</time></trkpt><trkpt lat="45.9241635467615" lon="4.7905466402279675"><ele>171.20000000000002</ele><time>2026-04-28T13:29:00Z</time></trkpt><trkpt lat="45.92425731207869" lon="4.790433524102016"><ele>171.4</ele><time>2026-04-28T13:29:02Z</time></trkpt><trkpt lat="45.924302792451115" lon="4.790366155985618"><ele>171.6</ele><time>2026-04-28T13:29:03Z</time></trkpt><trkpt lat="45.92438068185455" lon="4.790250781652042"><ele>171.8</ele><time>2026-04-28T13:29:05Z</time></trkpt><trkpt lat="45.924464970516624" lon="4.790141844334732"><ele>172.0</ele><time>2026-04-28T13:29:07Z</time></trkpt><trkpt lat="45.92454364962654" lon="4.790052577790893"><ele>172.5</ele><time>2026-04-28T13:29:09Z</time></trkpt><trkpt lat="45.92463006599653" lon="4.78996060409358"><ele>173.0</ele><time>2026-04-28T13:29:11Z</time></trkpt><trkpt lat="45.92472344861765" lon="4.789867033625448"><ele>173.5</ele><time>2026-04-28T13:29:12.999Z</time></trkpt><trkpt lat="45.92480359341982" lon="4.789748738399847"><ele>174.0</ele><time>2026-04-28T13:29:14.999Z</time></trkpt><trkpt lat="45.92490296508509" lon="4.789665806696349"><ele>174.0</ele><time>2026-04-28T13:29:16.999Z</time></trkpt><trkpt lat="45.92500657121807" lon="4.789578830186746"><ele>174.0</ele><time>2026-04-28T13:29:18.999Z</time></trkpt><trkpt lat="45.92511165503151" lon="4.789491297279567"><ele>174.0</ele><time>2026-04-28T13:29:20.999Z</time></trkpt><trkpt lat="45.92521626632874" lon="4.789407310629677"><ele>174.0</ele><time>2026-04-28T13:29:22.999Z</time></trkpt><trkpt lat="45.92527215534591" lon="4.78936075695461"><ele>174.0</ele><time>2026-04-28T13:29:23.999Z</time></trkpt><trkpt lat="45.92537450976884" lon="4.789282836942334"><ele>173.39999999999998</ele><time>2026-04-28T13:29:25.999Z</time></trkpt><trkpt lat="45.9254725344959" lon="4.789207200032879"><ele>172.8</ele><time>2026-04-28T13:29:27.999Z</time></trkpt><trkpt lat="45.92556625900782" lon="4.789144325618487"><ele>172.2</ele><time>2026-04-28T13:29:29.999Z</time></trkpt><trkpt lat="45.92564612594319" lon="4.789097787508874"><ele>171.60000000000002</ele><time>2026-04-28T13:29:31.999Z</time></trkpt><trkpt lat="45.925731929259385" lon="4.789079581151574"><ele>171.0</ele><time>2026-04-28T13:29:33.999Z</time></trkpt><trkpt lat="45.9259457452897" lon="4.788991592461859"><ele>170.66666666666666</ele><time>2026-04-28T13:29:39.999Z</time></trkpt><trkpt lat="45.92606039764752" lon="4.7889374662856925"><ele>170.33333333333334</ele><time>2026-04-28T13:29:41.999Z</time></trkpt><trkpt lat="45.92611783472442" lon="4.788899945732201"><ele>170.0</ele><time>2026-04-28T13:29:42.999Z</time></trkpt><trkpt lat="45.92617944226562" lon="4.788863163100241"><ele>169.66666666666669</ele><time>2026-04-28T13:29:43.999Z</time></trkpt><trkpt lat="45.926241992558566" lon="4.788831118166013"><ele>169.33333333333334</ele><time>2026-04-28T13:29:44.999Z</time></trkpt><trkpt lat="45.92630350431541" lon="4.788783195519116"><ele>169.0</ele><time>2026-04-28T13:29:45.999Z</time></trkpt><trkpt lat="45.926363782415514" lon="4.788750698529647"><ele>169.0</ele><time>2026-04-28T13:29:47Z</time></trkpt><trkpt lat="45.92642182791521" lon="4.788715000325725"><ele>169.0</ele><time>2026-04-28T13:29:48Z</time></trkpt><trkpt lat="45.92649348102146" lon="4.788726536553897"><ele>169.0</ele><time>2026-04-28T13:29:49Z</time></trkpt><trkpt lat="45.926551908070344" lon="4.788689288526277"><ele>169.0</ele><time>2026-04-28T13:29:50Z</time></trkpt><trkpt lat="45.926612108109076" lon="4.788650910284407"><ele>169.0</ele><time>2026-04-28T13:29:51Z</time></trkpt><trkpt lat="45.92666710799024" lon="4.788595026520037"><ele>169.0</ele><time>2026-04-28T13:29:52Z</time></trkpt><trkpt lat="45.926774070621065" lon="4.788520498518836"><ele>169.79999999999998</ele><time>2026-04-28T13:29:54Z</time></trkpt><trkpt lat="45.926881348033014" lon="4.788474663979935"><ele>170.6</ele><time>2026-04-28T13:29:56Z</time></trkpt><trkpt lat="45.92693112724709" lon="4.788417108240562"><ele>171.4</ele><time>2026-04-28T13:29:57Z</time></trkpt><trkpt lat="45.9270310922597" lon="4.788354945778036"><ele>172.2</ele><time>2026-04-28T13:29:59Z</time></trkpt><trkpt lat="45.927119784001036" lon="4.7882821482040505"><ele>173.0</ele><time>2026-04-28T13:30:01Z</time></trkpt><trkpt lat="45.927220229091176" lon="4.788226005052865"><ele>173.0</ele><time>2026-04-28T13:30:03Z</time></trkpt><trkpt lat="45.92732788825146" lon="4.788154930993183"><ele>173.0</ele><time>2026-04-28T13:30:05Z</time></trkpt><trkpt lat="45.927426892867224" lon="4.788075843057145"><ele>173.0</ele><time>2026-04-28T13:30:07Z</time></trkpt><trkpt lat="45.92753029958619" lon="4.7880062475140965"><ele>173.0</ele><time>2026-04-28T13:30:09Z</time></trkpt><trkpt lat="45.927633506833416" lon="4.787932258785352"><ele>172.5</ele><time>2026-04-28T13:30:11Z</time></trkpt><trkpt lat="45.92773221408876" lon="4.787882827553794"><ele>172.0</ele><time>2026-04-28T13:30:13Z</time></trkpt><trkpt lat="45.927836393945306" lon="4.787811825150806"><ele>171.5</ele><time>2026-04-28T13:30:15Z</time></trkpt><trkpt lat="45.927945497391754" lon="4.787737467382498"><ele>171.0</ele><time>2026-04-28T13:30:17Z</time></trkpt><trkpt lat="45.928050633893335" lon="4.787665813043083"><ele>170.75</ele><time>2026-04-28T13:30:19Z</time></trkpt><trkpt lat="45.928152770363276" lon="4.7875962033265465"><ele>170.5</ele><time>2026-04-28T13:30:21Z</time></trkpt><trkpt lat="45.92826425924615" lon="4.787520119097568"><ele>170.25</ele><time>2026-04-28T13:30:23Z</time></trkpt><trkpt lat="45.92837493196165" lon="4.78744428844609"><ele>170.0</ele><time>2026-04-28T13:30:25Z</time></trkpt><trkpt lat="45.92847831563848" lon="4.7873505674854755"><ele>169.6</ele><time>2026-04-28T13:30:27Z</time></trkpt><trkpt lat="45.928542092928524" lon="4.787329753096044"><ele>169.2</ele><time>2026-04-28T13:30:28Z</time></trkpt><trkpt lat="45.9286533780948" lon="4.787252215971147"><ele>168.8</ele><time>2026-04-28T13:30:30Z</time></trkpt><trkpt lat="45.928757416202735" lon="4.787178637314083"><ele>168.4</ele><time>2026-04-28T13:30:32Z</time></trkpt><trkpt lat="45.92880369101681" lon="4.787109388480414"><ele>168.0</ele><time>2026-04-28T13:30:33Z</time></trkpt><trkpt lat="45.92891466224546" lon="4.78703985138485"><ele>168.0</ele><time>2026-04-28T13:30:35Z</time></trkpt><trkpt lat="45.92902001777431" lon="4.786957739236765"><ele>168.0</ele><time>2026-04-28T13:30:37Z</time></trkpt><trkpt lat="45.9291274470331" lon="4.786877809900505"><ele>168.0</ele><time>2026-04-28T13:30:39Z</time></trkpt><trkpt lat="45.92923800353231" lon="4.786821040095286"><ele>168.0</ele><time>2026-04-28T13:30:41Z</time></trkpt><trkpt lat="45.92929426608819" lon="4.786778053482072"><ele>168.0</ele><time>2026-04-28T13:30:42Z</time></trkpt><trkpt lat="45.929350739218386" lon="4.786734906009515"><ele>168.0</ele><time>2026-04-28T13:30:43Z</time></trkpt><trkpt lat="45.92940080355489" lon="4.786679553196579"><ele>168.0</ele><time>2026-04-28T13:30:44Z</time></trkpt><trkpt lat="45.929506795688575" lon="4.78659585736412"><ele>168.0</ele><time>2026-04-28T13:30:46Z</time></trkpt><trkpt lat="45.92956232395029" lon="4.786548944664213"><ele>168.0</ele><time>2026-04-28T13:30:47Z</time></trkpt><trkpt lat="45.92967220668804" lon="4.786465916041864"><ele>168.0</ele><time>2026-04-28T13:30:49Z</time></trkpt><trkpt lat="45.92978019264012" lon="4.786377889276175"><ele>168.0</ele><time>2026-04-28T13:30:51Z</time></trkpt><trkpt lat="45.92983677199717" lon="4.786337117318327"><ele>168.0</ele><time>2026-04-28T13:30:52Z</time></trkpt><trkpt lat="45.929944650919104" lon="4.786253335389503"><ele>168.0</ele><time>2026-04-28T13:30:54Z</time></trkpt><trkpt lat="45.930050756751314" lon="4.786174506436855"><ele>168.0</ele><time>2026-04-28T13:30:56Z</time></trkpt><trkpt lat="45.93015056554097" lon="4.786093561004051"><ele>168.0</ele><time>2026-04-28T13:30:58Z</time></trkpt><trkpt lat="45.93025541004836" lon="4.786015195980636"><ele>168.0</ele><time>2026-04-28T13:31:00Z</time></trkpt><trkpt lat="45.93031873055977" lon="4.785972059718125"><ele>168.0</ele><time>2026-04-28T13:31:01Z</time></trkpt><trkpt lat="45.93041360951559" lon="4.78590712666709"><ele>168.0</ele><time>2026-04-28T13:31:03Z</time></trkpt><trkpt lat="45.93051862542901" lon="4.785825450683688"><ele>168.0</ele><time>2026-04-28T13:31:05Z</time></trkpt><trkpt lat="45.93062000976749" lon="4.785750097432583"><ele>168.0</ele><time>2026-04-28T13:31:07Z</time></trkpt><trkpt lat="45.93071741596454" lon="4.785678666663051"><ele>168.0</ele><time>2026-04-28T13:31:09Z</time></trkpt><trkpt lat="45.93081844018525" lon="4.785598774906394"><ele>168.0</ele><time>2026-04-28T13:31:11Z</time></trkpt><trkpt lat="45.93087800185821" lon="4.7855692316549945"><ele>168.0</ele><time>2026-04-28T13:31:12Z</time></trkpt><trkpt lat="45.93098133760946" lon="4.7854915981017925"><ele>168.0</ele><time>2026-04-28T13:31:13.999Z</time></trkpt><trkpt lat="45.93107927375612" lon="4.785415978618651"><ele>168.0</ele><time>2026-04-28T13:31:15.999Z</time></trkpt><trkpt lat="45.93114223177587" lon="4.785407116883408"><ele>168.0</ele><time>2026-04-28T13:31:16.999Z</time></trkpt><trkpt lat="45.93123563982648" lon="4.785317464557047"><ele>168.0</ele><time>2026-04-28T13:31:18.999Z</time></trkpt><trkpt lat="45.931339780714616" lon="4.785269932778546"><ele>168.0</ele><time>2026-04-28T13:31:20.999Z</time></trkpt><trkpt lat="45.931436975286935" lon="4.785203094629706"><ele>168.0</ele><time>2026-04-28T13:31:22.999Z</time></trkpt><trkpt lat="45.93152660701104" lon="4.785117043130026"><ele>168.0</ele><time>2026-04-28T13:31:24.999Z</time></trkpt><trkpt lat="45.931627523583316" lon="4.785069877835766"><ele>168.0</ele><time>2026-04-28T13:31:26.999Z</time></trkpt><trkpt lat="45.93171060931041" lon="4.784984216613928"><ele>168.0</ele><time>2026-04-28T13:31:28.999Z</time></trkpt><trkpt lat="45.9318267663059" lon="4.7849280405826695"><ele>168.0</ele><time>2026-04-28T13:31:30.999Z</time></trkpt><trkpt lat="45.93192908424242" lon="4.78485520228826"><ele>168.0</ele><time>2026-04-28T13:31:32.999Z</time></trkpt><trkpt lat="45.931982365014264" lon="4.784793986110897"><ele>168.0</ele><time>2026-04-28T13:31:33.999Z</time></trkpt><trkpt lat="45.93203939639225" lon="4.784750243176819"><ele>168.2</ele><time>2026-04-28T13:31:34.999Z</time></trkpt><trkpt lat="45.93210484519687" lon="4.784730081233491"><ele>168.4</ele><time>2026-04-28T13:31:35.999Z</time></trkpt><trkpt lat="45.93221038252509" lon="4.784658246619246"><ele>168.6</ele><time>2026-04-28T13:31:37.999Z</time></trkpt><trkpt lat="45.932305756262316" lon="4.784593608092554"><ele>168.79999999999998</ele><time>2026-04-28T13:31:39.999Z</time></trkpt><trkpt lat="45.93238983988073" lon="4.784510583985799"><ele>169.0</ele><time>2026-04-28T13:31:41.999Z</time></trkpt><trkpt lat="45.932497652845505" lon="4.784436072976591"><ele>169.2</ele><time>2026-04-28T13:31:43.999Z</time></trkpt><trkpt lat="45.932597809704966" lon="4.784395672163672"><ele>169.39999999999998</ele><time>2026-04-28T13:31:45.999Z</time></trkpt><trkpt lat="45.93268956280707" lon="4.784317745695754"><ele>169.6</ele><time>2026-04-28T13:31:47.999Z</time></trkpt><trkpt lat="45.93278463718403" lon="4.784269051837389"><ele>169.8</ele><time>2026-04-28T13:31:49.999Z</time></trkpt><trkpt lat="45.932872571257946" lon="4.784180480437838"><ele>170.0</ele><time>2026-04-28T13:31:51.999Z</time></trkpt><trkpt lat="45.93295998163044" lon="4.784115437620037"><ele>170.0</ele><time>2026-04-28T13:31:54Z</time></trkpt><trkpt lat="45.93305654487211" lon="4.784045250089432"><ele>170.0</ele><time>2026-04-28T13:31:56Z</time></trkpt><trkpt lat="45.93315122072427" lon="4.783976897031093"><ele>170.0</ele><time>2026-04-28T13:31:58Z</time></trkpt><trkpt lat="45.93325165368286" lon="4.783903346438862"><ele>170.0</ele><time>2026-04-28T13:32:00Z</time></trkpt><trkpt lat="45.933347828389934" lon="4.783846914782685"><ele>170.0</ele><time>2026-04-28T13:32:02Z</time></trkpt><trkpt lat="45.93344654794623" lon="4.78375483433581"><ele>170.4</ele><time>2026-04-28T13:32:04Z</time></trkpt><trkpt lat="45.933537508864624" lon="4.78368649088901"><ele>170.8</ele><time>2026-04-28T13:32:06Z</time></trkpt><trkpt lat="45.933633581354975" lon="4.783609237343701"><ele>171.2</ele><time>2026-04-28T13:32:08Z</time></trkpt><trkpt lat="45.933744323423284" lon="4.783559033628025"><ele>171.6</ele><time>2026-04-28T13:32:10Z</time></trkpt><trkpt lat="45.933839905245684" lon="4.7834965851970335"><ele>172.0</ele><time>2026-04-28T13:32:12Z</time></trkpt><trkpt lat="45.93394667584585" lon="4.7834029421446145"><ele>172.0</ele><time>2026-04-28T13:32:14Z</time></trkpt><trkpt lat="45.93403288660299" lon="4.783344889058653"><ele>172.0</ele><time>2026-04-28T13:32:16Z</time></trkpt><trkpt lat="45.93412355250447" lon="4.783288397087807"><ele>172.0</ele><time>2026-04-28T13:32:18Z</time></trkpt><trkpt lat="45.93422016665355" lon="4.7832294613552335"><ele>172.0</ele><time>2026-04-28T13:32:20Z</time></trkpt><trkpt lat="45.93431692910478" lon="4.783168141369075"><ele>172.0</ele><time>2026-04-28T13:32:22Z</time></trkpt><trkpt lat="45.93439544978887" lon="4.783094930851275"><ele>172.16666666666669</ele><time>2026-04-28T13:32:24Z</time></trkpt><trkpt lat="45.934474518193824" lon="4.78304309682016"><ele>172.33333333333334</ele><time>2026-04-28T13:32:26Z</time></trkpt><trkpt lat="45.934548451321426" lon="4.782981362973823"><ele>172.5</ele><time>2026-04-28T13:32:28Z</time></trkpt><trkpt lat="45.934612920943444" lon="4.7829264275466095"><ele>172.66666666666666</ele><time>2026-04-28T13:32:30Z</time></trkpt><trkpt lat="45.93467147807359" lon="4.782873290510589"><ele>172.83333333333331</ele><time>2026-04-28T13:32:32Z</time></trkpt><trkpt lat="45.93472668131036" lon="4.782805962210912"><ele>173.0</ele><time>2026-04-28T13:32:34Z</time></trkpt><trkpt lat="45.934804015724204" lon="4.782742908737754"><ele>173.0</ele><time>2026-04-28T13:32:36Z</time></trkpt><trkpt lat="45.93489375657794" lon="4.782674275995921"><ele>173.0</ele><time>2026-04-28T13:32:38Z</time></trkpt><trkpt lat="45.93496671395713" lon="4.782604434716764"><ele>173.0</ele><time>2026-04-28T13:32:40Z</time></trkpt><trkpt lat="45.93502287501922" lon="4.7825355460016965"><ele>173.0</ele><time>2026-04-28T13:32:42Z</time></trkpt><trkpt lat="45.93509206995513" lon="4.782461811066087"><ele>173.0</ele><time>2026-04-28T13:32:44Z</time></trkpt><trkpt lat="45.93515278419874" lon="4.782410855730477"><ele>173.0</ele><time>2026-04-28T13:32:46Z</time></trkpt><trkpt lat="45.935213143418565" lon="4.782378846548676"><ele>173.0</ele><time>2026-04-28T13:32:48Z</time></trkpt><trkpt lat="45.935265733180756" lon="4.782305194225076"><ele>173.0</ele><time>2026-04-28T13:32:51Z</time></trkpt><trkpt lat="45.93534359422513" lon="4.782263799539721"><ele>173.0</ele><time>2026-04-28T13:33:20Z</time></trkpt><trkpt lat="45.935404539138815" lon="4.782215863501606"><ele>173.0</ele><time>2026-04-28T13:33:23.999Z</time></trkpt><trkpt lat="45.93546982111337" lon="4.782172813339726"><ele>173.0</ele><time>2026-04-28T13:33:29.999Z</time></trkpt><trkpt lat="45.93553507802501" lon="4.782142257546834"><ele>173.0</ele><time>2026-04-28T13:33:35.999Z</time></trkpt><trkpt lat="45.935610702134866" lon="4.782102841217851"><ele>173.0</ele><time>2026-04-28T13:33:43.999Z</time></trkpt><trkpt lat="45.93564445039409" lon="4.782023826690455"><ele>173.0</ele><time>2026-04-28T13:33:48.999Z</time></trkpt><trkpt lat="45.935704932281965" lon="4.781974390029723"><ele>173.0</ele><time>2026-04-28T13:34:01Z</time></trkpt><trkpt lat="45.93578220413314" lon="4.781936155440345"><ele>173.0</ele><time>2026-04-28T13:34:04Z</time></trkpt><trkpt lat="45.93585882489503" lon="4.781893438693368"><ele>173.0</ele><time>2026-04-28T13:34:07Z</time></trkpt><trkpt lat="45.93593941218941" lon="4.781844797192374"><ele>173.0</ele><time>2026-04-28T13:34:09Z</time></trkpt><trkpt lat="45.93604170870361" lon="4.781788097677466"><ele>173.0</ele><time>2026-04-28T13:34:11Z</time></trkpt><trkpt lat="45.936151883703324" lon="4.781727673249162"><ele>173.25</ele><time>2026-04-28T13:34:13Z</time></trkpt><trkpt lat="45.936258483517165" lon="4.781666471453915"><ele>173.5</ele><time>2026-04-28T13:34:15Z</time></trkpt><trkpt lat="45.93636324294403" lon="4.781612834322874"><ele>173.75</ele><time>2026-04-28T13:34:17Z</time></trkpt><trkpt lat="45.93647031295212" lon="4.781550349802865"><ele>174.0</ele><time>2026-04-28T13:34:19Z</time></trkpt><trkpt lat="45.93657322541579" lon="4.781490015104626"><ele>174.0</ele><time>2026-04-28T13:34:21Z</time></trkpt><trkpt lat="45.93667528790331" lon="4.781414249483469"><ele>174.0</ele><time>2026-04-28T13:34:23Z</time></trkpt><trkpt lat="45.936777310766274" lon="4.78133610978281"><ele>174.0</ele><time>2026-04-28T13:34:25Z</time></trkpt><trkpt lat="45.936876133827795" lon="4.781245461976614"><ele>174.0</ele><time>2026-04-28T13:34:27Z</time></trkpt><trkpt lat="45.93697156633706" lon="4.781155084816613"><ele>174.25</ele><time>2026-04-28T13:34:29Z</time></trkpt><trkpt lat="45.93705712986176" lon="4.7810680495507505"><ele>174.5</ele><time>2026-04-28T13:34:31Z</time></trkpt><trkpt lat="45.937149490395974" lon="4.780959841277172"><ele>174.75</ele><time>2026-04-28T13:34:33Z</time></trkpt><trkpt lat="45.937240065527575" lon="4.780859424196511"><ele>175.0</ele><time>2026-04-28T13:34:35Z</time></trkpt><trkpt lat="45.93732644600883" lon="4.780753396323528"><ele>175.0</ele><time>2026-04-28T13:34:37Z</time></trkpt><trkpt lat="45.937408166210126" lon="4.780640732188555"><ele>175.0</ele><time>2026-04-28T13:34:39Z</time></trkpt><trkpt lat="45.93748920474358" lon="4.780536424714243"><ele>175.0</ele><time>2026-04-28T13:34:41Z</time></trkpt><trkpt lat="45.93756910197479" lon="4.780427919244093"><ele>175.0</ele><time>2026-04-28T13:34:43Z</time></trkpt><trkpt lat="45.93765195008023" lon="4.780331076907568"><ele>175.0</ele><time>2026-04-28T13:34:45Z</time></trkpt><trkpt lat="45.93773162910143" lon="4.780227471349268"><ele>175.8</ele><time>2026-04-28T13:34:47Z</time></trkpt><trkpt lat="45.9378119613009" lon="4.780124036490057"><ele>176.6</ele><time>2026-04-28T13:34:49Z</time></trkpt><trkpt lat="45.93788819496549" lon="4.780030318332353"><ele>177.39999999999998</ele><time>2026-04-28T13:34:51Z</time></trkpt><trkpt lat="45.937972032240445" lon="4.779925552549124"><ele>178.2</ele><time>2026-04-28T13:34:53Z</time></trkpt><trkpt lat="45.93805859398453" lon="4.7798217846381705"><ele>179.0</ele><time>2026-04-28T13:34:55Z</time></trkpt><trkpt lat="45.938135026354026" lon="4.77970780301628"><ele>179.0</ele><time>2026-04-28T13:34:57Z</time></trkpt><trkpt lat="45.93821179971046" lon="4.779607807208944"><ele>179.0</ele><time>2026-04-28T13:34:59Z</time></trkpt><trkpt lat="45.93826232855057" lon="4.7795412801991795"><ele>179.0</ele><time>2026-04-28T13:35:01Z</time></trkpt><trkpt lat="45.93831658738762" lon="4.779470591729692"><ele>179.0</ele><time>2026-04-28T13:35:02Z</time></trkpt><trkpt lat="45.9383625823047" lon="4.779400059600041"><ele>179.0</ele><time>2026-04-28T13:35:03Z</time></trkpt><trkpt lat="45.93843536691812" lon="4.779283053304483"><ele>179.0</ele><time>2026-04-28T13:35:05Z</time></trkpt><trkpt lat="45.93852182731533" lon="4.779186918627403"><ele>180.0</ele><time>2026-04-28T13:35:07Z</time></trkpt><trkpt lat="45.938600305554885" lon="4.779075477456108"><ele>181.0</ele><time>2026-04-28T13:35:09Z</time></trkpt><trkpt lat="45.93866498322757" lon="4.778958792116042"><ele>182.0</ele><time>2026-04-28T13:35:11Z</time></trkpt><trkpt lat="45.938733455226355" lon="4.778856761851869"><ele>183.0</ele><time>2026-04-28T13:35:13Z</time></trkpt><trkpt lat="45.93879834434524" lon="4.7787560812324505"><ele>184.0</ele><time>2026-04-28T13:35:15Z</time></trkpt><trkpt lat="45.93886079857777" lon="4.778657533148702"><ele>184.0</ele><time>2026-04-28T13:35:17Z</time></trkpt><trkpt lat="45.93890388832096" lon="4.778539319445108"><ele>184.0</ele><time>2026-04-28T13:35:19Z</time></trkpt><trkpt lat="45.93894740319878" lon="4.778372994490418"><ele>184.0</ele><time>2026-04-28T13:35:21Z</time></trkpt><trkpt lat="45.93899442060252" lon="4.7782085072875455"><ele>184.0</ele><time>2026-04-28T13:35:22.999Z</time></trkpt><trkpt lat="45.93902045157891" lon="4.778120138270435"><ele>184.0</ele><time>2026-04-28T13:35:23.999Z</time></trkpt><trkpt lat="45.93907980384373" lon="4.777950717730688"><ele>185.0</ele><time>2026-04-28T13:35:25.999Z</time></trkpt><trkpt lat="45.93910648557669" lon="4.77786694116724"><ele>186.0</ele><time>2026-04-28T13:35:26.999Z</time></trkpt><trkpt lat="45.93914157132665" lon="4.777776276340481"><ele>187.0</ele><time>2026-04-28T13:35:27.999Z</time></trkpt><trkpt lat="45.9391793742633" lon="4.777697535719775"><ele>188.0</ele><time>2026-04-28T13:35:28.999Z</time></trkpt><trkpt lat="45.939221068630566" lon="4.777610718138184"><ele>189.0</ele><time>2026-04-28T13:35:29.999Z</time></trkpt><trkpt lat="45.93925587779091" lon="4.777530840120904"><ele>190.0</ele><time>2026-04-28T13:35:30.999Z</time></trkpt><trkpt lat="45.93929730962834" lon="4.777444785363403"><ele>191.0</ele><time>2026-04-28T13:35:31.999Z</time></trkpt><trkpt lat="45.93933586154649" lon="4.777357715539168"><ele>191.0</ele><time>2026-04-28T13:35:32.999Z</time></trkpt><trkpt lat="45.939372814533506" lon="4.777272154906964"><ele>191.0</ele><time>2026-04-28T13:35:33.999Z</time></trkpt><trkpt lat="45.93941212335374" lon="4.777184483206161"><ele>191.0</ele><time>2026-04-28T13:35:34.999Z</time></trkpt><trkpt lat="45.93944742225667" lon="4.777099840611923"><ele>191.0</ele><time>2026-04-28T13:35:35.999Z</time></trkpt><trkpt lat="45.93948030167191" lon="4.777006154931603"><ele>191.0</ele><time>2026-04-28T13:35:36.999Z</time></trkpt><trkpt lat="45.939515383024386" lon="4.776913649809462"><ele>191.0</ele><time>2026-04-28T13:35:37.999Z</time></trkpt><trkpt lat="45.93954760953655" lon="4.776822908535295"><ele>191.0</ele><time>2026-04-28T13:35:38.999Z</time></trkpt><trkpt lat="45.93957881775358" lon="4.776728387348979"><ele>190.42857142857144</ele><time>2026-04-28T13:35:39.999Z</time></trkpt><trkpt lat="45.93960830889067" lon="4.776633874076876"><ele>189.85714285714283</ele><time>2026-04-28T13:35:40.999Z</time></trkpt><trkpt lat="45.93963659308888" lon="4.776534600294231"><ele>189.28571428571428</ele><time>2026-04-28T13:35:41.999Z</time></trkpt><trkpt lat="45.93966015405368" lon="4.776431065947268"><ele>188.71428571428572</ele><time>2026-04-28T13:35:42.999Z</time></trkpt><trkpt lat="45.93968289141986" lon="4.776329109494994"><ele>188.14285714285717</ele><time>2026-04-28T13:35:43.999Z</time></trkpt><trkpt lat="45.93970390167828" lon="4.776225651300264"><ele>187.57142857142856</ele><time>2026-04-28T13:35:44.999Z</time></trkpt><trkpt lat="45.939719486176145" lon="4.776128864515788"><ele>187.0</ele><time>2026-04-28T13:35:45.999Z</time></trkpt><trkpt lat="45.93973277709431" lon="4.776034439121045"><ele>186.28571428571428</ele><time>2026-04-28T13:35:46.999Z</time></trkpt><trkpt lat="45.93975048961593" lon="4.77593581404641"><ele>185.57142857142858</ele><time>2026-04-28T13:35:47.999Z</time></trkpt><trkpt lat="45.93976799086483" lon="4.775832644001529"><ele>184.85714285714286</ele><time>2026-04-28T13:35:48.999Z</time></trkpt><trkpt lat="45.939783600606624" lon="4.775739253512246"><ele>184.14285714285714</ele><time>2026-04-28T13:35:49.999Z</time></trkpt><trkpt lat="45.93979746079901" lon="4.775640096165022"><ele>183.42857142857144</ele><time>2026-04-28T13:35:50.999Z</time></trkpt><trkpt lat="45.93981570427753" lon="4.775537737871273"><ele>182.71428571428572</ele><time>2026-04-28T13:35:51.999Z</time></trkpt><trkpt lat="45.93983113045435" lon="4.775443189386645"><ele>182.0</ele><time>2026-04-28T13:35:52.999Z</time></trkpt><trkpt lat="45.939846492902355" lon="4.775341037239172"><ele>182.0</ele><time>2026-04-28T13:35:53.999Z</time></trkpt><trkpt lat="45.93985820084402" lon="4.775249899559135"><ele>182.0</ele><time>2026-04-28T13:35:54.999Z</time></trkpt><trkpt lat="45.93987615461822" lon="4.775151808856124"><ele>182.0</ele><time>2026-04-28T13:35:55.999Z</time></trkpt><trkpt lat="45.939891070819534" lon="4.775059580039685"><ele>182.0</ele><time>2026-04-28T13:35:56.999Z</time></trkpt><trkpt lat="45.93990437493418" lon="4.774962695135365"><ele>182.0</ele><time>2026-04-28T13:35:57.999Z</time></trkpt><trkpt lat="45.93992276289448" lon="4.7748563610195"><ele>182.0</ele><time>2026-04-28T13:35:58.999Z</time></trkpt><trkpt lat="45.939938348262466" lon="4.7747632098696675"><ele>182.0</ele><time>2026-04-28T13:35:59.999Z</time></trkpt><trkpt lat="45.93995055228594" lon="4.774671317057023"><ele>181.0</ele><time>2026-04-28T13:36:00.999Z</time></trkpt><trkpt lat="45.93996510753995" lon="4.774574707339931"><ele>180.0</ele><time>2026-04-28T13:36:01.999Z</time></trkpt><trkpt lat="45.93997897985805" lon="4.77448035162832"><ele>179.0</ele><time>2026-04-28T13:36:02.999Z</time></trkpt><trkpt lat="45.93999882706065" lon="4.774306913602798"><ele>178.0</ele><time>2026-04-28T13:36:05Z</time></trkpt><trkpt lat="45.940019902003314" lon="4.774132650331673"><ele>177.0</ele><time>2026-04-28T13:36:07Z</time></trkpt><trkpt lat="45.94008322150848" lon="4.774060328311865"><ele>178.8</ele><time>2026-04-28T13:36:08Z</time></trkpt><trkpt lat="45.940099431279705" lon="4.773908481852411"><ele>180.6</ele><time>2026-04-28T13:36:10Z</time></trkpt><trkpt lat="45.94011403430802" lon="4.773768587137747"><ele>182.4</ele><time>2026-04-28T13:36:12Z</time></trkpt><trkpt lat="45.94012572653814" lon="4.773648386916229"><ele>184.20000000000002</ele><time>2026-04-28T13:36:14Z</time></trkpt><trkpt lat="45.940137686563794" lon="4.773513532964814"><ele>186.0</ele><time>2026-04-28T13:36:16Z</time></trkpt><trkpt lat="45.94014866211995" lon="4.773365056702404"><ele>186.0</ele><time>2026-04-28T13:36:18Z</time></trkpt><trkpt lat="45.94015875186794" lon="4.773222814412644"><ele>186.0</ele><time>2026-04-28T13:36:20Z</time></trkpt><trkpt lat="45.940165378971315" lon="4.77310553635015"><ele>186.0</ele><time>2026-04-28T13:36:22Z</time></trkpt><trkpt lat="45.94017071298175" lon="4.773011141230811"><ele>186.0</ele><time>2026-04-28T13:36:24Z</time></trkpt><trkpt lat="45.940175581394165" lon="4.772914837484486"><ele>186.0</ele><time>2026-04-28T13:36:27Z</time></trkpt><trkpt lat="45.940101848652304" lon="4.772981909271917"><ele>186.0</ele><time>2026-04-28T13:36:49Z</time></trkpt><trkpt lat="45.94008501786078" lon="4.77308641240705"><ele>186.0</ele><time>2026-04-28T13:36:52Z</time></trkpt><trkpt lat="45.940077678003675" lon="4.773231368147539"><ele>186.0</ele><time>2026-04-28T13:36:55Z</time></trkpt><trkpt lat="45.940068560114575" lon="4.7733621757889315"><ele>186.0</ele><time>2026-04-28T13:36:57Z</time></trkpt><trkpt lat="45.94004259783833" lon="4.773480825686113"><ele>186.0</ele><time>2026-04-28T13:36:59Z</time></trkpt><trkpt lat="45.940033001933834" lon="4.773609794307034"><ele>186.0</ele><time>2026-04-28T13:37:01Z</time></trkpt><trkpt lat="45.94002701536707" lon="4.773713465190439"><ele>186.0</ele><time>2026-04-28T13:37:03Z</time></trkpt><trkpt lat="45.93995957388609" lon="4.773700171680539"><ele>186.0</ele><time>2026-04-28T13:37:07Z</time></trkpt><trkpt lat="45.93998161291188" lon="4.773571375937776"><ele>186.0</ele><time>2026-04-28T13:37:09Z</time></trkpt><trkpt lat="45.940002040126245" lon="4.77341577131795"><ele>186.0</ele><time>2026-04-28T13:37:11Z</time></trkpt><trkpt lat="45.94015580758882" lon="4.773268393567259"><ele>186.0</ele><time>2026-04-28T13:37:13Z</time></trkpt><trkpt lat="45.94016494472703" lon="4.773113221118693"><ele>186.0</ele><time>2026-04-28T13:37:15Z</time></trkpt><trkpt lat="45.94017239968382" lon="4.772981291317948"><ele>186.0</ele><time>2026-04-28T13:37:17Z</time></trkpt><trkpt lat="45.940182479583434" lon="4.772822582753929"><ele>186.0</ele><time>2026-04-28T13:37:18.999Z</time></trkpt><trkpt lat="45.94019080168246" lon="4.772729739193161"><ele>186.0</ele><time>2026-04-28T13:37:19.999Z</time></trkpt><trkpt lat="45.94020551766189" lon="4.7725869857759395"><ele>186.0</ele><time>2026-04-28T13:37:21.999Z</time></trkpt><trkpt lat="45.94022725824968" lon="4.772398573531729"><ele>184.33333333333334</ele><time>2026-04-28T13:37:23.999Z</time></trkpt><trkpt lat="45.94024927285319" lon="4.772216327916039"><ele>182.66666666666669</ele><time>2026-04-28T13:37:25.999Z</time></trkpt><trkpt lat="45.9402689999746" lon="4.772057559505154"><ele>181.0</ele><time>2026-04-28T13:37:27.999Z</time></trkpt><trkpt lat="45.939997956351675" lon="4.771802421722319"><ele>180.0</ele><time>2026-04-28T13:37:29.999Z</time></trkpt><trkpt lat="45.940005494998495" lon="4.7717064778547496"><ele>179.0</ele><time>2026-04-28T13:37:30.999Z</time></trkpt><trkpt lat="45.94000742303426" lon="4.771613940909168"><ele>178.0</ele><time>2026-04-28T13:37:31.999Z</time></trkpt><trkpt lat="45.94033469757155" lon="4.771601466833507"><ele>178.0</ele><time>2026-04-28T13:37:32.999Z</time></trkpt><trkpt lat="45.940355000203034" lon="4.771429113297498"><ele>178.0</ele><time>2026-04-28T13:37:34.999Z</time></trkpt><trkpt lat="45.940374936218745" lon="4.771255254439338"><ele>178.0</ele><time>2026-04-28T13:37:36.999Z</time></trkpt><trkpt lat="45.940382028479014" lon="4.771079715707616"><ele>178.0</ele><time>2026-04-28T13:37:38.999Z</time></trkpt><trkpt lat="45.940377992827344" lon="4.7709865828010845"><ele>178.0</ele><time>2026-04-28T13:37:39.999Z</time></trkpt><trkpt lat="45.940372308474146" lon="4.770890957063853"><ele>171.0</ele><time>2026-04-28T13:37:40.999Z</time></trkpt><trkpt lat="45.93978485299459" lon="4.770578880970426"><ele>171.0</ele><time>2026-04-28T13:37:42.999Z</time></trkpt><trkpt lat="45.93976446472432" lon="4.770487029486108"><ele>171.0</ele><time>2026-04-28T13:37:43.999Z</time></trkpt><trkpt lat="45.939744355507415" lon="4.770386271788124"><ele>171.0</ele><time>2026-04-28T13:37:44.999Z</time></trkpt><trkpt lat="45.939719397253455" lon="4.770293379341818"><ele>171.0</ele><time>2026-04-28T13:37:45.999Z</time></trkpt><trkpt lat="45.939665832556386" lon="4.770116151680518"><ele>171.0</ele><time>2026-04-28T13:37:47.999Z</time></trkpt><trkpt lat="45.93963746869018" lon="4.770024824879714"><ele>171.0</ele><time>2026-04-28T13:37:48.999Z</time></trkpt><trkpt lat="45.93960986101469" lon="4.769941596933998"><ele>171.0</ele><time>2026-04-28T13:37:49.999Z</time></trkpt><trkpt lat="45.9395581694485" lon="4.769767849786669"><ele>171.0</ele><time>2026-04-28T13:37:51.999Z</time></trkpt><trkpt lat="45.93950964495193" lon="4.769598192046201"><ele>171.0</ele><time>2026-04-28T13:37:53.999Z</time></trkpt><trkpt lat="45.93948672259701" lon="4.769506659096742"><ele>171.0</ele><time>2026-04-28T13:37:54.999Z</time></trkpt><trkpt lat="45.939464824722535" lon="4.76941972681123"><ele>171.0</ele><time>2026-04-28T13:37:55.999Z</time></trkpt><trkpt lat="45.93944604359402" lon="4.769243893207691"><ele>171.14285714285714</ele><time>2026-04-28T13:37:57.999Z</time></trkpt><trkpt lat="45.93943908314803" lon="4.769148966070814"><ele>171.28571428571428</ele><time>2026-04-28T13:37:58.999Z</time></trkpt><trkpt lat="45.93943274754321" lon="4.769056778169738"><ele>171.42857142857144</ele><time>2026-04-28T13:37:59.999Z</time></trkpt><trkpt lat="45.93942298745728" lon="4.7689642887483235"><ele>171.57142857142856</ele><time>2026-04-28T13:38:00.999Z</time></trkpt><trkpt lat="45.93936773507025" lon="4.768806474949027"><ele>171.71428571428572</ele><time>2026-04-28T13:38:02.999Z</time></trkpt><trkpt lat="45.93933933459239" lon="4.768722883911414"><ele>171.85714285714286</ele><time>2026-04-28T13:38:03.999Z</time></trkpt><trkpt lat="45.939304665332344" lon="4.768644029167573"><ele>172.0</ele><time>2026-04-28T13:38:04.999Z</time></trkpt><trkpt lat="45.93925665934345" lon="4.768571872627302"><ele>172.00000000000003</ele><time>2026-04-28T13:38:05.999Z</time></trkpt><trkpt lat="45.939208798980275" lon="4.768501364607586"><ele>172.0</ele><time>2026-04-28T13:38:06.999Z</time></trkpt><trkpt lat="45.93915690586654" lon="4.768438081743597"><ele>172.0</ele><time>2026-04-28T13:38:07.999Z</time></trkpt><trkpt lat="45.93910556547381" lon="4.768381227579108"><ele>172.0</ele><time>2026-04-28T13:38:08.999Z</time></trkpt><trkpt lat="45.939057894704" lon="4.768314180806544"><ele>172.0</ele><time>2026-04-28T13:38:09.999Z</time></trkpt><trkpt lat="45.93901108341626" lon="4.768251294132119"><ele>172.00000000000003</ele><time>2026-04-28T13:38:11Z</time></trkpt><trkpt lat="45.93896676631785" lon="4.768185394318681"><ele>172.0</ele><time>2026-04-28T13:38:12Z</time></trkpt><trkpt lat="45.938917584011755" lon="4.768123292099104"><ele>172.0</ele><time>2026-04-28T13:38:13Z</time></trkpt><trkpt lat="45.93887062893114" lon="4.768052225629524"><ele>172.0</ele><time>2026-04-28T13:38:14Z</time></trkpt><trkpt lat="45.938828334497984" lon="4.767973974628933"><ele>172.0</ele><time>2026-04-28T13:38:15Z</time></trkpt><trkpt lat="45.938784793486775" lon="4.767893331499592"><ele>172.0</ele><time>2026-04-28T13:38:16Z</time></trkpt><trkpt lat="45.93869721918156" lon="4.767755804865556"><ele>172.0</ele><time>2026-04-28T13:38:18Z</time></trkpt><trkpt lat="45.93860970283385" lon="4.767613129419032"><ele>172.0</ele><time>2026-04-28T13:38:20Z</time></trkpt><trkpt lat="45.93856949931976" lon="4.767539724900581"><ele>172.0</ele><time>2026-04-28T13:38:21Z</time></trkpt><trkpt lat="45.93848702704625" lon="4.767397249556621"><ele>172.0</ele><time>2026-04-28T13:38:23Z</time></trkpt><trkpt lat="45.93844218580688" lon="4.767320285232248"><ele>172.0</ele><time>2026-04-28T13:38:24Z</time></trkpt><trkpt lat="45.938399289215134" lon="4.76724981623678"><ele>172.0</ele><time>2026-04-28T13:38:25Z</time></trkpt><trkpt lat="45.938355008285846" lon="4.767183298986459"><ele>172.0</ele><time>2026-04-28T13:38:26Z</time></trkpt><trkpt lat="45.93830974047173" lon="4.7671117721781116"><ele>171.66666666666669</ele><time>2026-04-28T13:38:27Z</time></trkpt><trkpt lat="45.938270637211396" lon="4.767035184620334"><ele>171.33333333333334</ele><time>2026-04-28T13:38:28Z</time></trkpt><trkpt lat="45.9381925071655" lon="4.766887083832374"><ele>171.0</ele><time>2026-04-28T13:38:30Z</time></trkpt><trkpt lat="45.93815232444084" lon="4.766814663966485"><ele>170.66666666666666</ele><time>2026-04-28T13:38:31Z</time></trkpt><trkpt lat="45.93811751059812" lon="4.766736041215869"><ele>170.33333333333331</ele><time>2026-04-28T13:38:32Z</time></trkpt><trkpt lat="45.93808220354381" lon="4.766658477495983"><ele>170.0</ele><time>2026-04-28T13:38:33Z</time></trkpt><trkpt lat="45.93801188206702" lon="4.7665106582072925"><ele>170.0</ele><time>2026-04-28T13:38:35Z</time></trkpt><trkpt lat="45.9379430533171" lon="4.766357130308428"><ele>170.0</ele><time>2026-04-28T13:38:37Z</time></trkpt><trkpt lat="45.9379090729756" lon="4.766277798373683"><ele>170.0</ele><time>2026-04-28T13:38:38Z</time></trkpt><trkpt lat="45.93787429194339" lon="4.766197553524452"><ele>170.0</ele><time>2026-04-28T13:38:39Z</time></trkpt><trkpt lat="45.9378199096147" lon="4.766039782137131"><ele>170.0</ele><time>2026-04-28T13:38:41Z</time></trkpt><trkpt lat="45.93790276768916" lon="4.765835585187221"><ele>170.2</ele><time>2026-04-28T13:38:42Z</time></trkpt><trkpt lat="45.937842970431326" lon="4.765731254507545"><ele>170.4</ele><time>2026-04-28T13:38:44Z</time></trkpt><trkpt lat="45.937794401434" lon="4.765576292522153"><ele>170.60000000000002</ele><time>2026-04-28T13:38:46Z</time></trkpt><trkpt lat="45.93764942570555" lon="4.765572852330969"><ele>170.8</ele><time>2026-04-28T13:38:47Z</time></trkpt><trkpt lat="45.9376239115459" lon="4.765487005812838"><ele>171.0</ele><time>2026-04-28T13:38:48Z</time></trkpt><trkpt lat="45.93757531734969" lon="4.765339797147883"><ele>170.75</ele><time>2026-04-28T13:38:50Z</time></trkpt><trkpt lat="45.93752235523709" lon="4.765194227500049"><ele>170.5</ele><time>2026-04-28T13:38:52Z</time></trkpt><trkpt lat="45.937475111474086" lon="4.765046761540797"><ele>170.25</ele><time>2026-04-28T13:38:54Z</time></trkpt><trkpt lat="45.93742774047458" lon="4.7649007141197215"><ele>170.0</ele><time>2026-04-28T13:38:56Z</time></trkpt><trkpt lat="45.937369516968495" lon="4.764752807341577"><ele>170.0</ele><time>2026-04-28T13:38:58Z</time></trkpt><trkpt lat="45.93732265520544" lon="4.764614263674351"><ele>170.0</ele><time>2026-04-28T13:39:00Z</time></trkpt><trkpt lat="45.93727951651327" lon="4.764471146913518"><ele>170.0</ele><time>2026-04-28T13:39:02Z</time></trkpt><trkpt lat="45.937239652856576" lon="4.764325380390904"><ele>170.0</ele><time>2026-04-28T13:39:04Z</time></trkpt><trkpt lat="45.93719370873521" lon="4.764196268914079"><ele>170.0</ele><time>2026-04-28T13:39:06Z</time></trkpt><trkpt lat="45.93715263266297" lon="4.7640591482641215"><ele>170.2</ele><time>2026-04-28T13:39:08Z</time></trkpt><trkpt lat="45.93710271852858" lon="4.763920226596257"><ele>170.4</ele><time>2026-04-28T13:39:10Z</time></trkpt><trkpt lat="45.93705016403061" lon="4.76379233482325"><ele>170.60000000000002</ele><time>2026-04-28T13:39:12Z</time></trkpt><trkpt lat="45.937003392621186" lon="4.763662480371528"><ele>170.8</ele><time>2026-04-28T13:39:14Z</time></trkpt><trkpt lat="45.93695519049867" lon="4.763531257032446"><ele>171.0</ele><time>2026-04-28T13:39:16Z</time></trkpt><trkpt lat="45.93691509685668" lon="4.763391418893524"><ele>170.60000000000002</ele><time>2026-04-28T13:39:18Z</time></trkpt><trkpt lat="45.93687444105121" lon="4.763276143429903"><ele>170.2</ele><time>2026-04-28T13:39:20Z</time></trkpt><trkpt lat="45.93682674792897" lon="4.763168594572705"><ele>169.8</ele><time>2026-04-28T13:39:22Z</time></trkpt><trkpt lat="45.936795061238485" lon="4.763038830419443"><ele>169.39999999999998</ele><time>2026-04-28T13:39:23.999Z</time></trkpt><trkpt lat="45.93674886194461" lon="4.762905821828733"><ele>169.0</ele><time>2026-04-28T13:39:25.999Z</time></trkpt><trkpt lat="45.93670821427543" lon="4.76277776851073"><ele>169.2</ele><time>2026-04-28T13:39:27.999Z</time></trkpt><trkpt lat="45.93665959697753" lon="4.762642254493889"><ele>169.39999999999998</ele><time>2026-04-28T13:39:29.999Z</time></trkpt><trkpt lat="45.93661878887335" lon="4.762497953555355"><ele>169.6</ele><time>2026-04-28T13:39:31.999Z</time></trkpt><trkpt lat="45.936564953264615" lon="4.762352534603729"><ele>169.8</ele><time>2026-04-28T13:39:33.999Z</time></trkpt><trkpt lat="45.93652590286059" lon="4.7622171147211585"><ele>170.0</ele><time>2026-04-28T13:39:35.999Z</time></trkpt><trkpt lat="45.93648672929495" lon="4.76210367978042"><ele>170.0</ele><time>2026-04-28T13:39:38.999Z</time></trkpt><trkpt lat="45.93642535140751" lon="4.761916866118549"><ele>170.0</ele><time>2026-04-28T13:39:40.999Z</time></trkpt><trkpt lat="45.936390109958175" lon="4.761830084218112"><ele>170.0</ele><time>2026-04-28T13:39:41.999Z</time></trkpt><trkpt lat="45.93633617399647" lon="4.761686638553605"><ele>170.0</ele><time>2026-04-28T13:39:43.999Z</time></trkpt><trkpt lat="45.9362826911438" lon="4.761539214089193"><ele>170.0</ele><time>2026-04-28T13:39:45.999Z</time></trkpt><trkpt lat="45.93623620713839" lon="4.761381469770213"><ele>170.0</ele><time>2026-04-28T13:39:47.999Z</time></trkpt><trkpt lat="45.936183277874186" lon="4.761242088910409"><ele>170.0</ele><time>2026-04-28T13:39:49.999Z</time></trkpt><trkpt lat="45.9361348013162" lon="4.761092350842505"><ele>170.0</ele><time>2026-04-28T13:39:51.999Z</time></trkpt><trkpt lat="45.93608378219549" lon="4.760941871363573"><ele>170.0</ele><time>2026-04-28T13:39:53.999Z</time></trkpt><trkpt lat="45.9360386201067" lon="4.760799582837599"><ele>170.0</ele><time>2026-04-28T13:39:55.999Z</time></trkpt><trkpt lat="45.936021539003605" lon="4.760710177292288"><ele>170.0</ele><time>2026-04-28T13:39:56.999Z</time></trkpt><trkpt lat="45.93596538713532" lon="4.760560800207342"><ele>170.0</ele><time>2026-04-28T13:39:58.999Z</time></trkpt><trkpt lat="45.93590386819542" lon="4.760429512023222"><ele>170.0</ele><time>2026-04-28T13:40:00.999Z</time></trkpt><trkpt lat="45.93585046049534" lon="4.760279093901798"><ele>170.0</ele><time>2026-04-28T13:40:02.999Z</time></trkpt><trkpt lat="45.935796275933704" lon="4.76011845324126"><ele>170.0</ele><time>2026-04-28T13:40:04.999Z</time></trkpt><trkpt lat="45.93574088648818" lon="4.759980182537805"><ele>170.0</ele><time>2026-04-28T13:40:06.999Z</time></trkpt><trkpt lat="45.935716186722445" lon="4.7598953287027665"><ele>170.0</ele><time>2026-04-28T13:40:07.999Z</time></trkpt><trkpt lat="45.935661412533236" lon="4.759751174440542"><ele>170.0</ele><time>2026-04-28T13:40:09.999Z</time></trkpt><trkpt lat="45.935607104665955" lon="4.759594507169948"><ele>170.0</ele><time>2026-04-28T13:40:11.999Z</time></trkpt><trkpt lat="45.93556789016881" lon="4.759438943589119"><ele>170.0</ele><time>2026-04-28T13:40:13.999Z</time></trkpt><trkpt lat="45.93552641852988" lon="4.759275226567124"><ele>170.0</ele><time>2026-04-28T13:40:15.999Z</time></trkpt><trkpt lat="45.935464454954584" lon="4.75912222284478"><ele>170.0</ele><time>2026-04-28T13:40:18Z</time></trkpt><trkpt lat="45.935417073301124" lon="4.758984361985564"><ele>170.0</ele><time>2026-04-28T13:40:20Z</time></trkpt><trkpt lat="45.935379204132325" lon="4.758860299497157"><ele>170.0</ele><time>2026-04-28T13:40:22Z</time></trkpt><trkpt lat="45.93533053340712" lon="4.758718725447674"><ele>170.0</ele><time>2026-04-28T13:40:24Z</time></trkpt><trkpt lat="45.93529636004573" lon="4.758564392662175"><ele>170.0</ele><time>2026-04-28T13:40:26Z</time></trkpt><trkpt lat="45.93528287591449" lon="4.7584695523855105"><ele>170.0</ele><time>2026-04-28T13:40:27Z</time></trkpt><trkpt lat="45.93526799332664" lon="4.758311815350965"><ele>170.0</ele><time>2026-04-28T13:40:29Z</time></trkpt><trkpt lat="45.93525467173899" lon="4.758142602780806"><ele>170.0</ele><time>2026-04-28T13:40:31Z</time></trkpt><trkpt lat="45.93524023452353" lon="4.757984898503625"><ele>170.6</ele><time>2026-04-28T13:40:33Z</time></trkpt><trkpt lat="45.93522556225815" lon="4.75788567449353"><ele>171.2</ele><time>2026-04-28T13:40:34Z</time></trkpt><trkpt lat="45.935253683279456" lon="4.757716164394062"><ele>171.8</ele><time>2026-04-28T13:40:36Z</time></trkpt><trkpt lat="45.93529419911723" lon="4.7575614096669785"><ele>172.4</ele><time>2026-04-28T13:40:38Z</time></trkpt><trkpt lat="45.93531697817485" lon="4.757398008532879"><ele>173.0</ele><time>2026-04-28T13:40:40Z</time></trkpt><trkpt lat="45.93533237444867" lon="4.75725337459184"><ele>173.25</ele><time>2026-04-28T13:40:42Z</time></trkpt><trkpt lat="45.93535876461333" lon="4.757086957987983"><ele>173.5</ele><time>2026-04-28T13:40:44Z</time></trkpt><trkpt lat="45.935384370035415" lon="4.756936424917342"><ele>173.75</ele><time>2026-04-28T13:40:46Z</time></trkpt><trkpt lat="45.93542574666003" lon="4.756782566699758"><ele>174.0</ele><time>2026-04-28T13:40:48Z</time></trkpt><trkpt lat="45.93544560233382" lon="4.756624991201567"><ele>174.0</ele><time>2026-04-28T13:40:50Z</time></trkpt><trkpt lat="45.93547506315822" lon="4.756473956204989"><ele>174.0</ele><time>2026-04-28T13:40:52Z</time></trkpt><trkpt lat="45.935500860044726" lon="4.756317281147368"><ele>174.0</ele><time>2026-04-28T13:40:54Z</time></trkpt><trkpt lat="45.93552075034834" lon="4.7561542825392"><ele>174.0</ele><time>2026-04-28T13:40:56Z</time></trkpt><trkpt lat="45.935538381101665" lon="4.756009375826987"><ele>174.0</ele><time>2026-04-28T13:40:58Z</time></trkpt><trkpt lat="45.93556711804624" lon="4.755854933565626"><ele>173.5</ele><time>2026-04-28T13:41:00Z</time></trkpt><trkpt lat="45.93560746611743" lon="4.755697170726852"><ele>173.0</ele><time>2026-04-28T13:41:02Z</time></trkpt><trkpt lat="45.935633855041125" lon="4.755534801472341"><ele>172.5</ele><time>2026-04-28T13:41:04Z</time></trkpt><trkpt lat="45.93566752097018" lon="4.7553722044858215"><ele>172.0</ele><time>2026-04-28T13:41:06Z</time></trkpt><trkpt lat="45.935686662815144" lon="4.755225573293244"><ele>171.6</ele><time>2026-04-28T13:41:08Z</time></trkpt><trkpt lat="45.935706471788116" lon="4.755137387609665"><ele>171.2</ele><time>2026-04-28T13:41:09Z</time></trkpt><trkpt lat="45.9357300435991" lon="4.75498027495611"><ele>170.8</ele><time>2026-04-28T13:41:11Z</time></trkpt><trkpt lat="45.93575627800912" lon="4.754821083029895"><ele>170.4</ele><time>2026-04-28T13:41:13Z</time></trkpt><trkpt lat="45.93577499279967" lon="4.754654489852736"><ele>170.0</ele><time>2026-04-28T13:41:15Z</time></trkpt><trkpt lat="45.93580647651832" lon="4.754483573390825"><ele>169.8</ele><time>2026-04-28T13:41:17Z</time></trkpt><trkpt lat="45.935838468023114" lon="4.754316412016955"><ele>169.6</ele><time>2026-04-28T13:41:19Z</time></trkpt><trkpt lat="45.93586777932291" lon="4.7541459716902486"><ele>169.39999999999998</ele><time>2026-04-28T13:41:21Z</time></trkpt><trkpt lat="45.93588444190245" lon="4.754057986674326"><ele>169.2</ele><time>2026-04-28T13:41:22Z</time></trkpt><trkpt lat="45.93590762561849" lon="4.7538853665574115"><ele>169.0</ele><time>2026-04-28T13:41:24Z</time></trkpt><trkpt lat="45.93593509840496" lon="4.753711966296327"><ele>169.0</ele><time>2026-04-28T13:41:26Z</time></trkpt><trkpt lat="45.935956338091565" lon="4.753551894149673"><ele>169.0</ele><time>2026-04-28T13:41:27.999Z</time></trkpt><trkpt lat="45.9359849760438" lon="4.753401493194343"><ele>169.0</ele><time>2026-04-28T13:41:29.999Z</time></trkpt><trkpt lat="45.935998557306874" lon="4.75331149076143"><ele>169.0</ele><time>2026-04-28T13:41:30.999Z</time></trkpt><trkpt lat="45.93601505304374" lon="4.753220669871264"><ele>169.0</ele><time>2026-04-28T13:41:31.999Z</time></trkpt><trkpt lat="45.93603662749306" lon="4.753051468699458"><ele>169.0</ele><time>2026-04-28T13:41:33.999Z</time></trkpt><trkpt lat="45.9360630163925" lon="4.752957535925486"><ele>169.0</ele><time>2026-04-28T13:41:34.999Z</time></trkpt><trkpt lat="45.93607610556088" lon="4.752796474510594"><ele>169.0</ele><time>2026-04-28T13:41:36.999Z</time></trkpt><trkpt lat="45.93609515173686" lon="4.752709197726152"><ele>169.0</ele><time>2026-04-28T13:41:37.999Z</time></trkpt><trkpt lat="45.93612581624928" lon="4.752618218374652"><ele>169.0</ele><time>2026-04-28T13:41:38.999Z</time></trkpt><trkpt lat="45.93614736986807" lon="4.752531844475855"><ele>169.0</ele><time>2026-04-28T13:41:39.999Z</time></trkpt><trkpt lat="45.936168774591906" lon="4.752442960043636"><ele>169.0</ele><time>2026-04-28T13:41:40.999Z</time></trkpt><trkpt lat="45.93618584567352" lon="4.75234658135738"><ele>169.0</ele><time>2026-04-28T13:41:41.999Z</time></trkpt><trkpt lat="45.93622095558051" lon="4.752183764104457"><ele>169.0</ele><time>2026-04-28T13:41:43.999Z</time></trkpt><trkpt lat="45.93624778822992" lon="4.752101324767829"><ele>169.0</ele><time>2026-04-28T13:41:44.999Z</time></trkpt><trkpt lat="45.93627876717056" lon="4.752019327654909"><ele>169.0</ele><time>2026-04-28T13:41:45.999Z</time></trkpt><trkpt lat="45.936307019926055" lon="4.751929099792447"><ele>169.0</ele><time>2026-04-28T13:41:46.999Z</time></trkpt><trkpt lat="45.93633801422892" lon="4.751838470811308"><ele>169.0</ele><time>2026-04-28T13:41:47.999Z</time></trkpt><trkpt lat="45.936402380246776" lon="4.751681476610849"><ele>169.0</ele><time>2026-04-28T13:41:49.999Z</time></trkpt><trkpt lat="45.93643840883605" lon="4.7515988008036905"><ele>169.0</ele><time>2026-04-28T13:41:50.999Z</time></trkpt><trkpt lat="45.936471941214336" lon="4.751506740319641"><ele>169.0</ele><time>2026-04-28T13:41:51.999Z</time></trkpt><trkpt lat="45.93654475244454" lon="4.751354429040406"><ele>169.0</ele><time>2026-04-28T13:41:53.999Z</time></trkpt><trkpt lat="45.936574884108914" lon="4.751269795561342"><ele>169.0</ele><time>2026-04-28T13:41:54.999Z</time></trkpt><trkpt lat="45.93663731469318" lon="4.7511050037363045"><ele>168.6</ele><time>2026-04-28T13:41:56.999Z</time></trkpt><trkpt lat="45.93666652634501" lon="4.751021518919171"><ele>168.2</ele><time>2026-04-28T13:41:57.999Z</time></trkpt><trkpt lat="45.93674118043656" lon="4.75087643297144"><ele>167.79999999999998</ele><time>2026-04-28T13:41:59.999Z</time></trkpt><trkpt lat="45.936809658946586" lon="4.750728684995187"><ele>167.39999999999998</ele><time>2026-04-28T13:42:01.999Z</time></trkpt><trkpt lat="45.93688581941589" lon="4.750581546619341"><ele>167.0</ele><time>2026-04-28T13:42:03.999Z</time></trkpt><trkpt lat="45.936924526975446" lon="4.750507252523293"><ele>167.0</ele><time>2026-04-28T13:42:04.999Z</time></trkpt><trkpt lat="45.93696253215603" lon="4.750429767483357"><ele>167.0</ele><time>2026-04-28T13:42:05.999Z</time></trkpt><trkpt lat="45.93699757083361" lon="4.750351240497164"><ele>167.0</ele><time>2026-04-28T13:42:06.999Z</time></trkpt><trkpt lat="45.937027589208206" lon="4.750257283741952"><ele>167.0</ele><time>2026-04-28T13:42:07.999Z</time></trkpt><trkpt lat="45.9370922200682" lon="4.7501084471185"><ele>167.0</ele><time>2026-04-28T13:42:09.999Z</time></trkpt><trkpt lat="45.937130474210626" lon="4.750031508601549"><ele>167.0</ele><time>2026-04-28T13:42:10.999Z</time></trkpt><trkpt lat="45.937196002215224" lon="4.749890052274196"><ele>167.39999999999998</ele><time>2026-04-28T13:42:12.999Z</time></trkpt><trkpt lat="45.93725656337466" lon="4.749750241286744"><ele>167.79999999999998</ele><time>2026-04-28T13:42:14.999Z</time></trkpt><trkpt lat="45.937311363027725" lon="4.749618750606026"><ele>168.2</ele><time>2026-04-28T13:42:16.999Z</time></trkpt><trkpt lat="45.937361906976676" lon="4.749489937593457"><ele>168.6</ele><time>2026-04-28T13:42:18.999Z</time></trkpt><trkpt lat="45.93743057158347" lon="4.749351243057591"><ele>169.0</ele><time>2026-04-28T13:42:20.999Z</time></trkpt><trkpt lat="45.93749515983983" lon="4.749217595891412"><ele>169.0</ele><time>2026-04-28T13:42:23Z</time></trkpt><trkpt lat="45.93757250820801" lon="4.749083820550799"><ele>169.0</ele><time>2026-04-28T13:42:25Z</time></trkpt><trkpt lat="45.937650812146536" lon="4.7489529373428"><ele>169.0</ele><time>2026-04-28T13:42:27Z</time></trkpt><trkpt lat="45.93773239695516" lon="4.748816105727724"><ele>169.0</ele><time>2026-04-28T13:42:29Z</time></trkpt><trkpt lat="45.93777543943278" lon="4.748749345391174"><ele>169.0</ele><time>2026-04-28T13:42:30Z</time></trkpt><trkpt lat="45.93785789691207" lon="4.748616039559743"><ele>168.79999999999998</ele><time>2026-04-28T13:42:32Z</time></trkpt><trkpt lat="45.93793474659152" lon="4.748473367444334"><ele>168.6</ele><time>2026-04-28T13:42:34Z</time></trkpt><trkpt lat="45.93802244596737" lon="4.748329809615761"><ele>168.4</ele><time>2026-04-28T13:42:36Z</time></trkpt><trkpt lat="45.93806476731676" lon="4.748255529291582"><ele>168.2</ele><time>2026-04-28T13:42:37Z</time></trkpt><trkpt lat="45.93810448796611" lon="4.748177841632635"><ele>168.0</ele><time>2026-04-28T13:42:38Z</time></trkpt><trkpt lat="45.9381428737166" lon="4.748090529191283"><ele>168.0</ele><time>2026-04-28T13:42:39Z</time></trkpt><trkpt lat="45.938171641988625" lon="4.7480078298622725"><ele>168.0</ele><time>2026-04-28T13:42:40Z</time></trkpt><trkpt lat="45.93821997169145" lon="4.747920697354029"><ele>168.0</ele><time>2026-04-28T13:42:41Z</time></trkpt><trkpt lat="45.938253521235836" lon="4.747831888320974"><ele>168.0</ele><time>2026-04-28T13:42:42Z</time></trkpt><trkpt lat="45.938301327062284" lon="4.747764898810871"><ele>168.0</ele><time>2026-04-28T13:42:43Z</time></trkpt><trkpt lat="45.93833552131994" lon="4.74768567102392"><ele>168.0</ele><time>2026-04-28T13:42:44Z</time></trkpt><trkpt lat="45.93837603814291" lon="4.747592378744725"><ele>168.0</ele><time>2026-04-28T13:42:45Z</time></trkpt><trkpt lat="45.93840799530002" lon="4.747502759337177"><ele>168.0</ele><time>2026-04-28T13:42:46Z</time></trkpt><trkpt lat="45.93844478170314" lon="4.747398843812607"><ele>168.0</ele><time>2026-04-28T13:42:47Z</time></trkpt><trkpt lat="45.938485982041904" lon="4.747310157993619"><ele>168.0</ele><time>2026-04-28T13:42:48Z</time></trkpt><trkpt lat="45.93852792631386" lon="4.747231774338573"><ele>168.0</ele><time>2026-04-28T13:42:49Z</time></trkpt><trkpt lat="45.938565574241586" lon="4.747143121884369"><ele>168.0</ele><time>2026-04-28T13:42:50Z</time></trkpt><trkpt lat="45.93859385286202" lon="4.74704981203016"><ele>168.0</ele><time>2026-04-28T13:42:51Z</time></trkpt><trkpt lat="45.93863011344846" lon="4.746961066118975"><ele>168.0</ele><time>2026-04-28T13:42:52Z</time></trkpt><trkpt lat="45.93866646868364" lon="4.74687438566476"><ele>168.28571428571428</ele><time>2026-04-28T13:42:53Z</time></trkpt><trkpt lat="45.93870234561827" lon="4.74679082494243"><ele>168.57142857142856</ele><time>2026-04-28T13:42:54Z</time></trkpt><trkpt lat="45.9387327263622" lon="4.7466963773030795"><ele>168.85714285714286</ele><time>2026-04-28T13:42:55Z</time></trkpt><trkpt lat="45.93876200240717" lon="4.746603653476055"><ele>169.14285714285714</ele><time>2026-04-28T13:42:56Z</time></trkpt><trkpt lat="45.938795303251695" lon="4.746513258857205"><ele>169.42857142857142</ele><time>2026-04-28T13:42:57Z</time></trkpt><trkpt lat="45.938824585934015" lon="4.746420190991078"><ele>169.71428571428572</ele><time>2026-04-28T13:42:58Z</time></trkpt><trkpt lat="45.938851412228" lon="4.746330168748432"><ele>170.0</ele><time>2026-04-28T13:42:59Z</time></trkpt><trkpt lat="45.93887775293266" lon="4.746241065675278"><ele>170.0</ele><time>2026-04-28T13:43:00Z</time></trkpt><trkpt lat="45.938900968511795" lon="4.746149815177228"><ele>170.0</ele><time>2026-04-28T13:43:01Z</time></trkpt><trkpt lat="45.93892638625684" lon="4.746064892275738"><ele>170.0</ele><time>2026-04-28T13:43:02Z</time></trkpt><trkpt lat="45.93895524802196" lon="4.745975346843046"><ele>170.0</ele><time>2026-04-28T13:43:03Z</time></trkpt><trkpt lat="45.938998881730875" lon="4.745799050877999"><ele>170.0</ele><time>2026-04-28T13:43:05Z</time></trkpt><trkpt lat="45.93901707669788" lon="4.745705757977965"><ele>170.0</ele><time>2026-04-28T13:43:06Z</time></trkpt><trkpt lat="45.9390494645049" lon="4.74553809590652"><ele>170.0</ele><time>2026-04-28T13:43:08Z</time></trkpt><trkpt lat="45.9390698381943" lon="4.74536932048372"><ele>170.0</ele><time>2026-04-28T13:43:10Z</time></trkpt><trkpt lat="45.93908323799426" lon="4.7451943493005295"><ele>170.0</ele><time>2026-04-28T13:43:12Z</time></trkpt><trkpt lat="45.9390886150816" lon="4.745102253764427"><ele>170.0</ele><time>2026-04-28T13:43:13Z</time></trkpt><trkpt lat="45.93910044091333" lon="4.744918842256021"><ele>170.0</ele><time>2026-04-28T13:43:15Z</time></trkpt><trkpt lat="45.93910821515219" lon="4.744741528178106"><ele>170.0</ele><time>2026-04-28T13:43:17Z</time></trkpt><trkpt lat="45.939115058279924" lon="4.744650415174741"><ele>170.0</ele><time>2026-04-28T13:43:18Z</time></trkpt><trkpt lat="45.93910391012864" lon="4.7444772187041035"><ele>170.0</ele><time>2026-04-28T13:43:20Z</time></trkpt><trkpt lat="45.939100920077756" lon="4.74437528331833"><ele>170.0</ele><time>2026-04-28T13:43:21Z</time></trkpt><trkpt lat="45.93909260532682" lon="4.744282984226489"><ele>170.0</ele><time>2026-04-28T13:43:22Z</time></trkpt><trkpt lat="45.93908150413397" lon="4.744190534542691"><ele>170.0</ele><time>2026-04-28T13:43:23Z</time></trkpt><trkpt lat="45.93907719450533" lon="4.7440997432424465"><ele>170.0</ele><time>2026-04-28T13:43:24Z</time></trkpt><trkpt lat="45.939061422841995" lon="4.743926777560705"><ele>170.0</ele><time>2026-04-28T13:43:26Z</time></trkpt><trkpt lat="45.939052356585854" lon="4.743836370428414"><ele>170.0</ele><time>2026-04-28T13:43:26.999Z</time></trkpt><trkpt lat="45.93904523257186" lon="4.743662528852564"><ele>170.0</ele><time>2026-04-28T13:43:28.999Z</time></trkpt><trkpt lat="45.93904641695761" lon="4.743492539599878"><ele>170.0</ele><time>2026-04-28T13:43:30.999Z</time></trkpt><trkpt lat="45.939048195053076" lon="4.743392054135711"><ele>170.0</ele><time>2026-04-28T13:43:31.999Z</time></trkpt><trkpt lat="45.93903955657023" lon="4.74321644981359"><ele>170.0</ele><time>2026-04-28T13:43:33.999Z</time></trkpt><trkpt lat="45.93903736287761" lon="4.743037630011294"><ele>170.0</ele><time>2026-04-28T13:43:35.999Z</time></trkpt><trkpt lat="45.93904199570216" lon="4.742944557479455"><ele>170.0</ele><time>2026-04-28T13:43:36.999Z</time></trkpt><trkpt lat="45.93904917738722" lon="4.742851088371276"><ele>170.0</ele><time>2026-04-28T13:43:37.999Z</time></trkpt><trkpt lat="45.93905824382725" lon="4.742667798973059"><ele>170.0</ele><time>2026-04-28T13:43:39.999Z</time></trkpt><trkpt lat="45.939061309319996" lon="4.742488165521386"><ele>170.0</ele><time>2026-04-28T13:43:41.999Z</time></trkpt><trkpt lat="45.939074876529695" lon="4.7423106512856235"><ele>170.0</ele><time>2026-04-28T13:43:43.999Z</time></trkpt><trkpt lat="45.93908012414697" lon="4.742216420093125"><ele>170.0</ele><time>2026-04-28T13:43:44.999Z</time></trkpt><trkpt lat="45.93909427637786" lon="4.742034392337055"><ele>170.0</ele><time>2026-04-28T13:43:46.999Z</time></trkpt><trkpt lat="45.93909608227213" lon="4.741942205059538"><ele>170.0</ele><time>2026-04-28T13:43:47.999Z</time></trkpt><trkpt lat="45.939104923217876" lon="4.74185079437656"><ele>170.0</ele><time>2026-04-28T13:43:48.999Z</time></trkpt><trkpt lat="45.93912030914884" lon="4.741673248382498"><ele>170.0</ele><time>2026-04-28T13:43:50.999Z</time></trkpt><trkpt lat="45.93913541935574" lon="4.741492705171135"><ele>170.0</ele><time>2026-04-28T13:43:52.999Z</time></trkpt><trkpt lat="45.93914133174456" lon="4.741394696210456"><ele>170.0</ele><time>2026-04-28T13:43:53.999Z</time></trkpt><trkpt lat="45.939148382873896" lon="4.741301144487432"><ele>170.0</ele><time>2026-04-28T13:43:54.999Z</time></trkpt><trkpt lat="45.9391555311707" lon="4.741207421119784"><ele>170.0</ele><time>2026-04-28T13:43:55.999Z</time></trkpt><trkpt lat="45.93916104155003" lon="4.741117183272622"><ele>170.0</ele><time>2026-04-28T13:43:56.999Z</time></trkpt><trkpt lat="45.939172484548386" lon="4.740937319546186"><ele>170.0</ele><time>2026-04-28T13:43:58.999Z</time></trkpt><trkpt lat="45.939183516306024" lon="4.740848058467411"><ele>170.0</ele><time>2026-04-28T13:43:59.999Z</time></trkpt><trkpt lat="45.93919023238115" lon="4.740757603785173"><ele>170.0</ele><time>2026-04-28T13:44:00.999Z</time></trkpt><trkpt lat="45.93920741044899" lon="4.740579999462164"><ele>170.0</ele><time>2026-04-28T13:44:02.999Z</time></trkpt><trkpt lat="45.93922668648662" lon="4.740407912085942"><ele>170.0</ele><time>2026-04-28T13:44:04.999Z</time></trkpt><trkpt lat="45.93923112624412" lon="4.7403119228447865"><ele>170.0</ele><time>2026-04-28T13:44:05.999Z</time></trkpt><trkpt lat="45.9392453851324" lon="4.74012923154086"><ele>170.14285714285714</ele><time>2026-04-28T13:44:07.999Z</time></trkpt><trkpt lat="45.939256128842466" lon="4.7400389178389934"><ele>170.28571428571428</ele><time>2026-04-28T13:44:08.999Z</time></trkpt><trkpt lat="45.939264505241994" lon="4.7399485286473775"><ele>170.42857142857142</ele><time>2026-04-28T13:44:09.999Z</time></trkpt><trkpt lat="45.93927529140027" lon="4.739858954456779"><ele>170.57142857142856</ele><time>2026-04-28T13:44:10.999Z</time></trkpt><trkpt lat="45.93928478158314" lon="4.739766863858885"><ele>170.71428571428572</ele><time>2026-04-28T13:44:11.999Z</time></trkpt><trkpt lat="45.93929190515478" lon="4.7396747496996445"><ele>170.85714285714283</ele><time>2026-04-28T13:44:12.999Z</time></trkpt><trkpt lat="45.93931244166212" lon="4.739504325464882"><ele>171.0</ele><time>2026-04-28T13:44:14.999Z</time></trkpt><trkpt lat="45.939331070941634" lon="4.739327978125176"><ele>171.33333333333334</ele><time>2026-04-28T13:44:16.999Z</time></trkpt><trkpt lat="45.93934568852906" lon="4.739237473004072"><ele>171.66666666666666</ele><time>2026-04-28T13:44:17.999Z</time></trkpt><trkpt lat="45.939374031272706" lon="4.739055596396655"><ele>172.0</ele><time>2026-04-28T13:44:19.999Z</time></trkpt><trkpt lat="45.939383776884725" lon="4.738961408960634"><ele>172.33333333333331</ele><time>2026-04-28T13:44:20.999Z</time></trkpt><trkpt lat="45.93939284733046" lon="4.738868552768255"><ele>172.66666666666666</ele><time>2026-04-28T13:44:21.999Z</time></trkpt><trkpt lat="45.93940617261928" lon="4.738776102316433"><ele>173.0</ele><time>2026-04-28T13:44:22.999Z</time></trkpt><trkpt lat="45.93941896359821" lon="4.738685804709212"><ele>173.0</ele><time>2026-04-28T13:44:23.999Z</time></trkpt><trkpt lat="45.939428510246906" lon="4.738595844687078"><ele>173.0</ele><time>2026-04-28T13:44:24.999Z</time></trkpt><trkpt lat="45.93943415940847" lon="4.738502413145043"><ele>173.0</ele><time>2026-04-28T13:44:25.999Z</time></trkpt><trkpt lat="45.93944445564703" lon="4.738411165447117"><ele>173.0</ele><time>2026-04-28T13:44:26.999Z</time></trkpt><trkpt lat="45.93945222159773" lon="4.738320001966722"><ele>173.0</ele><time>2026-04-28T13:44:27.999Z</time></trkpt><trkpt lat="45.93947214644025" lon="4.7381443484093815"><ele>173.0</ele><time>2026-04-28T13:44:30Z</time></trkpt><trkpt lat="45.939490736858275" lon="4.737970866882875"><ele>173.0</ele><time>2026-04-28T13:44:32Z</time></trkpt><trkpt lat="45.939501286162795" lon="4.737870296006135"><ele>173.0</ele><time>2026-04-28T13:44:33Z</time></trkpt><trkpt lat="45.93951948195074" lon="4.737696285603337"><ele>173.0</ele><time>2026-04-28T13:44:35Z</time></trkpt><trkpt lat="45.93953605295462" lon="4.7375301199358475"><ele>173.0</ele><time>2026-04-28T13:44:37Z</time></trkpt><trkpt lat="45.93954557986277" lon="4.737392703120395"><ele>173.0</ele><time>2026-04-28T13:44:39Z</time></trkpt><trkpt lat="45.93956218895946" lon="4.73725195506495"><ele>173.0</ele><time>2026-04-28T13:44:41Z</time></trkpt><trkpt lat="45.939564671192265" lon="4.737109537221386"><ele>173.0</ele><time>2026-04-28T13:44:43Z</time></trkpt><trkpt lat="45.93958625702622" lon="4.736974553363042"><ele>173.0</ele><time>2026-04-28T13:44:45Z</time></trkpt><trkpt lat="45.939616841712386" lon="4.736837418844597"><ele>173.0</ele><time>2026-04-28T13:44:47Z</time></trkpt><trkpt lat="45.93964640522512" lon="4.736680423705084"><ele>173.0</ele><time>2026-04-28T13:44:49Z</time></trkpt><trkpt lat="45.939669904150996" lon="4.736517996410053"><ele>172.8</ele><time>2026-04-28T13:44:51Z</time></trkpt><trkpt lat="45.939702242068684" lon="4.736360746970726"><ele>172.60000000000002</ele><time>2026-04-28T13:44:53Z</time></trkpt><trkpt lat="45.93971839504041" lon="4.736269825712036"><ele>172.39999999999998</ele><time>2026-04-28T13:44:54Z</time></trkpt><trkpt lat="45.93975703658105" lon="4.736101052773479"><ele>172.2</ele><time>2026-04-28T13:44:56Z</time></trkpt><trkpt lat="45.939776323585725" lon="4.73601454892208"><ele>172.0</ele><time>2026-04-28T13:44:57Z</time></trkpt><trkpt lat="45.93982229848832" lon="4.735855449980425"><ele>171.66666666666669</ele><time>2026-04-28T13:44:59Z</time></trkpt><trkpt lat="45.93985163775408" lon="4.735765792242095"><ele>171.33333333333334</ele><time>2026-04-28T13:45:00Z</time></trkpt><trkpt lat="45.93988237294475" lon="4.735684336271522"><ele>171.0</ele><time>2026-04-28T13:45:01Z</time></trkpt><trkpt lat="45.9399384561792" lon="4.7355218921096025"><ele>170.66666666666666</ele><time>2026-04-28T13:45:03Z</time></trkpt><trkpt lat="45.939970911549906" lon="4.735437373851015"><ele>170.33333333333331</ele><time>2026-04-28T13:45:04Z</time></trkpt><trkpt lat="45.940008548316236" lon="4.735359493621404"><ele>170.0</ele><time>2026-04-28T13:45:05Z</time></trkpt><trkpt lat="45.94004261381585" lon="4.7352737309336"><ele>171.16666666666666</ele><time>2026-04-28T13:45:06Z</time></trkpt><trkpt lat="45.94007685155265" lon="4.735195311132609"><ele>172.33333333333331</ele><time>2026-04-28T13:45:07Z</time></trkpt><trkpt lat="45.940114472311926" lon="4.735113044268744"><ele>173.5</ele><time>2026-04-28T13:45:08Z</time></trkpt><trkpt lat="45.94019562078163" lon="4.734970243939407"><ele>174.66666666666666</ele><time>2026-04-28T13:45:10Z</time></trkpt><trkpt lat="45.94023965887465" lon="4.734901617063988"><ele>175.83333333333334</ele><time>2026-04-28T13:45:11Z</time></trkpt><trkpt lat="45.94027925003894" lon="4.734827099936675"><ele>177.0</ele><time>2026-04-28T13:45:12Z</time></trkpt><trkpt lat="45.94031961699448" lon="4.734756901413475"><ele>177.0</ele><time>2026-04-28T13:45:13Z</time></trkpt><trkpt lat="45.94036273506292" lon="4.734682904109721"><ele>177.0</ele><time>2026-04-28T13:45:14Z</time></trkpt><trkpt lat="45.94043847994584" lon="4.7345441981794245"><ele>177.0</ele><time>2026-04-28T13:45:16Z</time></trkpt><trkpt lat="45.940477698005814" lon="4.734471386297335"><ele>177.0</ele><time>2026-04-28T13:45:17Z</time></trkpt><trkpt lat="45.94055729687646" lon="4.734337645675191"><ele>177.0</ele><time>2026-04-28T13:45:19Z</time></trkpt><trkpt lat="45.94063144393679" lon="4.734197885974601"><ele>177.25</ele><time>2026-04-28T13:45:21Z</time></trkpt><trkpt lat="45.94070236238331" lon="4.734064580414346"><ele>177.5</ele><time>2026-04-28T13:45:23Z</time></trkpt><trkpt lat="45.94077902377836" lon="4.7339492164449535"><ele>177.75</ele><time>2026-04-28T13:45:25Z</time></trkpt><trkpt lat="45.940849137125575" lon="4.733832060594433"><ele>178.0</ele><time>2026-04-28T13:45:27Z</time></trkpt><trkpt lat="45.94093038411388" lon="4.733707611534122"><ele>178.0</ele><time>2026-04-28T13:45:29Z</time></trkpt><trkpt lat="45.94101194108322" lon="4.733592427811909"><ele>178.0</ele><time>2026-04-28T13:45:31Z</time></trkpt><trkpt lat="45.94109001221609" lon="4.733469061865174"><ele>178.0</ele><time>2026-04-28T13:45:33Z</time></trkpt><trkpt lat="45.94116067683859" lon="4.733360011159374"><ele>178.0</ele><time>2026-04-28T13:45:35Z</time></trkpt><trkpt lat="45.94123016690222" lon="4.733247171984128"><ele>178.0</ele><time>2026-04-28T13:45:36.999Z</time></trkpt><trkpt lat="45.9413035572915" lon="4.733153761582377"><ele>177.0</ele><time>2026-04-28T13:45:38.999Z</time></trkpt><trkpt lat="45.94136264761218" lon="4.733055660610711"><ele>176.0</ele><time>2026-04-28T13:45:40.999Z</time></trkpt><trkpt lat="45.941432402155044" lon="4.732970403757398"><ele>175.0</ele><time>2026-04-28T13:45:42.999Z</time></trkpt><trkpt lat="45.94150815605834" lon="4.732869123036991"><ele>174.0</ele><time>2026-04-28T13:45:44.999Z</time></trkpt><trkpt lat="45.94158860029695" lon="4.7327720476028725"><ele>173.0</ele><time>2026-04-28T13:45:46.999Z</time></trkpt><trkpt lat="45.9416762406469" lon="4.732678896190603"><ele>173.0</ele><time>2026-04-28T13:45:48.999Z</time></trkpt><trkpt lat="45.941773024295955" lon="4.7325950185159344"><ele>173.0</ele><time>2026-04-28T13:45:50.999Z</time></trkpt><trkpt lat="45.94186187480988" lon="4.732506510907277"><ele>173.0</ele><time>2026-04-28T13:45:52.999Z</time></trkpt><trkpt lat="45.941966304479116" lon="4.732405805271334"><ele>173.0</ele><time>2026-04-28T13:45:54.999Z</time></trkpt><trkpt lat="45.94206209707835" lon="4.73232675262412"><ele>173.0</ele><time>2026-04-28T13:45:56.999Z</time></trkpt><trkpt lat="45.942164021968736" lon="4.732236621759304"><ele>173.0</ele><time>2026-04-28T13:45:58.999Z</time></trkpt><trkpt lat="45.94226272902336" lon="4.732141204114031"><ele>173.0</ele><time>2026-04-28T13:46:00.999Z</time></trkpt><trkpt lat="45.942365111359415" lon="4.732066267483408"><ele>173.0</ele><time>2026-04-28T13:46:02.999Z</time></trkpt><trkpt lat="45.94251761872066" lon="4.73193111074243"><ele>172.60000000000002</ele><time>2026-04-28T13:46:05.999Z</time></trkpt><trkpt lat="45.94262895739062" lon="4.731857565345443"><ele>172.20000000000002</ele><time>2026-04-28T13:46:07.999Z</time></trkpt><trkpt lat="45.942742181977444" lon="4.731785246366942"><ele>171.8</ele><time>2026-04-28T13:46:09.999Z</time></trkpt><trkpt lat="45.94279859126762" lon="4.7317439068674245"><ele>171.4</ele><time>2026-04-28T13:46:10.999Z</time></trkpt><trkpt lat="45.94290744500886" lon="4.7316554715209005"><ele>171.0</ele><time>2026-04-28T13:46:12.999Z</time></trkpt><trkpt lat="45.94301420731248" lon="4.731573926737319"><ele>171.0</ele><time>2026-04-28T13:46:14.999Z</time></trkpt><trkpt lat="45.94312349062874" lon="4.731482251856345"><ele>171.0</ele><time>2026-04-28T13:46:16.999Z</time></trkpt><trkpt lat="45.943222348868375" lon="4.731407457271829"><ele>171.0</ele><time>2026-04-28T13:46:18.999Z</time></trkpt><trkpt lat="45.94332295876928" lon="4.731316515707344"><ele>171.0</ele><time>2026-04-28T13:46:20.999Z</time></trkpt><trkpt lat="45.94342903269564" lon="4.731235495943195"><ele>171.20000000000002</ele><time>2026-04-28T13:46:22.999Z</time></trkpt><trkpt lat="45.94352937284614" lon="4.731137828223252"><ele>171.4</ele><time>2026-04-28T13:46:24.999Z</time></trkpt><trkpt lat="45.94362837864036" lon="4.731047269571955"><ele>171.6</ele><time>2026-04-28T13:46:26.999Z</time></trkpt><trkpt lat="45.943682210430815" lon="4.7309971569077565"><ele>171.8</ele><time>2026-04-28T13:46:27.999Z</time></trkpt><trkpt lat="45.943783041142154" lon="4.730912726251494"><ele>172.0</ele><time>2026-04-28T13:46:29.999Z</time></trkpt><trkpt lat="45.94388965797423" lon="4.730826790313014"><ele>172.0</ele><time>2026-04-28T13:46:31.999Z</time></trkpt><trkpt lat="45.943985573019134" lon="4.730736769534131"><ele>172.0</ele><time>2026-04-28T13:46:33.999Z</time></trkpt><trkpt lat="45.94407850507199" lon="4.730642120516616"><ele>172.0</ele><time>2026-04-28T13:46:36Z</time></trkpt><trkpt lat="45.944170838610006" lon="4.730534305017487"><ele>172.0</ele><time>2026-04-28T13:46:38Z</time></trkpt><trkpt lat="45.944259189387" lon="4.730418921886931"><ele>172.0</ele><time>2026-04-28T13:46:40Z</time></trkpt><trkpt lat="45.94435273485595" lon="4.730321726496668"><ele>172.0</ele><time>2026-04-28T13:46:42Z</time></trkpt><trkpt lat="45.94442869205141" lon="4.73021249242315"><ele>172.0</ele><time>2026-04-28T13:46:44Z</time></trkpt><trkpt lat="45.944523134071176" lon="4.730130566121926"><ele>172.0</ele><time>2026-04-28T13:46:46Z</time></trkpt><trkpt lat="45.94462501763987" lon="4.730138051992316"><ele>172.0</ele><time>2026-04-28T13:46:48Z</time></trkpt><trkpt lat="45.944691221464765" lon="4.730141009614986"><ele>171.75</ele><time>2026-04-28T13:46:49Z</time></trkpt><trkpt lat="45.94480533269939" lon="4.730131687230053"><ele>171.5</ele><time>2026-04-28T13:46:51Z</time></trkpt><trkpt lat="45.94492291057987" lon="4.730130898843977"><ele>171.25</ele><time>2026-04-28T13:46:53Z</time></trkpt><trkpt lat="45.945043651711515" lon="4.730129490737169"><ele>171.0</ele><time>2026-04-28T13:46:55Z</time></trkpt><trkpt lat="45.94515722246488" lon="4.730112087151561"><ele>171.0</ele><time>2026-04-28T13:46:57Z</time></trkpt><trkpt lat="45.945265143452595" lon="4.730104226727803"><ele>171.0</ele><time>2026-04-28T13:46:59Z</time></trkpt><trkpt lat="45.94536554676484" lon="4.730101713564767"><ele>171.0</ele><time>2026-04-28T13:47:01Z</time></trkpt><trkpt lat="45.94546171753707" lon="4.73008273292234"><ele>171.0</ele><time>2026-04-28T13:47:03Z</time></trkpt><trkpt lat="45.94556341174567" lon="4.730100108593515"><ele>171.0</ele><time>2026-04-28T13:47:05Z</time></trkpt><trkpt lat="45.945673516859706" lon="4.730124826302737"><ele>171.0</ele><time>2026-04-28T13:47:07Z</time></trkpt><trkpt lat="45.94583323089331" lon="4.730129073687996"><ele>171.0</ele><time>2026-04-28T13:47:10Z</time></trkpt><trkpt lat="45.94593260973501" lon="4.730158130132394"><ele>171.0</ele><time>2026-04-28T13:47:12Z</time></trkpt><trkpt lat="45.94603139831941" lon="4.730174416476507"><ele>171.0</ele><time>2026-04-28T13:47:14Z</time></trkpt><trkpt lat="45.94614699981538" lon="4.730168538566595"><ele>171.0</ele><time>2026-04-28T13:47:16Z</time></trkpt><trkpt lat="45.94625974226935" lon="4.730199553642127"><ele>171.0</ele><time>2026-04-28T13:47:18Z</time></trkpt><trkpt lat="45.94637090805936" lon="4.730226155341891"><ele>171.0</ele><time>2026-04-28T13:47:20Z</time></trkpt><trkpt lat="45.94648801462612" lon="4.730261846440383"><ele>171.0</ele><time>2026-04-28T13:47:22Z</time></trkpt><trkpt lat="45.94660448265704" lon="4.730293851205047"><ele>171.4</ele><time>2026-04-28T13:47:24Z</time></trkpt><trkpt lat="45.94672377062566" lon="4.7303293507625055"><ele>171.8</ele><time>2026-04-28T13:47:26Z</time></trkpt><trkpt lat="45.94684407919321" lon="4.730355612413668"><ele>172.20000000000002</ele><time>2026-04-28T13:47:28Z</time></trkpt><trkpt lat="45.94690761452249" lon="4.7303670094905454"><ele>172.60000000000002</ele><time>2026-04-28T13:47:29Z</time></trkpt><trkpt lat="45.946971761009145" lon="4.730393793012678"><ele>173.0</ele><time>2026-04-28T13:47:30Z</time></trkpt><trkpt lat="45.94704208843595" lon="4.730436153088861"><ele>173.0</ele><time>2026-04-28T13:47:31Z</time></trkpt><trkpt lat="45.947158006025866" lon="4.730487664194037"><ele>173.0</ele><time>2026-04-28T13:47:33Z</time></trkpt><trkpt lat="45.94728024335724" lon="4.730536765914306"><ele>173.0</ele><time>2026-04-28T13:47:35Z</time></trkpt><trkpt lat="45.947344470851625" lon="4.730564181848479"><ele>173.0</ele><time>2026-04-28T13:47:36Z</time></trkpt><trkpt lat="45.947403909182604" lon="4.73060073472326"><ele>173.0</ele><time>2026-04-28T13:47:37Z</time></trkpt><trkpt lat="45.94752243229964" lon="4.730660986570611"><ele>172.57142857142856</ele><time>2026-04-28T13:47:39Z</time></trkpt><trkpt lat="45.94758808544662" lon="4.730686780749589"><ele>172.14285714285717</ele><time>2026-04-28T13:47:40Z</time></trkpt><trkpt lat="45.94764792296978" lon="4.730715100131154"><ele>171.71428571428572</ele><time>2026-04-28T13:47:40.999Z</time></trkpt><trkpt lat="45.947707573012444" lon="4.730747948594609"><ele>171.28571428571428</ele><time>2026-04-28T13:47:41.999Z</time></trkpt><trkpt lat="45.94777252377313" lon="4.730770615217145"><ele>170.85714285714283</ele><time>2026-04-28T13:47:42.999Z</time></trkpt><trkpt lat="45.94782972572945" lon="4.730809906412247"><ele>170.42857142857144</ele><time>2026-04-28T13:47:43.999Z</time></trkpt><trkpt lat="45.9478913151882" lon="4.730850129176819"><ele>170.0</ele><time>2026-04-28T13:47:44.999Z</time></trkpt><trkpt lat="45.94795350305769" lon="4.730887408354746"><ele>170.0</ele><time>2026-04-28T13:47:45.999Z</time></trkpt><trkpt lat="45.948025231481374" lon="4.730917635073931"><ele>170.0</ele><time>2026-04-28T13:47:46.999Z</time></trkpt><trkpt lat="45.948140567905746" lon="4.730991606773361"><ele>170.0</ele><time>2026-04-28T13:47:48.999Z</time></trkpt><trkpt lat="45.94819901226546" lon="4.731035068101803"><ele>170.0</ele><time>2026-04-28T13:47:49.999Z</time></trkpt><trkpt lat="45.94831173594714" lon="4.731114362714708"><ele>170.0</ele><time>2026-04-28T13:47:51.999Z</time></trkpt><trkpt lat="45.94842274702343" lon="4.731176307871681"><ele>169.6</ele><time>2026-04-28T13:47:53.999Z</time></trkpt><trkpt lat="45.94854326875289" lon="4.73121788366109"><ele>169.2</ele><time>2026-04-28T13:47:55.999Z</time></trkpt><trkpt lat="45.94859807878899" lon="4.731270041474455"><ele>168.8</ele><time>2026-04-28T13:47:56.999Z</time></trkpt><trkpt lat="45.948704580775534" lon="4.731366670901683"><ele>168.4</ele><time>2026-04-28T13:47:58.999Z</time></trkpt><trkpt lat="45.94881508986381" lon="4.73143782163978"><ele>168.0</ele><time>2026-04-28T13:48:00.999Z</time></trkpt><trkpt lat="45.94887001045668" lon="4.731482472867373"><ele>168.0</ele><time>2026-04-28T13:48:01.999Z</time></trkpt><trkpt lat="45.948976156434064" lon="4.731567980680405"><ele>168.0</ele><time>2026-04-28T13:48:03.999Z</time></trkpt><trkpt lat="45.949032886271965" lon="4.731613531745242"><ele>168.0</ele><time>2026-04-28T13:48:04.999Z</time></trkpt><trkpt lat="45.9490914495641" lon="4.731651196423846"><ele>168.0</ele><time>2026-04-28T13:48:05.999Z</time></trkpt><trkpt lat="45.94919873296859" lon="4.731720461086756"><ele>168.0</ele><time>2026-04-28T13:48:07.999Z</time></trkpt><trkpt lat="45.94930178687988" lon="4.7317926397254455"><ele>167.8</ele><time>2026-04-28T13:48:09.999Z</time></trkpt><trkpt lat="45.94935546894662" lon="4.7318443954994684"><ele>167.60000000000002</ele><time>2026-04-28T13:48:10.999Z</time></trkpt><trkpt lat="45.9494117537296" lon="4.731889576932955"><ele>167.39999999999998</ele><time>2026-04-28T13:48:11.999Z</time></trkpt><trkpt lat="45.94950254020164" lon="4.7319738511653995"><ele>167.2</ele><time>2026-04-28T13:48:13.999Z</time></trkpt><trkpt lat="45.94960148110135" lon="4.732069864811774"><ele>167.0</ele><time>2026-04-28T13:48:15.999Z</time></trkpt><trkpt lat="45.94969119850174" lon="4.732185546793047"><ele>166.8</ele><time>2026-04-28T13:48:17.999Z</time></trkpt><trkpt lat="45.9498047818331" lon="4.732256290082304"><ele>166.6</ele><time>2026-04-28T13:48:19.999Z</time></trkpt><trkpt lat="45.94991123215312" lon="4.732342967766475"><ele>166.4</ele><time>2026-04-28T13:48:21.999Z</time></trkpt><trkpt lat="45.94996495910072" lon="4.732397182321979"><ele>166.20000000000002</ele><time>2026-04-28T13:48:22.999Z</time></trkpt><trkpt lat="45.95002008639989" lon="4.732449543415109"><ele>166.0</ele><time>2026-04-28T13:48:23.999Z</time></trkpt><trkpt lat="45.950124469638496" lon="4.73255644745579"><ele>166.0</ele><time>2026-04-28T13:48:25.999Z</time></trkpt><trkpt lat="45.95017670815745" lon="4.7326094628235635"><ele>166.0</ele><time>2026-04-28T13:48:26.999Z</time></trkpt><trkpt lat="45.950276470662025" lon="4.7327068807295305"><ele>166.0</ele><time>2026-04-28T13:48:28.999Z</time></trkpt><trkpt lat="45.95032895518187" lon="4.732760693512541"><ele>166.0</ele><time>2026-04-28T13:48:29.999Z</time></trkpt><trkpt lat="45.95037742854608" lon="4.732824604419336"><ele>166.0</ele><time>2026-04-28T13:48:30.999Z</time></trkpt><trkpt lat="45.95047523674714" lon="4.732932346695733"><ele>166.0</ele><time>2026-04-28T13:48:32.999Z</time></trkpt><trkpt lat="45.95052441668241" lon="4.732990723198937"><ele>166.0</ele><time>2026-04-28T13:48:33.999Z</time></trkpt><trkpt lat="45.95061575650319" lon="4.73310579256967"><ele>166.0</ele><time>2026-04-28T13:48:35.999Z</time></trkpt><trkpt lat="45.95066960310713" lon="4.733161125508705"><ele>166.0</ele><time>2026-04-28T13:48:36.999Z</time></trkpt><trkpt lat="45.950720211827814" lon="4.733219462825435"><ele>166.0</ele><time>2026-04-28T13:48:37.999Z</time></trkpt><trkpt lat="45.95082310748175" lon="4.733325142203577"><ele>166.0</ele><time>2026-04-28T13:48:39.999Z</time></trkpt><trkpt lat="45.95087548638552" lon="4.733380989674125"><ele>166.0</ele><time>2026-04-28T13:48:41Z</time></trkpt><trkpt lat="45.95096966206166" lon="4.733492670178362"><ele>166.0</ele><time>2026-04-28T13:48:43Z</time></trkpt><trkpt lat="45.95102279790321" lon="4.733552718608447"><ele>166.0</ele><time>2026-04-28T13:48:44Z</time></trkpt><trkpt lat="45.95107053931121" lon="4.7336132647007725"><ele>166.0</ele><time>2026-04-28T13:48:45Z</time></trkpt><trkpt lat="45.95112145425202" lon="4.733673264123515"><ele>166.0</ele><time>2026-04-28T13:48:46Z</time></trkpt><trkpt lat="45.951170455204554" lon="4.733734533857668"><ele>166.0</ele><time>2026-04-28T13:48:47Z</time></trkpt><trkpt lat="45.95122169036914" lon="4.733790704686577"><ele>166.0</ele><time>2026-04-28T13:48:48Z</time></trkpt><trkpt lat="45.95131680706054" lon="4.733913108254634"><ele>166.75</ele><time>2026-04-28T13:48:50Z</time></trkpt><trkpt lat="45.95140889479937" lon="4.734037712194448"><ele>167.5</ele><time>2026-04-28T13:48:52Z</time></trkpt><trkpt lat="45.95150232995061" lon="4.734165159008198"><ele>168.25</ele><time>2026-04-28T13:48:54Z</time></trkpt><trkpt lat="45.95158236762174" lon="4.734283601851837"><ele>169.0</ele><time>2026-04-28T13:48:56Z</time></trkpt><trkpt lat="45.95166501951523" lon="4.7344059227173645"><ele>168.6</ele><time>2026-04-28T13:48:58Z</time></trkpt><trkpt lat="45.95173701557423" lon="4.734527181282842"><ele>168.2</ele><time>2026-04-28T13:49:00Z</time></trkpt><trkpt lat="45.951811585992985" lon="4.734639245022224"><ele>167.79999999999998</ele><time>2026-04-28T13:49:02Z</time></trkpt><trkpt lat="45.95188099639834" lon="4.734738665762617"><ele>167.39999999999998</ele><time>2026-04-28T13:49:04Z</time></trkpt><trkpt lat="45.95194218488559" lon="4.734839683465421"><ele>167.0</ele><time>2026-04-28T13:49:06Z</time></trkpt><trkpt lat="45.95200458518473" lon="4.734941036310231"><ele>167.0</ele><time>2026-04-28T13:49:08Z</time></trkpt><trkpt lat="45.9520823509754" lon="4.735066032568745"><ele>167.0</ele><time>2026-04-28T13:49:10Z</time></trkpt><trkpt lat="45.95213054278127" lon="4.735153476755202"><ele>167.0</ele><time>2026-04-28T13:49:11Z</time></trkpt><trkpt lat="45.95218551143025" lon="4.735235696853042"><ele>167.0</ele><time>2026-04-28T13:49:12Z</time></trkpt><trkpt lat="45.95223480346567" lon="4.735321692711742"><ele>167.0</ele><time>2026-04-28T13:49:13Z</time></trkpt><trkpt lat="45.95229119753816" lon="4.735410403012201"><ele>167.0</ele><time>2026-04-28T13:49:14Z</time></trkpt><trkpt lat="45.952351411963065" lon="4.735483034745342"><ele>167.0</ele><time>2026-04-28T13:49:15Z</time></trkpt><trkpt lat="45.9524072445833" lon="4.73555418388461"><ele>167.0</ele><time>2026-04-28T13:49:16Z</time></trkpt><trkpt lat="45.95245822838023" lon="4.735628571344656"><ele>167.0</ele><time>2026-04-28T13:49:17Z</time></trkpt><trkpt lat="45.95256357993308" lon="4.735756297786226"><ele>167.0</ele><time>2026-04-28T13:49:19Z</time></trkpt><trkpt lat="45.95262384485347" lon="4.735826854471093"><ele>167.0</ele><time>2026-04-28T13:49:20Z</time></trkpt><trkpt lat="45.952682769065916" lon="4.735891866004827"><ele>167.0</ele><time>2026-04-28T13:49:21Z</time></trkpt><trkpt lat="45.95274655496249" lon="4.735959782823829"><ele>167.0</ele><time>2026-04-28T13:49:22Z</time></trkpt><trkpt lat="45.952807250101394" lon="4.736025234792674"><ele>167.0</ele><time>2026-04-28T13:49:23Z</time></trkpt><trkpt lat="45.952871423464224" lon="4.736094735904327"><ele>167.0</ele><time>2026-04-28T13:49:24Z</time></trkpt><trkpt lat="45.952934035838254" lon="4.736164429335639"><ele>167.0</ele><time>2026-04-28T13:49:25Z</time></trkpt><trkpt lat="45.952996759761874" lon="4.73623846041117"><ele>167.0</ele><time>2026-04-28T13:49:26Z</time></trkpt><trkpt lat="45.95305387087841" lon="4.7363045241058686"><ele>167.0</ele><time>2026-04-28T13:49:27Z</time></trkpt><trkpt lat="45.95310936347763" lon="4.736377331134757"><ele>166.85714285714286</ele><time>2026-04-28T13:49:28Z</time></trkpt><trkpt lat="45.95316711514758" lon="4.736451352408108"><ele>166.71428571428572</ele><time>2026-04-28T13:49:29Z</time></trkpt><trkpt lat="45.953210662069274" lon="4.736533094554154"><ele>166.57142857142856</ele><time>2026-04-28T13:49:30Z</time></trkpt><trkpt lat="45.953261274865575" lon="4.736613164020743"><ele>166.42857142857144</ele><time>2026-04-28T13:49:31Z</time></trkpt><trkpt lat="45.953309381002796" lon="4.736688289196562"><ele>166.2857142857143</ele><time>2026-04-28T13:49:32Z</time></trkpt><trkpt lat="45.953360230830754" lon="4.736769491280384"><ele>166.14285714285714</ele><time>2026-04-28T13:49:33Z</time></trkpt><trkpt lat="45.953412562594934" lon="4.736843388287602"><ele>166.0</ele><time>2026-04-28T13:49:34Z</time></trkpt><trkpt lat="45.95346589754915" lon="4.736904685905224"><ele>166.66666666666669</ele><time>2026-04-28T13:49:35Z</time></trkpt><trkpt lat="45.953512135366324" lon="4.7369794701426615"><ele>167.33333333333334</ele><time>2026-04-28T13:49:36Z</time></trkpt><trkpt lat="45.953555829796656" lon="4.737046378496802"><ele>168.0</ele><time>2026-04-28T13:49:37Z</time></trkpt><trkpt lat="45.95359705790708" lon="4.737118272565891"><ele>168.66666666666666</ele><time>2026-04-28T13:49:38Z</time></trkpt><trkpt lat="45.95364526759477" lon="4.7371895718804495"><ele>169.33333333333331</ele><time>2026-04-28T13:49:39Z</time></trkpt><trkpt lat="45.953691035315444" lon="4.7372627915008305"><ele>170.0</ele><time>2026-04-28T13:49:40Z</time></trkpt><trkpt lat="45.953781857523566" lon="4.737397713164855"><ele>170.0</ele><time>2026-04-28T13:49:42Z</time></trkpt><trkpt lat="45.95383691648367" lon="4.737467757491083"><ele>170.0</ele><time>2026-04-28T13:49:43Z</time></trkpt><trkpt lat="45.953881707863815" lon="4.737538895308176"><ele>170.0</ele><time>2026-04-28T13:49:44Z</time></trkpt><trkpt lat="45.95396772223259" lon="4.737653677606863"><ele>170.0</ele><time>2026-04-28T13:49:46Z</time></trkpt><trkpt lat="45.9540128318323" lon="4.737717856345989"><ele>170.0</ele><time>2026-04-28T13:49:47Z</time></trkpt><trkpt lat="45.95410015017836" lon="4.737843414283069"><ele>170.0</ele><time>2026-04-28T13:49:48.999Z</time></trkpt><trkpt lat="45.95419216068068" lon="4.737972175656188"><ele>169.2</ele><time>2026-04-28T13:49:50.999Z</time></trkpt><trkpt lat="45.95427720207686" lon="4.738093889806961"><ele>168.4</ele><time>2026-04-28T13:49:52.999Z</time></trkpt><trkpt lat="45.95432049142371" lon="4.738161687124231"><ele>167.60000000000002</ele><time>2026-04-28T13:49:53.999Z</time></trkpt><trkpt lat="45.95440841238991" lon="4.738290125541056"><ele>166.8</ele><time>2026-04-28T13:49:55.999Z</time></trkpt><trkpt lat="45.954493910149424" lon="4.73841382724597"><ele>166.0</ele><time>2026-04-28T13:49:57.999Z</time></trkpt><trkpt lat="45.95453701290422" lon="4.738482831393755"><ele>166.66666666666669</ele><time>2026-04-28T13:49:58.999Z</time></trkpt><trkpt lat="45.9545761031425" lon="4.73855419935252"><ele>167.33333333333334</ele><time>2026-04-28T13:49:59.999Z</time></trkpt><trkpt lat="45.95464633763874" lon="4.738668411304669"><ele>168.0</ele><time>2026-04-28T13:50:01.999Z</time></trkpt><trkpt lat="45.95469409192992" lon="4.738736836816504"><ele>168.66666666666666</ele><time>2026-04-28T13:50:02.999Z</time></trkpt><trkpt lat="45.95473628246429" lon="4.738805063948494"><ele>169.33333333333331</ele><time>2026-04-28T13:50:03.999Z</time></trkpt><trkpt lat="45.9547845986787" lon="4.738875006540388"><ele>170.0</ele><time>2026-04-28T13:50:04.999Z</time></trkpt><trkpt lat="45.9548663492732" lon="4.738994666488069"><ele>170.0</ele><time>2026-04-28T13:50:06.999Z</time></trkpt><trkpt lat="45.95492980322832" lon="4.73904987056086"><ele>170.0</ele><time>2026-04-28T13:50:07.999Z</time></trkpt><trkpt lat="45.95498310285428" lon="4.739105146006083"><ele>170.0</ele><time>2026-04-28T13:50:08.999Z</time></trkpt><trkpt lat="45.955027774088194" lon="4.739184627152414"><ele>170.0</ele><time>2026-04-28T13:50:09.999Z</time></trkpt><trkpt lat="45.95507228261677" lon="4.739252421320901"><ele>170.0</ele><time>2026-04-28T13:50:10.999Z</time></trkpt><trkpt lat="45.95512377332387" lon="4.739317355966794"><ele>170.0</ele><time>2026-04-28T13:50:11.999Z</time></trkpt><trkpt lat="45.95521647152762" lon="4.739450304572924"><ele>169.5</ele><time>2026-04-28T13:50:13.999Z</time></trkpt><trkpt lat="45.95526420670619" lon="4.739522008123427"><ele>169.0</ele><time>2026-04-28T13:50:14.999Z</time></trkpt><trkpt lat="45.95531076347074" lon="4.739585233098325"><ele>168.5</ele><time>2026-04-28T13:50:15.999Z</time></trkpt><trkpt lat="45.95535240484594" lon="4.739655832446064"><ele>168.0</ele><time>2026-04-28T13:50:16.999Z</time></trkpt><trkpt lat="45.95539703665006" lon="4.739722582967907"><ele>167.5</ele><time>2026-04-28T13:50:17.999Z</time></trkpt><trkpt lat="45.95543745274545" lon="4.739806561077935"><ele>167.0</ele><time>2026-04-28T13:50:18.999Z</time></trkpt><trkpt lat="45.95552538605678" lon="4.739946079675758"><ele>167.0</ele><time>2026-04-28T13:50:20.999Z</time></trkpt><trkpt lat="45.955606581606965" lon="4.740082410882522"><ele>167.0</ele><time>2026-04-28T13:50:22.999Z</time></trkpt><trkpt lat="45.95564813386282" lon="4.740151590558666"><ele>167.0</ele><time>2026-04-28T13:50:23.999Z</time></trkpt><trkpt lat="45.95569075772735" lon="4.740218243636534"><ele>167.0</ele><time>2026-04-28T13:50:24.999Z</time></trkpt><trkpt lat="45.955769081161726" lon="4.74035258042451"><ele>167.0</ele><time>2026-04-28T13:50:26.999Z</time></trkpt><trkpt lat="45.95581517566682" lon="4.7404194949047564"><ele>167.0</ele><time>2026-04-28T13:50:27.999Z</time></trkpt><trkpt lat="45.95586217641543" lon="4.74048343441505"><ele>167.25</ele><time>2026-04-28T13:50:28.999Z</time></trkpt><trkpt lat="45.95594243177268" lon="4.740614863831021"><ele>167.5</ele><time>2026-04-28T13:50:30.999Z</time></trkpt><trkpt lat="45.9560184892067" lon="4.740738628755428"><ele>167.75</ele><time>2026-04-28T13:50:32.999Z</time></trkpt><trkpt lat="45.956098284515555" lon="4.740857934007757"><ele>168.0</ele><time>2026-04-28T13:50:34.999Z</time></trkpt><trkpt lat="45.956168735929644" lon="4.74097869999723"><ele>169.0</ele><time>2026-04-28T13:50:36.999Z</time></trkpt><trkpt lat="45.95620861671111" lon="4.741050013048559"><ele>170.0</ele><time>2026-04-28T13:50:37.999Z</time></trkpt><trkpt lat="45.956280721786506" lon="4.741189423518371"><ele>171.0</ele><time>2026-04-28T13:50:39.999Z</time></trkpt><trkpt lat="45.95636562220398" lon="4.741320497949039"><ele>172.0</ele><time>2026-04-28T13:50:41.999Z</time></trkpt><trkpt lat="45.956436354921046" lon="4.741455202325461"><ele>173.0</ele><time>2026-04-28T13:50:43.999Z</time></trkpt><trkpt lat="45.95651442736542" lon="4.741578371979157"><ele>173.0</ele><time>2026-04-28T13:50:45.999Z</time></trkpt><trkpt lat="45.956585718440884" lon="4.741685939093948"><ele>173.0</ele><time>2026-04-28T13:50:48Z</time></trkpt><trkpt lat="45.956649249494866" lon="4.7418012895752275"><ele>173.0</ele><time>2026-04-28T13:50:50Z</time></trkpt><trkpt lat="45.95671911930165" lon="4.741927814598462"><ele>173.0</ele><time>2026-04-28T13:50:52Z</time></trkpt><trkpt lat="45.95678594585578" lon="4.742042787590622"><ele>173.0</ele><time>2026-04-28T13:50:54Z</time></trkpt><trkpt lat="45.956862864609356" lon="4.74215762642229"><ele>172.8</ele><time>2026-04-28T13:50:56Z</time></trkpt><trkpt lat="45.95693746381296" lon="4.742279817252353"><ele>172.60000000000002</ele><time>2026-04-28T13:50:58Z</time></trkpt><trkpt lat="45.95701213555224" lon="4.742396163713069"><ele>172.39999999999998</ele><time>2026-04-28T13:51:00Z</time></trkpt><trkpt lat="45.95708663219184" lon="4.742519940091762"><ele>172.2</ele><time>2026-04-28T13:51:02Z</time></trkpt><trkpt lat="45.95715223269557" lon="4.742649923789459"><ele>172.0</ele><time>2026-04-28T13:51:04Z</time></trkpt><trkpt lat="45.95722211104012" lon="4.742778759785463"><ele>172.0</ele><time>2026-04-28T13:51:06Z</time></trkpt><trkpt lat="45.957289788615206" lon="4.742910853752605"><ele>172.0</ele><time>2026-04-28T13:51:08Z</time></trkpt><trkpt lat="45.95736266993708" lon="4.743035936952093"><ele>172.0</ele><time>2026-04-28T13:51:10Z</time></trkpt><trkpt lat="45.957442278438755" lon="4.7431645385182675"><ele>172.0</ele><time>2026-04-28T13:51:12Z</time></trkpt><trkpt lat="45.957510133307416" lon="4.743295712058852"><ele>171.39999999999998</ele><time>2026-04-28T13:51:14Z</time></trkpt><trkpt lat="45.95758523205513" lon="4.7434274102691205"><ele>170.79999999999998</ele><time>2026-04-28T13:51:16Z</time></trkpt><trkpt lat="45.957654771442414" lon="4.743551906638471"><ele>170.2</ele><time>2026-04-28T13:51:18Z</time></trkpt><trkpt lat="45.95772598930679" lon="4.7436747676462225"><ele>169.6</ele><time>2026-04-28T13:51:20Z</time></trkpt><trkpt lat="45.95779547728426" lon="4.743790102812519"><ele>169.0</ele><time>2026-04-28T13:51:22Z</time></trkpt><trkpt lat="45.95786556901459" lon="4.743916412386647"><ele>169.0</ele><time>2026-04-28T13:51:24Z</time></trkpt><trkpt lat="45.95792607147196" lon="4.744035835605865"><ele>169.0</ele><time>2026-04-28T13:51:26Z</time></trkpt><trkpt lat="45.95800256179231" lon="4.744163355862789"><ele>169.0</ele><time>2026-04-28T13:51:28Z</time></trkpt><trkpt lat="45.9580707723498" lon="4.744291005107486"><ele>169.0</ele><time>2026-04-28T13:51:30Z</time></trkpt><trkpt lat="45.95813795266343" lon="4.744415536622168"><ele>169.0</ele><time>2026-04-28T13:51:32Z</time></trkpt><trkpt lat="45.958209517783835" lon="4.744520680211579"><ele>169.6</ele><time>2026-04-28T13:51:34Z</time></trkpt><trkpt lat="45.958279380702045" lon="4.74465520826357"><ele>170.2</ele><time>2026-04-28T13:51:36Z</time></trkpt><trkpt lat="45.958349970821665" lon="4.7447859522524185"><ele>170.79999999999998</ele><time>2026-04-28T13:51:38Z</time></trkpt><trkpt lat="45.95841523275765" lon="4.744912820645567"><ele>171.39999999999998</ele><time>2026-04-28T13:51:40Z</time></trkpt><trkpt lat="45.958484096345714" lon="4.745031922049811"><ele>172.0</ele><time>2026-04-28T13:51:42Z</time></trkpt><trkpt lat="45.958545935770154" lon="4.745151587231026"><ele>171.2</ele><time>2026-04-28T13:51:44Z</time></trkpt><trkpt lat="45.958615323628344" lon="4.7452708788673075"><ele>170.39999999999998</ele><time>2026-04-28T13:51:46Z</time></trkpt><trkpt lat="45.958668037718084" lon="4.745387594324149"><ele>169.60000000000002</ele><time>2026-04-28T13:51:48Z</time></trkpt><trkpt lat="45.958730678001196" lon="4.745484548412282"><ele>168.8</ele><time>2026-04-28T13:51:50Z</time></trkpt><trkpt lat="45.958784372285365" lon="4.745604674442461"><ele>168.0</ele><time>2026-04-28T13:51:52Z</time></trkpt><trkpt lat="45.958847583583584" lon="4.745737875001387"><ele>168.0</ele><time>2026-04-28T13:51:54Z</time></trkpt><trkpt lat="45.95891199211355" lon="4.745858722794661"><ele>168.0</ele><time>2026-04-28T13:51:55.999Z</time></trkpt><trkpt lat="45.9589790473046" lon="4.745974712792094"><ele>168.0</ele><time>2026-04-28T13:51:57.999Z</time></trkpt><trkpt lat="45.959050243543565" lon="4.746103653560417"><ele>168.0</ele><time>2026-04-28T13:51:59.999Z</time></trkpt><trkpt lat="45.95912521581827" lon="4.74622908455836"><ele>168.0</ele><time>2026-04-28T13:52:01.999Z</time></trkpt><trkpt lat="45.959203535632355" lon="4.7463510919618015"><ele>167.60000000000002</ele><time>2026-04-28T13:52:03.999Z</time></trkpt><trkpt lat="45.95927006878539" lon="4.746472827471969"><ele>167.20000000000002</ele><time>2026-04-28T13:52:05.999Z</time></trkpt><trkpt lat="45.95932631675293" lon="4.746580279969483"><ele>166.8</ele><time>2026-04-28T13:52:07.999Z</time></trkpt><trkpt lat="45.95932342422793" lon="4.746676383940821"><ele>166.4</ele><time>2026-04-28T13:52:11.999Z</time></trkpt><trkpt lat="45.959303774387585" lon="4.746518837916872"><ele>166.0</ele><time>2026-04-28T13:59:16Z</time></trkpt><trkpt lat="45.95923559205664" lon="4.746394460399572"><ele>166.5</ele><time>2026-04-28T13:59:18Z</time></trkpt><trkpt lat="45.95916519032613" lon="4.746278522592694"><ele>167.0</ele><time>2026-04-28T13:59:20Z</time></trkpt><trkpt lat="45.959094286450544" lon="4.746151264834384"><ele>167.5</ele><time>2026-04-28T13:59:22Z</time></trkpt><trkpt lat="45.959035433116426" lon="4.746010566428828"><ele>168.0</ele><time>2026-04-28T13:59:24Z</time></trkpt><trkpt lat="45.95894887042862" lon="4.745886017551856"><ele>168.0</ele><time>2026-04-28T13:59:26Z</time></trkpt><trkpt lat="45.95889705218144" lon="4.745755395159869"><ele>168.0</ele><time>2026-04-28T13:59:28Z</time></trkpt><trkpt lat="45.95881842999064" lon="4.745634047116584"><ele>168.0</ele><time>2026-04-28T13:59:30Z</time></trkpt><trkpt lat="45.958749242279524" lon="4.745500281394502"><ele>168.0</ele><time>2026-04-28T13:59:32Z</time></trkpt><trkpt lat="45.95870695289874" lon="4.745427639145564"><ele>168.0</ele><time>2026-04-28T13:59:33Z</time></trkpt><trkpt lat="45.95866469210251" lon="4.745359537423648"><ele>168.0</ele><time>2026-04-28T13:59:34Z</time></trkpt><trkpt lat="45.95862479582555" lon="4.7452795649288175"><ele>168.0</ele><time>2026-04-28T13:59:35Z</time></trkpt><trkpt lat="45.95855414395571" lon="4.745134995632248"><ele>168.0</ele><time>2026-04-28T13:59:37Z</time></trkpt><trkpt lat="45.958480988772024" lon="4.744987102245254"><ele>168.0</ele><time>2026-04-28T13:59:39Z</time></trkpt><trkpt lat="45.958405981243786" lon="4.7448473456242635"><ele>168.0</ele><time>2026-04-28T13:59:41Z</time></trkpt><trkpt lat="45.958366973774766" lon="4.744775203657394"><ele>168.25</ele><time>2026-04-28T13:59:42Z</time></trkpt><trkpt lat="45.95829423460415" lon="4.74463333511015"><ele>168.5</ele><time>2026-04-28T13:59:44Z</time></trkpt><trkpt lat="45.958216363621915" lon="4.744494876518905"><ele>168.75</ele><time>2026-04-28T13:59:46Z</time></trkpt><trkpt lat="45.958138271829114" lon="4.744356604361806"><ele>169.0</ele><time>2026-04-28T13:59:48Z</time></trkpt><trkpt lat="45.95805775030379" lon="4.744217761603468"><ele>169.0</ele><time>2026-04-28T13:59:50Z</time></trkpt><trkpt lat="45.958019146176866" lon="4.744142178880747"><ele>169.0</ele><time>2026-04-28T13:59:51Z</time></trkpt><trkpt lat="45.95793964099796" lon="4.744000058884791"><ele>169.0</ele><time>2026-04-28T13:59:53Z</time></trkpt><trkpt lat="45.9578606973001" lon="4.743870263208088"><ele>169.0</ele><time>2026-04-28T13:59:55Z</time></trkpt><trkpt lat="45.957780749949706" lon="4.7437288808490745"><ele>169.0</ele><time>2026-04-28T13:59:57Z</time></trkpt><trkpt lat="45.95770441073732" lon="4.743592876113609"><ele>168.6</ele><time>2026-04-28T13:59:59Z</time></trkpt><trkpt lat="45.957632488654234" lon="4.743462806788269"><ele>168.2</ele><time>2026-04-28T14:00:01Z</time></trkpt><trkpt lat="45.95756596656247" lon="4.74333426758549"><ele>167.79999999999998</ele><time>2026-04-28T14:00:03Z</time></trkpt><trkpt lat="45.95749728043043" lon="4.743224090597697"><ele>167.39999999999998</ele><time>2026-04-28T14:00:05Z</time></trkpt><trkpt lat="45.95743126682098" lon="4.7431179728857495"><ele>167.0</ele><time>2026-04-28T14:00:07Z</time></trkpt><trkpt lat="45.95737578159718" lon="4.743016519141134"><ele>167.2</ele><time>2026-04-28T14:00:09Z</time></trkpt><trkpt lat="45.95731710201196" lon="4.742904676299066"><ele>167.39999999999998</ele><time>2026-04-28T14:00:11Z</time></trkpt><trkpt lat="45.95725006008949" lon="4.742787739240839"><ele>167.60000000000002</ele><time>2026-04-28T14:00:13Z</time></trkpt><trkpt lat="45.957183396678744" lon="4.742667725955591"><ele>167.8</ele><time>2026-04-28T14:00:15Z</time></trkpt><trkpt lat="45.9571436694969" lon="4.7425917393129895"><ele>168.0</ele><time>2026-04-28T14:00:16Z</time></trkpt><trkpt lat="45.95707427507252" lon="4.742455435505983"><ele>168.0</ele><time>2026-04-28T14:00:18Z</time></trkpt><trkpt lat="45.95702621379387" lon="4.742389116194148"><ele>168.0</ele><time>2026-04-28T14:00:19Z</time></trkpt><trkpt lat="45.956956641873646" lon="4.742244622328309"><ele>168.0</ele><time>2026-04-28T14:00:21Z</time></trkpt><trkpt lat="45.95686696181312" lon="4.742127692674944"><ele>168.0</ele><time>2026-04-28T14:00:23Z</time></trkpt><trkpt lat="45.956828895394445" lon="4.74205548467578"><ele>168.0</ele><time>2026-04-28T14:00:24Z</time></trkpt><trkpt lat="45.956753911184805" lon="4.74191774660766"><ele>167.71428571428572</ele><time>2026-04-28T14:00:26Z</time></trkpt><trkpt lat="45.95671043706015" lon="4.741851928422374"><ele>167.42857142857144</ele><time>2026-04-28T14:00:27Z</time></trkpt><trkpt lat="45.95666922390524" lon="4.741783090289643"><ele>167.14285714285714</ele><time>2026-04-28T14:00:28Z</time></trkpt><trkpt lat="45.956627270434836" lon="4.741713683329865"><ele>166.85714285714286</ele><time>2026-04-28T14:00:29Z</time></trkpt><trkpt lat="45.95658484093659" lon="4.741643650709376"><ele>166.57142857142858</ele><time>2026-04-28T14:00:29.999Z</time></trkpt><trkpt lat="45.95654092900474" lon="4.741572536273727"><ele>166.28571428571428</ele><time>2026-04-28T14:00:30.999Z</time></trkpt><trkpt lat="45.956461211524974" lon="4.741431957119353"><ele>166.0</ele><time>2026-04-28T14:00:32.999Z</time></trkpt><trkpt lat="45.95641679854023" lon="4.741366506268011"><ele>166.33333333333334</ele><time>2026-04-28T14:00:33.999Z</time></trkpt><trkpt lat="45.95637128006741" lon="4.741288416143847"><ele>166.66666666666669</ele><time>2026-04-28T14:00:34.999Z</time></trkpt><trkpt lat="45.95628681197493" lon="4.7411581484512375"><ele>167.0</ele><time>2026-04-28T14:00:36.999Z</time></trkpt><trkpt lat="45.95624337105131" lon="4.741084349962041"><ele>167.33333333333334</ele><time>2026-04-28T14:00:37.999Z</time></trkpt><trkpt lat="45.956200403499636" lon="4.741013694313806"><ele>167.66666666666666</ele><time>2026-04-28T14:00:38.999Z</time></trkpt><trkpt lat="45.95615707384658" lon="4.740941692867439"><ele>168.0</ele><time>2026-04-28T14:00:39.999Z</time></trkpt><trkpt lat="45.95611158788182" lon="4.740870421462419"><ele>168.0</ele><time>2026-04-28T14:00:40.999Z</time></trkpt><trkpt lat="45.956069610315424" lon="4.740802672027591"><ele>168.0</ele><time>2026-04-28T14:00:41.999Z</time></trkpt><trkpt lat="45.956023805056965" lon="4.7407337874298765"><ele>168.0</ele><time>2026-04-28T14:00:42.999Z</time></trkpt><trkpt lat="45.95598101959714" lon="4.7406566300863"><ele>168.0</ele><time>2026-04-28T14:00:43.999Z</time></trkpt><trkpt lat="45.95589775964596" lon="4.7405249635652265"><ele>168.0</ele><time>2026-04-28T14:00:45.999Z</time></trkpt><trkpt lat="45.95581034495036" lon="4.74037988932395"><ele>167.83333333333334</ele><time>2026-04-28T14:00:47.999Z</time></trkpt><trkpt lat="45.955757754805404" lon="4.740314503268424"><ele>167.66666666666666</ele><time>2026-04-28T14:00:48.999Z</time></trkpt><trkpt lat="45.95571732384389" lon="4.740243049072498"><ele>167.5</ele><time>2026-04-28T14:00:49.999Z</time></trkpt><trkpt lat="45.955626380765246" lon="4.740107547771214"><ele>167.33333333333331</ele><time>2026-04-28T14:00:51.999Z</time></trkpt><trkpt lat="45.95558290979888" lon="4.740036557287798"><ele>167.16666666666666</ele><time>2026-04-28T14:00:52.999Z</time></trkpt><trkpt lat="45.95554216642575" lon="4.739965845726531"><ele>167.0</ele><time>2026-04-28T14:00:53.999Z</time></trkpt><trkpt lat="45.95545687081427" lon="4.739830463588777"><ele>167.0</ele><time>2026-04-28T14:00:55.999Z</time></trkpt><trkpt lat="45.9553790574872" lon="4.739684068724229"><ele>167.0</ele><time>2026-04-28T14:00:57.999Z</time></trkpt><trkpt lat="45.955337927541606" lon="4.739614668983439"><ele>167.0</ele><time>2026-04-28T14:00:58.999Z</time></trkpt><trkpt lat="45.95529707176491" lon="4.739545256470686"><ele>167.0</ele><time>2026-04-28T14:00:59.999Z</time></trkpt><trkpt lat="45.95525480098603" lon="4.739472694778007"><ele>167.0</ele><time>2026-04-28T14:01:00.999Z</time></trkpt><trkpt lat="45.95516364786345" lon="4.739345327741247"><ele>167.0</ele><time>2026-04-28T14:01:02.999Z</time></trkpt><trkpt lat="45.95506615337037" lon="4.7392257104407465"><ele>167.6</ele><time>2026-04-28T14:01:04.999Z</time></trkpt><trkpt lat="45.95497198920689" lon="4.73910700333007"><ele>168.2</ele><time>2026-04-28T14:01:06.999Z</time></trkpt><trkpt lat="45.95492307960274" lon="4.739046527799347"><ele>168.8</ele><time>2026-04-28T14:01:07.999Z</time></trkpt><trkpt lat="45.95483736785108" lon="4.738922538776822"><ele>169.4</ele><time>2026-04-28T14:01:09.999Z</time></trkpt><trkpt lat="45.954751833620854" lon="4.738795847509388"><ele>170.0</ele><time>2026-04-28T14:01:11.999Z</time></trkpt><trkpt lat="45.954666169424335" lon="4.738666631189458"><ele>170.0</ele><time>2026-04-28T14:01:13.999Z</time></trkpt><trkpt lat="45.954623771980636" lon="4.7385992653938995"><ele>170.0</ele><time>2026-04-28T14:01:14.999Z</time></trkpt><trkpt lat="45.95453884781486" lon="4.738481128637713"><ele>170.0</ele><time>2026-04-28T14:01:17Z</time></trkpt><trkpt lat="45.95445272759827" lon="4.738363586831944"><ele>170.0</ele><time>2026-04-28T14:01:19Z</time></trkpt><trkpt lat="45.954373094434516" lon="4.738234254772653"><ele>170.0</ele><time>2026-04-28T14:01:21Z</time></trkpt><trkpt lat="45.95432563490693" lon="4.738169557979744"><ele>170.0</ele><time>2026-04-28T14:01:22Z</time></trkpt><trkpt lat="45.95423859931171" lon="4.738051216796191"><ele>170.0</ele><time>2026-04-28T14:01:24Z</time></trkpt><trkpt lat="45.95415089565723" lon="4.737926310982814"><ele>170.0</ele><time>2026-04-28T14:01:26Z</time></trkpt><trkpt lat="45.95406914072229" lon="4.737797153035692"><ele>170.0</ele><time>2026-04-28T14:01:28Z</time></trkpt><trkpt lat="45.95398604711764" lon="4.737669610167077"><ele>170.0</ele><time>2026-04-28T14:01:30Z</time></trkpt><trkpt lat="45.95389936669808" lon="4.737538609503754"><ele>170.0</ele><time>2026-04-28T14:01:32Z</time></trkpt><trkpt lat="45.95381551717998" lon="4.737406834617365"><ele>170.0</ele><time>2026-04-28T14:01:34Z</time></trkpt><trkpt lat="45.95377177180268" lon="4.737341326900212"><ele>170.0</ele><time>2026-04-28T14:01:35Z</time></trkpt><trkpt lat="45.95368324905124" lon="4.737228027958278"><ele>170.0</ele><time>2026-04-28T14:01:37Z</time></trkpt><trkpt lat="45.95360895148014" lon="4.737108331225531"><ele>170.0</ele><time>2026-04-28T14:01:39Z</time></trkpt><trkpt lat="45.95352909150815" lon="4.7369793094599375"><ele>170.0</ele><time>2026-04-28T14:01:41Z</time></trkpt><trkpt lat="45.953439891242766" lon="4.736883659265402"><ele>170.0</ele><time>2026-04-28T14:01:43Z</time></trkpt><trkpt lat="45.953358089977456" lon="4.736777310688845"><ele>170.0</ele><time>2026-04-28T14:01:45Z</time></trkpt><trkpt lat="45.95328989154997" lon="4.736658305842091"><ele>170.0</ele><time>2026-04-28T14:01:47Z</time></trkpt><trkpt lat="45.95321329086211" lon="4.736544394885424"><ele>170.0</ele><time>2026-04-28T14:01:49Z</time></trkpt><trkpt lat="45.953137822074986" lon="4.736434070077811"><ele>170.0</ele><time>2026-04-28T14:01:51Z</time></trkpt><trkpt lat="45.95305798557382" lon="4.736312812408487"><ele>170.0</ele><time>2026-04-28T14:01:53Z</time></trkpt><trkpt lat="45.95297687607909" lon="4.7362033324563715"><ele>170.0</ele><time>2026-04-28T14:01:55Z</time></trkpt><trkpt lat="45.95289258107502" lon="4.7361008726911225"><ele>170.0</ele><time>2026-04-28T14:01:57Z</time></trkpt><trkpt lat="45.952804004802495" lon="4.7360010205152125"><ele>169.4</ele><time>2026-04-28T14:01:59Z</time></trkpt><trkpt lat="45.95272277138264" lon="4.7359054061335115"><ele>168.8</ele><time>2026-04-28T14:02:01Z</time></trkpt><trkpt lat="45.95263630558352" lon="4.735817571086689"><ele>168.2</ele><time>2026-04-28T14:02:03Z</time></trkpt><trkpt lat="45.952558143054105" lon="4.735725585769785"><ele>167.6</ele><time>2026-04-28T14:02:05Z</time></trkpt><trkpt lat="45.952475332141745" lon="4.735627518426653"><ele>167.0</ele><time>2026-04-28T14:02:07Z</time></trkpt><trkpt lat="45.95239570892933" lon="4.735534541157402"><ele>167.0</ele><time>2026-04-28T14:02:09Z</time></trkpt><trkpt lat="45.95232215662229" lon="4.735428111800399"><ele>167.0</ele><time>2026-04-28T14:02:11Z</time></trkpt><trkpt lat="45.952234270585414" lon="4.735314416160137"><ele>167.0</ele><time>2026-04-28T14:02:13Z</time></trkpt><trkpt lat="45.95216208779327" lon="4.735193979010765"><ele>167.0</ele><time>2026-04-28T14:02:15Z</time></trkpt><trkpt lat="45.95208007274578" lon="4.735066786098022"><ele>167.0</ele><time>2026-04-28T14:02:17Z</time></trkpt><trkpt lat="45.95199955866869" lon="4.734941917331335"><ele>167.0</ele><time>2026-04-28T14:02:19Z</time></trkpt><trkpt lat="45.95192204121737" lon="4.734808729202711"><ele>167.0</ele><time>2026-04-28T14:02:21Z</time></trkpt><trkpt lat="45.951879734999764" lon="4.734741360282198"><ele>167.0</ele><time>2026-04-28T14:02:22Z</time></trkpt><trkpt lat="45.95179923939645" lon="4.734610961229566"><ele>167.0</ele><time>2026-04-28T14:02:24Z</time></trkpt><trkpt lat="45.95171407089843" lon="4.73447907752298"><ele>167.39999999999998</ele><time>2026-04-28T14:02:26Z</time></trkpt><trkpt lat="45.951627234783324" lon="4.734352864707391"><ele>167.79999999999998</ele><time>2026-04-28T14:02:28Z</time></trkpt><trkpt lat="45.95154416567655" lon="4.734225554157901"><ele>168.2</ele><time>2026-04-28T14:02:29.999Z</time></trkpt><trkpt lat="45.95146200861761" lon="4.734101035729121"><ele>168.6</ele><time>2026-04-28T14:02:31.999Z</time></trkpt><trkpt lat="45.95141557960728" lon="4.734038783915585"><ele>169.0</ele><time>2026-04-28T14:02:32.999Z</time></trkpt><trkpt lat="45.95132398670796" lon="4.733917761286678"><ele>169.0</ele><time>2026-04-28T14:02:34.999Z</time></trkpt><trkpt lat="45.951229029292165" lon="4.733800292022812"><ele>169.0</ele><time>2026-04-28T14:02:36.999Z</time></trkpt><trkpt lat="45.951180221239994" lon="4.733742232168756"><ele>169.0</ele><time>2026-04-28T14:02:37.999Z</time></trkpt><trkpt lat="45.951132526693456" lon="4.733682653845032"><ele>169.0</ele><time>2026-04-28T14:02:38.999Z</time></trkpt><trkpt lat="45.95103313432842" lon="4.7335690566153685"><ele>169.0</ele><time>2026-04-28T14:02:40.999Z</time></trkpt><trkpt lat="45.95093627809608" lon="4.733453317353785"><ele>169.0</ele><time>2026-04-28T14:02:42.999Z</time></trkpt><trkpt lat="45.950838682894094" lon="4.733343765438273"><ele>169.0</ele><time>2026-04-28T14:02:44.999Z</time></trkpt><trkpt lat="45.95074209605296" lon="4.733242272272347"><ele>169.0</ele><time>2026-04-28T14:02:46.999Z</time></trkpt><trkpt lat="45.9506556234201" lon="4.733135597488329"><ele>169.0</ele><time>2026-04-28T14:02:48.999Z</time></trkpt><trkpt lat="45.950567960535494" lon="4.733028708424672"><ele>169.0</ele><time>2026-04-28T14:02:50.999Z</time></trkpt><trkpt lat="45.95047884689582" lon="4.732928321401169"><ele>169.0</ele><time>2026-04-28T14:02:52.999Z</time></trkpt><trkpt lat="45.95039073331681" lon="4.732826874779483"><ele>169.0</ele><time>2026-04-28T14:02:54.999Z</time></trkpt><trkpt lat="45.95029998390642" lon="4.732726285577721"><ele>169.0</ele><time>2026-04-28T14:02:56.999Z</time></trkpt><trkpt lat="45.95020991527352" lon="4.732631959116837"><ele>169.0</ele><time>2026-04-28T14:02:58.999Z</time></trkpt><trkpt lat="45.950108283881775" lon="4.732545069822934"><ele>169.0</ele><time>2026-04-28T14:03:00.999Z</time></trkpt><trkpt lat="45.95001926036754" lon="4.7324614781222225"><ele>169.0</ele><time>2026-04-28T14:03:02.999Z</time></trkpt><trkpt lat="45.94992281296399" lon="4.7323748537977925"><ele>169.0</ele><time>2026-04-28T14:03:04.999Z</time></trkpt><trkpt lat="45.949825474019676" lon="4.732283595640003"><ele>169.0</ele><time>2026-04-28T14:03:06.999Z</time></trkpt><trkpt lat="45.94973778842574" lon="4.732211116802045"><ele>169.0</ele><time>2026-04-28T14:03:08.999Z</time></trkpt><trkpt lat="45.94967631574277" lon="4.732180004010535"><ele>169.0</ele><time>2026-04-28T14:03:09.999Z</time></trkpt><trkpt lat="45.949584611523115" lon="4.732081970301736"><ele>169.0</ele><time>2026-04-28T14:03:11.999Z</time></trkpt><trkpt lat="45.94951463266992" lon="4.731968399875825"><ele>169.0</ele><time>2026-04-28T14:03:13.999Z</time></trkpt><trkpt lat="45.94942245001735" lon="4.7318713580220475"><ele>168.75</ele><time>2026-04-28T14:03:15.999Z</time></trkpt><trkpt lat="45.94931834001602" lon="4.731802012594598"><ele>168.5</ele><time>2026-04-28T14:03:17.999Z</time></trkpt><trkpt lat="45.94921952696997" lon="4.7317242465600176"><ele>168.25</ele><time>2026-04-28T14:03:19.999Z</time></trkpt><trkpt lat="45.949114506565806" lon="4.731647661818046"><ele>168.0</ele><time>2026-04-28T14:03:21.999Z</time></trkpt><trkpt lat="45.949019287412575" lon="4.731559562435553"><ele>168.0</ele><time>2026-04-28T14:03:24Z</time></trkpt><trkpt lat="45.94895887346283" lon="4.731531953462192"><ele>168.0</ele><time>2026-04-28T14:03:25Z</time></trkpt><trkpt lat="45.9488542950573" lon="4.731459538452327"><ele>168.0</ele><time>2026-04-28T14:03:27Z</time></trkpt><trkpt lat="45.948756223554916" lon="4.731371385852796"><ele>168.0</ele><time>2026-04-28T14:03:29Z</time></trkpt><trkpt lat="45.948658801395865" lon="4.731300970819015"><ele>168.0</ele><time>2026-04-28T14:03:31Z</time></trkpt><trkpt lat="45.948542842987806" lon="4.731231288350495"><ele>168.0</ele><time>2026-04-28T14:03:33Z</time></trkpt><trkpt lat="45.948438804618874" lon="4.7311635027066155"><ele>168.0</ele><time>2026-04-28T14:03:35Z</time></trkpt><trkpt lat="45.94832942875932" lon="4.731100732153646"><ele>168.0</ele><time>2026-04-28T14:03:37Z</time></trkpt><trkpt lat="45.94822728324149" lon="4.7310404154096135"><ele>168.0</ele><time>2026-04-28T14:03:39Z</time></trkpt><trkpt lat="45.948111699342896" lon="4.730985547202644"><ele>168.4</ele><time>2026-04-28T14:03:41Z</time></trkpt><trkpt lat="45.94802014415526" lon="4.730918408858359"><ele>168.8</ele><time>2026-04-28T14:03:43Z</time></trkpt><trkpt lat="45.94791935178971" lon="4.730865426554073"><ele>169.2</ele><time>2026-04-28T14:03:45Z</time></trkpt><trkpt lat="45.94780888528202" lon="4.730815355860085"><ele>169.6</ele><time>2026-04-28T14:03:47Z</time></trkpt><trkpt lat="45.94770390430802" lon="4.730753004085982"><ele>170.0</ele><time>2026-04-28T14:03:49Z</time></trkpt><trkpt lat="45.94759489028512" lon="4.730704759299971"><ele>170.75</ele><time>2026-04-28T14:03:51Z</time></trkpt><trkpt lat="45.94749538188558" lon="4.730650444137679"><ele>171.5</ele><time>2026-04-28T14:03:53Z</time></trkpt><trkpt lat="45.947386662335425" lon="4.730585205757674"><ele>172.25</ele><time>2026-04-28T14:03:55Z</time></trkpt><trkpt lat="45.94726922941783" lon="4.730546978722287"><ele>173.0</ele><time>2026-04-28T14:03:57Z</time></trkpt><trkpt lat="45.94716574186987" lon="4.730506943311026"><ele>173.0</ele><time>2026-04-28T14:03:59Z</time></trkpt><trkpt lat="45.947056307212335" lon="4.730467550673762"><ele>173.0</ele><time>2026-04-28T14:04:01Z</time></trkpt><trkpt lat="45.94699738588907" lon="4.730433473194418"><ele>173.0</ele><time>2026-04-28T14:04:02Z</time></trkpt><trkpt lat="45.9468882111635" lon="4.730381071978572"><ele>173.0</ele><time>2026-04-28T14:04:04Z</time></trkpt><trkpt lat="45.94677670634433" lon="4.730339008860697"><ele>173.0</ele><time>2026-04-28T14:04:06Z</time></trkpt><trkpt lat="45.94665881872939" lon="4.730287973328416"><ele>172.75</ele><time>2026-04-28T14:04:08Z</time></trkpt><trkpt lat="45.94654593676289" lon="4.730256342346563"><ele>172.5</ele><time>2026-04-28T14:04:10Z</time></trkpt><trkpt lat="45.946446193712546" lon="4.730208492788682"><ele>172.25</ele><time>2026-04-28T14:04:12Z</time></trkpt><trkpt lat="45.946335782868566" lon="4.730192817558403"><ele>172.0</ele><time>2026-04-28T14:04:14Z</time></trkpt><trkpt lat="45.94620580117259" lon="4.730179460837434"><ele>171.75</ele><time>2026-04-28T14:04:16Z</time></trkpt><trkpt lat="45.946087270707736" lon="4.730177841484306"><ele>171.5</ele><time>2026-04-28T14:04:18Z</time></trkpt><trkpt lat="45.945970958847134" lon="4.7301518940524785"><ele>171.25</ele><time>2026-04-28T14:04:20Z</time></trkpt><trkpt lat="45.945857836891435" lon="4.730138662645115"><ele>171.0</ele><time>2026-04-28T14:04:22Z</time></trkpt><trkpt lat="45.94574054093502" lon="4.7301204617489825"><ele>171.0</ele><time>2026-04-28T14:04:24Z</time></trkpt><trkpt lat="45.94562608243578" lon="4.730107054980925"><ele>171.0</ele><time>2026-04-28T14:04:26Z</time></trkpt><trkpt lat="45.94555748226544" lon="4.730095887263813"><ele>171.0</ele><time>2026-04-28T14:04:27Z</time></trkpt><trkpt lat="45.94545429196651" lon="4.7301019430412765"><ele>171.0</ele><time>2026-04-28T14:04:29Z</time></trkpt><trkpt lat="45.94534225880892" lon="4.730109768922362"><ele>171.0</ele><time>2026-04-28T14:04:31Z</time></trkpt><trkpt lat="45.94522807247036" lon="4.730105969567639"><ele>171.0</ele><time>2026-04-28T14:04:32.999Z</time></trkpt><trkpt lat="45.9451137279303" lon="4.73010256813335"><ele>171.0</ele><time>2026-04-28T14:04:34.999Z</time></trkpt><trkpt lat="45.944999343817365" lon="4.730107882889386"><ele>171.0</ele><time>2026-04-28T14:04:36.999Z</time></trkpt><trkpt lat="45.944886354435525" lon="4.730113527018587"><ele>171.0</ele><time>2026-04-28T14:04:38.999Z</time></trkpt><trkpt lat="45.94477392407372" lon="4.730127079718888"><ele>171.0</ele><time>2026-04-28T14:04:40.999Z</time></trkpt><trkpt lat="45.94466031391143" lon="4.730132451962225"><ele>171.0</ele><time>2026-04-28T14:04:42.999Z</time></trkpt><trkpt lat="45.94455022824775" lon="4.730146086897968"><ele>171.0</ele><time>2026-04-28T14:04:44.999Z</time></trkpt><trkpt lat="45.94445463481254" lon="4.730151216060597"><ele>171.0</ele><time>2026-04-28T14:04:46.999Z</time></trkpt><trkpt lat="45.94437296038672" lon="4.7302553637719935"><ele>171.0</ele><time>2026-04-28T14:04:48.999Z</time></trkpt><trkpt lat="45.94430251680482" lon="4.730376941111173"><ele>170.60000000000002</ele><time>2026-04-28T14:04:50.999Z</time></trkpt><trkpt lat="45.944207116715575" lon="4.730465680646539"><ele>170.2</ele><time>2026-04-28T14:04:52.999Z</time></trkpt><trkpt lat="45.94411842419817" lon="4.73056816581346"><ele>169.8</ele><time>2026-04-28T14:04:54.999Z</time></trkpt><trkpt lat="45.94403460387449" lon="4.730672596389444"><ele>169.39999999999998</ele><time>2026-04-28T14:04:56.999Z</time></trkpt><trkpt lat="45.943942371707905" lon="4.730759558575431"><ele>169.0</ele><time>2026-04-28T14:04:58.999Z</time></trkpt><trkpt lat="45.943846516191755" lon="4.730845277110371"><ele>169.0</ele><time>2026-04-28T14:05:00.999Z</time></trkpt><trkpt lat="45.943752995841216" lon="4.730934168378639"><ele>169.0</ele><time>2026-04-28T14:05:02.999Z</time></trkpt><trkpt lat="45.943657594261154" lon="4.731015955790659"><ele>169.0</ele><time>2026-04-28T14:05:04.999Z</time></trkpt><trkpt lat="45.94355549098129" lon="4.731110437152317"><ele>169.0</ele><time>2026-04-28T14:05:06.999Z</time></trkpt><trkpt lat="45.94345875892522" lon="4.731195828341611"><ele>169.39999999999998</ele><time>2026-04-28T14:05:08.999Z</time></trkpt><trkpt lat="45.943354975806834" lon="4.731271151986436"><ele>169.8</ele><time>2026-04-28T14:05:10.999Z</time></trkpt><trkpt lat="45.94326054879262" lon="4.731351211870726"><ele>170.2</ele><time>2026-04-28T14:05:12.999Z</time></trkpt><trkpt lat="45.94316435937909" lon="4.73142914908723"><ele>170.60000000000002</ele><time>2026-04-28T14:05:14.999Z</time></trkpt><trkpt lat="45.943078791172496" lon="4.7315166159012625"><ele>171.0</ele><time>2026-04-28T14:05:16.999Z</time></trkpt><trkpt lat="45.942986809841386" lon="4.731592095001515"><ele>171.0</ele><time>2026-04-28T14:05:18.999Z</time></trkpt><trkpt lat="45.942893268020015" lon="4.7316421733982645"><ele>171.0</ele><time>2026-04-28T14:05:20.999Z</time></trkpt><trkpt lat="45.94280865039194" lon="4.73171234611787"><ele>171.0</ele><time>2026-04-28T14:05:22.999Z</time></trkpt><trkpt lat="45.94271395127118" lon="4.731778390056429"><ele>171.0</ele><time>2026-04-28T14:05:24.999Z</time></trkpt><trkpt lat="45.94262639247721" lon="4.731853289096198"><ele>171.0</ele><time>2026-04-28T14:05:26.999Z</time></trkpt><trkpt lat="45.94252480211037" lon="4.73192991981751"><ele>171.4</ele><time>2026-04-28T14:05:29Z</time></trkpt><trkpt lat="45.94242446861044" lon="4.732006339242083"><ele>171.8</ele><time>2026-04-28T14:05:31Z</time></trkpt><trkpt lat="45.942335956259384" lon="4.732078986770562"><ele>172.20000000000002</ele><time>2026-04-28T14:05:33Z</time></trkpt><trkpt lat="45.9422802510085" lon="4.732125956748293"><ele>172.60000000000002</ele><time>2026-04-28T14:05:34Z</time></trkpt><trkpt lat="45.94218530414039" lon="4.732214002482849"><ele>173.0</ele><time>2026-04-28T14:05:36Z</time></trkpt><trkpt lat="45.94212909270375" lon="4.732255269207254"><ele>173.0</ele><time>2026-04-28T14:05:37Z</time></trkpt><trkpt lat="45.94202250827492" lon="4.732334084335136"><ele>173.0</ele><time>2026-04-28T14:05:39Z</time></trkpt><trkpt lat="45.941922351228214" lon="4.7324216069735865"><ele>173.0</ele><time>2026-04-28T14:05:41Z</time></trkpt><trkpt lat="45.941822306451456" lon="4.732514448155458"><ele>173.0</ele><time>2026-04-28T14:05:43Z</time></trkpt><trkpt lat="45.94173075634229" lon="4.732617111903487"><ele>173.0</ele><time>2026-04-28T14:05:45Z</time></trkpt><trkpt lat="45.94163707528991" lon="4.732712031356909"><ele>173.0</ele><time>2026-04-28T14:05:47Z</time></trkpt><trkpt lat="45.941550320627094" lon="4.732824201562483"><ele>173.0</ele><time>2026-04-28T14:05:49Z</time></trkpt><trkpt lat="45.941459047547085" lon="4.732936750521716"><ele>173.0</ele><time>2026-04-28T14:05:51Z</time></trkpt><trkpt lat="45.94138011443085" lon="4.733063484476812"><ele>173.0</ele><time>2026-04-28T14:05:53Z</time></trkpt><trkpt lat="45.9413045865077" lon="4.7331899782800395"><ele>173.0</ele><time>2026-04-28T14:05:55Z</time></trkpt><trkpt lat="45.94122528643912" lon="4.733296509863678"><ele>173.0</ele><time>2026-04-28T14:05:57Z</time></trkpt><trkpt lat="45.941145541440605" lon="4.7334096317968255"><ele>173.0</ele><time>2026-04-28T14:05:59Z</time></trkpt><trkpt lat="45.9410679976097" lon="4.733531130578845"><ele>173.25</ele><time>2026-04-28T14:06:01Z</time></trkpt><trkpt lat="45.940985158619625" lon="4.73365405440895"><ele>173.5</ele><time>2026-04-28T14:06:03Z</time></trkpt><trkpt lat="45.94090832269139" lon="4.733784462599901"><ele>173.75</ele><time>2026-04-28T14:06:05Z</time></trkpt><trkpt lat="45.94082588610633" lon="4.733910958760645"><ele>174.0</ele><time>2026-04-28T14:06:07Z</time></trkpt><trkpt lat="45.94074518848324" lon="4.734040921547745"><ele>174.0</ele><time>2026-04-28T14:06:09Z</time></trkpt><trkpt lat="45.94066423705862" lon="4.734161051388672"><ele>174.0</ele><time>2026-04-28T14:06:11Z</time></trkpt><trkpt lat="45.9405856228585" lon="4.734302640927587"><ele>174.0</ele><time>2026-04-28T14:06:13Z</time></trkpt><trkpt lat="45.94051520965675" lon="4.734436169469011"><ele>174.0</ele><time>2026-04-28T14:06:15Z</time></trkpt><trkpt lat="45.94043628305061" lon="4.734561920447587"><ele>174.75</ele><time>2026-04-28T14:06:17Z</time></trkpt><trkpt lat="45.94035931214263" lon="4.734692416247201"><ele>175.5</ele><time>2026-04-28T14:06:19Z</time></trkpt><trkpt lat="45.94028641776706" lon="4.734833356288968"><ele>176.25</ele><time>2026-04-28T14:06:21Z</time></trkpt><trkpt lat="45.94020786869435" lon="4.734975838059985"><ele>177.0</ele><time>2026-04-28T14:06:23Z</time></trkpt><trkpt lat="45.940138712100016" lon="4.735114704532116"><ele>177.0</ele><time>2026-04-28T14:06:25Z</time></trkpt><trkpt lat="45.9400952648892" lon="4.735185847971208"><ele>177.0</ele><time>2026-04-28T14:06:26Z</time></trkpt><trkpt lat="45.940036067993105" lon="4.735338291970353"><ele>177.0</ele><time>2026-04-28T14:06:28Z</time></trkpt><trkpt lat="45.93996297497743" lon="4.735478503373694"><ele>177.0</ele><time>2026-04-28T14:06:30Z</time></trkpt><trkpt lat="45.939901087566916" lon="4.735615103439869"><ele>177.0</ele><time>2026-04-28T14:06:32Z</time></trkpt><trkpt lat="45.939879414856186" lon="4.735704770371191"><ele>176.0</ele><time>2026-04-28T14:06:33Z</time></trkpt><trkpt lat="45.93982838956416" lon="4.735855852002938"><ele>175.0</ele><time>2026-04-28T14:06:34.999Z</time></trkpt><trkpt lat="45.939784863750575" lon="4.7360159259820245"><ele>174.0</ele><time>2026-04-28T14:06:36.999Z</time></trkpt><trkpt lat="45.93974635137063" lon="4.736170854246488"><ele>173.0</ele><time>2026-04-28T14:06:38.999Z</time></trkpt><trkpt lat="45.939727765882296" lon="4.736261566812068"><ele>172.0</ele><time>2026-04-28T14:06:39.999Z</time></trkpt><trkpt lat="45.939686587240416" lon="4.7364175545123555"><ele>172.0</ele><time>2026-04-28T14:06:41.999Z</time></trkpt><trkpt lat="45.93965950370035" lon="4.736584925843833"><ele>172.0</ele><time>2026-04-28T14:06:43.999Z</time></trkpt><trkpt lat="45.93963090438254" lon="4.736747418945258"><ele>172.0</ele><time>2026-04-28T14:06:45.999Z</time></trkpt><trkpt lat="45.939597936289246" lon="4.73690299736397"><ele>172.0</ele><time>2026-04-28T14:06:47.999Z</time></trkpt><trkpt lat="45.93957177896447" lon="4.737067768812195"><ele>172.25</ele><time>2026-04-28T14:06:49.999Z</time></trkpt><trkpt lat="45.93955992222904" lon="4.737229288243296"><ele>172.5</ele><time>2026-04-28T14:06:51.999Z</time></trkpt><trkpt lat="45.93954145634148" lon="4.737398724621403"><ele>172.75</ele><time>2026-04-28T14:06:53.999Z</time></trkpt><trkpt lat="45.939524678213225" lon="4.7375552398030925"><ele>173.0</ele><time>2026-04-28T14:06:55.999Z</time></trkpt><trkpt lat="45.93950881155103" lon="4.7377200983438374"><ele>173.25</ele><time>2026-04-28T14:06:57.999Z</time></trkpt><trkpt lat="45.939496129226484" lon="4.737885875143968"><ele>173.5</ele><time>2026-04-28T14:06:59.999Z</time></trkpt><trkpt lat="45.93946939396004" lon="4.738039908757846"><ele>173.75</ele><time>2026-04-28T14:07:01.999Z</time></trkpt><trkpt lat="45.93944942700381" lon="4.738201941528969"><ele>174.0</ele><time>2026-04-28T14:07:03.999Z</time></trkpt><trkpt lat="45.93943581606808" lon="4.738361072444857"><ele>174.0</ele><time>2026-04-28T14:07:05.999Z</time></trkpt><trkpt lat="45.93941954699497" lon="4.738531128874512"><ele>174.0</ele><time>2026-04-28T14:07:07.999Z</time></trkpt><trkpt lat="45.93940691400301" lon="4.738693814597143"><ele>174.0</ele><time>2026-04-28T14:07:09.999Z</time></trkpt><trkpt lat="45.93939112074711" lon="4.738848904135965"><ele>174.0</ele><time>2026-04-28T14:07:11.999Z</time></trkpt><trkpt lat="45.939371263313305" lon="4.73900691873907"><ele>173.75</ele><time>2026-04-28T14:07:13.999Z</time></trkpt><trkpt lat="45.939354698129826" lon="4.739174017740342"><ele>173.5</ele><time>2026-04-28T14:07:15.999Z</time></trkpt><trkpt lat="45.93933885919068" lon="4.7393364347324125"><ele>173.25</ele><time>2026-04-28T14:07:17.999Z</time></trkpt><trkpt lat="45.93931663568943" lon="4.739500908555757"><ele>173.0</ele><time>2026-04-28T14:07:19.999Z</time></trkpt><trkpt lat="45.939293718287985" lon="4.739666835077647"><ele>172.5</ele><time>2026-04-28T14:07:21.999Z</time></trkpt><trkpt lat="45.939266630920855" lon="4.739835405915116"><ele>172.0</ele><time>2026-04-28T14:07:23.999Z</time></trkpt><trkpt lat="45.93924811356274" lon="4.740008350275108"><ele>171.5</ele><time>2026-04-28T14:07:25.999Z</time></trkpt><trkpt lat="45.939230863019624" lon="4.74017641345025"><ele>171.0</ele><time>2026-04-28T14:07:27.999Z</time></trkpt><trkpt lat="45.939220931538166" lon="4.740338095554019"><ele>170.75</ele><time>2026-04-28T14:07:29.999Z</time></trkpt><trkpt lat="45.939210499687135" lon="4.740505653536967"><ele>170.5</ele><time>2026-04-28T14:07:31.999Z</time></trkpt><trkpt lat="45.93918951491611" lon="4.740664631051009"><ele>170.25</ele><time>2026-04-28T14:07:33.999Z</time></trkpt><trkpt lat="45.939172059654844" lon="4.740827396661989"><ele>170.0</ele><time>2026-04-28T14:07:36Z</time></trkpt><trkpt lat="45.9391635629578" lon="4.741002820684675"><ele>169.5</ele><time>2026-04-28T14:07:38Z</time></trkpt><trkpt lat="45.93915274863819" lon="4.741178646973386"><ele>169.0</ele><time>2026-04-28T14:07:40Z</time></trkpt><trkpt lat="45.93912856931664" lon="4.74135269239139"><ele>168.5</ele><time>2026-04-28T14:07:42Z</time></trkpt><trkpt lat="45.93911843912496" lon="4.741532577350246"><ele>168.0</ele><time>2026-04-28T14:07:44Z</time></trkpt><trkpt lat="45.93910605185012" lon="4.741704583557977"><ele>168.0</ele><time>2026-04-28T14:07:46Z</time></trkpt><trkpt lat="45.93908977811949" lon="4.741876394001407"><ele>168.0</ele><time>2026-04-28T14:07:48Z</time></trkpt><trkpt lat="45.93907982849319" lon="4.741967300805171"><ele>168.0</ele><time>2026-04-28T14:07:49Z</time></trkpt><trkpt lat="45.93907370602322" lon="4.742141406370991"><ele>168.0</ele><time>2026-04-28T14:07:51Z</time></trkpt><trkpt lat="45.93906025047535" lon="4.742318816108409"><ele>168.0</ele><time>2026-04-28T14:07:53Z</time></trkpt><trkpt lat="45.939047976991475" lon="4.7424882564679205"><ele>168.4</ele><time>2026-04-28T14:07:55Z</time></trkpt><trkpt lat="45.93904353524164" lon="4.742579724959148"><ele>168.8</ele><time>2026-04-28T14:07:56Z</time></trkpt><trkpt lat="45.93903503113656" lon="4.742754671713423"><ele>169.2</ele><time>2026-04-28T14:07:58Z</time></trkpt><trkpt lat="45.93902560989485" lon="4.742932629415797"><ele>169.6</ele><time>2026-04-28T14:08:00Z</time></trkpt><trkpt lat="45.939029563420846" lon="4.743099101517928"><ele>170.0</ele><time>2026-04-28T14:08:02Z</time></trkpt><trkpt lat="45.93902938970977" lon="4.743262704031993"><ele>170.0</ele><time>2026-04-28T14:08:04Z</time></trkpt><trkpt lat="45.93902179522574" lon="4.7434308208979665"><ele>170.0</ele><time>2026-04-28T14:08:06Z</time></trkpt><trkpt lat="45.93901748166355" lon="4.743597758888993"><ele>170.0</ele><time>2026-04-28T14:08:08Z</time></trkpt><trkpt lat="45.93902218531366" lon="4.7437633598276046"><ele>170.0</ele><time>2026-04-28T14:08:10Z</time></trkpt><trkpt lat="45.93903183361206" lon="4.743936287925043"><ele>170.0</ele><time>2026-04-28T14:08:12Z</time></trkpt><trkpt lat="45.93906274806487" lon="4.744102432231757"><ele>170.0</ele><time>2026-04-28T14:08:14Z</time></trkpt><trkpt lat="45.93908405171872" lon="4.744272623098701"><ele>170.0</ele><time>2026-04-28T14:08:16Z</time></trkpt><trkpt lat="45.939100217339266" lon="4.744442817087478"><ele>170.0</ele><time>2026-04-28T14:08:18Z</time></trkpt><trkpt lat="45.939101343680434" lon="4.7446069511684685"><ele>170.0</ele><time>2026-04-28T14:08:20Z</time></trkpt><trkpt lat="45.939104823506725" lon="4.744699622132908"><ele>170.0</ele><time>2026-04-28T14:08:21Z</time></trkpt><trkpt lat="45.93910186227399" lon="4.744857863170746"><ele>170.0</ele><time>2026-04-28T14:08:23Z</time></trkpt><trkpt lat="45.93908470303228" lon="4.745021781118431"><ele>170.0</ele><time>2026-04-28T14:08:25Z</time></trkpt><trkpt lat="45.93906916228886" lon="4.745181968234098"><ele>170.0</ele><time>2026-04-28T14:08:27Z</time></trkpt><trkpt lat="45.93907268459797" lon="4.745349984910262"><ele>170.0</ele><time>2026-04-28T14:08:29Z</time></trkpt><trkpt lat="45.939060746754365" lon="4.745517028506068"><ele>170.0</ele><time>2026-04-28T14:08:31Z</time></trkpt><trkpt lat="45.93901477559564" lon="4.745665011077458"><ele>170.0</ele><time>2026-04-28T14:08:33Z</time></trkpt><trkpt lat="45.938980240602085" lon="4.745809606285242"><ele>170.0</ele><time>2026-04-28T14:08:35Z</time></trkpt><trkpt lat="45.93894724291253" lon="4.745944936133426"><ele>170.0</ele><time>2026-04-28T14:08:37Z</time></trkpt><trkpt lat="45.9389175023136" lon="4.746074677106654"><ele>170.0</ele><time>2026-04-28T14:08:38.999Z</time></trkpt><trkpt lat="45.938877973074405" lon="4.746203394599699"><ele>170.0</ele><time>2026-04-28T14:08:40.999Z</time></trkpt><trkpt lat="45.93883108641307" lon="4.746364108951115"><ele>170.0</ele><time>2026-04-28T14:08:42.999Z</time></trkpt><trkpt lat="45.93880677210026" lon="4.746450628461298"><ele>170.0</ele><time>2026-04-28T14:08:43.999Z</time></trkpt><trkpt lat="45.93878022644937" lon="4.746538078192303"><ele>170.0</ele><time>2026-04-28T14:08:44.999Z</time></trkpt><trkpt lat="45.93872306542822" lon="4.746695469625497"><ele>170.0</ele><time>2026-04-28T14:08:46.999Z</time></trkpt><trkpt lat="45.93867162460219" lon="4.7468493139747"><ele>170.0</ele><time>2026-04-28T14:08:48.999Z</time></trkpt><trkpt lat="45.93860737421589" lon="4.746994090808532"><ele>170.0</ele><time>2026-04-28T14:08:50.999Z</time></trkpt><trkpt lat="45.93854504360964" lon="4.747147453797296"><ele>170.0</ele><time>2026-04-28T14:08:52.999Z</time></trkpt><trkpt lat="45.93848441790128" lon="4.747304868239529"><ele>169.6</ele><time>2026-04-28T14:08:54.999Z</time></trkpt><trkpt lat="45.93844478434156" lon="4.747380608460621"><ele>169.2</ele><time>2026-04-28T14:08:55.999Z</time></trkpt><trkpt lat="45.93839278445181" lon="4.74752940420325"><ele>168.8</ele><time>2026-04-28T14:08:57.999Z</time></trkpt><trkpt lat="45.93832442387249" lon="4.747675983368882"><ele>168.4</ele><time>2026-04-28T14:08:59.999Z</time></trkpt><trkpt lat="45.93825978916896" lon="4.7478188357971325"><ele>168.0</ele><time>2026-04-28T14:09:01.999Z</time></trkpt><trkpt lat="45.938197289533086" lon="4.747956982269349"><ele>168.0</ele><time>2026-04-28T14:09:03.999Z</time></trkpt><trkpt lat="45.938160512796635" lon="4.748035319648439"><ele>168.0</ele><time>2026-04-28T14:09:04.999Z</time></trkpt><trkpt lat="45.93809967684013" lon="4.748185446994697"><ele>168.0</ele><time>2026-04-28T14:09:06.999Z</time></trkpt><trkpt lat="45.93801960386306" lon="4.74831018931901"><ele>168.0</ele><time>2026-04-28T14:09:08.999Z</time></trkpt><trkpt lat="45.93793981504587" lon="4.748420409403922"><ele>168.0</ele><time>2026-04-28T14:09:10.999Z</time></trkpt><trkpt lat="45.937868872542275" lon="4.748553477266476"><ele>168.2</ele><time>2026-04-28T14:09:12.999Z</time></trkpt><trkpt lat="45.93780403063374" lon="4.748679440214919"><ele>168.4</ele><time>2026-04-28T14:09:14.999Z</time></trkpt><trkpt lat="45.937741505723444" lon="4.748812893117013"><ele>168.6</ele><time>2026-04-28T14:09:16.999Z</time></trkpt><trkpt lat="45.93766172872156" lon="4.748925117323113"><ele>168.79999999999998</ele><time>2026-04-28T14:09:18.999Z</time></trkpt><trkpt lat="45.937598067704286" lon="4.749043986956571"><ele>169.0</ele><time>2026-04-28T14:09:20.999Z</time></trkpt><trkpt lat="45.93753169727973" lon="4.749161568607837"><ele>169.0</ele><time>2026-04-28T14:09:22.999Z</time></trkpt><trkpt lat="45.937464729960645" lon="4.749269161148985"><ele>169.0</ele><time>2026-04-28T14:09:24.999Z</time></trkpt><trkpt lat="45.93739408363265" lon="4.749391045629202"><ele>169.0</ele><time>2026-04-28T14:09:26.999Z</time></trkpt><trkpt lat="45.93733775000097" lon="4.749540475191632"><ele>169.0</ele><time>2026-04-28T14:09:28.999Z</time></trkpt><trkpt lat="45.937273580598266" lon="4.749681571922429"><ele>169.0</ele><time>2026-04-28T14:09:30.999Z</time></trkpt><trkpt lat="45.9372377319358" lon="4.749756874274517"><ele>169.0</ele><time>2026-04-28T14:09:31.999Z</time></trkpt><trkpt lat="45.93720508516014" lon="4.749837163052114"><ele>169.0</ele><time>2026-04-28T14:09:32.999Z</time></trkpt><trkpt lat="45.93713345079335" lon="4.74999772033024"><ele>169.0</ele><time>2026-04-28T14:09:34.999Z</time></trkpt><trkpt lat="45.93709931988659" lon="4.75007598836898"><ele>169.0</ele><time>2026-04-28T14:09:35.999Z</time></trkpt><trkpt lat="45.937033231591954" lon="4.750224783267716"><ele>169.0</ele><time>2026-04-28T14:09:37.999Z</time></trkpt><trkpt lat="45.93699718646648" lon="4.750316316437488"><ele>168.71428571428572</ele><time>2026-04-28T14:09:38.999Z</time></trkpt><trkpt lat="45.936951745199075" lon="4.750399120342032"><ele>168.42857142857142</ele><time>2026-04-28T14:09:39.999Z</time></trkpt><trkpt lat="45.936914470497314" lon="4.750483538078902"><ele>168.14285714285714</ele><time>2026-04-28T14:09:41Z</time></trkpt><trkpt lat="45.93687987450377" lon="4.750565579674753"><ele>167.85714285714286</ele><time>2026-04-28T14:09:42Z</time></trkpt><trkpt lat="45.93684424933046" lon="4.750641288801398"><ele>167.57142857142858</ele><time>2026-04-28T14:09:43Z</time></trkpt><trkpt lat="45.936817402911245" lon="4.7507266463951705"><ele>167.28571428571428</ele><time>2026-04-28T14:09:44Z</time></trkpt><trkpt lat="45.93677528027744" lon="4.750803048504743"><ele>167.0</ele><time>2026-04-28T14:09:45Z</time></trkpt><trkpt lat="45.93673908445208" lon="4.750877282658393"><ele>167.0</ele><time>2026-04-28T14:09:46Z</time></trkpt><trkpt lat="45.9366995615151" lon="4.750954604896126"><ele>167.0</ele><time>2026-04-28T14:09:47Z</time></trkpt><trkpt lat="45.936669996273544" lon="4.7510350678211095"><ele>167.0</ele><time>2026-04-28T14:09:48Z</time></trkpt><trkpt lat="45.9366313480795" lon="4.751124490542341"><ele>167.0</ele><time>2026-04-28T14:09:49Z</time></trkpt><trkpt lat="45.93660086609418" lon="4.751205396011197"><ele>167.0</ele><time>2026-04-28T14:09:50Z</time></trkpt><trkpt lat="45.93656760423401" lon="4.751293187729257"><ele>167.0</ele><time>2026-04-28T14:09:51Z</time></trkpt><trkpt lat="45.93653114759187" lon="4.751367052321462"><ele>167.0</ele><time>2026-04-28T14:09:52Z</time></trkpt><trkpt lat="45.93649044328146" lon="4.751445896523757"><ele>167.14285714285714</ele><time>2026-04-28T14:09:53Z</time></trkpt><trkpt lat="45.936453909022156" lon="4.751543962953414"><ele>167.28571428571428</ele><time>2026-04-28T14:09:54Z</time></trkpt><trkpt lat="45.93641881573077" lon="4.75162054885651"><ele>167.42857142857144</ele><time>2026-04-28T14:09:55Z</time></trkpt><trkpt lat="45.93638287403928" lon="4.751699237223232"><ele>167.57142857142856</ele><time>2026-04-28T14:09:56Z</time></trkpt><trkpt lat="45.93635511036471" lon="4.751795212560955"><ele>167.71428571428572</ele><time>2026-04-28T14:09:57Z</time></trkpt><trkpt lat="45.9363233501341" lon="4.751878605237574"><ele>167.85714285714286</ele><time>2026-04-28T14:09:58Z</time></trkpt><trkpt lat="45.93629828878318" lon="4.751966098925492"><ele>168.0</ele><time>2026-04-28T14:09:59Z</time></trkpt><trkpt lat="45.936278825175876" lon="4.752056369721851"><ele>168.0</ele><time>2026-04-28T14:10:00Z</time></trkpt><trkpt lat="45.93625687527506" lon="4.752146138723202"><ele>168.0</ele><time>2026-04-28T14:10:01Z</time></trkpt><trkpt lat="45.93623369752699" lon="4.752230740310816"><ele>168.0</ele><time>2026-04-28T14:10:02Z</time></trkpt><trkpt lat="45.93620212971112" lon="4.752310446236168"><ele>168.0</ele><time>2026-04-28T14:10:03Z</time></trkpt><trkpt lat="45.93615156163573" lon="4.752473604290018"><ele>168.0</ele><time>2026-04-28T14:10:05Z</time></trkpt><trkpt lat="45.93611086344409" lon="4.75264835755478"><ele>168.0</ele><time>2026-04-28T14:10:07Z</time></trkpt><trkpt lat="45.93609189455264" lon="4.752736531004376"><ele>168.16666666666666</ele><time>2026-04-28T14:10:08Z</time></trkpt><trkpt lat="45.93607202503675" lon="4.752825096039"><ele>168.33333333333334</ele><time>2026-04-28T14:10:09Z</time></trkpt><trkpt lat="45.93603842360738" lon="4.75299962405708"><ele>168.5</ele><time>2026-04-28T14:10:11Z</time></trkpt><trkpt lat="45.936028289466776" lon="4.753091606185304"><ele>168.66666666666669</ele><time>2026-04-28T14:10:12Z</time></trkpt><trkpt lat="45.93601428412512" lon="4.753188642270057"><ele>168.83333333333334</ele><time>2026-04-28T14:10:13Z</time></trkpt><trkpt lat="45.935999286842545" lon="4.753282048867284"><ele>169.0</ele><time>2026-04-28T14:10:14Z</time></trkpt><trkpt lat="45.93597232732298" lon="4.753459880597186"><ele>169.0</ele><time>2026-04-28T14:10:16Z</time></trkpt><trkpt lat="45.935964610989565" lon="4.75355237178888"><ele>169.0</ele><time>2026-04-28T14:10:17Z</time></trkpt><trkpt lat="45.93593113264371" lon="4.753710562113239"><ele>169.0</ele><time>2026-04-28T14:10:19Z</time></trkpt><trkpt lat="45.93589494718212" lon="4.753879519990914"><ele>169.0</ele><time>2026-04-28T14:10:21Z</time></trkpt><trkpt lat="45.93587575874077" lon="4.753966928596212"><ele>169.0</ele><time>2026-04-28T14:10:22Z</time></trkpt><trkpt lat="45.93585956295252" lon="4.754123077262071"><ele>168.79999999999998</ele><time>2026-04-28T14:10:24Z</time></trkpt><trkpt lat="45.93584947215868" lon="4.754213744944803"><ele>168.6</ele><time>2026-04-28T14:10:25Z</time></trkpt><trkpt lat="45.93581128995496" lon="4.754375789116297"><ele>168.4</ele><time>2026-04-28T14:10:27Z</time></trkpt><trkpt lat="45.93577734331318" lon="4.75453665578047"><ele>168.2</ele><time>2026-04-28T14:10:29Z</time></trkpt><trkpt lat="45.93574861583443" lon="4.754704018202516"><ele>168.0</ele><time>2026-04-28T14:10:31Z</time></trkpt><trkpt lat="45.93574554925015" lon="4.754798149050188"><ele>168.4</ele><time>2026-04-28T14:10:32Z</time></trkpt><trkpt lat="45.93571982011741" lon="4.75496594570432"><ele>168.8</ele><time>2026-04-28T14:10:34Z</time></trkpt><trkpt lat="45.93569659384076" lon="4.75513122426312"><ele>169.2</ele><time>2026-04-28T14:10:36Z</time></trkpt><trkpt lat="45.93566425758826" lon="4.755301581905151"><ele>169.6</ele><time>2026-04-28T14:10:38Z</time></trkpt><trkpt lat="45.93564831801999" lon="4.755389227100631"><ele>170.0</ele><time>2026-04-28T14:10:39Z</time></trkpt><trkpt lat="45.93563357341326" lon="4.7554779512595555"><ele>170.4</ele><time>2026-04-28T14:10:40Z</time></trkpt><trkpt lat="45.935614412217014" lon="4.755564986252865"><ele>170.8</ele><time>2026-04-28T14:10:41Z</time></trkpt><trkpt lat="45.93558615670446" lon="4.755736990097874"><ele>171.2</ele><time>2026-04-28T14:10:42.999Z</time></trkpt><trkpt lat="45.93555793979283" lon="4.75589967587677"><ele>171.6</ele><time>2026-04-28T14:10:44.999Z</time></trkpt><trkpt lat="45.935553413642126" lon="4.755992053016835"><ele>172.0</ele><time>2026-04-28T14:10:45.999Z</time></trkpt><trkpt lat="45.93552213199702" lon="4.756162177138125"><ele>172.2857142857143</ele><time>2026-04-28T14:10:47.999Z</time></trkpt><trkpt lat="45.93549811715401" lon="4.756331601816522"><ele>172.57142857142858</ele><time>2026-04-28T14:10:49.999Z</time></trkpt><trkpt lat="45.93548679211505" lon="4.756421393719166"><ele>172.85714285714286</ele><time>2026-04-28T14:10:50.999Z</time></trkpt><trkpt lat="45.93547033055901" lon="4.75651014322671"><ele>173.14285714285717</ele><time>2026-04-28T14:10:51.999Z</time></trkpt><trkpt lat="45.93544933565969" lon="4.7565984332838385"><ele>173.42857142857144</ele><time>2026-04-28T14:10:52.999Z</time></trkpt><trkpt lat="45.93543093301433" lon="4.7566878416265554"><ele>173.71428571428572</ele><time>2026-04-28T14:10:53.999Z</time></trkpt><trkpt lat="45.935411784110165" lon="4.756779764249602"><ele>174.0</ele><time>2026-04-28T14:10:54.999Z</time></trkpt><trkpt lat="45.93539974108142" lon="4.756870651620322"><ele>174.0</ele><time>2026-04-28T14:10:55.999Z</time></trkpt><trkpt lat="45.935381194949265" lon="4.756961179565855"><ele>174.0</ele><time>2026-04-28T14:10:56.999Z</time></trkpt><trkpt lat="45.93535527804944" lon="4.757052121383004"><ele>174.0</ele><time>2026-04-28T14:10:57.999Z</time></trkpt><trkpt lat="45.9353400818607" lon="4.757144338948814"><ele>174.0</ele><time>2026-04-28T14:10:58.999Z</time></trkpt><trkpt lat="45.93533283385875" lon="4.757241430660719"><ele>174.0</ele><time>2026-04-28T14:10:59.999Z</time></trkpt><trkpt lat="45.93532382227873" lon="4.757336658234101"><ele>174.0</ele><time>2026-04-28T14:11:00.999Z</time></trkpt><trkpt lat="45.935318981562965" lon="4.757439988117741"><ele>174.0</ele><time>2026-04-28T14:11:01.999Z</time></trkpt><trkpt lat="45.935302197362546" lon="4.757536993619485"><ele>174.0</ele><time>2026-04-28T14:11:02.999Z</time></trkpt><trkpt lat="45.93528700531446" lon="4.757630899158864"><ele>174.0</ele><time>2026-04-28T14:11:03.999Z</time></trkpt><trkpt lat="45.93528067934203" lon="4.757721186681801"><ele>174.0</ele><time>2026-04-28T14:11:04.999Z</time></trkpt><trkpt lat="45.93527235867183" lon="4.757811647340672"><ele>174.0</ele><time>2026-04-28T14:11:05.999Z</time></trkpt><trkpt lat="45.93526642781768" lon="4.757917340275038"><ele>174.0</ele><time>2026-04-28T14:11:06.999Z</time></trkpt><trkpt lat="45.93525137718699" lon="4.7580154851241065"><ele>174.0</ele><time>2026-04-28T14:11:07.999Z</time></trkpt><trkpt lat="45.935246998408424" lon="4.758115198042918"><ele>174.0</ele><time>2026-04-28T14:11:08.999Z</time></trkpt><trkpt lat="45.935243051656386" lon="4.75821322416749"><ele>173.83333333333334</ele><time>2026-04-28T14:11:09.999Z</time></trkpt><trkpt lat="45.93525214875133" lon="4.7583056277308335"><ele>173.66666666666666</ele><time>2026-04-28T14:11:10.999Z</time></trkpt><trkpt lat="45.935268263897335" lon="4.758409094534402"><ele>173.5</ele><time>2026-04-28T14:11:11.999Z</time></trkpt><trkpt lat="45.93528931770931" lon="4.758503131633023"><ele>173.33333333333331</ele><time>2026-04-28T14:11:12.999Z</time></trkpt><trkpt lat="45.93532396263413" lon="4.7586814884408515"><ele>173.16666666666666</ele><time>2026-04-28T14:11:14.999Z</time></trkpt><trkpt lat="45.935346507631564" lon="4.758775023139543"><ele>173.0</ele><time>2026-04-28T14:11:15.999Z</time></trkpt><trkpt lat="45.93537894163378" lon="4.758864236423995"><ele>172.57142857142856</ele><time>2026-04-28T14:11:16.999Z</time></trkpt><trkpt lat="45.93541257569574" lon="4.758944963119012"><ele>172.14285714285717</ele><time>2026-04-28T14:11:17.999Z</time></trkpt><trkpt lat="45.935440080413514" lon="4.759033939642278"><ele>171.71428571428572</ele><time>2026-04-28T14:11:18.999Z</time></trkpt><trkpt lat="45.93547472555797" lon="4.759121975333233"><ele>171.28571428571428</ele><time>2026-04-28T14:11:19.999Z</time></trkpt><trkpt lat="45.93549760258257" lon="4.759207900548396"><ele>170.85714285714283</ele><time>2026-04-28T14:11:20.999Z</time></trkpt><trkpt lat="45.935516401797926" lon="4.759296572642504"><ele>170.42857142857144</ele><time>2026-04-28T14:11:21.999Z</time></trkpt><trkpt lat="45.93555099404931" lon="4.759394112904153"><ele>170.0</ele><time>2026-04-28T14:11:22.999Z</time></trkpt><trkpt lat="45.9355764779284" lon="4.759489407842077"><ele>170.0</ele><time>2026-04-28T14:11:23.999Z</time></trkpt><trkpt lat="45.935610708495844" lon="4.759579473498684"><ele>170.0</ele><time>2026-04-28T14:11:24.999Z</time></trkpt><trkpt lat="45.93563422182608" lon="4.75967297578523"><ele>170.0</ele><time>2026-04-28T14:11:25.999Z</time></trkpt><trkpt lat="45.93566531927859" lon="4.759760746695915"><ele>170.0</ele><time>2026-04-28T14:11:26.999Z</time></trkpt><trkpt lat="45.935694455315094" lon="4.759846905600879"><ele>170.0</ele><time>2026-04-28T14:11:27.999Z</time></trkpt><trkpt lat="45.935731831082414" lon="4.759924353523466"><ele>170.0</ele><time>2026-04-28T14:11:28.999Z</time></trkpt><trkpt lat="45.93577521066404" lon="4.760082482324725"><ele>170.0</ele><time>2026-04-28T14:11:30.999Z</time></trkpt><trkpt lat="45.935809542952434" lon="4.760161668811455"><ele>170.0</ele><time>2026-04-28T14:11:31.999Z</time></trkpt><trkpt lat="45.935862382105896" lon="4.7603241450743194"><ele>170.0</ele><time>2026-04-28T14:11:33.999Z</time></trkpt><trkpt lat="45.93588513183598" lon="4.760412572590808"><ele>170.0</ele><time>2026-04-28T14:11:34.999Z</time></trkpt><trkpt lat="45.93593536889308" lon="4.760580392582746"><ele>170.0</ele><time>2026-04-28T14:11:36.999Z</time></trkpt><trkpt lat="45.9359661621806" lon="4.760659376898431"><ele>170.0</ele><time>2026-04-28T14:11:37.999Z</time></trkpt><trkpt lat="45.93599417661739" lon="4.76074477956305"><ele>170.0</ele><time>2026-04-28T14:11:38.999Z</time></trkpt><trkpt lat="45.936045031978445" lon="4.760904956770475"><ele>170.0</ele><time>2026-04-28T14:11:40.999Z</time></trkpt><trkpt lat="45.93607471008654" lon="4.760994846768213"><ele>170.0</ele><time>2026-04-28T14:11:41.999Z</time></trkpt><trkpt lat="45.93609964545854" lon="4.761080899973421"><ele>170.0</ele><time>2026-04-28T14:11:42.999Z</time></trkpt><trkpt lat="45.936164242770175" lon="4.7612398842216335"><ele>170.0</ele><time>2026-04-28T14:11:44.999Z</time></trkpt><trkpt lat="45.93619487965807" lon="4.761328215060737"><ele>170.0</ele><time>2026-04-28T14:11:45.999Z</time></trkpt><trkpt lat="45.936225067965715" lon="4.761414651146941"><ele>170.0</ele><time>2026-04-28T14:11:47Z</time></trkpt><trkpt lat="45.93627568345584" lon="4.761591324608741"><ele>170.0</ele><time>2026-04-28T14:11:49Z</time></trkpt><trkpt lat="45.936322297633126" lon="4.761750564901237"><ele>170.0</ele><time>2026-04-28T14:11:51Z</time></trkpt><trkpt lat="45.936382372749485" lon="4.761915272832692"><ele>170.0</ele><time>2026-04-28T14:11:53Z</time></trkpt><trkpt lat="45.936438449703004" lon="4.762070837055066"><ele>170.0</ele><time>2026-04-28T14:11:55Z</time></trkpt><trkpt lat="45.93646633220181" lon="4.762161980667391"><ele>170.0</ele><time>2026-04-28T14:11:56Z</time></trkpt><trkpt lat="45.93649160625805" lon="4.762245484210473"><ele>170.0</ele><time>2026-04-28T14:11:57Z</time></trkpt><trkpt lat="45.93651416261369" lon="4.762332351659905"><ele>170.0</ele><time>2026-04-28T14:11:58Z</time></trkpt><trkpt lat="45.93654540328461" lon="4.7624134873397"><ele>170.0</ele><time>2026-04-28T14:11:59Z</time></trkpt><trkpt lat="45.93658549208768" lon="4.762500318255005"><ele>170.0</ele><time>2026-04-28T14:12:00Z</time></trkpt><trkpt lat="45.936615879273205" lon="4.762593561917406"><ele>170.0</ele><time>2026-04-28T14:12:01Z</time></trkpt><trkpt lat="45.93665092987978" lon="4.762669714859216"><ele>170.0</ele><time>2026-04-28T14:12:02Z</time></trkpt><trkpt lat="45.93670481407902" lon="4.762834828388693"><ele>170.0</ele><time>2026-04-28T14:12:04Z</time></trkpt><trkpt lat="45.93673513151858" lon="4.7629214413820105"><ele>170.0</ele><time>2026-04-28T14:12:05Z</time></trkpt><trkpt lat="45.93676951766239" lon="4.763005090434054"><ele>170.0</ele><time>2026-04-28T14:12:06Z</time></trkpt><trkpt lat="45.93680111190368" lon="4.763095386533919"><ele>169.85714285714286</ele><time>2026-04-28T14:12:07Z</time></trkpt><trkpt lat="45.9368320671844" lon="4.763183115942012"><ele>169.7142857142857</ele><time>2026-04-28T14:12:08Z</time></trkpt><trkpt lat="45.936862887796664" lon="4.7632714801374245"><ele>169.57142857142856</ele><time>2026-04-28T14:12:09Z</time></trkpt><trkpt lat="45.93688943416214" lon="4.763357590420117"><ele>169.42857142857144</ele><time>2026-04-28T14:12:10Z</time></trkpt><trkpt lat="45.936923016664345" lon="4.763447565889818"><ele>169.28571428571428</ele><time>2026-04-28T14:12:11Z</time></trkpt><trkpt lat="45.93694965583804" lon="4.763537316720356"><ele>169.14285714285714</ele><time>2026-04-28T14:12:12Z</time></trkpt><trkpt lat="45.93697336390448" lon="4.763630217480839"><ele>169.0</ele><time>2026-04-28T14:12:13Z</time></trkpt><trkpt lat="45.9370107492078" lon="4.763723215910433"><ele>169.28571428571428</ele><time>2026-04-28T14:12:14Z</time></trkpt><trkpt lat="45.93703696635595" lon="4.763808254606169"><ele>169.57142857142856</ele><time>2026-04-28T14:12:15Z</time></trkpt><trkpt lat="45.93706419205382" lon="4.763894161536832"><ele>169.85714285714283</ele><time>2026-04-28T14:12:16Z</time></trkpt><trkpt lat="45.93709703592088" lon="4.7639835949349445"><ele>170.14285714285714</ele><time>2026-04-28T14:12:17Z</time></trkpt><trkpt lat="45.93712806405248" lon="4.7640709062668165"><ele>170.42857142857142</ele><time>2026-04-28T14:12:18Z</time></trkpt><trkpt lat="45.937154744988995" lon="4.764156311188012"><ele>170.7142857142857</ele><time>2026-04-28T14:12:19Z</time></trkpt><trkpt lat="45.93718343781731" lon="4.764247208898989"><ele>171.0</ele><time>2026-04-28T14:12:20Z</time></trkpt><trkpt lat="45.9372153670169" lon="4.764335957730551"><ele>170.85714285714283</ele><time>2026-04-28T14:12:21Z</time></trkpt><trkpt lat="45.93724326223576" lon="4.764427621361069"><ele>170.71428571428572</ele><time>2026-04-28T14:12:22Z</time></trkpt><trkpt lat="45.93727041162143" lon="4.764520317482539"><ele>170.57142857142856</ele><time>2026-04-28T14:12:23Z</time></trkpt><trkpt lat="45.937300429562605" lon="4.764606611409571"><ele>170.42857142857142</ele><time>2026-04-28T14:12:24Z</time></trkpt><trkpt lat="45.93733737801127" lon="4.764701609770382"><ele>170.28571428571428</ele><time>2026-04-28T14:12:25Z</time></trkpt><trkpt lat="45.93736423312241" lon="4.764788999691163"><ele>170.14285714285714</ele><time>2026-04-28T14:12:26Z</time></trkpt><trkpt lat="45.93739912295413" lon="4.76488043887174"><ele>170.0</ele><time>2026-04-28T14:12:27Z</time></trkpt><trkpt lat="45.937432377849724" lon="4.764970368563838"><ele>170.0</ele><time>2026-04-28T14:12:28Z</time></trkpt><trkpt lat="45.937461916723244" lon="4.765063036731112"><ele>170.0</ele><time>2026-04-28T14:12:29Z</time></trkpt><trkpt lat="45.93749681217087" lon="4.765161130223432"><ele>170.0</ele><time>2026-04-28T14:12:30Z</time></trkpt><trkpt lat="45.93752475301544" lon="4.7652519202853485"><ele>170.0</ele><time>2026-04-28T14:12:31Z</time></trkpt><trkpt lat="45.937553049095726" lon="4.765340476981382"><ele>170.0</ele><time>2026-04-28T14:12:32Z</time></trkpt><trkpt lat="45.93759364182368" lon="4.765433346989208"><ele>170.0</ele><time>2026-04-28T14:12:33Z</time></trkpt><trkpt lat="45.937627987405314" lon="4.765518482369285"><ele>170.0</ele><time>2026-04-28T14:12:34Z</time></trkpt><trkpt lat="45.93766147104369" lon="4.765608767224423"><ele>170.0</ele><time>2026-04-28T14:12:35Z</time></trkpt><trkpt lat="45.93769186020168" lon="4.765698012233866"><ele>170.0</ele><time>2026-04-28T14:12:36Z</time></trkpt><trkpt lat="45.93772585951405" lon="4.76578161403115"><ele>170.0</ele><time>2026-04-28T14:12:37Z</time></trkpt><trkpt lat="45.93775750770138" lon="4.765875804104146"><ele>170.0</ele><time>2026-04-28T14:12:38Z</time></trkpt><trkpt lat="45.93778898013253" lon="4.765963418536926"><ele>170.0</ele><time>2026-04-28T14:12:39Z</time></trkpt><trkpt lat="45.9378208300397" lon="4.766048127620968"><ele>170.0</ele><time>2026-04-28T14:12:40Z</time></trkpt><trkpt lat="45.93784799769555" lon="4.766131058825835"><ele>170.0</ele><time>2026-04-28T14:12:41Z</time></trkpt><trkpt lat="45.93787761545391" lon="4.766222821383823"><ele>170.0</ele><time>2026-04-28T14:12:42Z</time></trkpt><trkpt lat="45.93790781122388" lon="4.766303368546974"><ele>170.0</ele><time>2026-04-28T14:12:42.999Z</time></trkpt><trkpt lat="45.937973678528" lon="4.7664464772459745"><ele>170.0</ele><time>2026-04-28T14:12:44.999Z</time></trkpt><trkpt lat="45.93800983459544" lon="4.766522092707494"><ele>170.0</ele><time>2026-04-28T14:12:45.999Z</time></trkpt><trkpt lat="45.938073775987014" lon="4.7666596523392935"><ele>170.0</ele><time>2026-04-28T14:12:47.999Z</time></trkpt><trkpt lat="45.93814480859126" lon="4.766798714410283"><ele>170.0</ele><time>2026-04-28T14:12:49.999Z</time></trkpt><trkpt lat="45.93821932331206" lon="4.766939892195218"><ele>170.0</ele><time>2026-04-28T14:12:51.999Z</time></trkpt><trkpt lat="45.93829563302959" lon="4.767074094574423"><ele>170.0</ele><time>2026-04-28T14:12:53.999Z</time></trkpt><trkpt lat="45.93837648778145" lon="4.767207130277445"><ele>170.0</ele><time>2026-04-28T14:12:55.999Z</time></trkpt><trkpt lat="45.93844782987451" lon="4.767351924714716"><ele>170.33333333333331</ele><time>2026-04-28T14:12:57.999Z</time></trkpt><trkpt lat="45.9384949411127" lon="4.767415597034555"><ele>170.66666666666666</ele><time>2026-04-28T14:12:58.999Z</time></trkpt><trkpt lat="45.938534450452025" lon="4.767487215213759"><ele>171.0</ele><time>2026-04-28T14:12:59.999Z</time></trkpt><trkpt lat="45.9386194119802" lon="4.767620596152818"><ele>171.33333333333334</ele><time>2026-04-28T14:13:01.999Z</time></trkpt><trkpt lat="45.938659546304365" lon="4.767692084136537"><ele>171.66666666666669</ele><time>2026-04-28T14:13:02.999Z</time></trkpt><trkpt lat="45.938745574584445" lon="4.767826765556146"><ele>172.0</ele><time>2026-04-28T14:13:04.999Z</time></trkpt><trkpt lat="45.93878918880927" lon="4.767892526037731"><ele>172.0</ele><time>2026-04-28T14:13:05.999Z</time></trkpt><trkpt lat="45.93887545026896" lon="4.768027721440269"><ele>172.0</ele><time>2026-04-28T14:13:07.999Z</time></trkpt><trkpt lat="45.93896671117552" lon="4.768155296759402"><ele>172.0</ele><time>2026-04-28T14:13:09.999Z</time></trkpt><trkpt lat="45.939012613316194" lon="4.7682218129652085"><ele>172.0</ele><time>2026-04-28T14:13:10.999Z</time></trkpt><trkpt lat="45.93909485691371" lon="4.768345656068079"><ele>172.0</ele><time>2026-04-28T14:13:12.999Z</time></trkpt><trkpt lat="45.939179018213714" lon="4.768457051384034"><ele>172.0</ele><time>2026-04-28T14:13:14.999Z</time></trkpt><trkpt lat="45.93925904875544" lon="4.768565590372468"><ele>172.0</ele><time>2026-04-28T14:13:16.999Z</time></trkpt><trkpt lat="45.939335580893" lon="4.7686928586471895"><ele>172.0</ele><time>2026-04-28T14:13:18.999Z</time></trkpt><trkpt lat="45.939389616545355" lon="4.7688262463461"><ele>172.0</ele><time>2026-04-28T14:13:20.999Z</time></trkpt><trkpt lat="45.93942601286386" lon="4.768959640778496"><ele>172.0</ele><time>2026-04-28T14:13:22.999Z</time></trkpt><trkpt lat="45.939453068897464" lon="4.769115806659614"><ele>172.0</ele><time>2026-04-28T14:13:24.999Z</time></trkpt><trkpt lat="45.939447964108666" lon="4.769298734621522"><ele>172.0</ele><time>2026-04-28T14:13:26.999Z</time></trkpt><trkpt lat="45.93947120756663" lon="4.769474572865557"><ele>172.0</ele><time>2026-04-28T14:13:28.999Z</time></trkpt><trkpt lat="45.93951162767393" lon="4.769635465012591"><ele>172.0</ele><time>2026-04-28T14:13:30.999Z</time></trkpt><trkpt lat="45.93955605043173" lon="4.769777462426131"><ele>171.8</ele><time>2026-04-28T14:13:32.999Z</time></trkpt><trkpt lat="45.93960267529237" lon="4.7699118314467945"><ele>171.6</ele><time>2026-04-28T14:13:34.999Z</time></trkpt><trkpt lat="45.93963586947762" lon="4.770042117673201"><ele>171.4</ele><time>2026-04-28T14:13:36.999Z</time></trkpt><trkpt lat="45.939677583985905" lon="4.770188699701577"><ele>171.20000000000002</ele><time>2026-04-28T14:13:38.999Z</time></trkpt><trkpt lat="45.939719035507856" lon="4.77033574971125"><ele>171.0</ele><time>2026-04-28T14:13:40.999Z</time></trkpt><trkpt lat="45.93976326716802" lon="4.77048670590224"><ele>171.0</ele><time>2026-04-28T14:13:42.999Z</time></trkpt><trkpt lat="45.93980290518549" lon="4.7706449055962965"><ele>171.0</ele><time>2026-04-28T14:13:44.999Z</time></trkpt><trkpt lat="45.939842202327526" lon="4.770792518033798"><ele>171.0</ele><time>2026-04-28T14:13:46.999Z</time></trkpt><trkpt lat="45.93988092657628" lon="4.770953178777369"><ele>171.0</ele><time>2026-04-28T14:13:48.999Z</time></trkpt><trkpt lat="45.93991591544157" lon="4.771108824911839"><ele>171.0</ele><time>2026-04-28T14:13:50.999Z</time></trkpt><trkpt lat="45.939949407584216" lon="4.771254309092932"><ele>171.0</ele><time>2026-04-28T14:13:53Z</time></trkpt><trkpt lat="45.93997544285006" lon="4.771403689415303"><ele>171.0</ele><time>2026-04-28T14:13:55Z</time></trkpt><trkpt lat="45.93998990245384" lon="4.771551437967356"><ele>171.0</ele><time>2026-04-28T14:13:57Z</time></trkpt><trkpt lat="45.940081005307924" lon="4.771645888155823"><ele>171.0</ele><time>2026-04-28T14:13:58Z</time></trkpt><trkpt lat="45.94006442255347" lon="4.771787481646954"><ele>170.60000000000002</ele><time>2026-04-28T14:14:00Z</time></trkpt><trkpt lat="45.94004568387385" lon="4.771947483910473"><ele>170.2</ele><time>2026-04-28T14:14:02Z</time></trkpt><trkpt lat="45.940039490126985" lon="4.7721006909704204"><ele>169.8</ele><time>2026-04-28T14:14:04Z</time></trkpt><trkpt lat="45.94001154778563" lon="4.7722389663731475"><ele>169.39999999999998</ele><time>2026-04-28T14:14:06Z</time></trkpt><trkpt lat="45.94000515481414" lon="4.772393756425818"><ele>169.0</ele><time>2026-04-28T14:14:08Z</time></trkpt><trkpt lat="45.939979904159955" lon="4.772542260253353"><ele>169.25</ele><time>2026-04-28T14:14:10Z</time></trkpt><trkpt lat="45.94010781616441" lon="4.772637110744104"><ele>169.5</ele><time>2026-04-28T14:14:11Z</time></trkpt><trkpt lat="45.940087095233444" lon="4.772850766693429"><ele>169.75</ele><time>2026-04-28T14:14:14Z</time></trkpt><trkpt lat="45.940018496967056" lon="4.772918555416805"><ele>170.0</ele><time>2026-04-28T14:14:15Z</time></trkpt><trkpt lat="45.94001355085361" lon="4.773047360117085"><ele>170.0</ele><time>2026-04-28T14:14:17Z</time></trkpt><trkpt lat="45.94006863056691" lon="4.773208837301199"><ele>170.0</ele><time>2026-04-28T14:14:19Z</time></trkpt><trkpt lat="45.9400233714915" lon="4.7733003737117725"><ele>170.0</ele><time>2026-04-28T14:14:20Z</time></trkpt><trkpt lat="45.939993772764936" lon="4.7734726903226115"><ele>170.0</ele><time>2026-04-28T14:14:22Z</time></trkpt><trkpt lat="45.93997296705962" lon="4.773632774877428"><ele>170.0</ele><time>2026-04-28T14:14:24Z</time></trkpt><trkpt lat="45.939998105135984" lon="4.773782682835153"><ele>170.33333333333331</ele><time>2026-04-28T14:14:26Z</time></trkpt><trkpt lat="45.940021743059766" lon="4.773896081279798"><ele>170.66666666666666</ele><time>2026-04-28T14:14:28Z</time></trkpt><trkpt lat="45.93998676765094" lon="4.774013549168079"><ele>171.0</ele><time>2026-04-28T14:14:30Z</time></trkpt><trkpt lat="45.94004919386711" lon="4.774048771489177"><ele>171.33333333333334</ele><time>2026-04-28T14:20:01.999Z</time></trkpt><trkpt lat="45.940005193574244" lon="4.77413051244662"><ele>171.66666666666669</ele><time>2026-04-28T14:20:14Z</time></trkpt><trkpt lat="45.93999093798227" lon="4.774258857029478"><ele>172.0</ele><time>2026-04-28T14:20:17Z</time></trkpt><trkpt lat="45.93998610371361" lon="4.7743680397814225"><ele>172.83333333333334</ele><time>2026-04-28T14:20:20Z</time></trkpt><trkpt lat="45.93997592652031" lon="4.774465750677901"><ele>173.66666666666669</ele><time>2026-04-28T14:20:22Z</time></trkpt><trkpt lat="45.93996225347852" lon="4.77458251014319"><ele>174.5</ele><time>2026-04-28T14:20:24Z</time></trkpt><trkpt lat="45.93994094936195" lon="4.774707415395865"><ele>175.33333333333334</ele><time>2026-04-28T14:20:26Z</time></trkpt><trkpt lat="45.939921082947926" lon="4.774846304051299"><ele>176.16666666666666</ele><time>2026-04-28T14:20:28Z</time></trkpt><trkpt lat="45.939902452173015" lon="4.774974976601298"><ele>177.0</ele><time>2026-04-28T14:20:30Z</time></trkpt><trkpt lat="45.939877162530955" lon="4.775124859422168"><ele>178.0</ele><time>2026-04-28T14:20:32Z</time></trkpt><trkpt lat="45.93985010022955" lon="4.775277166254587"><ele>179.0</ele><time>2026-04-28T14:20:34Z</time></trkpt><trkpt lat="45.9398220342968" lon="4.775436855548561"><ele>180.0</ele><time>2026-04-28T14:20:36Z</time></trkpt><trkpt lat="45.93979976176713" lon="4.775597687134478"><ele>181.0</ele><time>2026-04-28T14:20:38Z</time></trkpt><trkpt lat="45.93978668988693" lon="4.7756883437850774"><ele>182.0</ele><time>2026-04-28T14:20:39Z</time></trkpt><trkpt lat="45.939758939172485" lon="4.775857327104589"><ele>182.0</ele><time>2026-04-28T14:20:41Z</time></trkpt><trkpt lat="45.93974614180365" lon="4.7759478166161955"><ele>182.0</ele><time>2026-04-28T14:20:42Z</time></trkpt><trkpt lat="45.93973002672003" lon="4.7760354150313935"><ele>182.0</ele><time>2026-04-28T14:20:43Z</time></trkpt><trkpt lat="45.93968677286512" lon="4.776197909344258"><ele>182.0</ele><time>2026-04-28T14:20:45Z</time></trkpt><trkpt lat="45.93966462658849" lon="4.776283941105854"><ele>182.0</ele><time>2026-04-28T14:20:46Z</time></trkpt><trkpt lat="45.939646299123744" lon="4.776376671493352"><ele>182.0</ele><time>2026-04-28T14:20:47Z</time></trkpt><trkpt lat="45.93960867966484" lon="4.776548971119765"><ele>182.71428571428572</ele><time>2026-04-28T14:20:49Z</time></trkpt><trkpt lat="45.939585449109636" lon="4.776641314450952"><ele>183.42857142857144</ele><time>2026-04-28T14:20:50Z</time></trkpt><trkpt lat="45.93956010774222" lon="4.776731572207805"><ele>184.14285714285714</ele><time>2026-04-28T14:20:51Z</time></trkpt><trkpt lat="45.939531299170376" lon="4.776820101523107"><ele>184.85714285714286</ele><time>2026-04-28T14:20:52Z</time></trkpt><trkpt lat="45.93950157824126" lon="4.776906483990723"><ele>185.57142857142858</ele><time>2026-04-28T14:20:53Z</time></trkpt><trkpt lat="45.939470250725485" lon="4.776987235472255"><ele>186.28571428571428</ele><time>2026-04-28T14:20:54Z</time></trkpt><trkpt lat="45.93943740023931" lon="4.777069129600823"><ele>187.0</ele><time>2026-04-28T14:20:55Z</time></trkpt><trkpt lat="45.93938325155404" lon="4.77722558663258"><ele>188.0</ele><time>2026-04-28T14:20:57Z</time></trkpt><trkpt lat="45.93932325103839" lon="4.7773709412098375"><ele>189.0</ele><time>2026-04-28T14:20:59Z</time></trkpt><trkpt lat="45.93926194447651" lon="4.777516434049139"><ele>190.0</ele><time>2026-04-28T14:21:01Z</time></trkpt><trkpt lat="45.93919133120468" lon="4.777660191876875"><ele>191.0</ele><time>2026-04-28T14:21:03Z</time></trkpt><trkpt lat="45.93913107440787" lon="4.777815346221531"><ele>189.83333333333331</ele><time>2026-04-28T14:21:05Z</time></trkpt><trkpt lat="45.93909828546247" lon="4.777894435783019"><ele>188.66666666666666</ele><time>2026-04-28T14:21:06Z</time></trkpt><trkpt lat="45.939067816526354" lon="4.777974668797839"><ele>187.5</ele><time>2026-04-28T14:21:07Z</time></trkpt><trkpt lat="45.939040831376765" lon="4.778059781717158"><ele>186.33333333333334</ele><time>2026-04-28T14:21:07.999Z</time></trkpt><trkpt lat="45.93899450544754" lon="4.778220328210123"><ele>185.16666666666669</ele><time>2026-04-28T14:21:09.999Z</time></trkpt><trkpt lat="45.93895282298382" lon="4.778375047148214"><ele>184.0</ele><time>2026-04-28T14:21:11.999Z</time></trkpt><trkpt lat="45.93890724949162" lon="4.7785224656836816"><ele>184.0</ele><time>2026-04-28T14:21:13.999Z</time></trkpt><trkpt lat="45.93886852927118" lon="4.778653677362277"><ele>184.0</ele><time>2026-04-28T14:21:15.999Z</time></trkpt><trkpt lat="45.93880962474787" lon="4.778753974368118"><ele>184.0</ele><time>2026-04-28T14:21:17.999Z</time></trkpt><trkpt lat="45.938728704131414" lon="4.778889580064579"><ele>184.0</ele><time>2026-04-28T14:21:19.999Z</time></trkpt><trkpt lat="45.93868238316813" lon="4.778959673305118"><ele>184.0</ele><time>2026-04-28T14:21:20.999Z</time></trkpt><trkpt lat="45.93863298417303" lon="4.779029732593683"><ele>184.0</ele><time>2026-04-28T14:21:21.999Z</time></trkpt><trkpt lat="45.93858568301007" lon="4.779103380375732"><ele>184.0</ele><time>2026-04-28T14:21:22.999Z</time></trkpt><trkpt lat="45.93854128104152" lon="4.779178958394561"><ele>184.0</ele><time>2026-04-28T14:21:23.999Z</time></trkpt><trkpt lat="45.93846287015051" lon="4.7792026125171905"><ele>184.0</ele><time>2026-04-28T14:21:24.999Z</time></trkpt><trkpt lat="45.93841652050658" lon="4.77926730318042"><ele>184.0</ele><time>2026-04-28T14:21:25.999Z</time></trkpt><trkpt lat="45.93836758183095" lon="4.779335621519235"><ele>184.0</ele><time>2026-04-28T14:21:26.999Z</time></trkpt><trkpt lat="45.938320386759656" lon="4.779401760463558"><ele>184.0</ele><time>2026-04-28T14:21:27.999Z</time></trkpt><trkpt lat="45.93828465474097" lon="4.779485024235681"><ele>183.16666666666669</ele><time>2026-04-28T14:21:28.999Z</time></trkpt><trkpt lat="45.93822746194284" lon="4.779531984692216"><ele>182.33333333333334</ele><time>2026-04-28T14:21:29.999Z</time></trkpt><trkpt lat="45.93817880483886" lon="4.779600141090116"><ele>181.5</ele><time>2026-04-28T14:21:30.999Z</time></trkpt><trkpt lat="45.93808619062655" lon="4.779729310487979"><ele>180.66666666666666</ele><time>2026-04-28T14:21:32.999Z</time></trkpt><trkpt lat="45.93805007166993" lon="4.779808518778972"><ele>179.83333333333331</ele><time>2026-04-28T14:21:33.999Z</time></trkpt><trkpt lat="45.93800233701839" lon="4.7798678740869995"><ele>179.0</ele><time>2026-04-28T14:21:34.999Z</time></trkpt><trkpt lat="45.93794470219101" lon="4.779915019897036"><ele>179.0</ele><time>2026-04-28T14:21:35.999Z</time></trkpt><trkpt lat="45.9378487438586" lon="4.780035620866521"><ele>179.0</ele><time>2026-04-28T14:21:37.999Z</time></trkpt><trkpt lat="45.937799348412874" lon="4.7800977014056505"><ele>179.0</ele><time>2026-04-28T14:21:38.999Z</time></trkpt><trkpt lat="45.93774966378712" lon="4.78016014529223"><ele>179.0</ele><time>2026-04-28T14:21:39.999Z</time></trkpt><trkpt lat="45.93769696044507" lon="4.780226383137735"><ele>179.0</ele><time>2026-04-28T14:21:40.999Z</time></trkpt><trkpt lat="45.937645281320044" lon="4.7802913337396"><ele>179.0</ele><time>2026-04-28T14:21:41.999Z</time></trkpt><trkpt lat="45.93760512651889" lon="4.780380480353467"><ele>179.14285714285717</ele><time>2026-04-28T14:21:42.999Z</time></trkpt><trkpt lat="45.93755905967458" lon="4.780444628791094"><ele>179.28571428571428</ele><time>2026-04-28T14:21:43.999Z</time></trkpt><trkpt lat="45.93751046248429" lon="4.780512008241475"><ele>179.42857142857144</ele><time>2026-04-28T14:21:44.999Z</time></trkpt><trkpt lat="45.93745995808032" lon="4.780577087551833"><ele>179.57142857142858</ele><time>2026-04-28T14:21:45.999Z</time></trkpt><trkpt lat="45.93740985873379" lon="4.780640613001328"><ele>179.71428571428572</ele><time>2026-04-28T14:21:46.999Z</time></trkpt><trkpt lat="45.93735694380325" lon="4.780702201193083"><ele>179.85714285714286</ele><time>2026-04-28T14:21:47.999Z</time></trkpt><trkpt lat="45.93730440899008" lon="4.78076698676853"><ele>180.0</ele><time>2026-04-28T14:21:48.999Z</time></trkpt><trkpt lat="45.937251419369865" lon="4.780832482074188"><ele>179.7142857142857</ele><time>2026-04-28T14:21:49.999Z</time></trkpt><trkpt lat="45.937198664205305" lon="4.780903981103271"><ele>179.42857142857144</ele><time>2026-04-28T14:21:50.999Z</time></trkpt><trkpt lat="45.93714161638236" lon="4.780977621155304"><ele>179.14285714285714</ele><time>2026-04-28T14:21:51.999Z</time></trkpt><trkpt lat="45.937087178673686" lon="4.78104056325674"><ele>178.85714285714283</ele><time>2026-04-28T14:21:52.999Z</time></trkpt><trkpt lat="45.937030318246876" lon="4.781105468437188"><ele>178.57142857142856</ele><time>2026-04-28T14:21:53.999Z</time></trkpt><trkpt lat="45.93697033577421" lon="4.781162202185499"><ele>178.28571428571428</ele><time>2026-04-28T14:21:54.999Z</time></trkpt><trkpt lat="45.93691069855257" lon="4.781217950173878"><ele>178.0</ele><time>2026-04-28T14:21:55.999Z</time></trkpt><trkpt lat="45.936851511201965" lon="4.781275755460356"><ele>177.99999999999997</ele><time>2026-04-28T14:21:56.999Z</time></trkpt><trkpt lat="45.93678740032064" lon="4.781330352663709"><ele>178.0</ele><time>2026-04-28T14:21:57.999Z</time></trkpt><trkpt lat="45.93671822263748" lon="4.781376722237669"><ele>178.0</ele><time>2026-04-28T14:21:58.999Z</time></trkpt><trkpt lat="45.9366544294755" lon="4.781427658777002"><ele>178.0</ele><time>2026-04-28T14:21:59.999Z</time></trkpt><trkpt lat="45.93658978035805" lon="4.781460467284034"><ele>178.0</ele><time>2026-04-28T14:22:00.999Z</time></trkpt><trkpt lat="45.93652165965188" lon="4.7814938335996215"><ele>177.99999999999997</ele><time>2026-04-28T14:22:01.999Z</time></trkpt><trkpt lat="45.93645362020045" lon="4.781535816140311"><ele>178.0</ele><time>2026-04-28T14:22:02.999Z</time></trkpt><trkpt lat="45.93638673223579" lon="4.78158049356919"><ele>177.42857142857142</ele><time>2026-04-28T14:22:03.999Z</time></trkpt><trkpt lat="45.93632360594496" lon="4.781620598533057"><ele>176.85714285714286</ele><time>2026-04-28T14:22:04.999Z</time></trkpt><trkpt lat="45.93625884141168" lon="4.781660576804545"><ele>176.28571428571428</ele><time>2026-04-28T14:22:05.999Z</time></trkpt><trkpt lat="45.93619208124716" lon="4.781700110147078"><ele>175.71428571428572</ele><time>2026-04-28T14:22:06.999Z</time></trkpt><trkpt lat="45.936126272025284" lon="4.781742407210603"><ele>175.14285714285714</ele><time>2026-04-28T14:22:07.999Z</time></trkpt><trkpt lat="45.936059441707506" lon="4.78178437200101"><ele>174.57142857142856</ele><time>2026-04-28T14:22:08.999Z</time></trkpt><trkpt lat="45.93599122940725" lon="4.781819338569076"><ele>174.0</ele><time>2026-04-28T14:22:09.999Z</time></trkpt><trkpt lat="45.935928159442895" lon="4.781845856843767"><ele>173.85714285714286</ele><time>2026-04-28T14:22:10.999Z</time></trkpt><trkpt lat="45.935865365889306" lon="4.78187772180618"><ele>173.71428571428572</ele><time>2026-04-28T14:22:11.999Z</time></trkpt><trkpt lat="45.935802171636375" lon="4.781918597858924"><ele>173.57142857142856</ele><time>2026-04-28T14:22:12.999Z</time></trkpt><trkpt lat="45.935742567632026" lon="4.781958648072549"><ele>173.42857142857144</ele><time>2026-04-28T14:22:13.999Z</time></trkpt><trkpt lat="45.93568147619249" lon="4.781995477376516"><ele>173.2857142857143</ele><time>2026-04-28T14:22:14.999Z</time></trkpt><trkpt lat="45.93562029781597" lon="4.782030661152569"><ele>173.14285714285714</ele><time>2026-04-28T14:22:15.999Z</time></trkpt><trkpt lat="45.9355585894012" lon="4.782058081710096"><ele>173.0</ele><time>2026-04-28T14:22:17Z</time></trkpt><trkpt lat="45.93550150341685" lon="4.782099987549051"><ele>173.0</ele><time>2026-04-28T14:22:18Z</time></trkpt><trkpt lat="45.935446365701054" lon="4.7821515957584895"><ele>173.0</ele><time>2026-04-28T14:22:19Z</time></trkpt><trkpt lat="45.935389355415815" lon="4.782195268702331"><ele>173.0</ele><time>2026-04-28T14:22:20Z</time></trkpt><trkpt lat="45.93532870097547" lon="4.782247342911713"><ele>173.0</ele><time>2026-04-28T14:22:21Z</time></trkpt><trkpt lat="45.93522203428418" lon="4.782353463132077"><ele>173.0</ele><time>2026-04-28T14:22:23Z</time></trkpt><trkpt lat="45.93516646426356" lon="4.782406112953473"><ele>173.0</ele><time>2026-04-28T14:22:24Z</time></trkpt><trkpt lat="45.93509786394978" lon="4.78243996006118"><ele>173.0</ele><time>2026-04-28T14:22:25Z</time></trkpt><trkpt lat="45.935041977690275" lon="4.7824967234096745"><ele>173.0</ele><time>2026-04-28T14:22:26Z</time></trkpt><trkpt lat="45.93498345698528" lon="4.782554546623982"><ele>173.0</ele><time>2026-04-28T14:22:27Z</time></trkpt><trkpt lat="45.93492463163585" lon="4.782608863094158"><ele>173.0</ele><time>2026-04-28T14:22:28Z</time></trkpt><trkpt lat="45.93487208136726" lon="4.782684353880381"><ele>173.0</ele><time>2026-04-28T14:22:29Z</time></trkpt><trkpt lat="45.93480142880124" lon="4.782721499917941"><ele>173.0</ele><time>2026-04-28T14:22:30Z</time></trkpt><trkpt lat="45.93474283897266" lon="4.782773588147812"><ele>173.0</ele><time>2026-04-28T14:22:31Z</time></trkpt><trkpt lat="45.93469276601557" lon="4.782852875979605"><ele>173.0</ele><time>2026-04-28T14:22:32Z</time></trkpt><trkpt lat="45.93463819228064" lon="4.782904734083559"><ele>173.0</ele><time>2026-04-28T14:22:33Z</time></trkpt><trkpt lat="45.9345849666529" lon="4.782955163013576"><ele>173.0</ele><time>2026-04-28T14:22:34Z</time></trkpt><trkpt lat="45.934524855101785" lon="4.783001613294117"><ele>173.0</ele><time>2026-04-28T14:22:35Z</time></trkpt><trkpt lat="45.93446620995407" lon="4.783049966073768"><ele>173.0</ele><time>2026-04-28T14:22:36Z</time></trkpt><trkpt lat="45.934399024711816" lon="4.7830991594079055"><ele>173.0</ele><time>2026-04-28T14:22:37Z</time></trkpt><trkpt lat="45.934333114683376" lon="4.783133880218267"><ele>173.0</ele><time>2026-04-28T14:22:38Z</time></trkpt><trkpt lat="45.93427272314777" lon="4.783183810205575"><ele>172.85714285714286</ele><time>2026-04-28T14:22:39Z</time></trkpt><trkpt lat="45.93420619946944" lon="4.783233456740434"><ele>172.71428571428572</ele><time>2026-04-28T14:22:40Z</time></trkpt><trkpt lat="45.93414787716034" lon="4.783274801735329"><ele>172.57142857142858</ele><time>2026-04-28T14:22:41Z</time></trkpt><trkpt lat="45.93408230458404" lon="4.783307008499557"><ele>172.42857142857144</ele><time>2026-04-28T14:22:42Z</time></trkpt><trkpt lat="45.93402234751323" lon="4.78334449650189"><ele>172.28571428571428</ele><time>2026-04-28T14:22:43Z</time></trkpt><trkpt lat="45.93395623475864" lon="4.783389419637378"><ele>172.14285714285717</ele><time>2026-04-28T14:22:44Z</time></trkpt><trkpt lat="45.933893485475636" lon="4.7834367826634745"><ele>172.0</ele><time>2026-04-28T14:22:45Z</time></trkpt><trkpt lat="45.93383250460402" lon="4.783480454418618"><ele>172.00000000000003</ele><time>2026-04-28T14:22:46Z</time></trkpt><trkpt lat="45.93377107394781" lon="4.783520014877176"><ele>172.0</ele><time>2026-04-28T14:22:47Z</time></trkpt><trkpt lat="45.933713764853124" lon="4.783568716493771"><ele>172.0</ele><time>2026-04-28T14:22:48Z</time></trkpt><trkpt lat="45.933648180648014" lon="4.783617782115899"><ele>172.0</ele><time>2026-04-28T14:22:49Z</time></trkpt><trkpt lat="45.93358480009693" lon="4.7836645615677735"><ele>172.0</ele><time>2026-04-28T14:22:50Z</time></trkpt><trkpt lat="45.933527859966254" lon="4.783705565394168"><ele>172.00000000000003</ele><time>2026-04-28T14:22:51Z</time></trkpt><trkpt lat="45.933466939981265" lon="4.783749693266744"><ele>172.0</ele><time>2026-04-28T14:22:52Z</time></trkpt><trkpt lat="45.9334061367958" lon="4.783786332971691"><ele>171.6</ele><time>2026-04-28T14:22:53Z</time></trkpt><trkpt lat="45.93333989451796" lon="4.783828058425895"><ele>171.2</ele><time>2026-04-28T14:22:54Z</time></trkpt><trkpt lat="45.933280081604785" lon="4.783868770373002"><ele>170.8</ele><time>2026-04-28T14:22:55Z</time></trkpt><trkpt lat="45.933163245422705" lon="4.783960030250086"><ele>170.4</ele><time>2026-04-28T14:22:57Z</time></trkpt><trkpt lat="45.93310303921623" lon="4.7840017142642886"><ele>170.0</ele><time>2026-04-28T14:22:58Z</time></trkpt><trkpt lat="45.93299227589901" lon="4.784083599442482"><ele>170.0</ele><time>2026-04-28T14:23:00Z</time></trkpt><trkpt lat="45.93293415323335" lon="4.784121839192384"><ele>170.0</ele><time>2026-04-28T14:23:01Z</time></trkpt><trkpt lat="45.93282922560738" lon="4.784204845435399"><ele>170.0</ele><time>2026-04-28T14:23:03Z</time></trkpt><trkpt lat="45.93273124404245" lon="4.7842780750056235"><ele>170.0</ele><time>2026-04-28T14:23:05Z</time></trkpt><trkpt lat="45.93264737110451" lon="4.784337804631042"><ele>170.0</ele><time>2026-04-28T14:23:07Z</time></trkpt><trkpt lat="45.93258099428502" lon="4.784384802964093"><ele>169.83333333333331</ele><time>2026-04-28T14:23:09Z</time></trkpt><trkpt lat="45.93253444764598" lon="4.784458052650127"><ele>169.66666666666666</ele><time>2026-04-28T14:23:29.999Z</time></trkpt><trkpt lat="45.93245263451517" lon="4.784465011741858"><ele>169.5</ele><time>2026-04-28T14:27:46.999Z</time></trkpt><trkpt lat="45.93238242231441" lon="4.784508817021515"><ele>169.33333333333334</ele><time>2026-04-28T14:27:48.999Z</time></trkpt><trkpt lat="45.93230412806545" lon="4.784562416783261"><ele>169.16666666666669</ele><time>2026-04-28T14:27:50.999Z</time></trkpt><trkpt lat="45.93222151223899" lon="4.7846184766836135"><ele>169.0</ele><time>2026-04-28T14:27:52.999Z</time></trkpt><trkpt lat="45.93213254482742" lon="4.784685785122517"><ele>169.0</ele><time>2026-04-28T14:27:54.999Z</time></trkpt><trkpt lat="45.93203402282924" lon="4.78474836983821"><ele>169.0</ele><time>2026-04-28T14:27:56.999Z</time></trkpt><trkpt lat="45.93193360278227" lon="4.7848134310495745"><ele>169.0</ele><time>2026-04-28T14:27:58.999Z</time></trkpt><trkpt lat="45.93183312412915" lon="4.7848828733974695"><ele>169.0</ele><time>2026-04-28T14:28:00.999Z</time></trkpt><trkpt lat="45.93172442007536" lon="4.784969432964339"><ele>168.75</ele><time>2026-04-28T14:28:02.999Z</time></trkpt><trkpt lat="45.93162460895487" lon="4.785043927658899"><ele>168.5</ele><time>2026-04-28T14:28:04.999Z</time></trkpt><trkpt lat="45.93150902778038" lon="4.78510063343029"><ele>168.25</ele><time>2026-04-28T14:28:06.999Z</time></trkpt><trkpt lat="45.93140502521579" lon="4.785172153270545"><ele>168.0</ele><time>2026-04-28T14:28:08.999Z</time></trkpt><trkpt lat="45.93129945134597" lon="4.785265813382272"><ele>168.0</ele><time>2026-04-28T14:28:10.999Z</time></trkpt><trkpt lat="45.93118097488615" lon="4.785326565824173"><ele>168.0</ele><time>2026-04-28T14:28:12.999Z</time></trkpt><trkpt lat="45.93112932329849" lon="4.785386887413521"><ele>168.0</ele><time>2026-04-28T14:28:13.999Z</time></trkpt><trkpt lat="45.931015743863064" lon="4.785460881778016"><ele>168.0</ele><time>2026-04-28T14:28:15.999Z</time></trkpt><trkpt lat="45.93090450969526" lon="4.785537987738594"><ele>168.0</ele><time>2026-04-28T14:28:17.999Z</time></trkpt><trkpt lat="45.930846107567696" lon="4.7855792862056905"><ele>168.0</ele><time>2026-04-28T14:28:18.999Z</time></trkpt><trkpt lat="45.93073325552949" lon="4.785652113771808"><ele>168.0</ele><time>2026-04-28T14:28:20.999Z</time></trkpt><trkpt lat="45.93067931458212" lon="4.785704105078693"><ele>168.0</ele><time>2026-04-28T14:28:21.999Z</time></trkpt><trkpt lat="45.93061868594045" lon="4.785749691786737"><ele>168.0</ele><time>2026-04-28T14:28:22.999Z</time></trkpt><trkpt lat="45.930561194045694" lon="4.785786763109623"><ele>168.0</ele><time>2026-04-28T14:28:23.999Z</time></trkpt><trkpt lat="45.930453481792924" lon="4.785868290551208"><ele>168.0</ele><time>2026-04-28T14:28:25.999Z</time></trkpt><trkpt lat="45.93034842135872" lon="4.785949735960581"><ele>168.0</ele><time>2026-04-28T14:28:27.999Z</time></trkpt><trkpt lat="45.93024486852804" lon="4.7860214994063215"><ele>168.0</ele><time>2026-04-28T14:28:29.999Z</time></trkpt><trkpt lat="45.930142267489366" lon="4.786091531669208"><ele>168.0</ele><time>2026-04-28T14:28:31.999Z</time></trkpt><trkpt lat="45.93004581722422" lon="4.78616854501821"><ele>168.0</ele><time>2026-04-28T14:28:33.999Z</time></trkpt><trkpt lat="45.92994653492967" lon="4.7862411879584394"><ele>168.0</ele><time>2026-04-28T14:28:36Z</time></trkpt><trkpt lat="45.92983884764635" lon="4.786316579633305"><ele>168.0</ele><time>2026-04-28T14:28:38Z</time></trkpt><trkpt lat="45.9297824599219" lon="4.786365164223724"><ele>168.0</ele><time>2026-04-28T14:28:39Z</time></trkpt><trkpt lat="45.929726116617836" lon="4.786413712837923"><ele>168.0</ele><time>2026-04-28T14:28:40Z</time></trkpt><trkpt lat="45.929669704431426" lon="4.786455766201877"><ele>168.0</ele><time>2026-04-28T14:28:41Z</time></trkpt><trkpt lat="45.92961077763715" lon="4.786496919757658"><ele>168.0</ele><time>2026-04-28T14:28:42Z</time></trkpt><trkpt lat="45.9295542308689" lon="4.786545583729532"><ele>168.0</ele><time>2026-04-28T14:28:43Z</time></trkpt><trkpt lat="45.92944114386965" lon="4.786634104173128"><ele>168.0</ele><time>2026-04-28T14:28:45Z</time></trkpt><trkpt lat="45.92938317704559" lon="4.786674644914171"><ele>168.0</ele><time>2026-04-28T14:28:46Z</time></trkpt><trkpt lat="45.92932219025307" lon="4.786715370862754"><ele>168.0</ele><time>2026-04-28T14:28:47Z</time></trkpt><trkpt lat="45.929264747142994" lon="4.786757175552464"><ele>168.0</ele><time>2026-04-28T14:28:48Z</time></trkpt><trkpt lat="45.92915799780327" lon="4.786847483025828"><ele>168.0</ele><time>2026-04-28T14:28:50Z</time></trkpt><trkpt lat="45.92904906969368" lon="4.786918238898997"><ele>168.0</ele><time>2026-04-28T14:28:52Z</time></trkpt><trkpt lat="45.92894171209895" lon="4.78699044312476"><ele>168.0</ele><time>2026-04-28T14:28:54Z</time></trkpt><trkpt lat="45.928841057380744" lon="4.787068900024993"><ele>168.0</ele><time>2026-04-28T14:28:56Z</time></trkpt><trkpt lat="45.92878228624716" lon="4.787106418938131"><ele>168.0</ele><time>2026-04-28T14:28:57Z</time></trkpt><trkpt lat="45.928671633346546" lon="4.787187691709341"><ele>168.0</ele><time>2026-04-28T14:28:59Z</time></trkpt><trkpt lat="45.928614031995146" lon="4.787230327411644"><ele>168.0</ele><time>2026-04-28T14:29:00Z</time></trkpt><trkpt lat="45.92849864563646" lon="4.787318151444266"><ele>168.5</ele><time>2026-04-28T14:29:02Z</time></trkpt><trkpt lat="45.92838707156108" lon="4.787389615936066"><ele>169.0</ele><time>2026-04-28T14:29:04Z</time></trkpt><trkpt lat="45.928277824269095" lon="4.787455849316513"><ele>169.5</ele><time>2026-04-28T14:29:06Z</time></trkpt><trkpt lat="45.928184046974664" lon="4.787533314959059"><ele>170.0</ele><time>2026-04-28T14:29:08Z</time></trkpt><trkpt lat="45.928078820374374" lon="4.787612408588977"><ele>170.16666666666666</ele><time>2026-04-28T14:29:10Z</time></trkpt><trkpt lat="45.92797139885772" lon="4.787689045851299"><ele>170.33333333333331</ele><time>2026-04-28T14:29:12Z</time></trkpt><trkpt lat="45.92791499424359" lon="4.7877292861358764"><ele>170.5</ele><time>2026-04-28T14:29:13Z</time></trkpt><trkpt lat="45.92785162017081" lon="4.787748627082525"><ele>170.66666666666666</ele><time>2026-04-28T14:29:14Z</time></trkpt><trkpt lat="45.92774397921743" lon="4.787821988399313"><ele>170.83333333333334</ele><time>2026-04-28T14:29:16Z</time></trkpt><trkpt lat="45.92769186336842" lon="4.787879663680026"><ele>171.0</ele><time>2026-04-28T14:29:17Z</time></trkpt><trkpt lat="45.92762688750642" lon="4.787901790615298"><ele>170.99999999999997</ele><time>2026-04-28T14:29:18Z</time></trkpt><trkpt lat="45.92756978522201" lon="4.7879420030551945"><ele>171.0</ele><time>2026-04-28T14:29:19Z</time></trkpt><trkpt lat="45.927472055343706" lon="4.788037464362709"><ele>171.0</ele><time>2026-04-28T14:29:21Z</time></trkpt><trkpt lat="45.92740684440008" lon="4.788058273774495"><ele>171.0</ele><time>2026-04-28T14:29:22Z</time></trkpt><trkpt lat="45.92735034367905" lon="4.7880985909911"><ele>171.0</ele><time>2026-04-28T14:29:23Z</time></trkpt><trkpt lat="45.927291877079796" lon="4.7881403113178616"><ele>170.99999999999997</ele><time>2026-04-28T14:29:24Z</time></trkpt><trkpt lat="45.92723430471712" lon="4.7881813935034385"><ele>171.0</ele><time>2026-04-28T14:29:25Z</time></trkpt><trkpt lat="45.92718141029764" lon="4.788234901361851"><ele>171.33333333333334</ele><time>2026-04-28T14:29:26Z</time></trkpt><trkpt lat="45.92706762974426" lon="4.788315423821256"><ele>171.66666666666666</ele><time>2026-04-28T14:29:27.999Z</time></trkpt><trkpt lat="45.927007674778345" lon="4.788350022138499"><ele>172.0</ele><time>2026-04-28T14:29:28.999Z</time></trkpt><trkpt lat="45.92689455911023" lon="4.788421391777879"><ele>172.33333333333331</ele><time>2026-04-28T14:29:30.999Z</time></trkpt><trkpt lat="45.926838348876295" lon="4.788462162851435"><ele>172.66666666666666</ele><time>2026-04-28T14:29:31.999Z</time></trkpt><trkpt lat="45.92678049692242" lon="4.788500719804107"><ele>173.0</ele><time>2026-04-28T14:29:32.999Z</time></trkpt><trkpt lat="45.92667283463322" lon="4.788566061794112"><ele>172.2</ele><time>2026-04-28T14:29:34.999Z</time></trkpt><trkpt lat="45.926567433274315" lon="4.788639460899784"><ele>171.4</ele><time>2026-04-28T14:29:36.999Z</time></trkpt><trkpt lat="45.926461760314446" lon="4.788692464513066"><ele>170.6</ele><time>2026-04-28T14:29:38.999Z</time></trkpt><trkpt lat="45.92636747818684" lon="4.788760730770117"><ele>169.79999999999998</ele><time>2026-04-28T14:29:40.999Z</time></trkpt><trkpt lat="45.92627756991766" lon="4.788807366771367"><ele>169.0</ele><time>2026-04-28T14:29:42.999Z</time></trkpt><trkpt lat="45.92618299567643" lon="4.788869834266281"><ele>169.0</ele><time>2026-04-28T14:29:44.999Z</time></trkpt><trkpt lat="45.92607577404753" lon="4.7889137850098615"><ele>169.0</ele><time>2026-04-28T14:29:46.999Z</time></trkpt><trkpt lat="45.92598766941035" lon="4.788976708436696"><ele>169.0</ele><time>2026-04-28T14:29:48.999Z</time></trkpt><trkpt lat="45.92589186293329" lon="4.789026110483474"><ele>169.0</ele><time>2026-04-28T14:29:50.999Z</time></trkpt><trkpt lat="45.9258069006507" lon="4.789085798876348"><ele>169.0</ele><time>2026-04-28T14:29:52.999Z</time></trkpt><trkpt lat="45.9257309860332" lon="4.789136046101373"><ele>169.39999999999998</ele><time>2026-04-28T14:29:54.999Z</time></trkpt><trkpt lat="45.92563706600022" lon="4.789130200880279"><ele>169.8</ele><time>2026-04-28T14:29:56.999Z</time></trkpt><trkpt lat="45.92554693635283" lon="4.789153077524987"><ele>170.2</ele><time>2026-04-28T14:29:58.999Z</time></trkpt><trkpt lat="45.92545501451154" lon="4.789232103454154"><ele>170.60000000000002</ele><time>2026-04-28T14:30:00.999Z</time></trkpt><trkpt lat="45.925356713574985" lon="4.789308937887447"><ele>171.0</ele><time>2026-04-28T14:30:02.999Z</time></trkpt><trkpt lat="45.925250075389336" lon="4.789377972029528"><ele>171.60000000000002</ele><time>2026-04-28T14:30:04.999Z</time></trkpt><trkpt lat="45.925146198941746" lon="4.789464435006217"><ele>172.2</ele><time>2026-04-28T14:30:06.999Z</time></trkpt><trkpt lat="45.9250363329906" lon="4.789528667178363"><ele>172.8</ele><time>2026-04-28T14:30:08.999Z</time></trkpt><trkpt lat="45.92493456309077" lon="4.789629293642357"><ele>173.39999999999998</ele><time>2026-04-28T14:30:10.999Z</time></trkpt><trkpt lat="45.92487797095035" lon="4.789674363464854"><ele>174.0</ele><time>2026-04-28T14:30:11.999Z</time></trkpt><trkpt lat="45.924823693451245" lon="4.789721378434317"><ele>174.0</ele><time>2026-04-28T14:30:12.999Z</time></trkpt><trkpt lat="45.92472127774681" lon="4.789817884403403"><ele>174.0</ele><time>2026-04-28T14:30:14.999Z</time></trkpt><trkpt lat="45.92466754846276" lon="4.7898680164519485"><ele>174.0</ele><time>2026-04-28T14:30:15.999Z</time></trkpt><trkpt lat="45.92461658882111" lon="4.789925893520576"><ele>174.0</ele><time>2026-04-28T14:30:16.999Z</time></trkpt><trkpt lat="45.924513293442104" lon="4.7900325379993705"><ele>174.0</ele><time>2026-04-28T14:30:18.999Z</time></trkpt><trkpt lat="45.924414970630295" lon="4.790142561181088"><ele>173.6</ele><time>2026-04-28T14:30:20.999Z</time></trkpt><trkpt lat="45.92432600272401" lon="4.79025515957578"><ele>173.2</ele><time>2026-04-28T14:30:22.999Z</time></trkpt><trkpt lat="45.924290260904755" lon="4.790331801620058"><ele>172.79999999999998</ele><time>2026-04-28T14:30:23.999Z</time></trkpt><trkpt lat="45.92425213128076" lon="4.790413475811224"><ele>172.39999999999998</ele><time>2026-04-28T14:30:24.999Z</time></trkpt><trkpt lat="45.92415767071854" lon="4.79054258706747"><ele>172.0</ele><time>2026-04-28T14:30:26.999Z</time></trkpt><trkpt lat="45.92407513748611" lon="4.790665488256501"><ele>171.85714285714286</ele><time>2026-04-28T14:30:28.999Z</time></trkpt><trkpt lat="45.924034170966756" lon="4.790735231485008"><ele>171.71428571428572</ele><time>2026-04-28T14:30:29.999Z</time></trkpt><trkpt lat="45.92398840741027" lon="4.790801837092379"><ele>171.57142857142856</ele><time>2026-04-28T14:30:30.999Z</time></trkpt><trkpt lat="45.923932779923526" lon="4.790844217068497"><ele>171.42857142857144</ele><time>2026-04-28T14:30:31.999Z</time></trkpt><trkpt lat="45.92390106349481" lon="4.790926354454612"><ele>171.28571428571428</ele><time>2026-04-28T14:30:32.999Z</time></trkpt><trkpt lat="45.92385628583255" lon="4.790990398610588"><ele>171.14285714285714</ele><time>2026-04-28T14:30:33.999Z</time></trkpt><trkpt lat="45.92376534716846" lon="4.791109453258759"><ele>171.0</ele><time>2026-04-28T14:30:35.999Z</time></trkpt><trkpt lat="45.92372388018793" lon="4.791182908283681"><ele>170.83333333333334</ele><time>2026-04-28T14:30:36.999Z</time></trkpt><trkpt lat="45.92364960484937" lon="4.791321666959565"><ele>170.66666666666666</ele><time>2026-04-28T14:30:38.999Z</time></trkpt><trkpt lat="45.92361142512227" lon="4.791396060066047"><ele>170.5</ele><time>2026-04-28T14:30:39.999Z</time></trkpt><trkpt lat="45.92358843432989" lon="4.791480990211877"><ele>170.33333333333331</ele><time>2026-04-28T14:30:41Z</time></trkpt><trkpt lat="45.92354916308586" lon="4.791553575332628"><ele>170.16666666666666</ele><time>2026-04-28T14:30:42Z</time></trkpt><trkpt lat="45.923467974218255" lon="4.791690160506928"><ele>170.0</ele><time>2026-04-28T14:30:44Z</time></trkpt><trkpt lat="45.92339933464208" lon="4.791839100799115"><ele>170.2</ele><time>2026-04-28T14:30:46Z</time></trkpt><trkpt lat="45.923363009912244" lon="4.791918016008153"><ele>170.4</ele><time>2026-04-28T14:30:47Z</time></trkpt><trkpt lat="45.92330078682961" lon="4.792083833448685"><ele>170.60000000000002</ele><time>2026-04-28T14:30:49Z</time></trkpt><trkpt lat="45.92325494979208" lon="4.792244963227607"><ele>170.8</ele><time>2026-04-28T14:30:51Z</time></trkpt><trkpt lat="45.92323556928887" lon="4.792333434495056"><ele>171.0</ele><time>2026-04-28T14:30:52Z</time></trkpt><trkpt lat="45.92320441671911" lon="4.792509358190481"><ele>170.8</ele><time>2026-04-28T14:30:54Z</time></trkpt><trkpt lat="45.92318096986372" lon="4.792675999741946"><ele>170.60000000000002</ele><time>2026-04-28T14:30:56Z</time></trkpt><trkpt lat="45.92316262138155" lon="4.792843713867074"><ele>170.4</ele><time>2026-04-28T14:30:58Z</time></trkpt><trkpt lat="45.92315832499308" lon="4.792947510088505"><ele>170.2</ele><time>2026-04-28T14:30:59Z</time></trkpt><trkpt lat="45.92317057766347" lon="4.793039875534374"><ele>170.0</ele><time>2026-04-28T14:31:00Z</time></trkpt><trkpt lat="45.92317277148976" lon="4.793214677727443"><ele>170.0</ele><time>2026-04-28T14:31:02Z</time></trkpt><trkpt lat="45.92315684677412" lon="4.793384850098575"><ele>170.0</ele><time>2026-04-28T14:31:04Z</time></trkpt><trkpt lat="45.923173533495515" lon="4.793542881837604"><ele>170.0</ele><time>2026-04-28T14:31:06Z</time></trkpt><trkpt lat="45.923160615597304" lon="4.793679822759699"><ele>170.0</ele><time>2026-04-28T14:31:08Z</time></trkpt><trkpt lat="45.923175425908006" lon="4.793823939545422"><ele>170.0</ele><time>2026-04-28T14:31:10Z</time></trkpt><trkpt lat="45.923165667217575" lon="4.793963842163849"><ele>170.16666666666666</ele><time>2026-04-28T14:31:12Z</time></trkpt><trkpt lat="45.92317905079933" lon="4.7940925715073535"><ele>170.33333333333331</ele><time>2026-04-28T14:31:14Z</time></trkpt><trkpt lat="45.92317578052334" lon="4.794231991207961"><ele>170.5</ele><time>2026-04-28T14:31:16Z</time></trkpt><trkpt lat="45.92320152135757" lon="4.794364848849988"><ele>170.66666666666666</ele><time>2026-04-28T14:31:18Z</time></trkpt><trkpt lat="45.92319984973274" lon="4.794476946197403"><ele>170.83333333333334</ele><time>2026-04-28T14:31:20Z</time></trkpt><trkpt lat="45.92322795271824" lon="4.794570739677024"><ele>171.0</ele><time>2026-04-28T14:31:22Z</time></trkpt><trkpt lat="45.92324270794834" lon="4.794717359070507"><ele>171.0</ele><time>2026-04-28T14:31:24Z</time></trkpt><trkpt lat="45.92326509462526" lon="4.794864547486507"><ele>171.0</ele><time>2026-04-28T14:31:26Z</time></trkpt><trkpt lat="45.92328007800587" lon="4.794953851446139"><ele>171.0</ele><time>2026-04-28T14:31:27Z</time></trkpt><trkpt lat="45.92330902425638" lon="4.795120526791639"><ele>171.0</ele><time>2026-04-28T14:31:29Z</time></trkpt><trkpt lat="45.923343882753805" lon="4.795254028562246"><ele>171.0</ele><time>2026-04-28T14:31:31Z</time></trkpt><trkpt lat="45.92334539312548" lon="4.7953493144960415"><ele>171.0</ele><time>2026-04-28T14:31:32Z</time></trkpt><trkpt lat="45.92335476820414" lon="4.79551749853162"><ele>171.0</ele><time>2026-04-28T14:31:34Z</time></trkpt><trkpt lat="45.92336949034745" lon="4.795608156908441"><ele>171.0</ele><time>2026-04-28T14:31:34.999Z</time></trkpt><trkpt lat="45.92337780493753" lon="4.79577984529289"><ele>171.0</ele><time>2026-04-28T14:31:36.999Z</time></trkpt><trkpt lat="45.923391916917936" lon="4.795954604785004"><ele>171.0</ele><time>2026-04-28T14:31:38.999Z</time></trkpt><trkpt lat="45.92340730061911" lon="4.796124503581574"><ele>172.0</ele><time>2026-04-28T14:31:40.999Z</time></trkpt><trkpt lat="45.92342588198222" lon="4.79628909177471"><ele>173.0</ele><time>2026-04-28T14:31:42.999Z</time></trkpt><trkpt lat="45.9234387272527" lon="4.796459782175326"><ele>174.0</ele><time>2026-04-28T14:31:44.999Z</time></trkpt><trkpt lat="45.923465368136206" lon="4.796631392991938"><ele>175.0</ele><time>2026-04-28T14:31:46.999Z</time></trkpt><trkpt lat="45.92348616644061" lon="4.796800034656083"><ele>175.2</ele><time>2026-04-28T14:31:48.999Z</time></trkpt><trkpt lat="45.92350197499102" lon="4.796890531288111"><ele>175.4</ele><time>2026-04-28T14:31:49.999Z</time></trkpt><trkpt lat="45.92350862936114" lon="4.796995802742233"><ele>175.60000000000002</ele><time>2026-04-28T14:31:50.999Z</time></trkpt><trkpt lat="45.9235298449739" lon="4.79715070067775"><ele>175.8</ele><time>2026-04-28T14:31:52.999Z</time></trkpt><trkpt lat="45.9235452318037" lon="4.7973192322087925"><ele>176.0</ele><time>2026-04-28T14:31:54.999Z</time></trkpt><trkpt lat="45.92352405440191" lon="4.7974899945923575"><ele>176.0</ele><time>2026-04-28T14:31:56.999Z</time></trkpt><trkpt lat="45.92353549089483" lon="4.797630949997333"><ele>176.0</ele><time>2026-04-28T14:31:58.999Z</time></trkpt><trkpt lat="45.9235662190408" lon="4.797787371934235"><ele>176.0</ele><time>2026-04-28T14:32:00.999Z</time></trkpt><trkpt lat="45.92357729858096" lon="4.797930399601325"><ele>176.0</ele><time>2026-04-28T14:32:02.999Z</time></trkpt><trkpt lat="45.923582669889925" lon="4.798058796817547"><ele>176.0</ele><time>2026-04-28T14:32:04.999Z</time></trkpt><trkpt lat="45.9235950899534" lon="4.79819542376805"><ele>176.0</ele><time>2026-04-28T14:32:06.999Z</time></trkpt><trkpt lat="45.9236038021952" lon="4.798349692492322"><ele>176.0</ele><time>2026-04-28T14:32:08.999Z</time></trkpt><trkpt lat="45.92361043455301" lon="4.798497125266898"><ele>176.0</ele><time>2026-04-28T14:32:10.999Z</time></trkpt><trkpt lat="45.92361826310551" lon="4.798642824983876"><ele>176.0</ele><time>2026-04-28T14:32:12.999Z</time></trkpt><trkpt lat="45.92362754598025" lon="4.79878076570568"><ele>176.0</ele><time>2026-04-28T14:32:14.999Z</time></trkpt><trkpt lat="45.923639159941196" lon="4.798926876085992"><ele>175.4</ele><time>2026-04-28T14:32:16.999Z</time></trkpt><trkpt lat="45.923648987811525" lon="4.799074146681708"><ele>174.8</ele><time>2026-04-28T14:32:18.999Z</time></trkpt><trkpt lat="45.92364157389752" lon="4.7992190029379005"><ele>174.20000000000002</ele><time>2026-04-28T14:32:20.999Z</time></trkpt><trkpt lat="45.923648446692106" lon="4.7993689429762165"><ele>173.60000000000002</ele><time>2026-04-28T14:32:22.999Z</time></trkpt><trkpt lat="45.92365698597689" lon="4.799523316633307"><ele>173.0</ele><time>2026-04-28T14:32:24.999Z</time></trkpt><trkpt lat="45.92366830028725" lon="4.799680950560187"><ele>173.0</ele><time>2026-04-28T14:32:26.999Z</time></trkpt><trkpt lat="45.92368207792623" lon="4.7998519478376105"><ele>173.0</ele><time>2026-04-28T14:32:28.999Z</time></trkpt><trkpt lat="45.92371004166907" lon="4.800015009107171"><ele>173.0</ele><time>2026-04-28T14:32:30.999Z</time></trkpt><trkpt lat="45.92372429454542" lon="4.800178596559263"><ele>173.0</ele><time>2026-04-28T14:32:32.999Z</time></trkpt><trkpt lat="45.92373797241412" lon="4.800351365014204"><ele>173.0</ele><time>2026-04-28T14:32:34.999Z</time></trkpt><trkpt lat="45.92375726140878" lon="4.800523622438442"><ele>173.0</ele><time>2026-04-28T14:32:36.999Z</time></trkpt><trkpt lat="45.92376439713101" lon="4.800692725186068"><ele>173.0</ele><time>2026-04-28T14:32:38.999Z</time></trkpt><trkpt lat="45.92375025383094" lon="4.800786225319521"><ele>173.0</ele><time>2026-04-28T14:32:39.999Z</time></trkpt><trkpt lat="45.92375339755475" lon="4.800965626672828"><ele>173.0</ele><time>2026-04-28T14:32:41.999Z</time></trkpt><trkpt lat="45.92375515624486" lon="4.80114017731665"><ele>172.8</ele><time>2026-04-28T14:32:43.999Z</time></trkpt><trkpt lat="45.923747381502835" lon="4.801320372827008"><ele>172.60000000000002</ele><time>2026-04-28T14:32:45.999Z</time></trkpt><trkpt lat="45.923733270124025" lon="4.801497451895675"><ele>172.39999999999998</ele><time>2026-04-28T14:32:48Z</time></trkpt><trkpt lat="45.923742083677766" lon="4.801588119381133"><ele>172.2</ele><time>2026-04-28T14:32:49Z</time></trkpt><trkpt lat="45.92371784027728" lon="4.801678374472661"><ele>172.0</ele><time>2026-04-28T14:32:50Z</time></trkpt><trkpt lat="45.923702284293746" lon="4.801849478592409"><ele>172.0</ele><time>2026-04-28T14:32:52Z</time></trkpt><trkpt lat="45.923693136693785" lon="4.801939541131713"><ele>172.0</ele><time>2026-04-28T14:32:53Z</time></trkpt><trkpt lat="45.923689918965806" lon="4.802110019682993"><ele>172.0</ele><time>2026-04-28T14:32:55Z</time></trkpt><trkpt lat="45.923666989270004" lon="4.80227778287798"><ele>172.0</ele><time>2026-04-28T14:32:57Z</time></trkpt><trkpt lat="45.92362574722787" lon="4.80243603182529"><ele>172.0</ele><time>2026-04-28T14:32:59Z</time></trkpt><trkpt lat="45.92359761432349" lon="4.802600331752197"><ele>172.2</ele><time>2026-04-28T14:33:01Z</time></trkpt><trkpt lat="45.923582582639746" lon="4.802688630732967"><ele>172.39999999999998</ele><time>2026-04-28T14:33:02Z</time></trkpt><trkpt lat="45.92355602619201" lon="4.802853987084706"><ele>172.60000000000002</ele><time>2026-04-28T14:33:04Z</time></trkpt><trkpt lat="45.92354159411263" lon="4.802943849903799"><ele>172.8</ele><time>2026-04-28T14:33:05Z</time></trkpt><trkpt lat="45.92353053259371" lon="4.803111784643637"><ele>173.0</ele><time>2026-04-28T14:33:07Z</time></trkpt><trkpt lat="45.923496682918284" lon="4.803268960810491"><ele>173.0</ele><time>2026-04-28T14:33:09Z</time></trkpt><trkpt lat="45.92347133819047" lon="4.803437396563564"><ele>173.0</ele><time>2026-04-28T14:33:11Z</time></trkpt><trkpt lat="45.92342634070242" lon="4.803588053883812"><ele>173.0</ele><time>2026-04-28T14:33:13Z</time></trkpt><trkpt lat="45.923395683864186" lon="4.803748678721065"><ele>173.0</ele><time>2026-04-28T14:33:15Z</time></trkpt><trkpt lat="45.92336455205446" lon="4.803913920890288"><ele>172.25</ele><time>2026-04-28T14:33:17Z</time></trkpt><trkpt lat="45.92335254656416" lon="4.8040756721896685"><ele>171.5</ele><time>2026-04-28T14:33:19Z</time></trkpt><trkpt lat="45.92331205805655" lon="4.8042376366173345"><ele>170.75</ele><time>2026-04-28T14:33:21Z</time></trkpt><trkpt lat="45.92328727080258" lon="4.804397067624114"><ele>170.0</ele><time>2026-04-28T14:33:23Z</time></trkpt><trkpt lat="45.92326311337743" lon="4.804545606427608"><ele>170.0</ele><time>2026-04-28T14:33:25Z</time></trkpt><trkpt lat="45.923255770550014" lon="4.804689057691986"><ele>170.0</ele><time>2026-04-28T14:33:27Z</time></trkpt><trkpt lat="45.92321880938954" lon="4.80481568292813"><ele>170.0</ele><time>2026-04-28T14:33:29Z</time></trkpt><trkpt lat="45.923196377827516" lon="4.804952420245708"><ele>170.0</ele><time>2026-04-28T14:33:31Z</time></trkpt><trkpt lat="45.923172833546715" lon="4.80507718205691"><ele>170.0</ele><time>2026-04-28T14:33:33Z</time></trkpt><trkpt lat="45.92314783593557" lon="4.805217330115211"><ele>169.8</ele><time>2026-04-28T14:33:35Z</time></trkpt><trkpt lat="45.92312177749837" lon="4.805358665135329"><ele>169.6</ele><time>2026-04-28T14:33:37Z</time></trkpt><trkpt lat="45.92309267799883" lon="4.805516494216648"><ele>169.39999999999998</ele><time>2026-04-28T14:33:38.999Z</time></trkpt><trkpt lat="45.923063774558116" lon="4.805669482682267"><ele>169.2</ele><time>2026-04-28T14:33:40.999Z</time></trkpt><trkpt lat="45.92304641281588" lon="4.805842681629045"><ele>169.0</ele><time>2026-04-28T14:33:42.999Z</time></trkpt><trkpt lat="45.923013129478804" lon="4.806002595590679"><ele>169.6</ele><time>2026-04-28T14:33:44.999Z</time></trkpt><trkpt lat="45.92298022176171" lon="4.806169132075066"><ele>170.2</ele><time>2026-04-28T14:33:46.999Z</time></trkpt><trkpt lat="45.92294784401471" lon="4.806342015631499"><ele>170.79999999999998</ele><time>2026-04-28T14:33:48.999Z</time></trkpt><trkpt lat="45.92291504670032" lon="4.806425339483327"><ele>171.39999999999998</ele><time>2026-04-28T14:33:49.999Z</time></trkpt><trkpt lat="45.92289423477529" lon="4.806606683478808"><ele>172.0</ele><time>2026-04-28T14:33:51.999Z</time></trkpt><trkpt lat="45.92287553506803" lon="4.806696688245638"><ele>171.2</ele><time>2026-04-28T14:33:52.999Z</time></trkpt><trkpt lat="45.92283944836249" lon="4.806870669590526"><ele>170.39999999999998</ele><time>2026-04-28T14:33:54.999Z</time></trkpt><trkpt lat="45.922816568164194" lon="4.806960205979484"><ele>169.60000000000002</ele><time>2026-04-28T14:33:55.999Z</time></trkpt><trkpt lat="45.922793815765026" lon="4.807049248019221"><ele>168.8</ele><time>2026-04-28T14:33:56.999Z</time></trkpt><trkpt lat="45.92275073657504" lon="4.807216490472178"><ele>168.0</ele><time>2026-04-28T14:33:58.999Z</time></trkpt><trkpt lat="45.92272672513644" lon="4.807306918629872"><ele>168.0</ele><time>2026-04-28T14:33:59.999Z</time></trkpt><trkpt lat="45.92270225863607" lon="4.807390707134779"><ele>168.0</ele><time>2026-04-28T14:34:00.999Z</time></trkpt><trkpt lat="45.92264564275475" lon="4.807550395324961"><ele>168.0</ele><time>2026-04-28T14:34:02.999Z</time></trkpt><trkpt lat="45.92258979755517" lon="4.80771248170308"><ele>168.0</ele><time>2026-04-28T14:34:04.999Z</time></trkpt><trkpt lat="45.92255648375474" lon="4.807789599727397"><ele>168.0</ele><time>2026-04-28T14:34:05.999Z</time></trkpt><trkpt lat="45.92249766726461" lon="4.80794207024379"><ele>168.2</ele><time>2026-04-28T14:34:07.999Z</time></trkpt><trkpt lat="45.92244616905462" lon="4.80808592387883"><ele>168.4</ele><time>2026-04-28T14:34:09.999Z</time></trkpt><trkpt lat="45.92239011027437" lon="4.8082160738281114"><ele>168.6</ele><time>2026-04-28T14:34:11.999Z</time></trkpt><trkpt lat="45.92233398592795" lon="4.808344214007507"><ele>168.79999999999998</ele><time>2026-04-28T14:34:13.999Z</time></trkpt><trkpt lat="45.92224955177402" lon="4.8084376273365885"><ele>169.0</ele><time>2026-04-28T14:34:15.999Z</time></trkpt><trkpt lat="45.92220577181412" lon="4.808557102383392"><ele>169.33333333333334</ele><time>2026-04-28T14:34:17.999Z</time></trkpt><trkpt lat="45.922147177691464" lon="4.8086458683591875"><ele>169.66666666666669</ele><time>2026-04-28T14:34:19.999Z</time></trkpt><trkpt lat="45.92209654837563" lon="4.808713500001504"><ele>170.0</ele><time>2026-04-28T14:34:21.999Z</time></trkpt><trkpt lat="45.922050914961225" lon="4.808803586272791"><ele>170.33333333333334</ele><time>2026-04-28T14:34:24.999Z</time></trkpt><trkpt lat="45.92200690785812" lon="4.80888755797261"><ele>170.66666666666666</ele><time>2026-04-28T14:34:27.999Z</time></trkpt><trkpt lat="45.92194403382221" lon="4.808947603918775"><ele>171.0</ele><time>2026-04-28T14:34:29.999Z</time></trkpt><trkpt lat="45.921875889159054" lon="4.809050513623498"><ele>171.0</ele><time>2026-04-28T14:34:31.999Z</time></trkpt><trkpt lat="45.921812333185" lon="4.8091735565725"><ele>171.0</ele><time>2026-04-28T14:34:33.999Z</time></trkpt><trkpt lat="45.92175728706421" lon="4.809312532031669"><ele>171.0</ele><time>2026-04-28T14:34:35.999Z</time></trkpt><trkpt lat="45.92169094757086" lon="4.809422124184723"><ele>171.0</ele><time>2026-04-28T14:34:37.999Z</time></trkpt><trkpt lat="45.921603750290586" lon="4.809509390995568"><ele>171.0</ele><time>2026-04-28T14:34:39.999Z</time></trkpt><trkpt lat="45.92151027257208" lon="4.809598196942951"><ele>171.16666666666666</ele><time>2026-04-28T14:34:41.999Z</time></trkpt><trkpt lat="45.92139834895437" lon="4.809680328136981"><ele>171.33333333333334</ele><time>2026-04-28T14:34:43.999Z</time></trkpt><trkpt lat="45.92134117633759" lon="4.809722871168656"><ele>171.5</ele><time>2026-04-28T14:34:44.999Z</time></trkpt><trkpt lat="45.921284956317805" lon="4.809769837564533"><ele>171.66666666666669</ele><time>2026-04-28T14:34:45.999Z</time></trkpt><trkpt lat="45.921231081575115" lon="4.809819842646252"><ele>171.83333333333334</ele><time>2026-04-28T14:34:46.999Z</time></trkpt><trkpt lat="45.921133284159595" lon="4.809930253457207"><ele>172.0</ele><time>2026-04-28T14:34:48.999Z</time></trkpt><trkpt lat="45.92104573314413" lon="4.810054866425839"><ele>171.6</ele><time>2026-04-28T14:34:50.999Z</time></trkpt><trkpt lat="45.92095059213858" lon="4.810158519695419"><ele>171.2</ele><time>2026-04-28T14:34:53Z</time></trkpt><trkpt lat="45.92090133598609" lon="4.810216167005844"><ele>170.8</ele><time>2026-04-28T14:34:54Z</time></trkpt><trkpt lat="45.92079623480312" lon="4.810307776420568"><ele>170.4</ele><time>2026-04-28T14:34:56Z</time></trkpt><trkpt lat="45.920692645177446" lon="4.810392203258667"><ele>170.0</ele><time>2026-04-28T14:34:58Z</time></trkpt><trkpt lat="45.920600271819794" lon="4.810494191895814"><ele>169.25</ele><time>2026-04-28T14:35:00Z</time></trkpt><trkpt lat="45.920510289501365" lon="4.810609897764912"><ele>168.5</ele><time>2026-04-28T14:35:02Z</time></trkpt><trkpt lat="45.92041766510214" lon="4.8107065687454815"><ele>167.75</ele><time>2026-04-28T14:35:04Z</time></trkpt><trkpt lat="45.9203138220986" lon="4.810796775280453"><ele>167.0</ele><time>2026-04-28T14:35:06Z</time></trkpt><trkpt lat="45.92021645928878" lon="4.810890805540355"><ele>167.0</ele><time>2026-04-28T14:35:08Z</time></trkpt><trkpt lat="45.92010579084031" lon="4.810961768243709"><ele>167.0</ele><time>2026-04-28T14:35:10Z</time></trkpt><trkpt lat="45.919996622336704" lon="4.811035801038517"><ele>167.0</ele><time>2026-04-28T14:35:12Z</time></trkpt><trkpt lat="45.919938136248184" lon="4.811076152265314"><ele>167.0</ele><time>2026-04-28T14:35:13Z</time></trkpt><trkpt lat="45.91982783930581" lon="4.8111552669318165"><ele>167.0</ele><time>2026-04-28T14:35:15Z</time></trkpt><trkpt lat="45.919714441867306" lon="4.811226404106171"><ele>167.5</ele><time>2026-04-28T14:35:17Z</time></trkpt><trkpt lat="45.91960972662286" lon="4.811299286528103"><ele>168.0</ele><time>2026-04-28T14:35:19Z</time></trkpt><trkpt lat="45.91950616190272" lon="4.811351974353759"><ele>168.5</ele><time>2026-04-28T14:35:21Z</time></trkpt><trkpt lat="45.9193926173273" lon="4.811397453211987"><ele>169.0</ele><time>2026-04-28T14:35:23Z</time></trkpt><trkpt lat="45.91929122255818" lon="4.8114507034387834"><ele>168.66666666666669</ele><time>2026-04-28T14:35:25Z</time></trkpt><trkpt lat="45.91918967494567" lon="4.811488600067991"><ele>168.33333333333334</ele><time>2026-04-28T14:35:27Z</time></trkpt><trkpt lat="45.919110639923375" lon="4.811545271369481"><ele>168.0</ele><time>2026-04-28T14:35:29Z</time></trkpt><trkpt lat="45.91904606846473" lon="4.811587781714641"><ele>167.66666666666666</ele><time>2026-04-28T14:35:31Z</time></trkpt><trkpt lat="45.91895955965641" lon="4.811620002067092"><ele>167.33333333333331</ele><time>2026-04-28T14:35:34Z</time></trkpt><trkpt lat="45.918892487594135" lon="4.811646016398811"><ele>167.0</ele><time>2026-04-28T14:35:36Z</time></trkpt><trkpt lat="45.91878279561829" lon="4.811660519711146"><ele>167.0</ele><time>2026-04-28T14:35:38Z</time></trkpt><trkpt lat="45.91867166204652" lon="4.811706002353819"><ele>167.0</ele><time>2026-04-28T14:35:40Z</time></trkpt><trkpt lat="45.918561937075054" lon="4.811677217734503"><ele>167.0</ele><time>2026-04-28T14:35:42Z</time></trkpt><trkpt lat="45.918452130816824" lon="4.81169955438166"><ele>167.0</ele><time>2026-04-28T14:35:44Z</time></trkpt><trkpt lat="45.918386663534086" lon="4.811713837830999"><ele>167.0</ele><time>2026-04-28T14:35:45Z</time></trkpt><trkpt lat="45.91827073130562" lon="4.811763132858554"><ele>167.2</ele><time>2026-04-28T14:35:46.999Z</time></trkpt><trkpt lat="45.9181591356604" lon="4.811784711321287"><ele>167.39999999999998</ele><time>2026-04-28T14:35:48.999Z</time></trkpt><trkpt lat="45.91805153451919" lon="4.811806148171568"><ele>167.60000000000002</ele><time>2026-04-28T14:35:50.999Z</time></trkpt><trkpt lat="45.917986937352595" lon="4.81182438473545"><ele>167.8</ele><time>2026-04-28T14:35:51.999Z</time></trkpt><trkpt lat="45.91792118521265" lon="4.811832441442777"><ele>168.0</ele><time>2026-04-28T14:35:52.999Z</time></trkpt><trkpt lat="45.917808129249714" lon="4.811866686175411"><ele>168.0</ele><time>2026-04-28T14:35:54.999Z</time></trkpt><trkpt lat="45.91774144618969" lon="4.811875918880718"><ele>168.0</ele><time>2026-04-28T14:35:55.999Z</time></trkpt><trkpt lat="45.917620686775884" lon="4.811904770746138"><ele>168.0</ele><time>2026-04-28T14:35:57.999Z</time></trkpt><trkpt lat="45.91749837277365" lon="4.811925594185325"><ele>168.0</ele><time>2026-04-28T14:35:59.999Z</time></trkpt><trkpt lat="45.91743407549342" lon="4.811933306849861"><ele>168.0</ele><time>2026-04-28T14:36:00.999Z</time></trkpt><trkpt lat="45.91736991388045" lon="4.811942135261802"><ele>168.0</ele><time>2026-04-28T14:36:01.999Z</time></trkpt><trkpt lat="45.91730279588274" lon="4.811952139399609"><ele>168.0</ele><time>2026-04-28T14:36:02.999Z</time></trkpt><trkpt lat="45.91717696792055" lon="4.811973974739498"><ele>168.0</ele><time>2026-04-28T14:36:04.999Z</time></trkpt><trkpt lat="45.91703987289711" lon="4.811986706005174"><ele>168.0</ele><time>2026-04-28T14:36:06.999Z</time></trkpt><trkpt lat="45.916926975883605" lon="4.812007649727791"><ele>168.0</ele><time>2026-04-28T14:36:08.999Z</time></trkpt><trkpt lat="45.916864327555544" lon="4.812021629177701"><ele>168.0</ele><time>2026-04-28T14:36:09.999Z</time></trkpt><trkpt lat="45.91674048351269" lon="4.812048221165543"><ele>169.75</ele><time>2026-04-28T14:36:11.999Z</time></trkpt><trkpt lat="45.91662493676906" lon="4.812056428342334"><ele>171.5</ele><time>2026-04-28T14:36:13.999Z</time></trkpt><trkpt lat="45.91650320268405" lon="4.812068892138512"><ele>173.25</ele><time>2026-04-28T14:36:15.999Z</time></trkpt><trkpt lat="45.916382530483936" lon="4.812074605066467"><ele>175.0</ele><time>2026-04-28T14:36:17.999Z</time></trkpt><trkpt lat="45.91626757242212" lon="4.81209159036485"><ele>175.0</ele><time>2026-04-28T14:36:19.999Z</time></trkpt><trkpt lat="45.91615062463032" lon="4.812098612182362"><ele>175.0</ele><time>2026-04-28T14:36:21.999Z</time></trkpt><trkpt lat="45.91604736902353" lon="4.812103140883308"><ele>175.0</ele><time>2026-04-28T14:36:23.999Z</time></trkpt><trkpt lat="45.91594551445919" lon="4.812110027941603"><ele>175.0</ele><time>2026-04-28T14:36:25.999Z</time></trkpt><trkpt lat="45.91583538673478" lon="4.812106425907794"><ele>175.0</ele><time>2026-04-28T14:36:27.999Z</time></trkpt><trkpt lat="45.915716452034744" lon="4.812082777486573"><ele>174.25</ele><time>2026-04-28T14:36:29.999Z</time></trkpt><trkpt lat="45.91559736191429" lon="4.812082399314107"><ele>173.5</ele><time>2026-04-28T14:36:31.999Z</time></trkpt><trkpt lat="45.91547526315775" lon="4.8121088584913405"><ele>172.75</ele><time>2026-04-28T14:36:33.999Z</time></trkpt><trkpt lat="45.91535989239537" lon="4.8121132050991235"><ele>172.0</ele><time>2026-04-28T14:36:35.999Z</time></trkpt><trkpt lat="45.91524031269224" lon="4.812126199624441"><ele>172.0</ele><time>2026-04-28T14:36:37.999Z</time></trkpt><trkpt lat="45.91512743515701" lon="4.812145268434394"><ele>172.0</ele><time>2026-04-28T14:36:39.999Z</time></trkpt><trkpt lat="45.9150104604435" lon="4.812153092820366"><ele>172.0</ele><time>2026-04-28T14:36:41.999Z</time></trkpt><trkpt lat="45.91489586693305" lon="4.812155710085958"><ele>172.0</ele><time>2026-04-28T14:36:43.999Z</time></trkpt><trkpt lat="45.914779745095785" lon="4.8121490250821655"><ele>172.0</ele><time>2026-04-28T14:36:45.999Z</time></trkpt><trkpt lat="45.914664344719476" lon="4.812130836922504"><ele>172.0</ele><time>2026-04-28T14:36:47.999Z</time></trkpt><trkpt lat="45.914553237622506" lon="4.81211721047145"><ele>172.0</ele><time>2026-04-28T14:36:49.999Z</time></trkpt><trkpt lat="45.91445389653062" lon="4.812066560963029"><ele>172.0</ele><time>2026-04-28T14:36:51.999Z</time></trkpt><trkpt lat="45.91434434281868" lon="4.812004114719989"><ele>172.0</ele><time>2026-04-28T14:36:53.999Z</time></trkpt><trkpt lat="45.91426007429457" lon="4.81192550538766"><ele>172.0</ele><time>2026-04-28T14:36:55.999Z</time></trkpt><trkpt lat="45.91416906712513" lon="4.811852512241524"><ele>172.0</ele><time>2026-04-28T14:36:57.999Z</time></trkpt><trkpt lat="45.914057903919144" lon="4.811778261418288"><ele>172.0</ele><time>2026-04-28T14:37:00Z</time></trkpt><trkpt lat="45.91394576528199" lon="4.811722602506186"><ele>172.0</ele><time>2026-04-28T14:37:02Z</time></trkpt><trkpt lat="45.913837661874915" lon="4.8116665029810335"><ele>171.0</ele><time>2026-04-28T14:37:04Z</time></trkpt><trkpt lat="45.9137280465569" lon="4.811642963825582"><ele>170.0</ele><time>2026-04-28T14:37:06Z</time></trkpt><trkpt lat="45.91361829765259" lon="4.811625270279374"><ele>169.0</ele><time>2026-04-28T14:37:08Z</time></trkpt><trkpt lat="45.913516179589685" lon="4.811621694899914"><ele>168.0</ele><time>2026-04-28T14:37:10Z</time></trkpt><trkpt lat="45.913409514448645" lon="4.811617661870053"><ele>167.0</ele><time>2026-04-28T14:37:12Z</time></trkpt><trkpt lat="45.91331752215208" lon="4.811616867001493"><ele>167.0</ele><time>2026-04-28T14:37:14Z</time></trkpt><trkpt lat="45.913226042826004" lon="4.811638534212489"><ele>167.0</ele><time>2026-04-28T14:37:16Z</time></trkpt><trkpt lat="45.91314054700827" lon="4.811626429579429"><ele>167.0</ele><time>2026-04-28T14:37:18Z</time></trkpt><trkpt lat="45.91304156995032" lon="4.811615005048385"><ele>167.0</ele><time>2026-04-28T14:37:20Z</time></trkpt><trkpt lat="45.912934171744105" lon="4.811604044432361"><ele>167.0</ele><time>2026-04-28T14:37:22Z</time></trkpt><trkpt lat="45.9128283650358" lon="4.811597692352945"><ele>167.0</ele><time>2026-04-28T14:37:24Z</time></trkpt><trkpt lat="45.91271553796628" lon="4.811587149100345"><ele>167.0</ele><time>2026-04-28T14:37:26Z</time></trkpt><trkpt lat="45.912600602503055" lon="4.811594020201828"><ele>167.0</ele><time>2026-04-28T14:37:28Z</time></trkpt><trkpt lat="45.912492483908466" lon="4.81159137529772"><ele>167.0</ele><time>2026-04-28T14:37:30Z</time></trkpt><trkpt lat="45.91238003258399" lon="4.811589989283531"><ele>167.0</ele><time>2026-04-28T14:37:32Z</time></trkpt><trkpt lat="45.912264536543276" lon="4.811587981602098"><ele>167.0</ele><time>2026-04-28T14:37:34Z</time></trkpt><trkpt lat="45.912155492614076" lon="4.811589165655278"><ele>167.0</ele><time>2026-04-28T14:37:36Z</time></trkpt><trkpt lat="45.912054648721885" lon="4.811600114635821"><ele>167.0</ele><time>2026-04-28T14:37:38Z</time></trkpt><trkpt lat="45.91195216159761" lon="4.811610646879692"><ele>167.0</ele><time>2026-04-28T14:37:40Z</time></trkpt><trkpt lat="45.91184385506752" lon="4.811627331378163"><ele>167.0</ele><time>2026-04-28T14:37:42Z</time></trkpt><trkpt lat="45.91174119729336" lon="4.8116389545781155"><ele>167.39999999999998</ele><time>2026-04-28T14:37:44Z</time></trkpt><trkpt lat="45.91163357511332" lon="4.811650260082325"><ele>167.79999999999998</ele><time>2026-04-28T14:37:46Z</time></trkpt><trkpt lat="45.91151850283081" lon="4.811662454515057"><ele>168.2</ele><time>2026-04-28T14:37:48Z</time></trkpt><trkpt lat="45.91140213812191" lon="4.811671201174991"><ele>168.6</ele><time>2026-04-28T14:37:50Z</time></trkpt><trkpt lat="45.911294472385535" lon="4.811681411794528"><ele>169.0</ele><time>2026-04-28T14:37:52Z</time></trkpt><trkpt lat="45.9111891495594" lon="4.811699830030002"><ele>169.0</ele><time>2026-04-28T14:37:53.999Z</time></trkpt><trkpt lat="45.911072439111585" lon="4.811709148112926"><ele>169.0</ele><time>2026-04-28T14:37:55.999Z</time></trkpt><trkpt lat="45.910959693732934" lon="4.81171540661425"><ele>169.0</ele><time>2026-04-28T14:37:57.999Z</time></trkpt><trkpt lat="45.910840979874045" lon="4.8117281265534935"><ele>169.0</ele><time>2026-04-28T14:37:59.999Z</time></trkpt><trkpt lat="45.91072174511801" lon="4.811760406874127"><ele>169.0</ele><time>2026-04-28T14:38:01.999Z</time></trkpt><trkpt lat="45.9106083836636" lon="4.811782422317559"><ele>169.0</ele><time>2026-04-28T14:38:03.999Z</time></trkpt><trkpt lat="45.91049827974214" lon="4.811853421390591"><ele>169.0</ele><time>2026-04-28T14:38:05.999Z</time></trkpt><trkpt lat="45.91041002866923" lon="4.811946608752066"><ele>169.0</ele><time>2026-04-28T14:38:07.999Z</time></trkpt><trkpt lat="45.91031776589215" lon="4.812060629014561"><ele>169.0</ele><time>2026-04-28T14:38:09.999Z</time></trkpt><trkpt lat="45.91024712197612" lon="4.8121924403334315"><ele>169.0</ele><time>2026-04-28T14:38:11.999Z</time></trkpt><trkpt lat="45.91015447789153" lon="4.812309476580467"><ele>169.0</ele><time>2026-04-28T14:38:13.999Z</time></trkpt><trkpt lat="45.91005081554514" lon="4.812402102920556"><ele>169.0</ele><time>2026-04-28T14:38:15.999Z</time></trkpt><trkpt lat="45.909987682954814" lon="4.812417339888736"><ele>169.0</ele><time>2026-04-28T14:38:16.999Z</time></trkpt><trkpt lat="45.90986619806012" lon="4.812420671092965"><ele>169.0</ele><time>2026-04-28T14:38:18.999Z</time></trkpt><trkpt lat="45.909742629666766" lon="4.812407255466911"><ele>169.0</ele><time>2026-04-28T14:38:20.999Z</time></trkpt><trkpt lat="45.90961826498714" lon="4.8123833016982935"><ele>169.0</ele><time>2026-04-28T14:38:22.999Z</time></trkpt><trkpt lat="45.90950426391568" lon="4.812361764646103"><ele>169.0</ele><time>2026-04-28T14:38:24.999Z</time></trkpt><trkpt lat="45.90940020776881" lon="4.81232802595872"><ele>169.0</ele><time>2026-04-28T14:38:26.999Z</time></trkpt><trkpt lat="45.909294710856116" lon="4.81230558196662"><ele>169.0</ele><time>2026-04-28T14:38:28.999Z</time></trkpt><trkpt lat="45.90919723042422" lon="4.812286806827112"><ele>169.0</ele><time>2026-04-28T14:38:30.999Z</time></trkpt><trkpt lat="45.90909846834196" lon="4.8122592419731856"><ele>169.0</ele><time>2026-04-28T14:38:32.999Z</time></trkpt><trkpt lat="45.90899645388759" lon="4.81222878780828"><ele>169.0</ele><time>2026-04-28T14:38:34.999Z</time></trkpt><trkpt lat="45.90888937603744" lon="4.812218632425143"><ele>169.0</ele><time>2026-04-28T14:38:36.999Z</time></trkpt><trkpt lat="45.90878061203608" lon="4.81218262494451"><ele>169.0</ele><time>2026-04-28T14:38:38.999Z</time></trkpt><trkpt lat="45.90867201508172" lon="4.812153718178431"><ele>169.0</ele><time>2026-04-28T14:38:40.999Z</time></trkpt><trkpt lat="45.90856674151445" lon="4.812123093407292"><ele>169.0</ele><time>2026-04-28T14:38:42.999Z</time></trkpt><trkpt lat="45.90845914781722" lon="4.812091167859941"><ele>169.0</ele><time>2026-04-28T14:38:44.999Z</time></trkpt><trkpt lat="45.908346323900915" lon="4.8120534066207"><ele>169.0</ele><time>2026-04-28T14:38:46.999Z</time></trkpt><trkpt lat="45.90823514610709" lon="4.812021804875249"><ele>169.0</ele><time>2026-04-28T14:38:48.999Z</time></trkpt><trkpt lat="45.90812645327177" lon="4.811983037116804"><ele>169.0</ele><time>2026-04-28T14:38:50.999Z</time></trkpt><trkpt lat="45.908014884565006" lon="4.811947948508737"><ele>169.0</ele><time>2026-04-28T14:38:52.999Z</time></trkpt><trkpt lat="45.90789783763227" lon="4.811913679305117"><ele>169.0</ele><time>2026-04-28T14:38:54.999Z</time></trkpt><trkpt lat="45.90777843595841" lon="4.811890963348068"><ele>169.0</ele><time>2026-04-28T14:38:56.999Z</time></trkpt><trkpt lat="45.907665373561166" lon="4.811842771891094"><ele>169.0</ele><time>2026-04-28T14:38:58.999Z</time></trkpt><trkpt lat="45.90754581220049" lon="4.8117962683421425"><ele>169.0</ele><time>2026-04-28T14:39:00.999Z</time></trkpt><trkpt lat="45.90743248602688" lon="4.811754839406436"><ele>169.0</ele><time>2026-04-28T14:39:02.999Z</time></trkpt><trkpt lat="45.90731688830077" lon="4.811705351480803"><ele>169.0</ele><time>2026-04-28T14:39:05Z</time></trkpt><trkpt lat="45.90721036527753" lon="4.811643696688029"><ele>169.0</ele><time>2026-04-28T14:39:07Z</time></trkpt><trkpt lat="45.90710160522085" lon="4.811580074166631"><ele>169.0</ele><time>2026-04-28T14:39:09Z</time></trkpt><trkpt lat="45.906994472380454" lon="4.81151037971821"><ele>169.0</ele><time>2026-04-28T14:39:11Z</time></trkpt><trkpt lat="45.906890597806985" lon="4.811438047162009"><ele>169.0</ele><time>2026-04-28T14:39:13Z</time></trkpt><trkpt lat="45.906779139113034" lon="4.8113751486664285"><ele>169.0</ele><time>2026-04-28T14:39:15Z</time></trkpt><trkpt lat="45.90667614502802" lon="4.811299426385566"><ele>169.0</ele><time>2026-04-28T14:39:17Z</time></trkpt><trkpt lat="45.90657539245674" lon="4.811221488040069"><ele>169.0</ele><time>2026-04-28T14:39:19Z</time></trkpt><trkpt lat="45.906479610422835" lon="4.81112514157439"><ele>169.0</ele><time>2026-04-28T14:39:21Z</time></trkpt><trkpt lat="45.90637719137002" lon="4.8110417755124555"><ele>169.0</ele><time>2026-04-28T14:39:23Z</time></trkpt><trkpt lat="45.90627321452988" lon="4.810951010789908"><ele>169.0</ele><time>2026-04-28T14:39:25Z</time></trkpt><trkpt lat="45.90618138126934" lon="4.810847214477114"><ele>168.79999999999998</ele><time>2026-04-28T14:39:27Z</time></trkpt><trkpt lat="45.90608966919709" lon="4.81074562828823"><ele>168.6</ele><time>2026-04-28T14:39:29Z</time></trkpt><trkpt lat="45.905995981344624" lon="4.810660070243382"><ele>168.4</ele><time>2026-04-28T14:39:31Z</time></trkpt><trkpt lat="45.90591436750831" lon="4.810557680796749"><ele>168.2</ele><time>2026-04-28T14:39:33Z</time></trkpt><trkpt lat="45.90582681361414" lon="4.810465037379421"><ele>168.0</ele><time>2026-04-28T14:39:35Z</time></trkpt><trkpt lat="45.90572816191351" lon="4.8103585657414625"><ele>168.0</ele><time>2026-04-28T14:39:37Z</time></trkpt><trkpt lat="45.905630734804106" lon="4.810250408293894"><ele>168.0</ele><time>2026-04-28T14:39:39Z</time></trkpt><trkpt lat="45.905583031851684" lon="4.810187771488012"><ele>168.0</ele><time>2026-04-28T14:39:40Z</time></trkpt><trkpt lat="45.90553893067955" lon="4.810122827978468"><ele>168.0</ele><time>2026-04-28T14:39:41Z</time></trkpt><trkpt lat="45.905491518596705" lon="4.8100593965501215"><ele>168.0</ele><time>2026-04-28T14:39:42Z</time></trkpt><trkpt lat="45.90543946511633" lon="4.809991564888098"><ele>168.0</ele><time>2026-04-28T14:39:43Z</time></trkpt><trkpt lat="45.9053831953356" lon="4.809934064721683"><ele>167.83333333333334</ele><time>2026-04-28T14:39:44Z</time></trkpt><trkpt lat="45.9053259111602" lon="4.809867673234494"><ele>167.66666666666666</ele><time>2026-04-28T14:39:45Z</time></trkpt><trkpt lat="45.905273971246245" lon="4.809806718191539"><ele>167.5</ele><time>2026-04-28T14:39:46Z</time></trkpt><trkpt lat="45.905221468944795" lon="4.809745672629499"><ele>167.33333333333331</ele><time>2026-04-28T14:39:47Z</time></trkpt><trkpt lat="45.905169454812494" lon="4.809687595236849"><ele>167.16666666666666</ele><time>2026-04-28T14:39:48Z</time></trkpt><trkpt lat="45.90511101678113" lon="4.809619810064285"><ele>167.0</ele><time>2026-04-28T14:39:49Z</time></trkpt><trkpt lat="45.90501344493654" lon="4.809496959458215"><ele>167.28571428571428</ele><time>2026-04-28T14:39:51Z</time></trkpt><trkpt lat="45.90496394452296" lon="4.809434821068676"><ele>167.57142857142858</ele><time>2026-04-28T14:39:52Z</time></trkpt><trkpt lat="45.904917955938686" lon="4.80936793193346"><ele>167.85714285714286</ele><time>2026-04-28T14:39:53Z</time></trkpt><trkpt lat="45.904874346627" lon="4.809294420134533"><ele>168.14285714285714</ele><time>2026-04-28T14:39:54Z</time></trkpt><trkpt lat="45.904826661068356" lon="4.809225159741753"><ele>168.42857142857142</ele><time>2026-04-28T14:39:55Z</time></trkpt><trkpt lat="45.90478146639012" lon="4.809154177593046"><ele>168.71428571428572</ele><time>2026-04-28T14:39:56Z</time></trkpt><trkpt lat="45.90473702196444" lon="4.8090798563111115"><ele>169.0</ele><time>2026-04-28T14:39:57Z</time></trkpt><trkpt lat="45.904698311051895" lon="4.809000170374515"><ele>169.0</ele><time>2026-04-28T14:39:58Z</time></trkpt><trkpt lat="45.90466586753647" lon="4.808912467652513"><ele>169.0</ele><time>2026-04-28T14:39:58.999Z</time></trkpt><trkpt lat="45.904631135340544" lon="4.808830172161706"><ele>169.0</ele><time>2026-04-28T14:39:59.999Z</time></trkpt><trkpt lat="45.904563473795086" lon="4.808665849652291"><ele>169.0</ele><time>2026-04-28T14:40:01.999Z</time></trkpt><trkpt lat="45.904531212369136" lon="4.808584514247664"><ele>169.0</ele><time>2026-04-28T14:40:02.999Z</time></trkpt><trkpt lat="45.90448478410631" lon="4.808510637577722"><ele>169.0</ele><time>2026-04-28T14:40:03.999Z</time></trkpt><trkpt lat="45.90444841720611" lon="4.8084363765911196"><ele>168.6</ele><time>2026-04-28T14:40:04.999Z</time></trkpt><trkpt lat="45.90437894090452" lon="4.808300749212478"><ele>168.2</ele><time>2026-04-28T14:40:06.999Z</time></trkpt><trkpt lat="45.90433516038618" lon="4.808228421550763"><ele>167.79999999999998</ele><time>2026-04-28T14:40:07.999Z</time></trkpt><trkpt lat="45.904262462531875" lon="4.808075611546561"><ele>167.39999999999998</ele><time>2026-04-28T14:40:09.999Z</time></trkpt><trkpt lat="45.9041794214559" lon="4.80792747517388"><ele>167.0</ele><time>2026-04-28T14:40:11.999Z</time></trkpt><trkpt lat="45.904135842781066" lon="4.8078544620845545"><ele>167.0</ele><time>2026-04-28T14:40:12.999Z</time></trkpt><trkpt lat="45.90408814360005" lon="4.80778816968767"><ele>167.0</ele><time>2026-04-28T14:40:13.999Z</time></trkpt><trkpt lat="45.90405492134494" lon="4.807705101166084"><ele>167.0</ele><time>2026-04-28T14:40:14.999Z</time></trkpt><trkpt lat="45.90401235659363" lon="4.807635264332207"><ele>167.0</ele><time>2026-04-28T14:40:15.999Z</time></trkpt><trkpt lat="45.903964236038426" lon="4.8075692803955485"><ele>167.0</ele><time>2026-04-28T14:40:16.999Z</time></trkpt><trkpt lat="45.9039184378108" lon="4.807495801314503"><ele>167.0</ele><time>2026-04-28T14:40:17.999Z</time></trkpt><trkpt lat="45.90383930856988" lon="4.807358364018435"><ele>167.0</ele><time>2026-04-28T14:40:19.999Z</time></trkpt><trkpt lat="45.90376434721698" lon="4.807225838558045"><ele>167.0</ele><time>2026-04-28T14:40:21.999Z</time></trkpt><trkpt lat="45.90368973734887" lon="4.807105770810466"><ele>167.0</ele><time>2026-04-28T14:40:23.999Z</time></trkpt><trkpt lat="45.90360191268843" lon="4.806994620558017"><ele>167.0</ele><time>2026-04-28T14:40:25.999Z</time></trkpt><trkpt lat="45.90351128055061" lon="4.806898117979387"><ele>167.16666666666666</ele><time>2026-04-28T14:40:27.999Z</time></trkpt><trkpt lat="45.903437543403186" lon="4.806811357818126"><ele>167.33333333333331</ele><time>2026-04-28T14:40:29.999Z</time></trkpt><trkpt lat="45.9033650318459" lon="4.8067251007574585"><ele>167.5</ele><time>2026-04-28T14:40:31.999Z</time></trkpt><trkpt lat="45.90329472659258" lon="4.806629605359257"><ele>167.66666666666666</ele><time>2026-04-28T14:40:33.999Z</time></trkpt><trkpt lat="45.90325423749387" lon="4.8065546536879875"><ele>167.83333333333334</ele><time>2026-04-28T14:40:34.999Z</time></trkpt><trkpt lat="45.903202348503804" lon="4.806497595960126"><ele>168.0</ele><time>2026-04-28T14:40:35.999Z</time></trkpt><trkpt lat="45.90315010214867" lon="4.806443496395146"><ele>168.0</ele><time>2026-04-28T14:40:36.999Z</time></trkpt><trkpt lat="45.90304534871358" lon="4.806334868182553"><ele>168.0</ele><time>2026-04-28T14:40:38.999Z</time></trkpt><trkpt lat="45.90298867998355" lon="4.806276632543351"><ele>168.0</ele><time>2026-04-28T14:40:39.999Z</time></trkpt><trkpt lat="45.90292795068687" lon="4.80622743398532"><ele>168.0</ele><time>2026-04-28T14:40:40.999Z</time></trkpt><trkpt lat="45.902870447142185" lon="4.80618570473024"><ele>168.0</ele><time>2026-04-28T14:40:41.999Z</time></trkpt><trkpt lat="45.90276193560095" lon="4.806101050118061"><ele>168.0</ele><time>2026-04-28T14:40:43.999Z</time></trkpt><trkpt lat="45.902703868576026" lon="4.806063425368387"><ele>168.0</ele><time>2026-04-28T14:40:44.999Z</time></trkpt><trkpt lat="45.90264798235977" lon="4.806019047737009"><ele>168.0</ele><time>2026-04-28T14:40:45.999Z</time></trkpt><trkpt lat="45.902538325572856" lon="4.805933468308502"><ele>168.0</ele><time>2026-04-28T14:40:47.999Z</time></trkpt><trkpt lat="45.90248192065397" lon="4.805890720705925"><ele>168.0</ele><time>2026-04-28T14:40:48.999Z</time></trkpt><trkpt lat="45.90242532864197" lon="4.805847276465872"><ele>168.0</ele><time>2026-04-28T14:40:49.999Z</time></trkpt><trkpt lat="45.90231252605438" lon="4.8057689398654615"><ele>168.0</ele><time>2026-04-28T14:40:51.999Z</time></trkpt><trkpt lat="45.90220089753536" lon="4.805680980120501"><ele>168.0</ele><time>2026-04-28T14:40:53.999Z</time></trkpt><trkpt lat="45.90208489711997" lon="4.805617141372927"><ele>168.0</ele><time>2026-04-28T14:40:55.999Z</time></trkpt><trkpt lat="45.90202605648651" lon="4.805581907874553"><ele>168.0</ele><time>2026-04-28T14:40:56.999Z</time></trkpt><trkpt lat="45.90191098023812" lon="4.805519709276942"><ele>168.0</ele><time>2026-04-28T14:40:58.999Z</time></trkpt><trkpt lat="45.90179433668645" lon="4.805468863268306"><ele>168.75</ele><time>2026-04-28T14:41:00.999Z</time></trkpt><trkpt lat="45.90167382620431" lon="4.805417065277051"><ele>169.5</ele><time>2026-04-28T14:41:02.999Z</time></trkpt><trkpt lat="45.90155949910294" lon="4.805367931665102"><ele>170.25</ele><time>2026-04-28T14:41:04.999Z</time></trkpt><trkpt lat="45.90143913263465" lon="4.8053318400955485"><ele>171.0</ele><time>2026-04-28T14:41:06.999Z</time></trkpt><trkpt lat="45.901318881915586" lon="4.805294271340237"><ele>171.0</ele><time>2026-04-28T14:41:08.999Z</time></trkpt><trkpt lat="45.90119953899319" lon="4.805264162094024"><ele>171.0</ele><time>2026-04-28T14:41:11Z</time></trkpt><trkpt lat="45.901084658507" lon="4.805234566085173"><ele>171.0</ele><time>2026-04-28T14:41:13Z</time></trkpt><trkpt lat="45.90097440760961" lon="4.805209023850074"><ele>171.0</ele><time>2026-04-28T14:41:15Z</time></trkpt><trkpt lat="45.90087057850199" lon="4.805174420615417"><ele>170.8</ele><time>2026-04-28T14:41:17Z</time></trkpt><trkpt lat="45.900759862133356" lon="4.805172027223774"><ele>170.60000000000002</ele><time>2026-04-28T14:41:19Z</time></trkpt><trkpt lat="45.90065454444672" lon="4.805161307004183"><ele>170.4</ele><time>2026-04-28T14:41:21Z</time></trkpt><trkpt lat="45.90054841273726" lon="4.805144580452691"><ele>170.2</ele><time>2026-04-28T14:41:23Z</time></trkpt><trkpt lat="45.90045426053762" lon="4.805129369821519"><ele>170.0</ele><time>2026-04-28T14:41:25Z</time></trkpt><trkpt lat="45.900356388201665" lon="4.805117517989213"><ele>169.8</ele><time>2026-04-28T14:41:27Z</time></trkpt><trkpt lat="45.90025719601416" lon="4.80509374818771"><ele>169.6</ele><time>2026-04-28T14:41:29Z</time></trkpt><trkpt lat="45.90016624324011" lon="4.805083496387375"><ele>169.39999999999998</ele><time>2026-04-28T14:41:31Z</time></trkpt><trkpt lat="45.90005317299411" lon="4.805084242821652"><ele>169.2</ele><time>2026-04-28T14:41:33Z</time></trkpt><trkpt lat="45.899952593385954" lon="4.80508653499944"><ele>169.0</ele><time>2026-04-28T14:41:35Z</time></trkpt><trkpt lat="45.89984742350109" lon="4.805093138565699"><ele>169.0</ele><time>2026-04-28T14:41:37Z</time></trkpt><trkpt lat="45.89974271218683" lon="4.80508281926637"><ele>169.0</ele><time>2026-04-28T14:41:39Z</time></trkpt><trkpt lat="45.899629517525895" lon="4.805104225111325"><ele>169.0</ele><time>2026-04-28T14:41:41Z</time></trkpt><trkpt lat="45.89952175661417" lon="4.805122556075452"><ele>169.0</ele><time>2026-04-28T14:41:43Z</time></trkpt><trkpt lat="45.89941183848138" lon="4.80514048280607"><ele>169.0</ele><time>2026-04-28T14:41:45Z</time></trkpt><trkpt lat="45.89934668197584" lon="4.805154373521542"><ele>169.0</ele><time>2026-04-28T14:41:46Z</time></trkpt><trkpt lat="45.899283970173016" lon="4.80517659540763"><ele>169.0</ele><time>2026-04-28T14:41:47Z</time></trkpt><trkpt lat="45.89918302196826" lon="4.805230795356562"><ele>169.0</ele><time>2026-04-28T14:41:49Z</time></trkpt><trkpt lat="45.899073601497065" lon="4.805292028481928"><ele>169.0</ele><time>2026-04-28T14:41:51Z</time></trkpt><trkpt lat="45.89897508056474" lon="4.805372164082611"><ele>169.0</ele><time>2026-04-28T14:41:53Z</time></trkpt><trkpt lat="45.898874308265185" lon="4.805417691080536"><ele>169.0</ele><time>2026-04-28T14:41:55Z</time></trkpt><trkpt lat="45.89876941894359" lon="4.805478662987551"><ele>169.0</ele><time>2026-04-28T14:41:57Z</time></trkpt><trkpt lat="45.89866867251552" lon="4.805537801945638"><ele>169.0</ele><time>2026-04-28T14:41:59Z</time></trkpt><trkpt lat="45.898564224669734" lon="4.805597192421277"><ele>169.0</ele><time>2026-04-28T14:42:01Z</time></trkpt><trkpt lat="45.89845145792615" lon="4.805669650164852"><ele>169.75</ele><time>2026-04-28T14:42:02.999Z</time></trkpt><trkpt lat="45.898346585446376" lon="4.805733577130828"><ele>170.5</ele><time>2026-04-28T14:42:04.999Z</time></trkpt><trkpt lat="45.89824316393164" lon="4.805803068430439"><ele>171.25</ele><time>2026-04-28T14:42:06.999Z</time></trkpt><trkpt lat="45.89813937131576" lon="4.805881956401245"><ele>172.0</ele><time>2026-04-28T14:42:08.999Z</time></trkpt><trkpt lat="45.898034439272244" lon="4.805959459427069"><ele>171.5</ele><time>2026-04-28T14:42:10.999Z</time></trkpt><trkpt lat="45.897938622379876" lon="4.806051653251928"><ele>171.0</ele><time>2026-04-28T14:42:12.999Z</time></trkpt><trkpt lat="45.89783608172556" lon="4.806131093075436"><ele>170.5</ele><time>2026-04-28T14:42:14.999Z</time></trkpt><trkpt lat="45.89773810949035" lon="4.806219512504286"><ele>170.0</ele><time>2026-04-28T14:42:16.999Z</time></trkpt><trkpt lat="45.89763785293146" lon="4.8062969205409365"><ele>169.8</ele><time>2026-04-28T14:42:18.999Z</time></trkpt><trkpt lat="45.897547946688945" lon="4.806389992834246"><ele>169.6</ele><time>2026-04-28T14:42:20.999Z</time></trkpt><trkpt lat="45.897460173916755" lon="4.8064687515199385"><ele>169.39999999999998</ele><time>2026-04-28T14:42:22.999Z</time></trkpt><trkpt lat="45.897372664363445" lon="4.80653624612273"><ele>169.2</ele><time>2026-04-28T14:42:24.999Z</time></trkpt><trkpt lat="45.897272822453374" lon="4.806606410818879"><ele>169.0</ele><time>2026-04-28T14:42:26.999Z</time></trkpt><trkpt lat="45.8971777003415" lon="4.806682429767751"><ele>169.0</ele><time>2026-04-28T14:42:28.999Z</time></trkpt><trkpt lat="45.897077100940635" lon="4.8067339571727565"><ele>169.0</ele><time>2026-04-28T14:42:30.999Z</time></trkpt><trkpt lat="45.896974042371596" lon="4.806792528231669"><ele>169.0</ele><time>2026-04-28T14:42:32.999Z</time></trkpt><trkpt lat="45.89687867558258" lon="4.806843407010877"><ele>169.0</ele><time>2026-04-28T14:42:34.999Z</time></trkpt><trkpt lat="45.896779442783064" lon="4.806909159662432"><ele>169.0</ele><time>2026-04-28T14:42:36.999Z</time></trkpt><trkpt lat="45.89668803453141" lon="4.806960044071292"><ele>169.0</ele><time>2026-04-28T14:42:38.999Z</time></trkpt><trkpt lat="45.89662598429157" lon="4.80698881290055"><ele>169.0</ele><time>2026-04-28T14:42:39.999Z</time></trkpt><trkpt lat="45.896565900654515" lon="4.807016453933745"><ele>169.0</ele><time>2026-04-28T14:42:40.999Z</time></trkpt><trkpt lat="45.8965017720451" lon="4.807038733608191"><ele>169.0</ele><time>2026-04-28T14:42:41.999Z</time></trkpt><trkpt lat="45.89643627527847" lon="4.807061693642584"><ele>169.0</ele><time>2026-04-28T14:42:42.999Z</time></trkpt><trkpt lat="45.89632140945268" lon="4.807085983723063"><ele>169.0</ele><time>2026-04-28T14:42:44.999Z</time></trkpt><trkpt lat="45.896197957655325" lon="4.8070960760498895"><ele>169.0</ele><time>2026-04-28T14:42:46.999Z</time></trkpt><trkpt lat="45.89613206337694" lon="4.80711220150185"><ele>169.0</ele><time>2026-04-28T14:42:47.999Z</time></trkpt><trkpt lat="45.89599894707134" lon="4.807143531522931"><ele>169.0</ele><time>2026-04-28T14:42:49.999Z</time></trkpt><trkpt lat="45.89586162838419" lon="4.80716186686571"><ele>169.0</ele><time>2026-04-28T14:42:51.999Z</time></trkpt><trkpt lat="45.89573360919645" lon="4.807204259918583"><ele>169.16666666666669</ele><time>2026-04-28T14:42:53.999Z</time></trkpt><trkpt lat="45.89566686867909" lon="4.807223265677837"><ele>169.33333333333334</ele><time>2026-04-28T14:42:54.999Z</time></trkpt><trkpt lat="45.8956017310225" lon="4.807242725489981"><ele>169.5</ele><time>2026-04-28T14:42:55.999Z</time></trkpt><trkpt lat="45.89549111900484" lon="4.807293133712116"><ele>169.66666666666666</ele><time>2026-04-28T14:42:57.999Z</time></trkpt><trkpt lat="45.89542622130907" lon="4.8073214563475455"><ele>169.83333333333331</ele><time>2026-04-28T14:42:58.999Z</time></trkpt><trkpt lat="45.895310966421555" lon="4.807390436050625"><ele>170.0</ele><time>2026-04-28T14:43:00.999Z</time></trkpt><trkpt lat="45.89524536042796" lon="4.8074370225610945"><ele>170.0</ele><time>2026-04-28T14:43:01.999Z</time></trkpt><trkpt lat="45.89516503873929" lon="4.807471591267035"><ele>170.0</ele><time>2026-04-28T14:43:02.999Z</time></trkpt><trkpt lat="45.895044808690145" lon="4.807536167565033"><ele>170.0</ele><time>2026-04-28T14:43:04.999Z</time></trkpt><trkpt lat="45.894967877394166" lon="4.807574549377958"><ele>170.0</ele><time>2026-04-28T14:43:05.999Z</time></trkpt><trkpt lat="45.894865787624184" lon="4.80765523046899"><ele>170.0</ele><time>2026-04-28T14:43:07.999Z</time></trkpt><trkpt lat="45.894767524873046" lon="4.807708274168613"><ele>169.6</ele><time>2026-04-28T14:43:09.999Z</time></trkpt><trkpt lat="45.89468935787944" lon="4.807749762352557"><ele>169.2</ele><time>2026-04-28T14:43:10.999Z</time></trkpt><trkpt lat="45.89457839381842" lon="4.8078159455264"><ele>168.8</ele><time>2026-04-28T14:43:12.999Z</time></trkpt><trkpt lat="45.89444670979376" lon="4.807895842012067"><ele>168.4</ele><time>2026-04-28T14:43:14.999Z</time></trkpt><trkpt lat="45.89438743954193" lon="4.80792846860688"><ele>168.0</ele><time>2026-04-28T14:43:15.999Z</time></trkpt><trkpt lat="45.894278132328" lon="4.807987937194775"><ele>167.60000000000002</ele><time>2026-04-28T14:43:18Z</time></trkpt><trkpt lat="45.89421932969498" lon="4.808021733114958"><ele>167.20000000000002</ele><time>2026-04-28T14:43:19Z</time></trkpt><trkpt lat="45.89411460163082" lon="4.808087343463013"><ele>166.8</ele><time>2026-04-28T14:43:21Z</time></trkpt><trkpt lat="45.89400594344105" lon="4.8081490280659045"><ele>166.4</ele><time>2026-04-28T14:43:23Z</time></trkpt><trkpt lat="45.89390239313538" lon="4.8082100876615765"><ele>166.0</ele><time>2026-04-28T14:43:25Z</time></trkpt><trkpt lat="45.893792480095705" lon="4.8082618456511454"><ele>166.0</ele><time>2026-04-28T14:43:27Z</time></trkpt><trkpt lat="45.89368373870642" lon="4.808325787863052"><ele>166.0</ele><time>2026-04-28T14:43:29Z</time></trkpt><trkpt lat="45.89357804618889" lon="4.808383354291434"><ele>166.0</ele><time>2026-04-28T14:43:31Z</time></trkpt><trkpt lat="45.89347879189581" lon="4.808448413273455"><ele>166.0</ele><time>2026-04-28T14:43:33Z</time></trkpt><trkpt lat="45.89336575709569" lon="4.808472055670168"><ele>166.60000000000002</ele><time>2026-04-28T14:43:35Z</time></trkpt><trkpt lat="45.89326739114704" lon="4.808562207450758"><ele>167.2</ele><time>2026-04-28T14:43:37Z</time></trkpt><trkpt lat="45.89315669926591" lon="4.808594482912274"><ele>167.8</ele><time>2026-04-28T14:43:39Z</time></trkpt><trkpt lat="45.89306484357269" lon="4.808650854092185"><ele>168.39999999999998</ele><time>2026-04-28T14:43:41Z</time></trkpt><trkpt lat="45.892980233813" lon="4.808727426829724"><ele>169.0</ele><time>2026-04-28T14:43:43Z</time></trkpt><trkpt lat="45.8928906113739" lon="4.80876833580676"><ele>169.0</ele><time>2026-04-28T14:43:45Z</time></trkpt><trkpt lat="45.892821043845025" lon="4.808801620299598"><ele>169.0</ele><time>2026-04-28T14:43:47Z</time></trkpt><trkpt lat="45.892751907526694" lon="4.808839085952528"><ele>169.0</ele><time>2026-04-28T14:43:50Z</time></trkpt><trkpt lat="45.8926634312233" lon="4.808891640565149"><ele>169.0</ele><time>2026-04-28T14:43:53Z</time></trkpt><trkpt lat="45.89259184947079" lon="4.80893657799806"><ele>169.0</ele><time>2026-04-28T14:43:55Z</time></trkpt><trkpt lat="45.89252959135609" lon="4.808995773964351"><ele>169.0</ele><time>2026-04-28T14:43:57Z</time></trkpt><trkpt lat="45.89245846506853" lon="4.809028029665307"><ele>169.0</ele><time>2026-04-28T14:43:59Z</time></trkpt><trkpt lat="45.8924182897829" lon="4.809106964562299"><ele>169.0</ele><time>2026-04-28T14:44:01Z</time></trkpt><trkpt lat="45.89237227594014" lon="4.809185350709198"><ele>169.0</ele><time>2026-04-28T14:44:03Z</time></trkpt><trkpt lat="45.892335761549546" lon="4.809290216571392"><ele>169.0</ele><time>2026-04-28T14:44:05Z</time></trkpt><trkpt lat="45.892256189843756" lon="4.80933302103437"><ele>169.0</ele><time>2026-04-28T14:44:07Z</time></trkpt><trkpt lat="45.89215982924833" lon="4.809360342839867"><ele>169.0</ele><time>2026-04-28T14:44:08.999Z</time></trkpt><trkpt lat="45.89206482828161" lon="4.809419433376782"><ele>169.0</ele><time>2026-04-28T14:44:10.999Z</time></trkpt><trkpt lat="45.89195114585338" lon="4.809490370321289"><ele>169.0</ele><time>2026-04-28T14:44:12.999Z</time></trkpt><trkpt lat="45.891886107095665" lon="4.8095304968367465"><ele>169.0</ele><time>2026-04-28T14:44:13.999Z</time></trkpt><trkpt lat="45.89182746364239" lon="4.809576691161884"><ele>169.0</ele><time>2026-04-28T14:44:14.999Z</time></trkpt><trkpt lat="45.89177183990781" lon="4.809626646743422"><ele>169.0</ele><time>2026-04-28T14:44:15.999Z</time></trkpt><trkpt lat="45.891714359807665" lon="4.809669388727535"><ele>169.0</ele><time>2026-04-28T14:44:16.999Z</time></trkpt><trkpt lat="45.89165287749773" lon="4.80971278715761"><ele>169.14285714285714</ele><time>2026-04-28T14:44:17.999Z</time></trkpt><trkpt lat="45.89159430545358" lon="4.809758860937683"><ele>169.28571428571428</ele><time>2026-04-28T14:44:18.999Z</time></trkpt><trkpt lat="45.891535211505015" lon="4.809801495671314"><ele>169.42857142857144</ele><time>2026-04-28T14:44:19.999Z</time></trkpt><trkpt lat="45.891476510729355" lon="4.80984256652958"><ele>169.57142857142856</ele><time>2026-04-28T14:44:20.999Z</time></trkpt><trkpt lat="45.8914180548756" lon="4.809884760978868"><ele>169.7142857142857</ele><time>2026-04-28T14:44:21.999Z</time></trkpt><trkpt lat="45.89134386508479" lon="4.809886641978807"><ele>169.85714285714286</ele><time>2026-04-28T14:44:22.999Z</time></trkpt><trkpt lat="45.891286810566754" lon="4.809927905389756"><ele>170.0</ele><time>2026-04-28T14:44:23.999Z</time></trkpt><trkpt lat="45.89117044282466" lon="4.810012065768383"><ele>170.0</ele><time>2026-04-28T14:44:25.999Z</time></trkpt><trkpt lat="45.89112636217725" lon="4.810091847108801"><ele>170.0</ele><time>2026-04-28T14:44:26.999Z</time></trkpt><trkpt lat="45.891066793937355" lon="4.810133697618507"><ele>170.0</ele><time>2026-04-28T14:44:27.999Z</time></trkpt><trkpt lat="45.891007718084985" lon="4.810176471371861"><ele>170.0</ele><time>2026-04-28T14:44:28.999Z</time></trkpt><trkpt lat="45.89095057244104" lon="4.81021685297595"><ele>170.0</ele><time>2026-04-28T14:44:29.999Z</time></trkpt><trkpt lat="45.89089069213579" lon="4.81025883162808"><ele>170.0</ele><time>2026-04-28T14:44:30.999Z</time></trkpt><trkpt lat="45.890833782402524" lon="4.810302202995811"><ele>170.0</ele><time>2026-04-28T14:44:31.999Z</time></trkpt><trkpt lat="45.89072390389623" lon="4.810388251628485"><ele>170.0</ele><time>2026-04-28T14:44:33.999Z</time></trkpt><trkpt lat="45.89066490289487" lon="4.810428708154612"><ele>170.0</ele><time>2026-04-28T14:44:34.999Z</time></trkpt><trkpt lat="45.89055037000023" lon="4.810514360560802"><ele>170.0</ele><time>2026-04-28T14:44:36.999Z</time></trkpt><trkpt lat="45.89049315070207" lon="4.810554862810006"><ele>170.0</ele><time>2026-04-28T14:44:37.999Z</time></trkpt><trkpt lat="45.89038348810454" lon="4.810642286652018"><ele>170.0</ele><time>2026-04-28T14:44:39.999Z</time></trkpt><trkpt lat="45.8903220300876" lon="4.8106897150932"><ele>170.0</ele><time>2026-04-28T14:44:40.999Z</time></trkpt><trkpt lat="45.89026727527041" lon="4.810736670738387"><ele>170.0</ele><time>2026-04-28T14:44:41.999Z</time></trkpt><trkpt lat="45.89020987345209" lon="4.810787741246432"><ele>170.0</ele><time>2026-04-28T14:44:42.999Z</time></trkpt><trkpt lat="45.89015004205537" lon="4.810826979157008"><ele>170.0</ele><time>2026-04-28T14:44:43.999Z</time></trkpt><trkpt lat="45.89009362874625" lon="4.81086888193144"><ele>170.0</ele><time>2026-04-28T14:44:44.999Z</time></trkpt><trkpt lat="45.890034771913115" lon="4.8109066879871305"><ele>170.0</ele><time>2026-04-28T14:44:45.999Z</time></trkpt><trkpt lat="45.8899665497473" lon="4.810904991830047"><ele>170.0</ele><time>2026-04-28T14:44:46.999Z</time></trkpt><trkpt lat="45.88992346231244" lon="4.810981734029779"><ele>169.16666666666666</ele><time>2026-04-28T14:44:47.999Z</time></trkpt><trkpt lat="45.88986580076542" lon="4.811022060193806"><ele>168.33333333333331</ele><time>2026-04-28T14:44:48.999Z</time></trkpt><trkpt lat="45.88979624722672" lon="4.811030511191429"><ele>167.5</ele><time>2026-04-28T14:44:49.999Z</time></trkpt><trkpt lat="45.8896888627579" lon="4.811109657583726"><ele>166.66666666666666</ele><time>2026-04-28T14:44:51.999Z</time></trkpt><trkpt lat="45.88958500956613" lon="4.811186201291629"><ele>165.83333333333334</ele><time>2026-04-28T14:44:53.999Z</time></trkpt><trkpt lat="45.88952177835219" lon="4.811232805073915"><ele>165.0</ele><time>2026-04-28T14:44:54.999Z</time></trkpt><trkpt lat="45.88941921322155" lon="4.811308399434712"><ele>165.0</ele><time>2026-04-28T14:44:56.999Z</time></trkpt><trkpt lat="45.889308964197305" lon="4.811390542182825"><ele>165.0</ele><time>2026-04-28T14:44:58.999Z</time></trkpt><trkpt lat="45.88920172716065" lon="4.8114716686670524"><ele>165.0</ele><time>2026-04-28T14:45:00.999Z</time></trkpt><trkpt lat="45.889094563641116" lon="4.811552739539469"><ele>165.0</ele><time>2026-04-28T14:45:02.999Z</time></trkpt><trkpt lat="45.88898696671056" lon="4.811636199174625"><ele>165.6</ele><time>2026-04-28T14:45:04.999Z</time></trkpt><trkpt lat="45.88887544307246" lon="4.811724471343485"><ele>166.2</ele><time>2026-04-28T14:45:06.999Z</time></trkpt><trkpt lat="45.888819391593614" lon="4.811770218957103"><ele>166.8</ele><time>2026-04-28T14:45:07.999Z</time></trkpt><trkpt lat="45.88871486252876" lon="4.811857062312008"><ele>167.4</ele><time>2026-04-28T14:45:09.999Z</time></trkpt><trkpt lat="45.888615558222774" lon="4.811943505631056"><ele>168.0</ele><time>2026-04-28T14:45:11.999Z</time></trkpt><trkpt lat="45.888513398170055" lon="4.8120391273268766"><ele>168.0</ele><time>2026-04-28T14:45:13.999Z</time></trkpt><trkpt lat="45.88845902239899" lon="4.81209181944715"><ele>168.0</ele><time>2026-04-28T14:45:14.999Z</time></trkpt><trkpt lat="45.88835944862172" lon="4.8121883100887715"><ele>168.0</ele><time>2026-04-28T14:45:16.999Z</time></trkpt><trkpt lat="45.88825824610833" lon="4.812286379036186"><ele>168.0</ele><time>2026-04-28T14:45:18.999Z</time></trkpt><trkpt lat="45.88820544626769" lon="4.8123375440226015"><ele>168.0</ele><time>2026-04-28T14:45:19.999Z</time></trkpt><trkpt lat="45.888150686735386" lon="4.8123906080170755"><ele>168.0</ele><time>2026-04-28T14:45:20.999Z</time></trkpt><trkpt lat="45.88805008796944" lon="4.812490847026163"><ele>168.2</ele><time>2026-04-28T14:45:23Z</time></trkpt><trkpt lat="45.88801451465794" lon="4.812578698804352"><ele>168.4</ele><time>2026-04-28T14:45:24Z</time></trkpt><trkpt lat="45.887909740627414" lon="4.812687547713098"><ele>168.6</ele><time>2026-04-28T14:45:26Z</time></trkpt><trkpt lat="45.88785738051815" lon="4.812746074113905"><ele>168.79999999999998</ele><time>2026-04-28T14:45:27Z</time></trkpt><trkpt lat="45.88775908047767" lon="4.812863671721606"><ele>169.0</ele><time>2026-04-28T14:45:29Z</time></trkpt><trkpt lat="45.88770914126418" lon="4.812923509886484"><ele>169.0</ele><time>2026-04-28T14:45:30Z</time></trkpt><trkpt lat="45.8876563022391" lon="4.812979313407447"><ele>169.0</ele><time>2026-04-28T14:45:31Z</time></trkpt><trkpt lat="45.88760413780513" lon="4.813032880234741"><ele>169.0</ele><time>2026-04-28T14:45:32Z</time></trkpt><trkpt lat="45.887555662195744" lon="4.813094840698762"><ele>169.0</ele><time>2026-04-28T14:45:33Z</time></trkpt><trkpt lat="45.88750646949153" lon="4.81315757328072"><ele>169.0</ele><time>2026-04-28T14:45:34Z</time></trkpt><trkpt lat="45.88745448859167" lon="4.8132185974814785"><ele>169.0</ele><time>2026-04-28T14:45:35Z</time></trkpt><trkpt lat="45.88740512843094" lon="4.813285344061279"><ele>169.0</ele><time>2026-04-28T14:45:36Z</time></trkpt><trkpt lat="45.88731165245722" lon="4.813396934266227"><ele>169.6</ele><time>2026-04-28T14:45:38Z</time></trkpt><trkpt lat="45.88725855044577" lon="4.813466185680746"><ele>170.2</ele><time>2026-04-28T14:45:39Z</time></trkpt><trkpt lat="45.887208628761854" lon="4.813527507162763"><ele>170.79999999999998</ele><time>2026-04-28T14:45:40Z</time></trkpt><trkpt lat="45.88711700738832" lon="4.8136556688843015"><ele>171.39999999999998</ele><time>2026-04-28T14:45:42Z</time></trkpt><trkpt lat="45.887023944224424" lon="4.813780041503101"><ele>172.0</ele><time>2026-04-28T14:45:44Z</time></trkpt><trkpt lat="45.88697545976032" lon="4.813841490343502"><ele>172.14285714285717</ele><time>2026-04-28T14:45:45Z</time></trkpt><trkpt lat="45.886930554461834" lon="4.813909471743634"><ele>172.28571428571428</ele><time>2026-04-28T14:45:46Z</time></trkpt><trkpt lat="45.88688410244054" lon="4.81397518985114"><ele>172.42857142857144</ele><time>2026-04-28T14:45:47Z</time></trkpt><trkpt lat="45.88683472527909" lon="4.814040430408027"><ele>172.57142857142858</ele><time>2026-04-28T14:45:48Z</time></trkpt><trkpt lat="45.88678231741135" lon="4.814104565816625"><ele>172.71428571428572</ele><time>2026-04-28T14:45:49Z</time></trkpt><trkpt lat="45.88673244100614" lon="4.8141639664896765"><ele>172.85714285714286</ele><time>2026-04-28T14:45:50Z</time></trkpt><trkpt lat="45.88668111699356" lon="4.814230875982257"><ele>173.0</ele><time>2026-04-28T14:45:51Z</time></trkpt><trkpt lat="45.88662790739587" lon="4.814299022004804"><ele>173.0</ele><time>2026-04-28T14:45:52Z</time></trkpt><trkpt lat="45.886578089813035" lon="4.814364393379862"><ele>173.0</ele><time>2026-04-28T14:45:53Z</time></trkpt><trkpt lat="45.88652713546396" lon="4.814430682619682"><ele>173.0</ele><time>2026-04-28T14:45:54Z</time></trkpt><trkpt lat="45.88645271221608" lon="4.814456171927047"><ele>173.0</ele><time>2026-04-28T14:45:55Z</time></trkpt><trkpt lat="45.88640430526816" lon="4.814518995777188"><ele>173.0</ele><time>2026-04-28T14:45:56Z</time></trkpt><trkpt lat="45.886352500091824" lon="4.814586150637356"><ele>173.0</ele><time>2026-04-28T14:45:57Z</time></trkpt><trkpt lat="45.88630151185661" lon="4.81465052170519"><ele>173.0</ele><time>2026-04-28T14:45:58Z</time></trkpt><trkpt lat="45.88624988999765" lon="4.814713697029486"><ele>173.0</ele><time>2026-04-28T14:45:59Z</time></trkpt><trkpt lat="45.886148191710326" lon="4.814840932181381"><ele>173.0</ele><time>2026-04-28T14:46:01Z</time></trkpt><trkpt lat="45.886097323610066" lon="4.814907155212079"><ele>173.0</ele><time>2026-04-28T14:46:02Z</time></trkpt><trkpt lat="45.88604830896538" lon="4.81497215493629"><ele>173.0</ele><time>2026-04-28T14:46:03Z</time></trkpt><trkpt lat="45.88601230227338" lon="4.815066063237194"><ele>173.0</ele><time>2026-04-28T14:46:04Z</time></trkpt><trkpt lat="45.885965090972036" lon="4.815128249953158"><ele>173.0</ele><time>2026-04-28T14:46:05Z</time></trkpt><trkpt lat="45.88591092761248" lon="4.815193829934803"><ele>172.7142857142857</ele><time>2026-04-28T14:46:06Z</time></trkpt><trkpt lat="45.88585559441051" lon="4.815260221583607"><ele>172.42857142857144</ele><time>2026-04-28T14:46:07Z</time></trkpt><trkpt lat="45.88580441124086" lon="4.815327187971698"><ele>172.14285714285714</ele><time>2026-04-28T14:46:08Z</time></trkpt><trkpt lat="45.8857521079557" lon="4.815394758693034"><ele>171.85714285714283</ele><time>2026-04-28T14:46:09Z</time></trkpt><trkpt lat="45.8856992537062" lon="4.8154666190633675"><ele>171.57142857142856</ele><time>2026-04-28T14:46:10Z</time></trkpt><trkpt lat="45.885647587811036" lon="4.815530340302505"><ele>171.28571428571428</ele><time>2026-04-28T14:46:11Z</time></trkpt><trkpt lat="45.88559452989708" lon="4.815603516917417"><ele>171.0</ele><time>2026-04-28T14:46:12Z</time></trkpt><trkpt lat="45.88554049233578" lon="4.815666901971296"><ele>170.99999999999997</ele><time>2026-04-28T14:46:13Z</time></trkpt><trkpt lat="45.885486008468625" lon="4.815731399479082"><ele>171.0</ele><time>2026-04-28T14:46:13.999Z</time></trkpt><trkpt lat="45.88543480096613" lon="4.815800796584172"><ele>171.0</ele><time>2026-04-28T14:46:14.999Z</time></trkpt><trkpt lat="45.8853835219169" lon="4.815873396107458"><ele>171.0</ele><time>2026-04-28T14:46:15.999Z</time></trkpt><trkpt lat="45.885330048245564" lon="4.815946851262476"><ele>171.0</ele><time>2026-04-28T14:46:16.999Z</time></trkpt><trkpt lat="45.88527702793229" lon="4.816011467070213"><ele>170.99999999999997</ele><time>2026-04-28T14:46:17.999Z</time></trkpt><trkpt lat="45.88522296392196" lon="4.816081699749752"><ele>171.0</ele><time>2026-04-28T14:46:18.999Z</time></trkpt><trkpt lat="45.88516943271821" lon="4.81614593191663"><ele>170.7142857142857</ele><time>2026-04-28T14:46:19.999Z</time></trkpt><trkpt lat="45.88511636868667" lon="4.816216157769512"><ele>170.42857142857142</ele><time>2026-04-28T14:46:20.999Z</time></trkpt><trkpt lat="45.8850636016659" lon="4.816287951750893"><ele>170.14285714285714</ele><time>2026-04-28T14:46:21.999Z</time></trkpt><trkpt lat="45.885010811111265" lon="4.816359166720836"><ele>169.85714285714283</ele><time>2026-04-28T14:46:22.999Z</time></trkpt><trkpt lat="45.88495836144774" lon="4.816427260889622"><ele>169.57142857142856</ele><time>2026-04-28T14:46:23.999Z</time></trkpt><trkpt lat="45.88490964260126" lon="4.816503110432451"><ele>169.28571428571428</ele><time>2026-04-28T14:46:24.999Z</time></trkpt><trkpt lat="45.88485347327839" lon="4.816576554579363"><ele>169.0</ele><time>2026-04-28T14:46:25.999Z</time></trkpt><trkpt lat="45.88479303397236" lon="4.816636317230859"><ele>169.14285714285714</ele><time>2026-04-28T14:46:26.999Z</time></trkpt><trkpt lat="45.884730050132355" lon="4.816691504032632"><ele>169.28571428571428</ele><time>2026-04-28T14:46:27.999Z</time></trkpt><trkpt lat="45.88467092594191" lon="4.816753252563948"><ele>169.42857142857144</ele><time>2026-04-28T14:46:28.999Z</time></trkpt><trkpt lat="45.88461411826095" lon="4.816819300648055"><ele>169.57142857142856</ele><time>2026-04-28T14:46:29.999Z</time></trkpt><trkpt lat="45.884558388822505" lon="4.816888663480512"><ele>169.7142857142857</ele><time>2026-04-28T14:46:30.999Z</time></trkpt><trkpt lat="45.88450155397903" lon="4.816959339371061"><ele>169.85714285714286</ele><time>2026-04-28T14:46:31.999Z</time></trkpt><trkpt lat="45.884450079397574" lon="4.8170239201722325"><ele>170.0</ele><time>2026-04-28T14:46:32.999Z</time></trkpt><trkpt lat="45.8844008248155" lon="4.817099233138436"><ele>170.0</ele><time>2026-04-28T14:46:33.999Z</time></trkpt><trkpt lat="45.88435173796166" lon="4.817172637190773"><ele>170.0</ele><time>2026-04-28T14:46:34.999Z</time></trkpt><trkpt lat="45.88431407531399" lon="4.817252839690362"><ele>170.0</ele><time>2026-04-28T14:46:35.999Z</time></trkpt><trkpt lat="45.884277443677846" lon="4.817329851317083"><ele>170.0</ele><time>2026-04-28T14:46:36.999Z</time></trkpt><trkpt lat="45.88419906822433" lon="4.817463864264499"><ele>170.0</ele><time>2026-04-28T14:46:38.999Z</time></trkpt><trkpt lat="45.88411181640014" lon="4.817597131401992"><ele>170.14285714285714</ele><time>2026-04-28T14:46:40.999Z</time></trkpt><trkpt lat="45.884066760846835" lon="4.817670087428862"><ele>170.28571428571428</ele><time>2026-04-28T14:46:41.999Z</time></trkpt><trkpt lat="45.88401875886977" lon="4.817747574109571"><ele>170.42857142857142</ele><time>2026-04-28T14:46:42.999Z</time></trkpt><trkpt lat="45.88397278503144" lon="4.817824517728106"><ele>170.57142857142856</ele><time>2026-04-28T14:46:43.999Z</time></trkpt><trkpt lat="45.88393214073762" lon="4.8179048061017395"><ele>170.71428571428572</ele><time>2026-04-28T14:46:44.999Z</time></trkpt><trkpt lat="45.88389011669254" lon="4.817983941607744"><ele>170.85714285714283</ele><time>2026-04-28T14:46:45.999Z</time></trkpt><trkpt lat="45.883845374803784" lon="4.818061790858177"><ele>171.0</ele><time>2026-04-28T14:46:46.999Z</time></trkpt><trkpt lat="45.88380544570533" lon="4.818144154740254"><ele>170.99999999999997</ele><time>2026-04-28T14:46:47.999Z</time></trkpt><trkpt lat="45.883764362235866" lon="4.818226070583198"><ele>171.0</ele><time>2026-04-28T14:46:48.999Z</time></trkpt><trkpt lat="45.88372460237846" lon="4.818303045141354"><ele>171.0</ele><time>2026-04-28T14:46:49.999Z</time></trkpt><trkpt lat="45.88369113231616" lon="4.818386498633473"><ele>171.0</ele><time>2026-04-28T14:46:50.999Z</time></trkpt><trkpt lat="45.8836590537687" lon="4.8184714304872776"><ele>171.0</ele><time>2026-04-28T14:46:51.999Z</time></trkpt><trkpt lat="45.88362155828258" lon="4.818553783772793"><ele>170.99999999999997</ele><time>2026-04-28T14:46:52.999Z</time></trkpt><trkpt lat="45.883586207597055" lon="4.818638657606091"><ele>171.0</ele><time>2026-04-28T14:46:53.999Z</time></trkpt><trkpt lat="45.88355170544135" lon="4.818717508803106"><ele>171.16666666666666</ele><time>2026-04-28T14:46:54.999Z</time></trkpt><trkpt lat="45.883515285031244" lon="4.81879531703675"><ele>171.33333333333334</ele><time>2026-04-28T14:46:55.999Z</time></trkpt><trkpt lat="45.883478405783336" lon="4.818879817154319"><ele>171.5</ele><time>2026-04-28T14:46:56.999Z</time></trkpt><trkpt lat="45.883446983115846" lon="4.8189625182126425"><ele>171.66666666666669</ele><time>2026-04-28T14:46:57.999Z</time></trkpt><trkpt lat="45.88338811903513" lon="4.819116419810144"><ele>171.83333333333334</ele><time>2026-04-28T14:46:59.999Z</time></trkpt><trkpt lat="45.88332644590819" lon="4.819275040673493"><ele>172.0</ele><time>2026-04-28T14:47:01.999Z</time></trkpt><trkpt lat="45.883287378654614" lon="4.819356069340673"><ele>171.66666666666669</ele><time>2026-04-28T14:47:02.999Z</time></trkpt><trkpt lat="45.88321931794598" lon="4.819512947676168"><ele>171.33333333333334</ele><time>2026-04-28T14:47:04.999Z</time></trkpt><trkpt lat="45.8831829535396" lon="4.819588586086889"><ele>171.0</ele><time>2026-04-28T14:47:05.999Z</time></trkpt><trkpt lat="45.88314788563908" lon="4.819668890131551"><ele>170.66666666666666</ele><time>2026-04-28T14:47:06.999Z</time></trkpt><trkpt lat="45.88311274460166" lon="4.819750556000042"><ele>170.33333333333331</ele><time>2026-04-28T14:47:07.999Z</time></trkpt><trkpt lat="45.88307726377392" lon="4.819832363857874"><ele>170.0</ele><time>2026-04-28T14:47:08.999Z</time></trkpt><trkpt lat="45.88303913714587" lon="4.819914292494212"><ele>170.0</ele><time>2026-04-28T14:47:09.999Z</time></trkpt><trkpt lat="45.88300487748412" lon="4.820000583160117"><ele>170.0</ele><time>2026-04-28T14:47:10.999Z</time></trkpt><trkpt lat="45.882973908191985" lon="4.820090817196694"><ele>170.0</ele><time>2026-04-28T14:47:11.999Z</time></trkpt><trkpt lat="45.882943967468364" lon="4.820170608620498"><ele>170.0</ele><time>2026-04-28T14:47:12.999Z</time></trkpt><trkpt lat="45.88290763410558" lon="4.82026255073018"><ele>170.0</ele><time>2026-04-28T14:47:13.999Z</time></trkpt><trkpt lat="45.8828725378804" lon="4.820348137436215"><ele>170.0</ele><time>2026-04-28T14:47:14.999Z</time></trkpt><trkpt lat="45.88283861044554" lon="4.8204320235867995"><ele>170.0</ele><time>2026-04-28T14:47:15.999Z</time></trkpt><trkpt lat="45.88280558065649" lon="4.82051788679797"><ele>170.0</ele><time>2026-04-28T14:47:16.999Z</time></trkpt><trkpt lat="45.882774185474254" lon="4.820602904961727"><ele>170.0</ele><time>2026-04-28T14:47:17.999Z</time></trkpt><trkpt lat="45.882746303017434" lon="4.820689198894793"><ele>170.0</ele><time>2026-04-28T14:47:18.999Z</time></trkpt><trkpt lat="45.8827138815546" lon="4.820774192710383"><ele>170.0</ele><time>2026-04-28T14:47:19.999Z</time></trkpt><trkpt lat="45.88268234900812" lon="4.820858248480132"><ele>170.0</ele><time>2026-04-28T14:47:20.999Z</time></trkpt><trkpt lat="45.882648275674654" lon="4.820941976572956"><ele>170.0</ele><time>2026-04-28T14:47:21.999Z</time></trkpt><trkpt lat="45.88261499437093" lon="4.821026416570615"><ele>170.0</ele><time>2026-04-28T14:47:22.999Z</time></trkpt><trkpt lat="45.882583216930584" lon="4.82111262156459"><ele>170.0</ele><time>2026-04-28T14:47:23.999Z</time></trkpt><trkpt lat="45.882519510868846" lon="4.8212687756781945"><ele>170.0</ele><time>2026-04-28T14:47:25.999Z</time></trkpt><trkpt lat="45.88246336836944" lon="4.821417428140166"><ele>170.0</ele><time>2026-04-28T14:47:27.999Z</time></trkpt><trkpt lat="45.88240501413781" lon="4.821569735015329"><ele>170.0</ele><time>2026-04-28T14:47:30Z</time></trkpt><trkpt lat="45.882335663942534" lon="4.82171739712482"><ele>170.0</ele><time>2026-04-28T14:47:32Z</time></trkpt><trkpt lat="45.882318903747695" lon="4.821804609715174"><ele>170.0</ele><time>2026-04-28T14:47:33Z</time></trkpt><trkpt lat="45.88230513892959" lon="4.821894300791203"><ele>170.0</ele><time>2026-04-28T14:47:34Z</time></trkpt><trkpt lat="45.88226022530335" lon="4.822062248622249"><ele>170.0</ele><time>2026-04-28T14:47:36Z</time></trkpt><trkpt lat="45.88223244272962" lon="4.822144166448599"><ele>170.0</ele><time>2026-04-28T14:47:37Z</time></trkpt><trkpt lat="45.88219309161376" lon="4.822314886073452"><ele>170.0</ele><time>2026-04-28T14:47:39Z</time></trkpt><trkpt lat="45.882143316349136" lon="4.822479740628609"><ele>170.0</ele><time>2026-04-28T14:47:41Z</time></trkpt><trkpt lat="45.88209961151126" lon="4.822647596835598"><ele>170.0</ele><time>2026-04-28T14:47:43Z</time></trkpt><trkpt lat="45.88208093083001" lon="4.822820445007758"><ele>170.0</ele><time>2026-04-28T14:47:45Z</time></trkpt><trkpt lat="45.88203626604494" lon="4.822981022094826"><ele>170.0</ele><time>2026-04-28T14:47:47Z</time></trkpt><trkpt lat="45.881996577669" lon="4.823131390659637"><ele>170.2</ele><time>2026-04-28T14:47:49Z</time></trkpt><trkpt lat="45.881959792182215" lon="4.823271460369241"><ele>170.4</ele><time>2026-04-28T14:47:51Z</time></trkpt><trkpt lat="45.88192463794347" lon="4.823410188755905"><ele>170.60000000000002</ele><time>2026-04-28T14:47:53Z</time></trkpt><trkpt lat="45.88188700699741" lon="4.823559475870899"><ele>170.8</ele><time>2026-04-28T14:47:55Z</time></trkpt><trkpt lat="45.88184726985061" lon="4.823717118644796"><ele>171.0</ele><time>2026-04-28T14:47:57Z</time></trkpt><trkpt lat="45.88180631749238" lon="4.823879582270959"><ele>171.0</ele><time>2026-04-28T14:47:59Z</time></trkpt><trkpt lat="45.88176561489903" lon="4.824037327375123"><ele>171.0</ele><time>2026-04-28T14:48:01Z</time></trkpt><trkpt lat="45.88171824397454" lon="4.824203760235926"><ele>171.0</ele><time>2026-04-28T14:48:03Z</time></trkpt><trkpt lat="45.881652889993404" lon="4.82435788686963"><ele>171.0</ele><time>2026-04-28T14:48:05Z</time></trkpt><trkpt lat="45.88160938346828" lon="4.824532202538169"><ele>171.0</ele><time>2026-04-28T14:48:07Z</time></trkpt><trkpt lat="45.88156085384146" lon="4.824696390257368"><ele>171.0</ele><time>2026-04-28T14:48:09Z</time></trkpt><trkpt lat="45.88154286295214" lon="4.82478904482826"><ele>171.0</ele><time>2026-04-28T14:48:10Z</time></trkpt><trkpt lat="45.88151998193936" lon="4.824877139723082"><ele>171.0</ele><time>2026-04-28T14:48:11Z</time></trkpt><trkpt lat="45.88151855566824" lon="4.824989992480361"><ele>171.0</ele><time>2026-04-28T14:48:12Z</time></trkpt><trkpt lat="45.88148558839995" lon="4.825072441692144"><ele>171.0</ele><time>2026-04-28T14:48:13Z</time></trkpt><trkpt lat="45.88145878328076" lon="4.825154716241387"><ele>170.99999999999997</ele><time>2026-04-28T14:48:14Z</time></trkpt><trkpt lat="45.88145656908506" lon="4.825252550318436"><ele>171.0</ele><time>2026-04-28T14:48:15Z</time></trkpt><trkpt lat="45.88140619327564" lon="4.825325239594414"><ele>171.0</ele><time>2026-04-28T14:48:16Z</time></trkpt><trkpt lat="45.88138103185472" lon="4.825417290061303"><ele>171.0</ele><time>2026-04-28T14:48:17Z</time></trkpt><trkpt lat="45.88135995504312" lon="4.8255061173433464"><ele>171.0</ele><time>2026-04-28T14:48:18Z</time></trkpt><trkpt lat="45.88133947847056" lon="4.825599165266694"><ele>170.99999999999997</ele><time>2026-04-28T14:48:19Z</time></trkpt><trkpt lat="45.881322122224134" lon="4.825688029276928"><ele>171.0</ele><time>2026-04-28T14:48:20Z</time></trkpt><trkpt lat="45.88129788311614" lon="4.825780296821749"><ele>170.99999999999997</ele><time>2026-04-28T14:48:21Z</time></trkpt><trkpt lat="45.88127478077946" lon="4.825870896537984"><ele>171.0</ele><time>2026-04-28T14:48:22Z</time></trkpt><trkpt lat="45.88125031741956" lon="4.825960422901939"><ele>171.0</ele><time>2026-04-28T14:48:22.999Z</time></trkpt><trkpt lat="45.881222521454255" lon="4.826045175132409"><ele>171.0</ele><time>2026-04-28T14:48:23.999Z</time></trkpt><trkpt lat="45.88120497993943" lon="4.826141590945851"><ele>171.0</ele><time>2026-04-28T14:48:24.999Z</time></trkpt><trkpt lat="45.8811794757565" lon="4.826230902486452"><ele>170.99999999999997</ele><time>2026-04-28T14:48:25.999Z</time></trkpt><trkpt lat="45.88115509744126" lon="4.826318935062027"><ele>171.0</ele><time>2026-04-28T14:48:26.999Z</time></trkpt><trkpt lat="45.88113513855281" lon="4.8264163103907"><ele>171.42857142857142</ele><time>2026-04-28T14:48:27.999Z</time></trkpt><trkpt lat="45.881113973871294" lon="4.826502924491596"><ele>171.85714285714286</ele><time>2026-04-28T14:48:28.999Z</time></trkpt><trkpt lat="45.88109307096855" lon="4.826598763529793"><ele>172.28571428571428</ele><time>2026-04-28T14:48:29.999Z</time></trkpt><trkpt lat="45.88106906041172" lon="4.826682991461953"><ele>172.71428571428572</ele><time>2026-04-28T14:48:30.999Z</time></trkpt><trkpt lat="45.88104426016297" lon="4.82677258389879"><ele>173.14285714285714</ele><time>2026-04-28T14:48:31.999Z</time></trkpt><trkpt lat="45.881035025057706" lon="4.826864480856946"><ele>173.57142857142856</ele><time>2026-04-28T14:48:32.999Z</time></trkpt><trkpt lat="45.881014153501205" lon="4.826954625632011"><ele>174.0</ele><time>2026-04-28T14:48:33.999Z</time></trkpt><trkpt lat="45.88097853676218" lon="4.827130072484446"><ele>174.0</ele><time>2026-04-28T14:48:35.999Z</time></trkpt><trkpt lat="45.88094561808787" lon="4.82730403487619"><ele>174.0</ele><time>2026-04-28T14:48:37.999Z</time></trkpt><trkpt lat="45.88090123199236" lon="4.827468144153438"><ele>174.0</ele><time>2026-04-28T14:48:39.999Z</time></trkpt><trkpt lat="45.88087552999527" lon="4.827639105466972"><ele>174.0</ele><time>2026-04-28T14:48:41.999Z</time></trkpt><trkpt lat="45.88086358325222" lon="4.827729880287648"><ele>174.0</ele><time>2026-04-28T14:48:42.999Z</time></trkpt><trkpt lat="45.880847349539934" lon="4.827819035799575"><ele>173.14285714285714</ele><time>2026-04-28T14:48:43.999Z</time></trkpt><trkpt lat="45.88082956407777" lon="4.827911096573997"><ele>172.28571428571428</ele><time>2026-04-28T14:48:44.999Z</time></trkpt><trkpt lat="45.880812276986596" lon="4.828002765495239"><ele>171.42857142857144</ele><time>2026-04-28T14:48:45.999Z</time></trkpt><trkpt lat="45.88080031780437" lon="4.828103964405094"><ele>170.57142857142856</ele><time>2026-04-28T14:48:46.999Z</time></trkpt><trkpt lat="45.88077365435647" lon="4.828193604498982"><ele>169.71428571428572</ele><time>2026-04-28T14:48:47.999Z</time></trkpt><trkpt lat="45.88075671600713" lon="4.828287404437076"><ele>168.85714285714286</ele><time>2026-04-28T14:48:48.999Z</time></trkpt><trkpt lat="45.880741190095804" lon="4.828380772207768"><ele>168.0</ele><time>2026-04-28T14:48:49.999Z</time></trkpt><trkpt lat="45.88072625850311" lon="4.828470565581402"><ele>168.2</ele><time>2026-04-28T14:48:50.999Z</time></trkpt><trkpt lat="45.88071051974176" lon="4.828565212908283"><ele>168.4</ele><time>2026-04-28T14:48:51.999Z</time></trkpt><trkpt lat="45.88068222315594" lon="4.828743460279928"><ele>168.6</ele><time>2026-04-28T14:48:53.999Z</time></trkpt><trkpt lat="45.880676835063" lon="4.828918712163606"><ele>168.79999999999998</ele><time>2026-04-28T14:48:55.999Z</time></trkpt><trkpt lat="45.880666023676284" lon="4.829013632146968"><ele>169.0</ele><time>2026-04-28T14:48:56.999Z</time></trkpt><trkpt lat="45.88064029813936" lon="4.8291692253496485"><ele>169.39999999999998</ele><time>2026-04-28T14:48:58.999Z</time></trkpt><trkpt lat="45.88061747368295" lon="4.8293185575579125"><ele>169.8</ele><time>2026-04-28T14:49:00.999Z</time></trkpt><trkpt lat="45.880611436712904" lon="4.829408772264628"><ele>170.2</ele><time>2026-04-28T14:49:01.999Z</time></trkpt><trkpt lat="45.880568226347506" lon="4.829579580012903"><ele>170.60000000000002</ele><time>2026-04-28T14:49:03.999Z</time></trkpt><trkpt lat="45.880539777668595" lon="4.829762940974128"><ele>171.0</ele><time>2026-04-28T14:49:05.999Z</time></trkpt><trkpt lat="45.880529272016766" lon="4.829853089742924"><ele>171.0</ele><time>2026-04-28T14:49:06.999Z</time></trkpt><trkpt lat="45.880511138821724" lon="4.830014365862181"><ele>171.0</ele><time>2026-04-28T14:49:08.999Z</time></trkpt><trkpt lat="45.880497372396164" lon="4.830104986731558"><ele>171.0</ele><time>2026-04-28T14:49:09.999Z</time></trkpt><trkpt lat="45.88047148739375" lon="4.83027997155145"><ele>171.0</ele><time>2026-04-28T14:49:11.999Z</time></trkpt><trkpt lat="45.880457965507034" lon="4.830450159473467"><ele>171.0</ele><time>2026-04-28T14:49:13.999Z</time></trkpt><trkpt lat="45.88044292255322" lon="4.830607264718223"><ele>171.0</ele><time>2026-04-28T14:49:15.999Z</time></trkpt><trkpt lat="45.88041999269907" lon="4.830751182341493"><ele>171.0</ele><time>2026-04-28T14:49:17.999Z</time></trkpt><trkpt lat="45.88040110320965" lon="4.830902069304017"><ele>171.0</ele><time>2026-04-28T14:49:19.999Z</time></trkpt><trkpt lat="45.88037768427761" lon="4.83105814532746"><ele>171.0</ele><time>2026-04-28T14:49:21.999Z</time></trkpt><trkpt lat="45.880365565896106" lon="4.831228708671756"><ele>171.0</ele><time>2026-04-28T14:49:23.999Z</time></trkpt><trkpt lat="45.88035842493703" lon="4.831401210621584"><ele>170.99999999999997</ele><time>2026-04-28T14:49:25.999Z</time></trkpt><trkpt lat="45.88032875418657" lon="4.831574030640152"><ele>171.0</ele><time>2026-04-28T14:49:27.999Z</time></trkpt><trkpt lat="45.880315222090864" lon="4.831664240115966"><ele>171.0</ele><time>2026-04-28T14:49:28.999Z</time></trkpt><trkpt lat="45.880300298092614" lon="4.831755131765197"><ele>171.0</ele><time>2026-04-28T14:49:29.999Z</time></trkpt><trkpt lat="45.88029150924588" lon="4.831847429060284"><ele>171.0</ele><time>2026-04-28T14:49:30.999Z</time></trkpt><trkpt lat="45.88028436506996" lon="4.831937314572528"><ele>170.99999999999997</ele><time>2026-04-28T14:49:31.999Z</time></trkpt><trkpt lat="45.880274731142364" lon="4.83203394755085"><ele>171.0</ele><time>2026-04-28T14:49:32.999Z</time></trkpt><trkpt lat="45.88026780738744" lon="4.832133627956728"><ele>171.0</ele><time>2026-04-28T14:49:33.999Z</time></trkpt><trkpt lat="45.88025990111874" lon="4.832229545684045"><ele>171.0</ele><time>2026-04-28T14:49:35Z</time></trkpt><trkpt lat="45.88022878719012" lon="4.832409831440788"><ele>171.0</ele><time>2026-04-28T14:49:37Z</time></trkpt><trkpt lat="45.88022608419077" lon="4.832508621451517"><ele>171.0</ele><time>2026-04-28T14:49:38Z</time></trkpt><trkpt lat="45.880202263198925" lon="4.832676948884826"><ele>171.0</ele><time>2026-04-28T14:49:40Z</time></trkpt><trkpt lat="45.88017406059586" lon="4.832843907078884"><ele>171.0</ele><time>2026-04-28T14:49:42Z</time></trkpt><trkpt lat="45.88014931949158" lon="4.833006016309212"><ele>171.0</ele><time>2026-04-28T14:49:44Z</time></trkpt><trkpt lat="45.88012582014935" lon="4.833158642815735"><ele>171.0</ele><time>2026-04-28T14:49:46Z</time></trkpt><trkpt lat="45.880111924038886" lon="4.833309325284311"><ele>171.0</ele><time>2026-04-28T14:49:48Z</time></trkpt><trkpt lat="45.88011109490179" lon="4.833453878585409"><ele>171.0</ele><time>2026-04-28T14:49:50Z</time></trkpt><trkpt lat="45.88009842212483" lon="4.833600367411391"><ele>171.0</ele><time>2026-04-28T14:49:52Z</time></trkpt><trkpt lat="45.88006932656395" lon="4.833746491966211"><ele>171.0</ele><time>2026-04-28T14:49:54Z</time></trkpt><trkpt lat="45.88004431182805" lon="4.833904696958743"><ele>171.0</ele><time>2026-04-28T14:49:56Z</time></trkpt><trkpt lat="45.88001236885358" lon="4.834053808719352"><ele>171.0</ele><time>2026-04-28T14:49:58Z</time></trkpt><trkpt lat="45.87994939335097" lon="4.834288628493733"><ele>171.5</ele><time>2026-04-28T14:50:01Z</time></trkpt><trkpt lat="45.87990838901785" lon="4.834448647736167"><ele>172.0</ele><time>2026-04-28T14:50:03Z</time></trkpt><trkpt lat="45.87988009969203" lon="4.8346146276143545"><ele>172.5</ele><time>2026-04-28T14:50:05Z</time></trkpt><trkpt lat="45.87982763144078" lon="4.834784904432389"><ele>173.0</ele><time>2026-04-28T14:50:07Z</time></trkpt><trkpt lat="45.87979354572663" lon="4.834951790820648"><ele>173.0</ele><time>2026-04-28T14:50:09Z</time></trkpt><trkpt lat="45.87975646246291" lon="4.835109822489707"><ele>173.0</ele><time>2026-04-28T14:50:11Z</time></trkpt><trkpt lat="45.87972777431992" lon="4.835249516820271"><ele>173.0</ele><time>2026-04-28T14:50:13Z</time></trkpt><trkpt lat="45.87969552940397" lon="4.835387764374678"><ele>173.0</ele><time>2026-04-28T14:50:15Z</time></trkpt><trkpt lat="45.8796501345105" lon="4.83551639410225"><ele>173.0</ele><time>2026-04-28T14:50:17Z</time></trkpt><trkpt lat="45.87959922791961" lon="4.83562295785869"><ele>172.66666666666666</ele><time>2026-04-28T14:50:19Z</time></trkpt><trkpt lat="45.879566849713186" lon="4.835754774447675"><ele>172.33333333333331</ele><time>2026-04-28T14:50:21Z</time></trkpt><trkpt lat="45.87952411001889" lon="4.835862083872836"><ele>172.0</ele><time>2026-04-28T14:50:22.999Z</time></trkpt><trkpt lat="45.87948975140481" lon="4.83597640210997"><ele>171.66666666666666</ele><time>2026-04-28T14:50:24.999Z</time></trkpt><trkpt lat="45.87943099231515" lon="4.8360352164217355"><ele>171.33333333333334</ele><time>2026-04-28T14:50:26.999Z</time></trkpt><trkpt lat="45.87935968581447" lon="4.836099143005957"><ele>171.0</ele><time>2026-04-28T14:50:28.999Z</time></trkpt><trkpt lat="45.879310824499434" lon="4.836220289301232"><ele>171.0</ele><time>2026-04-28T14:50:30.999Z</time></trkpt><trkpt lat="45.87924136933387" lon="4.8363195016548906"><ele>171.0</ele><time>2026-04-28T14:50:32.999Z</time></trkpt><trkpt lat="45.87922565737399" lon="4.836465404654502"><ele>171.0</ele><time>2026-04-28T14:50:34.999Z</time></trkpt><trkpt lat="45.87920594350311" lon="4.836592672343718"><ele>171.0</ele><time>2026-04-28T14:50:36.999Z</time></trkpt><trkpt lat="45.879126629563274" lon="4.8366895219824135"><ele>171.0</ele><time>2026-04-28T14:50:38.999Z</time></trkpt><trkpt lat="45.87904460141637" lon="4.836787266851773"><ele>171.4</ele><time>2026-04-28T14:50:40.999Z</time></trkpt><trkpt lat="45.87899091420289" lon="4.836836333866688"><ele>171.8</ele><time>2026-04-28T14:50:41.999Z</time></trkpt><trkpt lat="45.87890487314625" lon="4.836945269099881"><ele>172.20000000000002</ele><time>2026-04-28T14:50:43.999Z</time></trkpt><trkpt lat="45.87881365779029" lon="4.837032496717071"><ele>172.60000000000002</ele><time>2026-04-28T14:50:45.999Z</time></trkpt><trkpt lat="45.87871550275283" lon="4.83710793730969"><ele>173.0</ele><time>2026-04-28T14:50:47.999Z</time></trkpt><trkpt lat="45.878615017922556" lon="4.837206639606491"><ele>173.0</ele><time>2026-04-28T14:50:49.999Z</time></trkpt><trkpt lat="45.87851672970886" lon="4.83729621308779"><ele>173.0</ele><time>2026-04-28T14:50:51.999Z</time></trkpt><trkpt lat="45.87842533524741" lon="4.8373883081679425"><ele>173.0</ele><time>2026-04-28T14:50:53.999Z</time></trkpt><trkpt lat="45.87834036499067" lon="4.8374782372509015"><ele>173.0</ele><time>2026-04-28T14:50:55.999Z</time></trkpt><trkpt lat="45.87825541337214" lon="4.8375939870924345"><ele>173.0</ele><time>2026-04-28T14:50:57.999Z</time></trkpt><trkpt lat="45.87818950503157" lon="4.837736906142924"><ele>173.0</ele><time>2026-04-28T14:50:59.999Z</time></trkpt><trkpt lat="45.87812605558475" lon="4.8378823435393565"><ele>173.0</ele><time>2026-04-28T14:51:01.999Z</time></trkpt><trkpt lat="45.87805273712828" lon="4.838008120831728"><ele>173.0</ele><time>2026-04-28T14:51:03.999Z</time></trkpt><trkpt lat="45.87793502812366" lon="4.838064031324725"><ele>173.0</ele><time>2026-04-28T14:51:05.999Z</time></trkpt><trkpt lat="45.877869849838966" lon="4.83807450711291"><ele>173.0</ele><time>2026-04-28T14:51:06.999Z</time></trkpt><trkpt lat="45.877807262587275" lon="4.838090747720497"><ele>173.0</ele><time>2026-04-28T14:51:07.999Z</time></trkpt><trkpt lat="45.87768820506222" lon="4.838128729495715"><ele>173.0</ele><time>2026-04-28T14:51:09.999Z</time></trkpt><trkpt lat="45.87758093022673" lon="4.838115389116469"><ele>173.0</ele><time>2026-04-28T14:51:11.999Z</time></trkpt><trkpt lat="45.87747081504936" lon="4.838136446303339"><ele>172.5</ele><time>2026-04-28T14:51:13.999Z</time></trkpt><trkpt lat="45.87736808481899" lon="4.838165257147445"><ele>172.0</ele><time>2026-04-28T14:51:15.999Z</time></trkpt><trkpt lat="45.877279853447185" lon="4.838204601682569"><ele>171.5</ele><time>2026-04-28T14:51:17.999Z</time></trkpt><trkpt lat="45.87721397826247" lon="4.838198789441134"><ele>171.0</ele><time>2026-04-28T14:51:19.999Z</time></trkpt><trkpt lat="45.87719988136964" lon="4.838076435103099"><ele>170.5</ele><time>2026-04-28T14:51:22.999Z</time></trkpt><trkpt lat="45.8771570315786" lon="4.837952117078697"><ele>170.0</ele><time>2026-04-28T14:51:25.999Z</time></trkpt><trkpt lat="45.877088836212" lon="4.837882486208263"><ele>170.0</ele><time>2026-04-28T14:51:27.999Z</time></trkpt><trkpt lat="45.87699122072646" lon="4.8379188933450585"><ele>170.0</ele><time>2026-04-28T14:51:29.999Z</time></trkpt><trkpt lat="45.87691051517404" lon="4.837911261432977"><ele>170.0</ele><time>2026-04-28T14:51:31.999Z</time></trkpt><trkpt lat="45.87679864607891" lon="4.837897908322429"><ele>170.0</ele><time>2026-04-28T14:51:33.999Z</time></trkpt><trkpt lat="45.87667916993304" lon="4.837905579310287"><ele>170.0</ele><time>2026-04-28T14:51:35.999Z</time></trkpt><trkpt lat="45.87656002017893" lon="4.837863166262181"><ele>170.0</ele><time>2026-04-28T14:51:37.999Z</time></trkpt><trkpt lat="45.87643936505186" lon="4.8378660544739045"><ele>170.0</ele><time>2026-04-28T14:51:39.999Z</time></trkpt><trkpt lat="45.8763155164049" lon="4.837862202384825"><ele>170.0</ele><time>2026-04-28T14:51:42Z</time></trkpt><trkpt lat="45.87625156366374" lon="4.837853202487399"><ele>170.0</ele><time>2026-04-28T14:51:43Z</time></trkpt><trkpt lat="45.87618640169465" lon="4.837857321575327"><ele>170.0</ele><time>2026-04-28T14:51:44Z</time></trkpt><trkpt lat="45.8761202682865" lon="4.83784629996246"><ele>170.0</ele><time>2026-04-28T14:51:45Z</time></trkpt><trkpt lat="45.87605684073947" lon="4.837836077287764"><ele>170.0</ele><time>2026-04-28T14:51:46Z</time></trkpt><trkpt lat="45.87599090945084" lon="4.837824646072125"><ele>170.0</ele><time>2026-04-28T14:51:47Z</time></trkpt><trkpt lat="45.87592391091816" lon="4.837813630701976"><ele>170.0</ele><time>2026-04-28T14:51:48Z</time></trkpt><trkpt lat="45.87585782843156" lon="4.837805094531818"><ele>170.0</ele><time>2026-04-28T14:51:49Z</time></trkpt><trkpt lat="45.875795052431116" lon="4.837795333399646"><ele>170.0</ele><time>2026-04-28T14:51:50Z</time></trkpt><trkpt lat="45.87567451173852" lon="4.837747020326734"><ele>170.0</ele><time>2026-04-28T14:51:52Z</time></trkpt><trkpt lat="45.875563609557574" lon="4.837749704456096"><ele>170.0</ele><time>2026-04-28T14:51:54Z</time></trkpt><trkpt lat="45.87546630243238" lon="4.83778216182456"><ele>170.0</ele><time>2026-04-28T14:51:56Z</time></trkpt><trkpt lat="45.87535777327113" lon="4.837743250190916"><ele>170.0</ele><time>2026-04-28T14:51:58Z</time></trkpt><trkpt lat="45.87525021542731" lon="4.83772376569673"><ele>170.0</ele><time>2026-04-28T14:52:00Z</time></trkpt><trkpt lat="45.87514336656717" lon="4.837705878831225"><ele>170.0</ele><time>2026-04-28T14:52:02Z</time></trkpt><trkpt lat="45.87502346865918" lon="4.837694526962457"><ele>170.4</ele><time>2026-04-28T14:52:04Z</time></trkpt><trkpt lat="45.87490628563191" lon="4.837679280780582"><ele>170.8</ele><time>2026-04-28T14:52:06Z</time></trkpt><trkpt lat="45.87484319527279" lon="4.837676486748829"><ele>171.2</ele><time>2026-04-28T14:52:07Z</time></trkpt><trkpt lat="45.87471982015446" lon="4.8376738082158"><ele>171.6</ele><time>2026-04-28T14:52:09Z</time></trkpt><trkpt lat="45.87460514790008" lon="4.83762898122789"><ele>172.0</ele><time>2026-04-28T14:52:11Z</time></trkpt><trkpt lat="45.87454033245184" lon="4.837600379981972"><ele>171.39999999999998</ele><time>2026-04-28T14:52:12Z</time></trkpt><trkpt lat="45.87447472484076" lon="4.837583872538006"><ele>170.79999999999998</ele><time>2026-04-28T14:52:13Z</time></trkpt><trkpt lat="45.87441118434421" lon="4.837580528091907"><ele>170.2</ele><time>2026-04-28T14:52:14Z</time></trkpt><trkpt lat="45.87422402466022" lon="4.837554633550464"><ele>169.6</ele><time>2026-04-28T14:52:17Z</time></trkpt><trkpt lat="45.87410266146368" lon="4.837548345987029"><ele>169.0</ele><time>2026-04-28T14:52:19Z</time></trkpt><trkpt lat="45.873979967515965" lon="4.837550368813839"><ele>169.0</ele><time>2026-04-28T14:52:21Z</time></trkpt><trkpt lat="45.87386198367329" lon="4.837532642016844"><ele>169.0</ele><time>2026-04-28T14:52:23Z</time></trkpt><trkpt lat="45.87375628166375" lon="4.837493097016569"><ele>169.0</ele><time>2026-04-28T14:52:25Z</time></trkpt><trkpt lat="45.873635240087516" lon="4.837458015512171"><ele>169.0</ele><time>2026-04-28T14:52:27Z</time></trkpt><trkpt lat="45.873507972866484" lon="4.837441625993462"><ele>169.0</ele><time>2026-04-28T14:52:29Z</time></trkpt><trkpt lat="45.8734440454219" lon="4.837443045614195"><ele>169.0</ele><time>2026-04-28T14:52:30Z</time></trkpt><trkpt lat="45.873377210120445" lon="4.837432546479944"><ele>169.0</ele><time>2026-04-28T14:52:30.999Z</time></trkpt><trkpt lat="45.87331211972585" lon="4.837420620408257"><ele>169.0</ele><time>2026-04-28T14:52:31.999Z</time></trkpt><trkpt lat="45.873244425874404" lon="4.837404295153683"><ele>169.0</ele><time>2026-04-28T14:52:32.999Z</time></trkpt><trkpt lat="45.87318050318665" lon="4.8373903735988915"><ele>169.0</ele><time>2026-04-28T14:52:33.999Z</time></trkpt><trkpt lat="45.87311166026382" lon="4.8373776775032145"><ele>169.0</ele><time>2026-04-28T14:52:34.999Z</time></trkpt><trkpt lat="45.87304359548766" lon="4.837360364743382"><ele>169.0</ele><time>2026-04-28T14:52:35.999Z</time></trkpt><trkpt lat="45.87297088347339" lon="4.837343974982925"><ele>169.0</ele><time>2026-04-28T14:52:36.999Z</time></trkpt><trkpt lat="45.872903883734104" lon="4.837339318135817"><ele>169.0</ele><time>2026-04-28T14:52:37.999Z</time></trkpt><trkpt lat="45.87277412417993" lon="4.837300849089197"><ele>169.0</ele><time>2026-04-28T14:52:39.999Z</time></trkpt><trkpt lat="45.87270041234561" lon="4.837289684147294"><ele>169.0</ele><time>2026-04-28T14:52:40.999Z</time></trkpt><trkpt lat="45.87256907751565" lon="4.837277124970268"><ele>169.0</ele><time>2026-04-28T14:52:42.999Z</time></trkpt><trkpt lat="45.87249917581149" lon="4.8372640222859795"><ele>169.0</ele><time>2026-04-28T14:52:43.999Z</time></trkpt><trkpt lat="45.87243146840029" lon="4.837257369850319"><ele>169.0</ele><time>2026-04-28T14:52:44.999Z</time></trkpt><trkpt lat="45.872362040832044" lon="4.837255942149366"><ele>169.0</ele><time>2026-04-28T14:52:45.999Z</time></trkpt><trkpt lat="45.87229523474205" lon="4.837242368833722"><ele>169.0</ele><time>2026-04-28T14:52:46.999Z</time></trkpt><trkpt lat="45.87221822682845" lon="4.837254688253103"><ele>169.0</ele><time>2026-04-28T14:52:47.999Z</time></trkpt><trkpt lat="45.87215005804619" lon="4.837261382700248"><ele>169.0</ele><time>2026-04-28T14:52:48.999Z</time></trkpt><trkpt lat="45.87208685038121" lon="4.837260786091902"><ele>169.0</ele><time>2026-04-28T14:52:49.999Z</time></trkpt><trkpt lat="45.87201482108521" lon="4.8372533651357035"><ele>169.0</ele><time>2026-04-28T14:52:50.999Z</time></trkpt><trkpt lat="45.87194239618324" lon="4.837251600406646"><ele>169.0</ele><time>2026-04-28T14:52:51.999Z</time></trkpt><trkpt lat="45.87186561320821" lon="4.837246300024363"><ele>169.0</ele><time>2026-04-28T14:52:52.999Z</time></trkpt><trkpt lat="45.87179742461576" lon="4.8372348344253355"><ele>169.0</ele><time>2026-04-28T14:52:53.999Z</time></trkpt><trkpt lat="45.87172759930187" lon="4.837226665692342"><ele>169.0</ele><time>2026-04-28T14:52:54.999Z</time></trkpt><trkpt lat="45.871664509898885" lon="4.837207340920106"><ele>169.0</ele><time>2026-04-28T14:52:55.999Z</time></trkpt><trkpt lat="45.87159303166542" lon="4.837200429721698"><ele>169.28571428571428</ele><time>2026-04-28T14:52:56.999Z</time></trkpt><trkpt lat="45.87152629427021" lon="4.837192925721349"><ele>169.57142857142856</ele><time>2026-04-28T14:52:57.999Z</time></trkpt><trkpt lat="45.871458464425956" lon="4.8371734438334775"><ele>169.85714285714283</ele><time>2026-04-28T14:52:58.999Z</time></trkpt><trkpt lat="45.87139222278975" lon="4.837153722472529"><ele>170.14285714285714</ele><time>2026-04-28T14:52:59.999Z</time></trkpt><trkpt lat="45.87132305577034" lon="4.837140227179241"><ele>170.42857142857142</ele><time>2026-04-28T14:53:00.999Z</time></trkpt><trkpt lat="45.87125772673815" lon="4.8371230031854875"><ele>170.7142857142857</ele><time>2026-04-28T14:53:01.999Z</time></trkpt><trkpt lat="45.87119014523575" lon="4.837105426548285"><ele>171.0</ele><time>2026-04-28T14:53:02.999Z</time></trkpt><trkpt lat="45.87112281282431" lon="4.837087103690902"><ele>171.0</ele><time>2026-04-28T14:53:03.999Z</time></trkpt><trkpt lat="45.87099999363195" lon="4.837054350741055"><ele>171.0</ele><time>2026-04-28T14:53:05.999Z</time></trkpt><trkpt lat="45.87093205483487" lon="4.837038424407958"><ele>171.0</ele><time>2026-04-28T14:53:06.999Z</time></trkpt><trkpt lat="45.87086672368811" lon="4.837032039910479"><ele>171.0</ele><time>2026-04-28T14:53:07.999Z</time></trkpt><trkpt lat="45.87079517219967" lon="4.837036280502869"><ele>171.0</ele><time>2026-04-28T14:53:08.999Z</time></trkpt><trkpt lat="45.87072959247971" lon="4.837040121610285"><ele>171.0</ele><time>2026-04-28T14:53:09.999Z</time></trkpt><trkpt lat="45.87059941154863" lon="4.837021641917722"><ele>171.0</ele><time>2026-04-28T14:53:11.999Z</time></trkpt><trkpt lat="45.87052994837373" lon="4.837017332017207"><ele>171.0</ele><time>2026-04-28T14:53:12.999Z</time></trkpt><trkpt lat="45.8704590571103" lon="4.837023035659387"><ele>171.0</ele><time>2026-04-28T14:53:13.999Z</time></trkpt><trkpt lat="45.87039018973088" lon="4.837018474180657"><ele>171.0</ele><time>2026-04-28T14:53:14.999Z</time></trkpt><trkpt lat="45.870257534208875" lon="4.837015986857786"><ele>171.0</ele><time>2026-04-28T14:53:16.999Z</time></trkpt><trkpt lat="45.8701909247756" lon="4.837015072967743"><ele>171.0</ele><time>2026-04-28T14:53:17.999Z</time></trkpt><trkpt lat="45.8701263861059" lon="4.837007766824959"><ele>170.7142857142857</ele><time>2026-04-28T14:53:18.999Z</time></trkpt><trkpt lat="45.87005812383422" lon="4.837001912251032"><ele>170.42857142857142</ele><time>2026-04-28T14:53:19.999Z</time></trkpt><trkpt lat="45.8699787033099" lon="4.837010001639825"><ele>170.14285714285714</ele><time>2026-04-28T14:53:20.999Z</time></trkpt><trkpt lat="45.86990825808699" lon="4.837007121615554"><ele>169.85714285714283</ele><time>2026-04-28T14:53:21.999Z</time></trkpt><trkpt lat="45.86983982712048" lon="4.837013541828725"><ele>169.57142857142856</ele><time>2026-04-28T14:53:22.999Z</time></trkpt><trkpt lat="45.86977240355904" lon="4.837011069953437"><ele>169.28571428571428</ele><time>2026-04-28T14:53:23.999Z</time></trkpt><trkpt lat="45.86970164052651" lon="4.8370145872355925"><ele>169.0</ele><time>2026-04-28T14:53:24.999Z</time></trkpt><trkpt lat="45.86963132578233" lon="4.837012961058113"><ele>169.0</ele><time>2026-04-28T14:53:25.999Z</time></trkpt><trkpt lat="45.86955865845703" lon="4.837012580260757"><ele>169.0</ele><time>2026-04-28T14:53:26.999Z</time></trkpt><trkpt lat="45.869494569581235" lon="4.837019333489684"><ele>169.0</ele><time>2026-04-28T14:53:27.999Z</time></trkpt><trkpt lat="45.869429066713536" lon="4.837025865181926"><ele>169.0</ele><time>2026-04-28T14:53:28.999Z</time></trkpt><trkpt lat="45.869363404906544" lon="4.837039794098551"><ele>169.0</ele><time>2026-04-28T14:53:29.999Z</time></trkpt><trkpt lat="45.86929868938076" lon="4.837058466724601"><ele>169.0</ele><time>2026-04-28T14:53:30.999Z</time></trkpt><trkpt lat="45.869231172172675" lon="4.837074871691347"><ele>169.0</ele><time>2026-04-28T14:53:31.999Z</time></trkpt><trkpt lat="45.869163260273965" lon="4.83709071354859"><ele>168.83333333333334</ele><time>2026-04-28T14:53:32.999Z</time></trkpt><trkpt lat="45.86909549413279" lon="4.83711053781877"><ele>168.66666666666669</ele><time>2026-04-28T14:53:33.999Z</time></trkpt><trkpt lat="45.869029891191175" lon="4.837119570858422"><ele>168.5</ele><time>2026-04-28T14:53:34.999Z</time></trkpt><trkpt lat="45.86896706110676" lon="4.837136128862959"><ele>168.33333333333334</ele><time>2026-04-28T14:53:35.999Z</time></trkpt><trkpt lat="45.86889745463181" lon="4.837153275232305"><ele>168.16666666666666</ele><time>2026-04-28T14:53:36.999Z</time></trkpt><trkpt lat="45.86882878443944" lon="4.837170902597743"><ele>168.0</ele><time>2026-04-28T14:53:37.999Z</time></trkpt><trkpt lat="45.86870489781348" lon="4.837215240313081"><ele>168.0</ele><time>2026-04-28T14:53:39.999Z</time></trkpt><trkpt lat="45.86864741871418" lon="4.837254540291118"><ele>168.0</ele><time>2026-04-28T14:53:40.999Z</time></trkpt><trkpt lat="45.8685888716232" lon="4.837291001860214"><ele>168.0</ele><time>2026-04-28T14:53:41.999Z</time></trkpt><trkpt lat="45.86853655446927" lon="4.837344535779709"><ele>168.0</ele><time>2026-04-28T14:53:42.999Z</time></trkpt><trkpt lat="45.86847032699613" lon="4.837388300938515"><ele>168.0</ele><time>2026-04-28T14:53:43.999Z</time></trkpt><trkpt lat="45.86840887287047" lon="4.837420597251204"><ele>168.0</ele><time>2026-04-28T14:53:44.999Z</time></trkpt><trkpt lat="45.868348012460714" lon="4.837455343540666"><ele>168.0</ele><time>2026-04-28T14:53:45.999Z</time></trkpt><trkpt lat="45.868285232762986" lon="4.837493004371847"><ele>168.0</ele><time>2026-04-28T14:53:47Z</time></trkpt><trkpt lat="45.8681745301689" lon="4.837572959736906"><ele>168.0</ele><time>2026-04-28T14:53:49Z</time></trkpt><trkpt lat="45.868115495980824" lon="4.837606759054773"><ele>168.0</ele><time>2026-04-28T14:53:50Z</time></trkpt><trkpt lat="45.868048437372146" lon="4.83765141599395"><ele>168.0</ele><time>2026-04-28T14:53:51Z</time></trkpt><trkpt lat="45.86798660958652" lon="4.837697371673054"><ele>168.0</ele><time>2026-04-28T14:53:52Z</time></trkpt><trkpt lat="45.867926180006435" lon="4.837741798485006"><ele>168.0</ele><time>2026-04-28T14:53:53Z</time></trkpt><trkpt lat="45.86781329478365" lon="4.837835028908116"><ele>168.0</ele><time>2026-04-28T14:53:55Z</time></trkpt><trkpt lat="45.867698873879675" lon="4.837893295582633"><ele>168.0</ele><time>2026-04-28T14:53:57Z</time></trkpt><trkpt lat="45.867598897940816" lon="4.83799506164214"><ele>168.0</ele><time>2026-04-28T14:53:59Z</time></trkpt><trkpt lat="45.867499458808744" lon="4.838101491520553"><ele>168.0</ele><time>2026-04-28T14:54:01Z</time></trkpt><trkpt lat="45.867446671772726" lon="4.8381573011130765"><ele>168.0</ele><time>2026-04-28T14:54:02Z</time></trkpt><trkpt lat="45.867337291057034" lon="4.838244678126004"><ele>167.83333333333334</ele><time>2026-04-28T14:54:04Z</time></trkpt><trkpt lat="45.86728216229255" lon="4.838298820494575"><ele>167.66666666666666</ele><time>2026-04-28T14:54:05Z</time></trkpt><trkpt lat="45.867226596937186" lon="4.838343137155692"><ele>167.5</ele><time>2026-04-28T14:54:06Z</time></trkpt><trkpt lat="45.86712510589044" lon="4.838439307573338"><ele>167.33333333333331</ele><time>2026-04-28T14:54:08Z</time></trkpt><trkpt lat="45.867023373902995" lon="4.83854323140129"><ele>167.16666666666666</ele><time>2026-04-28T14:54:10Z</time></trkpt><trkpt lat="45.8669689496414" lon="4.838600135337036"><ele>167.0</ele><time>2026-04-28T14:54:11Z</time></trkpt><trkpt lat="45.86691228023438" lon="4.838642124321241"><ele>167.39999999999998</ele><time>2026-04-28T14:54:12Z</time></trkpt><trkpt lat="45.86682194506518" lon="4.838766539946163"><ele>167.79999999999998</ele><time>2026-04-28T14:54:14Z</time></trkpt><trkpt lat="45.86677399824874" lon="4.838835632227662"><ele>168.2</ele><time>2026-04-28T14:54:15Z</time></trkpt><trkpt lat="45.86672113928632" lon="4.838892404148384"><ele>168.6</ele><time>2026-04-28T14:54:16Z</time></trkpt><trkpt lat="45.86661767539821" lon="4.839007386500777"><ele>169.0</ele><time>2026-04-28T14:54:18Z</time></trkpt><trkpt lat="45.866566934966436" lon="4.839066638442757"><ele>169.0</ele><time>2026-04-28T14:54:19Z</time></trkpt><trkpt lat="45.8665179241069" lon="4.83912830776999"><ele>169.0</ele><time>2026-04-28T14:54:20Z</time></trkpt><trkpt lat="45.866467862034504" lon="4.839190033523246"><ele>169.0</ele><time>2026-04-28T14:54:21Z</time></trkpt><trkpt lat="45.86642258201564" lon="4.839254842398513"><ele>169.0</ele><time>2026-04-28T14:54:22Z</time></trkpt><trkpt lat="45.866345374826835" lon="4.839345179334424"><ele>169.0</ele><time>2026-04-28T14:54:24Z</time></trkpt><trkpt lat="45.866250899862955" lon="4.839415450308969"><ele>169.0</ele><time>2026-04-28T14:54:26Z</time></trkpt><trkpt lat="45.86619147357116" lon="4.839460327505536"><ele>170.0</ele><time>2026-04-28T14:54:27Z</time></trkpt><trkpt lat="45.8661040722228" lon="4.839516447201257"><ele>171.0</ele><time>2026-04-28T14:54:29Z</time></trkpt><trkpt lat="45.86601722306381" lon="4.839576860713662"><ele>172.0</ele><time>2026-04-28T14:54:31Z</time></trkpt><trkpt lat="45.86591589053227" lon="4.839594008839364"><ele>173.0</ele><time>2026-04-28T14:54:33Z</time></trkpt><trkpt lat="45.86580410507485" lon="4.839603088291635"><ele>174.0</ele><time>2026-04-28T14:54:35Z</time></trkpt><trkpt lat="45.86568935198154" lon="4.839634518490575"><ele>174.0</ele><time>2026-04-28T14:54:37Z</time></trkpt><trkpt lat="45.86557430755922" lon="4.839660504933288"><ele>174.0</ele><time>2026-04-28T14:54:39Z</time></trkpt><trkpt lat="45.86545957273582" lon="4.839686797678307"><ele>174.0</ele><time>2026-04-28T14:54:41Z</time></trkpt><trkpt lat="45.86534060464937" lon="4.839723034483786"><ele>174.0</ele><time>2026-04-28T14:54:42.999Z</time></trkpt><trkpt lat="45.86522228767345" lon="4.83975211343436"><ele>173.79999999999998</ele><time>2026-04-28T14:54:44.999Z</time></trkpt><trkpt lat="45.865104598896515" lon="4.839784623056583"><ele>173.6</ele><time>2026-04-28T14:54:46.999Z</time></trkpt><trkpt lat="45.86504202701414" lon="4.839809917529987"><ele>173.4</ele><time>2026-04-28T14:54:47.999Z</time></trkpt><trkpt lat="45.86491836986076" lon="4.83985680357146"><ele>173.2</ele><time>2026-04-28T14:54:49.999Z</time></trkpt><trkpt lat="45.86480188546732" lon="4.839896906999213"><ele>173.0</ele><time>2026-04-28T14:54:51.999Z</time></trkpt><trkpt lat="45.864681169698585" lon="4.839937166074995"><ele>173.0</ele><time>2026-04-28T14:54:53.999Z</time></trkpt><trkpt lat="45.86456646684079" lon="4.839976787051588"><ele>173.0</ele><time>2026-04-28T14:54:55.999Z</time></trkpt><trkpt lat="45.86444908440916" lon="4.840019030287621"><ele>173.0</ele><time>2026-04-28T14:54:57.999Z</time></trkpt><trkpt lat="45.86438826918409" lon="4.840043553241259"><ele>173.0</ele><time>2026-04-28T14:54:58.999Z</time></trkpt><trkpt lat="45.86426385886968" lon="4.840087576874387"><ele>173.0</ele><time>2026-04-28T14:55:00.999Z</time></trkpt><trkpt lat="45.864198876354436" lon="4.840109407330587"><ele>172.83333333333331</ele><time>2026-04-28T14:55:01.999Z</time></trkpt><trkpt lat="45.86413450589701" lon="4.8401262737143"><ele>172.66666666666666</ele><time>2026-04-28T14:55:02.999Z</time></trkpt><trkpt lat="45.86407170945632" lon="4.840144208059897"><ele>172.5</ele><time>2026-04-28T14:55:03.999Z</time></trkpt><trkpt lat="45.86393969783652" lon="4.840184678898333"><ele>172.33333333333334</ele><time>2026-04-28T14:55:05.999Z</time></trkpt><trkpt lat="45.86387603329582" lon="4.840198520424592"><ele>172.16666666666669</ele><time>2026-04-28T14:55:06.999Z</time></trkpt><trkpt lat="45.86380920744646" lon="4.840214984723396"><ele>172.0</ele><time>2026-04-28T14:55:07.999Z</time></trkpt><trkpt lat="45.86374340201938" lon="4.840232932679352"><ele>172.00000000000003</ele><time>2026-04-28T14:55:08.999Z</time></trkpt><trkpt lat="45.863679460802835" lon="4.840247970051481"><ele>172.0</ele><time>2026-04-28T14:55:09.999Z</time></trkpt><trkpt lat="45.86361563207924" lon="4.840263654730229"><ele>172.0</ele><time>2026-04-28T14:55:10.999Z</time></trkpt><trkpt lat="45.86354837444141" lon="4.840279029214572"><ele>172.0</ele><time>2026-04-28T14:55:11.999Z</time></trkpt><trkpt lat="45.86348161847545" lon="4.840293720723471"><ele>172.0</ele><time>2026-04-28T14:55:12.999Z</time></trkpt><trkpt lat="45.863413711286626" lon="4.840307983588522"><ele>172.00000000000003</ele><time>2026-04-28T14:55:13.999Z</time></trkpt><trkpt lat="45.86334817346051" lon="4.840324803151994"><ele>172.0</ele><time>2026-04-28T14:55:14.999Z</time></trkpt><trkpt lat="45.86328107680109" lon="4.840343770002728"><ele>172.0</ele><time>2026-04-28T14:55:15.999Z</time></trkpt><trkpt lat="45.86321485994191" lon="4.840358368825446"><ele>172.0</ele><time>2026-04-28T14:55:16.999Z</time></trkpt><trkpt lat="45.86314994476336" lon="4.840376098795287"><ele>172.0</ele><time>2026-04-28T14:55:17.999Z</time></trkpt><trkpt lat="45.86308620276338" lon="4.840391589322336"><ele>172.0</ele><time>2026-04-28T14:55:18.999Z</time></trkpt><trkpt lat="45.86296084847847" lon="4.840423229862679"><ele>172.0</ele><time>2026-04-28T14:55:20.999Z</time></trkpt><trkpt lat="45.86289693839516" lon="4.840441281466107"><ele>172.0</ele><time>2026-04-28T14:55:21.999Z</time></trkpt><trkpt lat="45.86282833040722" lon="4.840458112687789"><ele>172.00000000000003</ele><time>2026-04-28T14:55:22.999Z</time></trkpt><trkpt lat="45.862757043700064" lon="4.840473633365806"><ele>172.0</ele><time>2026-04-28T14:55:23.999Z</time></trkpt><trkpt lat="45.86268514699845" lon="4.8404927436913265"><ele>172.0</ele><time>2026-04-28T14:55:24.999Z</time></trkpt><trkpt lat="45.86261320151113" lon="4.840513730799738"><ele>172.0</ele><time>2026-04-28T14:55:25.999Z</time></trkpt><trkpt lat="45.86254456013494" lon="4.840526274399342"><ele>172.0</ele><time>2026-04-28T14:55:26.999Z</time></trkpt><trkpt lat="45.86247269011647" lon="4.840539795440688"><ele>172.00000000000003</ele><time>2026-04-28T14:55:27.999Z</time></trkpt><trkpt lat="45.862398455599894" lon="4.840560889156238"><ele>172.0</ele><time>2026-04-28T14:55:28.999Z</time></trkpt><trkpt lat="45.86232570639184" lon="4.840580691323803"><ele>171.85714285714286</ele><time>2026-04-28T14:55:29.999Z</time></trkpt><trkpt lat="45.86225459955462" lon="4.840599751845153"><ele>171.71428571428572</ele><time>2026-04-28T14:55:30.999Z</time></trkpt><trkpt lat="45.86218397062452" lon="4.840618789310138"><ele>171.57142857142856</ele><time>2026-04-28T14:55:31.999Z</time></trkpt><trkpt lat="45.862114762839134" lon="4.84063540862809"><ele>171.42857142857144</ele><time>2026-04-28T14:55:32.999Z</time></trkpt><trkpt lat="45.86204427222409" lon="4.840652931697743"><ele>171.28571428571428</ele><time>2026-04-28T14:55:33.999Z</time></trkpt><trkpt lat="45.86197247588157" lon="4.8406696243008716"><ele>171.14285714285714</ele><time>2026-04-28T14:55:34.999Z</time></trkpt><trkpt lat="45.86190265804239" lon="4.840688149668663"><ele>171.0</ele><time>2026-04-28T14:55:35.999Z</time></trkpt><trkpt lat="45.86183029908741" lon="4.840705103903185"><ele>170.99999999999997</ele><time>2026-04-28T14:55:36.999Z</time></trkpt><trkpt lat="45.86176138455219" lon="4.840726036381949"><ele>171.0</ele><time>2026-04-28T14:55:37.999Z</time></trkpt><trkpt lat="45.861692959105646" lon="4.840746525257098"><ele>171.0</ele><time>2026-04-28T14:55:38.999Z</time></trkpt><trkpt lat="45.86162155014051" lon="4.840761767826721"><ele>171.0</ele><time>2026-04-28T14:55:39.999Z</time></trkpt><trkpt lat="45.86155054909987" lon="4.8407781374294245"><ele>171.0</ele><time>2026-04-28T14:55:40.999Z</time></trkpt><trkpt lat="45.86148076902159" lon="4.840796169219211"><ele>170.99999999999997</ele><time>2026-04-28T14:55:41.999Z</time></trkpt><trkpt lat="45.86141229217444" lon="4.840814184150046"><ele>171.0</ele><time>2026-04-28T14:55:42.999Z</time></trkpt><trkpt lat="45.861342197504655" lon="4.840832669765084"><ele>170.99999999999997</ele><time>2026-04-28T14:55:43.999Z</time></trkpt><trkpt lat="45.86126716266689" lon="4.8408466774828804"><ele>171.0</ele><time>2026-04-28T14:55:44.999Z</time></trkpt><trkpt lat="45.86119526711137" lon="4.840864188074087"><ele>171.0</ele><time>2026-04-28T14:55:45.999Z</time></trkpt><trkpt lat="45.86112651570932" lon="4.84088157138465"><ele>171.0</ele><time>2026-04-28T14:55:46.999Z</time></trkpt><trkpt lat="45.86105868267911" lon="4.840899268770304"><ele>171.0</ele><time>2026-04-28T14:55:47.999Z</time></trkpt><trkpt lat="45.86099068803859" lon="4.840917898125998"><ele>170.99999999999997</ele><time>2026-04-28T14:55:48.999Z</time></trkpt><trkpt lat="45.86092050854582" lon="4.840935936739713"><ele>171.0</ele><time>2026-04-28T14:55:49.999Z</time></trkpt><trkpt lat="45.860854388852616" lon="4.8409509351832245"><ele>171.16666666666666</ele><time>2026-04-28T14:55:50.999Z</time></trkpt><trkpt lat="45.86078863035859" lon="4.840968041254314"><ele>171.33333333333334</ele><time>2026-04-28T14:55:51.999Z</time></trkpt><trkpt lat="45.86072205903554" lon="4.840985518544675"><ele>171.5</ele><time>2026-04-28T14:55:53Z</time></trkpt><trkpt lat="45.86065918446029" lon="4.841002805474385"><ele>171.66666666666669</ele><time>2026-04-28T14:55:54Z</time></trkpt><trkpt lat="45.86059319878867" lon="4.8410172429371965"><ele>171.83333333333334</ele><time>2026-04-28T14:55:55Z</time></trkpt><trkpt lat="45.860528919847084" lon="4.8410330442500555"><ele>172.0</ele><time>2026-04-28T14:55:56Z</time></trkpt><trkpt lat="45.86041025923864" lon="4.841066370815686"><ele>172.0</ele><time>2026-04-28T14:55:58Z</time></trkpt><trkpt lat="45.86029591321483" lon="4.841098654358772"><ele>172.0</ele><time>2026-04-28T14:56:00Z</time></trkpt><trkpt lat="45.860184320558545" lon="4.841125528848504"><ele>172.0</ele><time>2026-04-28T14:56:02Z</time></trkpt><trkpt lat="45.8600774493086" lon="4.841139609770743"><ele>172.0</ele><time>2026-04-28T14:56:04Z</time></trkpt><trkpt lat="45.85995860330895" lon="4.841172262516867"><ele>171.5</ele><time>2026-04-28T14:56:06Z</time></trkpt><trkpt lat="45.859839531975766" lon="4.841203569828374"><ele>171.0</ele><time>2026-04-28T14:56:08Z</time></trkpt><trkpt lat="45.85977418617554" lon="4.841219272867286"><ele>170.5</ele><time>2026-04-28T14:56:09Z</time></trkpt><trkpt lat="45.85970861276297" lon="4.841234170219696"><ele>170.0</ele><time>2026-04-28T14:56:10Z</time></trkpt><trkpt lat="45.85963888080654" lon="4.841250771843662"><ele>169.5</ele><time>2026-04-28T14:56:11Z</time></trkpt><trkpt lat="45.85957301968834" lon="4.841260100454703"><ele>169.0</ele><time>2026-04-28T14:56:12Z</time></trkpt><trkpt lat="45.85950998855618" lon="4.841268845185272"><ele>169.0</ele><time>2026-04-28T14:56:13Z</time></trkpt><trkpt lat="45.85943302484408" lon="4.8412708938627365"><ele>169.0</ele><time>2026-04-28T14:56:14Z</time></trkpt><trkpt lat="45.85936288433458" lon="4.841279586497436"><ele>169.0</ele><time>2026-04-28T14:56:15Z</time></trkpt><trkpt lat="45.859294635428064" lon="4.841282925760879"><ele>169.0</ele><time>2026-04-28T14:56:16Z</time></trkpt><trkpt lat="45.85923132619553" lon="4.841285158852204"><ele>169.0</ele><time>2026-04-28T14:56:17Z</time></trkpt><trkpt lat="45.85915404376302" lon="4.8412771659040565"><ele>169.0</ele><time>2026-04-28T14:56:18Z</time></trkpt><trkpt lat="45.85908013782397" lon="4.841272015524245"><ele>169.0</ele><time>2026-04-28T14:56:19Z</time></trkpt><trkpt lat="45.859010920854494" lon="4.841262068547793"><ele>168.57142857142858</ele><time>2026-04-28T14:56:20Z</time></trkpt><trkpt lat="45.85893903574839" lon="4.841259344570105"><ele>168.14285714285714</ele><time>2026-04-28T14:56:21Z</time></trkpt><trkpt lat="45.85887120561958" lon="4.841242797445841"><ele>167.71428571428572</ele><time>2026-04-28T14:56:22Z</time></trkpt><trkpt lat="45.85879613178572" lon="4.841226525001408"><ele>167.28571428571428</ele><time>2026-04-28T14:56:23Z</time></trkpt><trkpt lat="45.85872420117829" lon="4.8412041329047915"><ele>166.85714285714286</ele><time>2026-04-28T14:56:24Z</time></trkpt><trkpt lat="45.858654361706705" lon="4.841182270445668"><ele>166.42857142857142</ele><time>2026-04-28T14:56:25Z</time></trkpt><trkpt lat="45.85857894699804" lon="4.841155905977503"><ele>166.0</ele><time>2026-04-28T14:56:26Z</time></trkpt><trkpt lat="45.85851396352732" lon="4.841137071666246"><ele>166.0</ele><time>2026-04-28T14:56:27Z</time></trkpt><trkpt lat="45.85844513833632" lon="4.841103354243262"><ele>166.0</ele><time>2026-04-28T14:56:28Z</time></trkpt><trkpt lat="45.85837930907327" lon="4.841071965741386"><ele>166.0</ele><time>2026-04-28T14:56:29Z</time></trkpt><trkpt lat="45.8583167276284" lon="4.841037854780121"><ele>166.0</ele><time>2026-04-28T14:56:30Z</time></trkpt><trkpt lat="45.85824954340369" lon="4.841004008084263"><ele>166.0</ele><time>2026-04-28T14:56:31Z</time></trkpt><trkpt lat="45.8581810677774" lon="4.840977401708377"><ele>166.0</ele><time>2026-04-28T14:56:32Z</time></trkpt><trkpt lat="45.85811582820603" lon="4.840944322131454"><ele>166.0</ele><time>2026-04-28T14:56:33Z</time></trkpt><trkpt lat="45.858051465307874" lon="4.8409154989421745"><ele>166.0</ele><time>2026-04-28T14:56:34Z</time></trkpt><trkpt lat="45.85799056882828" lon="4.84088464627403"><ele>166.0</ele><time>2026-04-28T14:56:35Z</time></trkpt><trkpt lat="45.85792626019358" lon="4.840856984805649"><ele>166.0</ele><time>2026-04-28T14:56:36Z</time></trkpt><trkpt lat="45.857812517709924" lon="4.840797897144571"><ele>166.0</ele><time>2026-04-28T14:56:38Z</time></trkpt><trkpt lat="45.85769869470846" lon="4.840741003680636"><ele>166.0</ele><time>2026-04-28T14:56:40Z</time></trkpt><trkpt lat="45.8575936098159" lon="4.840700371108387"><ele>167.0</ele><time>2026-04-28T14:56:42Z</time></trkpt><trkpt lat="45.85749030731865" lon="4.84066011797963"><ele>168.0</ele><time>2026-04-28T14:56:44Z</time></trkpt><trkpt lat="45.857390240482026" lon="4.8406065615722715"><ele>169.0</ele><time>2026-04-28T14:56:46Z</time></trkpt><trkpt lat="45.85727376262621" lon="4.840562290675689"><ele>170.0</ele><time>2026-04-28T14:56:48Z</time></trkpt><trkpt lat="45.857211520345814" lon="4.840525430198448"><ele>171.0</ele><time>2026-04-28T14:56:48.999Z</time></trkpt><trkpt lat="45.85709425115171" lon="4.840464325616081"><ele>170.99999999999997</ele><time>2026-04-28T14:56:50.999Z</time></trkpt><trkpt lat="45.85703102638849" lon="4.840434910509888"><ele>171.0</ele><time>2026-04-28T14:56:51.999Z</time></trkpt><trkpt lat="45.85696822898552" lon="4.840408734959802"><ele>171.0</ele><time>2026-04-28T14:56:52.999Z</time></trkpt><trkpt lat="45.856899264237555" lon="4.840379635484327"><ele>171.0</ele><time>2026-04-28T14:56:53.999Z</time></trkpt><trkpt lat="45.856835662076435" lon="4.8403497904841135"><ele>171.0</ele><time>2026-04-28T14:56:54.999Z</time></trkpt><trkpt lat="45.85676845912071" lon="4.8403095258532485"><ele>170.99999999999997</ele><time>2026-04-28T14:56:55.999Z</time></trkpt><trkpt lat="45.85670481206742" lon="4.840273990625146"><ele>171.0</ele><time>2026-04-28T14:56:56.999Z</time></trkpt><trkpt lat="45.85663792194986" lon="4.840245447465543"><ele>171.42857142857142</ele><time>2026-04-28T14:56:57.999Z</time></trkpt><trkpt lat="45.85656882532977" lon="4.8402229360434985"><ele>171.85714285714286</ele><time>2026-04-28T14:56:58.999Z</time></trkpt><trkpt lat="45.856497335725294" lon="4.840189419622165"><ele>172.28571428571428</ele><time>2026-04-28T14:56:59.999Z</time></trkpt><trkpt lat="45.85642738891887" lon="4.840155114570578"><ele>172.71428571428572</ele><time>2026-04-28T14:57:00.999Z</time></trkpt><trkpt lat="45.85636049670539" lon="4.84012511806441"><ele>173.14285714285714</ele><time>2026-04-28T14:57:01.999Z</time></trkpt><trkpt lat="45.85628789668414" lon="4.840092252400256"><ele>173.57142857142856</ele><time>2026-04-28T14:57:02.999Z</time></trkpt><trkpt lat="45.85621749126458" lon="4.840053218703441"><ele>174.0</ele><time>2026-04-28T14:57:03.999Z</time></trkpt><trkpt lat="45.856147924416696" lon="4.840015655957111"><ele>174.0</ele><time>2026-04-28T14:57:04.999Z</time></trkpt><trkpt lat="45.85607974163888" lon="4.839976690552492"><ele>174.0</ele><time>2026-04-28T14:57:05.999Z</time></trkpt><trkpt lat="45.85601505116967" lon="4.839942319758597"><ele>174.0</ele><time>2026-04-28T14:57:06.999Z</time></trkpt><trkpt lat="45.85594683485967" lon="4.83990576590577"><ele>174.0</ele><time>2026-04-28T14:57:07.999Z</time></trkpt><trkpt lat="45.85587631052486" lon="4.83986636704803"><ele>174.0</ele><time>2026-04-28T14:57:08.999Z</time></trkpt><trkpt lat="45.85580792294728" lon="4.839827580241128"><ele>174.0</ele><time>2026-04-28T14:57:09.999Z</time></trkpt><trkpt lat="45.85573964921159" lon="4.839787120663909"><ele>174.0</ele><time>2026-04-28T14:57:10.999Z</time></trkpt><trkpt lat="45.85567032620572" lon="4.839753942776749"><ele>173.42857142857142</ele><time>2026-04-28T14:57:11.999Z</time></trkpt><trkpt lat="45.855603266444334" lon="4.839711384591419"><ele>172.85714285714286</ele><time>2026-04-28T14:57:12.999Z</time></trkpt><trkpt lat="45.85553186368155" lon="4.839673258332891"><ele>172.28571428571428</ele><time>2026-04-28T14:57:13.999Z</time></trkpt><trkpt lat="45.855463466723236" lon="4.839645623657842"><ele>171.71428571428572</ele><time>2026-04-28T14:57:14.999Z</time></trkpt><trkpt lat="45.855391950948274" lon="4.839609134362414"><ele>171.14285714285714</ele><time>2026-04-28T14:57:15.999Z</time></trkpt><trkpt lat="45.855320408534226" lon="4.839569970710989"><ele>170.57142857142858</ele><time>2026-04-28T14:57:16.999Z</time></trkpt><trkpt lat="45.85525239155086" lon="4.839532489850781"><ele>170.0</ele><time>2026-04-28T14:57:17.999Z</time></trkpt><trkpt lat="45.85518622486515" lon="4.83950353474002"><ele>170.0</ele><time>2026-04-28T14:57:18.999Z</time></trkpt><trkpt lat="45.85511639249253" lon="4.8394704092571414"><ele>170.0</ele><time>2026-04-28T14:57:19.999Z</time></trkpt><trkpt lat="45.85504730571499" lon="4.8394474161727565"><ele>170.0</ele><time>2026-04-28T14:57:20.999Z</time></trkpt><trkpt lat="45.854974281297785" lon="4.83940732450759"><ele>170.0</ele><time>2026-04-28T14:57:21.999Z</time></trkpt><trkpt lat="45.85490399369425" lon="4.839363613315464"><ele>170.0</ele><time>2026-04-28T14:57:22.999Z</time></trkpt><trkpt lat="45.85483202957632" lon="4.8393286897776"><ele>170.0</ele><time>2026-04-28T14:57:23.999Z</time></trkpt><trkpt lat="45.8547659582521" lon="4.839296731301537"><ele>170.0</ele><time>2026-04-28T14:57:24.999Z</time></trkpt><trkpt lat="45.8546986790779" lon="4.839274497132533"><ele>170.0</ele><time>2026-04-28T14:57:25.999Z</time></trkpt><trkpt lat="45.854630398467116" lon="4.839225077271738"><ele>170.0</ele><time>2026-04-28T14:57:26.999Z</time></trkpt><trkpt lat="45.85456794713828" lon="4.839179597920764"><ele>170.0</ele><time>2026-04-28T14:57:27.999Z</time></trkpt><trkpt lat="45.854500913945856" lon="4.839148600167351"><ele>170.0</ele><time>2026-04-28T14:57:28.999Z</time></trkpt><trkpt lat="45.85443202781195" lon="4.8391142808126855"><ele>170.0</ele><time>2026-04-28T14:57:29.999Z</time></trkpt><trkpt lat="45.85436872382407" lon="4.839080253096864"><ele>170.0</ele><time>2026-04-28T14:57:30.999Z</time></trkpt><trkpt lat="45.85430120715388" lon="4.839059102026268"><ele>170.0</ele><time>2026-04-28T14:57:31.999Z</time></trkpt><trkpt lat="45.854230661365094" lon="4.8390384549052"><ele>170.57142857142858</ele><time>2026-04-28T14:57:32.999Z</time></trkpt><trkpt lat="45.854161086532734" lon="4.83901330424572"><ele>171.14285714285714</ele><time>2026-04-28T14:57:33.999Z</time></trkpt><trkpt lat="45.85409264152872" lon="4.838982895362664"><ele>171.71428571428572</ele><time>2026-04-28T14:57:34.999Z</time></trkpt><trkpt lat="45.85403064734898" lon="4.8389537818101305"><ele>172.28571428571428</ele><time>2026-04-28T14:57:35.999Z</time></trkpt><trkpt lat="45.85396564069581" lon="4.838917088051103"><ele>172.85714285714286</ele><time>2026-04-28T14:57:36.999Z</time></trkpt><trkpt lat="45.85390565657718" lon="4.838876585501242"><ele>173.42857142857142</ele><time>2026-04-28T14:57:37.999Z</time></trkpt><trkpt lat="45.85383859578544" lon="4.83884822843836"><ele>174.0</ele><time>2026-04-28T14:57:38.999Z</time></trkpt><trkpt lat="45.85377222603001" lon="4.838812445253466"><ele>174.0</ele><time>2026-04-28T14:57:39.999Z</time></trkpt><trkpt lat="45.853706284952835" lon="4.838784221960993"><ele>174.0</ele><time>2026-04-28T14:57:40.999Z</time></trkpt><trkpt lat="45.85363937958048" lon="4.838759114468216"><ele>174.0</ele><time>2026-04-28T14:57:41.999Z</time></trkpt><trkpt lat="45.853570830160415" lon="4.838721484489994"><ele>174.0</ele><time>2026-04-28T14:57:42.999Z</time></trkpt><trkpt lat="45.853500546902154" lon="4.838694349563166"><ele>174.0</ele><time>2026-04-28T14:57:43.999Z</time></trkpt><trkpt lat="45.85343087980831" lon="4.83866969703441"><ele>174.0</ele><time>2026-04-28T14:57:44.999Z</time></trkpt><trkpt lat="45.85336376091865" lon="4.838639457871067"><ele>174.0</ele><time>2026-04-28T14:57:45.999Z</time></trkpt><trkpt lat="45.853295694207084" lon="4.838604275229036"><ele>173.42857142857142</ele><time>2026-04-28T14:57:46.999Z</time></trkpt><trkpt lat="45.85322899236312" lon="4.8385735518381745"><ele>172.85714285714286</ele><time>2026-04-28T14:57:47.999Z</time></trkpt><trkpt lat="45.853162587641656" lon="4.838533791834548"><ele>172.28571428571428</ele><time>2026-04-28T14:57:48.999Z</time></trkpt><trkpt lat="45.853100602406734" lon="4.838506826206657"><ele>171.71428571428572</ele><time>2026-04-28T14:57:49.999Z</time></trkpt><trkpt lat="45.85302547620334" lon="4.8384729206772645"><ele>171.14285714285714</ele><time>2026-04-28T14:57:50.999Z</time></trkpt><trkpt lat="45.85295804862117" lon="4.838436949710121"><ele>170.57142857142858</ele><time>2026-04-28T14:57:51.999Z</time></trkpt><trkpt lat="45.852892971444085" lon="4.83841493926907"><ele>170.0</ele><time>2026-04-28T14:57:52.999Z</time></trkpt><trkpt lat="45.852832078559594" lon="4.838386855803679"><ele>170.0</ele><time>2026-04-28T14:57:53.999Z</time></trkpt><trkpt lat="45.85276792701381" lon="4.838362359077395"><ele>170.0</ele><time>2026-04-28T14:57:54.999Z</time></trkpt><trkpt lat="45.85264673566238" lon="4.838329206583207"><ele>170.0</ele><time>2026-04-28T14:57:56.999Z</time></trkpt><trkpt lat="45.85257642934707" lon="4.8383276604384475"><ele>170.0</ele><time>2026-04-28T14:57:57.999Z</time></trkpt><trkpt lat="45.852504072286166" lon="4.838308389654509"><ele>170.0</ele><time>2026-04-28T14:57:59Z</time></trkpt><trkpt lat="45.85244133405043" lon="4.8382930437544704"><ele>170.0</ele><time>2026-04-28T14:58:00Z</time></trkpt><trkpt lat="45.85237301613616" lon="4.838274422534227"><ele>170.0</ele><time>2026-04-28T14:58:01Z</time></trkpt><trkpt lat="45.852302433846845" lon="4.838252696663289"><ele>170.0</ele><time>2026-04-28T14:58:02Z</time></trkpt><trkpt lat="45.85223533431243" lon="4.8382412476947945"><ele>170.0</ele><time>2026-04-28T14:58:03Z</time></trkpt><trkpt lat="45.85217268047652" lon="4.838214859153666"><ele>170.0</ele><time>2026-04-28T14:58:04Z</time></trkpt><trkpt lat="45.85211009586979" lon="4.838190563633786"><ele>170.0</ele><time>2026-04-28T14:58:05Z</time></trkpt><trkpt lat="45.85204165987966" lon="4.838177191710741"><ele>170.0</ele><time>2026-04-28T14:58:06Z</time></trkpt><trkpt lat="45.851922174657965" lon="4.838147638284758"><ele>170.0</ele><time>2026-04-28T14:58:08Z</time></trkpt><trkpt lat="45.85179815271878" lon="4.838125083451746"><ele>170.0</ele><time>2026-04-28T14:58:10Z</time></trkpt><trkpt lat="45.85173454648155" lon="4.838101384669428"><ele>170.0</ele><time>2026-04-28T14:58:11Z</time></trkpt><trkpt lat="45.8516128901386" lon="4.83805852797945"><ele>170.0</ele><time>2026-04-28T14:58:13Z</time></trkpt><trkpt lat="45.85150136330833" lon="4.838015475656413"><ele>170.0</ele><time>2026-04-28T14:58:15Z</time></trkpt><trkpt lat="45.85143875174725" lon="4.837994157293738"><ele>169.71428571428572</ele><time>2026-04-28T14:58:16Z</time></trkpt><trkpt lat="45.851371143175854" lon="4.83797608693004"><ele>169.42857142857142</ele><time>2026-04-28T14:58:17Z</time></trkpt><trkpt lat="45.8513065537139" lon="4.837961547551711"><ele>169.14285714285714</ele><time>2026-04-28T14:58:18Z</time></trkpt><trkpt lat="45.8512445600337" lon="4.837940440508105"><ele>168.85714285714286</ele><time>2026-04-28T14:58:19Z</time></trkpt><trkpt lat="45.85118238035225" lon="4.837917418076694"><ele>168.57142857142856</ele><time>2026-04-28T14:58:20Z</time></trkpt><trkpt lat="45.85111551252794" lon="4.837907452374719"><ele>168.28571428571428</ele><time>2026-04-28T14:58:21Z</time></trkpt><trkpt lat="45.851051192710166" lon="4.837876851087078"><ele>168.0</ele><time>2026-04-28T14:58:22Z</time></trkpt><trkpt lat="45.850984745828924" lon="4.8378587746770565"><ele>168.14285714285714</ele><time>2026-04-28T14:58:23Z</time></trkpt><trkpt lat="45.850920954914706" lon="4.8378471304642"><ele>168.28571428571428</ele><time>2026-04-28T14:58:24Z</time></trkpt><trkpt lat="45.85085152710711" lon="4.837820057130196"><ele>168.42857142857144</ele><time>2026-04-28T14:58:25Z</time></trkpt><trkpt lat="45.85078590761688" lon="4.8378011222753905"><ele>168.57142857142856</ele><time>2026-04-28T14:58:26Z</time></trkpt><trkpt lat="45.85071972464635" lon="4.837785644454061"><ele>168.71428571428572</ele><time>2026-04-28T14:58:27Z</time></trkpt><trkpt lat="45.85065358375633" lon="4.837764067181602"><ele>168.85714285714286</ele><time>2026-04-28T14:58:28Z</time></trkpt><trkpt lat="45.85058909142431" lon="4.837747201895315"><ele>169.0</ele><time>2026-04-28T14:58:29Z</time></trkpt><trkpt lat="45.85047315041988" lon="4.8377056112320815"><ele>169.0</ele><time>2026-04-28T14:58:31Z</time></trkpt><trkpt lat="45.850357424862345" lon="4.837664275740658"><ele>169.0</ele><time>2026-04-28T14:58:33Z</time></trkpt><trkpt lat="45.85025390399304" lon="4.837626096778149"><ele>169.0</ele><time>2026-04-28T14:58:35Z</time></trkpt><trkpt lat="45.85014626550713" lon="4.8375878698440715"><ele>169.0</ele><time>2026-04-28T14:58:37Z</time></trkpt><trkpt lat="45.850040240989145" lon="4.837530439957319"><ele>168.25</ele><time>2026-04-28T14:58:39Z</time></trkpt><trkpt lat="45.849932367302635" lon="4.837470038148948"><ele>167.5</ele><time>2026-04-28T14:58:41Z</time></trkpt><trkpt lat="45.84983843238192" lon="4.83739321258903"><ele>166.75</ele><time>2026-04-28T14:58:43Z</time></trkpt><trkpt lat="45.84976253562384" lon="4.837265583133806"><ele>166.0</ele><time>2026-04-28T14:58:45Z</time></trkpt><trkpt lat="45.84964326892994" lon="4.837239721909561"><ele>166.0</ele><time>2026-04-28T14:58:47Z</time></trkpt><trkpt lat="45.84958266556092" lon="4.837266162549706"><ele>166.0</ele><time>2026-04-28T14:58:48Z</time></trkpt><trkpt lat="45.84947268426854" lon="4.837294851965763"><ele>166.0</ele><time>2026-04-28T14:58:50Z</time></trkpt><trkpt lat="45.849362386518216" lon="4.83723962434836"><ele>166.0</ele><time>2026-04-28T14:58:52Z</time></trkpt><trkpt lat="45.849246627506986" lon="4.837175482348304"><ele>166.0</ele><time>2026-04-28T14:58:53.999Z</time></trkpt><trkpt lat="45.849126385514204" lon="4.837119647183358"><ele>166.83333333333334</ele><time>2026-04-28T14:58:55.999Z</time></trkpt><trkpt lat="45.84906674006944" lon="4.837090473665131"><ele>167.66666666666669</ele><time>2026-04-28T14:58:56.999Z</time></trkpt><trkpt lat="45.849006035414476" lon="4.837061674224908"><ele>168.5</ele><time>2026-04-28T14:58:57.999Z</time></trkpt><trkpt lat="45.84888765919534" lon="4.837001957739384"><ele>169.33333333333334</ele><time>2026-04-28T14:58:59.999Z</time></trkpt><trkpt lat="45.848827392219604" lon="4.836973993757401"><ele>170.16666666666666</ele><time>2026-04-28T14:59:00.999Z</time></trkpt><trkpt lat="45.848713667038695" lon="4.836905330752535"><ele>171.0</ele><time>2026-04-28T14:59:02.999Z</time></trkpt><trkpt lat="45.84865455197433" lon="4.836870565064544"><ele>171.0</ele><time>2026-04-28T14:59:03.999Z</time></trkpt><trkpt lat="45.84854346624865" lon="4.836805003248456"><ele>171.0</ele><time>2026-04-28T14:59:05.999Z</time></trkpt><trkpt lat="45.84848354442451" lon="4.836769407483821"><ele>171.0</ele><time>2026-04-28T14:59:06.999Z</time></trkpt><trkpt lat="45.8484264144675" lon="4.836730513847595"><ele>171.0</ele><time>2026-04-28T14:59:07.999Z</time></trkpt><trkpt lat="45.848311026192654" lon="4.836670362077336"><ele>171.0</ele><time>2026-04-28T14:59:09.999Z</time></trkpt><trkpt lat="45.848250866451444" lon="4.836641907163422"><ele>171.0</ele><time>2026-04-28T14:59:10.999Z</time></trkpt><trkpt lat="45.848136625893574" lon="4.836578472803797"><ele>170.8</ele><time>2026-04-28T14:59:12.999Z</time></trkpt><trkpt lat="45.84802405739074" lon="4.836509450977241"><ele>170.60000000000002</ele><time>2026-04-28T14:59:14.999Z</time></trkpt><trkpt lat="45.847911063072324" lon="4.8364519650462325"><ele>170.4</ele><time>2026-04-28T14:59:16.999Z</time></trkpt><trkpt lat="45.84779489751438" lon="4.83639264947686"><ele>170.2</ele><time>2026-04-28T14:59:18.999Z</time></trkpt><trkpt lat="45.84773603472187" lon="4.836357251377479"><ele>170.0</ele><time>2026-04-28T14:59:19.999Z</time></trkpt><trkpt lat="45.84767422030399" lon="4.836328605544325"><ele>170.2857142857143</ele><time>2026-04-28T14:59:20.999Z</time></trkpt><trkpt lat="45.84761478896611" lon="4.836294068279335"><ele>170.57142857142856</ele><time>2026-04-28T14:59:21.999Z</time></trkpt><trkpt lat="45.84755486042575" lon="4.836266152129333"><ele>170.85714285714286</ele><time>2026-04-28T14:59:22.999Z</time></trkpt><trkpt lat="45.8474889448987" lon="4.836236910439771"><ele>171.14285714285717</ele><time>2026-04-28T14:59:23.999Z</time></trkpt><trkpt lat="45.847426986603715" lon="4.836207273764004"><ele>171.42857142857144</ele><time>2026-04-28T14:59:24.999Z</time></trkpt><trkpt lat="45.84736722662033" lon="4.836178001056682"><ele>171.71428571428572</ele><time>2026-04-28T14:59:25.999Z</time></trkpt><trkpt lat="45.847305816985234" lon="4.836148815383606"><ele>172.0</ele><time>2026-04-28T14:59:26.999Z</time></trkpt><trkpt lat="45.84724455244261" lon="4.836119204883963"><ele>172.0</ele><time>2026-04-28T14:59:27.999Z</time></trkpt><trkpt lat="45.847182971413986" lon="4.8360888062826275"><ele>172.0</ele><time>2026-04-28T14:59:28.999Z</time></trkpt><trkpt lat="45.84711907710829" lon="4.836056427832682"><ele>172.0</ele><time>2026-04-28T14:59:29.999Z</time></trkpt><trkpt lat="45.84699857963437" lon="4.835992169838751"><ele>172.0</ele><time>2026-04-28T14:59:31.999Z</time></trkpt><trkpt lat="45.846876394517466" lon="4.835928987679626"><ele>172.0</ele><time>2026-04-28T14:59:33.999Z</time></trkpt><trkpt lat="45.846757314640655" lon="4.8358650928847124"><ele>171.5</ele><time>2026-04-28T14:59:35.999Z</time></trkpt><trkpt lat="45.846639672921754" lon="4.835796927655649"><ele>171.0</ele><time>2026-04-28T14:59:37.999Z</time></trkpt><trkpt lat="45.846577073544715" lon="4.835764598735872"><ele>170.5</ele><time>2026-04-28T14:59:38.999Z</time></trkpt><trkpt lat="45.846513456543605" lon="4.835735501196103"><ele>170.0</ele><time>2026-04-28T14:59:39.999Z</time></trkpt><trkpt lat="45.84645168186623" lon="4.835707421862642"><ele>169.5</ele><time>2026-04-28T14:59:40.999Z</time></trkpt><trkpt lat="45.84639054974747" lon="4.835676395775993"><ele>169.0</ele><time>2026-04-28T14:59:41.999Z</time></trkpt><trkpt lat="45.846328022463815" lon="4.835641699109587"><ele>169.0</ele><time>2026-04-28T14:59:42.999Z</time></trkpt><trkpt lat="45.84626482391923" lon="4.835614299942818"><ele>169.0</ele><time>2026-04-28T14:59:43.999Z</time></trkpt><trkpt lat="45.846204353617246" lon="4.835586905518496"><ele>169.0</ele><time>2026-04-28T14:59:44.999Z</time></trkpt><trkpt lat="45.846086166261685" lon="4.835528586971505"><ele>169.0</ele><time>2026-04-28T14:59:46.999Z</time></trkpt><trkpt lat="45.84597581246183" lon="4.835477800988787"><ele>169.0</ele><time>2026-04-28T14:59:48.999Z</time></trkpt><trkpt lat="45.84586602002957" lon="4.835422041227367"><ele>169.79999999999998</ele><time>2026-04-28T14:59:50.999Z</time></trkpt><trkpt lat="45.84580508492611" lon="4.835396124703223"><ele>170.6</ele><time>2026-04-28T14:59:51.999Z</time></trkpt><trkpt lat="45.84569493605199" lon="4.835346682512748"><ele>171.4</ele><time>2026-04-28T14:59:53.999Z</time></trkpt><trkpt lat="45.84558650495158" lon="4.8352746870515"><ele>172.2</ele><time>2026-04-28T14:59:55.999Z</time></trkpt><trkpt lat="45.8454796684788" lon="4.835197128089055"><ele>173.0</ele><time>2026-04-28T14:59:57.999Z</time></trkpt><trkpt lat="45.84538354786463" lon="4.835137735569958"><ele>172.83333333333331</ele><time>2026-04-28T14:59:59.999Z</time></trkpt><trkpt lat="45.845283705674916" lon="4.835081310736682"><ele>172.66666666666666</ele><time>2026-04-28T15:00:01.999Z</time></trkpt><trkpt lat="45.84518921635242" lon="4.835037476765605"><ele>172.5</ele><time>2026-04-28T15:00:03.999Z</time></trkpt><trkpt lat="45.84510314942895" lon="4.835004579039754"><ele>172.33333333333334</ele><time>2026-04-28T15:00:06Z</time></trkpt><trkpt lat="45.845026240689116" lon="4.834987133187838"><ele>172.16666666666669</ele><time>2026-04-28T15:00:08Z</time></trkpt><trkpt lat="45.84496138112793" lon="4.834986614980085"><ele>172.0</ele><time>2026-04-28T15:00:10Z</time></trkpt><trkpt lat="45.84489879202507" lon="4.834999044390487"><ele>172.0</ele><time>2026-04-28T15:00:12Z</time></trkpt><trkpt lat="45.84483561046046" lon="4.834982771169465"><ele>172.0</ele><time>2026-04-28T15:00:14Z</time></trkpt><trkpt lat="45.844766934592656" lon="4.834967886021518"><ele>172.0</ele><time>2026-04-28T15:00:16Z</time></trkpt><trkpt lat="45.844697031202024" lon="4.83491150112914"><ele>172.0</ele><time>2026-04-28T15:00:18Z</time></trkpt><trkpt lat="45.84464028430177" lon="4.834776486284828"><ele>172.0</ele><time>2026-04-28T15:00:20Z</time></trkpt><trkpt lat="45.84455066949257" lon="4.834669254014004"><ele>172.0</ele><time>2026-04-28T15:00:22Z</time></trkpt><trkpt lat="45.84444341702285" lon="4.834568866612019"><ele>172.0</ele><time>2026-04-28T15:00:24Z</time></trkpt><trkpt lat="45.84438227023643" lon="4.834516522561239"><ele>172.0</ele><time>2026-04-28T15:00:25Z</time></trkpt><trkpt lat="45.84431471131631" lon="4.834464104032168"><ele>172.0</ele><time>2026-04-28T15:00:26Z</time></trkpt><trkpt lat="45.844245092719994" lon="4.834415768268021"><ele>172.0</ele><time>2026-04-28T15:00:27Z</time></trkpt><trkpt lat="45.844171447870934" lon="4.834360524790746"><ele>172.0</ele><time>2026-04-28T15:00:28Z</time></trkpt><trkpt lat="45.84409303859537" lon="4.834308041288161"><ele>172.0</ele><time>2026-04-28T15:00:29Z</time></trkpt><trkpt lat="45.84401337354322" lon="4.834257585912625"><ele>171.16666666666669</ele><time>2026-04-28T15:00:30Z</time></trkpt><trkpt lat="45.84393433083478" lon="4.8342149374352985"><ele>170.33333333333334</ele><time>2026-04-28T15:00:31Z</time></trkpt><trkpt lat="45.843853116524606" lon="4.834188157519267"><ele>169.5</ele><time>2026-04-28T15:00:32Z</time></trkpt><trkpt lat="45.84377448061119" lon="4.834167662432446"><ele>168.66666666666666</ele><time>2026-04-28T15:00:33Z</time></trkpt><trkpt lat="45.843699989035315" lon="4.834138285611603"><ele>167.83333333333331</ele><time>2026-04-28T15:00:34Z</time></trkpt><trkpt lat="45.843618567747775" lon="4.8341138793973935"><ele>167.0</ele><time>2026-04-28T15:00:35Z</time></trkpt><trkpt lat="45.84353837767056" lon="4.834086459120498"><ele>167.5</ele><time>2026-04-28T15:00:36Z</time></trkpt><trkpt lat="45.843459994161506" lon="4.834057506806909"><ele>168.0</ele><time>2026-04-28T15:00:37Z</time></trkpt><trkpt lat="45.84338026621376" lon="4.834027507954611"><ele>168.5</ele><time>2026-04-28T15:00:38Z</time></trkpt><trkpt lat="45.84330117518455" lon="4.834003566666289"><ele>169.0</ele><time>2026-04-28T15:00:39Z</time></trkpt><trkpt lat="45.84322397370236" lon="4.833985506446904"><ele>169.5</ele><time>2026-04-28T15:00:40Z</time></trkpt><trkpt lat="45.843148517683716" lon="4.833954641931064"><ele>170.0</ele><time>2026-04-28T15:00:41Z</time></trkpt><trkpt lat="45.84307376937597" lon="4.833923246949114"><ele>170.0</ele><time>2026-04-28T15:00:42Z</time></trkpt><trkpt lat="45.842999988927254" lon="4.833897548445022"><ele>170.0</ele><time>2026-04-28T15:00:43Z</time></trkpt><trkpt lat="45.84291996776631" lon="4.833869693034238"><ele>170.0</ele><time>2026-04-28T15:00:44Z</time></trkpt><trkpt lat="45.84284447447185" lon="4.833841776518085"><ele>170.0</ele><time>2026-04-28T15:00:45Z</time></trkpt><trkpt lat="45.84277235018272" lon="4.833814569000788"><ele>170.0</ele><time>2026-04-28T15:00:46Z</time></trkpt><trkpt lat="45.842697563170205" lon="4.833790183291337"><ele>170.0</ele><time>2026-04-28T15:00:47Z</time></trkpt><trkpt lat="45.842623875827194" lon="4.833763426563108"><ele>170.16666666666666</ele><time>2026-04-28T15:00:48Z</time></trkpt><trkpt lat="45.842550156834534" lon="4.833736332209852"><ele>170.33333333333331</ele><time>2026-04-28T15:00:49Z</time></trkpt><trkpt lat="45.84247516160934" lon="4.833709938931607"><ele>170.5</ele><time>2026-04-28T15:00:50Z</time></trkpt><trkpt lat="45.84240161625788" lon="4.8336809703751795"><ele>170.66666666666666</ele><time>2026-04-28T15:00:51Z</time></trkpt><trkpt lat="45.842328869043854" lon="4.8336579463676435"><ele>170.83333333333334</ele><time>2026-04-28T15:00:52Z</time></trkpt><trkpt lat="45.842257158097006" lon="4.833631182198779"><ele>171.0</ele><time>2026-04-28T15:00:53Z</time></trkpt><trkpt lat="45.84218251285994" lon="4.83360625374577"><ele>171.0</ele><time>2026-04-28T15:00:54Z</time></trkpt><trkpt lat="45.84210655477708" lon="4.8335757518594145"><ele>171.0</ele><time>2026-04-28T15:00:55Z</time></trkpt><trkpt lat="45.842032304690754" lon="4.833549377011262"><ele>171.0</ele><time>2026-04-28T15:00:56Z</time></trkpt><trkpt lat="45.841958945477536" lon="4.833523913202545"><ele>171.0</ele><time>2026-04-28T15:00:57Z</time></trkpt><trkpt lat="45.841885526497464" lon="4.833497196501448"><ele>171.0</ele><time>2026-04-28T15:00:58Z</time></trkpt><trkpt lat="45.84181018142291" lon="4.833471438159667"><ele>171.0</ele><time>2026-04-28T15:00:58.999Z</time></trkpt><trkpt lat="45.841736872302675" lon="4.833445898755224"><ele>170.57142857142856</ele><time>2026-04-28T15:00:59.999Z</time></trkpt><trkpt lat="45.841663425972655" lon="4.833417349354867"><ele>170.14285714285714</ele><time>2026-04-28T15:01:00.999Z</time></trkpt><trkpt lat="45.8415913168035" lon="4.833393444498079"><ele>169.71428571428572</ele><time>2026-04-28T15:01:01.999Z</time></trkpt><trkpt lat="45.8415226150156" lon="4.833370521742572"><ele>169.28571428571428</ele><time>2026-04-28T15:01:02.999Z</time></trkpt><trkpt lat="45.84145313308407" lon="4.83335492078926"><ele>168.85714285714286</ele><time>2026-04-28T15:01:03.999Z</time></trkpt><trkpt lat="45.84138612933648" lon="4.833332244186405"><ele>168.42857142857142</ele><time>2026-04-28T15:01:04.999Z</time></trkpt><trkpt lat="45.841322207306426" lon="4.833311454455834"><ele>168.0</ele><time>2026-04-28T15:01:05.999Z</time></trkpt><trkpt lat="45.8412056905678" lon="4.833264205701559"><ele>168.0</ele><time>2026-04-28T15:01:07.999Z</time></trkpt><trkpt lat="45.84108388206057" lon="4.833216252092491"><ele>168.0</ele><time>2026-04-28T15:01:09.999Z</time></trkpt><trkpt lat="45.84097006282268" lon="4.833175653943014"><ele>168.0</ele><time>2026-04-28T15:01:11.999Z</time></trkpt><trkpt lat="45.84089963732798" lon="4.833164866690048"><ele>168.0</ele><time>2026-04-28T15:01:12.999Z</time></trkpt><trkpt lat="45.84083161211025" lon="4.83315497786688"><ele>168.0</ele><time>2026-04-28T15:01:13.999Z</time></trkpt><trkpt lat="45.84076737475154" lon="4.833142258394832"><ele>168.0</ele><time>2026-04-28T15:01:14.999Z</time></trkpt><trkpt lat="45.84069898170659" lon="4.833131452410717"><ele>168.16666666666666</ele><time>2026-04-28T15:01:15.999Z</time></trkpt><trkpt lat="45.84063249246196" lon="4.833113615179939"><ele>168.33333333333334</ele><time>2026-04-28T15:01:16.999Z</time></trkpt><trkpt lat="45.84056487719903" lon="4.833107212434287"><ele>168.5</ele><time>2026-04-28T15:01:17.999Z</time></trkpt><trkpt lat="45.840499560808084" lon="4.833104170135987"><ele>168.66666666666669</ele><time>2026-04-28T15:01:18.999Z</time></trkpt><trkpt lat="45.84042965149107" lon="4.833102130449749"><ele>168.83333333333334</ele><time>2026-04-28T15:01:19.999Z</time></trkpt><trkpt lat="45.84029674232264" lon="4.833087012150799"><ele>169.0</ele><time>2026-04-28T15:01:21.999Z</time></trkpt><trkpt lat="45.84022915177381" lon="4.833086033034722"><ele>169.0</ele><time>2026-04-28T15:01:22.999Z</time></trkpt><trkpt lat="45.84016271445294" lon="4.833082193202828"><ele>169.0</ele><time>2026-04-28T15:01:23.999Z</time></trkpt><trkpt lat="45.8400981236831" lon="4.833087011106772"><ele>169.0</ele><time>2026-04-28T15:01:24.999Z</time></trkpt><trkpt lat="45.8400300068852" lon="4.833091624624091"><ele>169.0</ele><time>2026-04-28T15:01:25.999Z</time></trkpt><trkpt lat="45.83990930496191" lon="4.833086692406481"><ele>169.0</ele><time>2026-04-28T15:01:27.999Z</time></trkpt><trkpt lat="45.83979427336139" lon="4.833104232192592"><ele>169.0</ele><time>2026-04-28T15:01:29.999Z</time></trkpt><trkpt lat="45.839676744023535" lon="4.833127125334642"><ele>169.2</ele><time>2026-04-28T15:01:31.999Z</time></trkpt><trkpt lat="45.8395720805494" lon="4.833130343430558"><ele>169.39999999999998</ele><time>2026-04-28T15:01:33.999Z</time></trkpt><trkpt lat="45.83947075552957" lon="4.833159673371413"><ele>169.6</ele><time>2026-04-28T15:01:35.999Z</time></trkpt><trkpt lat="45.839374803482656" lon="4.8331685137515095"><ele>169.8</ele><time>2026-04-28T15:01:37.999Z</time></trkpt><trkpt lat="45.83927550699551" lon="4.833192877733607"><ele>170.0</ele><time>2026-04-28T15:01:39.999Z</time></trkpt><trkpt lat="45.83916642523434" lon="4.833230536237785"><ele>169.5</ele><time>2026-04-28T15:01:41.999Z</time></trkpt><trkpt lat="45.839047403066246" lon="4.8332581867662165"><ele>169.0</ele><time>2026-04-28T15:01:43.999Z</time></trkpt><trkpt lat="45.838931310715125" lon="4.833300552766139"><ele>168.5</ele><time>2026-04-28T15:01:45.999Z</time></trkpt><trkpt lat="45.83882405718584" lon="4.833350742124306"><ele>168.0</ele><time>2026-04-28T15:01:47.999Z</time></trkpt><trkpt lat="45.83871801452052" lon="4.833394967385935"><ele>168.0</ele><time>2026-04-28T15:01:49.999Z</time></trkpt><trkpt lat="45.8386261267726" lon="4.833443888958772"><ele>168.0</ele><time>2026-04-28T15:01:51.999Z</time></trkpt><trkpt lat="45.83853079980523" lon="4.83348355124953"><ele>168.0</ele><time>2026-04-28T15:01:53.999Z</time></trkpt><trkpt lat="45.83842671624905" lon="4.833536655825367"><ele>168.0</ele><time>2026-04-28T15:01:55.999Z</time></trkpt><trkpt lat="45.83832464172393" lon="4.833589741808339"><ele>168.0</ele><time>2026-04-28T15:01:57.999Z</time></trkpt><trkpt lat="45.83821955540419" lon="4.833635584501859"><ele>168.2</ele><time>2026-04-28T15:01:59.999Z</time></trkpt><trkpt lat="45.8381145961343" lon="4.833685471802274"><ele>168.4</ele><time>2026-04-28T15:02:01.999Z</time></trkpt><trkpt lat="45.83801395417787" lon="4.8337409429248845"><ele>168.6</ele><time>2026-04-28T15:02:03.999Z</time></trkpt><trkpt lat="45.83791748362293" lon="4.833789660615022"><ele>168.79999999999998</ele><time>2026-04-28T15:02:05.999Z</time></trkpt><trkpt lat="45.83782974831424" lon="4.83385227703905"><ele>169.0</ele><time>2026-04-28T15:02:07.999Z</time></trkpt><trkpt lat="45.83773052478144" lon="4.833906337819402"><ele>169.0</ele><time>2026-04-28T15:02:09.999Z</time></trkpt><trkpt lat="45.83763152815557" lon="4.833969840659488"><ele>169.0</ele><time>2026-04-28T15:02:12Z</time></trkpt><trkpt lat="45.83756500240611" lon="4.834011221352269"><ele>169.0</ele><time>2026-04-28T15:02:14Z</time></trkpt><trkpt lat="45.837496246413245" lon="4.834057697717707"><ele>169.0</ele><time>2026-04-28T15:02:17Z</time></trkpt><trkpt lat="45.83744957482618" lon="4.834139512667012"><ele>169.0</ele><time>2026-04-28T15:02:55Z</time></trkpt><trkpt lat="45.83737796076414" lon="4.834194999846874"><ele>169.0</ele><time>2026-04-28T15:02:58Z</time></trkpt><trkpt lat="45.837306536825395" lon="4.834246192637973"><ele>169.0</ele><time>2026-04-28T15:03:01Z</time></trkpt><trkpt lat="45.83724493148077" lon="4.834293787115125"><ele>169.0</ele><time>2026-04-28T15:03:02.999Z</time></trkpt><trkpt lat="45.83715684250833" lon="4.834370663783088"><ele>169.0</ele><time>2026-04-28T15:03:04.999Z</time></trkpt><trkpt lat="45.83706277043228" lon="4.834474883054928"><ele>169.0</ele><time>2026-04-28T15:03:06.999Z</time></trkpt><trkpt lat="45.83697488844369" lon="4.834574569738548"><ele>169.0</ele><time>2026-04-28T15:03:08.999Z</time></trkpt><trkpt lat="45.83688180775366" lon="4.834681005255594"><ele>168.5</ele><time>2026-04-28T15:03:10.999Z</time></trkpt><trkpt lat="45.83678791981999" lon="4.834789476282484"><ele>168.0</ele><time>2026-04-28T15:03:12.999Z</time></trkpt><trkpt lat="45.83670413053439" lon="4.834894610428021"><ele>167.5</ele><time>2026-04-28T15:03:14.999Z</time></trkpt><trkpt lat="45.836620777586454" lon="4.834999384878243"><ele>167.0</ele><time>2026-04-28T15:03:16.999Z</time></trkpt><trkpt lat="45.836541094816994" lon="4.835103746117476"><ele>167.5</ele><time>2026-04-28T15:03:18.999Z</time></trkpt><trkpt lat="45.83645291384892" lon="4.835213148024522"><ele>168.0</ele><time>2026-04-28T15:03:20.999Z</time></trkpt><trkpt lat="45.836367922713976" lon="4.835334761928876"><ele>168.5</ele><time>2026-04-28T15:03:22.999Z</time></trkpt><trkpt lat="45.836296442696714" lon="4.835472011684996"><ele>169.0</ele><time>2026-04-28T15:03:24.999Z</time></trkpt><trkpt lat="45.83622739197686" lon="4.835601034883712"><ele>169.0</ele><time>2026-04-28T15:03:26.999Z</time></trkpt><trkpt lat="45.83615853051452" lon="4.8357260947208935"><ele>169.0</ele><time>2026-04-28T15:03:28.999Z</time></trkpt><trkpt lat="45.836094596323996" lon="4.835843440188489"><ele>169.0</ele><time>2026-04-28T15:03:30.999Z</time></trkpt><trkpt lat="45.836033965352804" lon="4.835950058057202"><ele>169.0</ele><time>2026-04-28T15:03:32.999Z</time></trkpt><trkpt lat="45.83597144731249" lon="4.836090323850938"><ele>169.0</ele><time>2026-04-28T15:03:34.999Z</time></trkpt><trkpt lat="45.83591233687362" lon="4.836227342514351"><ele>169.2</ele><time>2026-04-28T15:03:36.999Z</time></trkpt><trkpt lat="45.83585013593096" lon="4.836352469703757"><ele>169.39999999999998</ele><time>2026-04-28T15:03:38.999Z</time></trkpt><trkpt lat="45.83579959926318" lon="4.8364954823358195"><ele>169.6</ele><time>2026-04-28T15:03:40.999Z</time></trkpt><trkpt lat="45.835741758187154" lon="4.836614751660974"><ele>169.8</ele><time>2026-04-28T15:03:42.999Z</time></trkpt><trkpt lat="45.83568260367109" lon="4.836733114023193"><ele>170.0</ele><time>2026-04-28T15:03:44.999Z</time></trkpt><trkpt lat="45.835635037844426" lon="4.836860927735454"><ele>171.0</ele><time>2026-04-28T15:03:46.999Z</time></trkpt><trkpt lat="45.83557552969907" lon="4.83698605645093"><ele>172.0</ele><time>2026-04-28T15:03:48.999Z</time></trkpt><trkpt lat="45.83551847626918" lon="4.837125882323018"><ele>173.0</ele><time>2026-04-28T15:03:50.999Z</time></trkpt><trkpt lat="45.83545613738335" lon="4.837268960295989"><ele>174.0</ele><time>2026-04-28T15:03:52.999Z</time></trkpt><trkpt lat="45.83539320283471" lon="4.837413176358627"><ele>174.0</ele><time>2026-04-28T15:03:54.999Z</time></trkpt><trkpt lat="45.83531568012407" lon="4.837553318369136"><ele>174.0</ele><time>2026-04-28T15:03:56.999Z</time></trkpt><trkpt lat="45.83528079897849" lon="4.837632852371205"><ele>174.0</ele><time>2026-04-28T15:03:57.999Z</time></trkpt><trkpt lat="45.83525146629889" lon="4.837716145485944"><ele>174.0</ele><time>2026-04-28T15:03:58.999Z</time></trkpt><trkpt lat="45.83522414075216" lon="4.8378008949002895"><ele>174.0</ele><time>2026-04-28T15:03:59.999Z</time></trkpt><trkpt lat="45.83520006910776" lon="4.837889246862481"><ele>174.0</ele><time>2026-04-28T15:04:00.999Z</time></trkpt><trkpt lat="45.83514610290435" lon="4.838056401128301"><ele>173.14285714285714</ele><time>2026-04-28T15:04:02.999Z</time></trkpt><trkpt lat="45.835108288821345" lon="4.838145821606823"><ele>172.28571428571428</ele><time>2026-04-28T15:04:03.999Z</time></trkpt><trkpt lat="45.83507726608205" lon="4.838232622260113"><ele>171.42857142857144</ele><time>2026-04-28T15:04:04.999Z</time></trkpt><trkpt lat="45.835045008544306" lon="4.8383125357050405"><ele>170.57142857142856</ele><time>2026-04-28T15:04:05.999Z</time></trkpt><trkpt lat="45.835014335419075" lon="4.8384058656713735"><ele>169.71428571428572</ele><time>2026-04-28T15:04:06.999Z</time></trkpt><trkpt lat="45.83499443899185" lon="4.838503722869645"><ele>168.85714285714286</ele><time>2026-04-28T15:04:07.999Z</time></trkpt><trkpt lat="45.83497172982994" lon="4.838600622515507"><ele>168.0</ele><time>2026-04-28T15:04:08.999Z</time></trkpt><trkpt lat="45.834944378973184" lon="4.83868740614183"><ele>168.0</ele><time>2026-04-28T15:04:09.999Z</time></trkpt><trkpt lat="45.8349211515791" lon="4.838778980142359"><ele>168.0</ele><time>2026-04-28T15:04:10.999Z</time></trkpt><trkpt lat="45.83490223392564" lon="4.838874692446094"><ele>168.0</ele><time>2026-04-28T15:04:11.999Z</time></trkpt><trkpt lat="45.83488737713417" lon="4.8389658305113645"><ele>168.0</ele><time>2026-04-28T15:04:12.999Z</time></trkpt><trkpt lat="45.83483877817699" lon="4.8391275897281565"><ele>168.0</ele><time>2026-04-28T15:04:14.999Z</time></trkpt><trkpt lat="45.83479687848409" lon="4.839300064550395"><ele>168.33333333333334</ele><time>2026-04-28T15:04:17Z</time></trkpt><trkpt lat="45.83477433160314" lon="4.839386327199593"><ele>168.66666666666666</ele><time>2026-04-28T15:04:18Z</time></trkpt><trkpt lat="45.83473576575616" lon="4.839559921374351"><ele>169.0</ele><time>2026-04-28T15:04:20Z</time></trkpt><trkpt lat="45.834713100787255" lon="4.839645689444785"><ele>169.33333333333331</ele><time>2026-04-28T15:04:21Z</time></trkpt><trkpt lat="45.834691194651455" lon="4.839734017771905"><ele>169.66666666666666</ele><time>2026-04-28T15:04:22Z</time></trkpt><trkpt lat="45.834674217662226" lon="4.839824652719604"><ele>170.0</ele><time>2026-04-28T15:04:23Z</time></trkpt><trkpt lat="45.83465346698632" lon="4.83991683616524"><ele>170.0</ele><time>2026-04-28T15:04:24Z</time></trkpt><trkpt lat="45.834633900255234" lon="4.840003783581592"><ele>170.0</ele><time>2026-04-28T15:04:25Z</time></trkpt><trkpt lat="45.83461388249846" lon="4.84009137070584"><ele>170.0</ele><time>2026-04-28T15:04:26Z</time></trkpt><trkpt lat="45.83459523439868" lon="4.840180206899763"><ele>170.0</ele><time>2026-04-28T15:04:27Z</time></trkpt><trkpt lat="45.83456218578512" lon="4.840350354825722"><ele>170.0</ele><time>2026-04-28T15:04:29Z</time></trkpt><trkpt lat="45.834530431939946" lon="4.840508667582708"><ele>170.0</ele><time>2026-04-28T15:04:31Z</time></trkpt><trkpt lat="45.83449526907173" lon="4.8406543779210285"><ele>170.0</ele><time>2026-04-28T15:04:33Z</time></trkpt><trkpt lat="45.83446715099489" lon="4.840787915702886"><ele>170.0</ele><time>2026-04-28T15:04:35Z</time></trkpt><trkpt lat="45.83443813778532" lon="4.840888222984966"><ele>170.0</ele><time>2026-04-28T15:04:37Z</time></trkpt><trkpt lat="45.834388035339366" lon="4.840985441447582"><ele>170.0</ele><time>2026-04-28T15:04:39Z</time></trkpt><trkpt lat="45.83436390954605" lon="4.841131379516858"><ele>170.0</ele><time>2026-04-28T15:04:41Z</time></trkpt><trkpt lat="45.83433956881254" lon="4.841285445265076"><ele>170.0</ele><time>2026-04-28T15:04:43Z</time></trkpt><trkpt lat="45.834309240492985" lon="4.8414470049886775"><ele>170.0</ele><time>2026-04-28T15:04:45Z</time></trkpt><trkpt lat="45.83428378796147" lon="4.84162084241064"><ele>170.0</ele><time>2026-04-28T15:04:47Z</time></trkpt><trkpt lat="45.83424960004909" lon="4.841794421921932"><ele>170.0</ele><time>2026-04-28T15:04:49Z</time></trkpt><trkpt lat="45.834189592723305" lon="4.8419383105546965"><ele>169.66666666666666</ele><time>2026-04-28T15:04:51Z</time></trkpt><trkpt lat="45.83414628696524" lon="4.842102249898285"><ele>169.33333333333331</ele><time>2026-04-28T15:04:53Z</time></trkpt><trkpt lat="45.834126318619475" lon="4.8421948018558085"><ele>169.0</ele><time>2026-04-28T15:04:54Z</time></trkpt><trkpt lat="45.83409346748017" lon="4.842283938283557"><ele>168.66666666666666</ele><time>2026-04-28T15:04:55Z</time></trkpt><trkpt lat="45.834067509012954" lon="4.842374967250173"><ele>168.33333333333334</ele><time>2026-04-28T15:04:56Z</time></trkpt><trkpt lat="45.83404182712454" lon="4.842464988314701"><ele>168.0</ele><time>2026-04-28T15:04:57Z</time></trkpt><trkpt lat="45.834013560215006" lon="4.842560475265092"><ele>168.33333333333334</ele><time>2026-04-28T15:04:58Z</time></trkpt><trkpt lat="45.83398436710971" lon="4.842660187424943"><ele>168.66666666666666</ele><time>2026-04-28T15:04:59Z</time></trkpt><trkpt lat="45.83395004741924" lon="4.842753253923962"><ele>169.0</ele><time>2026-04-28T15:05:00Z</time></trkpt><trkpt lat="45.833920538463225" lon="4.84285291494933"><ele>169.33333333333331</ele><time>2026-04-28T15:05:01Z</time></trkpt><trkpt lat="45.83389024286422" lon="4.842942351597664"><ele>169.66666666666666</ele><time>2026-04-28T15:05:02Z</time></trkpt><trkpt lat="45.833859626374384" lon="4.843033924565209"><ele>170.0</ele><time>2026-04-28T15:05:03Z</time></trkpt><trkpt lat="45.833810049356536" lon="4.843181273506419"><ele>170.0</ele><time>2026-04-28T15:05:05Z</time></trkpt><trkpt lat="45.833776870131096" lon="4.843282287529551"><ele>170.0</ele><time>2026-04-28T15:05:07Z</time></trkpt><trkpt lat="45.83375913066416" lon="4.843395257131338"><ele>170.0</ele><time>2026-04-28T15:05:08.999Z</time></trkpt><trkpt lat="45.833730374386946" lon="4.843528383849371"><ele>170.0</ele><time>2026-04-28T15:05:10.999Z</time></trkpt><trkpt lat="45.833694514170475" lon="4.843676426426566"><ele>170.0</ele><time>2026-04-28T15:05:12.999Z</time></trkpt><trkpt lat="45.833671159672676" lon="4.843829830293047"><ele>170.6</ele><time>2026-04-28T15:05:14.999Z</time></trkpt><trkpt lat="45.83363069519938" lon="4.843979629273454"><ele>171.2</ele><time>2026-04-28T15:05:16.999Z</time></trkpt><trkpt lat="45.833600074405425" lon="4.844130429689249"><ele>171.8</ele><time>2026-04-28T15:05:18.999Z</time></trkpt><trkpt lat="45.8335621120172" lon="4.8442780051972205"><ele>172.4</ele><time>2026-04-28T15:05:20.999Z</time></trkpt><trkpt lat="45.83353024708675" lon="4.844428297451467"><ele>173.0</ele><time>2026-04-28T15:05:22.999Z</time></trkpt><trkpt lat="45.833487961780406" lon="4.844574238595904"><ele>172.0</ele><time>2026-04-28T15:05:24.999Z</time></trkpt><trkpt lat="45.83345078851986" lon="4.844719965226067"><ele>171.0</ele><time>2026-04-28T15:05:26.999Z</time></trkpt><trkpt lat="45.833414358680976" lon="4.844863076767907"><ele>170.0</ele><time>2026-04-28T15:05:28.999Z</time></trkpt><trkpt lat="45.8333806839791" lon="4.844992523688343"><ele>169.0</ele><time>2026-04-28T15:05:30.999Z</time></trkpt><trkpt lat="45.833348104420374" lon="4.845124719686635"><ele>168.0</ele><time>2026-04-28T15:05:32.999Z</time></trkpt><trkpt lat="45.833316377651805" lon="4.8452486856124395"><ele>168.0</ele><time>2026-04-28T15:05:34.999Z</time></trkpt><trkpt lat="45.833279444758446" lon="4.845369860018082"><ele>168.0</ele><time>2026-04-28T15:05:36.999Z</time></trkpt><trkpt lat="45.83325350967454" lon="4.845475616443453"><ele>168.0</ele><time>2026-04-28T15:05:38.999Z</time></trkpt><trkpt lat="45.83324145740343" lon="4.845590674426581"><ele>168.0</ele><time>2026-04-28T15:05:40.999Z</time></trkpt><trkpt lat="45.83321012397668" lon="4.845707327505779"><ele>168.0</ele><time>2026-04-28T15:05:42.999Z</time></trkpt><trkpt lat="45.83317715080591" lon="4.845839400125203"><ele>168.0</ele><time>2026-04-28T15:05:44.999Z</time></trkpt><trkpt lat="45.83313214034594" lon="4.845984516218067"><ele>168.0</ele><time>2026-04-28T15:05:46.999Z</time></trkpt><trkpt lat="45.83308620963575" lon="4.846134920017593"><ele>168.0</ele><time>2026-04-28T15:05:48.999Z</time></trkpt><trkpt lat="45.833045372501076" lon="4.846296737101484"><ele>168.0</ele><time>2026-04-28T15:05:50.999Z</time></trkpt><trkpt lat="45.8330080481053" lon="4.846468417175908"><ele>168.0</ele><time>2026-04-28T15:05:52.999Z</time></trkpt><trkpt lat="45.83295768520819" lon="4.846634842823576"><ele>168.0</ele><time>2026-04-28T15:05:54.999Z</time></trkpt><trkpt lat="45.83290703159138" lon="4.846783865221151"><ele>168.0</ele><time>2026-04-28T15:05:56.999Z</time></trkpt><trkpt lat="45.83286181386692" lon="4.8469445024526765"><ele>168.0</ele><time>2026-04-28T15:05:58.999Z</time></trkpt><trkpt lat="45.83281193987274" lon="4.847108300903411"><ele>168.0</ele><time>2026-04-28T15:06:00.999Z</time></trkpt><trkpt lat="45.83276865207447" lon="4.8472751058792545"><ele>167.8</ele><time>2026-04-28T15:06:02.999Z</time></trkpt><trkpt lat="45.83272974592857" lon="4.847437061416432"><ele>167.60000000000002</ele><time>2026-04-28T15:06:04.999Z</time></trkpt><trkpt lat="45.832690513789494" lon="4.847584138235507"><ele>167.39999999999998</ele><time>2026-04-28T15:06:06.999Z</time></trkpt><trkpt lat="45.83263995851783" lon="4.847727219734748"><ele>167.2</ele><time>2026-04-28T15:06:08.999Z</time></trkpt><trkpt lat="45.83258353731422" lon="4.847842420884703"><ele>167.0</ele><time>2026-04-28T15:06:10.999Z</time></trkpt><trkpt lat="45.832527719641696" lon="4.847978513543699"><ele>167.0</ele><time>2026-04-28T15:06:12.999Z</time></trkpt><trkpt lat="45.83249097366576" lon="4.848055306100874"><ele>167.0</ele><time>2026-04-28T15:06:13.999Z</time></trkpt><trkpt lat="45.83246053037056" lon="4.8481408220344715"><ele>167.0</ele><time>2026-04-28T15:06:14.999Z</time></trkpt><trkpt lat="45.83239615344562" lon="4.848301074295998"><ele>167.0</ele><time>2026-04-28T15:06:16.999Z</time></trkpt><trkpt lat="45.83233062488831" lon="4.84844800530144"><ele>167.0</ele><time>2026-04-28T15:06:18.999Z</time></trkpt><trkpt lat="45.83228377387523" lon="4.848591079357455"><ele>167.83333333333331</ele><time>2026-04-28T15:06:20.999Z</time></trkpt><trkpt lat="45.83223085811148" lon="4.848739518038139"><ele>168.66666666666666</ele><time>2026-04-28T15:06:23Z</time></trkpt><trkpt lat="45.83218814827087" lon="4.848903594437478"><ele>169.5</ele><time>2026-04-28T15:06:25Z</time></trkpt><trkpt lat="45.83215290243104" lon="4.848986559368989"><ele>170.33333333333334</ele><time>2026-04-28T15:06:26Z</time></trkpt><trkpt lat="45.83211728024928" lon="4.8490661057984275"><ele>171.16666666666669</ele><time>2026-04-28T15:06:27Z</time></trkpt><trkpt lat="45.83208430581519" lon="4.849144852683607"><ele>172.0</ele><time>2026-04-28T15:06:28Z</time></trkpt><trkpt lat="45.832049898000385" lon="4.8492270775158905"><ele>172.25</ele><time>2026-04-28T15:06:29Z</time></trkpt><trkpt lat="45.831985218880256" lon="4.849367921461648"><ele>172.5</ele><time>2026-04-28T15:06:31Z</time></trkpt><trkpt lat="45.8319265739488" lon="4.8495032742485655"><ele>172.75</ele><time>2026-04-28T15:06:33Z</time></trkpt><trkpt lat="45.831878907241176" lon="4.8496451497348625"><ele>173.0</ele><time>2026-04-28T15:06:35Z</time></trkpt><trkpt lat="45.83181043788053" lon="4.849772040326936"><ele>172.25</ele><time>2026-04-28T15:06:37Z</time></trkpt><trkpt lat="45.831741952783226" lon="4.849904001204886"><ele>171.5</ele><time>2026-04-28T15:06:39Z</time></trkpt><trkpt lat="45.83167253613789" lon="4.850025559661424"><ele>170.75</ele><time>2026-04-28T15:06:41Z</time></trkpt><trkpt lat="45.83159652558942" lon="4.850149725128539"><ele>170.0</ele><time>2026-04-28T15:06:43Z</time></trkpt><trkpt lat="45.83151888214033" lon="4.850265454225672"><ele>170.0</ele><time>2026-04-28T15:06:45Z</time></trkpt><trkpt lat="45.83144003266727" lon="4.850382759378764"><ele>170.0</ele><time>2026-04-28T15:06:47Z</time></trkpt><trkpt lat="45.831360770797616" lon="4.8504962784196906"><ele>170.0</ele><time>2026-04-28T15:06:49Z</time></trkpt><trkpt lat="45.83126482414357" lon="4.8506068084353"><ele>170.0</ele><time>2026-04-28T15:06:51Z</time></trkpt><trkpt lat="45.83121761451676" lon="4.850666939608814"><ele>170.0</ele><time>2026-04-28T15:06:52Z</time></trkpt><trkpt lat="45.8311189550161" lon="4.850776881852542"><ele>170.0</ele><time>2026-04-28T15:06:54Z</time></trkpt><trkpt lat="45.83103038451364" lon="4.850876896262435"><ele>170.0</ele><time>2026-04-28T15:06:56Z</time></trkpt><trkpt lat="45.83094654509977" lon="4.850983279440015"><ele>170.0</ele><time>2026-04-28T15:06:58Z</time></trkpt><trkpt lat="45.83086602038795" lon="4.851072991341148"><ele>170.0</ele><time>2026-04-28T15:07:00Z</time></trkpt><trkpt lat="45.830780001145385" lon="4.851157787800941"><ele>170.0</ele><time>2026-04-28T15:07:02Z</time></trkpt><trkpt lat="45.83069149607753" lon="4.851252808959009"><ele>169.75</ele><time>2026-04-28T15:07:04Z</time></trkpt><trkpt lat="45.83059449516815" lon="4.8513545873626756"><ele>169.5</ele><time>2026-04-28T15:07:06Z</time></trkpt><trkpt lat="45.83050102046546" lon="4.8514628983766075"><ele>169.25</ele><time>2026-04-28T15:07:08Z</time></trkpt><trkpt lat="45.830404507973505" lon="4.851574305646259"><ele>169.0</ele><time>2026-04-28T15:07:10Z</time></trkpt><trkpt lat="45.83031256591798" lon="4.851684972400574"><ele>169.2</ele><time>2026-04-28T15:07:12Z</time></trkpt><trkpt lat="45.83022049929396" lon="4.851791143936832"><ele>169.39999999999998</ele><time>2026-04-28T15:07:13.999Z</time></trkpt><trkpt lat="45.830126626382224" lon="4.8518987535179665"><ele>169.6</ele><time>2026-04-28T15:07:15.999Z</time></trkpt><trkpt lat="45.83003118007692" lon="4.852014792771067"><ele>169.8</ele><time>2026-04-28T15:07:17.999Z</time></trkpt><trkpt lat="45.8299812923931" lon="4.8520780366068745"><ele>170.0</ele><time>2026-04-28T15:07:18.999Z</time></trkpt><trkpt lat="45.829882676937224" lon="4.852189171433679"><ele>170.0</ele><time>2026-04-28T15:07:20.999Z</time></trkpt><trkpt lat="45.8298326679161" lon="4.852245723806935"><ele>170.0</ele><time>2026-04-28T15:07:21.999Z</time></trkpt><trkpt lat="45.82974283122043" lon="4.852358165924658"><ele>170.0</ele><time>2026-04-28T15:07:23.999Z</time></trkpt><trkpt lat="45.82964594715559" lon="4.852473212126984"><ele>170.0</ele><time>2026-04-28T15:07:25.999Z</time></trkpt><trkpt lat="45.82959481802339" lon="4.852532406885197"><ele>170.0</ele><time>2026-04-28T15:07:26.999Z</time></trkpt><trkpt lat="45.82954583744196" lon="4.8525926532620325"><ele>170.0</ele><time>2026-04-28T15:07:27.999Z</time></trkpt><trkpt lat="45.82951065556463" lon="4.852668266104899"><ele>170.25</ele><time>2026-04-28T15:07:28.999Z</time></trkpt><trkpt lat="45.82941888821102" lon="4.852783119245908"><ele>170.5</ele><time>2026-04-28T15:07:30.999Z</time></trkpt><trkpt lat="45.829333856223656" lon="4.852892831972757"><ele>170.75</ele><time>2026-04-28T15:07:32.999Z</time></trkpt><trkpt lat="45.82925144030678" lon="4.852998050311874"><ele>171.0</ele><time>2026-04-28T15:07:34.999Z</time></trkpt><trkpt lat="45.82916123160942" lon="4.853113217492027"><ele>171.0</ele><time>2026-04-28T15:07:36.999Z</time></trkpt><trkpt lat="45.82907430810805" lon="4.853224188767726"><ele>171.0</ele><time>2026-04-28T15:07:38.999Z</time></trkpt><trkpt lat="45.82899164974073" lon="4.853326388300845"><ele>171.0</ele><time>2026-04-28T15:07:40.999Z</time></trkpt><trkpt lat="45.82890937163855" lon="4.853428318883559"><ele>171.0</ele><time>2026-04-28T15:07:42.999Z</time></trkpt><trkpt lat="45.8288596176602" lon="4.853488604539887"><ele>171.0</ele><time>2026-04-28T15:07:43.999Z</time></trkpt><trkpt lat="45.82877488683716" lon="4.853588844644512"><ele>171.4</ele><time>2026-04-28T15:07:45.999Z</time></trkpt><trkpt lat="45.82869314672226" lon="4.853684712589089"><ele>171.8</ele><time>2026-04-28T15:07:47.999Z</time></trkpt><trkpt lat="45.82862081056628" lon="4.853780370846242"><ele>172.20000000000002</ele><time>2026-04-28T15:07:49.999Z</time></trkpt><trkpt lat="45.8285324986754" lon="4.853852969648301"><ele>172.60000000000002</ele><time>2026-04-28T15:07:51.999Z</time></trkpt><trkpt lat="45.82848036605245" lon="4.853961462963513"><ele>173.0</ele><time>2026-04-28T15:07:53.999Z</time></trkpt><trkpt lat="45.82843821164995" lon="4.854048528703181"><ele>173.0</ele><time>2026-04-28T15:07:55.999Z</time></trkpt><trkpt lat="45.828394896802436" lon="4.854128946056646"><ele>173.0</ele><time>2026-04-28T15:07:57.999Z</time></trkpt><trkpt lat="45.82835512673522" lon="4.854203210279474"><ele>173.0</ele><time>2026-04-28T15:07:59.999Z</time></trkpt><trkpt lat="45.82830122406521" lon="4.854299288082557"><ele>173.0</ele><time>2026-04-28T15:08:02.999Z</time></trkpt><trkpt lat="45.82824755223547" lon="4.854397710048998"><ele>173.0</ele><time>2026-04-28T15:08:05.999Z</time></trkpt><trkpt lat="45.82815834410215" lon="4.8544710475730275"><ele>173.0</ele><time>2026-04-28T15:08:36Z</time></trkpt><trkpt lat="45.82810404990131" lon="4.854551512332163"><ele>173.4</ele><time>2026-04-28T15:08:39Z</time></trkpt><trkpt lat="45.82803887156241" lon="4.854635799418812"><ele>173.8</ele><time>2026-04-28T15:08:41Z</time></trkpt><trkpt lat="45.827969356857736" lon="4.854718706561429"><ele>174.2</ele><time>2026-04-28T15:08:43Z</time></trkpt><trkpt lat="45.82789176322733" lon="4.854811506343269"><ele>174.6</ele><time>2026-04-28T15:08:45Z</time></trkpt><trkpt lat="45.82781612949386" lon="4.854908054503536"><ele>175.0</ele><time>2026-04-28T15:08:47Z</time></trkpt><trkpt lat="45.82776676849989" lon="4.855029706564408"><ele>175.0</ele><time>2026-04-28T15:08:49Z</time></trkpt><trkpt lat="45.82771287820771" lon="4.855100026691179"><ele>175.0</ele><time>2026-04-28T15:08:52Z</time></trkpt><trkpt lat="45.82774283051264" lon="4.855017114933846"><ele>175.0</ele><time>2026-04-28T15:09:10Z</time></trkpt><trkpt lat="45.827790965581045" lon="4.854941330337361"><ele>175.0</ele><time>2026-04-28T15:09:13Z</time></trkpt><trkpt lat="45.827875884379225" lon="4.854853783103339"><ele>175.0</ele><time>2026-04-28T15:09:16Z</time></trkpt><trkpt lat="45.827941314462336" lon="4.854770496525162"><ele>175.0</ele><time>2026-04-28T15:09:17.999Z</time></trkpt><trkpt lat="45.828002091162865" lon="4.854688870718959"><ele>175.0</ele><time>2026-04-28T15:09:19.999Z</time></trkpt><trkpt lat="45.8280724439055" lon="4.854609488715334"><ele>175.0</ele><time>2026-04-28T15:09:21.999Z</time></trkpt><trkpt lat="45.82812485283165" lon="4.854536975820196"><ele>175.0</ele><time>2026-04-28T15:09:23.999Z</time></trkpt><trkpt lat="45.828189233393516" lon="4.854461676833438"><ele>175.0</ele><time>2026-04-28T15:09:26.999Z</time></trkpt><trkpt lat="45.82817861656745" lon="4.854563749859914"><ele>175.0</ele><time>2026-04-28T15:10:08.999Z</time></trkpt><trkpt lat="45.828105053753404" lon="4.854626001957601"><ele>175.0</ele><time>2026-04-28T15:10:10.999Z</time></trkpt><trkpt lat="45.828019650127565" lon="4.854743273944204"><ele>175.0</ele><time>2026-04-28T15:10:12.999Z</time></trkpt><trkpt lat="45.82792342418129" lon="4.854861538681737"><ele>175.0</ele><time>2026-04-28T15:10:14.999Z</time></trkpt><trkpt lat="45.827875990094" lon="4.854926451918648"><ele>175.0</ele><time>2026-04-28T15:10:15.999Z</time></trkpt><trkpt lat="45.82782684220037" lon="4.854991409245455"><ele>175.0</ele><time>2026-04-28T15:10:16.999Z</time></trkpt><trkpt lat="45.82777587659756" lon="4.855055359778141"><ele>175.0</ele><time>2026-04-28T15:10:17.999Z</time></trkpt><trkpt lat="45.82772188368749" lon="4.855117468583653"><ele>175.0</ele><time>2026-04-28T15:10:18.999Z</time></trkpt><trkpt lat="45.827671059629715" lon="4.8551837801616875"><ele>174.57142857142858</ele><time>2026-04-28T15:10:19.999Z</time></trkpt><trkpt lat="45.82762023197256" lon="4.855249285752822"><ele>174.14285714285714</ele><time>2026-04-28T15:10:20.999Z</time></trkpt><trkpt lat="45.82756805574628" lon="4.855316902402316"><ele>173.71428571428572</ele><time>2026-04-28T15:10:21.999Z</time></trkpt><trkpt lat="45.82751406612385" lon="4.855379051494533"><ele>173.28571428571428</ele><time>2026-04-28T15:10:22.999Z</time></trkpt><trkpt lat="45.827461107096276" lon="4.855448217094771"><ele>172.85714285714286</ele><time>2026-04-28T15:10:23.999Z</time></trkpt><trkpt lat="45.82740923413312" lon="4.855522238324194"><ele>172.42857142857144</ele><time>2026-04-28T15:10:24.999Z</time></trkpt><trkpt lat="45.827353346014185" lon="4.855596129205224"><ele>172.0</ele><time>2026-04-28T15:10:25.999Z</time></trkpt><trkpt lat="45.827296192161164" lon="4.855661113391804"><ele>172.00000000000003</ele><time>2026-04-28T15:10:26.999Z</time></trkpt><trkpt lat="45.82724448022623" lon="4.855734913079425"><ele>172.0</ele><time>2026-04-28T15:10:27.999Z</time></trkpt><trkpt lat="45.82719112178297" lon="4.8558062481708815"><ele>172.0</ele><time>2026-04-28T15:10:28.999Z</time></trkpt><trkpt lat="45.82713592549875" lon="4.855879121148895"><ele>172.0</ele><time>2026-04-28T15:10:29.999Z</time></trkpt><trkpt lat="45.82708433218162" lon="4.855945905680097"><ele>172.0</ele><time>2026-04-28T15:10:30.998Z</time></trkpt><trkpt lat="45.82702990806581" lon="4.856015366122117"><ele>172.00000000000003</ele><time>2026-04-28T15:10:31.998Z</time></trkpt><trkpt lat="45.8269836053277" lon="4.85608888178756"><ele>172.0</ele><time>2026-04-28T15:10:32.998Z</time></trkpt><trkpt lat="45.826928888119554" lon="4.856158952426821"><ele>172.2857142857143</ele><time>2026-04-28T15:10:33.998Z</time></trkpt><trkpt lat="45.8268734626362" lon="4.856229025834786"><ele>172.57142857142858</ele><time>2026-04-28T15:10:35Z</time></trkpt><trkpt lat="45.82681964158438" lon="4.856295422134226"><ele>172.85714285714286</ele><time>2026-04-28T15:10:36Z</time></trkpt><trkpt lat="45.82676675728773" lon="4.856361428997138"><ele>173.14285714285717</ele><time>2026-04-28T15:10:37Z</time></trkpt><trkpt lat="45.82671453818668" lon="4.8564322258569135"><ele>173.42857142857144</ele><time>2026-04-28T15:10:38Z</time></trkpt><trkpt lat="45.826661648593664" lon="4.856498824180801"><ele>173.71428571428572</ele><time>2026-04-28T15:10:39Z</time></trkpt><trkpt lat="45.826604932192325" lon="4.856568288293604"><ele>174.0</ele><time>2026-04-28T15:10:40Z</time></trkpt><trkpt lat="45.826550304556896" lon="4.856639246207756"><ele>173.57142857142856</ele><time>2026-04-28T15:10:41Z</time></trkpt><trkpt lat="45.82649714529241" lon="4.85671044761424"><ele>173.14285714285714</ele><time>2026-04-28T15:10:42Z</time></trkpt><trkpt lat="45.82644123215455" lon="4.856781674638073"><ele>172.71428571428572</ele><time>2026-04-28T15:10:43Z</time></trkpt><trkpt lat="45.82638783017317" lon="4.856854635524305"><ele>172.28571428571428</ele><time>2026-04-28T15:10:44Z</time></trkpt><trkpt lat="45.826336163533306" lon="4.856927039514099"><ele>171.85714285714286</ele><time>2026-04-28T15:10:45Z</time></trkpt><trkpt lat="45.826284833692405" lon="4.856997803826804"><ele>171.42857142857142</ele><time>2026-04-28T15:10:46Z</time></trkpt><trkpt lat="45.82622867252712" lon="4.857069051358573"><ele>171.0</ele><time>2026-04-28T15:10:47Z</time></trkpt><trkpt lat="45.82617740279069" lon="4.857141081010162"><ele>170.99999999999997</ele><time>2026-04-28T15:10:48Z</time></trkpt><trkpt lat="45.82612512695967" lon="4.857211943657634"><ele>171.0</ele><time>2026-04-28T15:10:49Z</time></trkpt><trkpt lat="45.826073670630215" lon="4.8572850363202305"><ele>171.0</ele><time>2026-04-28T15:10:50Z</time></trkpt><trkpt lat="45.82602446662653" lon="4.85735515783083"><ele>171.0</ele><time>2026-04-28T15:10:51Z</time></trkpt><trkpt lat="45.8259720003248" lon="4.85742813936701"><ele>171.0</ele><time>2026-04-28T15:10:52Z</time></trkpt><trkpt lat="45.82592086850192" lon="4.857496710621875"><ele>170.99999999999997</ele><time>2026-04-28T15:10:53Z</time></trkpt><trkpt lat="45.82586674099929" lon="4.857566245769015"><ele>171.0</ele><time>2026-04-28T15:10:54Z</time></trkpt><trkpt lat="45.825813356702355" lon="4.857634212671928"><ele>172.14285714285714</ele><time>2026-04-28T15:10:55Z</time></trkpt><trkpt lat="45.825761801843484" lon="4.857703251823614"><ele>173.28571428571428</ele><time>2026-04-28T15:10:56Z</time></trkpt><trkpt lat="45.82570809177124" lon="4.857772893080408"><ele>174.42857142857144</ele><time>2026-04-28T15:10:57Z</time></trkpt><trkpt lat="45.82565294982271" lon="4.857843486347672"><ele>175.57142857142856</ele><time>2026-04-28T15:10:58Z</time></trkpt><trkpt lat="45.82559929914159" lon="4.857913352828897"><ele>176.71428571428572</ele><time>2026-04-28T15:10:59Z</time></trkpt><trkpt lat="45.8255481109396" lon="4.857981700221281"><ele>177.85714285714286</ele><time>2026-04-28T15:11:00Z</time></trkpt><trkpt lat="45.825497728411" lon="4.858052368102858"><ele>179.0</ele><time>2026-04-28T15:11:01Z</time></trkpt><trkpt lat="45.82544750680151" lon="4.858122399344442"><ele>179.00000000000003</ele><time>2026-04-28T15:11:02Z</time></trkpt><trkpt lat="45.82539568485766" lon="4.858193890835996"><ele>179.0</ele><time>2026-04-28T15:11:03Z</time></trkpt><trkpt lat="45.82534123777791" lon="4.8582601054598245"><ele>179.0</ele><time>2026-04-28T15:11:04Z</time></trkpt><trkpt lat="45.82528512055837" lon="4.858321152221573"><ele>179.0</ele><time>2026-04-28T15:11:05Z</time></trkpt><trkpt lat="45.825225691531365" lon="4.858373550769991"><ele>179.0</ele><time>2026-04-28T15:11:06Z</time></trkpt><trkpt lat="45.82516690498506" lon="4.858425617531616"><ele>179.00000000000003</ele><time>2026-04-28T15:11:07Z</time></trkpt><trkpt lat="45.82510768667179" lon="4.858472105554034"><ele>179.0</ele><time>2026-04-28T15:11:08Z</time></trkpt><trkpt lat="45.825044865205726" lon="4.85851360307535"><ele>180.00000000000003</ele><time>2026-04-28T15:11:09Z</time></trkpt><trkpt lat="45.8249757790155" lon="4.858551324556551"><ele>181.0</ele><time>2026-04-28T15:11:10Z</time></trkpt><trkpt lat="45.82491028224283" lon="4.858576511642645"><ele>182.0</ele><time>2026-04-28T15:11:11Z</time></trkpt><trkpt lat="45.82484292137409" lon="4.858598313425541"><ele>183.0</ele><time>2026-04-28T15:11:12Z</time></trkpt><trkpt lat="45.82477868919421" lon="4.8586124966393385"><ele>184.0</ele><time>2026-04-28T15:11:13Z</time></trkpt><trkpt lat="45.824712155136055" lon="4.858627609092232"><ele>185.00000000000003</ele><time>2026-04-28T15:11:14Z</time></trkpt><trkpt lat="45.82464167787234" lon="4.85864674368102"><ele>186.0</ele><time>2026-04-28T15:11:15Z</time></trkpt><trkpt lat="45.824575021367394" lon="4.858663833389707"><ele>186.00000000000003</ele><time>2026-04-28T15:11:16Z</time></trkpt><trkpt lat="45.82450720170796" lon="4.858682107643979"><ele>186.0</ele><time>2026-04-28T15:11:17Z</time></trkpt><trkpt lat="45.82443856219454" lon="4.858700745285213"><ele>186.0</ele><time>2026-04-28T15:11:18Z</time></trkpt><trkpt lat="45.824372025822186" lon="4.858718665673048"><ele>186.0</ele><time>2026-04-28T15:11:19Z</time></trkpt><trkpt lat="45.82429800183223" lon="4.858735138964428"><ele>186.0</ele><time>2026-04-28T15:11:20Z</time></trkpt><trkpt lat="45.824226998821" lon="4.858751479887544"><ele>186.00000000000003</ele><time>2026-04-28T15:11:21Z</time></trkpt><trkpt lat="45.82415730082114" lon="4.858776553686468"><ele>186.0</ele><time>2026-04-28T15:11:22Z</time></trkpt><trkpt lat="45.824081301758035" lon="4.858791988695988"><ele>185.85714285714286</ele><time>2026-04-28T15:11:23Z</time></trkpt><trkpt lat="45.824010501539576" lon="4.858807336662775"><ele>185.71428571428572</ele><time>2026-04-28T15:11:24Z</time></trkpt><trkpt lat="45.8239412012101" lon="4.858828436129004"><ele>185.57142857142856</ele><time>2026-04-28T15:11:25Z</time></trkpt><trkpt lat="45.82386647483225" lon="4.858847340122721"><ele>185.42857142857144</ele><time>2026-04-28T15:11:25.999Z</time></trkpt><trkpt lat="45.82379449149646" lon="4.858867374706006"><ele>185.28571428571428</ele><time>2026-04-28T15:11:26.999Z</time></trkpt><trkpt lat="45.823718350593516" lon="4.858885072966894"><ele>185.14285714285714</ele><time>2026-04-28T15:11:27.999Z</time></trkpt><trkpt lat="45.82364519653653" lon="4.858898017092683"><ele>185.0</ele><time>2026-04-28T15:11:28.999Z</time></trkpt><trkpt lat="45.823575509828885" lon="4.858905931934828"><ele>184.99999999999997</ele><time>2026-04-28T15:11:29.999Z</time></trkpt><trkpt lat="45.82350693772086" lon="4.858922213218929"><ele>185.0</ele><time>2026-04-28T15:11:30.999Z</time></trkpt><trkpt lat="45.82343418709113" lon="4.858935088677992"><ele>185.0</ele><time>2026-04-28T15:11:31.999Z</time></trkpt><trkpt lat="45.823364433047274" lon="4.85894081284802"><ele>185.0</ele><time>2026-04-28T15:11:32.999Z</time></trkpt><trkpt lat="45.82329439010933" lon="4.858947955945784"><ele>185.0</ele><time>2026-04-28T15:11:33.999Z</time></trkpt><trkpt lat="45.82322368249858" lon="4.858957368099314"><ele>184.99999999999997</ele><time>2026-04-28T15:11:34.999Z</time></trkpt><trkpt lat="45.82315242114869" lon="4.85895595093164"><ele>185.0</ele><time>2026-04-28T15:11:35.999Z</time></trkpt><trkpt lat="45.82307638380413" lon="4.8589524226410195"><ele>184.85714285714283</ele><time>2026-04-28T15:11:36.999Z</time></trkpt><trkpt lat="45.82301157273362" lon="4.858952078364095"><ele>184.71428571428572</ele><time>2026-04-28T15:11:37.999Z</time></trkpt><trkpt lat="45.822938287924934" lon="4.858950228989164"><ele>184.57142857142856</ele><time>2026-04-28T15:11:38.999Z</time></trkpt><trkpt lat="45.8228660519171" lon="4.858947539595498"><ele>184.42857142857142</ele><time>2026-04-28T15:11:39.999Z</time></trkpt><trkpt lat="45.82280041580523" lon="4.858950437520496"><ele>184.28571428571428</ele><time>2026-04-28T15:11:40.999Z</time></trkpt><trkpt lat="45.82273348857605" lon="4.858962661983585"><ele>184.14285714285714</ele><time>2026-04-28T15:11:41.999Z</time></trkpt><trkpt lat="45.822661441551645" lon="4.858962237917103"><ele>184.0</ele><time>2026-04-28T15:11:42.999Z</time></trkpt><trkpt lat="45.82258539635732" lon="4.858955252366398"><ele>183.57142857142858</ele><time>2026-04-28T15:11:43.999Z</time></trkpt><trkpt lat="45.822520009610166" lon="4.858958984423322"><ele>183.14285714285714</ele><time>2026-04-28T15:11:44.999Z</time></trkpt><trkpt lat="45.82244560732499" lon="4.85895140505225"><ele>182.71428571428572</ele><time>2026-04-28T15:11:45.999Z</time></trkpt><trkpt lat="45.82237161461191" lon="4.858936116872814"><ele>182.28571428571428</ele><time>2026-04-28T15:11:46.999Z</time></trkpt><trkpt lat="45.82230203286113" lon="4.858911768449662"><ele>181.85714285714283</ele><time>2026-04-28T15:11:47.999Z</time></trkpt><trkpt lat="45.82223626827199" lon="4.8588973771469215"><ele>181.42857142857142</ele><time>2026-04-28T15:11:48.999Z</time></trkpt><trkpt lat="45.82216492509903" lon="4.8588826718435705"><ele>181.0</ele><time>2026-04-28T15:11:49.999Z</time></trkpt><trkpt lat="45.822093735859724" lon="4.858866309751551"><ele>181.0</ele><time>2026-04-28T15:11:50.999Z</time></trkpt><trkpt lat="45.82203011982501" lon="4.858851716272023"><ele>181.0</ele><time>2026-04-28T15:11:51.999Z</time></trkpt><trkpt lat="45.82196124383818" lon="4.85884108518315"><ele>181.0</ele><time>2026-04-28T15:11:52.999Z</time></trkpt><trkpt lat="45.82189107787322" lon="4.85882653897458"><ele>181.0</ele><time>2026-04-28T15:11:53.999Z</time></trkpt><trkpt lat="45.821755069442005" lon="4.8588000841159715"><ele>181.0</ele><time>2026-04-28T15:11:55.999Z</time></trkpt><trkpt lat="45.82168973470125" lon="4.858785129005633"><ele>181.0</ele><time>2026-04-28T15:11:56.999Z</time></trkpt><trkpt lat="45.82161817325472" lon="4.858769888038607"><ele>182.42857142857142</ele><time>2026-04-28T15:11:57.999Z</time></trkpt><trkpt lat="45.82154769988906" lon="4.858743202938234"><ele>183.85714285714283</ele><time>2026-04-28T15:11:58.999Z</time></trkpt><trkpt lat="45.82147219858889" lon="4.858709421628264"><ele>185.28571428571428</ele><time>2026-04-28T15:11:59.999Z</time></trkpt><trkpt lat="45.8214087912626" lon="4.858672590463334"><ele>186.71428571428572</ele><time>2026-04-28T15:12:00.999Z</time></trkpt><trkpt lat="45.821346735164234" lon="4.858649157377614"><ele>188.14285714285714</ele><time>2026-04-28T15:12:01.999Z</time></trkpt><trkpt lat="45.821279309224124" lon="4.858624042747943"><ele>189.57142857142858</ele><time>2026-04-28T15:12:02.999Z</time></trkpt><trkpt lat="45.82120605917487" lon="4.858586729492298"><ele>191.0</ele><time>2026-04-28T15:12:03.999Z</time></trkpt><trkpt lat="45.82114318236684" lon="4.858557363385654"><ele>191.0</ele><time>2026-04-28T15:12:04.999Z</time></trkpt><trkpt lat="45.821071256064" lon="4.858535180133152"><ele>191.0</ele><time>2026-04-28T15:12:05.999Z</time></trkpt><trkpt lat="45.821004368037684" lon="4.858493872203545"><ele>191.0</ele><time>2026-04-28T15:12:06.999Z</time></trkpt><trkpt lat="45.820933759153206" lon="4.858477023559341"><ele>191.0</ele><time>2026-04-28T15:12:07.999Z</time></trkpt><trkpt lat="45.820866117434754" lon="4.8584522277964055"><ele>191.0</ele><time>2026-04-28T15:12:08.999Z</time></trkpt><trkpt lat="45.82079550051875" lon="4.858418037245328"><ele>191.0</ele><time>2026-04-28T15:12:09.999Z</time></trkpt><trkpt lat="45.820724333392576" lon="4.858393245640723"><ele>191.0</ele><time>2026-04-28T15:12:10.999Z</time></trkpt><trkpt lat="45.82064724854347" lon="4.858377103739435"><ele>188.2857142857143</ele><time>2026-04-28T15:12:11.999Z</time></trkpt><trkpt lat="45.82057742342535" lon="4.858342916775443"><ele>185.57142857142856</ele><time>2026-04-28T15:12:12.999Z</time></trkpt><trkpt lat="45.8205072348249" lon="4.858326013109797"><ele>182.85714285714286</ele><time>2026-04-28T15:12:13.999Z</time></trkpt><trkpt lat="45.82044392605022" lon="4.85830373454736"><ele>180.14285714285717</ele><time>2026-04-28T15:12:14.999Z</time></trkpt><trkpt lat="45.820374576023305" lon="4.858281870140883"><ele>177.42857142857144</ele><time>2026-04-28T15:12:15.999Z</time></trkpt><trkpt lat="45.82030342170399" lon="4.858252238484696"><ele>174.71428571428572</ele><time>2026-04-28T15:12:16.999Z</time></trkpt><trkpt lat="45.820230748925106" lon="4.858226439826185"><ele>172.0</ele><time>2026-04-28T15:12:17.999Z</time></trkpt><trkpt lat="45.82015689923992" lon="4.858202119572041"><ele>173.0</ele><time>2026-04-28T15:12:18.999Z</time></trkpt><trkpt lat="45.82008932947773" lon="4.85818507931627"><ele>174.0</ele><time>2026-04-28T15:12:19.999Z</time></trkpt><trkpt lat="45.82001999448153" lon="4.858167742495279"><ele>175.0</ele><time>2026-04-28T15:12:20.999Z</time></trkpt><trkpt lat="45.819898990084894" lon="4.858114421972489"><ele>176.0</ele><time>2026-04-28T15:12:22.999Z</time></trkpt><trkpt lat="45.819832538610235" lon="4.858083707200549"><ele>177.0</ele><time>2026-04-28T15:12:23.999Z</time></trkpt><trkpt lat="45.81976720860455" lon="4.858058609893778"><ele>178.0</ele><time>2026-04-28T15:12:24.999Z</time></trkpt><trkpt lat="45.819703817771284" lon="4.858034245146816"><ele>177.99999999999997</ele><time>2026-04-28T15:12:25.999Z</time></trkpt><trkpt lat="45.81963913099037" lon="4.8580147125028486"><ele>178.0</ele><time>2026-04-28T15:12:26.999Z</time></trkpt><trkpt lat="45.81957285082981" lon="4.857987592715788"><ele>178.0</ele><time>2026-04-28T15:12:27.999Z</time></trkpt><trkpt lat="45.81950890850514" lon="4.857961511226052"><ele>178.0</ele><time>2026-04-28T15:12:28.999Z</time></trkpt><trkpt lat="45.819437266184075" lon="4.857932867030521"><ele>178.0</ele><time>2026-04-28T15:12:29.999Z</time></trkpt><trkpt lat="45.8193749084375" lon="4.857906748924195"><ele>177.99999999999997</ele><time>2026-04-28T15:12:30.999Z</time></trkpt><trkpt lat="45.81930849668355" lon="4.857873959201204"><ele>178.0</ele><time>2026-04-28T15:12:31.999Z</time></trkpt><trkpt lat="45.81918936574357" lon="4.85780463430126"><ele>176.33333333333334</ele><time>2026-04-28T15:12:33.999Z</time></trkpt><trkpt lat="45.819132217578606" lon="4.8577598075639346"><ele>174.66666666666669</ele><time>2026-04-28T15:12:34.999Z</time></trkpt><trkpt lat="45.81902031363793" lon="4.8576690922249615"><ele>173.0</ele><time>2026-04-28T15:12:36.999Z</time></trkpt><trkpt lat="45.81896485242426" lon="4.857614407400059"><ele>171.33333333333334</ele><time>2026-04-28T15:12:37.998Z</time></trkpt><trkpt lat="45.81890736242454" lon="4.857567905940591"><ele>169.66666666666666</ele><time>2026-04-28T15:12:38.998Z</time></trkpt><trkpt lat="45.8188446317009" lon="4.857522737214169"><ele>168.0</ele><time>2026-04-28T15:12:39.998Z</time></trkpt><trkpt lat="45.81878837695381" lon="4.857465350388486"><ele>168.0</ele><time>2026-04-28T15:12:41Z</time></trkpt><trkpt lat="45.81872990165069" lon="4.857424069628389"><ele>168.0</ele><time>2026-04-28T15:12:42Z</time></trkpt><trkpt lat="45.81866704413147" lon="4.857377029672719"><ele>168.0</ele><time>2026-04-28T15:12:43Z</time></trkpt><trkpt lat="45.8186026151412" lon="4.857327692206344"><ele>168.0</ele><time>2026-04-28T15:12:44Z</time></trkpt><trkpt lat="45.81853687257275" lon="4.857280206094133"><ele>168.0</ele><time>2026-04-28T15:12:45Z</time></trkpt><trkpt lat="45.818482009522775" lon="4.85722909634198"><ele>168.0</ele><time>2026-04-28T15:12:46Z</time></trkpt><trkpt lat="45.818415162620916" lon="4.857176961460376"><ele>168.0</ele><time>2026-04-28T15:12:47Z</time></trkpt><trkpt lat="45.81834813114241" lon="4.857124042288251"><ele>167.57142857142858</ele><time>2026-04-28T15:12:48Z</time></trkpt><trkpt lat="45.81828553190009" lon="4.857075390930804"><ele>167.14285714285714</ele><time>2026-04-28T15:12:49Z</time></trkpt><trkpt lat="45.818228085852276" lon="4.857025350124959"><ele>166.71428571428572</ele><time>2026-04-28T15:12:50Z</time></trkpt><trkpt lat="45.81816522445625" lon="4.856976593553702"><ele>166.28571428571428</ele><time>2026-04-28T15:12:51Z</time></trkpt><trkpt lat="45.818108260228286" lon="4.856929077955886"><ele>165.85714285714286</ele><time>2026-04-28T15:12:52Z</time></trkpt><trkpt lat="45.81804106610094" lon="4.856878213783641"><ele>165.42857142857144</ele><time>2026-04-28T15:12:53Z</time></trkpt><trkpt lat="45.817978700281365" lon="4.856826841145422"><ele>165.0</ele><time>2026-04-28T15:12:54Z</time></trkpt><trkpt lat="45.817919386829516" lon="4.856774930131"><ele>165.00000000000003</ele><time>2026-04-28T15:12:55Z</time></trkpt><trkpt lat="45.81785837230398" lon="4.856733367679667"><ele>165.0</ele><time>2026-04-28T15:12:56Z</time></trkpt><trkpt lat="45.81779516070753" lon="4.856683414396119"><ele>165.0</ele><time>2026-04-28T15:12:57Z</time></trkpt><trkpt lat="45.817729733470976" lon="4.856620327127683"><ele>165.0</ele><time>2026-04-28T15:12:58Z</time></trkpt><trkpt lat="45.817670810711626" lon="4.856567412221154"><ele>165.0</ele><time>2026-04-28T15:12:59Z</time></trkpt><trkpt lat="45.817602605923625" lon="4.856512696762775"><ele>165.00000000000003</ele><time>2026-04-28T15:13:00Z</time></trkpt><trkpt lat="45.81755250785513" lon="4.856452969252507"><ele>165.0</ele><time>2026-04-28T15:13:01Z</time></trkpt><trkpt lat="45.81750254903415" lon="4.856384723479924"><ele>167.42857142857144</ele><time>2026-04-28T15:13:02Z</time></trkpt><trkpt lat="45.81744622562454" lon="4.8563224062331365"><ele>169.85714285714286</ele><time>2026-04-28T15:13:03Z</time></trkpt><trkpt lat="45.817394066966955" lon="4.856261892286272"><ele>172.28571428571428</ele><time>2026-04-28T15:13:04Z</time></trkpt><trkpt lat="45.817340269319224" lon="4.856199592127033"><ele>174.71428571428572</ele><time>2026-04-28T15:13:05Z</time></trkpt><trkpt lat="45.817287812572395" lon="4.856140377372785"><ele>177.14285714285714</ele><time>2026-04-28T15:13:06Z</time></trkpt><trkpt lat="45.8172347338595" lon="4.856078393923211"><ele>179.57142857142858</ele><time>2026-04-28T15:13:07Z</time></trkpt><trkpt lat="45.81717764208223" lon="4.856021206662722"><ele>182.0</ele><time>2026-04-28T15:13:08Z</time></trkpt><trkpt lat="45.81712632996716" lon="4.855953959317542"><ele>184.0</ele><time>2026-04-28T15:13:09Z</time></trkpt><trkpt lat="45.817068397904585" lon="4.855885844745355"><ele>186.0</ele><time>2026-04-28T15:13:10Z</time></trkpt><trkpt lat="45.81701079791315" lon="4.855820379646012"><ele>188.0</ele><time>2026-04-28T15:13:11Z</time></trkpt><trkpt lat="45.81695177605735" lon="4.855750573586448"><ele>190.0</ele><time>2026-04-28T15:13:12Z</time></trkpt><trkpt lat="45.81690058006553" lon="4.855671003110979"><ele>192.0</ele><time>2026-04-28T15:13:13Z</time></trkpt><trkpt lat="45.81685106638051" lon="4.855591998254902"><ele>194.0</ele><time>2026-04-28T15:13:14Z</time></trkpt><trkpt lat="45.81680211510245" lon="4.855515353195836"><ele>196.0</ele><time>2026-04-28T15:13:15Z</time></trkpt><trkpt lat="45.816757062890744" lon="4.855431824521974"><ele>196.0</ele><time>2026-04-28T15:13:16Z</time></trkpt><trkpt lat="45.81671958812597" lon="4.85534962382273"><ele>196.0</ele><time>2026-04-28T15:13:17Z</time></trkpt><trkpt lat="45.81666532710145" lon="4.8552779577095775"><ele>196.0</ele><time>2026-04-28T15:13:18Z</time></trkpt><trkpt lat="45.81662594596667" lon="4.855189904420421"><ele>196.0</ele><time>2026-04-28T15:13:19Z</time></trkpt><trkpt lat="45.81658682083824" lon="4.855098929713928"><ele>196.0</ele><time>2026-04-28T15:13:20Z</time></trkpt><trkpt lat="45.816542472642105" lon="4.8550116816903675"><ele>196.0</ele><time>2026-04-28T15:13:21Z</time></trkpt><trkpt lat="45.81649532219126" lon="4.854924767778976"><ele>196.0</ele><time>2026-04-28T15:13:22Z</time></trkpt><trkpt lat="45.81645347202212" lon="4.854834701843387"><ele>192.85714285714286</ele><time>2026-04-28T15:13:23Z</time></trkpt><trkpt lat="45.81641515323194" lon="4.85474885604715"><ele>189.71428571428572</ele><time>2026-04-28T15:13:24Z</time></trkpt><trkpt lat="45.81636497777749" lon="4.854668534185827"><ele>186.57142857142856</ele><time>2026-04-28T15:13:25Z</time></trkpt><trkpt lat="45.816323406104424" lon="4.854580344048905"><ele>183.42857142857144</ele><time>2026-04-28T15:13:26Z</time></trkpt><trkpt lat="45.81628204041377" lon="4.8544981518907075"><ele>180.28571428571428</ele><time>2026-04-28T15:13:27Z</time></trkpt><trkpt lat="45.816236836787" lon="4.854414643709805"><ele>177.14285714285714</ele><time>2026-04-28T15:13:28Z</time></trkpt><trkpt lat="45.816191928586306" lon="4.854326669703227"><ele>174.0</ele><time>2026-04-28T15:13:29Z</time></trkpt><trkpt lat="45.816148422236964" lon="4.854242100578364"><ele>172.66666666666666</ele><time>2026-04-28T15:13:30Z</time></trkpt><trkpt lat="45.81610643123814" lon="4.854162105838313"><ele>171.33333333333334</ele><time>2026-04-28T15:13:31Z</time></trkpt><trkpt lat="45.816057718215085" lon="4.8540651555670795"><ele>170.0</ele><time>2026-04-28T15:13:32Z</time></trkpt><trkpt lat="45.81601508442199" lon="4.853976918696881"><ele>168.66666666666669</ele><time>2026-04-28T15:13:32.999Z</time></trkpt><trkpt lat="45.81597444474554" lon="4.853889004249767"><ele>167.33333333333334</ele><time>2026-04-28T15:13:33.999Z</time></trkpt><trkpt lat="45.815937601730965" lon="4.853785990241991"><ele>166.0</ele><time>2026-04-28T15:13:34.999Z</time></trkpt><trkpt lat="45.81589908171574" lon="4.8536867068771405"><ele>167.16666666666669</ele><time>2026-04-28T15:13:35.999Z</time></trkpt><trkpt lat="45.81586565793853" lon="4.853588311863541"><ele>168.33333333333334</ele><time>2026-04-28T15:13:36.999Z</time></trkpt><trkpt lat="45.815829916104214" lon="4.853489176156784"><ele>169.5</ele><time>2026-04-28T15:13:37.999Z</time></trkpt><trkpt lat="45.815786030806045" lon="4.853398147077878"><ele>170.66666666666666</ele><time>2026-04-28T15:13:38.999Z</time></trkpt><trkpt lat="45.81574275108495" lon="4.85329280088313"><ele>171.83333333333331</ele><time>2026-04-28T15:13:39.999Z</time></trkpt><trkpt lat="45.81570630552388" lon="4.853189341823039"><ele>173.0</ele><time>2026-04-28T15:13:40.999Z</time></trkpt><trkpt lat="45.81566485513212" lon="4.853089680563275"><ele>173.0</ele><time>2026-04-28T15:13:41.999Z</time></trkpt><trkpt lat="45.81561967980833" lon="4.852999655799089"><ele>173.0</ele><time>2026-04-28T15:13:42.999Z</time></trkpt><trkpt lat="45.81558487643542" lon="4.852901755176194"><ele>173.0</ele><time>2026-04-28T15:13:43.999Z</time></trkpt><trkpt lat="45.81553920826464" lon="4.8528123952934825"><ele>173.0</ele><time>2026-04-28T15:13:44.999Z</time></trkpt><trkpt lat="45.81550063019534" lon="4.852723459921432"><ele>173.0</ele><time>2026-04-28T15:13:45.999Z</time></trkpt><trkpt lat="45.81545185693177" lon="4.852640850403479"><ele>173.0</ele><time>2026-04-28T15:13:46.999Z</time></trkpt><trkpt lat="45.81540630407588" lon="4.852559879988554"><ele>172.0</ele><time>2026-04-28T15:13:47.999Z</time></trkpt><trkpt lat="45.81536089822139" lon="4.852483550873202"><ele>171.0</ele><time>2026-04-28T15:13:48.999Z</time></trkpt><trkpt lat="45.815311334000896" lon="4.852405008566921"><ele>170.0</ele><time>2026-04-28T15:13:49.999Z</time></trkpt><trkpt lat="45.81526422928945" lon="4.852330638254141"><ele>169.0</ele><time>2026-04-28T15:13:50.999Z</time></trkpt><trkpt lat="45.815217181928645" lon="4.852258102167703"><ele>168.0</ele><time>2026-04-28T15:13:51.999Z</time></trkpt><trkpt lat="45.81516657765301" lon="4.852184428642937"><ele>167.0</ele><time>2026-04-28T15:13:52.999Z</time></trkpt><trkpt lat="45.8151250912729" lon="4.85210832459351"><ele>166.0</ele><time>2026-04-28T15:13:53.999Z</time></trkpt><trkpt lat="45.815082360097485" lon="4.852038051244655"><ele>167.57142857142856</ele><time>2026-04-28T15:13:54.999Z</time></trkpt><trkpt lat="45.81503659473492" lon="4.851963454785136"><ele>169.14285714285717</ele><time>2026-04-28T15:13:55.999Z</time></trkpt><trkpt lat="45.81499375620907" lon="4.851892822839235"><ele>170.71428571428572</ele><time>2026-04-28T15:13:56.999Z</time></trkpt><trkpt lat="45.81495484035418" lon="4.851818985934798"><ele>172.28571428571428</ele><time>2026-04-28T15:13:57.999Z</time></trkpt><trkpt lat="45.81491117265857" lon="4.851741843388205"><ele>173.85714285714283</ele><time>2026-04-28T15:13:58.999Z</time></trkpt><trkpt lat="45.814875742965434" lon="4.8516653571956345"><ele>175.42857142857144</ele><time>2026-04-28T15:13:59.999Z</time></trkpt><trkpt lat="45.814841849968325" lon="4.851583905207938"><ele>177.0</ele><time>2026-04-28T15:14:00.999Z</time></trkpt><trkpt lat="45.814808915881585" lon="4.851503916665091"><ele>177.0</ele><time>2026-04-28T15:14:01.999Z</time></trkpt><trkpt lat="45.814776632393645" lon="4.85142405431586"><ele>177.0</ele><time>2026-04-28T15:14:02.999Z</time></trkpt><trkpt lat="45.814711495853835" lon="4.851269507175929"><ele>177.0</ele><time>2026-04-28T15:14:04.999Z</time></trkpt><trkpt lat="45.81468121040476" lon="4.851186168322048"><ele>177.0</ele><time>2026-04-28T15:14:05.999Z</time></trkpt><trkpt lat="45.81464800414653" lon="4.851105751755675"><ele>177.0</ele><time>2026-04-28T15:14:06.999Z</time></trkpt><trkpt lat="45.81461690265346" lon="4.851024911251174"><ele>177.0</ele><time>2026-04-28T15:14:07.999Z</time></trkpt><trkpt lat="45.81455126424933" lon="4.850873401968021"><ele>174.25</ele><time>2026-04-28T15:14:09.999Z</time></trkpt><trkpt lat="45.8144913481169" lon="4.850717981072926"><ele>171.5</ele><time>2026-04-28T15:14:11.999Z</time></trkpt><trkpt lat="45.81442706821072" lon="4.850567541098038"><ele>168.75</ele><time>2026-04-28T15:14:13.999Z</time></trkpt><trkpt lat="45.81436574333991" lon="4.8504183512879315"><ele>166.0</ele><time>2026-04-28T15:14:15.999Z</time></trkpt><trkpt lat="45.814298709268336" lon="4.8502692160465175"><ele>169.25</ele><time>2026-04-28T15:14:17.999Z</time></trkpt><trkpt lat="45.81423829737539" lon="4.850115517617236"><ele>172.5</ele><time>2026-04-28T15:14:19.999Z</time></trkpt><trkpt lat="45.81417227784532" lon="4.849974476675462"><ele>175.75</ele><time>2026-04-28T15:14:21.999Z</time></trkpt><trkpt lat="45.81410501611343" lon="4.8498308924922675"><ele>179.0</ele><time>2026-04-28T15:14:23.999Z</time></trkpt><trkpt lat="45.81404218211582" lon="4.849689584927527"><ele>179.0</ele><time>2026-04-28T15:14:25.999Z</time></trkpt><trkpt lat="45.81397880786435" lon="4.8495543939629755"><ele>179.0</ele><time>2026-04-28T15:14:27.999Z</time></trkpt><trkpt lat="45.81391891102849" lon="4.849417560054508"><ele>179.0</ele><time>2026-04-28T15:14:29.999Z</time></trkpt><trkpt lat="45.813863598999625" lon="4.849289665566815"><ele>179.0</ele><time>2026-04-28T15:14:31.999Z</time></trkpt><trkpt lat="45.813818014643395" lon="4.8491788701588066"><ele>179.0</ele><time>2026-04-28T15:14:33.999Z</time></trkpt><trkpt lat="45.81375934937275" lon="4.849046896255972"><ele>178.0</ele><time>2026-04-28T15:14:35.999Z</time></trkpt><trkpt lat="45.81369412470887" lon="4.848901662887091"><ele>177.0</ele><time>2026-04-28T15:14:37.999Z</time></trkpt><trkpt lat="45.81362352508023" lon="4.848755670021558"><ele>176.0</ele><time>2026-04-28T15:14:39.999Z</time></trkpt><trkpt lat="45.81355261966783" lon="4.848615651067358"><ele>175.0</ele><time>2026-04-28T15:14:41.999Z</time></trkpt><trkpt lat="45.813487188612015" lon="4.848499889572226"><ele>174.16666666666669</ele><time>2026-04-28T15:14:43.999Z</time></trkpt><trkpt lat="45.813433343080234" lon="4.8484005995051165"><ele>173.33333333333334</ele><time>2026-04-28T15:14:45.998Z</time></trkpt><trkpt lat="45.813381952065306" lon="4.848317979734861"><ele>172.5</ele><time>2026-04-28T15:14:48Z</time></trkpt><trkpt lat="45.81332853106712" lon="4.848228887452165"><ele>171.66666666666666</ele><time>2026-04-28T15:14:50Z</time></trkpt><trkpt lat="45.813263564173035" lon="4.848122229574281"><ele>170.83333333333331</ele><time>2026-04-28T15:14:52Z</time></trkpt><trkpt lat="45.813207603650106" lon="4.848021730602264"><ele>170.0</ele><time>2026-04-28T15:14:54Z</time></trkpt><trkpt lat="45.81314443088005" lon="4.847940517905162"><ele>170.0</ele><time>2026-04-28T15:14:55Z</time></trkpt><trkpt lat="45.81305113150032" lon="4.847825462234066"><ele>170.0</ele><time>2026-04-28T15:14:57Z</time></trkpt><trkpt lat="45.81300062009998" lon="4.8477604046523926"><ele>170.0</ele><time>2026-04-28T15:14:58Z</time></trkpt><trkpt lat="45.81294901246544" lon="4.847693206671972"><ele>170.0</ele><time>2026-04-28T15:14:59Z</time></trkpt><trkpt lat="45.81289748186658" lon="4.847628364249126"><ele>170.0</ele><time>2026-04-28T15:15:00Z</time></trkpt><trkpt lat="45.812848354832354" lon="4.847559567666001"><ele>170.0</ele><time>2026-04-28T15:15:01Z</time></trkpt><trkpt lat="45.81279392560346" lon="4.847489678991667"><ele>169.71428571428572</ele><time>2026-04-28T15:15:02Z</time></trkpt><trkpt lat="45.812744749218865" lon="4.84742026571847"><ele>169.42857142857142</ele><time>2026-04-28T15:15:03Z</time></trkpt><trkpt lat="45.81269474383599" lon="4.84735132583742"><ele>169.14285714285714</ele><time>2026-04-28T15:15:04Z</time></trkpt><trkpt lat="45.8126360414195" lon="4.847277802791656"><ele>168.85714285714286</ele><time>2026-04-28T15:15:05Z</time></trkpt><trkpt lat="45.81258118624914" lon="4.847213009435928"><ele>168.57142857142856</ele><time>2026-04-28T15:15:06Z</time></trkpt><trkpt lat="45.81253042594185" lon="4.847141948857907"><ele>168.28571428571428</ele><time>2026-04-28T15:15:07Z</time></trkpt><trkpt lat="45.812477267399416" lon="4.847072019707875"><ele>168.0</ele><time>2026-04-28T15:15:08Z</time></trkpt><trkpt lat="45.81242470730717" lon="4.84699791220957"><ele>168.0</ele><time>2026-04-28T15:15:09Z</time></trkpt><trkpt lat="45.812372280924805" lon="4.846929299240814"><ele>168.0</ele><time>2026-04-28T15:15:10Z</time></trkpt><trkpt lat="45.8123178459818" lon="4.846862853182612"><ele>168.0</ele><time>2026-04-28T15:15:11Z</time></trkpt><trkpt lat="45.812263325415806" lon="4.8467994674930175"><ele>168.0</ele><time>2026-04-28T15:15:12Z</time></trkpt><trkpt lat="45.812209870291156" lon="4.846733333732749"><ele>168.0</ele><time>2026-04-28T15:15:13Z</time></trkpt><trkpt lat="45.812152960271945" lon="4.8466667524241105"><ele>168.0</ele><time>2026-04-28T15:15:14Z</time></trkpt><trkpt lat="45.812095070470164" lon="4.846602005308301"><ele>168.0</ele><time>2026-04-28T15:15:15Z</time></trkpt><trkpt lat="45.81203557842874" lon="4.846543236088669"><ele>168.14285714285714</ele><time>2026-04-28T15:15:16Z</time></trkpt><trkpt lat="45.8119798683593" lon="4.846481718630985"><ele>168.28571428571428</ele><time>2026-04-28T15:15:17Z</time></trkpt><trkpt lat="45.81192376202421" lon="4.846415688568475"><ele>168.42857142857144</ele><time>2026-04-28T15:15:18Z</time></trkpt><trkpt lat="45.81186932325153" lon="4.846343791298075"><ele>168.57142857142856</ele><time>2026-04-28T15:15:19Z</time></trkpt><trkpt lat="45.81181599581103" lon="4.84627716605155"><ele>168.71428571428572</ele><time>2026-04-28T15:15:20Z</time></trkpt><trkpt lat="45.81176344078813" lon="4.846208457473373"><ele>168.85714285714286</ele><time>2026-04-28T15:15:21Z</time></trkpt><trkpt lat="45.81170410339245" lon="4.846143932342531"><ele>169.0</ele><time>2026-04-28T15:15:22Z</time></trkpt><trkpt lat="45.81164190801025" lon="4.846077540462152"><ele>169.0</ele><time>2026-04-28T15:15:23Z</time></trkpt><trkpt lat="45.81158359510813" lon="4.84601500599488"><ele>169.0</ele><time>2026-04-28T15:15:24Z</time></trkpt><trkpt lat="45.811524189412594" lon="4.845952609407829"><ele>169.0</ele><time>2026-04-28T15:15:25Z</time></trkpt><trkpt lat="45.811463752037625" lon="4.845889133455132"><ele>169.0</ele><time>2026-04-28T15:15:26Z</time></trkpt><trkpt lat="45.8114035781675" lon="4.845828164543605"><ele>169.0</ele><time>2026-04-28T15:15:27Z</time></trkpt><trkpt lat="45.81134408539378" lon="4.845766301580471"><ele>169.0</ele><time>2026-04-28T15:15:28Z</time></trkpt><trkpt lat="45.81128442995844" lon="4.845706415943695"><ele>169.0</ele><time>2026-04-28T15:15:29Z</time></trkpt><trkpt lat="45.8112248964778" lon="4.845657316408118"><ele>168.42857142857144</ele><time>2026-04-28T15:15:30Z</time></trkpt><trkpt lat="45.81116377561335" lon="4.84560545691987"><ele>167.85714285714286</ele><time>2026-04-28T15:15:31Z</time></trkpt><trkpt lat="45.81109569125809" lon="4.845545212465651"><ele>167.28571428571428</ele><time>2026-04-28T15:15:32Z</time></trkpt><trkpt lat="45.81103836109989" lon="4.845493753253033"><ele>166.71428571428572</ele><time>2026-04-28T15:15:33Z</time></trkpt><trkpt lat="45.810977897312036" lon="4.845444673523833"><ele>166.14285714285714</ele><time>2026-04-28T15:15:34Z</time></trkpt><trkpt lat="45.81091169792159" lon="4.845394126495684"><ele>165.57142857142858</ele><time>2026-04-28T15:15:35Z</time></trkpt><trkpt lat="45.81084898709961" lon="4.845342252986429"><ele>165.0</ele><time>2026-04-28T15:15:36Z</time></trkpt><trkpt lat="45.81078428906636" lon="4.845292991657202"><ele>165.42857142857144</ele><time>2026-04-28T15:15:36.999Z</time></trkpt><trkpt lat="45.81071402532438" lon="4.845239639846815"><ele>165.85714285714286</ele><time>2026-04-28T15:15:37.999Z</time></trkpt><trkpt lat="45.8106583933464" lon="4.84518365237493"><ele>166.28571428571428</ele><time>2026-04-28T15:15:38.999Z</time></trkpt><trkpt lat="45.81059533514019" lon="4.845138904617676"><ele>166.71428571428572</ele><time>2026-04-28T15:15:39.999Z</time></trkpt><trkpt lat="45.810528713351744" lon="4.845090768297127"><ele>167.14285714285714</ele><time>2026-04-28T15:15:40.999Z</time></trkpt><trkpt lat="45.810465787363206" lon="4.845043386564244"><ele>167.57142857142858</ele><time>2026-04-28T15:15:41.999Z</time></trkpt><trkpt lat="45.81040120271274" lon="4.844998806822303"><ele>168.0</ele><time>2026-04-28T15:15:42.999Z</time></trkpt><trkpt lat="45.810335133759864" lon="4.844955273884951"><ele>168.0</ele><time>2026-04-28T15:15:43.999Z</time></trkpt><trkpt lat="45.81026924642976" lon="4.844905511627294"><ele>168.0</ele><time>2026-04-28T15:15:44.999Z</time></trkpt><trkpt lat="45.81020032326384" lon="4.844862136425271"><ele>168.0</ele><time>2026-04-28T15:15:45.999Z</time></trkpt><trkpt lat="45.81013196962465" lon="4.844821241821012"><ele>168.0</ele><time>2026-04-28T15:15:46.999Z</time></trkpt><trkpt lat="45.81006654343427" lon="4.844774768341999"><ele>168.0</ele><time>2026-04-28T15:15:47.999Z</time></trkpt><trkpt lat="45.81000311798558" lon="4.844729953128261"><ele>168.0</ele><time>2026-04-28T15:15:48.999Z</time></trkpt><trkpt lat="45.80993511554632" lon="4.844684723724659"><ele>168.0</ele><time>2026-04-28T15:15:49.999Z</time></trkpt><trkpt lat="45.809870379108744" lon="4.8446267895230735"><ele>167.85714285714286</ele><time>2026-04-28T15:15:50.999Z</time></trkpt><trkpt lat="45.809802924568615" lon="4.8445797670642285"><ele>167.71428571428572</ele><time>2026-04-28T15:15:51.999Z</time></trkpt><trkpt lat="45.80973779416418" lon="4.844530418952749"><ele>167.57142857142856</ele><time>2026-04-28T15:15:52.999Z</time></trkpt><trkpt lat="45.80967001376072" lon="4.8444798956031745"><ele>167.42857142857144</ele><time>2026-04-28T15:15:53.999Z</time></trkpt><trkpt lat="45.809607297907576" lon="4.844426415916661"><ele>167.28571428571428</ele><time>2026-04-28T15:15:54.999Z</time></trkpt><trkpt lat="45.80954907204005" lon="4.844370129735092"><ele>167.14285714285714</ele><time>2026-04-28T15:15:55.999Z</time></trkpt><trkpt lat="45.80947826915495" lon="4.84432060667922"><ele>167.0</ele><time>2026-04-28T15:15:56.999Z</time></trkpt><trkpt lat="45.809420145456265" lon="4.844264922344733"><ele>168.33333333333331</ele><time>2026-04-28T15:15:57.999Z</time></trkpt><trkpt lat="45.8092962036288" lon="4.844193544470674"><ele>169.66666666666666</ele><time>2026-04-28T15:15:59.999Z</time></trkpt><trkpt lat="45.80921737490271" lon="4.84415922187825"><ele>171.0</ele><time>2026-04-28T15:16:00.999Z</time></trkpt><trkpt lat="45.80914306932352" lon="4.844135744085858"><ele>172.33333333333334</ele><time>2026-04-28T15:16:01.999Z</time></trkpt><trkpt lat="45.809069252825026" lon="4.84411490148643"><ele>173.66666666666669</ele><time>2026-04-28T15:16:02.999Z</time></trkpt><trkpt lat="45.80899927127276" lon="4.844108210951606"><ele>175.0</ele><time>2026-04-28T15:16:03.999Z</time></trkpt><trkpt lat="45.80892790705824" lon="4.844092893591438"><ele>175.0</ele><time>2026-04-28T15:16:04.999Z</time></trkpt><trkpt lat="45.80885239773378" lon="4.844085847832592"><ele>175.0</ele><time>2026-04-28T15:16:05.999Z</time></trkpt><trkpt lat="45.80878340009466" lon="4.84405812822909"><ele>175.0</ele><time>2026-04-28T15:16:06.999Z</time></trkpt><trkpt lat="45.808713212491114" lon="4.844040626552185"><ele>175.0</ele><time>2026-04-28T15:16:07.999Z</time></trkpt><trkpt lat="45.808640111432" lon="4.844027925020977"><ele>175.0</ele><time>2026-04-28T15:16:08.999Z</time></trkpt><trkpt lat="45.80857526982035" lon="4.84403473968058"><ele>175.0</ele><time>2026-04-28T15:16:09.999Z</time></trkpt><trkpt lat="45.808504744940386" lon="4.844018416839997"><ele>175.0</ele><time>2026-04-28T15:16:10.999Z</time></trkpt><trkpt lat="45.808433275996144" lon="4.844003211395262"><ele>174.66666666666669</ele><time>2026-04-28T15:16:11.999Z</time></trkpt><trkpt lat="45.80835783647712" lon="4.843984206217279"><ele>174.33333333333334</ele><time>2026-04-28T15:16:12.999Z</time></trkpt><trkpt lat="45.808281225556904" lon="4.843968971658483"><ele>174.0</ele><time>2026-04-28T15:16:13.999Z</time></trkpt><trkpt lat="45.8082114005668" lon="4.843955530909025"><ele>173.66666666666666</ele><time>2026-04-28T15:16:14.999Z</time></trkpt><trkpt lat="45.808086839219264" lon="4.843925549929742"><ele>173.33333333333331</ele><time>2026-04-28T15:16:16.999Z</time></trkpt><trkpt lat="45.80800615095755" lon="4.843901533201437"><ele>173.0</ele><time>2026-04-28T15:16:17.999Z</time></trkpt><trkpt lat="45.807932564159124" lon="4.843883267252528"><ele>173.0</ele><time>2026-04-28T15:16:18.999Z</time></trkpt><trkpt lat="45.80786788556087" lon="4.843869502642446"><ele>173.0</ele><time>2026-04-28T15:16:19.999Z</time></trkpt><trkpt lat="45.80779322993767" lon="4.843849098140323"><ele>173.0</ele><time>2026-04-28T15:16:20.999Z</time></trkpt><trkpt lat="45.807721937943384" lon="4.843827024905625"><ele>173.0</ele><time>2026-04-28T15:16:21.999Z</time></trkpt><trkpt lat="45.8076421788834" lon="4.843822750052926"><ele>173.0</ele><time>2026-04-28T15:16:22.999Z</time></trkpt><trkpt lat="45.807571545120005" lon="4.843800813442754"><ele>173.0</ele><time>2026-04-28T15:16:23.999Z</time></trkpt><trkpt lat="45.80750656131881" lon="4.8437831132867375"><ele>173.0</ele><time>2026-04-28T15:16:24.999Z</time></trkpt><trkpt lat="45.80743806710513" lon="4.843762007351124"><ele>173.16666666666666</ele><time>2026-04-28T15:16:25.999Z</time></trkpt><trkpt lat="45.80737328241643" lon="4.843748196816892"><ele>173.33333333333331</ele><time>2026-04-28T15:16:26.999Z</time></trkpt><trkpt lat="45.807246029933395" lon="4.843727001690692"><ele>173.5</ele><time>2026-04-28T15:16:28.999Z</time></trkpt><trkpt lat="45.807177226023" lon="4.843717107928675"><ele>173.66666666666666</ele><time>2026-04-28T15:16:29.999Z</time></trkpt><trkpt lat="45.80710536521369" lon="4.843715553686951"><ele>173.83333333333334</ele><time>2026-04-28T15:16:30.999Z</time></trkpt><trkpt lat="45.80703978071911" lon="4.843703909373673"><ele>174.0</ele><time>2026-04-28T15:16:31.999Z</time></trkpt><trkpt lat="45.80696646038683" lon="4.843695721923088"><ele>174.0</ele><time>2026-04-28T15:16:32.999Z</time></trkpt><trkpt lat="45.806891941581895" lon="4.843685235651984"><ele>174.0</ele><time>2026-04-28T15:16:33.999Z</time></trkpt><trkpt lat="45.80682037947073" lon="4.8436615125753235"><ele>174.0</ele><time>2026-04-28T15:16:34.999Z</time></trkpt><trkpt lat="45.80674767542911" lon="4.843654592049312"><ele>174.0</ele><time>2026-04-28T15:16:35.999Z</time></trkpt><trkpt lat="45.8066723042688" lon="4.843633363756541"><ele>174.0</ele><time>2026-04-28T15:16:36.999Z</time></trkpt><trkpt lat="45.80660568190844" lon="4.84362423325188"><ele>174.0</ele><time>2026-04-28T15:16:37.999Z</time></trkpt><trkpt lat="45.80654149657547" lon="4.843606272474429"><ele>174.0</ele><time>2026-04-28T15:16:38.999Z</time></trkpt><trkpt lat="45.80646990000101" lon="4.8435977547170905"><ele>173.83333333333334</ele><time>2026-04-28T15:16:39.999Z</time></trkpt><trkpt lat="45.80640007391814" lon="4.8435847861167"><ele>173.66666666666666</ele><time>2026-04-28T15:16:40.999Z</time></trkpt><trkpt lat="45.806331999568265" lon="4.843568391017545"><ele>173.5</ele><time>2026-04-28T15:16:41.999Z</time></trkpt><trkpt lat="45.80619843323836" lon="4.843535753100085"><ele>173.33333333333331</ele><time>2026-04-28T15:16:43.999Z</time></trkpt><trkpt lat="45.806130786163614" lon="4.843519114280437"><ele>173.16666666666666</ele><time>2026-04-28T15:16:44.999Z</time></trkpt><trkpt lat="45.806063315511764" lon="4.8435003361770566"><ele>173.0</ele><time>2026-04-28T15:16:45.999Z</time></trkpt><trkpt lat="45.80599378367666" lon="4.843474126575723"><ele>172.5</ele><time>2026-04-28T15:16:46.999Z</time></trkpt><trkpt lat="45.805922101595485" lon="4.843451707722074"><ele>172.0</ele><time>2026-04-28T15:16:47.998Z</time></trkpt><trkpt lat="45.80585023035232" lon="4.843425459288925"><ele>171.5</ele><time>2026-04-28T15:16:48.998Z</time></trkpt><trkpt lat="45.8057733297731" lon="4.843402839608639"><ele>171.0</ele><time>2026-04-28T15:16:49.998Z</time></trkpt><trkpt lat="45.80569727086261" lon="4.843369830975426"><ele>170.5</ele><time>2026-04-28T15:16:50.998Z</time></trkpt><trkpt lat="45.80562374245386" lon="4.84335005472681"><ele>170.0</ele><time>2026-04-28T15:16:51.998Z</time></trkpt><trkpt lat="45.805549784582574" lon="4.843315785963621"><ele>170.0</ele><time>2026-04-28T15:16:53Z</time></trkpt><trkpt lat="45.805472245461274" lon="4.843310461921849"><ele>170.0</ele><time>2026-04-28T15:16:54Z</time></trkpt><trkpt lat="45.80540630314689" lon="4.843271673889089"><ele>170.0</ele><time>2026-04-28T15:16:55Z</time></trkpt><trkpt lat="45.80534334540666" lon="4.843249834262952"><ele>170.0</ele><time>2026-04-28T15:16:56Z</time></trkpt><trkpt lat="45.80527167762852" lon="4.843229550671201"><ele>170.0</ele><time>2026-04-28T15:16:57Z</time></trkpt><trkpt lat="45.805200725491005" lon="4.843204085232872"><ele>170.0</ele><time>2026-04-28T15:16:58Z</time></trkpt><trkpt lat="45.80512151498131" lon="4.8431829816607115"><ele>170.0</ele><time>2026-04-28T15:16:59Z</time></trkpt><trkpt lat="45.8050540214732" lon="4.843152689862248"><ele>170.5</ele><time>2026-04-28T15:17:00Z</time></trkpt><trkpt lat="45.80497494330458" lon="4.843138536048477"><ele>171.0</ele><time>2026-04-28T15:17:01Z</time></trkpt><trkpt lat="45.80489857621549" lon="4.843115089745036"><ele>171.5</ele><time>2026-04-28T15:17:02Z</time></trkpt><trkpt lat="45.80482378664849" lon="4.84309058004798"><ele>172.0</ele><time>2026-04-28T15:17:03Z</time></trkpt><trkpt lat="45.804759192740406" lon="4.84307149477472"><ele>172.5</ele><time>2026-04-28T15:17:04Z</time></trkpt><trkpt lat="45.80467866372813" lon="4.8430394489516715"><ele>173.0</ele><time>2026-04-28T15:17:05Z</time></trkpt><trkpt lat="45.80460329030872" lon="4.843020289230219"><ele>173.0</ele><time>2026-04-28T15:17:06Z</time></trkpt><trkpt lat="45.8045406184246" lon="4.843002595931319"><ele>173.0</ele><time>2026-04-28T15:17:07Z</time></trkpt><trkpt lat="45.80446832606525" lon="4.842985064680953"><ele>173.0</ele><time>2026-04-28T15:17:08Z</time></trkpt><trkpt lat="45.80440249290335" lon="4.842960565756544"><ele>173.0</ele><time>2026-04-28T15:17:09Z</time></trkpt><trkpt lat="45.80433494596872" lon="4.8429338409201605"><ele>173.0</ele><time>2026-04-28T15:17:10Z</time></trkpt><trkpt lat="45.8042711548383" lon="4.842918350402616"><ele>173.0</ele><time>2026-04-28T15:17:11Z</time></trkpt><trkpt lat="45.80420936587074" lon="4.842888808073207"><ele>173.0</ele><time>2026-04-28T15:17:12Z</time></trkpt><trkpt lat="45.80414654756344" lon="4.842876846169472"><ele>173.60000000000002</ele><time>2026-04-28T15:17:13Z</time></trkpt><trkpt lat="45.80402196001281" lon="4.842841405708193"><ele>174.20000000000002</ele><time>2026-04-28T15:17:15Z</time></trkpt><trkpt lat="45.80395216487592" lon="4.842814935254928"><ele>174.8</ele><time>2026-04-28T15:17:16Z</time></trkpt><trkpt lat="45.80382105447521" lon="4.842778903006796"><ele>175.4</ele><time>2026-04-28T15:17:18Z</time></trkpt><trkpt lat="45.80375826571289" lon="4.842754852390569"><ele>176.0</ele><time>2026-04-28T15:17:19Z</time></trkpt><trkpt lat="45.803691769777934" lon="4.842731072891538"><ele>176.0</ele><time>2026-04-28T15:17:20Z</time></trkpt><trkpt lat="45.8036247948941" lon="4.842712607129495"><ele>176.0</ele><time>2026-04-28T15:17:21Z</time></trkpt><trkpt lat="45.80355401096443" lon="4.842686459233301"><ele>176.0</ele><time>2026-04-28T15:17:22Z</time></trkpt><trkpt lat="45.8034843040971" lon="4.842659119781076"><ele>176.0</ele><time>2026-04-28T15:17:23Z</time></trkpt><trkpt lat="45.80341492672858" lon="4.84263656790914"><ele>176.0</ele><time>2026-04-28T15:17:24Z</time></trkpt><trkpt lat="45.80334737290025" lon="4.842614357987883"><ele>176.0</ele><time>2026-04-28T15:17:25Z</time></trkpt><trkpt lat="45.8032789026708" lon="4.842597284873703"><ele>176.0</ele><time>2026-04-28T15:17:26Z</time></trkpt><trkpt lat="45.80321519827125" lon="4.842560936244598"><ele>174.83333333333331</ele><time>2026-04-28T15:17:27Z</time></trkpt><trkpt lat="45.80313777144953" lon="4.8425479540266325"><ele>173.66666666666666</ele><time>2026-04-28T15:17:28Z</time></trkpt><trkpt lat="45.80301254070533" lon="4.842499496216746"><ele>172.5</ele><time>2026-04-28T15:17:30Z</time></trkpt><trkpt lat="45.80294591904326" lon="4.842476113954899"><ele>171.33333333333334</ele><time>2026-04-28T15:17:31Z</time></trkpt><trkpt lat="45.80287713033576" lon="4.8424553322995045"><ele>170.16666666666669</ele><time>2026-04-28T15:17:32Z</time></trkpt><trkpt lat="45.8028069534246" lon="4.842432867269461"><ele>169.0</ele><time>2026-04-28T15:17:33Z</time></trkpt><trkpt lat="45.802741178627414" lon="4.842405422752594"><ele>169.0</ele><time>2026-04-28T15:17:34Z</time></trkpt><trkpt lat="45.802667454926755" lon="4.842384069170879"><ele>169.0</ele><time>2026-04-28T15:17:35Z</time></trkpt><trkpt lat="45.802596884744446" lon="4.842354616632796"><ele>169.0</ele><time>2026-04-28T15:17:36Z</time></trkpt><trkpt lat="45.80252086223193" lon="4.842342076423719"><ele>169.0</ele><time>2026-04-28T15:17:37Z</time></trkpt><trkpt lat="45.80245232540695" lon="4.842314413856534"><ele>169.0</ele><time>2026-04-28T15:17:38Z</time></trkpt><trkpt lat="45.8023828533148" lon="4.842293196909877"><ele>169.0</ele><time>2026-04-28T15:17:39Z</time></trkpt><trkpt lat="45.802312709058526" lon="4.842273719906225"><ele>169.0</ele><time>2026-04-28T15:17:40Z</time></trkpt><trkpt lat="45.802246325315195" lon="4.842248850625491"><ele>169.0</ele><time>2026-04-28T15:17:41Z</time></trkpt><trkpt lat="45.802174865924" lon="4.842226891679205"><ele>169.0</ele><time>2026-04-28T15:17:41.999Z</time></trkpt><trkpt lat="45.80210238874406" lon="4.842202357164039"><ele>169.0</ele><time>2026-04-28T15:17:42.999Z</time></trkpt><trkpt lat="45.80197659650507" lon="4.842157460748986"><ele>169.0</ele><time>2026-04-28T15:17:44.999Z</time></trkpt><trkpt lat="45.80191337689079" lon="4.842129481058161"><ele>169.0</ele><time>2026-04-28T15:17:45.999Z</time></trkpt><trkpt lat="45.80184921618603" lon="4.842100885711027"><ele>169.0</ele><time>2026-04-28T15:17:46.999Z</time></trkpt><trkpt lat="45.80178508477219" lon="4.842064760483891"><ele>169.0</ele><time>2026-04-28T15:17:47.999Z</time></trkpt><trkpt lat="45.80172611911317" lon="4.842024828088654"><ele>169.0</ele><time>2026-04-28T15:17:48.999Z</time></trkpt><trkpt lat="45.80165965633239" lon="4.841982302153448"><ele>169.0</ele><time>2026-04-28T15:17:49.999Z</time></trkpt><trkpt lat="45.801594909725026" lon="4.841939045141027"><ele>169.0</ele><time>2026-04-28T15:17:50.999Z</time></trkpt><trkpt lat="45.80153639065144" lon="4.841895491935822"><ele>169.0</ele><time>2026-04-28T15:17:51.999Z</time></trkpt><trkpt lat="45.80147499526504" lon="4.841849493158903"><ele>169.0</ele><time>2026-04-28T15:17:52.999Z</time></trkpt><trkpt lat="45.801410371654725" lon="4.841799348488141"><ele>169.0</ele><time>2026-04-28T15:17:53.999Z</time></trkpt><trkpt lat="45.80134798696478" lon="4.841758238687825"><ele>168.71428571428572</ele><time>2026-04-28T15:17:54.999Z</time></trkpt><trkpt lat="45.8012856891863" lon="4.84171463466982"><ele>168.42857142857142</ele><time>2026-04-28T15:17:55.999Z</time></trkpt><trkpt lat="45.801230642832984" lon="4.841665787683474"><ele>168.14285714285714</ele><time>2026-04-28T15:17:56.999Z</time></trkpt><trkpt lat="45.801170584551414" lon="4.841625435816726"><ele>167.85714285714286</ele><time>2026-04-28T15:17:57.999Z</time></trkpt><trkpt lat="45.80111056061868" lon="4.84158042013531"><ele>167.57142857142858</ele><time>2026-04-28T15:17:58.999Z</time></trkpt><trkpt lat="45.801050173196096" lon="4.841528195025849"><ele>167.28571428571428</ele><time>2026-04-28T15:17:59.999Z</time></trkpt><trkpt lat="45.80099324058212" lon="4.841483976405911"><ele>167.0</ele><time>2026-04-28T15:18:00.999Z</time></trkpt><trkpt lat="45.80089212342598" lon="4.841389267618782"><ele>169.0</ele><time>2026-04-28T15:18:02.999Z</time></trkpt><trkpt lat="45.80078455213793" lon="4.841299329456441"><ele>171.0</ele><time>2026-04-28T15:18:04.999Z</time></trkpt><trkpt lat="45.800686241259086" lon="4.841207367530886"><ele>173.0</ele><time>2026-04-28T15:18:06.999Z</time></trkpt><trkpt lat="45.800578101477086" lon="4.841113339898916"><ele>175.0</ele><time>2026-04-28T15:18:08.999Z</time></trkpt><trkpt lat="45.80047704617851" lon="4.841024458037589"><ele>175.0</ele><time>2026-04-28T15:18:10.999Z</time></trkpt><trkpt lat="45.80042070313928" lon="4.840977213093157"><ele>175.0</ele><time>2026-04-28T15:18:11.999Z</time></trkpt><trkpt lat="45.800312554186476" lon="4.840888899504379"><ele>175.0</ele><time>2026-04-28T15:18:13.999Z</time></trkpt><trkpt lat="45.80026008348328" lon="4.840835991170277"><ele>175.0</ele><time>2026-04-28T15:18:14.999Z</time></trkpt><trkpt lat="45.80015608192722" lon="4.840741250229847"><ele>175.0</ele><time>2026-04-28T15:18:16.999Z</time></trkpt><trkpt lat="45.800055759758045" lon="4.8406342291260005"><ele>174.8</ele><time>2026-04-28T15:18:18.999Z</time></trkpt><trkpt lat="45.80000222753367" lon="4.840577458334684"><ele>174.6</ele><time>2026-04-28T15:18:19.999Z</time></trkpt><trkpt lat="45.79990025310368" lon="4.840465323626543"><ele>174.39999999999998</ele><time>2026-04-28T15:18:21.999Z</time></trkpt><trkpt lat="45.79984388513739" lon="4.840409018942235"><ele>174.2</ele><time>2026-04-28T15:18:22.999Z</time></trkpt><trkpt lat="45.799736459729196" lon="4.8402910860647665"><ele>174.0</ele><time>2026-04-28T15:18:24.999Z</time></trkpt><trkpt lat="45.7996854745079" lon="4.840233891302256"><ele>174.0</ele><time>2026-04-28T15:18:25.999Z</time></trkpt><trkpt lat="45.79963330817815" lon="4.840172249174696"><ele>174.0</ele><time>2026-04-28T15:18:26.999Z</time></trkpt><trkpt lat="45.79957891416707" lon="4.840112899532817"><ele>174.0</ele><time>2026-04-28T15:18:27.999Z</time></trkpt><trkpt lat="45.79952586113675" lon="4.840053613539876"><ele>174.0</ele><time>2026-04-28T15:18:28.999Z</time></trkpt><trkpt lat="45.799473227320185" lon="4.839989080050634"><ele>174.0</ele><time>2026-04-28T15:18:29.999Z</time></trkpt><trkpt lat="45.799416910976895" lon="4.8399255237575955"><ele>174.0</ele><time>2026-04-28T15:18:30.999Z</time></trkpt><trkpt lat="45.79931159039552" lon="4.839818801042729"><ele>174.0</ele><time>2026-04-28T15:18:32.999Z</time></trkpt><trkpt lat="45.799212946927426" lon="4.839706195725563"><ele>174.0</ele><time>2026-04-28T15:18:34.999Z</time></trkpt><trkpt lat="45.79911411503582" lon="4.83959482019268"><ele>174.0</ele><time>2026-04-28T15:18:36.999Z</time></trkpt><trkpt lat="45.79906512464253" lon="4.839534115519013"><ele>174.0</ele><time>2026-04-28T15:18:37.999Z</time></trkpt><trkpt lat="45.79901220680599" lon="4.839475869330113"><ele>174.0</ele><time>2026-04-28T15:18:38.999Z</time></trkpt><trkpt lat="45.79891397082738" lon="4.839364582911642"><ele>174.0</ele><time>2026-04-28T15:18:40.999Z</time></trkpt><trkpt lat="45.798865210985255" lon="4.839302644779627"><ele>174.0</ele><time>2026-04-28T15:18:41.999Z</time></trkpt><trkpt lat="45.79881622047144" lon="4.839244901818785"><ele>174.0</ele><time>2026-04-28T15:18:42.999Z</time></trkpt><trkpt lat="45.79876539619271" lon="4.839187052983724"><ele>174.0</ele><time>2026-04-28T15:18:43.999Z</time></trkpt><trkpt lat="45.79871460924261" lon="4.839127098376993"><ele>174.0</ele><time>2026-04-28T15:18:44.999Z</time></trkpt><trkpt lat="45.798665636932085" lon="4.839068725862201"><ele>174.0</ele><time>2026-04-28T15:18:45.999Z</time></trkpt><trkpt lat="45.798569457113516" lon="4.838960049156213"><ele>174.0</ele><time>2026-04-28T15:18:47.999Z</time></trkpt><trkpt lat="45.798479098420835" lon="4.8388564176803746"><ele>172.79999999999998</ele><time>2026-04-28T15:18:49.999Z</time></trkpt><trkpt lat="45.798399542888625" lon="4.838754403977836"><ele>171.6</ele><time>2026-04-28T15:18:51.999Z</time></trkpt><trkpt lat="45.79832096146215" lon="4.838655537743163"><ele>170.4</ele><time>2026-04-28T15:18:53.998Z</time></trkpt><trkpt lat="45.7982431977744" lon="4.838574992167113"><ele>169.2</ele><time>2026-04-28T15:18:55.998Z</time></trkpt><trkpt lat="45.79817613513585" lon="4.838499367168801"><ele>168.0</ele><time>2026-04-28T15:18:57.998Z</time></trkpt><trkpt lat="45.79811449762528" lon="4.8384012085306205"><ele>168.0</ele><time>2026-04-28T15:19:00Z</time></trkpt><trkpt lat="45.79804224350295" lon="4.838281109141221"><ele>168.0</ele><time>2026-04-28T15:19:02Z</time></trkpt><trkpt lat="45.79796270602314" lon="4.8381474941246045"><ele>168.0</ele><time>2026-04-28T15:19:04Z</time></trkpt><trkpt lat="45.79791863987359" lon="4.838078697262082"><ele>168.0</ele><time>2026-04-28T15:19:05Z</time></trkpt><trkpt lat="45.79787407329819" lon="4.838000259641555"><ele>168.0</ele><time>2026-04-28T15:19:06Z</time></trkpt><trkpt lat="45.79783308079203" lon="4.837924442549807"><ele>168.0</ele><time>2026-04-28T15:19:07Z</time></trkpt><trkpt lat="45.79779015997716" lon="4.837847062378211"><ele>168.0</ele><time>2026-04-28T15:19:08Z</time></trkpt><trkpt lat="45.797756550432176" lon="4.837764219626117"><ele>168.0</ele><time>2026-04-28T15:19:09Z</time></trkpt><trkpt lat="45.79771870470641" lon="4.8376769588254795"><ele>168.0</ele><time>2026-04-28T15:19:10Z</time></trkpt><trkpt lat="45.79770344797024" lon="4.83757189690975"><ele>168.0</ele><time>2026-04-28T15:19:11Z</time></trkpt><trkpt lat="45.797665836992486" lon="4.837487438000095"><ele>168.0</ele><time>2026-04-28T15:19:12Z</time></trkpt><trkpt lat="45.797629699965526" lon="4.837409566823659"><ele>168.0</ele><time>2026-04-28T15:19:13Z</time></trkpt><trkpt lat="45.79759369885475" lon="4.837333536759752"><ele>168.0</ele><time>2026-04-28T15:19:14Z</time></trkpt><trkpt lat="45.7975579407283" lon="4.837258019847551"><ele>171.0</ele><time>2026-04-28T15:19:15Z</time></trkpt><trkpt lat="45.79752128227767" lon="4.83718150341799"><ele>174.0</ele><time>2026-04-28T15:19:16Z</time></trkpt><trkpt lat="45.79745042363436" lon="4.837036261272424"><ele>177.0</ele><time>2026-04-28T15:19:18Z</time></trkpt><trkpt lat="45.797385073846" lon="4.836903166678388"><ele>180.0</ele><time>2026-04-28T15:19:20Z</time></trkpt><trkpt lat="45.79730763795538" lon="4.83678548743381"><ele>183.0</ele><time>2026-04-28T15:19:22Z</time></trkpt><trkpt lat="45.797245604548316" lon="4.836656483941317"><ele>183.0</ele><time>2026-04-28T15:19:24Z</time></trkpt><trkpt lat="45.79718357162068" lon="4.836540455427685"><ele>183.0</ele><time>2026-04-28T15:19:26Z</time></trkpt><trkpt lat="45.79713006270341" lon="4.836442268959651"><ele>183.0</ele><time>2026-04-28T15:19:28Z</time></trkpt><trkpt lat="45.79708435811977" lon="4.836314032229278"><ele>183.0</ele><time>2026-04-28T15:19:30Z</time></trkpt><trkpt lat="45.79703982579192" lon="4.836151396965101"><ele>183.0</ele><time>2026-04-28T15:19:32Z</time></trkpt><trkpt lat="45.796996888136945" lon="4.835996794925668"><ele>180.5</ele><time>2026-04-28T15:19:34Z</time></trkpt><trkpt lat="45.796972140004954" lon="4.835832789356521"><ele>178.0</ele><time>2026-04-28T15:19:36Z</time></trkpt><trkpt lat="45.796956742666495" lon="4.835665046236346"><ele>175.5</ele><time>2026-04-28T15:19:38Z</time></trkpt><trkpt lat="45.79695300301504" lon="4.83549842651415"><ele>173.0</ele><time>2026-04-28T15:19:40Z</time></trkpt><trkpt lat="45.79694180849453" lon="4.8353234205345395"><ele>173.0</ele><time>2026-04-28T15:19:42Z</time></trkpt><trkpt lat="45.79693226251476" lon="4.835150371430039"><ele>173.0</ele><time>2026-04-28T15:19:44Z</time></trkpt><trkpt lat="45.79690517117413" lon="4.834978057145989"><ele>173.0</ele><time>2026-04-28T15:19:46Z</time></trkpt><trkpt lat="45.796862340952465" lon="4.834810947480957"><ele>173.0</ele><time>2026-04-28T15:19:47.999Z</time></trkpt><trkpt lat="45.79683370580021" lon="4.834726759104713"><ele>173.0</ele><time>2026-04-28T15:19:48.999Z</time></trkpt><trkpt lat="45.7968047498276" lon="4.834643957471878"><ele>175.28571428571428</ele><time>2026-04-28T15:19:49.999Z</time></trkpt><trkpt lat="45.796771090613746" lon="4.8345587862449815"><ele>177.57142857142858</ele><time>2026-04-28T15:19:50.999Z</time></trkpt><trkpt lat="45.796738741543436" lon="4.834471826786238"><ele>179.85714285714286</ele><time>2026-04-28T15:19:51.999Z</time></trkpt><trkpt lat="45.79670933272097" lon="4.834385575556076"><ele>182.14285714285714</ele><time>2026-04-28T15:19:52.999Z</time></trkpt><trkpt lat="45.79667587602351" lon="4.834297821170251"><ele>184.42857142857144</ele><time>2026-04-28T15:19:53.999Z</time></trkpt><trkpt lat="45.79664239190598" lon="4.834208962368811"><ele>186.71428571428572</ele><time>2026-04-28T15:19:54.999Z</time></trkpt><trkpt lat="45.79661119958755" lon="4.834118441091411"><ele>189.0</ele><time>2026-04-28T15:19:55.999Z</time></trkpt><trkpt lat="45.796580840417874" lon="4.834035508301181"><ele>189.0</ele><time>2026-04-28T15:19:56.999Z</time></trkpt><trkpt lat="45.796516392314814" lon="4.833874037462295"><ele>189.0</ele><time>2026-04-28T15:19:58.999Z</time></trkpt><trkpt lat="45.7964587086895" lon="4.833710153444604"><ele>189.0</ele><time>2026-04-28T15:20:00.999Z</time></trkpt><trkpt lat="45.79643011505662" lon="4.833626957198268"><ele>189.0</ele><time>2026-04-28T15:20:01.999Z</time></trkpt><trkpt lat="45.796402180222394" lon="4.833545449638225"><ele>189.0</ele><time>2026-04-28T15:20:02.999Z</time></trkpt><trkpt lat="45.7963698547886" lon="4.833459193205116"><ele>187.2</ele><time>2026-04-28T15:20:03.999Z</time></trkpt><trkpt lat="45.79630840815563" lon="4.83329366568671"><ele>185.39999999999998</ele><time>2026-04-28T15:20:05.999Z</time></trkpt><trkpt lat="45.79628525643339" lon="4.833131207256583"><ele>183.6</ele><time>2026-04-28T15:20:07.999Z</time></trkpt><trkpt lat="45.79625676605875" lon="4.833036252537127"><ele>181.8</ele><time>2026-04-28T15:20:08.999Z</time></trkpt><trkpt lat="45.79622498085811" lon="4.832946783729053"><ele>180.0</ele><time>2026-04-28T15:20:09.999Z</time></trkpt><trkpt lat="45.79620900207843" lon="4.832856712550445"><ele>180.0</ele><time>2026-04-28T15:20:10.999Z</time></trkpt><trkpt lat="45.796197150729704" lon="4.832766864327891"><ele>180.0</ele><time>2026-04-28T15:20:11.999Z</time></trkpt><trkpt lat="45.796182736780246" lon="4.832667755736838"><ele>180.0</ele><time>2026-04-28T15:20:12.999Z</time></trkpt><trkpt lat="45.79616884487184" lon="4.832477731007513"><ele>180.0</ele><time>2026-04-28T15:20:14.999Z</time></trkpt><trkpt lat="45.79615454879352" lon="4.832380978729557"><ele>180.0</ele><time>2026-04-28T15:20:15.999Z</time></trkpt><trkpt lat="45.79614942450427" lon="4.832286191873932"><ele>180.0</ele><time>2026-04-28T15:20:16.999Z</time></trkpt><trkpt lat="45.79613387481432" lon="4.832192456111998"><ele>178.57142857142856</ele><time>2026-04-28T15:20:17.999Z</time></trkpt><trkpt lat="45.79612433202005" lon="4.832100859774396"><ele>177.14285714285717</ele><time>2026-04-28T15:20:18.999Z</time></trkpt><trkpt lat="45.79609168487242" lon="4.832002964990803"><ele>175.71428571428572</ele><time>2026-04-28T15:20:19.999Z</time></trkpt><trkpt lat="45.7960759801918" lon="4.831912000394265"><ele>174.28571428571428</ele><time>2026-04-28T15:20:20.999Z</time></trkpt><trkpt lat="45.7960571632146" lon="4.831818255133364"><ele>172.85714285714283</ele><time>2026-04-28T15:20:21.999Z</time></trkpt><trkpt lat="45.79602975556284" lon="4.831728075257957"><ele>171.42857142857144</ele><time>2026-04-28T15:20:22.999Z</time></trkpt><trkpt lat="45.79601316799339" lon="4.83163473578731"><ele>170.0</ele><time>2026-04-28T15:20:23.999Z</time></trkpt><trkpt lat="45.79598631761613" lon="4.831534134258073"><ele>171.83333333333331</ele><time>2026-04-28T15:20:24.999Z</time></trkpt><trkpt lat="45.79597416385892" lon="4.831432345530983"><ele>173.66666666666666</ele><time>2026-04-28T15:20:25.999Z</time></trkpt><trkpt lat="45.7959571135564" lon="4.831331277129391"><ele>175.5</ele><time>2026-04-28T15:20:26.999Z</time></trkpt><trkpt lat="45.79593003182462" lon="4.831227571710035"><ele>177.33333333333334</ele><time>2026-04-28T15:20:27.999Z</time></trkpt><trkpt lat="45.79590207153662" lon="4.831119287616665"><ele>179.16666666666669</ele><time>2026-04-28T15:20:28.999Z</time></trkpt><trkpt lat="45.79589326035478" lon="4.831004406889641"><ele>181.0</ele><time>2026-04-28T15:20:29.999Z</time></trkpt><trkpt lat="45.79586979170776" lon="4.830901234752824"><ele>181.0</ele><time>2026-04-28T15:20:30.999Z</time></trkpt><trkpt lat="45.79584393528418" lon="4.830795269673659"><ele>181.0</ele><time>2026-04-28T15:20:31.999Z</time></trkpt><trkpt lat="45.79581810954289" lon="4.830689734481824"><ele>181.0</ele><time>2026-04-28T15:20:32.999Z</time></trkpt><trkpt lat="45.795795166411416" lon="4.830587449129184"><ele>181.0</ele><time>2026-04-28T15:20:33.999Z</time></trkpt><trkpt lat="45.795772562324025" lon="4.83048811709702"><ele>181.0</ele><time>2026-04-28T15:20:34.999Z</time></trkpt><trkpt lat="45.79574148677041" lon="4.8303959933133145"><ele>181.0</ele><time>2026-04-28T15:20:35.999Z</time></trkpt><trkpt lat="45.79570782195656" lon="4.830302091780387"><ele>181.0</ele><time>2026-04-28T15:20:36.999Z</time></trkpt><trkpt lat="45.79567707917763" lon="4.830214060927493"><ele>178.66666666666669</ele><time>2026-04-28T15:20:37.999Z</time></trkpt><trkpt lat="45.79564372275685" lon="4.830118551650598"><ele>176.33333333333334</ele><time>2026-04-28T15:20:38.999Z</time></trkpt><trkpt lat="45.79561485938198" lon="4.830018089313189"><ele>174.0</ele><time>2026-04-28T15:20:39.999Z</time></trkpt><trkpt lat="45.795574471491975" lon="4.829932421741732"><ele>171.66666666666666</ele><time>2026-04-28T15:20:40.999Z</time></trkpt><trkpt lat="45.795528547906535" lon="4.829840088040735"><ele>169.33333333333331</ele><time>2026-04-28T15:20:41.999Z</time></trkpt><trkpt lat="45.79548529289089" lon="4.829751910103501"><ele>167.0</ele><time>2026-04-28T15:20:42.999Z</time></trkpt><trkpt lat="45.7954514202399" lon="4.829651959067693"><ele>167.0</ele><time>2026-04-28T15:20:43.999Z</time></trkpt><trkpt lat="45.79541876950025" lon="4.829544743172929"><ele>167.0</ele><time>2026-04-28T15:20:44.999Z</time></trkpt><trkpt lat="45.79538552895882" lon="4.829441032545583"><ele>167.0</ele><time>2026-04-28T15:20:45.999Z</time></trkpt><trkpt lat="45.79535076174948" lon="4.8293389011360786"><ele>167.0</ele><time>2026-04-28T15:20:46.999Z</time></trkpt><trkpt lat="45.79531611272667" lon="4.829238383761751"><ele>167.0</ele><time>2026-04-28T15:20:47.999Z</time></trkpt><trkpt lat="45.79528205786225" lon="4.829139834672557"><ele>167.0</ele><time>2026-04-28T15:20:48.999Z</time></trkpt><trkpt lat="45.795248446163896" lon="4.829043095143701"><ele>166.85714285714286</ele><time>2026-04-28T15:20:49.999Z</time></trkpt><trkpt lat="45.79521251359618" lon="4.828943617108533"><ele>166.71428571428572</ele><time>2026-04-28T15:20:50.999Z</time></trkpt><trkpt lat="45.7951789344723" lon="4.82884920372"><ele>166.57142857142856</ele><time>2026-04-28T15:20:51.999Z</time></trkpt><trkpt lat="45.795144072691215" lon="4.82875286180568"><ele>166.42857142857144</ele><time>2026-04-28T15:20:52.999Z</time></trkpt><trkpt lat="45.79510029768672" lon="4.828662711112729"><ele>166.2857142857143</ele><time>2026-04-28T15:20:53.999Z</time></trkpt><trkpt lat="45.79506234132726" lon="4.828574283665073"><ele>166.14285714285714</ele><time>2026-04-28T15:20:54.999Z</time></trkpt><trkpt lat="45.79502848645034" lon="4.828489541165166"><ele>166.0</ele><time>2026-04-28T15:20:55.999Z</time></trkpt><trkpt lat="45.79497863953423" lon="4.828399268653347"><ele>166.0</ele><time>2026-04-28T15:20:56.999Z</time></trkpt><trkpt lat="45.79486672998523" lon="4.828359468247979"><ele>166.0</ele><time>2026-04-28T15:20:57.999Z</time></trkpt><trkpt lat="45.79481630132079" lon="4.828271966108351"><ele>166.0</ele><time>2026-04-28T15:20:58.998Z</time></trkpt><trkpt lat="45.79476841619603" lon="4.828188845716941"><ele>166.0</ele><time>2026-04-28T15:20:59.998Z</time></trkpt><trkpt lat="45.79471882776481" lon="4.828102768576468"><ele>166.0</ele><time>2026-04-28T15:21:00.998Z</time></trkpt><trkpt lat="45.794630732392875" lon="4.828053562377786"><ele>166.0</ele><time>2026-04-28T15:21:01.998Z</time></trkpt><trkpt lat="45.794575413575636" lon="4.827972720506555"><ele>166.0</ele><time>2026-04-28T15:21:02.998Z</time></trkpt><trkpt lat="45.79452040743635" lon="4.827892335572846"><ele>166.0</ele><time>2026-04-28T15:21:03.998Z</time></trkpt><trkpt lat="45.79446555286796" lon="4.827812172056033"><ele>166.0</ele><time>2026-04-28T15:21:05Z</time></trkpt><trkpt lat="45.79439445197945" lon="4.827755231329335"><ele>166.0</ele><time>2026-04-28T15:21:06Z</time></trkpt><trkpt lat="45.79433952248117" lon="4.82768143100709"><ele>166.0</ele><time>2026-04-28T15:21:07Z</time></trkpt><trkpt lat="45.79428251282509" lon="4.827600522991115"><ele>166.0</ele><time>2026-04-28T15:21:08Z</time></trkpt><trkpt lat="45.79423128092026" lon="4.827524824204293"><ele>166.0</ele><time>2026-04-28T15:21:09Z</time></trkpt><trkpt lat="45.79417809747045" lon="4.827449128413147"><ele>166.0</ele><time>2026-04-28T15:21:10Z</time></trkpt><trkpt lat="45.79412415574542" lon="4.827376881216758"><ele>166.0</ele><time>2026-04-28T15:21:11Z</time></trkpt><trkpt lat="45.79407313404647" lon="4.827305048889781"><ele>166.0</ele><time>2026-04-28T15:21:12Z</time></trkpt><trkpt lat="45.79401813288442" lon="4.827233235024559"><ele>166.0</ele><time>2026-04-28T15:21:13Z</time></trkpt><trkpt lat="45.79396542197047" lon="4.827159253190218"><ele>166.0</ele><time>2026-04-28T15:21:14Z</time></trkpt><trkpt lat="45.793914448710694" lon="4.827086351933958"><ele>166.0</ele><time>2026-04-28T15:21:15Z</time></trkpt><trkpt lat="45.79386579287582" lon="4.827012549613919"><ele>166.0</ele><time>2026-04-28T15:21:16Z</time></trkpt><trkpt lat="45.793815097951814" lon="4.826936271736725"><ele>166.0</ele><time>2026-04-28T15:21:17Z</time></trkpt><trkpt lat="45.79376172457016" lon="4.826862127982484"><ele>166.0</ele><time>2026-04-28T15:21:18Z</time></trkpt><trkpt lat="45.79371163025313" lon="4.826788414730519"><ele>166.0</ele><time>2026-04-28T15:21:19Z</time></trkpt><trkpt lat="45.79365636735355" lon="4.826711760061907"><ele>166.0</ele><time>2026-04-28T15:21:20Z</time></trkpt><trkpt lat="45.793610444221564" lon="4.826635153528714"><ele>166.0</ele><time>2026-04-28T15:21:21Z</time></trkpt><trkpt lat="45.79355845890927" lon="4.826556382041734"><ele>166.0</ele><time>2026-04-28T15:21:22Z</time></trkpt><trkpt lat="45.793510537197996" lon="4.826479200669166"><ele>166.0</ele><time>2026-04-28T15:21:23Z</time></trkpt><trkpt lat="45.793462690503624" lon="4.826398761568939"><ele>166.0</ele><time>2026-04-28T15:21:24Z</time></trkpt><trkpt lat="45.79341164268945" lon="4.826316806602311"><ele>166.0</ele><time>2026-04-28T15:21:25Z</time></trkpt><trkpt lat="45.79336339931574" lon="4.826237137093402"><ele>166.0</ele><time>2026-04-28T15:21:26Z</time></trkpt><trkpt lat="45.79331467366077" lon="4.8261554939071845"><ele>166.0</ele><time>2026-04-28T15:21:27Z</time></trkpt><trkpt lat="45.7932724601993" lon="4.826076506477352"><ele>166.0</ele><time>2026-04-28T15:21:28Z</time></trkpt><trkpt lat="45.793223249313904" lon="4.825999061334608"><ele>166.0</ele><time>2026-04-28T15:21:29Z</time></trkpt><trkpt lat="45.79316831054379" lon="4.825916077274338"><ele>166.0</ele><time>2026-04-28T15:21:30Z</time></trkpt><trkpt lat="45.793126662650515" lon="4.825840173717544"><ele>166.0</ele><time>2026-04-28T15:21:31Z</time></trkpt><trkpt lat="45.79307832454285" lon="4.825758807732078"><ele>166.0</ele><time>2026-04-28T15:21:32Z</time></trkpt><trkpt lat="45.79303244605736" lon="4.825682633652439"><ele>166.0</ele><time>2026-04-28T15:21:33Z</time></trkpt><trkpt lat="45.79298368318021" lon="4.825602470283724"><ele>166.0</ele><time>2026-04-28T15:21:34Z</time></trkpt><trkpt lat="45.79293502960598" lon="4.825522147409885"><ele>166.0</ele><time>2026-04-28T15:21:35Z</time></trkpt><trkpt lat="45.79289109473027" lon="4.825441147781819"><ele>166.0</ele><time>2026-04-28T15:21:36Z</time></trkpt><trkpt lat="45.792842314537886" lon="4.82536017341292"><ele>166.0</ele><time>2026-04-28T15:21:37Z</time></trkpt><trkpt lat="45.792799326747996" lon="4.8252797783257"><ele>166.0</ele><time>2026-04-28T15:21:38Z</time></trkpt><trkpt lat="45.792755821858435" lon="4.825199299005025"><ele>166.0</ele><time>2026-04-28T15:21:39Z</time></trkpt><trkpt lat="45.792711384881855" lon="4.825119879841121"><ele>166.0</ele><time>2026-04-28T15:21:40Z</time></trkpt><trkpt lat="45.79266432434824" lon="4.825040782865273"><ele>166.0</ele><time>2026-04-28T15:21:41Z</time></trkpt><trkpt lat="45.792622564457524" lon="4.824961555731632"><ele>166.0</ele><time>2026-04-28T15:21:42Z</time></trkpt><trkpt lat="45.79258151119734" lon="4.824883443299004"><ele>166.0</ele><time>2026-04-28T15:21:43Z</time></trkpt><trkpt lat="45.79253809281915" lon="4.82480355972495"><ele>166.0</ele><time>2026-04-28T15:21:44Z</time></trkpt><trkpt lat="45.792495469138984" lon="4.824725010815687"><ele>166.0</ele><time>2026-04-28T15:21:45Z</time></trkpt><trkpt lat="45.7924530161527" lon="4.824649272861351"><ele>166.0</ele><time>2026-04-28T15:21:46Z</time></trkpt><trkpt lat="45.79241253894799" lon="4.824572382401885"><ele>166.0</ele><time>2026-04-28T15:21:47Z</time></trkpt><trkpt lat="45.792370997871366" lon="4.8244959545968"><ele>166.0</ele><time>2026-04-28T15:21:48Z</time></trkpt><trkpt lat="45.792326694169994" lon="4.824420386953905"><ele>166.0</ele><time>2026-04-28T15:21:49Z</time></trkpt><trkpt lat="45.79228582666618" lon="4.824343398777455"><ele>166.0</ele><time>2026-04-28T15:21:50Z</time></trkpt><trkpt lat="45.79224265733534" lon="4.8242672345503514"><ele>166.0</ele><time>2026-04-28T15:21:51Z</time></trkpt><trkpt lat="45.792198482721275" lon="4.824186664048092"><ele>166.0</ele><time>2026-04-28T15:21:52Z</time></trkpt><trkpt lat="45.79215494463131" lon="4.824103998622911"><ele>166.0</ele><time>2026-04-28T15:21:52.999Z</time></trkpt><trkpt lat="45.79211825815936" lon="4.82402568820704"><ele>166.0</ele><time>2026-04-28T15:21:53.999Z</time></trkpt><trkpt lat="45.79206990792081" lon="4.8239442400029535"><ele>166.0</ele><time>2026-04-28T15:21:54.999Z</time></trkpt><trkpt lat="45.79202308681099" lon="4.823862552337803"><ele>166.0</ele><time>2026-04-28T15:21:55.999Z</time></trkpt><trkpt lat="45.79198025945607" lon="4.8237834865616165"><ele>166.0</ele><time>2026-04-28T15:21:56.999Z</time></trkpt><trkpt lat="45.79193198388591" lon="4.823708525559034"><ele>166.0</ele><time>2026-04-28T15:21:57.999Z</time></trkpt><trkpt lat="45.79188636836636" lon="4.823632681303422"><ele>166.0</ele><time>2026-04-28T15:21:58.999Z</time></trkpt><trkpt lat="45.79183828918505" lon="4.82355435986409"><ele>166.0</ele><time>2026-04-28T15:21:59.999Z</time></trkpt><trkpt lat="45.79179543624647" lon="4.823475199965811"><ele>166.0</ele><time>2026-04-28T15:22:00.999Z</time></trkpt><trkpt lat="45.791750846190645" lon="4.823401697283356"><ele>166.0</ele><time>2026-04-28T15:22:01.999Z</time></trkpt><trkpt lat="45.791710649062026" lon="4.823328139307354"><ele>166.0</ele><time>2026-04-28T15:22:02.999Z</time></trkpt><trkpt lat="45.791662098060264" lon="4.8232580303569215"><ele>166.0</ele><time>2026-04-28T15:22:03.999Z</time></trkpt><trkpt lat="45.79162080985971" lon="4.82317854122365"><ele>166.14285714285714</ele><time>2026-04-28T15:22:04.999Z</time></trkpt><trkpt lat="45.79157806021049" lon="4.823100362543068"><ele>166.2857142857143</ele><time>2026-04-28T15:22:05.999Z</time></trkpt><trkpt lat="45.791536332752436" lon="4.823021631836393"><ele>166.42857142857144</ele><time>2026-04-28T15:22:06.999Z</time></trkpt><trkpt lat="45.791492673569515" lon="4.82294102013054"><ele>166.57142857142856</ele><time>2026-04-28T15:22:07.999Z</time></trkpt><trkpt lat="45.79144635242329" lon="4.822860521485603"><ele>166.71428571428572</ele><time>2026-04-28T15:22:08.999Z</time></trkpt><trkpt lat="45.79139982301658" lon="4.822780940781133"><ele>166.85714285714286</ele><time>2026-04-28T15:22:09.999Z</time></trkpt><trkpt lat="45.7913602654171" lon="4.822704775469482"><ele>167.0</ele><time>2026-04-28T15:22:10.999Z</time></trkpt><trkpt lat="45.791314708399206" lon="4.822623973905726"><ele>166.71428571428572</ele><time>2026-04-28T15:22:11.999Z</time></trkpt><trkpt lat="45.79127170544447" lon="4.822543934369682"><ele>166.42857142857144</ele><time>2026-04-28T15:22:12.999Z</time></trkpt><trkpt lat="45.791230109912625" lon="4.822464325083294"><ele>166.14285714285717</ele><time>2026-04-28T15:22:13.999Z</time></trkpt><trkpt lat="45.79118397629625" lon="4.822392635425203"><ele>165.85714285714286</ele><time>2026-04-28T15:22:14.999Z</time></trkpt><trkpt lat="45.79113825745007" lon="4.822315514051016"><ele>165.57142857142858</ele><time>2026-04-28T15:22:15.999Z</time></trkpt><trkpt lat="45.79109291924137" lon="4.822242994788843"><ele>165.2857142857143</ele><time>2026-04-28T15:22:16.999Z</time></trkpt><trkpt lat="45.791047762281686" lon="4.822169537976435"><ele>165.0</ele><time>2026-04-28T15:22:17.999Z</time></trkpt><trkpt lat="45.79100900763674" lon="4.822096672098412"><ele>165.42857142857144</ele><time>2026-04-28T15:22:18.999Z</time></trkpt><trkpt lat="45.79096172169535" lon="4.822025204553533"><ele>165.85714285714286</ele><time>2026-04-28T15:22:19.999Z</time></trkpt><trkpt lat="45.79091580463944" lon="4.8219516940089235"><ele>166.28571428571428</ele><time>2026-04-28T15:22:20.999Z</time></trkpt><trkpt lat="45.79086579658392" lon="4.821881595172148"><ele>166.71428571428572</ele><time>2026-04-28T15:22:21.999Z</time></trkpt><trkpt lat="45.79081923776878" lon="4.821812668878579"><ele>167.14285714285714</ele><time>2026-04-28T15:22:22.999Z</time></trkpt><trkpt lat="45.79077122931846" lon="4.821744915409326"><ele>167.57142857142858</ele><time>2026-04-28T15:22:23.999Z</time></trkpt><trkpt lat="45.790723838869695" lon="4.821674934706628"><ele>168.0</ele><time>2026-04-28T15:22:24.999Z</time></trkpt><trkpt lat="45.79067001094406" lon="4.821610032645773"><ele>168.0</ele><time>2026-04-28T15:22:25.999Z</time></trkpt><trkpt lat="45.7906217936196" lon="4.821539308366609"><ele>168.0</ele><time>2026-04-28T15:22:26.999Z</time></trkpt><trkpt lat="45.79056734631629" lon="4.821470128263949"><ele>168.0</ele><time>2026-04-28T15:22:27.999Z</time></trkpt><trkpt lat="45.79051314298042" lon="4.821402557414541"><ele>168.0</ele><time>2026-04-28T15:22:28.999Z</time></trkpt><trkpt lat="45.79045922002362" lon="4.821334529288925"><ele>168.0</ele><time>2026-04-28T15:22:29.999Z</time></trkpt><trkpt lat="45.79040466939954" lon="4.821268247116403"><ele>168.0</ele><time>2026-04-28T15:22:30.999Z</time></trkpt><trkpt lat="45.79035389799426" lon="4.821201605161227"><ele>168.0</ele><time>2026-04-28T15:22:31.999Z</time></trkpt><trkpt lat="45.79029843172642" lon="4.82113448709878"><ele>168.0</ele><time>2026-04-28T15:22:32.999Z</time></trkpt><trkpt lat="45.790245633246876" lon="4.821068915063125"><ele>168.0</ele><time>2026-04-28T15:22:33.999Z</time></trkpt><trkpt lat="45.79018936773968" lon="4.821002566945567"><ele>168.0</ele><time>2026-04-28T15:22:34.999Z</time></trkpt><trkpt lat="45.790136643296975" lon="4.8209387086795275"><ele>168.0</ele><time>2026-04-28T15:22:35.999Z</time></trkpt><trkpt lat="45.7900770015545" lon="4.820877421784237"><ele>168.0</ele><time>2026-04-28T15:22:36.999Z</time></trkpt><trkpt lat="45.79002445642995" lon="4.82082049012055"><ele>168.0</ele><time>2026-04-28T15:22:37.999Z</time></trkpt><trkpt lat="45.78997510726688" lon="4.820751626011306"><ele>168.0</ele><time>2026-04-28T15:22:38.999Z</time></trkpt><trkpt lat="45.78991695081047" lon="4.820699719543832"><ele>168.0</ele><time>2026-04-28T15:22:39.999Z</time></trkpt><trkpt lat="45.78986899863671" lon="4.820638942780888"><ele>168.0</ele><time>2026-04-28T15:22:40.999Z</time></trkpt><trkpt lat="45.78977335652819" lon="4.820530925186787"><ele>168.0</ele><time>2026-04-28T15:22:42.999Z</time></trkpt><trkpt lat="45.78969155501938" lon="4.8204203839190765"><ele>168.0</ele><time>2026-04-28T15:22:44.999Z</time></trkpt><trkpt lat="45.78960355568501" lon="4.820316429673159"><ele>168.0</ele><time>2026-04-28T15:22:46.999Z</time></trkpt><trkpt lat="45.78955596676354" lon="4.820253381633148"><ele>168.0</ele><time>2026-04-28T15:22:47.999Z</time></trkpt><trkpt lat="45.78947136804152" lon="4.8201483354530295"><ele>168.0</ele><time>2026-04-28T15:22:49.999Z</time></trkpt><trkpt lat="45.78942093337599" lon="4.82009241498238"><ele>168.0</ele><time>2026-04-28T15:22:50.999Z</time></trkpt><trkpt lat="45.78932687223804" lon="4.819982964044242"><ele>168.0</ele><time>2026-04-28T15:22:52.999Z</time></trkpt><trkpt lat="45.78927434819294" lon="4.8199277506432034"><ele>168.0</ele><time>2026-04-28T15:22:53.999Z</time></trkpt><trkpt lat="45.78917729517377" lon="4.819804065239942"><ele>168.0</ele><time>2026-04-28T15:22:55.999Z</time></trkpt><trkpt lat="45.78912544500498" lon="4.819750519951269"><ele>168.0</ele><time>2026-04-28T15:22:56.999Z</time></trkpt><trkpt lat="45.789074665198" lon="4.819692330195094"><ele>168.0</ele><time>2026-04-28T15:22:57.999Z</time></trkpt><trkpt lat="45.78897697925318" lon="4.819575019402804"><ele>168.0</ele><time>2026-04-28T15:22:59.999Z</time></trkpt><trkpt lat="45.788922408767526" lon="4.819520252537377"><ele>168.0</ele><time>2026-04-28T15:23:00.999Z</time></trkpt><trkpt lat="45.788870288596" lon="4.819462775353913"><ele>168.0</ele><time>2026-04-28T15:23:01.999Z</time></trkpt><trkpt lat="45.78882156333885" lon="4.819404944614141"><ele>168.0</ele><time>2026-04-28T15:23:02.999Z</time></trkpt><trkpt lat="45.78872820060162" lon="4.8192880616099005"><ele>168.0</ele><time>2026-04-28T15:23:04.999Z</time></trkpt><trkpt lat="45.78863530528692" lon="4.819178214920167"><ele>168.0</ele><time>2026-04-28T15:23:06.998Z</time></trkpt><trkpt lat="45.78859135530459" lon="4.819112906784282"><ele>168.0</ele><time>2026-04-28T15:23:07.998Z</time></trkpt><trkpt lat="45.78853901184018" lon="4.81905829467601"><ele>168.0</ele><time>2026-04-28T15:23:08.998Z</time></trkpt><trkpt lat="45.788438357953275" lon="4.818943027702574"><ele>168.0</ele><time>2026-04-28T15:23:11Z</time></trkpt><trkpt lat="45.788343578153686" lon="4.818821736329233"><ele>168.0</ele><time>2026-04-28T15:23:13Z</time></trkpt><trkpt lat="45.78824900366617" lon="4.818705849165907"><ele>168.0</ele><time>2026-04-28T15:23:15Z</time></trkpt><trkpt lat="45.78815421685916" lon="4.81859146870503"><ele>168.0</ele><time>2026-04-28T15:23:17Z</time></trkpt><trkpt lat="45.78810180707925" lon="4.818537718905985"><ele>168.0</ele><time>2026-04-28T15:23:18Z</time></trkpt><trkpt lat="45.78800750842696" lon="4.818432222830882"><ele>168.0</ele><time>2026-04-28T15:23:20Z</time></trkpt><trkpt lat="45.78792293284678" lon="4.818313831500508"><ele>168.0</ele><time>2026-04-28T15:23:22Z</time></trkpt><trkpt lat="45.787834603668465" lon="4.818206586019636"><ele>168.0</ele><time>2026-04-28T15:23:24Z</time></trkpt><trkpt lat="45.787736472976064" lon="4.818091605925938"><ele>168.0</ele><time>2026-04-28T15:23:26Z</time></trkpt><trkpt lat="45.78765181644289" lon="4.817980939026766"><ele>168.2</ele><time>2026-04-28T15:23:28Z</time></trkpt><trkpt lat="45.78756459779424" lon="4.817871795128181"><ele>168.4</ele><time>2026-04-28T15:23:30Z</time></trkpt><trkpt lat="45.78751244251317" lon="4.81781944464469"><ele>168.6</ele><time>2026-04-28T15:23:31Z</time></trkpt><trkpt lat="45.78742278506802" lon="4.8177116043655195"><ele>168.79999999999998</ele><time>2026-04-28T15:23:33Z</time></trkpt><trkpt lat="45.78733201922277" lon="4.817594646955158"><ele>169.0</ele><time>2026-04-28T15:23:35Z</time></trkpt><trkpt lat="45.7872392962045" lon="4.817484329737529"><ele>169.0</ele><time>2026-04-28T15:23:37Z</time></trkpt><trkpt lat="45.787150048059964" lon="4.81737010522291"><ele>169.0</ele><time>2026-04-28T15:23:39Z</time></trkpt><trkpt lat="45.787102446760166" lon="4.817309739210874"><ele>169.0</ele><time>2026-04-28T15:23:40Z</time></trkpt><trkpt lat="45.787006359634525" lon="4.817198939925767"><ele>169.0</ele><time>2026-04-28T15:23:42Z</time></trkpt><trkpt lat="45.7869094874954" lon="4.817087292907533"><ele>169.0</ele><time>2026-04-28T15:23:44Z</time></trkpt><trkpt lat="45.78681034014387" lon="4.816986631968199"><ele>168.79999999999998</ele><time>2026-04-28T15:23:46Z</time></trkpt><trkpt lat="45.786699773771204" lon="4.8169025465273725"><ele>168.6</ele><time>2026-04-28T15:23:48Z</time></trkpt><trkpt lat="45.78664250155681" lon="4.816858122870497"><ele>168.4</ele><time>2026-04-28T15:23:49Z</time></trkpt><trkpt lat="45.78658442139903" lon="4.816811671586506"><ele>168.2</ele><time>2026-04-28T15:23:50Z</time></trkpt><trkpt lat="45.786522008770156" lon="4.816779341631809"><ele>168.0</ele><time>2026-04-28T15:23:51Z</time></trkpt><trkpt lat="45.78640508002555" lon="4.816699168373243"><ele>168.0</ele><time>2026-04-28T15:23:53Z</time></trkpt><trkpt lat="45.7863460408397" lon="4.81665937954975"><ele>168.0</ele><time>2026-04-28T15:23:54Z</time></trkpt><trkpt lat="45.786289126648164" lon="4.816617111191966"><ele>168.0</ele><time>2026-04-28T15:23:55Z</time></trkpt><trkpt lat="45.78617725528716" lon="4.816550861928423"><ele>168.0</ele><time>2026-04-28T15:23:57Z</time></trkpt><trkpt lat="45.786067086938054" lon="4.816470639530781"><ele>168.0</ele><time>2026-04-28T15:23:59Z</time></trkpt><trkpt lat="45.78595611561207" lon="4.816386334415646"><ele>171.16666666666666</ele><time>2026-04-28T15:24:01Z</time></trkpt><trkpt lat="45.78589879505042" lon="4.8163426635399516"><ele>174.33333333333334</ele><time>2026-04-28T15:24:01.999Z</time></trkpt><trkpt lat="45.78584220273414" lon="4.816302214180557"><ele>177.5</ele><time>2026-04-28T15:24:02.999Z</time></trkpt><trkpt lat="45.785779264709255" lon="4.816257179586457"><ele>180.66666666666669</ele><time>2026-04-28T15:24:03.999Z</time></trkpt><trkpt lat="45.78571929969987" lon="4.816214132406719"><ele>183.83333333333334</ele><time>2026-04-28T15:24:04.999Z</time></trkpt><trkpt lat="45.78561006507656" lon="4.816129899803249"><ele>187.0</ele><time>2026-04-28T15:24:06.999Z</time></trkpt><trkpt lat="45.78551005156974" lon="4.816048947606337"><ele>186.39999999999998</ele><time>2026-04-28T15:24:08.999Z</time></trkpt><trkpt lat="45.78542328133096" lon="4.815979674795081"><ele>185.79999999999998</ele><time>2026-04-28T15:24:10.999Z</time></trkpt><trkpt lat="45.78533172411404" lon="4.815911003689587"><ele>185.2</ele><time>2026-04-28T15:24:12.999Z</time></trkpt><trkpt lat="45.78524249246741" lon="4.815851310852841"><ele>184.6</ele><time>2026-04-28T15:24:14.999Z</time></trkpt><trkpt lat="45.78515515026896" lon="4.815781694801521"><ele>184.0</ele><time>2026-04-28T15:24:16.999Z</time></trkpt><trkpt lat="45.78506828136458" lon="4.815699855046663"><ele>184.0</ele><time>2026-04-28T15:24:18.999Z</time></trkpt><trkpt lat="45.78496384473435" lon="4.815615294484885"><ele>184.0</ele><time>2026-04-28T15:24:20.999Z</time></trkpt><trkpt lat="45.78486155556519" lon="4.81551923977942"><ele>184.0</ele><time>2026-04-28T15:24:22.999Z</time></trkpt><trkpt lat="45.78480653872624" lon="4.8154697003380775"><ele>184.0</ele><time>2026-04-28T15:24:23.999Z</time></trkpt><trkpt lat="45.784705541599656" lon="4.81538027173229"><ele>184.0</ele><time>2026-04-28T15:24:25.999Z</time></trkpt><trkpt lat="45.78460509050794" lon="4.815292882877255"><ele>184.0</ele><time>2026-04-28T15:24:27.999Z</time></trkpt><trkpt lat="45.784506264519024" lon="4.815212121165301"><ele>184.0</ele><time>2026-04-28T15:24:29.999Z</time></trkpt><trkpt lat="45.784417857529775" lon="4.81513524272349"><ele>184.0</ele><time>2026-04-28T15:24:31.999Z</time></trkpt><trkpt lat="45.784327206192614" lon="4.815051092480625"><ele>184.0</ele><time>2026-04-28T15:24:33.999Z</time></trkpt><trkpt lat="45.78422919675265" lon="4.814968199921605"><ele>184.0</ele><time>2026-04-28T15:24:35.999Z</time></trkpt><trkpt lat="45.78412876669156" lon="4.8148719658441985"><ele>181.79999999999998</ele><time>2026-04-28T15:24:37.999Z</time></trkpt><trkpt lat="45.784039757957906" lon="4.814784922955539"><ele>179.6</ele><time>2026-04-28T15:24:39.999Z</time></trkpt><trkpt lat="45.78398144641908" lon="4.814740986755914"><ele>177.4</ele><time>2026-04-28T15:24:40.999Z</time></trkpt><trkpt lat="45.78387176680982" lon="4.814651596523321"><ele>175.2</ele><time>2026-04-28T15:24:42.999Z</time></trkpt><trkpt lat="45.78376048677844" lon="4.814559349667965"><ele>173.0</ele><time>2026-04-28T15:24:44.999Z</time></trkpt><trkpt lat="45.78370118941001" lon="4.8145098905434125"><ele>173.0</ele><time>2026-04-28T15:24:45.999Z</time></trkpt><trkpt lat="45.7836376105883" lon="4.814462400658445"><ele>173.0</ele><time>2026-04-28T15:24:46.999Z</time></trkpt><trkpt lat="45.78357131154819" lon="4.814416560645243"><ele>173.0</ele><time>2026-04-28T15:24:47.999Z</time></trkpt><trkpt lat="45.78351474727888" lon="4.814355300073747"><ele>173.0</ele><time>2026-04-28T15:24:48.999Z</time></trkpt><trkpt lat="45.78344813580958" lon="4.814297499314963"><ele>173.0</ele><time>2026-04-28T15:24:49.999Z</time></trkpt><trkpt lat="45.78338771227002" lon="4.814244102236935"><ele>173.0</ele><time>2026-04-28T15:24:50.999Z</time></trkpt><trkpt lat="45.783323566916366" lon="4.8141900382831135"><ele>173.0</ele><time>2026-04-28T15:24:51.999Z</time></trkpt><trkpt lat="45.783256127269986" lon="4.814128856732333"><ele>172.83333333333331</ele><time>2026-04-28T15:24:52.999Z</time></trkpt><trkpt lat="45.78319477315093" lon="4.814064534197723"><ele>172.66666666666666</ele><time>2026-04-28T15:24:53.999Z</time></trkpt><trkpt lat="45.78313509875262" lon="4.814002147818576"><ele>172.5</ele><time>2026-04-28T15:24:54.999Z</time></trkpt><trkpt lat="45.78306703536158" lon="4.813940990723119"><ele>172.33333333333334</ele><time>2026-04-28T15:24:55.999Z</time></trkpt><trkpt lat="45.783002864393566" lon="4.813885596733363"><ele>172.16666666666669</ele><time>2026-04-28T15:24:56.999Z</time></trkpt><trkpt lat="45.78294059861114" lon="4.813828830143842"><ele>172.0</ele><time>2026-04-28T15:24:57.999Z</time></trkpt><trkpt lat="45.782877600693915" lon="4.8137667737378536"><ele>172.0</ele><time>2026-04-28T15:24:58.999Z</time></trkpt><trkpt lat="45.78281320580806" lon="4.813713710738979"><ele>172.0</ele><time>2026-04-28T15:24:59.999Z</time></trkpt><trkpt lat="45.78274770178207" lon="4.813658034222949"><ele>172.0</ele><time>2026-04-28T15:25:00.999Z</time></trkpt><trkpt lat="45.78268342916238" lon="4.8135978788634315"><ele>172.0</ele><time>2026-04-28T15:25:01.999Z</time></trkpt><trkpt lat="45.78262055471113" lon="4.813537093769388"><ele>172.0</ele><time>2026-04-28T15:25:02.999Z</time></trkpt><trkpt lat="45.782554296581324" lon="4.813477101624057"><ele>172.0</ele><time>2026-04-28T15:25:03.999Z</time></trkpt><trkpt lat="45.78248989939087" lon="4.813422306122643"><ele>172.00000000000003</ele><time>2026-04-28T15:25:04.999Z</time></trkpt><trkpt lat="45.78242324212559" lon="4.8133673353360305"><ele>172.0</ele><time>2026-04-28T15:25:05.999Z</time></trkpt><trkpt lat="45.78235998891559" lon="4.813308684382218"><ele>172.0</ele><time>2026-04-28T15:25:06.999Z</time></trkpt><trkpt lat="45.78229265114042" lon="4.813254905589168"><ele>172.0</ele><time>2026-04-28T15:25:07.999Z</time></trkpt><trkpt lat="45.78223643435017" lon="4.813196217512079"><ele>172.0</ele><time>2026-04-28T15:25:08.999Z</time></trkpt><trkpt lat="45.78217540938892" lon="4.813147429009522"><ele>172.00000000000003</ele><time>2026-04-28T15:25:09.999Z</time></trkpt><trkpt lat="45.78210804858113" lon="4.813097331204965"><ele>172.0</ele><time>2026-04-28T15:25:10.999Z</time></trkpt><trkpt lat="45.78204739114119" lon="4.8130436838763755"><ele>172.00000000000003</ele><time>2026-04-28T15:25:11.999Z</time></trkpt><trkpt lat="45.78199264096713" lon="4.812991813478172"><ele>172.0</ele><time>2026-04-28T15:25:12.999Z</time></trkpt><trkpt lat="45.781932989932066" lon="4.8129415062204925"><ele>172.0</ele><time>2026-04-28T15:25:13.998Z</time></trkpt><trkpt lat="45.78187093992515" lon="4.812890337311629"><ele>172.0</ele><time>2026-04-28T15:25:14.998Z</time></trkpt><trkpt lat="45.78181236332117" lon="4.81283940546919"><ele>172.0</ele><time>2026-04-28T15:25:15.998Z</time></trkpt><trkpt lat="45.78175110496207" lon="4.812782357560901"><ele>172.00000000000003</ele><time>2026-04-28T15:25:17Z</time></trkpt><trkpt lat="45.781694904644695" lon="4.8127250630168"><ele>172.0</ele><time>2026-04-28T15:25:18Z</time></trkpt><trkpt lat="45.78163331912764" lon="4.8126738649046095"><ele>171.85714285714286</ele><time>2026-04-28T15:25:19Z</time></trkpt><trkpt lat="45.781568602526164" lon="4.81262138473396"><ele>171.71428571428572</ele><time>2026-04-28T15:25:20Z</time></trkpt><trkpt lat="45.7815093971989" lon="4.812571793652016"><ele>171.57142857142856</ele><time>2026-04-28T15:25:21Z</time></trkpt><trkpt lat="45.781449035474424" lon="4.812532499113166"><ele>171.42857142857144</ele><time>2026-04-28T15:25:22Z</time></trkpt><trkpt lat="45.78139127807995" lon="4.812488632066402"><ele>171.28571428571428</ele><time>2026-04-28T15:25:23Z</time></trkpt><trkpt lat="45.78133376206494" lon="4.812447153221931"><ele>171.14285714285714</ele><time>2026-04-28T15:25:24Z</time></trkpt><trkpt lat="45.78127762375419" lon="4.812401184164463"><ele>171.0</ele><time>2026-04-28T15:25:25Z</time></trkpt><trkpt lat="45.78121717919117" lon="4.812356325810172"><ele>171.0</ele><time>2026-04-28T15:25:26Z</time></trkpt><trkpt lat="45.781157046689856" lon="4.812315673088245"><ele>171.0</ele><time>2026-04-28T15:25:27Z</time></trkpt><trkpt lat="45.78110159280061" lon="4.81226993166492"><ele>171.0</ele><time>2026-04-28T15:25:28Z</time></trkpt><trkpt lat="45.78098760131385" lon="4.812185319388184"><ele>171.0</ele><time>2026-04-28T15:25:30Z</time></trkpt><trkpt lat="45.7809274653056" lon="4.812141604669266"><ele>171.0</ele><time>2026-04-28T15:25:31Z</time></trkpt><trkpt lat="45.78086627223475" lon="4.812095384067757"><ele>171.0</ele><time>2026-04-28T15:25:32Z</time></trkpt><trkpt lat="45.78080197305498" lon="4.812051574048297"><ele>170.83333333333334</ele><time>2026-04-28T15:25:33Z</time></trkpt><trkpt lat="45.780738383660236" lon="4.81201279731065"><ele>170.66666666666666</ele><time>2026-04-28T15:25:34Z</time></trkpt><trkpt lat="45.78067280217193" lon="4.811978682469359"><ele>170.5</ele><time>2026-04-28T15:25:35Z</time></trkpt><trkpt lat="45.78061126371394" lon="4.81193956305881"><ele>170.33333333333331</ele><time>2026-04-28T15:25:36Z</time></trkpt><trkpt lat="45.78054746704174" lon="4.8119059452309845"><ele>170.16666666666666</ele><time>2026-04-28T15:25:37Z</time></trkpt><trkpt lat="45.78048581745489" lon="4.811873696103315"><ele>170.0</ele><time>2026-04-28T15:25:38Z</time></trkpt><trkpt lat="45.78036630714426" lon="4.81180370008495"><ele>170.0</ele><time>2026-04-28T15:25:40Z</time></trkpt><trkpt lat="45.78030680612476" lon="4.811766435400436"><ele>170.0</ele><time>2026-04-28T15:25:41Z</time></trkpt><trkpt lat="45.78024639189427" lon="4.811734642544882"><ele>170.0</ele><time>2026-04-28T15:25:42Z</time></trkpt><trkpt lat="45.78013084876763" lon="4.811679364973588"><ele>170.0</ele><time>2026-04-28T15:25:44Z</time></trkpt><trkpt lat="45.78006843551275" lon="4.811655787338272"><ele>170.0</ele><time>2026-04-28T15:25:45Z</time></trkpt><trkpt lat="45.7799559753666" lon="4.811607757771025"><ele>170.0</ele><time>2026-04-28T15:25:47Z</time></trkpt><trkpt lat="45.77985785349479" lon="4.811560603195396"><ele>169.5</ele><time>2026-04-28T15:25:49Z</time></trkpt><trkpt lat="45.779758497668865" lon="4.811515002800124"><ele>169.0</ele><time>2026-04-28T15:25:51Z</time></trkpt><trkpt lat="45.77964249988904" lon="4.811484043539672"><ele>168.5</ele><time>2026-04-28T15:25:53Z</time></trkpt><trkpt lat="45.77952936646473" lon="4.811454618881436"><ele>168.0</ele><time>2026-04-28T15:25:55Z</time></trkpt><trkpt lat="45.77941010422361" lon="4.8114052466491835"><ele>169.42857142857142</ele><time>2026-04-28T15:25:57Z</time></trkpt><trkpt lat="45.779346400823485" lon="4.81137397213586"><ele>170.85714285714286</ele><time>2026-04-28T15:25:58Z</time></trkpt><trkpt lat="45.779278141291556" lon="4.81134647487311"><ele>172.28571428571428</ele><time>2026-04-28T15:25:59Z</time></trkpt><trkpt lat="45.77921264162491" lon="4.8113155569593875"><ele>173.71428571428572</ele><time>2026-04-28T15:26:00Z</time></trkpt><trkpt lat="45.77914678800104" lon="4.811288646464134"><ele>175.14285714285714</ele><time>2026-04-28T15:26:01Z</time></trkpt><trkpt lat="45.779076355030725" lon="4.811257333099288"><ele>176.57142857142856</ele><time>2026-04-28T15:26:02Z</time></trkpt><trkpt lat="45.77901075806314" lon="4.8112310922500265"><ele>178.0</ele><time>2026-04-28T15:26:03Z</time></trkpt><trkpt lat="45.778942355436605" lon="4.811202708556101"><ele>177.99999999999997</ele><time>2026-04-28T15:26:04Z</time></trkpt><trkpt lat="45.77887551829917" lon="4.811174729726472"><ele>178.0</ele><time>2026-04-28T15:26:05Z</time></trkpt><trkpt lat="45.778806777055266" lon="4.811148505688661"><ele>178.0</ele><time>2026-04-28T15:26:06Z</time></trkpt><trkpt lat="45.77874067538574" lon="4.811116872230139"><ele>178.0</ele><time>2026-04-28T15:26:07Z</time></trkpt><trkpt lat="45.778675707858355" lon="4.811090053395554"><ele>178.0</ele><time>2026-04-28T15:26:07.999Z</time></trkpt><trkpt lat="45.77861077896345" lon="4.811058710071824"><ele>177.99999999999997</ele><time>2026-04-28T15:26:08.999Z</time></trkpt><trkpt lat="45.77854284267809" lon="4.811031590061898"><ele>178.0</ele><time>2026-04-28T15:26:09.999Z</time></trkpt><trkpt lat="45.778482159652384" lon="4.811001637102851"><ele>176.0</ele><time>2026-04-28T15:26:10.999Z</time></trkpt><trkpt lat="45.7783546624695" lon="4.8109351674887355"><ele>174.0</ele><time>2026-04-28T15:26:12.999Z</time></trkpt><trkpt lat="45.77829253011614" lon="4.810909553303519"><ele>172.0</ele><time>2026-04-28T15:26:13.999Z</time></trkpt><trkpt lat="45.77816370407514" lon="4.8108612932463"><ele>170.0</ele><time>2026-04-28T15:26:15.999Z</time></trkpt><trkpt lat="45.778039949233786" lon="4.8108149630890695"><ele>170.0</ele><time>2026-04-28T15:26:17.999Z</time></trkpt><trkpt lat="45.77797818805892" lon="4.810786256528836"><ele>170.0</ele><time>2026-04-28T15:26:18.999Z</time></trkpt><trkpt lat="45.777844004988054" lon="4.810733885618903"><ele>170.0</ele><time>2026-04-28T15:26:20.999Z</time></trkpt><trkpt lat="45.77777551138412" lon="4.8107164339183255"><ele>170.0</ele><time>2026-04-28T15:26:21.999Z</time></trkpt><trkpt lat="45.777705727958555" lon="4.810696466014164"><ele>170.0</ele><time>2026-04-28T15:26:22.999Z</time></trkpt><trkpt lat="45.77764356969159" lon="4.8106589953651655"><ele>170.0</ele><time>2026-04-28T15:26:23.999Z</time></trkpt><trkpt lat="45.777523780694075" lon="4.810607846539806"><ele>170.66666666666666</ele><time>2026-04-28T15:26:25.999Z</time></trkpt><trkpt lat="45.777436520276595" lon="4.8105728695580385"><ele>171.33333333333331</ele><time>2026-04-28T15:26:26.999Z</time></trkpt><trkpt lat="45.777361206967534" lon="4.810547195232871"><ele>172.0</ele><time>2026-04-28T15:26:27.999Z</time></trkpt><trkpt lat="45.77728278663624" lon="4.810528220903437"><ele>172.66666666666666</ele><time>2026-04-28T15:26:28.999Z</time></trkpt><trkpt lat="45.77720026161073" lon="4.810507571713882"><ele>173.33333333333334</ele><time>2026-04-28T15:26:29.999Z</time></trkpt><trkpt lat="45.777134884376004" lon="4.810493616889939"><ele>174.0</ele><time>2026-04-28T15:26:30.999Z</time></trkpt><trkpt lat="45.77705475037086" lon="4.8104630264611155"><ele>174.0</ele><time>2026-04-28T15:26:31.999Z</time></trkpt><trkpt lat="45.776987912288455" lon="4.810436741650897"><ele>174.0</ele><time>2026-04-28T15:26:32.999Z</time></trkpt><trkpt lat="45.776912041265795" lon="4.810414721695202"><ele>174.0</ele><time>2026-04-28T15:26:33.999Z</time></trkpt><trkpt lat="45.77682668119826" lon="4.81038890348243"><ele>174.0</ele><time>2026-04-28T15:26:34.999Z</time></trkpt><trkpt lat="45.77674997757706" lon="4.810376381228472"><ele>174.0</ele><time>2026-04-28T15:26:35.999Z</time></trkpt><trkpt lat="45.776679459367536" lon="4.810362738606247"><ele>174.0</ele><time>2026-04-28T15:26:36.999Z</time></trkpt><trkpt lat="45.77660747722759" lon="4.810347694486397"><ele>173.83333333333334</ele><time>2026-04-28T15:26:37.999Z</time></trkpt><trkpt lat="45.77653971481753" lon="4.810342427850442"><ele>173.66666666666666</ele><time>2026-04-28T15:26:38.999Z</time></trkpt><trkpt lat="45.776473018502905" lon="4.810324562070759"><ele>173.5</ele><time>2026-04-28T15:26:39.999Z</time></trkpt><trkpt lat="45.77639832891603" lon="4.810311187696871"><ele>173.33333333333331</ele><time>2026-04-28T15:26:40.999Z</time></trkpt><trkpt lat="45.7762571700162" lon="4.810280166420343"><ele>173.16666666666666</ele><time>2026-04-28T15:26:42.999Z</time></trkpt><trkpt lat="45.77618503435298" lon="4.810276194800036"><ele>173.0</ele><time>2026-04-28T15:26:43.999Z</time></trkpt><trkpt lat="45.77611148669009" lon="4.810268554103561"><ele>173.0</ele><time>2026-04-28T15:26:44.999Z</time></trkpt><trkpt lat="45.77604337275171" lon="4.810265101923009"><ele>173.0</ele><time>2026-04-28T15:26:45.999Z</time></trkpt><trkpt lat="45.77597953084354" lon="4.8102630242997915"><ele>173.0</ele><time>2026-04-28T15:26:46.999Z</time></trkpt><trkpt lat="45.77590627295565" lon="4.810262763205969"><ele>173.0</ele><time>2026-04-28T15:26:47.999Z</time></trkpt><trkpt lat="45.775833675838676" lon="4.810260252928359"><ele>173.0</ele><time>2026-04-28T15:26:48.999Z</time></trkpt><trkpt lat="45.775767022169426" lon="4.810257166605307"><ele>173.0</ele><time>2026-04-28T15:26:49.999Z</time></trkpt><trkpt lat="45.77569845110474" lon="4.810260292502017"><ele>173.0</ele><time>2026-04-28T15:26:50.999Z</time></trkpt><trkpt lat="45.77562752466588" lon="4.810260435249522"><ele>172.7142857142857</ele><time>2026-04-28T15:26:51.999Z</time></trkpt><trkpt lat="45.77556078651484" lon="4.810262608557189"><ele>172.42857142857144</ele><time>2026-04-28T15:26:52.999Z</time></trkpt><trkpt lat="45.775487299991276" lon="4.8102738668111495"><ele>172.14285714285714</ele><time>2026-04-28T15:26:53.999Z</time></trkpt><trkpt lat="45.77541919604071" lon="4.810281283515347"><ele>171.85714285714283</ele><time>2026-04-28T15:26:54.999Z</time></trkpt><trkpt lat="45.77533521388004" lon="4.810293026436557"><ele>171.57142857142856</ele><time>2026-04-28T15:26:55.999Z</time></trkpt><trkpt lat="45.77525839367439" lon="4.8103171346991145"><ele>171.28571428571428</ele><time>2026-04-28T15:26:56.999Z</time></trkpt><trkpt lat="45.77518299560123" lon="4.8103321552411415"><ele>171.0</ele><time>2026-04-28T15:26:57.999Z</time></trkpt><trkpt lat="45.77503075429732" lon="4.810392665541027"><ele>170.83333333333334</ele><time>2026-04-28T15:26:59.999Z</time></trkpt><trkpt lat="45.77494018093668" lon="4.8104205295357625"><ele>170.66666666666666</ele><time>2026-04-28T15:27:00.999Z</time></trkpt><trkpt lat="45.774861927565254" lon="4.810458814662995"><ele>170.5</ele><time>2026-04-28T15:27:01.999Z</time></trkpt><trkpt lat="45.77479714726269" lon="4.81049874857126"><ele>170.33333333333331</ele><time>2026-04-28T15:27:02.999Z</time></trkpt><trkpt lat="45.77472723916843" lon="4.810538242080916"><ele>170.16666666666666</ele><time>2026-04-28T15:27:03.999Z</time></trkpt><trkpt lat="45.77465594585094" lon="4.8105776761672505"><ele>170.0</ele><time>2026-04-28T15:27:04.999Z</time></trkpt><trkpt lat="45.77458042861159" lon="4.810615488921294"><ele>170.0</ele><time>2026-04-28T15:27:05.999Z</time></trkpt><trkpt lat="45.77447939312325" lon="4.810694376045307"><ele>170.0</ele><time>2026-04-28T15:27:06.999Z</time></trkpt><trkpt lat="45.77440421451004" lon="4.810743152081086"><ele>170.0</ele><time>2026-04-28T15:27:07.999Z</time></trkpt><trkpt lat="45.774325286608466" lon="4.810809198313565"><ele>170.0</ele><time>2026-04-28T15:27:08.999Z</time></trkpt><trkpt lat="45.77425803442976" lon="4.810866417711574"><ele>170.0</ele><time>2026-04-28T15:27:09.999Z</time></trkpt><trkpt lat="45.774187749770334" lon="4.810925631385879"><ele>170.0</ele><time>2026-04-28T15:27:10.999Z</time></trkpt><trkpt lat="45.774124783782696" lon="4.810985723685123"><ele>170.0</ele><time>2026-04-28T15:27:11.999Z</time></trkpt><trkpt lat="45.77405128482092" lon="4.811055415979265"><ele>170.0</ele><time>2026-04-28T15:27:12.999Z</time></trkpt><trkpt lat="45.77399573898587" lon="4.811137009147558"><ele>170.0</ele><time>2026-04-28T15:27:13.999Z</time></trkpt><trkpt lat="45.77394907078531" lon="4.811222217189062"><ele>170.0</ele><time>2026-04-28T15:27:14.999Z</time></trkpt><trkpt lat="45.77387442342955" lon="4.811389689348269"><ele>170.0</ele><time>2026-04-28T15:27:16.999Z</time></trkpt><trkpt lat="45.77382967824255" lon="4.811468429941634"><ele>170.0</ele><time>2026-04-28T15:27:17.999Z</time></trkpt><trkpt lat="45.77379315237068" lon="4.8115532451490495"><ele>170.0</ele><time>2026-04-28T15:27:18.998Z</time></trkpt><trkpt lat="45.773753772239104" lon="4.811636748339506"><ele>170.0</ele><time>2026-04-28T15:27:19.998Z</time></trkpt><trkpt lat="45.773715354921926" lon="4.811719061742088"><ele>170.0</ele><time>2026-04-28T15:27:20.998Z</time></trkpt><trkpt lat="45.77367911727372" lon="4.811799451100075"><ele>170.0</ele><time>2026-04-28T15:27:21.998Z</time></trkpt><trkpt lat="45.773619298477605" lon="4.811949728681085"><ele>170.0</ele><time>2026-04-28T15:27:24Z</time></trkpt><trkpt lat="45.77357308910695" lon="4.81208406625287"><ele>170.2</ele><time>2026-04-28T15:27:26Z</time></trkpt><trkpt lat="45.77365134163756" lon="4.812267041731427"><ele>170.4</ele><time>2026-04-28T15:27:28Z</time></trkpt><trkpt lat="45.77371636906678" lon="4.8123264646738155"><ele>170.60000000000002</ele><time>2026-04-28T15:27:29Z</time></trkpt><trkpt lat="45.77378510418598" lon="4.812375404402945"><ele>170.8</ele><time>2026-04-28T15:27:30Z</time></trkpt><trkpt lat="45.77384628394976" lon="4.81243654274026"><ele>171.0</ele><time>2026-04-28T15:27:31Z</time></trkpt><trkpt lat="45.77390393133588" lon="4.81249770774596"><ele>171.0</ele><time>2026-04-28T15:27:32Z</time></trkpt><trkpt lat="45.773958620815236" lon="4.812564144256797"><ele>171.0</ele><time>2026-04-28T15:27:33Z</time></trkpt><trkpt lat="45.774009715709006" lon="4.812630137096247"><ele>171.0</ele><time>2026-04-28T15:27:34Z</time></trkpt><trkpt lat="45.774060879436995" lon="4.812695487292636"><ele>171.0</ele><time>2026-04-28T15:27:35Z</time></trkpt><trkpt lat="45.77413075473585" lon="4.812815951002258"><ele>171.0</ele><time>2026-04-28T15:27:37Z</time></trkpt><trkpt lat="45.77414179716549" lon="4.81291601281672"><ele>171.0</ele><time>2026-04-28T15:27:39Z</time></trkpt><trkpt lat="45.77409067798246" lon="4.812975914513488"><ele>171.28571428571428</ele><time>2026-04-28T15:27:42Z</time></trkpt><trkpt lat="45.77402396353382" lon="4.813012565731424"><ele>171.57142857142856</ele><time>2026-04-28T15:27:45Z</time></trkpt><trkpt lat="45.77393685203011" lon="4.8130297136601055"><ele>171.85714285714283</ele><time>2026-04-28T15:27:48Z</time></trkpt><trkpt lat="45.77387494063291" lon="4.813051688900071"><ele>172.14285714285714</ele><time>2026-04-28T15:27:51Z</time></trkpt><trkpt lat="45.77381686530992" lon="4.812989380088406"><ele>172.42857142857144</ele><time>2026-04-28T15:29:27.998Z</time></trkpt><trkpt lat="45.773746254392734" lon="4.812955748096483"><ele>172.7142857142857</ele><time>2026-04-28T15:29:35Z</time></trkpt><trkpt lat="45.77377719343272" lon="4.813042022292328"><ele>173.0</ele><time>2026-04-28T15:29:43Z</time></trkpt><trkpt lat="45.77396747655482" lon="4.813054262586476"><ele>173.0</ele><time>2026-04-28T15:30:10.02Z</time></trkpt><trkpt lat="45.77382329390017" lon="4.813139587645245"><ele>173.0</ele><time>2026-04-28T15:30:30.999Z</time></trkpt><trkpt lat="45.77393768528718" lon="4.813085555184783"><ele>173.0</ele><time>2026-04-28T15:30:36.999Z</time></trkpt><trkpt lat="45.773985988576165" lon="4.81316474519701"><ele>173.0</ele><time>2026-04-28T15:30:40.999Z</time></trkpt><trkpt lat="45.774004468737225" lon="4.812986366455269"><ele>173.0</ele><time>2026-04-28T15:31:08.999Z</time></trkpt><trkpt lat="45.773748108228716" lon="4.813112765555097"><ele>173.0</ele><time>2026-04-28T15:31:28.999Z</time></trkpt><trkpt lat="45.77392868761603" lon="4.813072195746623"><ele>173.0</ele><time>2026-04-28T15:31:36Z</time></trkpt><trkpt lat="45.77374693476227" lon="4.8131488915577645"><ele>173.0</ele><time>2026-04-28T15:31:40Z</time></trkpt><trkpt lat="45.77399609284268" lon="4.813035905029338"><ele>173.0</ele><time>2026-04-28T15:31:46Z</time></trkpt><trkpt lat="45.7737926999536" lon="4.813027856875969"><ele>173.0</ele><time>2026-04-28T15:32:04Z</time></trkpt><trkpt lat="45.77396776774425" lon="4.8130423847899175"><ele>173.0</ele><time>2026-04-28T15:32:09Z</time></trkpt><trkpt lat="45.773990578170185" lon="4.813151183681692"><ele>173.0</ele><time>2026-04-28T15:33:47Z</time></trkpt><trkpt lat="45.77391306607316" lon="4.813175139436435"><ele>173.0</ele><time>2026-04-28T15:33:49Z</time></trkpt><trkpt lat="45.773849339994264" lon="4.813143045891817"><ele>173.0</ele><time>2026-04-28T15:33:53Z</time></trkpt><trkpt lat="45.77378817196523" lon="4.813174945631028"><ele>173.0</ele><time>2026-04-28T15:33:56Z</time></trkpt><trkpt lat="45.77392997307712" lon="4.8129643842921315"><ele>173.0</ele><time>2026-04-28T15:33:57Z</time></trkpt><trkpt lat="45.77365293171794" lon="4.81306213885994"><ele>173.0</ele><time>2026-04-28T15:34:12Z</time></trkpt><trkpt lat="45.773974637585845" lon="4.8130644296968175"><ele>173.0</ele><time>2026-04-28T15:34:16Z</time></trkpt><trkpt lat="45.77374274381069" lon="4.812963986773801"><ele>173.0</ele><time>2026-04-28T15:34:28Z</time></trkpt><trkpt lat="45.77387575379946" lon="4.812950515015075"><ele>173.0</ele><time>2026-04-28T15:34:43.491Z</time></trkpt><trkpt lat="45.774103952045664" lon="4.813109415641734"><ele>173.0</ele><time>2026-04-28T15:34:56.999Z</time></trkpt><trkpt lat="45.77403206959816" lon="4.813120592388884"><ele>173.0</ele><time>2026-04-28T15:35:17.999Z</time></trkpt><trkpt lat="45.7739683310208" lon="4.813079089762278"><ele>173.0</ele><time>2026-04-28T15:35:20.999Z</time></trkpt><trkpt lat="45.773868832578486" lon="4.8130267967457625"><ele>173.0</ele><time>2026-04-28T15:35:22.999Z</time></trkpt><trkpt lat="45.77393586720613" lon="4.813007760620793"><ele>173.0</ele><time>2026-04-28T15:35:36.999Z</time></trkpt><trkpt lat="45.77393586720613" lon="4.813007760620793"><ele>173.0</ele><time>2026-04-28T15:35:36.999Z</time></trkpt></trkseg></trk></gpx>